<?xml version='1.0' encoding='UTF-8'?><gpx version="1.1" creator="JPX - https://github.com/jenetics/jpx" xmlns="http://www.topografix.com/GPX/1/1"><trk><trkseg><trkpt lat="43.9028859" lon="11.0720861"><ele>60.0</ele><time>2026-04-25T07:21:21.798Z</time></trkpt><trkpt lat="43.9029921" lon="11.072049"><ele>60.0</ele><time>2026-04-25T07:21:22.804Z</time></trkpt><trkpt lat="43.9030942" lon="11.0720066"><ele>60.0</ele><time>2026-04-25T07:21:23.81Z</time></trkpt><trkpt lat="43.9031948" lon="11.0719637"><ele>60.0</ele><time>2026-04-25T07:21:24.817Z</time></trkpt><trkpt lat="43.9032967" lon="11.0719217"><ele>60.0</ele><time>2026-04-25T07:21:25.823Z</time></trkpt><trkpt lat="43.9033867" lon="11.0718867"><ele>60.2</ele><time>2026-04-25T07:21:26.83Z</time></trkpt><trkpt lat="43.90348" lon="11.0718467"><ele>60.4</ele><time>2026-04-25T07:21:27.837Z</time></trkpt><trkpt lat="43.9035717" lon="11.07181"><ele>60.599999999999994</ele><time>2026-04-25T07:21:28.777Z</time></trkpt><trkpt lat="43.9036667" lon="11.0717717"><ele>60.8</ele><time>2026-04-25T07:21:29.784Z</time></trkpt><trkpt lat="43.9037533" lon="11.0717333"><ele>61.0</ele><time>2026-04-25T07:21:30.79Z</time></trkpt><trkpt lat="43.90383" lon="11.0716983"><ele>60.99999999999999</ele><time>2026-04-25T07:21:31.797Z</time></trkpt><trkpt lat="43.90391" lon="11.0716633"><ele>61.0</ele><time>2026-04-25T07:21:32.803Z</time></trkpt><trkpt lat="43.9039867" lon="11.071625"><ele>61.0</ele><time>2026-04-25T07:21:33.81Z</time></trkpt><trkpt lat="43.9040633" lon="11.07159"><ele>61.0</ele><time>2026-04-25T07:21:34.817Z</time></trkpt><trkpt lat="43.9041367" lon="11.0715633"><ele>60.99999999999999</ele><time>2026-04-25T07:21:35.823Z</time></trkpt><trkpt lat="43.904235" lon="11.0715333"><ele>61.0</ele><time>2026-04-25T07:21:37.768Z</time></trkpt><trkpt lat="43.9043133" lon="11.0715267"><ele>61.0</ele><time>2026-04-25T07:21:39.783Z</time></trkpt><trkpt lat="43.9044317" lon="11.07148"><ele>60.99999999999999</ele><time>2026-04-25T07:21:41.796Z</time></trkpt><trkpt lat="43.9044967" lon="11.071445"><ele>60.99999999999999</ele><time>2026-04-25T07:21:42.803Z</time></trkpt><trkpt lat="43.9045633" lon="11.0713983"><ele>61.0</ele><time>2026-04-25T07:21:43.809Z</time></trkpt><trkpt lat="43.90464" lon="11.0713433"><ele>61.0</ele><time>2026-04-25T07:21:44.816Z</time></trkpt><trkpt lat="43.90473" lon="11.0712817"><ele>61.0</ele><time>2026-04-25T07:21:45.823Z</time></trkpt><trkpt lat="43.904825" lon="11.0712267"><ele>60.99999999999999</ele><time>2026-04-25T07:21:46.829Z</time></trkpt><trkpt lat="43.9049217" lon="11.0711683"><ele>60.99999999999999</ele><time>2026-04-25T07:21:47.768Z</time></trkpt><trkpt lat="43.9050133" lon="11.0711117"><ele>61.0</ele><time>2026-04-25T07:21:48.775Z</time></trkpt><trkpt lat="43.905095" lon="11.0710617"><ele>61.0</ele><time>2026-04-25T07:21:49.782Z</time></trkpt><trkpt lat="43.905165" lon="11.071015"><ele>60.83333333333333</ele><time>2026-04-25T07:21:50.789Z</time></trkpt><trkpt lat="43.9052383" lon="11.070965"><ele>60.666666666666664</ele><time>2026-04-25T07:21:51.795Z</time></trkpt><trkpt lat="43.9053133" lon="11.0709083"><ele>60.5</ele><time>2026-04-25T07:21:52.802Z</time></trkpt><trkpt lat="43.9053867" lon="11.0708533"><ele>60.33333333333333</ele><time>2026-04-25T07:21:53.808Z</time></trkpt><trkpt lat="43.90546" lon="11.0708"><ele>60.166666666666664</ele><time>2026-04-25T07:21:54.815Z</time></trkpt><trkpt lat="43.9055333" lon="11.0707533"><ele>60.0</ele><time>2026-04-25T07:21:55.822Z</time></trkpt><trkpt lat="43.9056083" lon="11.0707133"><ele>60.0</ele><time>2026-04-25T07:21:56.828Z</time></trkpt><trkpt lat="43.9056917" lon="11.07068"><ele>60.0</ele><time>2026-04-25T07:21:57.768Z</time></trkpt><trkpt lat="43.9057817" lon="11.0706683"><ele>60.0</ele><time>2026-04-25T07:21:58.775Z</time></trkpt><trkpt lat="43.90587" lon="11.070675"><ele>60.0</ele><time>2026-04-25T07:21:59.78Z</time></trkpt><trkpt lat="43.9059517" lon="11.0706833"><ele>60.0</ele><time>2026-04-25T07:22:00.854Z</time></trkpt><trkpt lat="43.9060267" lon="11.07069"><ele>60.0</ele><time>2026-04-25T07:22:01.862Z</time></trkpt><trkpt lat="43.906095" lon="11.0707033"><ele>59.5</ele><time>2026-04-25T07:22:02.8Z</time></trkpt><trkpt lat="43.9061617" lon="11.07071"><ele>59.0</ele><time>2026-04-25T07:22:03.807Z</time></trkpt><trkpt lat="43.9062317" lon="11.070705"><ele>58.5</ele><time>2026-04-25T07:22:04.814Z</time></trkpt><trkpt lat="43.9063083" lon="11.0706817"><ele>58.0</ele><time>2026-04-25T07:22:05.821Z</time></trkpt><trkpt lat="43.9063833" lon="11.0706333"><ele>57.5</ele><time>2026-04-25T07:22:06.828Z</time></trkpt><trkpt lat="43.9064567" lon="11.0705633"><ele>57.0</ele><time>2026-04-25T07:22:07.767Z</time></trkpt><trkpt lat="43.9065467" lon="11.0704517"><ele>57.0</ele><time>2026-04-25T07:22:08.774Z</time></trkpt><trkpt lat="43.9066417" lon="11.070325"><ele>57.0</ele><time>2026-04-25T07:22:09.846Z</time></trkpt><trkpt lat="43.90674" lon="11.0701867"><ele>57.0</ele><time>2026-04-25T07:22:10.853Z</time></trkpt><trkpt lat="43.9068417" lon="11.0700367"><ele>57.0</ele><time>2026-04-25T07:22:11.86Z</time></trkpt><trkpt lat="43.9069483" lon="11.0698867"><ele>57.0</ele><time>2026-04-25T07:22:12.8Z</time></trkpt><trkpt lat="43.90706" lon="11.0697467"><ele>57.0</ele><time>2026-04-25T07:22:13.807Z</time></trkpt><trkpt lat="43.9071783" lon="11.069625"><ele>57.0</ele><time>2026-04-25T07:22:14.814Z</time></trkpt><trkpt lat="43.9073033" lon="11.0695167"><ele>57.0</ele><time>2026-04-25T07:22:15.82Z</time></trkpt><trkpt lat="43.90743" lon="11.0694333"><ele>57.0</ele><time>2026-04-25T07:22:16.827Z</time></trkpt><trkpt lat="43.90756" lon="11.0693617"><ele>57.0</ele><time>2026-04-25T07:22:17.832Z</time></trkpt><trkpt lat="43.9077" lon="11.0693067"><ele>57.0</ele><time>2026-04-25T07:22:18.84Z</time></trkpt><trkpt lat="43.9078417" lon="11.0692617"><ele>57.0</ele><time>2026-04-25T07:22:19.847Z</time></trkpt><trkpt lat="43.90798" lon="11.06921"><ele>57.0</ele><time>2026-04-25T07:22:20.853Z</time></trkpt><trkpt lat="43.9081083" lon="11.0691383"><ele>57.0</ele><time>2026-04-25T07:22:21.793Z</time></trkpt><trkpt lat="43.9082233" lon="11.0690433"><ele>57.0</ele><time>2026-04-25T07:22:22.799Z</time></trkpt><trkpt lat="43.9083233" lon="11.0689317"><ele>57.0</ele><time>2026-04-25T07:22:23.805Z</time></trkpt><trkpt lat="43.9084133" lon="11.0688033"><ele>57.0</ele><time>2026-04-25T07:22:24.812Z</time></trkpt><trkpt lat="43.9084983" lon="11.0686633"><ele>57.0</ele><time>2026-04-25T07:22:25.819Z</time></trkpt><trkpt lat="43.9085817" lon="11.0685183"><ele>57.0</ele><time>2026-04-25T07:22:26.826Z</time></trkpt><trkpt lat="43.9086633" lon="11.06837"><ele>57.0</ele><time>2026-04-25T07:22:27.833Z</time></trkpt><trkpt lat="43.90874" lon="11.0682133"><ele>57.0</ele><time>2026-04-25T07:22:28.839Z</time></trkpt><trkpt lat="43.90881" lon="11.0680567"><ele>57.0</ele><time>2026-04-25T07:22:29.846Z</time></trkpt><trkpt lat="43.9088783" lon="11.0678983"><ele>57.0</ele><time>2026-04-25T07:22:30.852Z</time></trkpt><trkpt lat="43.9089517" lon="11.0677583"><ele>57.0</ele><time>2026-04-25T07:22:31.791Z</time></trkpt><trkpt lat="43.9090433" lon="11.0676267"><ele>57.0</ele><time>2026-04-25T07:22:32.799Z</time></trkpt><trkpt lat="43.9091533" lon="11.0675167"><ele>57.0</ele><time>2026-04-25T07:22:33.805Z</time></trkpt><trkpt lat="43.9092733" lon="11.067425"><ele>57.0</ele><time>2026-04-25T07:22:34.811Z</time></trkpt><trkpt lat="43.9093867" lon="11.067345"><ele>57.0</ele><time>2026-04-25T07:22:35.818Z</time></trkpt><trkpt lat="43.9095" lon="11.06727"><ele>57.5</ele><time>2026-04-25T07:22:36.824Z</time></trkpt><trkpt lat="43.909615" lon="11.0671967"><ele>58.0</ele><time>2026-04-25T07:22:37.832Z</time></trkpt><trkpt lat="43.9097317" lon="11.06712"><ele>58.5</ele><time>2026-04-25T07:22:38.838Z</time></trkpt><trkpt lat="43.90985" lon="11.06704"><ele>59.0</ele><time>2026-04-25T07:22:39.845Z</time></trkpt><trkpt lat="43.90997" lon="11.0669583"><ele>58.75</ele><time>2026-04-25T07:22:40.852Z</time></trkpt><trkpt lat="43.9100933" lon="11.0668833"><ele>58.5</ele><time>2026-04-25T07:22:41.79Z</time></trkpt><trkpt lat="43.9102217" lon="11.0668167"><ele>58.25</ele><time>2026-04-25T07:22:42.798Z</time></trkpt><trkpt lat="43.91035" lon="11.0667517"><ele>58.0</ele><time>2026-04-25T07:22:43.804Z</time></trkpt><trkpt lat="43.9104767" lon="11.0666883"><ele>58.0</ele><time>2026-04-25T07:22:44.811Z</time></trkpt><trkpt lat="43.9106" lon="11.0666167"><ele>58.0</ele><time>2026-04-25T07:22:45.818Z</time></trkpt><trkpt lat="43.91072" lon="11.0665383"><ele>58.0</ele><time>2026-04-25T07:22:46.823Z</time></trkpt><trkpt lat="43.9108383" lon="11.0664517"><ele>58.0</ele><time>2026-04-25T07:22:47.831Z</time></trkpt><trkpt lat="43.9109567" lon="11.06636"><ele>58.25</ele><time>2026-04-25T07:22:48.838Z</time></trkpt><trkpt lat="43.9110783" lon="11.0662683"><ele>58.5</ele><time>2026-04-25T07:22:49.844Z</time></trkpt><trkpt lat="43.9112" lon="11.0661783"><ele>58.75</ele><time>2026-04-25T07:22:50.851Z</time></trkpt><trkpt lat="43.9113217" lon="11.0660883"><ele>59.0</ele><time>2026-04-25T07:22:51.79Z</time></trkpt><trkpt lat="43.9114383" lon="11.066"><ele>59.0</ele><time>2026-04-25T07:22:52.797Z</time></trkpt><trkpt lat="43.9115517" lon="11.065915"><ele>59.0</ele><time>2026-04-25T07:22:53.804Z</time></trkpt><trkpt lat="43.9116583" lon="11.0658367"><ele>59.0</ele><time>2026-04-25T07:22:54.81Z</time></trkpt><trkpt lat="43.9117633" lon="11.0657583"><ele>59.0</ele><time>2026-04-25T07:22:55.817Z</time></trkpt><trkpt lat="43.9118633" lon="11.06568"><ele>60.2</ele><time>2026-04-25T07:22:56.824Z</time></trkpt><trkpt lat="43.9119567" lon="11.0656"><ele>61.400000000000006</ele><time>2026-04-25T07:22:57.83Z</time></trkpt><trkpt lat="43.91204" lon="11.06552"><ele>62.6</ele><time>2026-04-25T07:22:58.837Z</time></trkpt><trkpt lat="43.9121183" lon="11.0654433"><ele>63.8</ele><time>2026-04-25T07:22:59.844Z</time></trkpt><trkpt lat="43.9121933" lon="11.0653833"><ele>65.0</ele><time>2026-04-25T07:23:00.85Z</time></trkpt><trkpt lat="43.9122683" lon="11.0653383"><ele>65.0</ele><time>2026-04-25T07:23:01.79Z</time></trkpt><trkpt lat="43.9123433" lon="11.0653367"><ele>65.0</ele><time>2026-04-25T07:23:02.796Z</time></trkpt><trkpt lat="43.9124133" lon="11.0653283"><ele>65.0</ele><time>2026-04-25T07:23:03.803Z</time></trkpt><trkpt lat="43.9124717" lon="11.0652917"><ele>65.0</ele><time>2026-04-25T07:23:04.809Z</time></trkpt><trkpt lat="43.9125183" lon="11.065225"><ele>65.0</ele><time>2026-04-25T07:23:05.816Z</time></trkpt><trkpt lat="43.9125617" lon="11.0651283"><ele>65.0</ele><time>2026-04-25T07:23:06.823Z</time></trkpt><trkpt lat="43.912625" lon="11.0650233"><ele>65.0</ele><time>2026-04-25T07:23:07.829Z</time></trkpt><trkpt lat="43.91272" lon="11.0649067"><ele>65.0</ele><time>2026-04-25T07:23:08.836Z</time></trkpt><trkpt lat="43.91282" lon="11.0648067"><ele>65.0</ele><time>2026-04-25T07:23:09.843Z</time></trkpt><trkpt lat="43.9129217" lon="11.0647033"><ele>65.0</ele><time>2026-04-25T07:23:10.782Z</time></trkpt><trkpt lat="43.9130283" lon="11.064605"><ele>65.0</ele><time>2026-04-25T07:23:11.789Z</time></trkpt><trkpt lat="43.9131367" lon="11.0645033"><ele>65.0</ele><time>2026-04-25T07:23:12.796Z</time></trkpt><trkpt lat="43.913245" lon="11.0644033"><ele>65.0</ele><time>2026-04-25T07:23:13.801Z</time></trkpt><trkpt lat="43.91335" lon="11.06431"><ele>65.0</ele><time>2026-04-25T07:23:14.809Z</time></trkpt><trkpt lat="43.91345" lon="11.06422"><ele>64.75</ele><time>2026-04-25T07:23:15.816Z</time></trkpt><trkpt lat="43.9135433" lon="11.06413"><ele>64.5</ele><time>2026-04-25T07:23:16.822Z</time></trkpt><trkpt lat="43.9136333" lon="11.0640433"><ele>64.25</ele><time>2026-04-25T07:23:17.829Z</time></trkpt><trkpt lat="43.913725" lon="11.0639483"><ele>64.0</ele><time>2026-04-25T07:23:18.835Z</time></trkpt><trkpt lat="43.9138167" lon="11.06383"><ele>64.0</ele><time>2026-04-25T07:23:19.842Z</time></trkpt><trkpt lat="43.9139067" lon="11.0636917"><ele>64.0</ele><time>2026-04-25T07:23:20.782Z</time></trkpt><trkpt lat="43.91398" lon="11.0635167"><ele>64.0</ele><time>2026-04-25T07:23:21.788Z</time></trkpt><trkpt lat="43.9140517" lon="11.0633233"><ele>64.0</ele><time>2026-04-25T07:23:22.795Z</time></trkpt><trkpt lat="43.9141267" lon="11.0631283"><ele>63.75</ele><time>2026-04-25T07:23:23.801Z</time></trkpt><trkpt lat="43.9142" lon="11.0629383"><ele>63.5</ele><time>2026-04-25T07:23:24.807Z</time></trkpt><trkpt lat="43.91427" lon="11.0627567"><ele>63.25</ele><time>2026-04-25T07:23:25.815Z</time></trkpt><trkpt lat="43.91434" lon="11.0625817"><ele>63.0</ele><time>2026-04-25T07:23:26.82Z</time></trkpt><trkpt lat="43.9144083" lon="11.0624067"><ele>62.75</ele><time>2026-04-25T07:23:27.828Z</time></trkpt><trkpt lat="43.9144733" lon="11.0622333"><ele>62.5</ele><time>2026-04-25T07:23:28.834Z</time></trkpt><trkpt lat="43.9145367" lon="11.06206"><ele>62.25</ele><time>2026-04-25T07:23:29.841Z</time></trkpt><trkpt lat="43.9146017" lon="11.0618933"><ele>62.0</ele><time>2026-04-25T07:23:30.781Z</time></trkpt><trkpt lat="43.9146683" lon="11.0617333"><ele>62.5</ele><time>2026-04-25T07:23:31.787Z</time></trkpt><trkpt lat="43.9147367" lon="11.061575"><ele>63.0</ele><time>2026-04-25T07:23:32.794Z</time></trkpt><trkpt lat="43.9148117" lon="11.061425"><ele>63.5</ele><time>2026-04-25T07:23:33.801Z</time></trkpt><trkpt lat="43.9148967" lon="11.0612883"><ele>64.0</ele><time>2026-04-25T07:23:34.806Z</time></trkpt><trkpt lat="43.91499" lon="11.06117"><ele>64.5</ele><time>2026-04-25T07:23:35.814Z</time></trkpt><trkpt lat="43.91509" lon="11.061065"><ele>65.0</ele><time>2026-04-25T07:23:36.821Z</time></trkpt><trkpt lat="43.9151933" lon="11.060965"><ele>65.5</ele><time>2026-04-25T07:23:37.827Z</time></trkpt><trkpt lat="43.9152883" lon="11.06087"><ele>66.0</ele><time>2026-04-25T07:23:38.834Z</time></trkpt><trkpt lat="43.9153767" lon="11.0607817"><ele>66.0</ele><time>2026-04-25T07:23:39.84Z</time></trkpt><trkpt lat="43.915465" lon="11.0606967"><ele>66.0</ele><time>2026-04-25T07:23:40.78Z</time></trkpt><trkpt lat="43.9155533" lon="11.0606117"><ele>66.0</ele><time>2026-04-25T07:23:41.787Z</time></trkpt><trkpt lat="43.9156417" lon="11.0605383"><ele>66.0</ele><time>2026-04-25T07:23:42.793Z</time></trkpt><trkpt lat="43.9157267" lon="11.0604733"><ele>66.0</ele><time>2026-04-25T07:23:43.8Z</time></trkpt><trkpt lat="43.9158183" lon="11.06041"><ele>66.75</ele><time>2026-04-25T07:23:44.806Z</time></trkpt><trkpt lat="43.91592" lon="11.06033"><ele>67.5</ele><time>2026-04-25T07:23:45.812Z</time></trkpt><trkpt lat="43.916025" lon="11.060245"><ele>68.25</ele><time>2026-04-25T07:23:46.82Z</time></trkpt><trkpt lat="43.916135" lon="11.0601583"><ele>69.0</ele><time>2026-04-25T07:23:47.826Z</time></trkpt><trkpt lat="43.91625" lon="11.0600883"><ele>69.0</ele><time>2026-04-25T07:23:48.833Z</time></trkpt><trkpt lat="43.9163667" lon="11.0600267"><ele>69.0</ele><time>2026-04-25T07:23:49.773Z</time></trkpt><trkpt lat="43.916475" lon="11.059975"><ele>69.0</ele><time>2026-04-25T07:23:50.779Z</time></trkpt><trkpt lat="43.9165833" lon="11.0599233"><ele>69.0</ele><time>2026-04-25T07:23:51.785Z</time></trkpt><trkpt lat="43.9166883" lon="11.05987"><ele>68.75</ele><time>2026-04-25T07:23:52.792Z</time></trkpt><trkpt lat="43.9167967" lon="11.059815"><ele>68.5</ele><time>2026-04-25T07:23:53.799Z</time></trkpt><trkpt lat="43.9169083" lon="11.059765"><ele>68.25</ele><time>2026-04-25T07:23:54.806Z</time></trkpt><trkpt lat="43.917015" lon="11.0597233"><ele>68.0</ele><time>2026-04-25T07:23:55.812Z</time></trkpt><trkpt lat="43.9171183" lon="11.059685"><ele>68.0</ele><time>2026-04-25T07:23:56.818Z</time></trkpt><trkpt lat="43.91722" lon="11.0596433"><ele>68.0</ele><time>2026-04-25T07:23:57.825Z</time></trkpt><trkpt lat="43.9173167" lon="11.0596"><ele>68.0</ele><time>2026-04-25T07:23:58.832Z</time></trkpt><trkpt lat="43.9174083" lon="11.0595583"><ele>68.0</ele><time>2026-04-25T07:23:59.772Z</time></trkpt><trkpt lat="43.9174933" lon="11.0595133"><ele>68.0</ele><time>2026-04-25T07:24:00.777Z</time></trkpt><trkpt lat="43.9175733" lon="11.0594617"><ele>68.2</ele><time>2026-04-25T07:24:01.785Z</time></trkpt><trkpt lat="43.9176517" lon="11.0593933"><ele>68.4</ele><time>2026-04-25T07:24:02.791Z</time></trkpt><trkpt lat="43.9177267" lon="11.0593"><ele>68.60000000000001</ele><time>2026-04-25T07:24:03.798Z</time></trkpt><trkpt lat="43.9177983" lon="11.0591933"><ele>68.8</ele><time>2026-04-25T07:24:04.805Z</time></trkpt><trkpt lat="43.91787" lon="11.0590833"><ele>69.0</ele><time>2026-04-25T07:24:05.812Z</time></trkpt><trkpt lat="43.9179417" lon="11.058975"><ele>69.0</ele><time>2026-04-25T07:24:06.817Z</time></trkpt><trkpt lat="43.9180067" lon="11.0588733"><ele>69.0</ele><time>2026-04-25T07:24:07.824Z</time></trkpt><trkpt lat="43.91807" lon="11.0587683"><ele>69.0</ele><time>2026-04-25T07:24:08.832Z</time></trkpt><trkpt lat="43.9181367" lon="11.0586583"><ele>69.0</ele><time>2026-04-25T07:24:09.771Z</time></trkpt><trkpt lat="43.918205" lon="11.0585483"><ele>69.0</ele><time>2026-04-25T07:24:10.778Z</time></trkpt><trkpt lat="43.9182733" lon="11.0584333"><ele>69.0</ele><time>2026-04-25T07:24:11.783Z</time></trkpt><trkpt lat="43.9183383" lon="11.058315"><ele>69.0</ele><time>2026-04-25T07:24:12.79Z</time></trkpt><trkpt lat="43.9183983" lon="11.0581967"><ele>69.0</ele><time>2026-04-25T07:24:13.797Z</time></trkpt><trkpt lat="43.918455" lon="11.0580783"><ele>69.0</ele><time>2026-04-25T07:24:14.803Z</time></trkpt><trkpt lat="43.9185117" lon="11.0579617"><ele>69.0</ele><time>2026-04-25T07:24:15.811Z</time></trkpt><trkpt lat="43.9185667" lon="11.05785"><ele>69.16666666666667</ele><time>2026-04-25T07:24:16.817Z</time></trkpt><trkpt lat="43.91862" lon="11.0577433"><ele>69.33333333333333</ele><time>2026-04-25T07:24:17.824Z</time></trkpt><trkpt lat="43.9186683" lon="11.0576533"><ele>69.5</ele><time>2026-04-25T07:24:18.831Z</time></trkpt><trkpt lat="43.91871" lon="11.05758"><ele>69.66666666666666</ele><time>2026-04-25T07:24:19.77Z</time></trkpt><trkpt lat="43.9187683" lon="11.057465"><ele>69.83333333333333</ele><time>2026-04-25T07:24:21.784Z</time></trkpt><trkpt lat="43.918815" lon="11.05737"><ele>70.0</ele><time>2026-04-25T07:24:23.864Z</time></trkpt><trkpt lat="43.9188767" lon="11.0572867"><ele>70.0</ele><time>2026-04-25T07:24:25.81Z</time></trkpt><trkpt lat="43.9189667" lon="11.0572083"><ele>70.0</ele><time>2026-04-25T07:24:27.822Z</time></trkpt><trkpt lat="43.9190317" lon="11.0572083"><ele>70.0</ele><time>2026-04-25T07:24:28.83Z</time></trkpt><trkpt lat="43.9191083" lon="11.0572467"><ele>70.0</ele><time>2026-04-25T07:24:29.768Z</time></trkpt><trkpt lat="43.9192" lon="11.0573"><ele>70.0</ele><time>2026-04-25T07:24:30.775Z</time></trkpt><trkpt lat="43.9192917" lon="11.057355"><ele>70.0</ele><time>2026-04-25T07:24:31.85Z</time></trkpt><trkpt lat="43.9193867" lon="11.0574117"><ele>70.0</ele><time>2026-04-25T07:24:32.856Z</time></trkpt><trkpt lat="43.9194883" lon="11.0574733"><ele>70.0</ele><time>2026-04-25T07:24:33.863Z</time></trkpt><trkpt lat="43.919595" lon="11.057535"><ele>70.0</ele><time>2026-04-25T07:24:34.803Z</time></trkpt><trkpt lat="43.9197" lon="11.0576017"><ele>70.0</ele><time>2026-04-25T07:24:35.809Z</time></trkpt><trkpt lat="43.9198183" lon="11.0576633"><ele>70.5</ele><time>2026-04-25T07:24:36.816Z</time></trkpt><trkpt lat="43.919945" lon="11.0577133"><ele>71.0</ele><time>2026-04-25T07:24:37.823Z</time></trkpt><trkpt lat="43.92006" lon="11.0577533"><ele>71.5</ele><time>2026-04-25T07:24:38.762Z</time></trkpt><trkpt lat="43.92018" lon="11.05779"><ele>72.0</ele><time>2026-04-25T07:24:39.769Z</time></trkpt><trkpt lat="43.920295" lon="11.0578233"><ele>72.4</ele><time>2026-04-25T07:24:40.842Z</time></trkpt><trkpt lat="43.9204067" lon="11.0578583"><ele>72.80000000000001</ele><time>2026-04-25T07:24:41.849Z</time></trkpt><trkpt lat="43.920505" lon="11.057895"><ele>73.2</ele><time>2026-04-25T07:24:42.855Z</time></trkpt><trkpt lat="43.9206" lon="11.057925"><ele>73.60000000000001</ele><time>2026-04-25T07:24:43.795Z</time></trkpt><trkpt lat="43.9206783" lon="11.05794"><ele>74.0</ele><time>2026-04-25T07:24:44.802Z</time></trkpt><trkpt lat="43.9207683" lon="11.0579633"><ele>74.0</ele><time>2026-04-25T07:24:45.808Z</time></trkpt><trkpt lat="43.92086" lon="11.0579917"><ele>74.0</ele><time>2026-04-25T07:24:46.815Z</time></trkpt><trkpt lat="43.9209483" lon="11.05803"><ele>74.0</ele><time>2026-04-25T07:24:47.821Z</time></trkpt><trkpt lat="43.9210367" lon="11.0580933"><ele>74.0</ele><time>2026-04-25T07:24:48.828Z</time></trkpt><trkpt lat="43.9211267" lon="11.05818"><ele>74.0</ele><time>2026-04-25T07:24:49.835Z</time></trkpt><trkpt lat="43.9212217" lon="11.058275"><ele>74.5</ele><time>2026-04-25T07:24:50.841Z</time></trkpt><trkpt lat="43.921315" lon="11.0583817"><ele>75.0</ele><time>2026-04-25T07:24:51.848Z</time></trkpt><trkpt lat="43.9214083" lon="11.0584833"><ele>75.5</ele><time>2026-04-25T07:24:52.855Z</time></trkpt><trkpt lat="43.9214983" lon="11.0585783"><ele>76.0</ele><time>2026-04-25T07:24:53.794Z</time></trkpt><trkpt lat="43.9215933" lon="11.05867"><ele>76.0</ele><time>2026-04-25T07:24:54.8Z</time></trkpt><trkpt lat="43.9216983" lon="11.0587533"><ele>76.0</ele><time>2026-04-25T07:24:55.808Z</time></trkpt><trkpt lat="43.9218317" lon="11.0588233"><ele>76.0</ele><time>2026-04-25T07:24:56.814Z</time></trkpt><trkpt lat="43.921985" lon="11.0588817"><ele>76.0</ele><time>2026-04-25T07:24:57.821Z</time></trkpt><trkpt lat="43.922145" lon="11.0589267"><ele>76.5</ele><time>2026-04-25T07:24:58.828Z</time></trkpt><trkpt lat="43.9222967" lon="11.0589617"><ele>77.0</ele><time>2026-04-25T07:24:59.834Z</time></trkpt><trkpt lat="43.922445" lon="11.0589867"><ele>77.5</ele><time>2026-04-25T07:25:00.841Z</time></trkpt><trkpt lat="43.9225883" lon="11.059005"><ele>78.0</ele><time>2026-04-25T07:25:01.848Z</time></trkpt><trkpt lat="43.9227333" lon="11.05902"><ele>78.4</ele><time>2026-04-25T07:25:02.853Z</time></trkpt><trkpt lat="43.9228633" lon="11.059035"><ele>78.8</ele><time>2026-04-25T07:25:03.794Z</time></trkpt><trkpt lat="43.9229717" lon="11.0590483"><ele>79.2</ele><time>2026-04-25T07:25:04.8Z</time></trkpt><trkpt lat="43.9230767" lon="11.0590617"><ele>79.6</ele><time>2026-04-25T07:25:05.807Z</time></trkpt><trkpt lat="43.9231767" lon="11.0590733"><ele>80.0</ele><time>2026-04-25T07:25:06.814Z</time></trkpt><trkpt lat="43.9232767" lon="11.059085"><ele>80.0</ele><time>2026-04-25T07:25:07.82Z</time></trkpt><trkpt lat="43.9233817" lon="11.0590967"><ele>80.0</ele><time>2026-04-25T07:25:08.827Z</time></trkpt><trkpt lat="43.92349" lon="11.0591067"><ele>80.0</ele><time>2026-04-25T07:25:09.833Z</time></trkpt><trkpt lat="43.92361" lon="11.0591133"><ele>80.0</ele><time>2026-04-25T07:25:10.839Z</time></trkpt><trkpt lat="43.92373" lon="11.0591267"><ele>80.25</ele><time>2026-04-25T07:25:11.847Z</time></trkpt><trkpt lat="43.9238533" lon="11.059155"><ele>80.5</ele><time>2026-04-25T07:25:12.853Z</time></trkpt><trkpt lat="43.9239667" lon="11.0591983"><ele>80.75</ele><time>2026-04-25T07:25:13.793Z</time></trkpt><trkpt lat="43.9240767" lon="11.0592483"><ele>81.0</ele><time>2026-04-25T07:25:14.799Z</time></trkpt><trkpt lat="43.9241883" lon="11.0592967"><ele>81.0</ele><time>2026-04-25T07:25:15.805Z</time></trkpt><trkpt lat="43.9243017" lon="11.0593467"><ele>81.0</ele><time>2026-04-25T07:25:16.813Z</time></trkpt><trkpt lat="43.9244233" lon="11.0594"><ele>81.0</ele><time>2026-04-25T07:25:17.819Z</time></trkpt><trkpt lat="43.9245467" lon="11.059455"><ele>81.0</ele><time>2026-04-25T07:25:18.825Z</time></trkpt><trkpt lat="43.9246733" lon="11.0595183"><ele>81.0</ele><time>2026-04-25T07:25:19.832Z</time></trkpt><trkpt lat="43.924805" lon="11.05958"><ele>81.0</ele><time>2026-04-25T07:25:20.839Z</time></trkpt><trkpt lat="43.92494" lon="11.05964"><ele>81.0</ele><time>2026-04-25T07:25:21.846Z</time></trkpt><trkpt lat="43.9250817" lon="11.059695"><ele>81.0</ele><time>2026-04-25T07:25:22.853Z</time></trkpt><trkpt lat="43.92522" lon="11.0597467"><ele>81.75</ele><time>2026-04-25T07:25:23.791Z</time></trkpt><trkpt lat="43.9253517" lon="11.0597983"><ele>82.5</ele><time>2026-04-25T07:25:24.799Z</time></trkpt><trkpt lat="43.925475" lon="11.0598533"><ele>83.25</ele><time>2026-04-25T07:25:25.805Z</time></trkpt><trkpt lat="43.925595" lon="11.0599167"><ele>84.0</ele><time>2026-04-25T07:25:26.812Z</time></trkpt><trkpt lat="43.9257133" lon="11.0599867"><ele>84.0</ele><time>2026-04-25T07:25:27.819Z</time></trkpt><trkpt lat="43.92583" lon="11.06007"><ele>84.0</ele><time>2026-04-25T07:25:28.825Z</time></trkpt><trkpt lat="43.9259417" lon="11.0601683"><ele>84.0</ele><time>2026-04-25T07:25:29.832Z</time></trkpt><trkpt lat="43.926055" lon="11.0602733"><ele>84.0</ele><time>2026-04-25T07:25:30.838Z</time></trkpt><trkpt lat="43.92617" lon="11.0603733"><ele>85.25</ele><time>2026-04-25T07:25:31.844Z</time></trkpt><trkpt lat="43.926285" lon="11.0604683"><ele>86.5</ele><time>2026-04-25T07:25:32.785Z</time></trkpt><trkpt lat="43.9263967" lon="11.0605567"><ele>87.75</ele><time>2026-04-25T07:25:33.79Z</time></trkpt><trkpt lat="43.9265067" lon="11.0606333"><ele>89.0</ele><time>2026-04-25T07:25:34.798Z</time></trkpt><trkpt lat="43.9266217" lon="11.060705"><ele>89.5</ele><time>2026-04-25T07:25:35.805Z</time></trkpt><trkpt lat="43.9267417" lon="11.0607633"><ele>90.0</ele><time>2026-04-25T07:25:36.81Z</time></trkpt><trkpt lat="43.9268517" lon="11.0608133"><ele>90.5</ele><time>2026-04-25T07:25:37.817Z</time></trkpt><trkpt lat="43.926955" lon="11.0608683"><ele>91.0</ele><time>2026-04-25T07:25:38.823Z</time></trkpt><trkpt lat="43.9270567" lon="11.0609367"><ele>91.0</ele><time>2026-04-25T07:25:39.831Z</time></trkpt><trkpt lat="43.927155" lon="11.0610317"><ele>91.0</ele><time>2026-04-25T07:25:40.838Z</time></trkpt><trkpt lat="43.92725" lon="11.0611483"><ele>91.0</ele><time>2026-04-25T07:25:41.844Z</time></trkpt><trkpt lat="43.927345" lon="11.06128"><ele>91.0</ele><time>2026-04-25T07:25:42.784Z</time></trkpt><trkpt lat="43.9274367" lon="11.061415"><ele>91.0</ele><time>2026-04-25T07:25:43.791Z</time></trkpt><trkpt lat="43.9275267" lon="11.0615533"><ele>91.0</ele><time>2026-04-25T07:25:44.796Z</time></trkpt><trkpt lat="43.9276183" lon="11.0616933"><ele>91.0</ele><time>2026-04-25T07:25:45.803Z</time></trkpt><trkpt lat="43.9277183" lon="11.0618317"><ele>91.0</ele><time>2026-04-25T07:25:46.81Z</time></trkpt><trkpt lat="43.92782" lon="11.0619633"><ele>92.25</ele><time>2026-04-25T07:25:47.817Z</time></trkpt><trkpt lat="43.92792" lon="11.06208"><ele>93.5</ele><time>2026-04-25T07:25:48.824Z</time></trkpt><trkpt lat="43.928015" lon="11.0621933"><ele>94.75</ele><time>2026-04-25T07:25:49.83Z</time></trkpt><trkpt lat="43.9281083" lon="11.0623117"><ele>96.0</ele><time>2026-04-25T07:25:50.837Z</time></trkpt><trkpt lat="43.9282033" lon="11.0624317"><ele>96.0</ele><time>2026-04-25T07:25:51.844Z</time></trkpt><trkpt lat="43.9282983" lon="11.0625533"><ele>96.0</ele><time>2026-04-25T07:25:52.783Z</time></trkpt><trkpt lat="43.9283967" lon="11.062675"><ele>96.0</ele><time>2026-04-25T07:25:53.789Z</time></trkpt><trkpt lat="43.9284933" lon="11.0627933"><ele>96.0</ele><time>2026-04-25T07:25:54.796Z</time></trkpt><trkpt lat="43.9285917" lon="11.0629117"><ele>97.0</ele><time>2026-04-25T07:25:55.802Z</time></trkpt><trkpt lat="43.92868" lon="11.0630267"><ele>98.0</ele><time>2026-04-25T07:25:56.809Z</time></trkpt><trkpt lat="43.92876" lon="11.0631317"><ele>99.0</ele><time>2026-04-25T07:25:57.816Z</time></trkpt><trkpt lat="43.9288483" lon="11.0632333"><ele>100.0</ele><time>2026-04-25T07:25:58.823Z</time></trkpt><trkpt lat="43.928945" lon="11.0633233"><ele>100.25</ele><time>2026-04-25T07:25:59.83Z</time></trkpt><trkpt lat="43.92906" lon="11.0633817"><ele>100.5</ele><time>2026-04-25T07:26:00.836Z</time></trkpt><trkpt lat="43.9292" lon="11.063415"><ele>100.75</ele><time>2026-04-25T07:26:01.843Z</time></trkpt><trkpt lat="43.9293467" lon="11.06342"><ele>101.0</ele><time>2026-04-25T07:26:02.782Z</time></trkpt><trkpt lat="43.9294883" lon="11.063425"><ele>102.75</ele><time>2026-04-25T07:26:03.789Z</time></trkpt><trkpt lat="43.9296217" lon="11.06343"><ele>104.5</ele><time>2026-04-25T07:26:04.796Z</time></trkpt><trkpt lat="43.9297533" lon="11.063435"><ele>106.25</ele><time>2026-04-25T07:26:05.802Z</time></trkpt><trkpt lat="43.929895" lon="11.063475"><ele>108.0</ele><time>2026-04-25T07:26:06.808Z</time></trkpt><trkpt lat="43.930035" lon="11.0635467"><ele>110.0</ele><time>2026-04-25T07:26:07.816Z</time></trkpt><trkpt lat="43.9301717" lon="11.0636133"><ele>112.0</ele><time>2026-04-25T07:26:08.821Z</time></trkpt><trkpt lat="43.9303067" lon="11.0636683"><ele>114.0</ele><time>2026-04-25T07:26:09.829Z</time></trkpt><trkpt lat="43.9304467" lon="11.0637117"><ele>116.0</ele><time>2026-04-25T07:26:10.835Z</time></trkpt><trkpt lat="43.9305833" lon="11.0637483"><ele>116.0</ele><time>2026-04-25T07:26:11.774Z</time></trkpt><trkpt lat="43.9307217" lon="11.0637817"><ele>116.0</ele><time>2026-04-25T07:26:12.782Z</time></trkpt><trkpt lat="43.9308583" lon="11.06381"><ele>116.0</ele><time>2026-04-25T07:26:13.788Z</time></trkpt><trkpt lat="43.930985" lon="11.0638283"><ele>116.0</ele><time>2026-04-25T07:26:14.795Z</time></trkpt><trkpt lat="43.9310933" lon="11.063835"><ele>117.49999999999999</ele><time>2026-04-25T07:26:15.801Z</time></trkpt><trkpt lat="43.9311817" lon="11.0638383"><ele>119.0</ele><time>2026-04-25T07:26:16.808Z</time></trkpt><trkpt lat="43.9312533" lon="11.0638583"><ele>120.5</ele><time>2026-04-25T07:26:17.815Z</time></trkpt><trkpt lat="43.9313117" lon="11.063905"><ele>122.0</ele><time>2026-04-25T07:26:18.821Z</time></trkpt><trkpt lat="43.931365" lon="11.06405"><ele>123.49999999999999</ele><time>2026-04-25T07:26:20.834Z</time></trkpt><trkpt lat="43.93134" lon="11.0641417"><ele>125.0</ele><time>2026-04-25T07:26:21.774Z</time></trkpt><trkpt lat="43.9313033" lon="11.0642483"><ele>125.4</ele><time>2026-04-25T07:26:22.78Z</time></trkpt><trkpt lat="43.9312533" lon="11.0643683"><ele>125.8</ele><time>2026-04-25T07:26:23.787Z</time></trkpt><trkpt lat="43.9311783" lon="11.064475"><ele>126.19999999999999</ele><time>2026-04-25T07:26:24.793Z</time></trkpt><trkpt lat="43.93108" lon="11.0645567"><ele>126.6</ele><time>2026-04-25T07:26:25.801Z</time></trkpt><trkpt lat="43.9309817" lon="11.06462"><ele>127.0</ele><time>2026-04-25T07:26:26.806Z</time></trkpt><trkpt lat="43.9308933" lon="11.0646917"><ele>127.0</ele><time>2026-04-25T07:26:27.814Z</time></trkpt><trkpt lat="43.9308217" lon="11.0647917"><ele>127.0</ele><time>2026-04-25T07:26:28.821Z</time></trkpt><trkpt lat="43.9307683" lon="11.064925"><ele>127.0</ele><time>2026-04-25T07:26:29.827Z</time></trkpt><trkpt lat="43.930735" lon="11.0650833"><ele>127.0</ele><time>2026-04-25T07:26:30.834Z</time></trkpt><trkpt lat="43.930715" lon="11.0652567"><ele>127.0</ele><time>2026-04-25T07:26:31.773Z</time></trkpt><trkpt lat="43.9306983" lon="11.065425"><ele>126.99999999999999</ele><time>2026-04-25T07:26:32.779Z</time></trkpt><trkpt lat="43.930685" lon="11.0655833"><ele>126.99999999999999</ele><time>2026-04-25T07:26:33.787Z</time></trkpt><trkpt lat="43.930675" lon="11.0657233"><ele>127.0</ele><time>2026-04-25T07:26:34.793Z</time></trkpt><trkpt lat="43.9306717" lon="11.0658483"><ele>127.0</ele><time>2026-04-25T07:26:35.8Z</time></trkpt><trkpt lat="43.9306817" lon="11.0659567"><ele>128.79999999999998</ele><time>2026-04-25T07:26:36.807Z</time></trkpt><trkpt lat="43.9307117" lon="11.0660517"><ele>130.6</ele><time>2026-04-25T07:26:37.813Z</time></trkpt><trkpt lat="43.93076" lon="11.066125"><ele>132.39999999999998</ele><time>2026-04-25T07:26:38.82Z</time></trkpt><trkpt lat="43.930835" lon="11.0661583"><ele>134.2</ele><time>2026-04-25T07:26:39.826Z</time></trkpt><trkpt lat="43.9309517" lon="11.0661333"><ele>136.0</ele><time>2026-04-25T07:26:40.833Z</time></trkpt><trkpt lat="43.9310667" lon="11.0661183"><ele>137.0</ele><time>2026-04-25T07:26:41.773Z</time></trkpt><trkpt lat="43.9311683" lon="11.0661183"><ele>138.0</ele><time>2026-04-25T07:26:42.779Z</time></trkpt><trkpt lat="43.931245" lon="11.0661367"><ele>139.0</ele><time>2026-04-25T07:26:43.786Z</time></trkpt><trkpt lat="43.93132" lon="11.066225"><ele>140.0</ele><time>2026-04-25T07:26:45.865Z</time></trkpt><trkpt lat="43.9312683" lon="11.066395"><ele>141.0</ele><time>2026-04-25T07:26:47.812Z</time></trkpt><trkpt lat="43.9312233" lon="11.0664983"><ele>142.6</ele><time>2026-04-25T07:26:48.819Z</time></trkpt><trkpt lat="43.9311867" lon="11.066615"><ele>144.2</ele><time>2026-04-25T07:26:49.826Z</time></trkpt><trkpt lat="43.93117" lon="11.0667383"><ele>145.8</ele><time>2026-04-25T07:26:50.832Z</time></trkpt><trkpt lat="43.931185" lon="11.0668667"><ele>147.4</ele><time>2026-04-25T07:26:51.772Z</time></trkpt><trkpt lat="43.9312233" lon="11.0669917"><ele>149.0</ele><time>2026-04-25T07:26:52.778Z</time></trkpt><trkpt lat="43.9312817" lon="11.06712"><ele>149.0</ele><time>2026-04-25T07:26:53.785Z</time></trkpt><trkpt lat="43.9313483" lon="11.0672567"><ele>149.0</ele><time>2026-04-25T07:26:54.858Z</time></trkpt><trkpt lat="43.9314183" lon="11.0673983"><ele>149.0</ele><time>2026-04-25T07:26:55.797Z</time></trkpt><trkpt lat="43.9314883" lon="11.0675383"><ele>149.0</ele><time>2026-04-25T07:26:56.804Z</time></trkpt><trkpt lat="43.9315533" lon="11.0676733"><ele>150.0</ele><time>2026-04-25T07:26:57.812Z</time></trkpt><trkpt lat="43.9316133" lon="11.0678017"><ele>151.0</ele><time>2026-04-25T07:26:58.818Z</time></trkpt><trkpt lat="43.9316733" lon="11.067935"><ele>152.0</ele><time>2026-04-25T07:26:59.825Z</time></trkpt><trkpt lat="43.931735" lon="11.0680683"><ele>153.0</ele><time>2026-04-25T07:27:00.764Z</time></trkpt><trkpt lat="43.931795" lon="11.0681983"><ele>154.0</ele><time>2026-04-25T07:27:01.771Z</time></trkpt><trkpt lat="43.9318483" lon="11.068315"><ele>156.0</ele><time>2026-04-25T07:27:02.845Z</time></trkpt><trkpt lat="43.9318983" lon="11.0684183"><ele>158.0</ele><time>2026-04-25T07:27:03.851Z</time></trkpt><trkpt lat="43.93195" lon="11.068505"><ele>160.0</ele><time>2026-04-25T07:27:04.858Z</time></trkpt><trkpt lat="43.93201" lon="11.0685683"><ele>162.0</ele><time>2026-04-25T07:27:05.797Z</time></trkpt><trkpt lat="43.9320817" lon="11.0686083"><ele>164.0</ele><time>2026-04-25T07:27:06.804Z</time></trkpt><trkpt lat="43.932165" lon="11.0686167"><ele>166.0</ele><time>2026-04-25T07:27:07.811Z</time></trkpt><trkpt lat="43.932255" lon="11.0685917"><ele>166.0</ele><time>2026-04-25T07:27:08.817Z</time></trkpt><trkpt lat="43.932345" lon="11.0685517"><ele>166.0</ele><time>2026-04-25T07:27:09.823Z</time></trkpt><trkpt lat="43.9324217" lon="11.0685"><ele>166.0</ele><time>2026-04-25T07:27:10.763Z</time></trkpt><trkpt lat="43.9324833" lon="11.0684433"><ele>166.0</ele><time>2026-04-25T07:27:11.837Z</time></trkpt><trkpt lat="43.9325383" lon="11.06838"><ele>166.0</ele><time>2026-04-25T07:27:12.843Z</time></trkpt><trkpt lat="43.93259" lon="11.0683117"><ele>166.0</ele><time>2026-04-25T07:27:13.85Z</time></trkpt><trkpt lat="43.9326383" lon="11.06825"><ele>167.4</ele><time>2026-04-25T07:27:14.856Z</time></trkpt><trkpt lat="43.93274" lon="11.06818"><ele>168.8</ele><time>2026-04-25T07:27:16.803Z</time></trkpt><trkpt lat="43.9328083" lon="11.0681783"><ele>170.20000000000002</ele><time>2026-04-25T07:27:17.809Z</time></trkpt><trkpt lat="43.9328967" lon="11.0682033"><ele>171.60000000000002</ele><time>2026-04-25T07:27:18.817Z</time></trkpt><trkpt lat="43.933005" lon="11.06826"><ele>173.0</ele><time>2026-04-25T07:27:19.823Z</time></trkpt><trkpt lat="43.9331167" lon="11.0683317"><ele>174.75</ele><time>2026-04-25T07:27:20.83Z</time></trkpt><trkpt lat="43.93323" lon="11.068405"><ele>176.5</ele><time>2026-04-25T07:27:21.836Z</time></trkpt><trkpt lat="43.9333433" lon="11.0684667"><ele>178.25</ele><time>2026-04-25T07:27:22.842Z</time></trkpt><trkpt lat="43.933445" lon="11.068515"><ele>180.0</ele><time>2026-04-25T07:27:23.85Z</time></trkpt><trkpt lat="43.9335383" lon="11.0685617"><ele>182.33333333333334</ele><time>2026-04-25T07:27:24.857Z</time></trkpt><trkpt lat="43.9336117" lon="11.0686"><ele>184.66666666666669</ele><time>2026-04-25T07:27:25.796Z</time></trkpt><trkpt lat="43.9336717" lon="11.0686283"><ele>187.0</ele><time>2026-04-25T07:27:26.802Z</time></trkpt><trkpt lat="43.9337467" lon="11.068715"><ele>189.33333333333334</ele><time>2026-04-25T07:27:28.815Z</time></trkpt><trkpt lat="43.9337117" lon="11.06881"><ele>191.66666666666669</ele><time>2026-04-25T07:27:30.829Z</time></trkpt><trkpt lat="43.93364" lon="11.06884"><ele>194.0</ele><time>2026-04-25T07:27:31.835Z</time></trkpt><trkpt lat="43.933555" lon="11.0688483"><ele>194.00000000000003</ele><time>2026-04-25T07:27:32.842Z</time></trkpt><trkpt lat="43.9334633" lon="11.0688433"><ele>194.0</ele><time>2026-04-25T07:27:33.849Z</time></trkpt><trkpt lat="43.933385" lon="11.0688517"><ele>194.0</ele><time>2026-04-25T07:27:34.856Z</time></trkpt><trkpt lat="43.933315" lon="11.0688767"><ele>194.0</ele><time>2026-04-25T07:27:35.795Z</time></trkpt><trkpt lat="43.9332433" lon="11.0689917"><ele>194.00000000000003</ele><time>2026-04-25T07:27:37.809Z</time></trkpt><trkpt lat="43.9332717" lon="11.0690867"><ele>194.0</ele><time>2026-04-25T07:27:38.815Z</time></trkpt><trkpt lat="43.9333283" lon="11.0691917"><ele>194.16666666666669</ele><time>2026-04-25T07:27:39.822Z</time></trkpt><trkpt lat="43.9333933" lon="11.0692983"><ele>194.33333333333334</ele><time>2026-04-25T07:27:40.828Z</time></trkpt><trkpt lat="43.9334583" lon="11.069395"><ele>194.5</ele><time>2026-04-25T07:27:41.835Z</time></trkpt><trkpt lat="43.9335167" lon="11.0694817"><ele>194.66666666666669</ele><time>2026-04-25T07:27:42.841Z</time></trkpt><trkpt lat="43.93357" lon="11.0695717"><ele>194.83333333333334</ele><time>2026-04-25T07:27:43.848Z</time></trkpt><trkpt lat="43.9336167" lon="11.0696617"><ele>195.0</ele><time>2026-04-25T07:27:44.788Z</time></trkpt><trkpt lat="43.9336667" lon="11.0697517"><ele>195.0</ele><time>2026-04-25T07:27:45.794Z</time></trkpt><trkpt lat="43.9337217" lon="11.0698483"><ele>195.0</ele><time>2026-04-25T07:27:46.801Z</time></trkpt><trkpt lat="43.9337933" lon="11.0699617"><ele>195.0</ele><time>2026-04-25T07:27:47.808Z</time></trkpt><trkpt lat="43.933865" lon="11.070075"><ele>195.0</ele><time>2026-04-25T07:27:48.814Z</time></trkpt><trkpt lat="43.9339433" lon="11.0701933"><ele>195.0</ele><time>2026-04-25T07:27:49.82Z</time></trkpt><trkpt lat="43.93403" lon="11.0703067"><ele>195.6</ele><time>2026-04-25T07:27:50.828Z</time></trkpt><trkpt lat="43.9341217" lon="11.070415"><ele>196.2</ele><time>2026-04-25T07:27:51.834Z</time></trkpt><trkpt lat="43.9342083" lon="11.070515"><ele>196.8</ele><time>2026-04-25T07:27:52.841Z</time></trkpt><trkpt lat="43.9342833" lon="11.0706083"><ele>197.4</ele><time>2026-04-25T07:27:53.848Z</time></trkpt><trkpt lat="43.934355" lon="11.070695"><ele>198.0</ele><time>2026-04-25T07:27:54.787Z</time></trkpt><trkpt lat="43.9344183" lon="11.0707733"><ele>198.60000000000002</ele><time>2026-04-25T07:27:55.794Z</time></trkpt><trkpt lat="43.9344767" lon="11.07083"><ele>199.20000000000002</ele><time>2026-04-25T07:27:56.8Z</time></trkpt><trkpt lat="43.9346083" lon="11.070815"><ele>199.8</ele><time>2026-04-25T07:27:58.814Z</time></trkpt><trkpt lat="43.9346917" lon="11.0707417"><ele>200.4</ele><time>2026-04-25T07:27:59.82Z</time></trkpt><trkpt lat="43.9347767" lon="11.0706467"><ele>201.0</ele><time>2026-04-25T07:28:00.827Z</time></trkpt><trkpt lat="43.9348633" lon="11.0705567"><ele>201.0</ele><time>2026-04-25T07:28:01.833Z</time></trkpt><trkpt lat="43.93495" lon="11.07047"><ele>201.0</ele><time>2026-04-25T07:28:02.84Z</time></trkpt><trkpt lat="43.935035" lon="11.07039"><ele>201.0</ele><time>2026-04-25T07:28:03.846Z</time></trkpt><trkpt lat="43.9351183" lon="11.0703267"><ele>201.0</ele><time>2026-04-25T07:28:04.785Z</time></trkpt><trkpt lat="43.9352083" lon="11.0702783"><ele>201.0</ele><time>2026-04-25T07:28:05.793Z</time></trkpt><trkpt lat="43.9353067" lon="11.070255"><ele>205.8</ele><time>2026-04-25T07:28:06.8Z</time></trkpt><trkpt lat="43.9354067" lon="11.07025"><ele>210.60000000000002</ele><time>2026-04-25T07:28:07.805Z</time></trkpt><trkpt lat="43.9355" lon="11.07027"><ele>215.4</ele><time>2026-04-25T07:28:08.813Z</time></trkpt><trkpt lat="43.935605" lon="11.0703183"><ele>220.2</ele><time>2026-04-25T07:28:09.819Z</time></trkpt><trkpt lat="43.9357167" lon="11.0703933"><ele>225.0</ele><time>2026-04-25T07:28:10.825Z</time></trkpt><trkpt lat="43.935825" lon="11.0704683"><ele>226.8</ele><time>2026-04-25T07:28:11.833Z</time></trkpt><trkpt lat="43.935925" lon="11.070535"><ele>228.6</ele><time>2026-04-25T07:28:12.838Z</time></trkpt><trkpt lat="43.936025" lon="11.0706083"><ele>230.39999999999998</ele><time>2026-04-25T07:28:13.846Z</time></trkpt><trkpt lat="43.9361183" lon="11.0706967"><ele>232.2</ele><time>2026-04-25T07:28:14.785Z</time></trkpt><trkpt lat="43.9362033" lon="11.070795"><ele>234.0</ele><time>2026-04-25T07:28:15.792Z</time></trkpt><trkpt lat="43.9362833" lon="11.070905"><ele>234.0</ele><time>2026-04-25T07:28:16.799Z</time></trkpt><trkpt lat="43.936355" lon="11.07102"><ele>233.99999999999997</ele><time>2026-04-25T07:28:17.805Z</time></trkpt><trkpt lat="43.9364167" lon="11.0711283"><ele>233.99999999999997</ele><time>2026-04-25T07:28:18.811Z</time></trkpt><trkpt lat="43.9364683" lon="11.07123"><ele>234.0</ele><time>2026-04-25T07:28:19.819Z</time></trkpt><trkpt lat="43.93652" lon="11.0713233"><ele>234.0</ele><time>2026-04-25T07:28:20.825Z</time></trkpt><trkpt lat="43.93658" lon="11.0714"><ele>234.0</ele><time>2026-04-25T07:28:21.832Z</time></trkpt><trkpt lat="43.93665" lon="11.0714567"><ele>233.99999999999997</ele><time>2026-04-25T07:28:22.839Z</time></trkpt><trkpt lat="43.9367367" lon="11.0714983"><ele>233.99999999999997</ele><time>2026-04-25T07:28:23.778Z</time></trkpt><trkpt lat="43.93684" lon="11.07153"><ele>234.0</ele><time>2026-04-25T07:28:24.785Z</time></trkpt><trkpt lat="43.93695" lon="11.07157"><ele>234.0</ele><time>2026-04-25T07:28:25.791Z</time></trkpt><trkpt lat="43.9370633" lon="11.0716183"><ele>236.75</ele><time>2026-04-25T07:28:26.797Z</time></trkpt><trkpt lat="43.9371833" lon="11.0716633"><ele>239.5</ele><time>2026-04-25T07:28:27.805Z</time></trkpt><trkpt lat="43.93731" lon="11.0717167"><ele>242.25</ele><time>2026-04-25T07:28:28.811Z</time></trkpt><trkpt lat="43.9374433" lon="11.0717683"><ele>245.0</ele><time>2026-04-25T07:28:29.818Z</time></trkpt><trkpt lat="43.937565" lon="11.0718217"><ele>248.5</ele><time>2026-04-25T07:28:30.825Z</time></trkpt><trkpt lat="43.9376867" lon="11.07187"><ele>252.0</ele><time>2026-04-25T07:28:31.831Z</time></trkpt><trkpt lat="43.9378083" lon="11.07193"><ele>255.5</ele><time>2026-04-25T07:28:32.838Z</time></trkpt><trkpt lat="43.9379217" lon="11.071975"><ele>259.0</ele><time>2026-04-25T07:28:33.777Z</time></trkpt><trkpt lat="43.9380267" lon="11.0720167"><ele>259.0</ele><time>2026-04-25T07:28:34.784Z</time></trkpt><trkpt lat="43.938115" lon="11.0720617"><ele>259.0</ele><time>2026-04-25T07:28:35.79Z</time></trkpt><trkpt lat="43.9381883" lon="11.072095"><ele>259.0</ele><time>2026-04-25T07:28:36.796Z</time></trkpt><trkpt lat="43.93826" lon="11.07213"><ele>259.0</ele><time>2026-04-25T07:28:37.804Z</time></trkpt><trkpt lat="43.9383317" lon="11.072175"><ele>259.0</ele><time>2026-04-25T07:28:38.81Z</time></trkpt><trkpt lat="43.938395" lon="11.072255"><ele>259.0</ele><time>2026-04-25T07:28:39.816Z</time></trkpt><trkpt lat="43.9384383" lon="11.07234"><ele>260.4</ele><time>2026-04-25T07:28:40.824Z</time></trkpt><trkpt lat="43.9384867" lon="11.0724517"><ele>261.79999999999995</ele><time>2026-04-25T07:28:41.83Z</time></trkpt><trkpt lat="43.9385333" lon="11.0726133"><ele>263.20000000000005</ele><time>2026-04-25T07:28:42.837Z</time></trkpt><trkpt lat="43.9385717" lon="11.0727683"><ele>264.6</ele><time>2026-04-25T07:28:43.777Z</time></trkpt><trkpt lat="43.9386017" lon="11.0729117"><ele>266.0</ele><time>2026-04-25T07:28:44.783Z</time></trkpt><trkpt lat="43.9386333" lon="11.0730533"><ele>266.0</ele><time>2026-04-25T07:28:45.79Z</time></trkpt><trkpt lat="43.9386683" lon="11.0731867"><ele>266.0</ele><time>2026-04-25T07:28:46.796Z</time></trkpt><trkpt lat="43.93871" lon="11.0733167"><ele>266.0</ele><time>2026-04-25T07:28:47.803Z</time></trkpt><trkpt lat="43.9387633" lon="11.073445"><ele>266.0</ele><time>2026-04-25T07:28:48.81Z</time></trkpt><trkpt lat="43.9388317" lon="11.0735717"><ele>266.0</ele><time>2026-04-25T07:28:49.816Z</time></trkpt><trkpt lat="43.9389067" lon="11.0736933"><ele>266.2</ele><time>2026-04-25T07:28:50.823Z</time></trkpt><trkpt lat="43.9389817" lon="11.07381"><ele>266.40000000000003</ele><time>2026-04-25T07:28:51.83Z</time></trkpt><trkpt lat="43.9390567" lon="11.0739133"><ele>266.6</ele><time>2026-04-25T07:28:52.835Z</time></trkpt><trkpt lat="43.9391233" lon="11.07401"><ele>266.8</ele><time>2026-04-25T07:28:53.775Z</time></trkpt><trkpt lat="43.9391967" lon="11.0740883"><ele>267.0</ele><time>2026-04-25T07:28:54.781Z</time></trkpt><trkpt lat="43.9392717" lon="11.0741483"><ele>269.2</ele><time>2026-04-25T07:28:55.789Z</time></trkpt><trkpt lat="43.939365" lon="11.07418"><ele>271.4</ele><time>2026-04-25T07:28:56.796Z</time></trkpt><trkpt lat="43.9394767" lon="11.074195"><ele>273.6</ele><time>2026-04-25T07:28:57.802Z</time></trkpt><trkpt lat="43.9395867" lon="11.0742017"><ele>275.8</ele><time>2026-04-25T07:28:58.809Z</time></trkpt><trkpt lat="43.9396867" lon="11.0742067"><ele>278.0</ele><time>2026-04-25T07:28:59.816Z</time></trkpt><trkpt lat="43.9397833" lon="11.0742317"><ele>278.0</ele><time>2026-04-25T07:29:00.822Z</time></trkpt><trkpt lat="43.939875" lon="11.0742783"><ele>278.0</ele><time>2026-04-25T07:29:01.829Z</time></trkpt><trkpt lat="43.9399617" lon="11.074355"><ele>278.0</ele><time>2026-04-25T07:29:02.834Z</time></trkpt><trkpt lat="43.9400467" lon="11.07445"><ele>278.0</ele><time>2026-04-25T07:29:03.774Z</time></trkpt><trkpt lat="43.94012" lon="11.0745467"><ele>278.0</ele><time>2026-04-25T07:29:04.781Z</time></trkpt><trkpt lat="43.940185" lon="11.0746433"><ele>280.4</ele><time>2026-04-25T07:29:05.788Z</time></trkpt><trkpt lat="43.9402533" lon="11.0747317"><ele>282.8</ele><time>2026-04-25T07:29:06.795Z</time></trkpt><trkpt lat="43.9403367" lon="11.0748017"><ele>285.2</ele><time>2026-04-25T07:29:07.801Z</time></trkpt><trkpt lat="43.9404233" lon="11.0748467"><ele>287.6</ele><time>2026-04-25T07:29:08.807Z</time></trkpt><trkpt lat="43.940525" lon="11.0748667"><ele>290.0</ele><time>2026-04-25T07:29:09.815Z</time></trkpt><trkpt lat="43.94063" lon="11.07485"><ele>290.0</ele><time>2026-04-25T07:29:10.821Z</time></trkpt><trkpt lat="43.940735" lon="11.0748283"><ele>290.0</ele><time>2026-04-25T07:29:11.828Z</time></trkpt><trkpt lat="43.9408283" lon="11.07483"><ele>290.0</ele><time>2026-04-25T07:29:12.768Z</time></trkpt><trkpt lat="43.94092" lon="11.07485"><ele>290.0</ele><time>2026-04-25T07:29:13.774Z</time></trkpt><trkpt lat="43.941" lon="11.0748967"><ele>290.0</ele><time>2026-04-25T07:29:14.781Z</time></trkpt><trkpt lat="43.9410717" lon="11.0749633"><ele>290.2</ele><time>2026-04-25T07:29:15.787Z</time></trkpt><trkpt lat="43.9411367" lon="11.0750383"><ele>290.4</ele><time>2026-04-25T07:29:16.861Z</time></trkpt><trkpt lat="43.9411817" lon="11.0751267"><ele>290.6</ele><time>2026-04-25T07:29:17.801Z</time></trkpt><trkpt lat="43.9411983" lon="11.07523"><ele>290.8</ele><time>2026-04-25T07:29:18.807Z</time></trkpt><trkpt lat="43.9411933" lon="11.0753733"><ele>291.0</ele><time>2026-04-25T07:29:19.814Z</time></trkpt><trkpt lat="43.9411833" lon="11.0755317"><ele>291.0</ele><time>2026-04-25T07:29:20.821Z</time></trkpt><trkpt lat="43.94118" lon="11.075685"><ele>291.0</ele><time>2026-04-25T07:29:21.827Z</time></trkpt><trkpt lat="43.9411833" lon="11.07583"><ele>291.0</ele><time>2026-04-25T07:29:22.767Z</time></trkpt><trkpt lat="43.9411967" lon="11.0759733"><ele>291.0</ele><time>2026-04-25T07:29:23.773Z</time></trkpt><trkpt lat="43.941215" lon="11.0761083"><ele>291.0</ele><time>2026-04-25T07:29:24.779Z</time></trkpt><trkpt lat="43.9412433" lon="11.07624"><ele>292.0</ele><time>2026-04-25T07:29:25.854Z</time></trkpt><trkpt lat="43.9412717" lon="11.076365"><ele>293.0</ele><time>2026-04-25T07:29:26.86Z</time></trkpt><trkpt lat="43.9413083" lon="11.0764917"><ele>294.0</ele><time>2026-04-25T07:29:27.8Z</time></trkpt><trkpt lat="43.94136" lon="11.076625"><ele>295.0</ele><time>2026-04-25T07:29:28.807Z</time></trkpt><trkpt lat="43.94142" lon="11.0767533"><ele>296.0</ele><time>2026-04-25T07:29:29.813Z</time></trkpt><trkpt lat="43.9414817" lon="11.0768733"><ele>296.0</ele><time>2026-04-25T07:29:30.82Z</time></trkpt><trkpt lat="43.9415467" lon="11.076985"><ele>296.0</ele><time>2026-04-25T07:29:31.826Z</time></trkpt><trkpt lat="43.9416217" lon="11.077085"><ele>296.0</ele><time>2026-04-25T07:29:32.766Z</time></trkpt><trkpt lat="43.9416967" lon="11.0771667"><ele>296.0</ele><time>2026-04-25T07:29:33.84Z</time></trkpt><trkpt lat="43.9417733" lon="11.0772367"><ele>296.0</ele><time>2026-04-25T07:29:34.846Z</time></trkpt><trkpt lat="43.9418517" lon="11.07729"><ele>300.2</ele><time>2026-04-25T07:29:35.853Z</time></trkpt><trkpt lat="43.94194" lon="11.07732"><ele>304.40000000000003</ele><time>2026-04-25T07:29:36.86Z</time></trkpt><trkpt lat="43.9420383" lon="11.0773317"><ele>308.6</ele><time>2026-04-25T07:29:37.799Z</time></trkpt><trkpt lat="43.9421517" lon="11.0773367"><ele>312.8</ele><time>2026-04-25T07:29:38.806Z</time></trkpt><trkpt lat="43.9422667" lon="11.0773467"><ele>317.0</ele><time>2026-04-25T07:29:39.812Z</time></trkpt><trkpt lat="43.9423833" lon="11.0773683"><ele>317.0</ele><time>2026-04-25T07:29:40.819Z</time></trkpt><trkpt lat="43.942495" lon="11.07739"><ele>317.0</ele><time>2026-04-25T07:29:41.826Z</time></trkpt><trkpt lat="43.942595" lon="11.0774167"><ele>317.0</ele><time>2026-04-25T07:29:42.832Z</time></trkpt><trkpt lat="43.942695" lon="11.0774483"><ele>317.0</ele><time>2026-04-25T07:29:43.839Z</time></trkpt><trkpt lat="43.9428" lon="11.0774933"><ele>317.0</ele><time>2026-04-25T07:29:44.846Z</time></trkpt><trkpt lat="43.942905" lon="11.0775317"><ele>312.4</ele><time>2026-04-25T07:29:45.852Z</time></trkpt><trkpt lat="43.9430083" lon="11.0775683"><ele>307.79999999999995</ele><time>2026-04-25T07:29:46.859Z</time></trkpt><trkpt lat="43.9431133" lon="11.0775883"><ele>303.2</ele><time>2026-04-25T07:29:47.798Z</time></trkpt><trkpt lat="43.943225" lon="11.0776083"><ele>298.59999999999997</ele><time>2026-04-25T07:29:48.804Z</time></trkpt><trkpt lat="43.9433317" lon="11.0776533"><ele>294.0</ele><time>2026-04-25T07:29:49.812Z</time></trkpt><trkpt lat="43.9434283" lon="11.077705"><ele>294.0</ele><time>2026-04-25T07:29:50.818Z</time></trkpt><trkpt lat="43.9435133" lon="11.0777533"><ele>294.0</ele><time>2026-04-25T07:29:51.825Z</time></trkpt><trkpt lat="43.9435867" lon="11.07781"><ele>294.0</ele><time>2026-04-25T07:29:52.831Z</time></trkpt><trkpt lat="43.9436433" lon="11.0778883"><ele>294.0</ele><time>2026-04-25T07:29:53.838Z</time></trkpt><trkpt lat="43.94368" lon="11.0779917"><ele>294.0</ele><time>2026-04-25T07:29:54.844Z</time></trkpt><trkpt lat="43.943695" lon="11.0781"><ele>294.0</ele><time>2026-04-25T07:29:55.851Z</time></trkpt><trkpt lat="43.9437117" lon="11.0781983"><ele>293.5</ele><time>2026-04-25T07:29:56.791Z</time></trkpt><trkpt lat="43.9437383" lon="11.0782833"><ele>293.0</ele><time>2026-04-25T07:29:57.797Z</time></trkpt><trkpt lat="43.9437783" lon="11.078355"><ele>292.5</ele><time>2026-04-25T07:29:58.804Z</time></trkpt><trkpt lat="43.9438483" lon="11.0784133"><ele>292.0</ele><time>2026-04-25T07:29:59.811Z</time></trkpt><trkpt lat="43.9439367" lon="11.078445"><ele>291.5</ele><time>2026-04-25T07:30:00.817Z</time></trkpt><trkpt lat="43.94404" lon="11.0784567"><ele>291.0</ele><time>2026-04-25T07:30:01.824Z</time></trkpt><trkpt lat="43.9441633" lon="11.0784483"><ele>293.0</ele><time>2026-04-25T07:30:02.831Z</time></trkpt><trkpt lat="43.94427" lon="11.0784333"><ele>295.0</ele><time>2026-04-25T07:30:03.837Z</time></trkpt><trkpt lat="43.9443833" lon="11.078425"><ele>297.0</ele><time>2026-04-25T07:30:04.844Z</time></trkpt><trkpt lat="43.9444883" lon="11.078435"><ele>299.0</ele><time>2026-04-25T07:30:05.851Z</time></trkpt><trkpt lat="43.94458" lon="11.0784667"><ele>301.0</ele><time>2026-04-25T07:30:06.79Z</time></trkpt><trkpt lat="43.944675" lon="11.0784917"><ele>301.0</ele><time>2026-04-25T07:30:07.797Z</time></trkpt><trkpt lat="43.9447667" lon="11.07849"><ele>301.0</ele><time>2026-04-25T07:30:08.803Z</time></trkpt><trkpt lat="43.94485" lon="11.0784633"><ele>301.0</ele><time>2026-04-25T07:30:09.809Z</time></trkpt><trkpt lat="43.9449333" lon="11.0784033"><ele>301.0</ele><time>2026-04-25T07:30:10.817Z</time></trkpt><trkpt lat="43.9450117" lon="11.0782717"><ele>301.0</ele><time>2026-04-25T07:30:11.823Z</time></trkpt><trkpt lat="43.9450767" lon="11.0781283"><ele>303.40000000000003</ele><time>2026-04-25T07:30:12.83Z</time></trkpt><trkpt lat="43.94514" lon="11.0779833"><ele>305.8</ele><time>2026-04-25T07:30:13.837Z</time></trkpt><trkpt lat="43.94521" lon="11.0778533"><ele>308.20000000000005</ele><time>2026-04-25T07:30:14.842Z</time></trkpt><trkpt lat="43.9452833" lon="11.0777517"><ele>310.6</ele><time>2026-04-25T07:30:15.85Z</time></trkpt><trkpt lat="43.9453583" lon="11.077685"><ele>313.0</ele><time>2026-04-25T07:30:16.789Z</time></trkpt><trkpt lat="43.9454333" lon="11.0776383"><ele>313.0</ele><time>2026-04-25T07:30:17.796Z</time></trkpt><trkpt lat="43.94551" lon="11.0776017"><ele>313.0</ele><time>2026-04-25T07:30:18.803Z</time></trkpt><trkpt lat="43.9455883" lon="11.0775467"><ele>313.0</ele><time>2026-04-25T07:30:19.809Z</time></trkpt><trkpt lat="43.94566" lon="11.0774633"><ele>313.0</ele><time>2026-04-25T07:30:20.816Z</time></trkpt><trkpt lat="43.9457283" lon="11.07736"><ele>313.0</ele><time>2026-04-25T07:30:21.823Z</time></trkpt><trkpt lat="43.9458017" lon="11.0772517"><ele>313.0</ele><time>2026-04-25T07:30:22.829Z</time></trkpt><trkpt lat="43.9458717" lon="11.0771483"><ele>313.0</ele><time>2026-04-25T07:30:23.836Z</time></trkpt><trkpt lat="43.9459367" lon="11.0770567"><ele>313.0</ele><time>2026-04-25T07:30:24.842Z</time></trkpt><trkpt lat="43.9460017" lon="11.0769767"><ele>313.0</ele><time>2026-04-25T07:30:25.849Z</time></trkpt><trkpt lat="43.9460683" lon="11.07691"><ele>313.0</ele><time>2026-04-25T07:30:26.788Z</time></trkpt><trkpt lat="43.9461233" lon="11.0768533"><ele>313.0</ele><time>2026-04-25T07:30:27.795Z</time></trkpt><trkpt lat="43.946225" lon="11.0767933"><ele>314.2</ele><time>2026-04-25T07:30:29.809Z</time></trkpt><trkpt lat="43.94632" lon="11.07684"><ele>315.4</ele><time>2026-04-25T07:30:31.822Z</time></trkpt><trkpt lat="43.946375" lon="11.076975"><ele>316.59999999999997</ele><time>2026-04-25T07:30:33.835Z</time></trkpt><trkpt lat="43.9463717" lon="11.07709"><ele>317.8</ele><time>2026-04-25T07:30:34.842Z</time></trkpt><trkpt lat="43.9463867" lon="11.077225"><ele>319.0</ele><time>2026-04-25T07:30:35.848Z</time></trkpt><trkpt lat="43.946415" lon="11.07736"><ele>319.3333333333333</ele><time>2026-04-25T07:30:36.787Z</time></trkpt><trkpt lat="43.9464467" lon="11.077475"><ele>319.66666666666663</ele><time>2026-04-25T07:30:37.794Z</time></trkpt><trkpt lat="43.94648" lon="11.0775683"><ele>320.0</ele><time>2026-04-25T07:30:38.801Z</time></trkpt><trkpt lat="43.9465167" lon="11.0776517"><ele>320.3333333333333</ele><time>2026-04-25T07:30:39.808Z</time></trkpt><trkpt lat="43.9465683" lon="11.0777183"><ele>320.6666666666667</ele><time>2026-04-25T07:30:40.814Z</time></trkpt><trkpt lat="43.9466583" lon="11.07775"><ele>321.0</ele><time>2026-04-25T07:30:41.821Z</time></trkpt><trkpt lat="43.946755" lon="11.0777733"><ele>322.25</ele><time>2026-04-25T07:30:42.828Z</time></trkpt><trkpt lat="43.946865" lon="11.0778033"><ele>323.5</ele><time>2026-04-25T07:30:43.834Z</time></trkpt><trkpt lat="43.9469767" lon="11.077845"><ele>324.75</ele><time>2026-04-25T07:30:44.841Z</time></trkpt><trkpt lat="43.9470883" lon="11.0778867"><ele>326.0</ele><time>2026-04-25T07:30:45.779Z</time></trkpt><trkpt lat="43.9471983" lon="11.0779217"><ele>326.0</ele><time>2026-04-25T07:30:46.786Z</time></trkpt><trkpt lat="43.9473083" lon="11.07795"><ele>326.0</ele><time>2026-04-25T07:30:47.794Z</time></trkpt><trkpt lat="43.9474233" lon="11.077965"><ele>326.0</ele><time>2026-04-25T07:30:48.8Z</time></trkpt><trkpt lat="43.9475383" lon="11.0779617"><ele>326.0</ele><time>2026-04-25T07:30:49.806Z</time></trkpt><trkpt lat="43.947655" lon="11.0779583"><ele>325.6</ele><time>2026-04-25T07:30:50.814Z</time></trkpt><trkpt lat="43.9477683" lon="11.07797"><ele>325.20000000000005</ele><time>2026-04-25T07:30:51.819Z</time></trkpt><trkpt lat="43.9478783" lon="11.07798"><ele>324.79999999999995</ele><time>2026-04-25T07:30:52.826Z</time></trkpt><trkpt lat="43.947985" lon="11.0779833"><ele>324.4</ele><time>2026-04-25T07:30:53.833Z</time></trkpt><trkpt lat="43.94809" lon="11.0779883"><ele>324.0</ele><time>2026-04-25T07:30:54.84Z</time></trkpt><trkpt lat="43.9481883" lon="11.078"><ele>324.0</ele><time>2026-04-25T07:30:55.78Z</time></trkpt><trkpt lat="43.94828" lon="11.078025"><ele>324.0</ele><time>2026-04-25T07:30:56.786Z</time></trkpt><trkpt lat="43.948365" lon="11.07805"><ele>324.0</ele><time>2026-04-25T07:30:57.793Z</time></trkpt><trkpt lat="43.9484383" lon="11.0780983"><ele>324.0</ele><time>2026-04-25T07:30:58.8Z</time></trkpt><trkpt lat="43.948505" lon="11.0781683"><ele>324.0</ele><time>2026-04-25T07:30:59.806Z</time></trkpt><trkpt lat="43.948555" lon="11.0782583"><ele>324.0</ele><time>2026-04-25T07:31:00.812Z</time></trkpt><trkpt lat="43.9486033" lon="11.0783567"><ele>322.2</ele><time>2026-04-25T07:31:01.819Z</time></trkpt><trkpt lat="43.9486383" lon="11.0784733"><ele>320.4</ele><time>2026-04-25T07:31:02.826Z</time></trkpt><trkpt lat="43.9486483" lon="11.0786217"><ele>318.6</ele><time>2026-04-25T07:31:03.833Z</time></trkpt><trkpt lat="43.948655" lon="11.078785"><ele>316.8</ele><time>2026-04-25T07:31:04.838Z</time></trkpt><trkpt lat="43.9486617" lon="11.078945"><ele>315.0</ele><time>2026-04-25T07:31:05.779Z</time></trkpt><trkpt lat="43.9486733" lon="11.0790883"><ele>314.6666666666667</ele><time>2026-04-25T07:31:06.786Z</time></trkpt><trkpt lat="43.9486833" lon="11.07922"><ele>314.3333333333333</ele><time>2026-04-25T07:31:07.792Z</time></trkpt><trkpt lat="43.94869" lon="11.0793367"><ele>314.0</ele><time>2026-04-25T07:31:08.799Z</time></trkpt><trkpt lat="43.9487" lon="11.0794433"><ele>313.66666666666663</ele><time>2026-04-25T07:31:09.805Z</time></trkpt><trkpt lat="43.948715" lon="11.0795333"><ele>313.3333333333333</ele><time>2026-04-25T07:31:10.811Z</time></trkpt><trkpt lat="43.9487483" lon="11.07962"><ele>313.0</ele><time>2026-04-25T07:31:11.819Z</time></trkpt><trkpt lat="43.9488067" lon="11.0797"><ele>313.0</ele><time>2026-04-25T07:31:12.825Z</time></trkpt><trkpt lat="43.9488967" lon="11.0797633"><ele>313.0</ele><time>2026-04-25T07:31:13.832Z</time></trkpt><trkpt lat="43.9489933" lon="11.0798167"><ele>313.0</ele><time>2026-04-25T07:31:14.839Z</time></trkpt><trkpt lat="43.949085" lon="11.0798717"><ele>313.0</ele><time>2026-04-25T07:31:15.777Z</time></trkpt><trkpt lat="43.9491717" lon="11.0799233"><ele>313.0</ele><time>2026-04-25T07:31:16.785Z</time></trkpt><trkpt lat="43.949255" lon="11.0799833"><ele>315.3333333333333</ele><time>2026-04-25T07:31:17.791Z</time></trkpt><trkpt lat="43.949325" lon="11.0800583"><ele>317.66666666666663</ele><time>2026-04-25T07:31:18.798Z</time></trkpt><trkpt lat="43.94938" lon="11.0801433"><ele>320.0</ele><time>2026-04-25T07:31:19.804Z</time></trkpt><trkpt lat="43.9494283" lon="11.0802233"><ele>322.3333333333333</ele><time>2026-04-25T07:31:20.811Z</time></trkpt><trkpt lat="43.9494817" lon="11.0802917"><ele>324.6666666666667</ele><time>2026-04-25T07:31:21.817Z</time></trkpt><trkpt lat="43.9495383" lon="11.080345"><ele>327.0</ele><time>2026-04-25T07:31:22.825Z</time></trkpt><trkpt lat="43.9496433" lon="11.0804333"><ele>327.0</ele><time>2026-04-25T07:31:24.771Z</time></trkpt><trkpt lat="43.9496983" lon="11.0805317"><ele>327.0</ele><time>2026-04-25T07:31:26.784Z</time></trkpt><trkpt lat="43.9496617" lon="11.0806233"><ele>327.0</ele><time>2026-04-25T07:31:27.79Z</time></trkpt><trkpt lat="43.9496117" lon="11.0807183"><ele>327.0</ele><time>2026-04-25T07:31:28.796Z</time></trkpt><trkpt lat="43.949545" lon="11.0808283"><ele>327.0</ele><time>2026-04-25T07:31:29.804Z</time></trkpt><trkpt lat="43.94947" lon="11.0809433"><ele>326.6</ele><time>2026-04-25T07:31:30.81Z</time></trkpt><trkpt lat="43.9493933" lon="11.0810667"><ele>326.20000000000005</ele><time>2026-04-25T07:31:31.817Z</time></trkpt><trkpt lat="43.9493167" lon="11.0811817"><ele>325.8</ele><time>2026-04-25T07:31:32.824Z</time></trkpt><trkpt lat="43.94925" lon="11.081295"><ele>325.4</ele><time>2026-04-25T07:31:33.829Z</time></trkpt><trkpt lat="43.9491917" lon="11.0813983"><ele>325.0</ele><time>2026-04-25T07:31:34.77Z</time></trkpt><trkpt lat="43.949145" lon="11.0815"><ele>325.5</ele><time>2026-04-25T07:31:35.777Z</time></trkpt><trkpt lat="43.949115" lon="11.081615"><ele>326.0</ele><time>2026-04-25T07:31:36.783Z</time></trkpt><trkpt lat="43.9491067" lon="11.08173"><ele>326.5</ele><time>2026-04-25T07:31:37.79Z</time></trkpt><trkpt lat="43.949115" lon="11.0818483"><ele>327.0</ele><time>2026-04-25T07:31:38.796Z</time></trkpt><trkpt lat="43.9491417" lon="11.0819667"><ele>327.5</ele><time>2026-04-25T07:31:39.803Z</time></trkpt><trkpt lat="43.9491833" lon="11.0820717"><ele>328.0</ele><time>2026-04-25T07:31:40.809Z</time></trkpt><trkpt lat="43.94922" lon="11.0821667"><ele>328.0</ele><time>2026-04-25T07:31:41.815Z</time></trkpt><trkpt lat="43.9492383" lon="11.0822583"><ele>328.0</ele><time>2026-04-25T07:31:42.823Z</time></trkpt><trkpt lat="43.9492267" lon="11.0823467"><ele>328.0</ele><time>2026-04-25T07:31:43.83Z</time></trkpt><trkpt lat="43.9491783" lon="11.08244"><ele>328.0</ele><time>2026-04-25T07:31:44.769Z</time></trkpt><trkpt lat="43.94911" lon="11.08252"><ele>328.0</ele><time>2026-04-25T07:31:45.776Z</time></trkpt><trkpt lat="43.94905" lon="11.082605"><ele>328.0</ele><time>2026-04-25T07:31:46.782Z</time></trkpt><trkpt lat="43.949" lon="11.0826817"><ele>329.0</ele><time>2026-04-25T07:31:47.856Z</time></trkpt><trkpt lat="43.9489783" lon="11.0827683"><ele>330.0</ele><time>2026-04-25T07:31:48.863Z</time></trkpt><trkpt lat="43.9489817" lon="11.0828567"><ele>331.0</ele><time>2026-04-25T07:31:49.802Z</time></trkpt><trkpt lat="43.949065" lon="11.082975"><ele>332.0</ele><time>2026-04-25T07:31:51.816Z</time></trkpt><trkpt lat="43.94915" lon="11.0829967"><ele>333.0</ele><time>2026-04-25T07:31:52.821Z</time></trkpt><trkpt lat="43.94925" lon="11.0830017"><ele>334.0</ele><time>2026-04-25T07:31:53.829Z</time></trkpt><trkpt lat="43.9493417" lon="11.0830317"><ele>334.6</ele><time>2026-04-25T07:31:54.768Z</time></trkpt><trkpt lat="43.9494333" lon="11.0830867"><ele>335.2</ele><time>2026-04-25T07:31:55.775Z</time></trkpt><trkpt lat="43.9495117" lon="11.0831617"><ele>335.8</ele><time>2026-04-25T07:31:56.849Z</time></trkpt><trkpt lat="43.9495933" lon="11.083245"><ele>336.40000000000003</ele><time>2026-04-25T07:31:57.855Z</time></trkpt><trkpt lat="43.9496767" lon="11.0833233"><ele>337.0</ele><time>2026-04-25T07:31:58.861Z</time></trkpt><trkpt lat="43.9497617" lon="11.083395"><ele>339.16666666666663</ele><time>2026-04-25T07:31:59.802Z</time></trkpt><trkpt lat="43.9498533" lon="11.083455"><ele>341.3333333333333</ele><time>2026-04-25T07:32:00.808Z</time></trkpt><trkpt lat="43.94994" lon="11.083505"><ele>343.5</ele><time>2026-04-25T07:32:01.814Z</time></trkpt><trkpt lat="43.95002" lon="11.0835517"><ele>345.6666666666667</ele><time>2026-04-25T07:32:02.82Z</time></trkpt><trkpt lat="43.9500983" lon="11.0836067"><ele>347.83333333333337</ele><time>2026-04-25T07:32:03.827Z</time></trkpt><trkpt lat="43.9501583" lon="11.0836617"><ele>350.0</ele><time>2026-04-25T07:32:04.835Z</time></trkpt><trkpt lat="43.9502083" lon="11.08372"><ele>351.4</ele><time>2026-04-25T07:32:05.841Z</time></trkpt><trkpt lat="43.950255" lon="11.0838467"><ele>352.8</ele><time>2026-04-25T07:32:07.855Z</time></trkpt><trkpt lat="43.95021" lon="11.0839433"><ele>354.20000000000005</ele><time>2026-04-25T07:32:08.793Z</time></trkpt><trkpt lat="43.9501567" lon="11.0840467"><ele>355.6</ele><time>2026-04-25T07:32:09.8Z</time></trkpt><trkpt lat="43.95011" lon="11.0841583"><ele>357.0</ele><time>2026-04-25T07:32:10.807Z</time></trkpt><trkpt lat="43.950075" lon="11.0842767"><ele>356.6666666666667</ele><time>2026-04-25T07:32:11.814Z</time></trkpt><trkpt lat="43.9500433" lon="11.0843867"><ele>356.3333333333333</ele><time>2026-04-25T07:32:12.821Z</time></trkpt><trkpt lat="43.950015" lon="11.08448"><ele>356.0</ele><time>2026-04-25T07:32:13.827Z</time></trkpt><trkpt lat="43.9499933" lon="11.0845833"><ele>355.66666666666663</ele><time>2026-04-25T07:32:14.834Z</time></trkpt><trkpt lat="43.94999" lon="11.0846983"><ele>355.3333333333333</ele><time>2026-04-25T07:32:15.841Z</time></trkpt><trkpt lat="43.950005" lon="11.0848167"><ele>355.0</ele><time>2026-04-25T07:32:16.847Z</time></trkpt><trkpt lat="43.9500333" lon="11.08492"><ele>355.5</ele><time>2026-04-25T07:32:17.853Z</time></trkpt><trkpt lat="43.9500667" lon="11.0850133"><ele>356.0</ele><time>2026-04-25T07:32:18.792Z</time></trkpt><trkpt lat="43.9500917" lon="11.0850967"><ele>356.5</ele><time>2026-04-25T07:32:19.8Z</time></trkpt><trkpt lat="43.9500917" lon="11.085245"><ele>357.0</ele><time>2026-04-25T07:32:21.813Z</time></trkpt><trkpt lat="43.9500683" lon="11.0853283"><ele>357.5</ele><time>2026-04-25T07:32:22.82Z</time></trkpt><trkpt lat="43.95003" lon="11.0854033"><ele>358.0</ele><time>2026-04-25T07:32:23.826Z</time></trkpt><trkpt lat="43.949975" lon="11.0854717"><ele>358.0</ele><time>2026-04-25T07:32:24.833Z</time></trkpt><trkpt lat="43.9499083" lon="11.0855433"><ele>358.0</ele><time>2026-04-25T07:32:25.84Z</time></trkpt><trkpt lat="43.9498433" lon="11.085625"><ele>358.0</ele><time>2026-04-25T07:32:26.846Z</time></trkpt><trkpt lat="43.94978" lon="11.0857167"><ele>358.0</ele><time>2026-04-25T07:32:27.853Z</time></trkpt><trkpt lat="43.9497267" lon="11.0858117"><ele>358.0</ele><time>2026-04-25T07:32:28.793Z</time></trkpt><trkpt lat="43.94969" lon="11.085895"><ele>358.0</ele><time>2026-04-25T07:32:29.799Z</time></trkpt><trkpt lat="43.9496717" lon="11.0860583"><ele>360.66666666666663</ele><time>2026-04-25T07:32:31.812Z</time></trkpt><trkpt lat="43.9497217" lon="11.086135"><ele>363.3333333333333</ele><time>2026-04-25T07:32:33.826Z</time></trkpt><trkpt lat="43.9498233" lon="11.0860767"><ele>366.0</ele><time>2026-04-25T07:32:35.839Z</time></trkpt><trkpt lat="43.9498833" lon="11.0859883"><ele>368.6666666666667</ele><time>2026-04-25T07:32:36.846Z</time></trkpt><trkpt lat="43.949945" lon="11.0859033"><ele>371.33333333333337</ele><time>2026-04-25T07:32:37.852Z</time></trkpt><trkpt lat="43.950005" lon="11.08584"><ele>374.0</ele><time>2026-04-25T07:32:38.792Z</time></trkpt><trkpt lat="43.950095" lon="11.0857667"><ele>374.0</ele><time>2026-04-25T07:32:40.805Z</time></trkpt><trkpt lat="43.9501717" lon="11.0857733"><ele>374.0</ele><time>2026-04-25T07:32:43.825Z</time></trkpt><trkpt lat="43.9501333" lon="11.0858467"><ele>374.0</ele><time>2026-04-25T07:32:45.838Z</time></trkpt><trkpt lat="43.9500767" lon="11.0859033"><ele>374.0</ele><time>2026-04-25T07:32:46.845Z</time></trkpt><trkpt lat="43.9500233" lon="11.0859817"><ele>374.0</ele><time>2026-04-25T07:32:47.851Z</time></trkpt><trkpt lat="43.9499783" lon="11.0860867"><ele>374.0</ele><time>2026-04-25T07:32:48.791Z</time></trkpt><trkpt lat="43.9499383" lon="11.0861933"><ele>374.0</ele><time>2026-04-25T07:32:49.798Z</time></trkpt><trkpt lat="43.9499" lon="11.0862933"><ele>374.0</ele><time>2026-04-25T07:32:50.803Z</time></trkpt><trkpt lat="43.9498667" lon="11.0863917"><ele>374.0</ele><time>2026-04-25T07:32:51.81Z</time></trkpt><trkpt lat="43.9498383" lon="11.08649"><ele>374.0</ele><time>2026-04-25T07:32:52.818Z</time></trkpt><trkpt lat="43.9498183" lon="11.0865883"><ele>374.0</ele><time>2026-04-25T07:32:53.824Z</time></trkpt><trkpt lat="43.9497983" lon="11.0866833"><ele>374.0</ele><time>2026-04-25T07:32:54.831Z</time></trkpt><trkpt lat="43.9497683" lon="11.0867717"><ele>378.0</ele><time>2026-04-25T07:32:55.837Z</time></trkpt><trkpt lat="43.9497233" lon="11.0868533"><ele>382.0</ele><time>2026-04-25T07:32:56.844Z</time></trkpt><trkpt lat="43.9496683" lon="11.0869383"><ele>386.0</ele><time>2026-04-25T07:32:57.784Z</time></trkpt><trkpt lat="43.9496083" lon="11.0870467"><ele>390.0</ele><time>2026-04-25T07:32:58.789Z</time></trkpt><trkpt lat="43.9495483" lon="11.0871567"><ele>394.0</ele><time>2026-04-25T07:32:59.796Z</time></trkpt><trkpt lat="43.9494933" lon="11.087275"><ele>394.0</ele><time>2026-04-25T07:33:00.803Z</time></trkpt><trkpt lat="43.949445" lon="11.0874017"><ele>394.0</ele><time>2026-04-25T07:33:01.81Z</time></trkpt><trkpt lat="43.9493983" lon="11.08753"><ele>394.0</ele><time>2026-04-25T07:33:02.817Z</time></trkpt><trkpt lat="43.9493533" lon="11.0876467"><ele>394.0</ele><time>2026-04-25T07:33:03.823Z</time></trkpt><trkpt lat="43.9493117" lon="11.0877567"><ele>394.0</ele><time>2026-04-25T07:33:04.83Z</time></trkpt><trkpt lat="43.9492817" lon="11.0878783"><ele>395.2</ele><time>2026-04-25T07:33:05.836Z</time></trkpt><trkpt lat="43.9492567" lon="11.0880067"><ele>396.4</ele><time>2026-04-25T07:33:06.843Z</time></trkpt><trkpt lat="43.9492333" lon="11.0881417"><ele>397.6</ele><time>2026-04-25T07:33:07.783Z</time></trkpt><trkpt lat="43.9492133" lon="11.0882833"><ele>398.8</ele><time>2026-04-25T07:33:08.789Z</time></trkpt><trkpt lat="43.9492" lon="11.0884267"><ele>400.0</ele><time>2026-04-25T07:33:09.795Z</time></trkpt><trkpt lat="43.94919" lon="11.0885567"><ele>400.00000000000006</ele><time>2026-04-25T07:33:10.803Z</time></trkpt><trkpt lat="43.9491833" lon="11.0886767"><ele>400.0</ele><time>2026-04-25T07:33:11.809Z</time></trkpt><trkpt lat="43.9491817" lon="11.0887867"><ele>400.0</ele><time>2026-04-25T07:33:12.816Z</time></trkpt><trkpt lat="43.949175" lon="11.08888"><ele>400.0</ele><time>2026-04-25T07:33:13.823Z</time></trkpt><trkpt lat="43.9491483" lon="11.0889633"><ele>400.0</ele><time>2026-04-25T07:33:14.829Z</time></trkpt><trkpt lat="43.94912" lon="11.0890433"><ele>400.00000000000006</ele><time>2026-04-25T07:33:15.836Z</time></trkpt><trkpt lat="43.9490417" lon="11.0890833"><ele>400.0</ele><time>2026-04-25T07:33:16.842Z</time></trkpt><trkpt lat="43.9489517" lon="11.08912"><ele>401.6</ele><time>2026-04-25T07:33:17.782Z</time></trkpt><trkpt lat="43.9488533" lon="11.089175"><ele>403.2</ele><time>2026-04-25T07:33:18.789Z</time></trkpt><trkpt lat="43.9487617" lon="11.0892333"><ele>404.79999999999995</ele><time>2026-04-25T07:33:19.795Z</time></trkpt><trkpt lat="43.9486817" lon="11.0892967"><ele>406.4</ele><time>2026-04-25T07:33:20.802Z</time></trkpt><trkpt lat="43.9486117" lon="11.0893783"><ele>408.0</ele><time>2026-04-25T07:33:21.809Z</time></trkpt><trkpt lat="43.9485533" lon="11.0894967"><ele>408.0</ele><time>2026-04-25T07:33:22.815Z</time></trkpt><trkpt lat="43.9485" lon="11.0896433"><ele>408.0</ele><time>2026-04-25T07:33:23.822Z</time></trkpt><trkpt lat="43.9484567" lon="11.0897933"><ele>408.0</ele><time>2026-04-25T07:33:24.828Z</time></trkpt><trkpt lat="43.948425" lon="11.0899217"><ele>408.0</ele><time>2026-04-25T07:33:25.835Z</time></trkpt><trkpt lat="43.9483933" lon="11.0900267"><ele>408.0</ele><time>2026-04-25T07:33:26.842Z</time></trkpt><trkpt lat="43.94836" lon="11.0901167"><ele>408.5</ele><time>2026-04-25T07:33:27.78Z</time></trkpt><trkpt lat="43.948315" lon="11.0901817"><ele>409.0</ele><time>2026-04-25T07:33:28.788Z</time></trkpt><trkpt lat="43.9482667" lon="11.0902383"><ele>409.5</ele><time>2026-04-25T07:33:29.795Z</time></trkpt><trkpt lat="43.94815" lon="11.0902283"><ele>410.0</ele><time>2026-04-25T07:33:31.808Z</time></trkpt><trkpt lat="43.948085" lon="11.0901583"><ele>410.5</ele><time>2026-04-25T07:33:32.814Z</time></trkpt><trkpt lat="43.9480083" lon="11.09006"><ele>411.0</ele><time>2026-04-25T07:33:33.821Z</time></trkpt><trkpt lat="43.9479283" lon="11.0899633"><ele>408.20000000000005</ele><time>2026-04-25T07:33:34.828Z</time></trkpt><trkpt lat="43.9478417" lon="11.08987"><ele>405.40000000000003</ele><time>2026-04-25T07:33:35.833Z</time></trkpt><trkpt lat="43.947745" lon="11.0897733"><ele>402.6</ele><time>2026-04-25T07:33:36.774Z</time></trkpt><trkpt lat="43.9476583" lon="11.0897067"><ele>399.8</ele><time>2026-04-25T07:33:37.78Z</time></trkpt><trkpt lat="43.94757" lon="11.0896717"><ele>397.0</ele><time>2026-04-25T07:33:38.786Z</time></trkpt><trkpt lat="43.94748" lon="11.08966"><ele>397.00000000000006</ele><time>2026-04-25T07:33:39.794Z</time></trkpt><trkpt lat="43.9473867" lon="11.0896783"><ele>397.0</ele><time>2026-04-25T07:33:40.8Z</time></trkpt><trkpt lat="43.9472967" lon="11.0897167"><ele>397.0</ele><time>2026-04-25T07:33:41.807Z</time></trkpt><trkpt lat="43.9472283" lon="11.0898117"><ele>397.0</ele><time>2026-04-25T07:33:42.814Z</time></trkpt><trkpt lat="43.94717" lon="11.0899"><ele>397.00000000000006</ele><time>2026-04-25T07:33:43.82Z</time></trkpt><trkpt lat="43.9471217" lon="11.0899783"><ele>397.0</ele><time>2026-04-25T07:33:44.827Z</time></trkpt><trkpt lat="43.9470767" lon="11.0900483"><ele>399.40000000000003</ele><time>2026-04-25T07:33:45.834Z</time></trkpt><trkpt lat="43.9470067" lon="11.0901617"><ele>401.8</ele><time>2026-04-25T07:33:47.78Z</time></trkpt><trkpt lat="43.9469617" lon="11.09025"><ele>404.2</ele><time>2026-04-25T07:33:50.8Z</time></trkpt><trkpt lat="43.9469467" lon="11.090405"><ele>406.6</ele><time>2026-04-25T07:34:08.785Z</time></trkpt><trkpt lat="43.94704" lon="11.0904833"><ele>409.0</ele><time>2026-04-25T07:34:10.865Z</time></trkpt><trkpt lat="43.94712" lon="11.0905133"><ele>409.00000000000006</ele><time>2026-04-25T07:34:11.805Z</time></trkpt><trkpt lat="43.9471883" lon="11.0905117"><ele>409.0</ele><time>2026-04-25T07:34:12.811Z</time></trkpt><trkpt lat="43.94726" lon="11.0904917"><ele>409.0</ele><time>2026-04-25T07:34:13.817Z</time></trkpt><trkpt lat="43.9473817" lon="11.0905"><ele>409.0</ele><time>2026-04-25T07:34:15.831Z</time></trkpt><trkpt lat="43.9474383" lon="11.09055"><ele>409.00000000000006</ele><time>2026-04-25T07:34:16.771Z</time></trkpt><trkpt lat="43.9474933" lon="11.090695"><ele>409.0</ele><time>2026-04-25T07:34:18.85Z</time></trkpt><trkpt lat="43.9474783" lon="11.0907917"><ele>411.4</ele><time>2026-04-25T07:34:19.858Z</time></trkpt><trkpt lat="43.9474417" lon="11.0909067"><ele>413.79999999999995</ele><time>2026-04-25T07:34:20.797Z</time></trkpt><trkpt lat="43.9473867" lon="11.0910217"><ele>416.20000000000005</ele><time>2026-04-25T07:34:21.804Z</time></trkpt><trkpt lat="43.9473267" lon="11.0911383"><ele>418.6</ele><time>2026-04-25T07:34:22.811Z</time></trkpt><trkpt lat="43.94726" lon="11.091245"><ele>421.0</ele><time>2026-04-25T07:34:23.816Z</time></trkpt><trkpt lat="43.9471867" lon="11.091335"><ele>421.00000000000006</ele><time>2026-04-25T07:34:24.824Z</time></trkpt><trkpt lat="43.94711" lon="11.0913983"><ele>421.0</ele><time>2026-04-25T07:34:25.763Z</time></trkpt><trkpt lat="43.9470283" lon="11.0914433"><ele>421.0</ele><time>2026-04-25T07:34:26.77Z</time></trkpt><trkpt lat="43.946945" lon="11.091465"><ele>421.0</ele><time>2026-04-25T07:34:27.844Z</time></trkpt><trkpt lat="43.9468583" lon="11.0914583"><ele>421.00000000000006</ele><time>2026-04-25T07:34:28.85Z</time></trkpt><trkpt lat="43.9467717" lon="11.091445"><ele>421.0</ele><time>2026-04-25T07:34:29.856Z</time></trkpt><trkpt lat="43.9466817" lon="11.09141"><ele>420.0</ele><time>2026-04-25T07:34:30.796Z</time></trkpt><trkpt lat="43.9465783" lon="11.0913717"><ele>419.0</ele><time>2026-04-25T07:34:31.802Z</time></trkpt><trkpt lat="43.94647" lon="11.0913483"><ele>418.0</ele><time>2026-04-25T07:34:32.81Z</time></trkpt><trkpt lat="43.94637" lon="11.0913417"><ele>417.0</ele><time>2026-04-25T07:34:33.816Z</time></trkpt><trkpt lat="43.946285" lon="11.0913317"><ele>416.0</ele><time>2026-04-25T07:34:34.823Z</time></trkpt><trkpt lat="43.9462167" lon="11.0913383"><ele>416.0</ele><time>2026-04-25T07:34:35.83Z</time></trkpt><trkpt lat="43.946125" lon="11.0913733"><ele>416.0</ele><time>2026-04-25T07:34:37.843Z</time></trkpt><trkpt lat="43.9460967" lon="11.091485"><ele>416.0</ele><time>2026-04-25T07:34:39.855Z</time></trkpt><trkpt lat="43.946135" lon="11.0916467"><ele>416.0</ele><time>2026-04-25T07:34:41.802Z</time></trkpt><trkpt lat="43.9461717" lon="11.0917567"><ele>416.0</ele><time>2026-04-25T07:34:42.808Z</time></trkpt><trkpt lat="43.9462117" lon="11.0918567"><ele>419.16666666666663</ele><time>2026-04-25T07:34:43.816Z</time></trkpt><trkpt lat="43.9462483" lon="11.09196"><ele>422.3333333333333</ele><time>2026-04-25T07:34:44.822Z</time></trkpt><trkpt lat="43.9462717" lon="11.0920633"><ele>425.5</ele><time>2026-04-25T07:34:45.829Z</time></trkpt><trkpt lat="43.9462917" lon="11.0921783"><ele>428.66666666666663</ele><time>2026-04-25T07:34:46.835Z</time></trkpt><trkpt lat="43.9463167" lon="11.0922983"><ele>431.8333333333333</ele><time>2026-04-25T07:34:47.842Z</time></trkpt><trkpt lat="43.9463367" lon="11.0923967"><ele>435.0</ele><time>2026-04-25T07:34:48.848Z</time></trkpt><trkpt lat="43.946355" lon="11.0924867"><ele>437.14285714285717</ele><time>2026-04-25T07:34:49.855Z</time></trkpt><trkpt lat="43.9463783" lon="11.0925767"><ele>439.28571428571433</ele><time>2026-04-25T07:34:50.795Z</time></trkpt><trkpt lat="43.9464133" lon="11.0926667"><ele>441.42857142857144</ele><time>2026-04-25T07:34:51.802Z</time></trkpt><trkpt lat="43.9464567" lon="11.0927467"><ele>443.5714285714286</ele><time>2026-04-25T07:34:52.808Z</time></trkpt><trkpt lat="43.9465117" lon="11.092825"><ele>445.7142857142857</ele><time>2026-04-25T07:34:53.815Z</time></trkpt><trkpt lat="43.946565" lon="11.092895"><ele>447.85714285714295</ele><time>2026-04-25T07:34:54.821Z</time></trkpt><trkpt lat="43.94662" lon="11.092965"><ele>450.00000000000006</ele><time>2026-04-25T07:34:55.828Z</time></trkpt><trkpt lat="43.946675" lon="11.0930417"><ele>451.5</ele><time>2026-04-25T07:34:56.835Z</time></trkpt><trkpt lat="43.9467317" lon="11.09312"><ele>453.0</ele><time>2026-04-25T07:34:57.841Z</time></trkpt><trkpt lat="43.94679" lon="11.093205"><ele>454.5</ele><time>2026-04-25T07:34:58.848Z</time></trkpt><trkpt lat="43.9468483" lon="11.0932883"><ele>456.0</ele><time>2026-04-25T07:34:59.854Z</time></trkpt><trkpt lat="43.9469133" lon="11.0933683"><ele>457.5</ele><time>2026-04-25T07:35:00.794Z</time></trkpt><trkpt lat="43.94698" lon="11.0934383"><ele>459.0</ele><time>2026-04-25T07:35:01.801Z</time></trkpt><trkpt lat="43.9470433" lon="11.0935067"><ele>459.42857142857144</ele><time>2026-04-25T07:35:02.807Z</time></trkpt><trkpt lat="43.9471117" lon="11.093575"><ele>459.85714285714283</ele><time>2026-04-25T07:35:03.814Z</time></trkpt><trkpt lat="43.947165" lon="11.093645"><ele>460.2857142857143</ele><time>2026-04-25T07:35:04.821Z</time></trkpt><trkpt lat="43.9472133" lon="11.09371"><ele>460.7142857142857</ele><time>2026-04-25T07:35:05.827Z</time></trkpt><trkpt lat="43.9472533" lon="11.0937833"><ele>461.1428571428571</ele><time>2026-04-25T07:35:06.834Z</time></trkpt><trkpt lat="43.9472783" lon="11.0938683"><ele>461.57142857142856</ele><time>2026-04-25T07:35:07.841Z</time></trkpt><trkpt lat="43.9473" lon="11.09397"><ele>462.0</ele><time>2026-04-25T07:35:08.847Z</time></trkpt><trkpt lat="43.9473083" lon="11.09408"><ele>461.1666666666667</ele><time>2026-04-25T07:35:09.787Z</time></trkpt><trkpt lat="43.9473133" lon="11.0941917"><ele>460.33333333333337</ele><time>2026-04-25T07:35:10.792Z</time></trkpt><trkpt lat="43.947315" lon="11.0943"><ele>459.5</ele><time>2026-04-25T07:35:11.8Z</time></trkpt><trkpt lat="43.9473217" lon="11.0944117"><ele>458.6666666666667</ele><time>2026-04-25T07:35:12.807Z</time></trkpt><trkpt lat="43.9473133" lon="11.0945217"><ele>457.83333333333337</ele><time>2026-04-25T07:35:13.813Z</time></trkpt><trkpt lat="43.9472983" lon="11.0946267"><ele>457.0</ele><time>2026-04-25T07:35:14.82Z</time></trkpt><trkpt lat="43.947285" lon="11.094735"><ele>457.00000000000006</ele><time>2026-04-25T07:35:15.827Z</time></trkpt><trkpt lat="43.9472767" lon="11.094845"><ele>457.0</ele><time>2026-04-25T07:35:16.832Z</time></trkpt><trkpt lat="43.947275" lon="11.0949567"><ele>457.0</ele><time>2026-04-25T07:35:17.84Z</time></trkpt><trkpt lat="43.9472867" lon="11.0950667"><ele>457.0</ele><time>2026-04-25T07:35:18.846Z</time></trkpt><trkpt lat="43.9473" lon="11.0951617"><ele>457.00000000000006</ele><time>2026-04-25T07:35:19.786Z</time></trkpt><trkpt lat="43.9473167" lon="11.09525"><ele>457.0</ele><time>2026-04-25T07:35:20.793Z</time></trkpt><trkpt lat="43.9473367" lon="11.09541"><ele>456.33333333333337</ele><time>2026-04-25T07:35:22.806Z</time></trkpt><trkpt lat="43.94731" lon="11.0955583"><ele>455.6666666666667</ele><time>2026-04-25T07:35:24.819Z</time></trkpt><trkpt lat="43.9472467" lon="11.09568"><ele>455.0</ele><time>2026-04-25T07:35:26.832Z</time></trkpt><trkpt lat="43.9472183" lon="11.09576"><ele>454.33333333333337</ele><time>2026-04-25T07:35:27.838Z</time></trkpt><trkpt lat="43.9471967" lon="11.0958583"><ele>453.6666666666667</ele><time>2026-04-25T07:35:28.846Z</time></trkpt><trkpt lat="43.947185" lon="11.09596"><ele>453.0</ele><time>2026-04-25T07:35:29.784Z</time></trkpt><trkpt lat="43.9471833" lon="11.096055"><ele>452.6666666666667</ele><time>2026-04-25T07:35:30.792Z</time></trkpt><trkpt lat="43.9471717" lon="11.096215"><ele>452.33333333333337</ele><time>2026-04-25T07:35:32.804Z</time></trkpt><trkpt lat="43.9471333" lon="11.0963583"><ele>452.0</ele><time>2026-04-25T07:35:34.817Z</time></trkpt><trkpt lat="43.9470983" lon="11.0964333"><ele>451.6666666666667</ele><time>2026-04-25T07:35:35.824Z</time></trkpt><trkpt lat="43.9470667" lon="11.0965117"><ele>451.33333333333337</ele><time>2026-04-25T07:35:36.832Z</time></trkpt><trkpt lat="43.9470517" lon="11.0966183"><ele>451.0</ele><time>2026-04-25T07:35:37.838Z</time></trkpt><trkpt lat="43.9470467" lon="11.0967317"><ele>450.83333333333337</ele><time>2026-04-25T07:35:38.845Z</time></trkpt><trkpt lat="43.9470567" lon="11.09684"><ele>450.6666666666667</ele><time>2026-04-25T07:35:39.784Z</time></trkpt><trkpt lat="43.9470817" lon="11.0969483"><ele>450.5</ele><time>2026-04-25T07:35:40.79Z</time></trkpt><trkpt lat="43.9471117" lon="11.0970667"><ele>450.33333333333337</ele><time>2026-04-25T07:35:41.798Z</time></trkpt><trkpt lat="43.9471433" lon="11.0971817"><ele>450.1666666666667</ele><time>2026-04-25T07:35:42.804Z</time></trkpt><trkpt lat="43.94718" lon="11.0972817"><ele>450.0</ele><time>2026-04-25T07:35:43.811Z</time></trkpt><trkpt lat="43.9472167" lon="11.09737"><ele>448.8</ele><time>2026-04-25T07:35:44.818Z</time></trkpt><trkpt lat="43.94728" lon="11.0974567"><ele>447.6</ele><time>2026-04-25T07:35:45.824Z</time></trkpt><trkpt lat="43.9473533" lon="11.0975267"><ele>446.4</ele><time>2026-04-25T07:35:46.83Z</time></trkpt><trkpt lat="43.947425" lon="11.0975967"><ele>445.2</ele><time>2026-04-25T07:35:47.837Z</time></trkpt><trkpt lat="43.9474983" lon="11.09767"><ele>444.0</ele><time>2026-04-25T07:35:48.776Z</time></trkpt><trkpt lat="43.9475767" lon="11.09776"><ele>449.0</ele><time>2026-04-25T07:35:49.783Z</time></trkpt><trkpt lat="43.94767" lon="11.09786"><ele>454.0</ele><time>2026-04-25T07:35:50.79Z</time></trkpt><trkpt lat="43.947755" lon="11.097975"><ele>459.0</ele><time>2026-04-25T07:35:51.797Z</time></trkpt><trkpt lat="43.947835" lon="11.098105"><ele>464.0</ele><time>2026-04-25T07:35:52.803Z</time></trkpt><trkpt lat="43.94791" lon="11.0982283"><ele>462.6</ele><time>2026-04-25T07:35:53.81Z</time></trkpt><trkpt lat="43.9479767" lon="11.09835"><ele>461.2</ele><time>2026-04-25T07:35:54.817Z</time></trkpt><trkpt lat="43.9480417" lon="11.0984633"><ele>459.80000000000007</ele><time>2026-04-25T07:35:55.823Z</time></trkpt><trkpt lat="43.9480983" lon="11.0985683"><ele>458.40000000000003</ele><time>2026-04-25T07:35:56.83Z</time></trkpt><trkpt lat="43.948145" lon="11.098675"><ele>457.0</ele><time>2026-04-25T07:35:57.837Z</time></trkpt><trkpt lat="43.9481783" lon="11.09879"><ele>457.0</ele><time>2026-04-25T07:35:58.776Z</time></trkpt><trkpt lat="43.948195" lon="11.0989117"><ele>457.00000000000006</ele><time>2026-04-25T07:35:59.783Z</time></trkpt><trkpt lat="43.9481967" lon="11.0990583"><ele>457.00000000000006</ele><time>2026-04-25T07:36:00.789Z</time></trkpt><trkpt lat="43.94819" lon="11.0992183"><ele>457.0</ele><time>2026-04-25T07:36:01.796Z</time></trkpt><trkpt lat="43.9481817" lon="11.09937"><ele>457.0</ele><time>2026-04-25T07:36:02.803Z</time></trkpt><trkpt lat="43.9481733" lon="11.0995183"><ele>456.0</ele><time>2026-04-25T07:36:03.809Z</time></trkpt><trkpt lat="43.9481683" lon="11.0996667"><ele>455.00000000000006</ele><time>2026-04-25T07:36:04.816Z</time></trkpt><trkpt lat="43.948165" lon="11.09981"><ele>454.00000000000006</ele><time>2026-04-25T07:36:05.823Z</time></trkpt><trkpt lat="43.9481683" lon="11.09995"><ele>453.0</ele><time>2026-04-25T07:36:06.829Z</time></trkpt><trkpt lat="43.94818" lon="11.1000917"><ele>452.0</ele><time>2026-04-25T07:36:07.835Z</time></trkpt><trkpt lat="43.9481933" lon="11.1002183"><ele>451.99999999999994</ele><time>2026-04-25T07:36:08.774Z</time></trkpt><trkpt lat="43.9482033" lon="11.1003367"><ele>452.0</ele><time>2026-04-25T07:36:09.782Z</time></trkpt><trkpt lat="43.9482183" lon="11.100455"><ele>452.0</ele><time>2026-04-25T07:36:10.789Z</time></trkpt><trkpt lat="43.948235" lon="11.10057"><ele>452.0</ele><time>2026-04-25T07:36:11.795Z</time></trkpt><trkpt lat="43.9482517" lon="11.1006717"><ele>451.99999999999994</ele><time>2026-04-25T07:36:12.801Z</time></trkpt><trkpt lat="43.948265" lon="11.1007633"><ele>452.0</ele><time>2026-04-25T07:36:13.809Z</time></trkpt><trkpt lat="43.9482767" lon="11.10085"><ele>451.40000000000003</ele><time>2026-04-25T07:36:14.815Z</time></trkpt><trkpt lat="43.9482867" lon="11.1009783"><ele>450.80000000000007</ele><time>2026-04-25T07:36:16.827Z</time></trkpt><trkpt lat="43.948265" lon="11.1011183"><ele>450.2</ele><time>2026-04-25T07:36:18.775Z</time></trkpt><trkpt lat="43.9482933" lon="11.1012817"><ele>449.6</ele><time>2026-04-25T07:36:20.788Z</time></trkpt><trkpt lat="43.9483517" lon="11.1013533"><ele>449.0</ele><time>2026-04-25T07:36:21.794Z</time></trkpt><trkpt lat="43.9484567" lon="11.101415"><ele>449.75</ele><time>2026-04-25T07:36:22.8Z</time></trkpt><trkpt lat="43.94858" lon="11.10147"><ele>450.5</ele><time>2026-04-25T07:36:23.808Z</time></trkpt><trkpt lat="43.9487067" lon="11.1015367"><ele>451.25</ele><time>2026-04-25T07:36:24.813Z</time></trkpt><trkpt lat="43.9488267" lon="11.101595"><ele>452.0</ele><time>2026-04-25T07:36:25.821Z</time></trkpt><trkpt lat="43.9489533" lon="11.1016233"><ele>452.0</ele><time>2026-04-25T07:36:26.827Z</time></trkpt><trkpt lat="43.949075" lon="11.1016133"><ele>452.0</ele><time>2026-04-25T07:36:27.834Z</time></trkpt><trkpt lat="43.949185" lon="11.1015717"><ele>452.0</ele><time>2026-04-25T07:36:28.774Z</time></trkpt><trkpt lat="43.94929" lon="11.1014867"><ele>452.0</ele><time>2026-04-25T07:36:29.78Z</time></trkpt><trkpt lat="43.9493833" lon="11.101365"><ele>452.5</ele><time>2026-04-25T07:36:30.787Z</time></trkpt><trkpt lat="43.9494683" lon="11.1012117"><ele>453.0</ele><time>2026-04-25T07:36:31.794Z</time></trkpt><trkpt lat="43.9495567" lon="11.1010533"><ele>453.5</ele><time>2026-04-25T07:36:32.799Z</time></trkpt><trkpt lat="43.949645" lon="11.1009033"><ele>454.0</ele><time>2026-04-25T07:36:33.807Z</time></trkpt><trkpt lat="43.949735" lon="11.1007733"><ele>456.5</ele><time>2026-04-25T07:36:34.814Z</time></trkpt><trkpt lat="43.9498317" lon="11.1006617"><ele>459.0</ele><time>2026-04-25T07:36:35.82Z</time></trkpt><trkpt lat="43.9499383" lon="11.1005717"><ele>461.5</ele><time>2026-04-25T07:36:36.827Z</time></trkpt><trkpt lat="43.9500667" lon="11.100515"><ele>464.0</ele><time>2026-04-25T07:36:37.766Z</time></trkpt><trkpt lat="43.9502067" lon="11.100495"><ele>464.0</ele><time>2026-04-25T07:36:38.773Z</time></trkpt><trkpt lat="43.9503567" lon="11.1005033"><ele>464.0</ele><time>2026-04-25T07:36:39.78Z</time></trkpt><trkpt lat="43.9505083" lon="11.1005267"><ele>464.0</ele><time>2026-04-25T07:36:40.785Z</time></trkpt><trkpt lat="43.9506633" lon="11.100545"><ele>464.0</ele><time>2026-04-25T07:36:41.86Z</time></trkpt><trkpt lat="43.950815" lon="11.100555"><ele>464.0</ele><time>2026-04-25T07:36:42.8Z</time></trkpt><trkpt lat="43.950965" lon="11.1005567"><ele>464.0</ele><time>2026-04-25T07:36:43.806Z</time></trkpt><trkpt lat="43.9511133" lon="11.1005517"><ele>464.5</ele><time>2026-04-25T07:36:44.813Z</time></trkpt><trkpt lat="43.9512533" lon="11.10053"><ele>465.0</ele><time>2026-04-25T07:36:45.819Z</time></trkpt><trkpt lat="43.9513867" lon="11.1004983"><ele>465.5</ele><time>2026-04-25T07:36:46.826Z</time></trkpt><trkpt lat="43.9515117" lon="11.1004733"><ele>466.0</ele><time>2026-04-25T07:36:47.766Z</time></trkpt><trkpt lat="43.951635" lon="11.1004767"><ele>465.25</ele><time>2026-04-25T07:36:48.772Z</time></trkpt><trkpt lat="43.95175" lon="11.10052"><ele>464.5</ele><time>2026-04-25T07:36:49.845Z</time></trkpt><trkpt lat="43.9518717" lon="11.1006017"><ele>463.75</ele><time>2026-04-25T07:36:50.852Z</time></trkpt><trkpt lat="43.9520017" lon="11.1006933"><ele>463.0</ele><time>2026-04-25T07:36:51.859Z</time></trkpt><trkpt lat="43.9521267" lon="11.1007967"><ele>463.0</ele><time>2026-04-25T07:36:52.799Z</time></trkpt><trkpt lat="43.95225" lon="11.1009017"><ele>463.0</ele><time>2026-04-25T07:36:53.805Z</time></trkpt><trkpt lat="43.9523683" lon="11.10101"><ele>463.0</ele><time>2026-04-25T07:36:54.812Z</time></trkpt><trkpt lat="43.9524833" lon="11.10111"><ele>463.0</ele><time>2026-04-25T07:36:55.818Z</time></trkpt><trkpt lat="43.9526033" lon="11.1012017"><ele>465.25</ele><time>2026-04-25T07:36:56.825Z</time></trkpt><trkpt lat="43.9527333" lon="11.1012667"><ele>467.5</ele><time>2026-04-25T07:36:57.764Z</time></trkpt><trkpt lat="43.952875" lon="11.1013117"><ele>469.75</ele><time>2026-04-25T07:36:58.839Z</time></trkpt><trkpt lat="43.9530217" lon="11.1013417"><ele>472.0</ele><time>2026-04-25T07:36:59.844Z</time></trkpt><trkpt lat="43.9531717" lon="11.1013683"><ele>472.0</ele><time>2026-04-25T07:37:00.852Z</time></trkpt><trkpt lat="43.95332" lon="11.1013967"><ele>472.0</ele><time>2026-04-25T07:37:01.859Z</time></trkpt><trkpt lat="43.95347" lon="11.1014217"><ele>472.0</ele><time>2026-04-25T07:37:02.798Z</time></trkpt><trkpt lat="43.9536183" lon="11.10145"><ele>472.75</ele><time>2026-04-25T07:37:03.804Z</time></trkpt><trkpt lat="43.9537583" lon="11.101475"><ele>473.5</ele><time>2026-04-25T07:37:04.811Z</time></trkpt><trkpt lat="43.9538883" lon="11.1014933"><ele>474.25</ele><time>2026-04-25T07:37:05.818Z</time></trkpt><trkpt lat="43.9540117" lon="11.1015033"><ele>475.0</ele><time>2026-04-25T07:37:06.825Z</time></trkpt><trkpt lat="43.9541317" lon="11.101505"><ele>473.75</ele><time>2026-04-25T07:37:07.831Z</time></trkpt><trkpt lat="43.954245" lon="11.1014933"><ele>472.5</ele><time>2026-04-25T07:37:08.838Z</time></trkpt><trkpt lat="43.9543517" lon="11.101455"><ele>471.25</ele><time>2026-04-25T07:37:09.844Z</time></trkpt><trkpt lat="43.954455" lon="11.1013817"><ele>470.0</ele><time>2026-04-25T07:37:10.851Z</time></trkpt><trkpt lat="43.9545633" lon="11.1012883"><ele>470.0</ele><time>2026-04-25T07:37:11.858Z</time></trkpt><trkpt lat="43.954665" lon="11.1011883"><ele>470.0</ele><time>2026-04-25T07:37:12.797Z</time></trkpt><trkpt lat="43.9547583" lon="11.1010967"><ele>470.0</ele><time>2026-04-25T07:37:13.804Z</time></trkpt><trkpt lat="43.9548417" lon="11.10101"><ele>470.0</ele><time>2026-04-25T07:37:14.811Z</time></trkpt><trkpt lat="43.954915" lon="11.100925"><ele>470.0</ele><time>2026-04-25T07:37:15.817Z</time></trkpt><trkpt lat="43.954975" lon="11.1008217"><ele>471.75</ele><time>2026-04-25T07:37:16.823Z</time></trkpt><trkpt lat="43.9550117" lon="11.1006917"><ele>473.5</ele><time>2026-04-25T07:37:17.83Z</time></trkpt><trkpt lat="43.955025" lon="11.100535"><ele>475.25</ele><time>2026-04-25T07:37:18.836Z</time></trkpt><trkpt lat="43.9550083" lon="11.1003633"><ele>477.0</ele><time>2026-04-25T07:37:19.844Z</time></trkpt><trkpt lat="43.9549733" lon="11.1001933"><ele>477.0</ele><time>2026-04-25T07:37:20.85Z</time></trkpt><trkpt lat="43.9549533" lon="11.1000517"><ele>477.00000000000006</ele><time>2026-04-25T07:37:21.79Z</time></trkpt><trkpt lat="43.9549633" lon="11.0999267"><ele>477.00000000000006</ele><time>2026-04-25T07:37:22.796Z</time></trkpt><trkpt lat="43.9550017" lon="11.0997983"><ele>477.0</ele><time>2026-04-25T07:37:23.803Z</time></trkpt><trkpt lat="43.95507" lon="11.0996633"><ele>477.0</ele><time>2026-04-25T07:37:24.809Z</time></trkpt><trkpt lat="43.9551583" lon="11.099545"><ele>478.25</ele><time>2026-04-25T07:37:25.816Z</time></trkpt><trkpt lat="43.955255" lon="11.09943"><ele>479.5</ele><time>2026-04-25T07:37:26.823Z</time></trkpt><trkpt lat="43.9553517" lon="11.09936"><ele>480.75</ele><time>2026-04-25T07:37:27.83Z</time></trkpt><trkpt lat="43.9554583" lon="11.0993233"><ele>482.0</ele><time>2026-04-25T07:37:28.835Z</time></trkpt><trkpt lat="43.955575" lon="11.0993267"><ele>482.0</ele><time>2026-04-25T07:37:29.843Z</time></trkpt><trkpt lat="43.9556917" lon="11.099355"><ele>482.00000000000006</ele><time>2026-04-25T07:37:30.85Z</time></trkpt><trkpt lat="43.9558083" lon="11.0993783"><ele>482.00000000000006</ele><time>2026-04-25T07:37:31.789Z</time></trkpt><trkpt lat="43.9559183" lon="11.09939"><ele>482.0</ele><time>2026-04-25T07:37:32.795Z</time></trkpt><trkpt lat="43.9560117" lon="11.099385"><ele>482.0</ele><time>2026-04-25T07:37:33.802Z</time></trkpt><trkpt lat="43.95609" lon="11.099345"><ele>482.20000000000005</ele><time>2026-04-25T07:37:34.809Z</time></trkpt><trkpt lat="43.95615" lon="11.099275"><ele>482.40000000000003</ele><time>2026-04-25T07:37:35.816Z</time></trkpt><trkpt lat="43.9561833" lon="11.0991567"><ele>482.59999999999997</ele><time>2026-04-25T07:37:36.822Z</time></trkpt><trkpt lat="43.9561833" lon="11.0990117"><ele>482.79999999999995</ele><time>2026-04-25T07:37:37.828Z</time></trkpt><trkpt lat="43.9561567" lon="11.0988383"><ele>483.0</ele><time>2026-04-25T07:37:38.834Z</time></trkpt><trkpt lat="43.956125" lon="11.0986633"><ele>483.0</ele><time>2026-04-25T07:37:39.842Z</time></trkpt><trkpt lat="43.9561083" lon="11.0985067"><ele>482.99999999999994</ele><time>2026-04-25T07:37:40.848Z</time></trkpt><trkpt lat="43.9561117" lon="11.0983567"><ele>482.99999999999994</ele><time>2026-04-25T07:37:41.787Z</time></trkpt><trkpt lat="43.956135" lon="11.0982133"><ele>483.0</ele><time>2026-04-25T07:37:42.795Z</time></trkpt><trkpt lat="43.9561833" lon="11.0980883"><ele>483.0</ele><time>2026-04-25T07:37:43.802Z</time></trkpt><trkpt lat="43.956255" lon="11.0979867"><ele>484.79999999999995</ele><time>2026-04-25T07:37:44.808Z</time></trkpt><trkpt lat="43.95634" lon="11.0979133"><ele>486.59999999999997</ele><time>2026-04-25T07:37:45.815Z</time></trkpt><trkpt lat="43.956435" lon="11.0978717"><ele>488.40000000000003</ele><time>2026-04-25T07:37:46.821Z</time></trkpt><trkpt lat="43.956545" lon="11.0978833"><ele>490.20000000000005</ele><time>2026-04-25T07:37:47.828Z</time></trkpt><trkpt lat="43.95666" lon="11.0979367"><ele>492.0</ele><time>2026-04-25T07:37:48.835Z</time></trkpt><trkpt lat="43.9567733" lon="11.0980167"><ele>491.33333333333337</ele><time>2026-04-25T07:37:49.841Z</time></trkpt><trkpt lat="43.9568967" lon="11.09811"><ele>490.6666666666667</ele><time>2026-04-25T07:37:50.847Z</time></trkpt><trkpt lat="43.95703" lon="11.0982067"><ele>490.0</ele><time>2026-04-25T07:37:51.787Z</time></trkpt><trkpt lat="43.9571783" lon="11.098315"><ele>490.0</ele><time>2026-04-25T07:37:52.794Z</time></trkpt><trkpt lat="43.9573267" lon="11.09842"><ele>490.0</ele><time>2026-04-25T07:37:53.801Z</time></trkpt><trkpt lat="43.9574733" lon="11.0985233"><ele>490.0</ele><time>2026-04-25T07:37:54.807Z</time></trkpt><trkpt lat="43.9576183" lon="11.0986217"><ele>492.0</ele><time>2026-04-25T07:37:55.814Z</time></trkpt><trkpt lat="43.95776" lon="11.09871"><ele>494.0</ele><time>2026-04-25T07:37:56.82Z</time></trkpt><trkpt lat="43.9578967" lon="11.0987967"><ele>496.0</ele><time>2026-04-25T07:37:57.827Z</time></trkpt><trkpt lat="43.95803" lon="11.0988783"><ele>496.0</ele><time>2026-04-25T07:37:58.834Z</time></trkpt><trkpt lat="43.9581617" lon="11.098955"><ele>496.0</ele><time>2026-04-25T07:37:59.84Z</time></trkpt><trkpt lat="43.9582983" lon="11.09903"><ele>496.0</ele><time>2026-04-25T07:38:00.847Z</time></trkpt><trkpt lat="43.9584233" lon="11.0991283"><ele>496.0</ele><time>2026-04-25T07:38:01.787Z</time></trkpt><trkpt lat="43.9585383" lon="11.099255"><ele>496.5</ele><time>2026-04-25T07:38:02.793Z</time></trkpt><trkpt lat="43.9586433" lon="11.099405"><ele>497.0</ele><time>2026-04-25T07:38:03.8Z</time></trkpt><trkpt lat="43.9587433" lon="11.0995583"><ele>497.5</ele><time>2026-04-25T07:38:04.807Z</time></trkpt><trkpt lat="43.9588533" lon="11.0996967"><ele>498.0</ele><time>2026-04-25T07:38:05.813Z</time></trkpt><trkpt lat="43.95897" lon="11.0998083"><ele>498.0</ele><time>2026-04-25T07:38:06.82Z</time></trkpt><trkpt lat="43.959085" lon="11.099905"><ele>498.0</ele><time>2026-04-25T07:38:07.827Z</time></trkpt><trkpt lat="43.9591867" lon="11.0999983"><ele>498.0</ele><time>2026-04-25T07:38:08.833Z</time></trkpt><trkpt lat="43.95928" lon="11.1000933"><ele>498.0</ele><time>2026-04-25T07:38:09.84Z</time></trkpt><trkpt lat="43.959365" lon="11.1002067"><ele>498.59999999999997</ele><time>2026-04-25T07:38:10.779Z</time></trkpt><trkpt lat="43.9594333" lon="11.1003417"><ele>499.19999999999993</ele><time>2026-04-25T07:38:11.786Z</time></trkpt><trkpt lat="43.9594867" lon="11.10048"><ele>499.8</ele><time>2026-04-25T07:38:12.793Z</time></trkpt><trkpt lat="43.959545" lon="11.1006117"><ele>500.4</ele><time>2026-04-25T07:38:13.798Z</time></trkpt><trkpt lat="43.959615" lon="11.1007217"><ele>501.0</ele><time>2026-04-25T07:38:14.805Z</time></trkpt><trkpt lat="43.9597033" lon="11.1008083"><ele>498.0</ele><time>2026-04-25T07:38:15.812Z</time></trkpt><trkpt lat="43.9598133" lon="11.1008667"><ele>495.0</ele><time>2026-04-25T07:38:16.819Z</time></trkpt><trkpt lat="43.9599383" lon="11.100895"><ele>492.0</ele><time>2026-04-25T07:38:17.826Z</time></trkpt><trkpt lat="43.9600833" lon="11.1008967"><ele>489.0</ele><time>2026-04-25T07:38:18.832Z</time></trkpt><trkpt lat="43.9602367" lon="11.10088"><ele>489.0</ele><time>2026-04-25T07:38:19.839Z</time></trkpt><trkpt lat="43.9603833" lon="11.100865"><ele>489.0</ele><time>2026-04-25T07:38:20.779Z</time></trkpt><trkpt lat="43.9605267" lon="11.1008567"><ele>489.0</ele><time>2026-04-25T07:38:21.785Z</time></trkpt><trkpt lat="43.9606667" lon="11.10086"><ele>489.0</ele><time>2026-04-25T07:38:22.792Z</time></trkpt><trkpt lat="43.96081" lon="11.1008683"><ele>490.75</ele><time>2026-04-25T07:38:23.798Z</time></trkpt><trkpt lat="43.9609367" lon="11.1008867"><ele>492.5</ele><time>2026-04-25T07:38:24.805Z</time></trkpt><trkpt lat="43.9610567" lon="11.1009133"><ele>494.25</ele><time>2026-04-25T07:38:25.812Z</time></trkpt><trkpt lat="43.9611733" lon="11.1009567"><ele>496.0</ele><time>2026-04-25T07:38:26.818Z</time></trkpt><trkpt lat="43.961285" lon="11.101015"><ele>496.0</ele><time>2026-04-25T07:38:27.824Z</time></trkpt><trkpt lat="43.9613917" lon="11.1010933"><ele>496.0</ele><time>2026-04-25T07:38:28.832Z</time></trkpt><trkpt lat="43.9614917" lon="11.1012"><ele>496.0</ele><time>2026-04-25T07:38:29.838Z</time></trkpt><trkpt lat="43.9615983" lon="11.101335"><ele>496.0</ele><time>2026-04-25T07:38:30.778Z</time></trkpt><trkpt lat="43.9617083" lon="11.10147"><ele>496.0</ele><time>2026-04-25T07:38:31.784Z</time></trkpt><trkpt lat="43.96183" lon="11.1015867"><ele>496.0</ele><time>2026-04-25T07:38:32.791Z</time></trkpt><trkpt lat="43.9619517" lon="11.101675"><ele>496.0</ele><time>2026-04-25T07:38:33.798Z</time></trkpt><trkpt lat="43.962075" lon="11.10174"><ele>496.0</ele><time>2026-04-25T07:38:34.803Z</time></trkpt><trkpt lat="43.962205" lon="11.1017833"><ele>496.0</ele><time>2026-04-25T07:38:35.811Z</time></trkpt><trkpt lat="43.9623483" lon="11.101805"><ele>496.0</ele><time>2026-04-25T07:38:36.818Z</time></trkpt><trkpt lat="43.9624867" lon="11.1018183"><ele>496.0</ele><time>2026-04-25T07:38:37.823Z</time></trkpt><trkpt lat="43.9626217" lon="11.101835"><ele>496.0</ele><time>2026-04-25T07:38:38.831Z</time></trkpt><trkpt lat="43.96275" lon="11.1018533"><ele>498.20000000000005</ele><time>2026-04-25T07:38:39.837Z</time></trkpt><trkpt lat="43.9628717" lon="11.10187"><ele>500.40000000000003</ele><time>2026-04-25T07:38:40.777Z</time></trkpt><trkpt lat="43.9629783" lon="11.101885"><ele>502.6</ele><time>2026-04-25T07:38:41.783Z</time></trkpt><trkpt lat="43.9630733" lon="11.1019067"><ele>504.8</ele><time>2026-04-25T07:38:42.79Z</time></trkpt><trkpt lat="43.96316" lon="11.1019467"><ele>507.0</ele><time>2026-04-25T07:38:43.796Z</time></trkpt><trkpt lat="43.9632383" lon="11.10201"><ele>507.0</ele><time>2026-04-25T07:38:44.803Z</time></trkpt><trkpt lat="43.96332" lon="11.1020933"><ele>507.00000000000006</ele><time>2026-04-25T07:38:45.81Z</time></trkpt><trkpt lat="43.9633983" lon="11.1022017"><ele>507.00000000000006</ele><time>2026-04-25T07:38:46.817Z</time></trkpt><trkpt lat="43.9634717" lon="11.10232"><ele>507.0</ele><time>2026-04-25T07:38:47.823Z</time></trkpt><trkpt lat="43.963535" lon="11.1024433"><ele>507.0</ele><time>2026-04-25T07:38:48.83Z</time></trkpt><trkpt lat="43.9635983" lon="11.1025633"><ele>507.0</ele><time>2026-04-25T07:38:49.769Z</time></trkpt><trkpt lat="43.96367" lon="11.1026617"><ele>507.00000000000006</ele><time>2026-04-25T07:38:50.776Z</time></trkpt><trkpt lat="43.963745" lon="11.1027433"><ele>507.00000000000006</ele><time>2026-04-25T07:38:51.783Z</time></trkpt><trkpt lat="43.9638183" lon="11.102805"><ele>507.0</ele><time>2026-04-25T07:38:52.788Z</time></trkpt><trkpt lat="43.9638983" lon="11.1028317"><ele>507.0</ele><time>2026-04-25T07:38:53.796Z</time></trkpt><trkpt lat="43.9639917" lon="11.10282"><ele>507.0</ele><time>2026-04-25T07:38:54.803Z</time></trkpt><trkpt lat="43.96409" lon="11.1027833"><ele>507.00000000000006</ele><time>2026-04-25T07:38:55.809Z</time></trkpt><trkpt lat="43.9641867" lon="11.10273"><ele>507.00000000000006</ele><time>2026-04-25T07:38:56.815Z</time></trkpt><trkpt lat="43.9642817" lon="11.1026633"><ele>507.0</ele><time>2026-04-25T07:38:57.823Z</time></trkpt><trkpt lat="43.9643867" lon="11.1025883"><ele>507.0</ele><time>2026-04-25T07:38:58.829Z</time></trkpt><trkpt lat="43.9644817" lon="11.1024967"><ele>511.6</ele><time>2026-04-25T07:38:59.769Z</time></trkpt><trkpt lat="43.9645817" lon="11.1024033"><ele>516.2</ele><time>2026-04-25T07:39:00.775Z</time></trkpt><trkpt lat="43.9646833" lon="11.1023233"><ele>520.8</ele><time>2026-04-25T07:39:01.782Z</time></trkpt><trkpt lat="43.9647833" lon="11.1022717"><ele>525.4</ele><time>2026-04-25T07:39:02.789Z</time></trkpt><trkpt lat="43.9648783" lon="11.102245"><ele>530.0</ele><time>2026-04-25T07:39:03.795Z</time></trkpt><trkpt lat="43.964975" lon="11.10224"><ele>529.4</ele><time>2026-04-25T07:39:04.801Z</time></trkpt><trkpt lat="43.965065" lon="11.10227"><ele>528.8</ele><time>2026-04-25T07:39:05.809Z</time></trkpt><trkpt lat="43.9651633" lon="11.1023"><ele>528.2</ele><time>2026-04-25T07:39:06.814Z</time></trkpt><trkpt lat="43.9652417" lon="11.1023717"><ele>527.6</ele><time>2026-04-25T07:39:07.822Z</time></trkpt><trkpt lat="43.9652667" lon="11.10249"><ele>527.0</ele><time>2026-04-25T07:39:08.828Z</time></trkpt><trkpt lat="43.96526" lon="11.1026317"><ele>524.6</ele><time>2026-04-25T07:39:09.767Z</time></trkpt><trkpt lat="43.9652367" lon="11.1027617"><ele>522.2</ele><time>2026-04-25T07:39:10.775Z</time></trkpt><trkpt lat="43.96521" lon="11.1028833"><ele>519.8</ele><time>2026-04-25T07:39:11.78Z</time></trkpt><trkpt lat="43.9651783" lon="11.102985"><ele>517.4</ele><time>2026-04-25T07:39:12.855Z</time></trkpt><trkpt lat="43.96516" lon="11.1030717"><ele>515.0</ele><time>2026-04-25T07:39:13.862Z</time></trkpt><trkpt lat="43.96515" lon="11.1032383"><ele>514.4</ele><time>2026-04-25T07:39:15.808Z</time></trkpt><trkpt lat="43.96517" lon="11.1033983"><ele>513.8</ele><time>2026-04-25T07:39:17.821Z</time></trkpt><trkpt lat="43.9651983" lon="11.1034967"><ele>513.2</ele><time>2026-04-25T07:39:18.828Z</time></trkpt><trkpt lat="43.96524" lon="11.1035883"><ele>512.6</ele><time>2026-04-25T07:39:19.766Z</time></trkpt><trkpt lat="43.9653" lon="11.1036683"><ele>512.0</ele><time>2026-04-25T07:39:20.841Z</time></trkpt><trkpt lat="43.96541" lon="11.103725"><ele>512.0</ele><time>2026-04-25T07:39:21.848Z</time></trkpt><trkpt lat="43.9655367" lon="11.10376"><ele>512.0</ele><time>2026-04-25T07:39:22.853Z</time></trkpt><trkpt lat="43.965665" lon="11.1037833"><ele>512.0</ele><time>2026-04-25T07:39:23.86Z</time></trkpt><trkpt lat="43.96579" lon="11.1038083"><ele>512.0</ele><time>2026-04-25T07:39:24.799Z</time></trkpt><trkpt lat="43.965915" lon="11.1038333"><ele>514.25</ele><time>2026-04-25T07:39:25.807Z</time></trkpt><trkpt lat="43.9660417" lon="11.10386"><ele>516.5</ele><time>2026-04-25T07:39:26.814Z</time></trkpt><trkpt lat="43.966165" lon="11.103885"><ele>518.75</ele><time>2026-04-25T07:39:27.82Z</time></trkpt><trkpt lat="43.96629" lon="11.1039067"><ele>521.0</ele><time>2026-04-25T07:39:28.827Z</time></trkpt><trkpt lat="43.9664" lon="11.1039233"><ele>521.0</ele><time>2026-04-25T07:39:29.834Z</time></trkpt><trkpt lat="43.966505" lon="11.1039333"><ele>521.0</ele><time>2026-04-25T07:39:30.84Z</time></trkpt><trkpt lat="43.9666167" lon="11.1039133"><ele>521.0</ele><time>2026-04-25T07:39:31.847Z</time></trkpt><trkpt lat="43.966745" lon="11.1038683"><ele>521.0</ele><time>2026-04-25T07:39:32.853Z</time></trkpt><trkpt lat="43.9668883" lon="11.10381"><ele>521.75</ele><time>2026-04-25T07:39:33.793Z</time></trkpt><trkpt lat="43.9670283" lon="11.1037567"><ele>522.5</ele><time>2026-04-25T07:39:34.8Z</time></trkpt><trkpt lat="43.96716" lon="11.1037083"><ele>523.25</ele><time>2026-04-25T07:39:35.806Z</time></trkpt><trkpt lat="43.96728" lon="11.1036433"><ele>524.0</ele><time>2026-04-25T07:39:36.812Z</time></trkpt><trkpt lat="43.9673867" lon="11.1035583"><ele>524.0</ele><time>2026-04-25T07:39:37.82Z</time></trkpt><trkpt lat="43.967495" lon="11.103485"><ele>524.0</ele><time>2026-04-25T07:39:38.826Z</time></trkpt><trkpt lat="43.9676217" lon="11.1034417"><ele>524.0</ele><time>2026-04-25T07:39:39.833Z</time></trkpt><trkpt lat="43.9677617" lon="11.10342"><ele>524.0</ele><time>2026-04-25T07:39:40.839Z</time></trkpt><trkpt lat="43.9679033" lon="11.1034067"><ele>527.5</ele><time>2026-04-25T07:39:41.845Z</time></trkpt><trkpt lat="43.96804" lon="11.1034"><ele>531.0</ele><time>2026-04-25T07:39:42.853Z</time></trkpt><trkpt lat="43.9681733" lon="11.1034033"><ele>534.5</ele><time>2026-04-25T07:39:43.792Z</time></trkpt><trkpt lat="43.9683067" lon="11.103425"><ele>538.0</ele><time>2026-04-25T07:39:44.799Z</time></trkpt><trkpt lat="43.9684517" lon="11.1034633"><ele>541.6666666666667</ele><time>2026-04-25T07:39:45.805Z</time></trkpt><trkpt lat="43.9686033" lon="11.1035083"><ele>545.3333333333334</ele><time>2026-04-25T07:39:46.812Z</time></trkpt><trkpt lat="43.96877" lon="11.1035367"><ele>549.0</ele><time>2026-04-25T07:39:47.819Z</time></trkpt><trkpt lat="43.9689317" lon="11.1035583"><ele>549.0</ele><time>2026-04-25T07:39:48.825Z</time></trkpt><trkpt lat="43.9690917" lon="11.1035683"><ele>549.0</ele><time>2026-04-25T07:39:49.832Z</time></trkpt><trkpt lat="43.9692367" lon="11.1035767"><ele>549.0</ele><time>2026-04-25T07:39:50.839Z</time></trkpt><trkpt lat="43.969355" lon="11.1035917"><ele>549.0</ele><time>2026-04-25T07:39:51.845Z</time></trkpt><trkpt lat="43.969455" lon="11.1035983"><ele>549.4</ele><time>2026-04-25T07:39:52.852Z</time></trkpt><trkpt lat="43.9695467" lon="11.1035833"><ele>549.8</ele><time>2026-04-25T07:39:53.791Z</time></trkpt><trkpt lat="43.9696333" lon="11.10354"><ele>550.2</ele><time>2026-04-25T07:39:54.798Z</time></trkpt><trkpt lat="43.9697133" lon="11.103465"><ele>550.6</ele><time>2026-04-25T07:39:55.805Z</time></trkpt><trkpt lat="43.9697567" lon="11.1033583"><ele>551.0</ele><time>2026-04-25T07:39:56.811Z</time></trkpt><trkpt lat="43.969775" lon="11.1032467"><ele>554.2</ele><time>2026-04-25T07:39:57.818Z</time></trkpt><trkpt lat="43.9697717" lon="11.103145"><ele>557.4000000000001</ele><time>2026-04-25T07:39:58.825Z</time></trkpt><trkpt lat="43.969775" lon="11.10301"><ele>560.6</ele><time>2026-04-25T07:40:00.838Z</time></trkpt><trkpt lat="43.969835" lon="11.102975"><ele>563.8000000000001</ele><time>2026-04-25T07:40:02.851Z</time></trkpt><trkpt lat="43.96996" lon="11.1030733"><ele>567.0</ele><time>2026-04-25T07:40:04.797Z</time></trkpt><trkpt lat="43.970035" lon="11.1031617"><ele>568.5</ele><time>2026-04-25T07:40:05.804Z</time></trkpt><trkpt lat="43.970105" lon="11.103235"><ele>570.0</ele><time>2026-04-25T07:40:06.811Z</time></trkpt><trkpt lat="43.9701717" lon="11.1032733"><ele>571.5</ele><time>2026-04-25T07:40:07.816Z</time></trkpt><trkpt lat="43.970255" lon="11.1032833"><ele>573.0</ele><time>2026-04-25T07:40:08.824Z</time></trkpt><trkpt lat="43.9703483" lon="11.10327"><ele>574.5</ele><time>2026-04-25T07:40:09.83Z</time></trkpt><trkpt lat="43.9704483" lon="11.1032617"><ele>576.0</ele><time>2026-04-25T07:40:10.837Z</time></trkpt><trkpt lat="43.97057" lon="11.103265"><ele>570.5</ele><time>2026-04-25T07:40:11.843Z</time></trkpt><trkpt lat="43.9707067" lon="11.1032733"><ele>565.0</ele><time>2026-04-25T07:40:12.85Z</time></trkpt><trkpt lat="43.9708383" lon="11.1032883"><ele>559.5</ele><time>2026-04-25T07:40:13.79Z</time></trkpt><trkpt lat="43.9709633" lon="11.1032933"><ele>554.0</ele><time>2026-04-25T07:40:14.796Z</time></trkpt><trkpt lat="43.9710783" lon="11.1033017"><ele>552.25</ele><time>2026-04-25T07:40:15.803Z</time></trkpt><trkpt lat="43.97119" lon="11.1033267"><ele>550.5</ele><time>2026-04-25T07:40:16.809Z</time></trkpt><trkpt lat="43.9713133" lon="11.1033867"><ele>548.75</ele><time>2026-04-25T07:40:17.816Z</time></trkpt><trkpt lat="43.971435" lon="11.1034317"><ele>547.0</ele><time>2026-04-25T07:40:18.823Z</time></trkpt><trkpt lat="43.971575" lon="11.103475"><ele>548.0</ele><time>2026-04-25T07:40:19.83Z</time></trkpt><trkpt lat="43.971725" lon="11.103505"><ele>549.0</ele><time>2026-04-25T07:40:20.835Z</time></trkpt><trkpt lat="43.9718617" lon="11.10355"><ele>550.0</ele><time>2026-04-25T07:40:21.842Z</time></trkpt><trkpt lat="43.9719817" lon="11.1036083"><ele>551.0</ele><time>2026-04-25T07:40:22.782Z</time></trkpt><trkpt lat="43.9720817" lon="11.103665"><ele>551.0</ele><time>2026-04-25T07:40:23.789Z</time></trkpt><trkpt lat="43.9722" lon="11.1037067"><ele>551.0</ele><time>2026-04-25T07:40:24.796Z</time></trkpt><trkpt lat="43.97233" lon="11.103735"><ele>551.0</ele><time>2026-04-25T07:40:25.802Z</time></trkpt><trkpt lat="43.97246" lon="11.10376"><ele>551.0</ele><time>2026-04-25T07:40:26.808Z</time></trkpt><trkpt lat="43.9725833" lon="11.10378"><ele>552.5</ele><time>2026-04-25T07:40:27.816Z</time></trkpt><trkpt lat="43.9727067" lon="11.103795"><ele>554.0</ele><time>2026-04-25T07:40:28.822Z</time></trkpt><trkpt lat="43.972825" lon="11.1038017"><ele>555.5</ele><time>2026-04-25T07:40:29.829Z</time></trkpt><trkpt lat="43.9729317" lon="11.1037767"><ele>557.0</ele><time>2026-04-25T07:40:30.835Z</time></trkpt><trkpt lat="43.9730283" lon="11.103735"><ele>557.0</ele><time>2026-04-25T07:40:31.842Z</time></trkpt><trkpt lat="43.9731167" lon="11.1037117"><ele>557.0</ele><time>2026-04-25T07:40:32.782Z</time></trkpt><trkpt lat="43.9732017" lon="11.1037217"><ele>557.0</ele><time>2026-04-25T07:40:33.788Z</time></trkpt><trkpt lat="43.9733" lon="11.1037567"><ele>557.0</ele><time>2026-04-25T07:40:34.794Z</time></trkpt><trkpt lat="43.9734017" lon="11.1038517"><ele>557.0</ele><time>2026-04-25T07:40:35.802Z</time></trkpt><trkpt lat="43.9735167" lon="11.1039733"><ele>555.0</ele><time>2026-04-25T07:40:36.808Z</time></trkpt><trkpt lat="43.973635" lon="11.1041067"><ele>553.0</ele><time>2026-04-25T07:40:37.814Z</time></trkpt><trkpt lat="43.9737567" lon="11.1042533"><ele>551.0</ele><time>2026-04-25T07:40:38.821Z</time></trkpt><trkpt lat="43.97388" lon="11.1044167"><ele>551.0</ele><time>2026-04-25T07:40:39.828Z</time></trkpt><trkpt lat="43.9739983" lon="11.1045633"><ele>551.0</ele><time>2026-04-25T07:40:40.835Z</time></trkpt><trkpt lat="43.9741033" lon="11.1046983"><ele>551.0</ele><time>2026-04-25T07:40:41.841Z</time></trkpt><trkpt lat="43.9742083" lon="11.1048067"><ele>551.0</ele><time>2026-04-25T07:40:42.781Z</time></trkpt><trkpt lat="43.974315" lon="11.1049"><ele>552.2</ele><time>2026-04-25T07:40:43.788Z</time></trkpt><trkpt lat="43.97442" lon="11.1049633"><ele>553.4000000000001</ele><time>2026-04-25T07:40:44.794Z</time></trkpt><trkpt lat="43.97453" lon="11.1049833"><ele>554.6</ele><time>2026-04-25T07:40:45.801Z</time></trkpt><trkpt lat="43.9746367" lon="11.1049633"><ele>555.8000000000001</ele><time>2026-04-25T07:40:46.807Z</time></trkpt><trkpt lat="43.9747433" lon="11.104915"><ele>557.0</ele><time>2026-04-25T07:40:47.814Z</time></trkpt><trkpt lat="43.974855" lon="11.1048467"><ele>557.0</ele><time>2026-04-25T07:40:48.821Z</time></trkpt><trkpt lat="43.9749767" lon="11.10477"><ele>557.0</ele><time>2026-04-25T07:40:49.827Z</time></trkpt><trkpt lat="43.9750933" lon="11.10469"><ele>557.0</ele><time>2026-04-25T07:40:50.833Z</time></trkpt><trkpt lat="43.9752033" lon="11.1046067"><ele>557.0</ele><time>2026-04-25T07:40:51.841Z</time></trkpt><trkpt lat="43.9753033" lon="11.1045233"><ele>553.8000000000001</ele><time>2026-04-25T07:40:52.779Z</time></trkpt><trkpt lat="43.9753883" lon="11.1044467"><ele>550.6</ele><time>2026-04-25T07:40:53.787Z</time></trkpt><trkpt lat="43.975475" lon="11.1043667"><ele>547.4000000000001</ele><time>2026-04-25T07:40:54.793Z</time></trkpt><trkpt lat="43.9755533" lon="11.1042967"><ele>544.2</ele><time>2026-04-25T07:40:55.799Z</time></trkpt><trkpt lat="43.9756233" lon="11.10422"><ele>541.0</ele><time>2026-04-25T07:40:56.806Z</time></trkpt><trkpt lat="43.9756833" lon="11.1041517"><ele>543.1666666666667</ele><time>2026-04-25T07:40:57.813Z</time></trkpt><trkpt lat="43.9757383" lon="11.1040733"><ele>545.3333333333334</ele><time>2026-04-25T07:40:58.819Z</time></trkpt><trkpt lat="43.9757917" lon="11.1039967"><ele>547.5</ele><time>2026-04-25T07:40:59.826Z</time></trkpt><trkpt lat="43.9758567" lon="11.103935"><ele>549.6666666666666</ele><time>2026-04-25T07:41:00.833Z</time></trkpt><trkpt lat="43.9759333" lon="11.10389"><ele>551.8333333333333</ele><time>2026-04-25T07:41:01.773Z</time></trkpt><trkpt lat="43.9760233" lon="11.1038883"><ele>554.0</ele><time>2026-04-25T07:41:02.779Z</time></trkpt><trkpt lat="43.976115" lon="11.1039233"><ele>554.0</ele><time>2026-04-25T07:41:03.786Z</time></trkpt><trkpt lat="43.976195" lon="11.10397"><ele>554.0</ele><time>2026-04-25T07:41:04.793Z</time></trkpt><trkpt lat="43.97628" lon="11.103995"><ele>554.0</ele><time>2026-04-25T07:41:05.798Z</time></trkpt><trkpt lat="43.9763683" lon="11.1039933"><ele>554.0</ele><time>2026-04-25T07:41:06.805Z</time></trkpt><trkpt lat="43.9764633" lon="11.1039517"><ele>554.0</ele><time>2026-04-25T07:41:07.813Z</time></trkpt><trkpt lat="43.9765567" lon="11.1038483"><ele>554.0</ele><time>2026-04-25T07:41:08.818Z</time></trkpt><trkpt lat="43.9766483" lon="11.10373"><ele>554.0</ele><time>2026-04-25T07:41:09.826Z</time></trkpt><trkpt lat="43.9767483" lon="11.1035883"><ele>554.0</ele><time>2026-04-25T07:41:10.832Z</time></trkpt><trkpt lat="43.97685" lon="11.103435"><ele>554.0</ele><time>2026-04-25T07:41:11.772Z</time></trkpt><trkpt lat="43.9769483" lon="11.1032883"><ele>550.6666666666666</ele><time>2026-04-25T07:41:12.779Z</time></trkpt><trkpt lat="43.9770467" lon="11.103115"><ele>547.3333333333334</ele><time>2026-04-25T07:41:13.785Z</time></trkpt><trkpt lat="43.97715" lon="11.1029617"><ele>544.0</ele><time>2026-04-25T07:41:14.792Z</time></trkpt><trkpt lat="43.9772567" lon="11.1028317"><ele>544.0</ele><time>2026-04-25T07:41:15.798Z</time></trkpt><trkpt lat="43.9773583" lon="11.1027"><ele>544.0</ele><time>2026-04-25T07:41:16.804Z</time></trkpt><trkpt lat="43.97745" lon="11.1025667"><ele>544.0</ele><time>2026-04-25T07:41:17.812Z</time></trkpt><trkpt lat="43.9775267" lon="11.102435"><ele>544.0</ele><time>2026-04-25T07:41:18.818Z</time></trkpt><trkpt lat="43.9775967" lon="11.10232"><ele>545.2</ele><time>2026-04-25T07:41:19.825Z</time></trkpt><trkpt lat="43.9776733" lon="11.1022133"><ele>546.4</ele><time>2026-04-25T07:41:20.832Z</time></trkpt><trkpt lat="43.9777667" lon="11.1021383"><ele>547.6</ele><time>2026-04-25T07:41:21.771Z</time></trkpt><trkpt lat="43.977875" lon="11.1021"><ele>548.8</ele><time>2026-04-25T07:41:22.778Z</time></trkpt><trkpt lat="43.977995" lon="11.10208"><ele>550.0</ele><time>2026-04-25T07:41:23.784Z</time></trkpt><trkpt lat="43.97812" lon="11.1020867"><ele>550.0</ele><time>2026-04-25T07:41:24.791Z</time></trkpt><trkpt lat="43.9782433" lon="11.1020883"><ele>550.0</ele><time>2026-04-25T07:41:25.798Z</time></trkpt><trkpt lat="43.9783567" lon="11.102065"><ele>550.0</ele><time>2026-04-25T07:41:26.804Z</time></trkpt><trkpt lat="43.9784617" lon="11.102005"><ele>550.0</ele><time>2026-04-25T07:41:27.811Z</time></trkpt><trkpt lat="43.978575" lon="11.1019217"><ele>548.25</ele><time>2026-04-25T07:41:28.818Z</time></trkpt><trkpt lat="43.978695" lon="11.1018233"><ele>546.5</ele><time>2026-04-25T07:41:29.824Z</time></trkpt><trkpt lat="43.9788183" lon="11.101725"><ele>544.75</ele><time>2026-04-25T07:41:30.831Z</time></trkpt><trkpt lat="43.9789333" lon="11.1016333"><ele>543.0</ele><time>2026-04-25T07:41:31.77Z</time></trkpt><trkpt lat="43.9790417" lon="11.1015433"><ele>539.75</ele><time>2026-04-25T07:41:32.776Z</time></trkpt><trkpt lat="43.9791367" lon="11.10146"><ele>536.5</ele><time>2026-04-25T07:41:33.784Z</time></trkpt><trkpt lat="43.9792167" lon="11.1013833"><ele>533.25</ele><time>2026-04-25T07:41:34.79Z</time></trkpt><trkpt lat="43.9793033" lon="11.1012717"><ele>530.0</ele><time>2026-04-25T07:41:35.864Z</time></trkpt><trkpt lat="43.97939" lon="11.1011517"><ele>530.0</ele><time>2026-04-25T07:41:36.803Z</time></trkpt><trkpt lat="43.97948" lon="11.1010183"><ele>530.0</ele><time>2026-04-25T07:41:37.81Z</time></trkpt><trkpt lat="43.9795633" lon="11.1008883"><ele>530.0</ele><time>2026-04-25T07:41:38.817Z</time></trkpt><trkpt lat="43.9796383" lon="11.1007733"><ele>530.0</ele><time>2026-04-25T07:41:39.823Z</time></trkpt><trkpt lat="43.9797017" lon="11.1006433"><ele>532.0</ele><time>2026-04-25T07:41:40.83Z</time></trkpt><trkpt lat="43.9797533" lon="11.10048"><ele>534.0</ele><time>2026-04-25T07:41:41.769Z</time></trkpt><trkpt lat="43.9798" lon="11.10029"><ele>536.0</ele><time>2026-04-25T07:41:42.776Z</time></trkpt><trkpt lat="43.979845" lon="11.10009"><ele>538.0</ele><time>2026-04-25T07:41:43.85Z</time></trkpt><trkpt lat="43.9798917" lon="11.09988"><ele>539.75</ele><time>2026-04-25T07:41:44.856Z</time></trkpt><trkpt lat="43.979935" lon="11.09968"><ele>541.5</ele><time>2026-04-25T07:41:45.795Z</time></trkpt><trkpt lat="43.9799883" lon="11.099495"><ele>543.25</ele><time>2026-04-25T07:41:46.803Z</time></trkpt><trkpt lat="43.9800517" lon="11.0993067"><ele>545.0</ele><time>2026-04-25T07:41:47.809Z</time></trkpt><trkpt lat="43.9801283" lon="11.0991267"><ele>535.5</ele><time>2026-04-25T07:41:48.816Z</time></trkpt><trkpt lat="43.9802067" lon="11.0989667"><ele>526.0</ele><time>2026-04-25T07:41:49.823Z</time></trkpt><trkpt lat="43.980275" lon="11.0988367"><ele>516.5</ele><time>2026-04-25T07:41:50.762Z</time></trkpt><trkpt lat="43.98033" lon="11.0987033"><ele>507.0</ele><time>2026-04-25T07:41:51.836Z</time></trkpt><trkpt lat="43.9803667" lon="11.0985433"><ele>507.0</ele><time>2026-04-25T07:41:52.843Z</time></trkpt><trkpt lat="43.9803833" lon="11.0983717"><ele>507.0</ele><time>2026-04-25T07:41:53.848Z</time></trkpt><trkpt lat="43.9803917" lon="11.098195"><ele>507.0</ele><time>2026-04-25T07:41:54.856Z</time></trkpt><trkpt lat="43.9804117" lon="11.098025"><ele>507.0</ele><time>2026-04-25T07:41:55.795Z</time></trkpt><trkpt lat="43.9804383" lon="11.097875"><ele>507.40000000000003</ele><time>2026-04-25T07:41:56.802Z</time></trkpt><trkpt lat="43.980465" lon="11.097745"><ele>507.80000000000007</ele><time>2026-04-25T07:41:57.809Z</time></trkpt><trkpt lat="43.98048" lon="11.0976233"><ele>508.2</ele><time>2026-04-25T07:41:58.815Z</time></trkpt><trkpt lat="43.9804717" lon="11.0975"><ele>508.6</ele><time>2026-04-25T07:41:59.822Z</time></trkpt><trkpt lat="43.9804317" lon="11.0973883"><ele>509.0</ele><time>2026-04-25T07:42:00.829Z</time></trkpt><trkpt lat="43.9803583" lon="11.097285"><ele>508.0</ele><time>2026-04-25T07:42:01.835Z</time></trkpt><trkpt lat="43.980265" lon="11.0971917"><ele>507.0</ele><time>2026-04-25T07:42:02.842Z</time></trkpt><trkpt lat="43.98016" lon="11.0971017"><ele>506.0</ele><time>2026-04-25T07:42:03.847Z</time></trkpt><trkpt lat="43.980055" lon="11.097005"><ele>505.0</ele><time>2026-04-25T07:42:04.854Z</time></trkpt><trkpt lat="43.97996" lon="11.0969033"><ele>508.0</ele><time>2026-04-25T07:42:05.794Z</time></trkpt><trkpt lat="43.9798817" lon="11.09679"><ele>511.0</ele><time>2026-04-25T07:42:06.801Z</time></trkpt><trkpt lat="43.9798167" lon="11.0966567"><ele>514.0</ele><time>2026-04-25T07:42:07.808Z</time></trkpt><trkpt lat="43.9797633" lon="11.0965083"><ele>517.0</ele><time>2026-04-25T07:42:08.814Z</time></trkpt><trkpt lat="43.979715" lon="11.0963583"><ele>517.0</ele><time>2026-04-25T07:42:09.821Z</time></trkpt><trkpt lat="43.97967" lon="11.096215"><ele>517.0</ele><time>2026-04-25T07:42:10.828Z</time></trkpt><trkpt lat="43.979625" lon="11.0960817"><ele>517.0</ele><time>2026-04-25T07:42:11.834Z</time></trkpt><trkpt lat="43.9795883" lon="11.095955"><ele>517.0</ele><time>2026-04-25T07:42:12.841Z</time></trkpt><trkpt lat="43.979565" lon="11.0958217"><ele>517.0</ele><time>2026-04-25T07:42:13.847Z</time></trkpt><trkpt lat="43.97956" lon="11.0956733"><ele>519.5</ele><time>2026-04-25T07:42:14.853Z</time></trkpt><trkpt lat="43.9795867" lon="11.0955217"><ele>522.0</ele><time>2026-04-25T07:42:15.794Z</time></trkpt><trkpt lat="43.979635" lon="11.09537"><ele>524.5</ele><time>2026-04-25T07:42:16.8Z</time></trkpt><trkpt lat="43.9797" lon="11.0952133"><ele>527.0</ele><time>2026-04-25T07:42:17.807Z</time></trkpt><trkpt lat="43.9797817" lon="11.0950583"><ele>527.75</ele><time>2026-04-25T07:42:18.814Z</time></trkpt><trkpt lat="43.9798767" lon="11.0949133"><ele>528.5</ele><time>2026-04-25T07:42:19.819Z</time></trkpt><trkpt lat="43.9799733" lon="11.094785"><ele>529.25</ele><time>2026-04-25T07:42:20.827Z</time></trkpt><trkpt lat="43.9800617" lon="11.09467"><ele>530.0</ele><time>2026-04-25T07:42:21.833Z</time></trkpt><trkpt lat="43.9801433" lon="11.094555"><ele>530.0</ele><time>2026-04-25T07:42:22.84Z</time></trkpt><trkpt lat="43.9802217" lon="11.0944417"><ele>530.0</ele><time>2026-04-25T07:42:23.847Z</time></trkpt><trkpt lat="43.98031" lon="11.0943383"><ele>530.0</ele><time>2026-04-25T07:42:24.853Z</time></trkpt><trkpt lat="43.98042" lon="11.094245"><ele>530.0</ele><time>2026-04-25T07:42:25.792Z</time></trkpt><trkpt lat="43.980545" lon="11.0941633"><ele>530.0</ele><time>2026-04-25T07:42:26.799Z</time></trkpt><trkpt lat="43.9806583" lon="11.094095"><ele>530.0</ele><time>2026-04-25T07:42:27.806Z</time></trkpt><trkpt lat="43.9807567" lon="11.094025"><ele>530.0</ele><time>2026-04-25T07:42:28.813Z</time></trkpt><trkpt lat="43.9808567" lon="11.0939517"><ele>530.0</ele><time>2026-04-25T07:42:29.82Z</time></trkpt><trkpt lat="43.9809583" lon="11.093895"><ele>534.2</ele><time>2026-04-25T07:42:30.826Z</time></trkpt><trkpt lat="43.9810583" lon="11.0938517"><ele>538.4</ele><time>2026-04-25T07:42:31.832Z</time></trkpt><trkpt lat="43.9811617" lon="11.09382"><ele>542.6</ele><time>2026-04-25T07:42:32.839Z</time></trkpt><trkpt lat="43.9812533" lon="11.0938183"><ele>546.8</ele><time>2026-04-25T07:42:33.846Z</time></trkpt><trkpt lat="43.9813383" lon="11.0938383"><ele>551.0</ele><time>2026-04-25T07:42:34.786Z</time></trkpt><trkpt lat="43.9814067" lon="11.093885"><ele>551.0</ele><time>2026-04-25T07:42:35.792Z</time></trkpt><trkpt lat="43.98145" lon="11.0939867"><ele>551.0</ele><time>2026-04-25T07:42:36.799Z</time></trkpt><trkpt lat="43.9814833" lon="11.0941167"><ele>551.0</ele><time>2026-04-25T07:42:37.805Z</time></trkpt><trkpt lat="43.9815283" lon="11.09425"><ele>551.0</ele><time>2026-04-25T07:42:38.812Z</time></trkpt><trkpt lat="43.981585" lon="11.0943617"><ele>551.0</ele><time>2026-04-25T07:42:39.819Z</time></trkpt><trkpt lat="43.981645" lon="11.0944483"><ele>550.2</ele><time>2026-04-25T07:42:40.824Z</time></trkpt><trkpt lat="43.9817083" lon="11.0945017"><ele>549.4000000000001</ele><time>2026-04-25T07:42:41.832Z</time></trkpt><trkpt lat="43.9817933" lon="11.094525"><ele>548.6</ele><time>2026-04-25T07:42:42.839Z</time></trkpt><trkpt lat="43.9819083" lon="11.094515"><ele>547.8000000000001</ele><time>2026-04-25T07:42:43.845Z</time></trkpt><trkpt lat="43.9820517" lon="11.094485"><ele>547.0</ele><time>2026-04-25T07:42:44.785Z</time></trkpt><trkpt lat="43.9821983" lon="11.09448"><ele>547.0</ele><time>2026-04-25T07:42:45.79Z</time></trkpt><trkpt lat="43.9823567" lon="11.0944817"><ele>547.0</ele><time>2026-04-25T07:42:46.797Z</time></trkpt><trkpt lat="43.9825117" lon="11.0944717"><ele>547.0</ele><time>2026-04-25T07:42:47.805Z</time></trkpt><trkpt lat="43.9826533" lon="11.0944583"><ele>548.25</ele><time>2026-04-25T07:42:48.81Z</time></trkpt><trkpt lat="43.9827883" lon="11.0944433"><ele>549.5</ele><time>2026-04-25T07:42:49.818Z</time></trkpt><trkpt lat="43.98292" lon="11.094425"><ele>550.75</ele><time>2026-04-25T07:42:50.825Z</time></trkpt><trkpt lat="43.9830417" lon="11.094425"><ele>552.0</ele><time>2026-04-25T07:42:51.831Z</time></trkpt><trkpt lat="43.9831567" lon="11.0944667"><ele>552.0</ele><time>2026-04-25T07:42:52.838Z</time></trkpt><trkpt lat="43.983265" lon="11.0945383"><ele>552.0</ele><time>2026-04-25T07:42:53.845Z</time></trkpt><trkpt lat="43.9833633" lon="11.0946033"><ele>552.0</ele><time>2026-04-25T07:42:54.783Z</time></trkpt><trkpt lat="43.983465" lon="11.0946383"><ele>552.0</ele><time>2026-04-25T07:42:55.791Z</time></trkpt><trkpt lat="43.983575" lon="11.0946367"><ele>552.0</ele><time>2026-04-25T07:42:56.796Z</time></trkpt><trkpt lat="43.98369" lon="11.0946017"><ele>552.25</ele><time>2026-04-25T07:42:57.804Z</time></trkpt><trkpt lat="43.9838067" lon="11.09455"><ele>552.5</ele><time>2026-04-25T07:42:58.811Z</time></trkpt><trkpt lat="43.983925" lon="11.0944867"><ele>552.75</ele><time>2026-04-25T07:42:59.817Z</time></trkpt><trkpt lat="43.98404" lon="11.09442"><ele>553.0</ele><time>2026-04-25T07:43:00.823Z</time></trkpt><trkpt lat="43.9841483" lon="11.09434"><ele>554.0</ele><time>2026-04-25T07:43:01.83Z</time></trkpt><trkpt lat="43.9842667" lon="11.0942533"><ele>555.0</ele><time>2026-04-25T07:43:02.836Z</time></trkpt><trkpt lat="43.9843683" lon="11.0941567"><ele>556.0</ele><time>2026-04-25T07:43:03.844Z</time></trkpt><trkpt lat="43.98446" lon="11.0940417"><ele>557.0</ele><time>2026-04-25T07:43:04.783Z</time></trkpt><trkpt lat="43.98453" lon="11.09393"><ele>558.5</ele><time>2026-04-25T07:43:05.79Z</time></trkpt><trkpt lat="43.9845917" lon="11.0938233"><ele>560.0</ele><time>2026-04-25T07:43:06.797Z</time></trkpt><trkpt lat="43.9846417" lon="11.0937233"><ele>561.5</ele><time>2026-04-25T07:43:07.803Z</time></trkpt><trkpt lat="43.9846917" lon="11.0936367"><ele>563.0</ele><time>2026-04-25T07:43:08.809Z</time></trkpt><trkpt lat="43.9847367" lon="11.0935717"><ele>564.5</ele><time>2026-04-25T07:43:09.815Z</time></trkpt><trkpt lat="43.9848183" lon="11.093505"><ele>566.0</ele><time>2026-04-25T07:43:11.83Z</time></trkpt><trkpt lat="43.984855" lon="11.0933867"><ele>566.0</ele><time>2026-04-25T07:43:28.808Z</time></trkpt><trkpt lat="43.98477" lon="11.093345"><ele>566.0</ele><time>2026-04-25T07:43:30.821Z</time></trkpt><trkpt lat="43.9846983" lon="11.09336"><ele>566.0</ele><time>2026-04-25T07:43:31.828Z</time></trkpt><trkpt lat="43.9846283" lon="11.0933933"><ele>566.0</ele><time>2026-04-25T07:43:32.835Z</time></trkpt><trkpt lat="43.9845533" lon="11.0934533"><ele>566.0</ele><time>2026-04-25T07:43:33.774Z</time></trkpt><trkpt lat="43.9844583" lon="11.0935017"><ele>566.0</ele><time>2026-04-25T07:43:34.781Z</time></trkpt><trkpt lat="43.984355" lon="11.09353"><ele>566.0</ele><time>2026-04-25T07:43:35.788Z</time></trkpt><trkpt lat="43.9842533" lon="11.0935267"><ele>566.0</ele><time>2026-04-25T07:43:36.794Z</time></trkpt><trkpt lat="43.9841367" lon="11.0935033"><ele>566.0</ele><time>2026-04-25T07:43:37.801Z</time></trkpt><trkpt lat="43.98402" lon="11.0934467"><ele>566.0</ele><time>2026-04-25T07:43:38.807Z</time></trkpt><trkpt lat="43.9839033" lon="11.0933817"><ele>567.0</ele><time>2026-04-25T07:43:39.814Z</time></trkpt><trkpt lat="43.9838017" lon="11.09332"><ele>568.0</ele><time>2026-04-25T07:43:40.821Z</time></trkpt><trkpt lat="43.9837067" lon="11.0932667"><ele>569.0</ele><time>2026-04-25T07:43:41.826Z</time></trkpt><trkpt lat="43.9836117" lon="11.0932183"><ele>570.0</ele><time>2026-04-25T07:43:42.834Z</time></trkpt><trkpt lat="43.983525" lon="11.093175"><ele>571.0</ele><time>2026-04-25T07:43:43.774Z</time></trkpt><trkpt lat="43.983435" lon="11.09317"><ele>574.6</ele><time>2026-04-25T07:43:44.78Z</time></trkpt><trkpt lat="43.9833483" lon="11.09317"><ele>578.2</ele><time>2026-04-25T07:43:45.786Z</time></trkpt><trkpt lat="43.9832683" lon="11.09315"><ele>581.8</ele><time>2026-04-25T07:43:46.792Z</time></trkpt><trkpt lat="43.983205" lon="11.0930833"><ele>585.4</ele><time>2026-04-25T07:43:47.799Z</time></trkpt><trkpt lat="43.983145" lon="11.0929817"><ele>589.0</ele><time>2026-04-25T07:43:48.807Z</time></trkpt><trkpt lat="43.98308" lon="11.0928617"><ele>589.8</ele><time>2026-04-25T07:43:49.813Z</time></trkpt><trkpt lat="43.9830183" lon="11.0927467"><ele>590.5999999999999</ele><time>2026-04-25T07:43:50.82Z</time></trkpt><trkpt lat="43.9829667" lon="11.0926283"><ele>591.4</ele><time>2026-04-25T07:43:51.826Z</time></trkpt><trkpt lat="43.982935" lon="11.092485"><ele>592.1999999999999</ele><time>2026-04-25T07:43:52.832Z</time></trkpt><trkpt lat="43.9829217" lon="11.09234"><ele>593.0</ele><time>2026-04-25T07:43:53.773Z</time></trkpt><trkpt lat="43.98292" lon="11.0921867"><ele>596.1999999999999</ele><time>2026-04-25T07:43:54.779Z</time></trkpt><trkpt lat="43.9829167" lon="11.092035"><ele>599.4</ele><time>2026-04-25T07:43:55.785Z</time></trkpt><trkpt lat="43.9829083" lon="11.0918817"><ele>602.5999999999999</ele><time>2026-04-25T07:43:56.793Z</time></trkpt><trkpt lat="43.9828883" lon="11.09173"><ele>605.8</ele><time>2026-04-25T07:43:57.866Z</time></trkpt><trkpt lat="43.9828583" lon="11.0915883"><ele>609.0</ele><time>2026-04-25T07:43:58.805Z</time></trkpt><trkpt lat="43.9828283" lon="11.0914617"><ele>611.5</ele><time>2026-04-25T07:43:59.813Z</time></trkpt><trkpt lat="43.9827967" lon="11.0913617"><ele>614.0</ele><time>2026-04-25T07:44:00.819Z</time></trkpt><trkpt lat="43.982755" lon="11.0912533"><ele>616.5</ele><time>2026-04-25T07:44:01.825Z</time></trkpt><trkpt lat="43.982715" lon="11.091155"><ele>619.0</ele><time>2026-04-25T07:44:02.765Z</time></trkpt><trkpt lat="43.9826767" lon="11.0910633"><ele>621.5</ele><time>2026-04-25T07:44:03.772Z</time></trkpt><trkpt lat="43.98263" lon="11.0909817"><ele>624.0</ele><time>2026-04-25T07:44:04.779Z</time></trkpt><trkpt lat="43.9825733" lon="11.0909033"><ele>624.1666666666666</ele><time>2026-04-25T07:44:05.785Z</time></trkpt><trkpt lat="43.9825" lon="11.090835"><ele>624.3333333333334</ele><time>2026-04-25T07:44:06.859Z</time></trkpt><trkpt lat="43.98242" lon="11.0907617"><ele>624.5</ele><time>2026-04-25T07:44:07.798Z</time></trkpt><trkpt lat="43.9823517" lon="11.0906933"><ele>624.6666666666667</ele><time>2026-04-25T07:44:08.804Z</time></trkpt><trkpt lat="43.9822933" lon="11.0906233"><ele>624.8333333333334</ele><time>2026-04-25T07:44:09.811Z</time></trkpt><trkpt lat="43.9822533" lon="11.09055"><ele>625.0</ele><time>2026-04-25T07:44:10.818Z</time></trkpt><trkpt lat="43.9822233" lon="11.0904"><ele>625.0</ele><time>2026-04-25T07:44:12.765Z</time></trkpt><trkpt lat="43.9822233" lon="11.0902567"><ele>625.0</ele><time>2026-04-25T07:44:14.844Z</time></trkpt><trkpt lat="43.982185" lon="11.0901567"><ele>625.0</ele><time>2026-04-25T07:44:17.798Z</time></trkpt><trkpt lat="43.9820933" lon="11.09018"><ele>625.0</ele><time>2026-04-25T07:44:19.811Z</time></trkpt><trkpt lat="43.9820333" lon="11.0902083"><ele>625.0</ele><time>2026-04-25T07:44:20.818Z</time></trkpt><trkpt lat="43.9819167" lon="11.0902417"><ele>625.0</ele><time>2026-04-25T07:44:22.831Z</time></trkpt><trkpt lat="43.9817917" lon="11.0902233"><ele>625.0</ele><time>2026-04-25T07:44:24.843Z</time></trkpt><trkpt lat="43.9817267" lon="11.0902017"><ele>625.0</ele><time>2026-04-25T07:44:25.851Z</time></trkpt><trkpt lat="43.9816667" lon="11.090175"><ele>625.0</ele><time>2026-04-25T07:44:26.856Z</time></trkpt><trkpt lat="43.98159" lon="11.0900883"><ele>625.0</ele><time>2026-04-25T07:44:28.804Z</time></trkpt><trkpt lat="43.9815583" lon="11.0899833"><ele>625.0</ele><time>2026-04-25T07:44:30.817Z</time></trkpt><trkpt lat="43.9816283" lon="11.0899433"><ele>625.0</ele><time>2026-04-25T07:44:32.829Z</time></trkpt><trkpt lat="43.9817367" lon="11.089975"><ele>625.0</ele><time>2026-04-25T07:44:34.843Z</time></trkpt><trkpt lat="43.9818483" lon="11.089945"><ele>625.0</ele><time>2026-04-25T07:44:36.857Z</time></trkpt><trkpt lat="43.9819017" lon="11.0898917"><ele>625.0</ele><time>2026-04-25T07:44:37.796Z</time></trkpt><trkpt lat="43.9819467" lon="11.0898233"><ele>625.0</ele><time>2026-04-25T07:44:38.803Z</time></trkpt><trkpt lat="43.9819917" lon="11.0897433"><ele>625.0</ele><time>2026-04-25T07:44:39.809Z</time></trkpt><trkpt lat="43.9820383" lon="11.0896617"><ele>627.5</ele><time>2026-04-25T07:44:40.816Z</time></trkpt><trkpt lat="43.98209" lon="11.0895783"><ele>630.0</ele><time>2026-04-25T07:44:41.823Z</time></trkpt><trkpt lat="43.9821417" lon="11.089505"><ele>632.5</ele><time>2026-04-25T07:44:42.829Z</time></trkpt><trkpt lat="43.9821983" lon="11.08943"><ele>635.0</ele><time>2026-04-25T07:44:43.836Z</time></trkpt><trkpt lat="43.982255" lon="11.0893583"><ele>637.5</ele><time>2026-04-25T07:44:44.843Z</time></trkpt><trkpt lat="43.9823067" lon="11.0892867"><ele>640.0</ele><time>2026-04-25T07:44:45.849Z</time></trkpt><trkpt lat="43.9823617" lon="11.0892117"><ele>640.0</ele><time>2026-04-25T07:44:46.788Z</time></trkpt><trkpt lat="43.98242" lon="11.0891433"><ele>640.0</ele><time>2026-04-25T07:44:47.794Z</time></trkpt><trkpt lat="43.982485" lon="11.0890817"><ele>640.0</ele><time>2026-04-25T07:44:48.802Z</time></trkpt><trkpt lat="43.9825533" lon="11.08902"><ele>640.0</ele><time>2026-04-25T07:44:49.809Z</time></trkpt><trkpt lat="43.9826167" lon="11.0889633"><ele>640.0</ele><time>2026-04-25T07:44:50.815Z</time></trkpt><trkpt lat="43.9826767" lon="11.0889133"><ele>640.0</ele><time>2026-04-25T07:44:51.822Z</time></trkpt><trkpt lat="43.9827383" lon="11.0888683"><ele>643.0</ele><time>2026-04-25T07:44:52.829Z</time></trkpt><trkpt lat="43.9828" lon="11.0888283"><ele>646.0</ele><time>2026-04-25T07:44:53.835Z</time></trkpt><trkpt lat="43.9829067" lon="11.088785"><ele>649.0</ele><time>2026-04-25T07:44:55.847Z</time></trkpt><trkpt lat="43.98302" lon="11.0888067"><ele>652.0</ele><time>2026-04-25T07:44:57.795Z</time></trkpt><trkpt lat="43.9830783" lon="11.08884"><ele>655.0</ele><time>2026-04-25T07:44:58.801Z</time></trkpt><trkpt lat="43.9831983" lon="11.0889167"><ele>655.0</ele><time>2026-04-25T07:45:00.814Z</time></trkpt><trkpt lat="43.98327" lon="11.088955"><ele>655.0</ele><time>2026-04-25T07:45:01.821Z</time></trkpt><trkpt lat="43.9833417" lon="11.088995"><ele>655.0</ele><time>2026-04-25T07:45:02.827Z</time></trkpt><trkpt lat="43.9834133" lon="11.08904"><ele>655.0</ele><time>2026-04-25T07:45:03.834Z</time></trkpt><trkpt lat="43.9834867" lon="11.0890867"><ele>655.0</ele><time>2026-04-25T07:45:04.841Z</time></trkpt><trkpt lat="43.9835683" lon="11.0891367"><ele>655.0</ele><time>2026-04-25T07:45:05.848Z</time></trkpt><trkpt lat="43.9836617" lon="11.089185"><ele>655.8</ele><time>2026-04-25T07:45:06.787Z</time></trkpt><trkpt lat="43.98376" lon="11.089235"><ele>656.6</ele><time>2026-04-25T07:45:07.793Z</time></trkpt><trkpt lat="43.9838433" lon="11.0892817"><ele>657.4000000000001</ele><time>2026-04-25T07:45:08.8Z</time></trkpt><trkpt lat="43.9839183" lon="11.0893233"><ele>658.2</ele><time>2026-04-25T07:45:09.806Z</time></trkpt><trkpt lat="43.9840283" lon="11.089375"><ele>659.0</ele><time>2026-04-25T07:45:11.82Z</time></trkpt><trkpt lat="43.9840917" lon="11.0893767"><ele>663.0</ele><time>2026-04-25T07:45:12.827Z</time></trkpt><trkpt lat="43.9841817" lon="11.0893183"><ele>667.0</ele><time>2026-04-25T07:45:14.84Z</time></trkpt><trkpt lat="43.9842483" lon="11.0891933"><ele>671.0</ele><time>2026-04-25T07:45:16.785Z</time></trkpt><trkpt lat="43.9842733" lon="11.0890467"><ele>675.0</ele><time>2026-04-25T07:45:18.8Z</time></trkpt><trkpt lat="43.9842467" lon="11.0889"><ele>679.0</ele><time>2026-04-25T07:45:20.813Z</time></trkpt><trkpt lat="43.9842233" lon="11.088775"><ele>681.5</ele><time>2026-04-25T07:45:22.826Z</time></trkpt><trkpt lat="43.9842533" lon="11.08868"><ele>684.0</ele><time>2026-04-25T07:45:24.839Z</time></trkpt><trkpt lat="43.98432" lon="11.0886933"><ele>686.5</ele><time>2026-04-25T07:45:26.785Z</time></trkpt><trkpt lat="43.98441" lon="11.08878"><ele>689.0</ele><time>2026-04-25T07:45:28.799Z</time></trkpt><trkpt lat="43.98451" lon="11.0888283"><ele>691.5</ele><time>2026-04-25T07:45:30.811Z</time></trkpt><trkpt lat="43.984575" lon="11.0887967"><ele>694.0</ele><time>2026-04-25T07:45:32.825Z</time></trkpt><trkpt lat="43.9845683" lon="11.088665"><ele>694.0</ele><time>2026-04-25T07:45:35.778Z</time></trkpt><trkpt lat="43.9845367" lon="11.0885083"><ele>694.0</ele><time>2026-04-25T07:45:37.79Z</time></trkpt><trkpt lat="43.984515" lon="11.088425"><ele>694.0</ele><time>2026-04-25T07:45:38.798Z</time></trkpt><trkpt lat="43.984495" lon="11.088335"><ele>694.0</ele><time>2026-04-25T07:45:39.805Z</time></trkpt><trkpt lat="43.9844683" lon="11.0882417"><ele>694.0</ele><time>2026-04-25T07:45:40.811Z</time></trkpt><trkpt lat="43.9844433" lon="11.08815"><ele>694.0</ele><time>2026-04-25T07:45:41.818Z</time></trkpt><trkpt lat="43.9844167" lon="11.088065"><ele>697.1428571428572</ele><time>2026-04-25T07:45:42.825Z</time></trkpt><trkpt lat="43.9843867" lon="11.0879733"><ele>700.2857142857142</ele><time>2026-04-25T07:45:43.83Z</time></trkpt><trkpt lat="43.9843633" lon="11.0878783"><ele>703.4285714285714</ele><time>2026-04-25T07:45:44.838Z</time></trkpt><trkpt lat="43.9843417" lon="11.08779"><ele>706.5714285714287</ele><time>2026-04-25T07:45:45.776Z</time></trkpt><trkpt lat="43.98432" lon="11.0876983"><ele>709.7142857142858</ele><time>2026-04-25T07:45:46.783Z</time></trkpt><trkpt lat="43.9842917" lon="11.0876183"><ele>712.8571428571429</ele><time>2026-04-25T07:45:47.791Z</time></trkpt><trkpt lat="43.9842433" lon="11.0875467"><ele>716.0</ele><time>2026-04-25T07:45:48.797Z</time></trkpt><trkpt lat="43.98419" lon="11.0874733"><ele>716.1428571428572</ele><time>2026-04-25T07:45:49.803Z</time></trkpt><trkpt lat="43.9841417" lon="11.0874033"><ele>716.2857142857143</ele><time>2026-04-25T07:45:50.811Z</time></trkpt><trkpt lat="43.984085" lon="11.087335"><ele>716.4285714285714</ele><time>2026-04-25T07:45:51.817Z</time></trkpt><trkpt lat="43.9840283" lon="11.0872717"><ele>716.5714285714287</ele><time>2026-04-25T07:45:52.824Z</time></trkpt><trkpt lat="43.9839733" lon="11.087215"><ele>716.7142857142857</ele><time>2026-04-25T07:45:53.83Z</time></trkpt><trkpt lat="43.9839217" lon="11.0871533"><ele>716.8571428571429</ele><time>2026-04-25T07:45:54.837Z</time></trkpt><trkpt lat="43.9838767" lon="11.087075"><ele>717.0</ele><time>2026-04-25T07:45:55.777Z</time></trkpt><trkpt lat="43.9838383" lon="11.0869867"><ele>717.0</ele><time>2026-04-25T07:45:56.783Z</time></trkpt><trkpt lat="43.9838" lon="11.0868783"><ele>717.0</ele><time>2026-04-25T07:45:57.79Z</time></trkpt><trkpt lat="43.9837583" lon="11.08676"><ele>717.0</ele><time>2026-04-25T07:45:58.797Z</time></trkpt><trkpt lat="43.9837217" lon="11.086645"><ele>717.0</ele><time>2026-04-25T07:45:59.803Z</time></trkpt><trkpt lat="43.9836917" lon="11.0865483"><ele>717.0</ele><time>2026-04-25T07:46:00.81Z</time></trkpt><trkpt lat="43.98364" lon="11.0864167"><ele>718.2</ele><time>2026-04-25T07:46:02.823Z</time></trkpt><trkpt lat="43.983565" lon="11.0863533"><ele>719.4000000000001</ele><time>2026-04-25T07:46:04.835Z</time></trkpt><trkpt lat="43.9834717" lon="11.0863467"><ele>720.5999999999999</ele><time>2026-04-25T07:46:06.782Z</time></trkpt><trkpt lat="43.9833683" lon="11.0862683"><ele>721.8</ele><time>2026-04-25T07:46:08.796Z</time></trkpt><trkpt lat="43.9832967" lon="11.08614"><ele>723.0</ele><time>2026-04-25T07:46:10.809Z</time></trkpt><trkpt lat="43.9832267" lon="11.0860067"><ele>723.0</ele><time>2026-04-25T07:46:12.821Z</time></trkpt><trkpt lat="43.9831183" lon="11.0859383"><ele>723.0</ele><time>2026-04-25T07:46:14.836Z</time></trkpt><trkpt lat="43.983045" lon="11.0859283"><ele>723.0</ele><time>2026-04-25T07:46:15.775Z</time></trkpt><trkpt lat="43.9829817" lon="11.08591"><ele>723.0</ele><time>2026-04-25T07:46:16.782Z</time></trkpt><trkpt lat="43.982895" lon="11.0858383"><ele>723.0</ele><time>2026-04-25T07:46:18.795Z</time></trkpt><trkpt lat="43.9828317" lon="11.0857433"><ele>723.8333333333334</ele><time>2026-04-25T07:46:20.807Z</time></trkpt><trkpt lat="43.9827733" lon="11.0856917"><ele>724.6666666666666</ele><time>2026-04-25T07:46:22.822Z</time></trkpt><trkpt lat="43.9826817" lon="11.0856983"><ele>725.5</ele><time>2026-04-25T07:46:24.767Z</time></trkpt><trkpt lat="43.9826283" lon="11.085745"><ele>726.3333333333333</ele><time>2026-04-25T07:46:25.774Z</time></trkpt><trkpt lat="43.9825067" lon="11.0858083"><ele>727.1666666666666</ele><time>2026-04-25T07:46:27.788Z</time></trkpt><trkpt lat="43.9824367" lon="11.08583"><ele>728.0</ele><time>2026-04-25T07:46:28.861Z</time></trkpt><trkpt lat="43.9823567" lon="11.0858283"><ele>728.0</ele><time>2026-04-25T07:46:29.8Z</time></trkpt><trkpt lat="43.9822867" lon="11.0858083"><ele>728.0</ele><time>2026-04-25T07:46:30.807Z</time></trkpt><trkpt lat="43.982195" lon="11.0857267"><ele>728.0</ele><time>2026-04-25T07:46:32.821Z</time></trkpt><trkpt lat="43.98218" lon="11.0856317"><ele>728.0</ele><time>2026-04-25T07:46:34.767Z</time></trkpt><trkpt lat="43.9822467" lon="11.0855917"><ele>728.0</ele><time>2026-04-25T07:46:36.78Z</time></trkpt><trkpt lat="43.98235" lon="11.08561"><ele>728.0</ele><time>2026-04-25T07:46:38.86Z</time></trkpt><trkpt lat="43.9824417" lon="11.0855767"><ele>732.6666666666666</ele><time>2026-04-25T07:46:40.807Z</time></trkpt><trkpt lat="43.9824333" lon="11.0854733"><ele>737.3333333333333</ele><time>2026-04-25T07:46:43.827Z</time></trkpt><trkpt lat="43.98233" lon="11.08542"><ele>742.0</ele><time>2026-04-25T07:46:45.84Z</time></trkpt><trkpt lat="43.982275" lon="11.0853717"><ele>746.6666666666666</ele><time>2026-04-25T07:46:46.845Z</time></trkpt><trkpt lat="43.98222" lon="11.0853183"><ele>751.3333333333334</ele><time>2026-04-25T07:46:47.853Z</time></trkpt><trkpt lat="43.982165" lon="11.0852667"><ele>756.0</ele><time>2026-04-25T07:46:48.86Z</time></trkpt><trkpt lat="43.982065" lon="11.085205"><ele>756.0</ele><time>2026-04-25T07:46:50.806Z</time></trkpt><trkpt lat="43.9819583" lon="11.0851983"><ele>756.0</ele><time>2026-04-25T07:46:52.819Z</time></trkpt><trkpt lat="43.9818617" lon="11.0852033"><ele>756.0</ele><time>2026-04-25T07:46:54.831Z</time></trkpt><trkpt lat="43.9817867" lon="11.0851883"><ele>756.0</ele><time>2026-04-25T07:46:55.839Z</time></trkpt><trkpt lat="43.981725" lon="11.0851417"><ele>756.0</ele><time>2026-04-25T07:46:56.846Z</time></trkpt><trkpt lat="43.9816833" lon="11.085065"><ele>756.0</ele><time>2026-04-25T07:46:57.852Z</time></trkpt><trkpt lat="43.9816417" lon="11.08491"><ele>756.1666666666666</ele><time>2026-04-25T07:46:59.798Z</time></trkpt><trkpt lat="43.98158" lon="11.0847967"><ele>756.3333333333334</ele><time>2026-04-25T07:47:01.812Z</time></trkpt><trkpt lat="43.98151" lon="11.0847517"><ele>756.5</ele><time>2026-04-25T07:47:03.825Z</time></trkpt><trkpt lat="43.9814117" lon="11.0848283"><ele>756.6666666666667</ele><time>2026-04-25T07:47:05.838Z</time></trkpt><trkpt lat="43.9813583" lon="11.0848933"><ele>756.8333333333334</ele><time>2026-04-25T07:47:06.845Z</time></trkpt><trkpt lat="43.9813067" lon="11.0849583"><ele>757.0</ele><time>2026-04-25T07:47:07.852Z</time></trkpt><trkpt lat="43.9812383" lon="11.0850133"><ele>757.0</ele><time>2026-04-25T07:47:08.791Z</time></trkpt><trkpt lat="43.9811717" lon="11.0850533"><ele>757.0</ele><time>2026-04-25T07:47:09.798Z</time></trkpt><trkpt lat="43.981105" lon="11.08508"><ele>757.0</ele><time>2026-04-25T07:47:10.804Z</time></trkpt><trkpt lat="43.9810383" lon="11.0850833"><ele>757.0</ele><time>2026-04-25T07:47:11.811Z</time></trkpt><trkpt lat="43.980975" lon="11.0850633"><ele>757.0</ele><time>2026-04-25T07:47:12.818Z</time></trkpt><trkpt lat="43.9808767" lon="11.0849617"><ele>757.0</ele><time>2026-04-25T07:47:14.83Z</time></trkpt><trkpt lat="43.98084" lon="11.0848783"><ele>761.0</ele><time>2026-04-25T07:47:15.838Z</time></trkpt><trkpt lat="43.9808133" lon="11.0847933"><ele>765.0</ele><time>2026-04-25T07:47:16.844Z</time></trkpt><trkpt lat="43.98078" lon="11.0846933"><ele>769.0</ele><time>2026-04-25T07:47:17.85Z</time></trkpt><trkpt lat="43.980735" lon="11.0846067"><ele>773.0</ele><time>2026-04-25T07:47:18.79Z</time></trkpt><trkpt lat="43.9806783" lon="11.0845233"><ele>776.9999999999999</ele><time>2026-04-25T07:47:19.797Z</time></trkpt><trkpt lat="43.9806117" lon="11.0844333"><ele>781.0</ele><time>2026-04-25T07:47:20.804Z</time></trkpt><trkpt lat="43.9805367" lon="11.0843433"><ele>781.0</ele><time>2026-04-25T07:47:21.81Z</time></trkpt><trkpt lat="43.98046" lon="11.084245"><ele>781.0</ele><time>2026-04-25T07:47:22.817Z</time></trkpt><trkpt lat="43.9803933" lon="11.084155"><ele>781.0</ele><time>2026-04-25T07:47:23.823Z</time></trkpt><trkpt lat="43.9803367" lon="11.0840817"><ele>781.0</ele><time>2026-04-25T07:47:24.83Z</time></trkpt><trkpt lat="43.980295" lon="11.0840117"><ele>781.0</ele><time>2026-04-25T07:47:25.836Z</time></trkpt><trkpt lat="43.980245" lon="11.0838517"><ele>781.7142857142858</ele><time>2026-04-25T07:47:27.85Z</time></trkpt><trkpt lat="43.9802183" lon="11.0837683"><ele>782.4285714285714</ele><time>2026-04-25T07:47:28.79Z</time></trkpt><trkpt lat="43.980175" lon="11.0836983"><ele>783.1428571428571</ele><time>2026-04-25T07:47:29.795Z</time></trkpt><trkpt lat="43.9801167" lon="11.0836417"><ele>783.8571428571429</ele><time>2026-04-25T07:47:30.803Z</time></trkpt><trkpt lat="43.9800617" lon="11.0835817"><ele>784.5714285714286</ele><time>2026-04-25T07:47:31.809Z</time></trkpt><trkpt lat="43.9800133" lon="11.0835167"><ele>785.2857142857143</ele><time>2026-04-25T07:47:32.816Z</time></trkpt><trkpt lat="43.979975" lon="11.0834333"><ele>786.0</ele><time>2026-04-25T07:47:33.823Z</time></trkpt><trkpt lat="43.9799517" lon="11.0833433"><ele>787.4</ele><time>2026-04-25T07:47:34.829Z</time></trkpt><trkpt lat="43.9799383" lon="11.08323"><ele>788.8</ele><time>2026-04-25T07:47:35.836Z</time></trkpt><trkpt lat="43.9799367" lon="11.0831017"><ele>790.1999999999999</ele><time>2026-04-25T07:47:36.842Z</time></trkpt><trkpt lat="43.9799367" lon="11.0829717"><ele>791.5999999999999</ele><time>2026-04-25T07:47:37.849Z</time></trkpt><trkpt lat="43.9799333" lon="11.0828433"><ele>793.0</ele><time>2026-04-25T07:47:38.789Z</time></trkpt><trkpt lat="43.9799417" lon="11.0827133"><ele>793.0</ele><time>2026-04-25T07:47:39.795Z</time></trkpt><trkpt lat="43.9799333" lon="11.0825783"><ele>793.0</ele><time>2026-04-25T07:47:40.802Z</time></trkpt><trkpt lat="43.97991" lon="11.082465"><ele>793.0</ele><time>2026-04-25T07:47:41.809Z</time></trkpt><trkpt lat="43.979865" lon="11.0823367"><ele>793.0</ele><time>2026-04-25T07:47:42.815Z</time></trkpt><trkpt lat="43.979815" lon="11.082215"><ele>793.0</ele><time>2026-04-25T07:47:43.822Z</time></trkpt><trkpt lat="43.97976" lon="11.0821067"><ele>795.4999999999999</ele><time>2026-04-25T07:47:44.829Z</time></trkpt><trkpt lat="43.97971" lon="11.08199"><ele>798.0</ele><time>2026-04-25T07:47:45.835Z</time></trkpt><trkpt lat="43.979665" lon="11.08189"><ele>800.5</ele><time>2026-04-25T07:47:46.842Z</time></trkpt><trkpt lat="43.979615" lon="11.0818167"><ele>803.0</ele><time>2026-04-25T07:47:47.781Z</time></trkpt><trkpt lat="43.9795633" lon="11.0817433"><ele>805.4999999999999</ele><time>2026-04-25T07:47:48.788Z</time></trkpt><trkpt lat="43.979495" lon="11.08167"><ele>808.0</ele><time>2026-04-25T07:47:49.795Z</time></trkpt><trkpt lat="43.9794217" lon="11.08161"><ele>813.0</ele><time>2026-04-25T07:47:50.801Z</time></trkpt><trkpt lat="43.9793433" lon="11.0815467"><ele>818.0</ele><time>2026-04-25T07:47:51.808Z</time></trkpt><trkpt lat="43.9792667" lon="11.08148"><ele>823.0</ele><time>2026-04-25T07:47:52.814Z</time></trkpt><trkpt lat="43.9791783" lon="11.081395"><ele>828.0</ele><time>2026-04-25T07:47:53.821Z</time></trkpt><trkpt lat="43.979095" lon="11.0813067"><ele>833.0</ele><time>2026-04-25T07:47:54.828Z</time></trkpt><trkpt lat="43.97902" lon="11.0812383"><ele>833.1666666666667</ele><time>2026-04-25T07:47:55.834Z</time></trkpt><trkpt lat="43.9789567" lon="11.0811783"><ele>833.3333333333334</ele><time>2026-04-25T07:47:56.841Z</time></trkpt><trkpt lat="43.9789017" lon="11.0811217"><ele>833.5</ele><time>2026-04-25T07:47:57.781Z</time></trkpt><trkpt lat="43.9788217" lon="11.081055"><ele>833.6666666666667</ele><time>2026-04-25T07:47:59.794Z</time></trkpt><trkpt lat="43.9787733" lon="11.08099"><ele>833.8333333333334</ele><time>2026-04-25T07:48:01.807Z</time></trkpt><trkpt lat="43.97883" lon="11.0809283"><ele>834.0</ele><time>2026-04-25T07:48:04.827Z</time></trkpt><trkpt lat="43.9789567" lon="11.080975"><ele>834.0</ele><time>2026-04-25T07:48:06.84Z</time></trkpt><trkpt lat="43.979065" lon="11.080985"><ele>834.0</ele><time>2026-04-25T07:48:07.78Z</time></trkpt><trkpt lat="43.9791767" lon="11.080985"><ele>834.0</ele><time>2026-04-25T07:48:08.786Z</time></trkpt><trkpt lat="43.9792967" lon="11.08098"><ele>834.0</ele><time>2026-04-25T07:48:09.793Z</time></trkpt><trkpt lat="43.97942" lon="11.0809717"><ele>833.8333333333334</ele><time>2026-04-25T07:48:10.8Z</time></trkpt><trkpt lat="43.9795267" lon="11.0809717"><ele>833.6666666666667</ele><time>2026-04-25T07:48:11.805Z</time></trkpt><trkpt lat="43.97962" lon="11.0809883"><ele>833.5</ele><time>2026-04-25T07:48:12.813Z</time></trkpt><trkpt lat="43.9797" lon="11.08102"><ele>833.3333333333334</ele><time>2026-04-25T07:48:13.82Z</time></trkpt><trkpt lat="43.9797767" lon="11.0810567"><ele>833.1666666666667</ele><time>2026-04-25T07:48:14.826Z</time></trkpt><trkpt lat="43.9798583" lon="11.0810733"><ele>833.0</ele><time>2026-04-25T07:48:15.833Z</time></trkpt><trkpt lat="43.979945" lon="11.0810683"><ele>833.0</ele><time>2026-04-25T07:48:16.839Z</time></trkpt><trkpt lat="43.9800383" lon="11.0810433"><ele>833.0</ele><time>2026-04-25T07:48:17.779Z</time></trkpt><trkpt lat="43.980135" lon="11.0810133"><ele>833.0</ele><time>2026-04-25T07:48:18.786Z</time></trkpt><trkpt lat="43.9802333" lon="11.0809817"><ele>833.0</ele><time>2026-04-25T07:48:19.792Z</time></trkpt><trkpt lat="43.980335" lon="11.0809583"><ele>833.0</ele><time>2026-04-25T07:48:20.799Z</time></trkpt><trkpt lat="43.9804317" lon="11.08095"><ele>833.0000000000001</ele><time>2026-04-25T07:48:21.806Z</time></trkpt><trkpt lat="43.9805267" lon="11.0809567"><ele>833.0</ele><time>2026-04-25T07:48:22.812Z</time></trkpt><trkpt lat="43.9806067" lon="11.0809767"><ele>833.0</ele><time>2026-04-25T07:48:23.819Z</time></trkpt><trkpt lat="43.980685" lon="11.080995"><ele>833.0</ele><time>2026-04-25T07:48:24.825Z</time></trkpt><trkpt lat="43.9807533" lon="11.08101"><ele>833.0000000000001</ele><time>2026-04-25T07:48:25.832Z</time></trkpt><trkpt lat="43.9808183" lon="11.080995"><ele>833.0</ele><time>2026-04-25T07:48:26.839Z</time></trkpt><trkpt lat="43.9809033" lon="11.0809133"><ele>832.5000000000001</ele><time>2026-04-25T07:48:28.785Z</time></trkpt><trkpt lat="43.9809017" lon="11.0807833"><ele>832.0</ele><time>2026-04-25T07:48:30.798Z</time></trkpt><trkpt lat="43.980875" lon="11.0806983"><ele>831.5</ele><time>2026-04-25T07:48:31.805Z</time></trkpt><trkpt lat="43.9808417" lon="11.0806133"><ele>831.0</ele><time>2026-04-25T07:48:32.811Z</time></trkpt><trkpt lat="43.98081" lon="11.08053"><ele>830.5000000000001</ele><time>2026-04-25T07:48:33.818Z</time></trkpt><trkpt lat="43.9807633" lon="11.08038"><ele>830.0</ele><time>2026-04-25T07:48:35.831Z</time></trkpt><trkpt lat="43.98072" lon="11.080225"><ele>830.0</ele><time>2026-04-25T07:48:37.777Z</time></trkpt><trkpt lat="43.9806917" lon="11.0800533"><ele>830.0</ele><time>2026-04-25T07:48:39.79Z</time></trkpt><trkpt lat="43.9806817" lon="11.0799667"><ele>830.0</ele><time>2026-04-25T07:48:40.797Z</time></trkpt><trkpt lat="43.9806833" lon="11.0798067"><ele>830.0</ele><time>2026-04-25T07:48:42.81Z</time></trkpt><trkpt lat="43.980735" lon="11.0796533"><ele>830.0</ele><time>2026-04-25T07:48:44.824Z</time></trkpt><trkpt lat="43.9807767" lon="11.0795567"><ele>830.3333333333334</ele><time>2026-04-25T07:48:45.83Z</time></trkpt><trkpt lat="43.9808167" lon="11.07947"><ele>830.6666666666667</ele><time>2026-04-25T07:48:46.77Z</time></trkpt><trkpt lat="43.9808617" lon="11.07939"><ele>831.0</ele><time>2026-04-25T07:48:47.777Z</time></trkpt><trkpt lat="43.98091" lon="11.0793133"><ele>831.3333333333333</ele><time>2026-04-25T07:48:48.783Z</time></trkpt><trkpt lat="43.9809667" lon="11.0792233"><ele>831.6666666666666</ele><time>2026-04-25T07:48:49.79Z</time></trkpt><trkpt lat="43.9810167" lon="11.0791683"><ele>832.0</ele><time>2026-04-25T07:48:50.796Z</time></trkpt><trkpt lat="43.9810883" lon="11.0790567"><ele>825.8</ele><time>2026-04-25T07:48:52.81Z</time></trkpt><trkpt lat="43.9811367" lon="11.0789267"><ele>819.6</ele><time>2026-04-25T07:48:54.823Z</time></trkpt><trkpt lat="43.9811217" lon="11.0788033"><ele>813.4</ele><time>2026-04-25T07:48:56.769Z</time></trkpt><trkpt lat="43.98106" lon="11.0786883"><ele>807.1999999999999</ele><time>2026-04-25T07:48:58.783Z</time></trkpt><trkpt lat="43.9809583" lon="11.0785633"><ele>801.0</ele><time>2026-04-25T07:49:00.863Z</time></trkpt><trkpt lat="43.9808983" lon="11.0784933"><ele>801.0</ele><time>2026-04-25T07:49:01.802Z</time></trkpt><trkpt lat="43.9808367" lon="11.0784217"><ele>801.0</ele><time>2026-04-25T07:49:02.809Z</time></trkpt><trkpt lat="43.9807683" lon="11.0783433"><ele>801.0</ele><time>2026-04-25T07:49:03.816Z</time></trkpt><trkpt lat="43.9807067" lon="11.0782533"><ele>801.0</ele><time>2026-04-25T07:49:04.822Z</time></trkpt><trkpt lat="43.9806433" lon="11.0781733"><ele>801.0</ele><time>2026-04-25T07:49:05.829Z</time></trkpt><trkpt lat="43.980575" lon="11.0781017"><ele>801.0</ele><time>2026-04-25T07:49:06.767Z</time></trkpt><trkpt lat="43.9805083" lon="11.0780317"><ele>801.0</ele><time>2026-04-25T07:49:07.775Z</time></trkpt><trkpt lat="43.98044" lon="11.0779567"><ele>801.0</ele><time>2026-04-25T07:49:08.849Z</time></trkpt><trkpt lat="43.9803733" lon="11.077875"><ele>801.0</ele><time>2026-04-25T07:49:09.854Z</time></trkpt><trkpt lat="43.9803017" lon="11.0777867"><ele>801.0</ele><time>2026-04-25T07:49:10.861Z</time></trkpt><trkpt lat="43.9802417" lon="11.0776983"><ele>801.0</ele><time>2026-04-25T07:49:11.802Z</time></trkpt><trkpt lat="43.98019" lon="11.07761"><ele>801.0</ele><time>2026-04-25T07:49:12.808Z</time></trkpt><trkpt lat="43.9801533" lon="11.0775267"><ele>801.0</ele><time>2026-04-25T07:49:13.814Z</time></trkpt><trkpt lat="43.9801417" lon="11.0774367"><ele>801.0</ele><time>2026-04-25T07:49:14.822Z</time></trkpt><trkpt lat="43.98016" lon="11.0772683"><ele>801.0</ele><time>2026-04-25T07:49:16.835Z</time></trkpt><trkpt lat="43.98018" lon="11.0771617"><ele>801.0</ele><time>2026-04-25T07:49:17.841Z</time></trkpt><trkpt lat="43.9802217" lon="11.0770667"><ele>801.0</ele><time>2026-04-25T07:49:18.848Z</time></trkpt><trkpt lat="43.980265" lon="11.0769883"><ele>801.0</ele><time>2026-04-25T07:49:19.855Z</time></trkpt><trkpt lat="43.9803067" lon="11.0769033"><ele>800.1428571428571</ele><time>2026-04-25T07:49:20.793Z</time></trkpt><trkpt lat="43.9803317" lon="11.07681"><ele>799.2857142857142</ele><time>2026-04-25T07:49:21.8Z</time></trkpt><trkpt lat="43.9803417" lon="11.0767183"><ele>798.4285714285714</ele><time>2026-04-25T07:49:22.807Z</time></trkpt><trkpt lat="43.980335" lon="11.07663"><ele>797.5714285714286</ele><time>2026-04-25T07:49:23.814Z</time></trkpt><trkpt lat="43.9803083" lon="11.07654"><ele>796.7142857142858</ele><time>2026-04-25T07:49:24.821Z</time></trkpt><trkpt lat="43.9802817" lon="11.0764433"><ele>795.8571428571429</ele><time>2026-04-25T07:49:25.827Z</time></trkpt><trkpt lat="43.9802533" lon="11.0763333"><ele>795.0</ele><time>2026-04-25T07:49:26.834Z</time></trkpt><trkpt lat="43.9802233" lon="11.0762217"><ele>797.4</ele><time>2026-04-25T07:49:27.841Z</time></trkpt><trkpt lat="43.9801933" lon="11.0761283"><ele>799.8</ele><time>2026-04-25T07:49:28.847Z</time></trkpt><trkpt lat="43.9801667" lon="11.0760467"><ele>802.2</ele><time>2026-04-25T07:49:29.854Z</time></trkpt><trkpt lat="43.9801483" lon="11.07591"><ele>804.6</ele><time>2026-04-25T07:49:31.8Z</time></trkpt><trkpt lat="43.9802" lon="11.0757917"><ele>807.0</ele><time>2026-04-25T07:49:33.813Z</time></trkpt><trkpt lat="43.980305" lon="11.0757067"><ele>811.1666666666666</ele><time>2026-04-25T07:49:35.826Z</time></trkpt><trkpt lat="43.98036" lon="11.0756533"><ele>815.3333333333333</ele><time>2026-04-25T07:49:36.832Z</time></trkpt><trkpt lat="43.98041" lon="11.0755967"><ele>819.5</ele><time>2026-04-25T07:49:37.839Z</time></trkpt><trkpt lat="43.9804483" lon="11.0755133"><ele>823.6666666666666</ele><time>2026-04-25T07:49:38.847Z</time></trkpt><trkpt lat="43.980465" lon="11.0754117"><ele>827.8333333333333</ele><time>2026-04-25T07:49:39.852Z</time></trkpt><trkpt lat="43.9804733" lon="11.0753"><ele>832.0</ele><time>2026-04-25T07:49:40.793Z</time></trkpt><trkpt lat="43.9804867" lon="11.07513"><ele>831.9999999999999</ele><time>2026-04-25T07:49:42.806Z</time></trkpt><trkpt lat="43.9805583" lon="11.07501"><ele>832.0</ele><time>2026-04-25T07:49:44.819Z</time></trkpt><trkpt lat="43.9806367" lon="11.0749583"><ele>832.0</ele><time>2026-04-25T07:49:45.826Z</time></trkpt><trkpt lat="43.9807083" lon="11.0749133"><ele>832.0</ele><time>2026-04-25T07:49:46.832Z</time></trkpt><trkpt lat="43.9807783" lon="11.0748567"><ele>831.9999999999999</ele><time>2026-04-25T07:49:47.839Z</time></trkpt><trkpt lat="43.9808533" lon="11.0747867"><ele>832.0</ele><time>2026-04-25T07:49:48.846Z</time></trkpt><trkpt lat="43.9809283" lon="11.0747133"><ele>828.8333333333333</ele><time>2026-04-25T07:49:49.852Z</time></trkpt><trkpt lat="43.9809917" lon="11.0746433"><ele>825.6666666666666</ele><time>2026-04-25T07:49:50.792Z</time></trkpt><trkpt lat="43.981045" lon="11.0745667"><ele>822.5</ele><time>2026-04-25T07:49:51.799Z</time></trkpt><trkpt lat="43.98108" lon="11.0744883"><ele>819.3333333333333</ele><time>2026-04-25T07:49:52.805Z</time></trkpt><trkpt lat="43.9811017" lon="11.074395"><ele>816.1666666666666</ele><time>2026-04-25T07:49:53.812Z</time></trkpt><trkpt lat="43.9811033" lon="11.07427"><ele>813.0</ele><time>2026-04-25T07:49:54.818Z</time></trkpt><trkpt lat="43.981095" lon="11.0741233"><ele>815.0</ele><time>2026-04-25T07:49:55.824Z</time></trkpt><trkpt lat="43.9810917" lon="11.073975"><ele>817.0</ele><time>2026-04-25T07:49:56.831Z</time></trkpt><trkpt lat="43.9810917" lon="11.0738317"><ele>819.0</ele><time>2026-04-25T07:49:57.838Z</time></trkpt><trkpt lat="43.9811" lon="11.0737"><ele>821.0</ele><time>2026-04-25T07:49:58.845Z</time></trkpt><trkpt lat="43.98112" lon="11.0735767"><ele>823.0</ele><time>2026-04-25T07:49:59.852Z</time></trkpt><trkpt lat="43.9811567" lon="11.073455"><ele>823.0</ele><time>2026-04-25T07:50:00.791Z</time></trkpt><trkpt lat="43.9812017" lon="11.0733383"><ele>823.0</ele><time>2026-04-25T07:50:01.798Z</time></trkpt><trkpt lat="43.9812583" lon="11.073235"><ele>823.0</ele><time>2026-04-25T07:50:02.804Z</time></trkpt><trkpt lat="43.9813233" lon="11.0731333"><ele>823.0</ele><time>2026-04-25T07:50:03.811Z</time></trkpt><trkpt lat="43.9813867" lon="11.0730417"><ele>823.0</ele><time>2026-04-25T07:50:04.818Z</time></trkpt><trkpt lat="43.9814417" lon="11.0729617"><ele>823.2</ele><time>2026-04-25T07:50:05.824Z</time></trkpt><trkpt lat="43.9814883" lon="11.072895"><ele>823.4</ele><time>2026-04-25T07:50:06.831Z</time></trkpt><trkpt lat="43.9815617" lon="11.072785"><ele>823.6</ele><time>2026-04-25T07:50:08.844Z</time></trkpt><trkpt lat="43.9816267" lon="11.0726983"><ele>823.8000000000001</ele><time>2026-04-25T07:50:27.836Z</time></trkpt><trkpt lat="43.9816983" lon="11.072585"><ele>824.0</ele><time>2026-04-25T07:50:29.782Z</time></trkpt><trkpt lat="43.9817567" lon="11.0724783"><ele>827.2</ele><time>2026-04-25T07:50:30.789Z</time></trkpt><trkpt lat="43.9818217" lon="11.07238"><ele>830.4000000000001</ele><time>2026-04-25T07:50:31.795Z</time></trkpt><trkpt lat="43.9819067" lon="11.0722867"><ele>833.6</ele><time>2026-04-25T07:50:32.802Z</time></trkpt><trkpt lat="43.9820017" lon="11.072205"><ele>836.8</ele><time>2026-04-25T07:50:33.809Z</time></trkpt><trkpt lat="43.9820883" lon="11.0721317"><ele>840.0</ele><time>2026-04-25T07:50:34.815Z</time></trkpt><trkpt lat="43.9821633" lon="11.07205"><ele>840.0</ele><time>2026-04-25T07:50:35.822Z</time></trkpt><trkpt lat="43.982235" lon="11.071955"><ele>840.0</ele><time>2026-04-25T07:50:36.829Z</time></trkpt><trkpt lat="43.982295" lon="11.0718717"><ele>840.0</ele><time>2026-04-25T07:50:37.834Z</time></trkpt><trkpt lat="43.982365" lon="11.0717917"><ele>840.0</ele><time>2026-04-25T07:50:38.842Z</time></trkpt><trkpt lat="43.98245" lon="11.0717233"><ele>840.0</ele><time>2026-04-25T07:50:39.781Z</time></trkpt><trkpt lat="43.9825567" lon="11.0716617"><ele>840.4</ele><time>2026-04-25T07:50:40.788Z</time></trkpt><trkpt lat="43.982675" lon="11.0715917"><ele>840.8</ele><time>2026-04-25T07:50:41.795Z</time></trkpt><trkpt lat="43.982785" lon="11.0715267"><ele>841.2</ele><time>2026-04-25T07:50:42.801Z</time></trkpt><trkpt lat="43.9828833" lon="11.0714667"><ele>841.6</ele><time>2026-04-25T07:50:43.808Z</time></trkpt><trkpt lat="43.9829617" lon="11.0714183"><ele>842.0</ele><time>2026-04-25T07:50:44.815Z</time></trkpt><trkpt lat="43.983025" lon="11.0713617"><ele>842.0</ele><time>2026-04-25T07:50:45.821Z</time></trkpt><trkpt lat="43.9830767" lon="11.0712783"><ele>842.0</ele><time>2026-04-25T07:50:46.828Z</time></trkpt><trkpt lat="43.9831217" lon="11.0711683"><ele>842.0</ele><time>2026-04-25T07:50:47.834Z</time></trkpt><trkpt lat="43.983155" lon="11.0710317"><ele>842.0</ele><time>2026-04-25T07:50:48.774Z</time></trkpt><trkpt lat="43.9831883" lon="11.0708933"><ele>842.0</ele><time>2026-04-25T07:50:49.78Z</time></trkpt><trkpt lat="43.983215" lon="11.0707783"><ele>842.8333333333334</ele><time>2026-04-25T07:50:50.787Z</time></trkpt><trkpt lat="43.9832317" lon="11.0706733"><ele>843.6666666666667</ele><time>2026-04-25T07:50:51.794Z</time></trkpt><trkpt lat="43.9832267" lon="11.070565"><ele>844.5</ele><time>2026-04-25T07:50:52.8Z</time></trkpt><trkpt lat="43.9832117" lon="11.0704583"><ele>845.3333333333333</ele><time>2026-04-25T07:50:53.807Z</time></trkpt><trkpt lat="43.9832017" lon="11.070355"><ele>846.1666666666666</ele><time>2026-04-25T07:50:54.814Z</time></trkpt><trkpt lat="43.9832067" lon="11.0702533"><ele>847.0</ele><time>2026-04-25T07:50:55.82Z</time></trkpt><trkpt lat="43.9832333" lon="11.0701417"><ele>847.0</ele><time>2026-04-25T07:50:56.827Z</time></trkpt><trkpt lat="43.9832683" lon="11.07002"><ele>847.0</ele><time>2026-04-25T07:50:57.834Z</time></trkpt><trkpt lat="43.983305" lon="11.0698967"><ele>847.0</ele><time>2026-04-25T07:50:58.773Z</time></trkpt><trkpt lat="43.9833333" lon="11.069775"><ele>847.0</ele><time>2026-04-25T07:50:59.78Z</time></trkpt><trkpt lat="43.9833517" lon="11.0696583"><ele>847.0</ele><time>2026-04-25T07:51:00.786Z</time></trkpt><trkpt lat="43.98336" lon="11.06954"><ele>846.3333333333333</ele><time>2026-04-25T07:51:01.792Z</time></trkpt><trkpt lat="43.9833633" lon="11.06942"><ele>845.6666666666666</ele><time>2026-04-25T07:51:02.8Z</time></trkpt><trkpt lat="43.983365" lon="11.0692983"><ele>845.0</ele><time>2026-04-25T07:51:03.806Z</time></trkpt><trkpt lat="43.9833633" lon="11.0691767"><ele>844.3333333333333</ele><time>2026-04-25T07:51:04.813Z</time></trkpt><trkpt lat="43.9833683" lon="11.0690583"><ele>843.6666666666666</ele><time>2026-04-25T07:51:05.82Z</time></trkpt><trkpt lat="43.9833833" lon="11.06894"><ele>843.0</ele><time>2026-04-25T07:51:06.826Z</time></trkpt><trkpt lat="43.98341" lon="11.0688217"><ele>843.0</ele><time>2026-04-25T07:51:07.833Z</time></trkpt><trkpt lat="43.9834383" lon="11.0687"><ele>843.0</ele><time>2026-04-25T07:51:08.772Z</time></trkpt><trkpt lat="43.9834633" lon="11.06857"><ele>843.0</ele><time>2026-04-25T07:51:09.779Z</time></trkpt><trkpt lat="43.9834917" lon="11.0684367"><ele>843.0</ele><time>2026-04-25T07:51:10.786Z</time></trkpt><trkpt lat="43.9835217" lon="11.0683017"><ele>843.0</ele><time>2026-04-25T07:51:11.791Z</time></trkpt><trkpt lat="43.9835433" lon="11.0681633"><ele>846.4</ele><time>2026-04-25T07:51:12.799Z</time></trkpt><trkpt lat="43.9835617" lon="11.068035"><ele>849.8</ele><time>2026-04-25T07:51:13.806Z</time></trkpt><trkpt lat="43.9835883" lon="11.0679167"><ele>853.2</ele><time>2026-04-25T07:51:14.812Z</time></trkpt><trkpt lat="43.9836283" lon="11.0677883"><ele>856.6</ele><time>2026-04-25T07:51:15.819Z</time></trkpt><trkpt lat="43.9836733" lon="11.0676567"><ele>860.0</ele><time>2026-04-25T07:51:16.825Z</time></trkpt><trkpt lat="43.9837167" lon="11.0675233"><ele>860.6666666666667</ele><time>2026-04-25T07:51:17.832Z</time></trkpt><trkpt lat="43.9837617" lon="11.0673967"><ele>861.3333333333334</ele><time>2026-04-25T07:51:18.771Z</time></trkpt><trkpt lat="43.9838033" lon="11.0672817"><ele>862.0</ele><time>2026-04-25T07:51:19.778Z</time></trkpt><trkpt lat="43.9838433" lon="11.0671767"><ele>862.6666666666667</ele><time>2026-04-25T07:51:20.785Z</time></trkpt><trkpt lat="43.9838717" lon="11.067085"><ele>863.3333333333334</ele><time>2026-04-25T07:51:21.791Z</time></trkpt><trkpt lat="43.9838917" lon="11.0669867"><ele>864.0</ele><time>2026-04-25T07:51:22.865Z</time></trkpt><trkpt lat="43.983905" lon="11.0668767"><ele>864.0</ele><time>2026-04-25T07:51:23.804Z</time></trkpt><trkpt lat="43.9839067" lon="11.0667367"><ele>864.0000000000001</ele><time>2026-04-25T07:51:24.811Z</time></trkpt><trkpt lat="43.983915" lon="11.0666"><ele>864.0000000000001</ele><time>2026-04-25T07:51:25.818Z</time></trkpt><trkpt lat="43.98393" lon="11.0664517"><ele>864.0</ele><time>2026-04-25T07:51:26.825Z</time></trkpt><trkpt lat="43.98396" lon="11.066295"><ele>864.0</ele><time>2026-04-25T07:51:27.831Z</time></trkpt><trkpt lat="43.9840033" lon="11.0661267"><ele>864.6</ele><time>2026-04-25T07:51:28.771Z</time></trkpt><trkpt lat="43.9840533" lon="11.065975"><ele>865.2</ele><time>2026-04-25T07:51:29.777Z</time></trkpt><trkpt lat="43.984095" lon="11.065845"><ele>865.8000000000001</ele><time>2026-04-25T07:51:30.851Z</time></trkpt><trkpt lat="43.9841283" lon="11.0657117"><ele>866.4000000000001</ele><time>2026-04-25T07:51:31.858Z</time></trkpt><trkpt lat="43.984155" lon="11.0655867"><ele>867.0</ele><time>2026-04-25T07:51:32.796Z</time></trkpt><trkpt lat="43.9841717" lon="11.0654617"><ele>868.3333333333334</ele><time>2026-04-25T07:51:33.804Z</time></trkpt><trkpt lat="43.98418" lon="11.0653467"><ele>869.6666666666667</ele><time>2026-04-25T07:51:34.811Z</time></trkpt><trkpt lat="43.9841767" lon="11.0652267"><ele>871.0</ele><time>2026-04-25T07:51:35.817Z</time></trkpt><trkpt lat="43.98416" lon="11.0651117"><ele>872.3333333333334</ele><time>2026-04-25T07:51:36.824Z</time></trkpt><trkpt lat="43.9841317" lon="11.0649867"><ele>873.6666666666667</ele><time>2026-04-25T07:51:37.763Z</time></trkpt><trkpt lat="43.9841067" lon="11.0648633"><ele>875.0</ele><time>2026-04-25T07:51:38.77Z</time></trkpt><trkpt lat="43.9840883" lon="11.0647417"><ele>876.0</ele><time>2026-04-25T07:51:39.844Z</time></trkpt><trkpt lat="43.984085" lon="11.064615"><ele>877.0</ele><time>2026-04-25T07:51:40.85Z</time></trkpt><trkpt lat="43.98411" lon="11.064505"><ele>878.0</ele><time>2026-04-25T07:51:41.856Z</time></trkpt><trkpt lat="43.984135" lon="11.0643767"><ele>879.0</ele><time>2026-04-25T07:51:42.797Z</time></trkpt><trkpt lat="43.984155" lon="11.0642417"><ele>880.0</ele><time>2026-04-25T07:51:43.803Z</time></trkpt><trkpt lat="43.984175" lon="11.0641117"><ele>876.4</ele><time>2026-04-25T07:51:44.81Z</time></trkpt><trkpt lat="43.98419" lon="11.063985"><ele>872.8</ele><time>2026-04-25T07:51:45.815Z</time></trkpt><trkpt lat="43.9842" lon="11.0638617"><ele>869.2</ele><time>2026-04-25T07:51:46.823Z</time></trkpt><trkpt lat="43.9842083" lon="11.063735"><ele>865.6</ele><time>2026-04-25T07:51:47.829Z</time></trkpt><trkpt lat="43.9842183" lon="11.0636033"><ele>862.0</ele><time>2026-04-25T07:51:48.835Z</time></trkpt><trkpt lat="43.9842233" lon="11.063475"><ele>862.0</ele><time>2026-04-25T07:51:49.843Z</time></trkpt><trkpt lat="43.984225" lon="11.0633483"><ele>862.0</ele><time>2026-04-25T07:51:50.85Z</time></trkpt><trkpt lat="43.9842283" lon="11.0632233"><ele>862.0</ele><time>2026-04-25T07:51:51.856Z</time></trkpt><trkpt lat="43.9842367" lon="11.0631017"><ele>862.0</ele><time>2026-04-25T07:51:52.796Z</time></trkpt><trkpt lat="43.9842567" lon="11.0629767"><ele>862.0</ele><time>2026-04-25T07:51:53.802Z</time></trkpt><trkpt lat="43.9842967" lon="11.0628317"><ele>862.25</ele><time>2026-04-25T07:51:54.809Z</time></trkpt><trkpt lat="43.9843433" lon="11.0626717"><ele>862.5</ele><time>2026-04-25T07:51:55.816Z</time></trkpt><trkpt lat="43.98439" lon="11.06251"><ele>862.75</ele><time>2026-04-25T07:51:56.821Z</time></trkpt><trkpt lat="43.9844383" lon="11.06237"><ele>863.0</ele><time>2026-04-25T07:51:57.829Z</time></trkpt><trkpt lat="43.9844967" lon="11.0622417"><ele>865.0</ele><time>2026-04-25T07:51:58.836Z</time></trkpt><trkpt lat="43.9845583" lon="11.06213"><ele>867.0</ele><time>2026-04-25T07:51:59.841Z</time></trkpt><trkpt lat="43.9846183" lon="11.062025"><ele>869.0</ele><time>2026-04-25T07:52:00.849Z</time></trkpt><trkpt lat="43.9846717" lon="11.0619183"><ele>871.0</ele><time>2026-04-25T07:52:01.855Z</time></trkpt><trkpt lat="43.9847267" lon="11.061815"><ele>873.0</ele><time>2026-04-25T07:52:02.795Z</time></trkpt><trkpt lat="43.9847817" lon="11.0617183"><ele>873.0</ele><time>2026-04-25T07:52:03.802Z</time></trkpt><trkpt lat="43.9848383" lon="11.06163"><ele>873.0</ele><time>2026-04-25T07:52:04.808Z</time></trkpt><trkpt lat="43.9849017" lon="11.0615583"><ele>873.0</ele><time>2026-04-25T07:52:05.815Z</time></trkpt><trkpt lat="43.984965" lon="11.0614917"><ele>873.0</ele><time>2026-04-25T07:52:06.822Z</time></trkpt><trkpt lat="43.9850167" lon="11.0614383"><ele>873.0</ele><time>2026-04-25T07:52:07.827Z</time></trkpt><trkpt lat="43.985085" lon="11.061325"><ele>873.0</ele><time>2026-04-25T07:52:09.841Z</time></trkpt><trkpt lat="43.9850967" lon="11.0611717"><ele>874.6666666666666</ele><time>2026-04-25T07:52:11.855Z</time></trkpt><trkpt lat="43.9850817" lon="11.0610717"><ele>876.3333333333333</ele><time>2026-04-25T07:52:12.794Z</time></trkpt><trkpt lat="43.9850583" lon="11.060955"><ele>878.0</ele><time>2026-04-25T07:52:13.801Z</time></trkpt><trkpt lat="43.9850333" lon="11.060835"><ele>879.6666666666666</ele><time>2026-04-25T07:52:14.807Z</time></trkpt><trkpt lat="43.985015" lon="11.06072"><ele>881.3333333333333</ele><time>2026-04-25T07:52:15.813Z</time></trkpt><trkpt lat="43.9849933" lon="11.06062"><ele>883.0</ele><time>2026-04-25T07:52:16.821Z</time></trkpt><trkpt lat="43.98497" lon="11.0605283"><ele>883.0</ele><time>2026-04-25T07:52:17.826Z</time></trkpt><trkpt lat="43.984945" lon="11.0604467"><ele>883.0</ele><time>2026-04-25T07:52:18.834Z</time></trkpt><trkpt lat="43.98493" lon="11.0603167"><ele>883.0</ele><time>2026-04-25T07:52:20.847Z</time></trkpt><trkpt lat="43.9849683" lon="11.0602217"><ele>883.0</ele><time>2026-04-25T07:52:22.793Z</time></trkpt><trkpt lat="43.9850533" lon="11.0600833"><ele>883.0</ele><time>2026-04-25T07:52:24.806Z</time></trkpt><trkpt lat="43.9851183" lon="11.0600067"><ele>881.8333333333333</ele><time>2026-04-25T07:52:25.813Z</time></trkpt><trkpt lat="43.9851817" lon="11.0599283"><ele>880.6666666666666</ele><time>2026-04-25T07:52:26.82Z</time></trkpt><trkpt lat="43.9852383" lon="11.0598383"><ele>879.5</ele><time>2026-04-25T07:52:27.827Z</time></trkpt><trkpt lat="43.9852767" lon="11.0597267"><ele>878.3333333333333</ele><time>2026-04-25T07:52:28.832Z</time></trkpt><trkpt lat="43.9853133" lon="11.05963"><ele>877.1666666666666</ele><time>2026-04-25T07:52:29.84Z</time></trkpt><trkpt lat="43.985355" lon="11.0595517"><ele>876.0</ele><time>2026-04-25T07:52:30.847Z</time></trkpt><trkpt lat="43.9854083" lon="11.0594967"><ele>876.0</ele><time>2026-04-25T07:52:31.785Z</time></trkpt><trkpt lat="43.9854833" lon="11.0594517"><ele>875.9999999999999</ele><time>2026-04-25T07:52:32.792Z</time></trkpt><trkpt lat="43.9855683" lon="11.059405"><ele>875.9999999999999</ele><time>2026-04-25T07:52:33.798Z</time></trkpt><trkpt lat="43.985655" lon="11.05935"><ele>876.0</ele><time>2026-04-25T07:52:34.806Z</time></trkpt><trkpt lat="43.9857383" lon="11.0592883"><ele>876.0</ele><time>2026-04-25T07:52:35.813Z</time></trkpt><trkpt lat="43.985815" lon="11.05923"><ele>875.1666666666666</ele><time>2026-04-25T07:52:36.819Z</time></trkpt><trkpt lat="43.985885" lon="11.0591567"><ele>874.3333333333333</ele><time>2026-04-25T07:52:37.825Z</time></trkpt><trkpt lat="43.98595" lon="11.05907"><ele>873.5</ele><time>2026-04-25T07:52:38.832Z</time></trkpt><trkpt lat="43.9860117" lon="11.0589817"><ele>872.6666666666666</ele><time>2026-04-25T07:52:39.839Z</time></trkpt><trkpt lat="43.986075" lon="11.0588833"><ele>871.8333333333333</ele><time>2026-04-25T07:52:40.846Z</time></trkpt><trkpt lat="43.986125" lon="11.0587983"><ele>871.0</ele><time>2026-04-25T07:52:41.784Z</time></trkpt><trkpt lat="43.9861767" lon="11.0587233"><ele>870.9999999999999</ele><time>2026-04-25T07:52:42.791Z</time></trkpt><trkpt lat="43.98623" lon="11.058655"><ele>871.0</ele><time>2026-04-25T07:52:43.798Z</time></trkpt><trkpt lat="43.9862933" lon="11.0585917"><ele>871.0</ele><time>2026-04-25T07:52:44.805Z</time></trkpt><trkpt lat="43.98636" lon="11.05853"><ele>871.0</ele><time>2026-04-25T07:52:45.812Z</time></trkpt><trkpt lat="43.986435" lon="11.0584667"><ele>870.9999999999999</ele><time>2026-04-25T07:52:46.818Z</time></trkpt><trkpt lat="43.9865017" lon="11.0584333"><ele>871.0</ele><time>2026-04-25T07:52:47.825Z</time></trkpt><trkpt lat="43.98658" lon="11.058395"><ele>870.9999999999999</ele><time>2026-04-25T07:52:48.831Z</time></trkpt><trkpt lat="43.9866567" lon="11.058375"><ele>871.0</ele><time>2026-04-25T07:52:49.837Z</time></trkpt><trkpt lat="43.9867483" lon="11.058355"><ele>871.0</ele><time>2026-04-25T07:52:50.845Z</time></trkpt><trkpt lat="43.9868333" lon="11.0583683"><ele>871.0</ele><time>2026-04-25T07:52:51.784Z</time></trkpt><trkpt lat="43.98691" lon="11.0583883"><ele>870.9999999999999</ele><time>2026-04-25T07:52:52.791Z</time></trkpt><trkpt lat="43.9869783" lon="11.0584067"><ele>871.0</ele><time>2026-04-25T07:52:53.798Z</time></trkpt><trkpt lat="43.987055" lon="11.058405"><ele>870.5714285714286</ele><time>2026-04-25T07:52:54.804Z</time></trkpt><trkpt lat="43.9871267" lon="11.058385"><ele>870.1428571428571</ele><time>2026-04-25T07:52:55.811Z</time></trkpt><trkpt lat="43.9871967" lon="11.0583383"><ele>869.7142857142858</ele><time>2026-04-25T07:52:56.818Z</time></trkpt><trkpt lat="43.9872633" lon="11.0582683"><ele>869.2857142857142</ele><time>2026-04-25T07:52:57.824Z</time></trkpt><trkpt lat="43.987325" lon="11.058205"><ele>868.8571428571429</ele><time>2026-04-25T07:52:58.83Z</time></trkpt><trkpt lat="43.98738" lon="11.0581433"><ele>868.4285714285714</ele><time>2026-04-25T07:52:59.837Z</time></trkpt><trkpt lat="43.9874317" lon="11.0580917"><ele>868.0</ele><time>2026-04-25T07:53:00.777Z</time></trkpt><trkpt lat="43.98753" lon="11.05801"><ele>867.9999999999999</ele><time>2026-04-25T07:53:02.79Z</time></trkpt><trkpt lat="43.9876117" lon="11.0579617"><ele>868.0</ele><time>2026-04-25T07:53:04.804Z</time></trkpt><trkpt lat="43.9876817" lon="11.0579417"><ele>868.0</ele><time>2026-04-25T07:53:06.817Z</time></trkpt><trkpt lat="43.9876483" lon="11.05783"><ele>868.0</ele><time>2026-04-25T07:55:01.841Z</time></trkpt><trkpt lat="43.98771" lon="11.0579095"><ele>867.9999999999999</ele><time>2026-04-25T07:59:29.193Z</time></trkpt><trkpt lat="43.9876333" lon="11.0579183"><ele>868.0</ele><time>2026-04-25T08:04:40.79Z</time></trkpt><trkpt lat="43.9875467" lon="11.0579467"><ele>867.9999999999999</ele><time>2026-04-25T08:04:43.81Z</time></trkpt><trkpt lat="43.9875017" lon="11.0578717"><ele>868.0</ele><time>2026-04-25T08:05:01.795Z</time></trkpt><trkpt lat="43.9875133" lon="11.0577383"><ele>868.0</ele><time>2026-04-25T08:05:03.808Z</time></trkpt><trkpt lat="43.9875533" lon="11.0576083"><ele>868.0</ele><time>2026-04-25T08:05:05.821Z</time></trkpt><trkpt lat="43.987645" lon="11.05754"><ele>867.9999999999999</ele><time>2026-04-25T08:05:07.834Z</time></trkpt><trkpt lat="43.98771" lon="11.0575217"><ele>868.0</ele><time>2026-04-25T08:05:08.841Z</time></trkpt><trkpt lat="43.987775" lon="11.0575183"><ele>867.9999999999999</ele><time>2026-04-25T08:05:09.781Z</time></trkpt><trkpt lat="43.98784" lon="11.0575167"><ele>868.0</ele><time>2026-04-25T08:05:10.786Z</time></trkpt><trkpt lat="43.9879033" lon="11.05751"><ele>868.0</ele><time>2026-04-25T08:05:11.794Z</time></trkpt><trkpt lat="43.9880167" lon="11.05744"><ele>868.0</ele><time>2026-04-25T08:05:13.807Z</time></trkpt><trkpt lat="43.9880783" lon="11.0573717"><ele>867.9999999999999</ele><time>2026-04-25T08:05:14.814Z</time></trkpt><trkpt lat="43.9881383" lon="11.0572867"><ele>868.0</ele><time>2026-04-25T08:05:15.82Z</time></trkpt><trkpt lat="43.9881883" lon="11.0571933"><ele>866.1428571428571</ele><time>2026-04-25T08:05:16.827Z</time></trkpt><trkpt lat="43.9882317" lon="11.0571"><ele>864.2857142857142</ele><time>2026-04-25T08:05:17.834Z</time></trkpt><trkpt lat="43.9882717" lon="11.0570067"><ele>862.4285714285714</ele><time>2026-04-25T08:05:18.84Z</time></trkpt><trkpt lat="43.9883" lon="11.0569133"><ele>860.5714285714286</ele><time>2026-04-25T08:05:19.779Z</time></trkpt><trkpt lat="43.9883167" lon="11.056815"><ele>858.7142857142857</ele><time>2026-04-25T08:05:20.787Z</time></trkpt><trkpt lat="43.9883183" lon="11.0567217"><ele>856.8571428571429</ele><time>2026-04-25T08:05:21.793Z</time></trkpt><trkpt lat="43.9883183" lon="11.0566283"><ele>855.0</ele><time>2026-04-25T08:05:22.8Z</time></trkpt><trkpt lat="43.9883367" lon="11.0564633"><ele>861.0</ele><time>2026-04-25T08:05:24.812Z</time></trkpt><trkpt lat="43.9883817" lon="11.0563283"><ele>867.0</ele><time>2026-04-25T08:05:26.826Z</time></trkpt><trkpt lat="43.9884" lon="11.0561967"><ele>873.0</ele><time>2026-04-25T08:05:28.84Z</time></trkpt><trkpt lat="43.9883867" lon="11.0560683"><ele>879.0</ele><time>2026-04-25T08:05:30.786Z</time></trkpt><trkpt lat="43.9883833" lon="11.0559383"><ele>885.0</ele><time>2026-04-25T08:05:32.799Z</time></trkpt><trkpt lat="43.9883917" lon="11.0558333"><ele>883.6666666666666</ele><time>2026-04-25T08:05:34.811Z</time></trkpt><trkpt lat="43.9883917" lon="11.0557333"><ele>882.3333333333333</ele><time>2026-04-25T08:05:36.825Z</time></trkpt><trkpt lat="43.9883917" lon="11.05564"><ele>881.0</ele><time>2026-04-25T08:05:38.839Z</time></trkpt><trkpt lat="43.9883917" lon="11.0555433"><ele>879.6666666666666</ele><time>2026-04-25T08:05:40.785Z</time></trkpt><trkpt lat="43.9883817" lon="11.0554217"><ele>878.3333333333333</ele><time>2026-04-25T08:05:42.797Z</time></trkpt><trkpt lat="43.9883867" lon="11.0552867"><ele>877.0</ele><time>2026-04-25T08:05:44.811Z</time></trkpt><trkpt lat="43.9884183" lon="11.0551233"><ele>877.0</ele><time>2026-04-25T08:05:46.825Z</time></trkpt><trkpt lat="43.9884567" lon="11.0549883"><ele>877.0</ele><time>2026-04-25T08:05:48.771Z</time></trkpt><trkpt lat="43.9885" lon="11.05486"><ele>877.0</ele><time>2026-04-25T08:05:50.784Z</time></trkpt><trkpt lat="43.988535" lon="11.0547433"><ele>877.0</ele><time>2026-04-25T08:05:52.797Z</time></trkpt><trkpt lat="43.9885567" lon="11.0546033"><ele>877.0</ele><time>2026-04-25T08:05:54.811Z</time></trkpt><trkpt lat="43.9885567" lon="11.054515"><ele>875.4999999999999</ele><time>2026-04-25T08:05:55.817Z</time></trkpt><trkpt lat="43.9885583" lon="11.05442"><ele>874.0</ele><time>2026-04-25T08:05:56.824Z</time></trkpt><trkpt lat="43.98856" lon="11.054315"><ele>872.5</ele><time>2026-04-25T08:05:57.831Z</time></trkpt><trkpt lat="43.9885683" lon="11.0542"><ele>871.0</ele><time>2026-04-25T08:05:58.769Z</time></trkpt><trkpt lat="43.9885817" lon="11.0540833"><ele>869.4999999999999</ele><time>2026-04-25T08:05:59.777Z</time></trkpt><trkpt lat="43.9885983" lon="11.0539717"><ele>868.0</ele><time>2026-04-25T08:06:00.783Z</time></trkpt><trkpt lat="43.9886167" lon="11.053865"><ele>862.9999999999999</ele><time>2026-04-25T08:06:01.79Z</time></trkpt><trkpt lat="43.9886367" lon="11.0537633"><ele>858.0</ele><time>2026-04-25T08:06:02.796Z</time></trkpt><trkpt lat="43.988665" lon="11.0536517"><ele>853.0</ele><time>2026-04-25T08:06:03.803Z</time></trkpt><trkpt lat="43.9887017" lon="11.0535467"><ele>848.0</ele><time>2026-04-25T08:06:04.81Z</time></trkpt><trkpt lat="43.9887417" lon="11.053455"><ele>842.9999999999999</ele><time>2026-04-25T08:06:05.817Z</time></trkpt><trkpt lat="43.988785" lon="11.0533667"><ele>838.0</ele><time>2026-04-25T08:06:06.823Z</time></trkpt><trkpt lat="43.9888283" lon="11.0532933"><ele>838.5999999999999</ele><time>2026-04-25T08:06:07.83Z</time></trkpt><trkpt lat="43.988915" lon="11.0532"><ele>839.1999999999999</ele><time>2026-04-25T08:06:09.776Z</time></trkpt><trkpt lat="43.9890233" lon="11.053165"><ele>839.8</ele><time>2026-04-25T08:06:11.856Z</time></trkpt><trkpt lat="43.9891517" lon="11.0531433"><ele>840.4</ele><time>2026-04-25T08:06:13.803Z</time></trkpt><trkpt lat="43.9892183" lon="11.0531417"><ele>841.0</ele><time>2026-04-25T08:06:14.808Z</time></trkpt><trkpt lat="43.98928" lon="11.0531217"><ele>840.9999999999999</ele><time>2026-04-25T08:06:15.816Z</time></trkpt><trkpt lat="43.9893433" lon="11.0530917"><ele>841.0</ele><time>2026-04-25T08:06:16.822Z</time></trkpt><trkpt lat="43.9894" lon="11.053045"><ele>841.0</ele><time>2026-04-25T08:06:17.829Z</time></trkpt><trkpt lat="43.98951" lon="11.0529583"><ele>841.0</ele><time>2026-04-25T08:06:19.841Z</time></trkpt><trkpt lat="43.9895683" lon="11.0529233"><ele>840.9999999999999</ele><time>2026-04-25T08:06:20.849Z</time></trkpt><trkpt lat="43.9896783" lon="11.0528633"><ele>841.0</ele><time>2026-04-25T08:06:22.862Z</time></trkpt><trkpt lat="43.9897583" lon="11.0528167"><ele>840.9999999999999</ele><time>2026-04-25T08:06:24.808Z</time></trkpt><trkpt lat="43.9898117" lon="11.0527683"><ele>841.0</ele><time>2026-04-25T08:06:26.821Z</time></trkpt><trkpt lat="43.989855" lon="11.0526717"><ele>841.0</ele><time>2026-04-25T08:06:28.835Z</time></trkpt><trkpt lat="43.9899033" lon="11.0525833"><ele>841.0</ele><time>2026-04-25T08:06:30.847Z</time></trkpt><trkpt lat="43.9899417" lon="11.0524883"><ele>840.9999999999999</ele><time>2026-04-25T08:06:32.793Z</time></trkpt><trkpt lat="43.9899383" lon="11.05238"><ele>841.0</ele><time>2026-04-25T08:06:36.821Z</time></trkpt><trkpt lat="43.989895" lon="11.0522617"><ele>840.4</ele><time>2026-04-25T08:06:38.833Z</time></trkpt><trkpt lat="43.9898283" lon="11.05214"><ele>839.8</ele><time>2026-04-25T08:06:40.847Z</time></trkpt><trkpt lat="43.9897917" lon="11.052065"><ele>839.1999999999999</ele><time>2026-04-25T08:06:41.854Z</time></trkpt><trkpt lat="43.9897467" lon="11.0518817"><ele>838.5999999999999</ele><time>2026-04-25T08:06:43.8Z</time></trkpt><trkpt lat="43.98973" lon="11.0517683"><ele>838.0</ele><time>2026-04-25T08:06:44.806Z</time></trkpt><trkpt lat="43.9897283" lon="11.0516633"><ele>837.3333333333333</ele><time>2026-04-25T08:06:45.813Z</time></trkpt><trkpt lat="43.9897333" lon="11.051545"><ele>836.6666666666666</ele><time>2026-04-25T08:06:46.82Z</time></trkpt><trkpt lat="43.98975" lon="11.05145"><ele>836.0</ele><time>2026-04-25T08:06:47.826Z</time></trkpt><trkpt lat="43.9897817" lon="11.051335"><ele>835.3333333333333</ele><time>2026-04-25T08:06:48.833Z</time></trkpt><trkpt lat="43.9897967" lon="11.0512267"><ele>834.6666666666666</ele><time>2026-04-25T08:06:49.84Z</time></trkpt><trkpt lat="43.9898317" lon="11.0511033"><ele>834.0</ele><time>2026-04-25T08:06:51.853Z</time></trkpt><trkpt lat="43.9898433" lon="11.0510167"><ele>834.0</ele><time>2026-04-25T08:06:53.798Z</time></trkpt><trkpt lat="43.9898783" lon="11.050875"><ele>834.0</ele><time>2026-04-25T08:06:55.813Z</time></trkpt><trkpt lat="43.9898667" lon="11.0507533"><ele>834.0</ele><time>2026-04-25T08:06:57.826Z</time></trkpt><trkpt lat="43.9898" lon="11.0507133"><ele>834.0</ele><time>2026-04-25T08:06:59.839Z</time></trkpt><trkpt lat="43.98973" lon="11.0506817"><ele>834.0</ele><time>2026-04-25T08:07:01.852Z</time></trkpt><trkpt lat="43.9896767" lon="11.0505933"><ele>834.0</ele><time>2026-04-25T08:07:03.799Z</time></trkpt><trkpt lat="43.9896067" lon="11.0504917"><ele>834.6666666666666</ele><time>2026-04-25T08:07:05.812Z</time></trkpt><trkpt lat="43.9895733" lon="11.0504017"><ele>835.3333333333333</ele><time>2026-04-25T08:07:07.825Z</time></trkpt><trkpt lat="43.9895317" lon="11.0503"><ele>836.0</ele><time>2026-04-25T08:07:10.845Z</time></trkpt><trkpt lat="43.9894767" lon="11.0501983"><ele>836.6666666666666</ele><time>2026-04-25T08:07:13.798Z</time></trkpt><trkpt lat="43.9894317" lon="11.05011"><ele>837.3333333333333</ele><time>2026-04-25T08:07:15.811Z</time></trkpt><trkpt lat="43.98947" lon="11.0500117"><ele>838.0</ele><time>2026-04-25T08:07:16.817Z</time></trkpt><trkpt lat="43.989495" lon="11.0499283"><ele>838.0</ele><time>2026-04-25T08:07:17.824Z</time></trkpt><trkpt lat="43.9895267" lon="11.04984"><ele>838.0</ele><time>2026-04-25T08:07:18.831Z</time></trkpt><trkpt lat="43.9895633" lon="11.04974"><ele>838.0</ele><time>2026-04-25T08:07:19.838Z</time></trkpt><trkpt lat="43.9896033" lon="11.0496267"><ele>838.0</ele><time>2026-04-25T08:07:20.844Z</time></trkpt><trkpt lat="43.9896367" lon="11.049485"><ele>838.0</ele><time>2026-04-25T08:07:21.784Z</time></trkpt><trkpt lat="43.9896683" lon="11.0493333"><ele>838.0</ele><time>2026-04-25T08:07:22.79Z</time></trkpt><trkpt lat="43.989705" lon="11.0491433"><ele>838.0</ele><time>2026-04-25T08:07:23.796Z</time></trkpt><trkpt lat="43.9897317" lon="11.049"><ele>838.0</ele><time>2026-04-25T08:07:24.804Z</time></trkpt><trkpt lat="43.9897667" lon="11.0488267"><ele>838.0</ele><time>2026-04-25T08:07:25.81Z</time></trkpt><trkpt lat="43.9897933" lon="11.04868"><ele>837.4</ele><time>2026-04-25T08:07:26.817Z</time></trkpt><trkpt lat="43.98982" lon="11.0485483"><ele>836.8</ele><time>2026-04-25T08:07:27.823Z</time></trkpt><trkpt lat="43.9898533" lon="11.0484167"><ele>836.2</ele><time>2026-04-25T08:07:28.83Z</time></trkpt><trkpt lat="43.98989" lon="11.0482733"><ele>835.6</ele><time>2026-04-25T08:07:29.837Z</time></trkpt><trkpt lat="43.9899283" lon="11.04813"><ele>835.0</ele><time>2026-04-25T08:07:30.843Z</time></trkpt><trkpt lat="43.9899567" lon="11.047995"><ele>834.4999999999999</ele><time>2026-04-25T08:07:31.783Z</time></trkpt><trkpt lat="43.9899783" lon="11.0478767"><ele>834.0</ele><time>2026-04-25T08:07:32.79Z</time></trkpt><trkpt lat="43.9899967" lon="11.0477583"><ele>833.5</ele><time>2026-04-25T08:07:33.795Z</time></trkpt><trkpt lat="43.9900133" lon="11.0476583"><ele>833.0</ele><time>2026-04-25T08:07:34.802Z</time></trkpt><trkpt lat="43.9900433" lon="11.047575"><ele>832.4999999999999</ele><time>2026-04-25T08:07:35.81Z</time></trkpt><trkpt lat="43.9901033" lon="11.0474333"><ele>832.0</ele><time>2026-04-25T08:07:37.823Z</time></trkpt><trkpt lat="43.9901817" lon="11.0473083"><ele>832.0</ele><time>2026-04-25T08:07:39.835Z</time></trkpt><trkpt lat="43.9902317" lon="11.04723"><ele>832.0</ele><time>2026-04-25T08:07:40.843Z</time></trkpt><trkpt lat="43.9902733" lon="11.0471583"><ele>832.0</ele><time>2026-04-25T08:07:41.782Z</time></trkpt><trkpt lat="43.99036" lon="11.04705"><ele>832.0</ele><time>2026-04-25T08:07:43.796Z</time></trkpt><trkpt lat="43.9904467" lon="11.0469733"><ele>832.0</ele><time>2026-04-25T08:07:45.809Z</time></trkpt><trkpt lat="43.9905467" lon="11.0469167"><ele>832.0</ele><time>2026-04-25T08:07:47.822Z</time></trkpt><trkpt lat="43.9906433" lon="11.046895"><ele>832.0</ele><time>2026-04-25T08:07:49.834Z</time></trkpt><trkpt lat="43.9907133" lon="11.046865"><ele>832.0</ele><time>2026-04-25T08:07:51.781Z</time></trkpt><trkpt lat="43.99078" lon="11.0468033"><ele>832.0</ele><time>2026-04-25T08:07:53.795Z</time></trkpt><trkpt lat="43.990875" lon="11.0466883"><ele>832.0</ele><time>2026-04-25T08:07:56.815Z</time></trkpt><trkpt lat="43.9908567" lon="11.0465833"><ele>836.4000000000001</ele><time>2026-04-25T08:07:58.828Z</time></trkpt><trkpt lat="43.9908133" lon="11.0465183"><ele>840.8000000000001</ele><time>2026-04-25T08:08:00.773Z</time></trkpt><trkpt lat="43.9907467" lon="11.0464283"><ele>845.2</ele><time>2026-04-25T08:08:02.786Z</time></trkpt><trkpt lat="43.9906717" lon="11.04628"><ele>849.6</ele><time>2026-04-25T08:08:04.801Z</time></trkpt><trkpt lat="43.9906283" lon="11.0462133"><ele>854.0</ele><time>2026-04-25T08:08:05.807Z</time></trkpt><trkpt lat="43.990525" lon="11.046135"><ele>854.0</ele><time>2026-04-25T08:08:07.82Z</time></trkpt><trkpt lat="43.9904733" lon="11.0460767"><ele>854.0</ele><time>2026-04-25T08:08:08.827Z</time></trkpt><trkpt lat="43.99042" lon="11.046"><ele>854.0</ele><time>2026-04-25T08:08:09.834Z</time></trkpt><trkpt lat="43.9903733" lon="11.0459317"><ele>854.0</ele><time>2026-04-25T08:08:10.773Z</time></trkpt><trkpt lat="43.9903383" lon="11.0458433"><ele>854.0</ele><time>2026-04-25T08:08:11.78Z</time></trkpt><trkpt lat="43.9903033" lon="11.045765"><ele>854.0</ele><time>2026-04-25T08:08:12.787Z</time></trkpt><trkpt lat="43.9902583" lon="11.0456917"><ele>854.0</ele><time>2026-04-25T08:08:13.793Z</time></trkpt><trkpt lat="43.9902117" lon="11.04562"><ele>856.6</ele><time>2026-04-25T08:08:14.8Z</time></trkpt><trkpt lat="43.99016" lon="11.0455367"><ele>859.2</ele><time>2026-04-25T08:08:15.806Z</time></trkpt><trkpt lat="43.990055" lon="11.045465"><ele>861.8000000000001</ele><time>2026-04-25T08:08:17.82Z</time></trkpt><trkpt lat="43.98997" lon="11.0453867"><ele>864.4000000000001</ele><time>2026-04-25T08:08:19.833Z</time></trkpt><trkpt lat="43.9898833" lon="11.0452683"><ele>867.0</ele><time>2026-04-25T08:08:21.779Z</time></trkpt><trkpt lat="43.9898567" lon="11.0451833"><ele>861.1666666666666</ele><time>2026-04-25T08:08:22.786Z</time></trkpt><trkpt lat="43.9898433" lon="11.04508"><ele>855.3333333333333</ele><time>2026-04-25T08:08:23.792Z</time></trkpt><trkpt lat="43.98982" lon="11.04498"><ele>849.5</ele><time>2026-04-25T08:08:24.799Z</time></trkpt><trkpt lat="43.98978" lon="11.04487"><ele>843.6666666666666</ele><time>2026-04-25T08:08:25.806Z</time></trkpt><trkpt lat="43.98973" lon="11.0447567"><ele>837.8333333333333</ele><time>2026-04-25T08:08:26.812Z</time></trkpt><trkpt lat="43.9896833" lon="11.044665"><ele>832.0</ele><time>2026-04-25T08:08:27.819Z</time></trkpt><trkpt lat="43.989655" lon="11.0445733"><ele>831.0</ele><time>2026-04-25T08:08:28.826Z</time></trkpt><trkpt lat="43.9896167" lon="11.0444067"><ele>830.0</ele><time>2026-04-25T08:08:30.772Z</time></trkpt><trkpt lat="43.98963" lon="11.04425"><ele>829.0</ele><time>2026-04-25T08:08:32.784Z</time></trkpt><trkpt lat="43.9896817" lon="11.0441517"><ele>828.0</ele><time>2026-04-25T08:08:34.865Z</time></trkpt><trkpt lat="43.9897767" lon="11.0440767"><ele>827.0</ele><time>2026-04-25T08:08:36.812Z</time></trkpt><trkpt lat="43.9898433" lon="11.04406"><ele>829.6</ele><time>2026-04-25T08:08:37.818Z</time></trkpt><trkpt lat="43.989955" lon="11.0439967"><ele>832.2</ele><time>2026-04-25T08:08:39.763Z</time></trkpt><trkpt lat="43.9900633" lon="11.04392"><ele>834.8</ele><time>2026-04-25T08:08:41.778Z</time></trkpt><trkpt lat="43.9901083" lon="11.0438517"><ele>837.4</ele><time>2026-04-25T08:08:42.851Z</time></trkpt><trkpt lat="43.9901433" lon="11.043765"><ele>840.0</ele><time>2026-04-25T08:08:43.858Z</time></trkpt><trkpt lat="43.9901817" lon="11.0436717"><ele>840.0</ele><time>2026-04-25T08:08:44.797Z</time></trkpt><trkpt lat="43.9902283" lon="11.0435983"><ele>840.0</ele><time>2026-04-25T08:08:45.804Z</time></trkpt><trkpt lat="43.9902817" lon="11.043535"><ele>840.0</ele><time>2026-04-25T08:08:46.811Z</time></trkpt><trkpt lat="43.99035" lon="11.04348"><ele>840.0</ele><time>2026-04-25T08:08:47.817Z</time></trkpt><trkpt lat="43.9904233" lon="11.0434483"><ele>840.0</ele><time>2026-04-25T08:08:48.824Z</time></trkpt><trkpt lat="43.9904917" lon="11.0434333"><ele>840.0</ele><time>2026-04-25T08:08:49.764Z</time></trkpt><trkpt lat="43.9905567" lon="11.0434183"><ele>840.0</ele><time>2026-04-25T08:08:50.837Z</time></trkpt><trkpt lat="43.9906467" lon="11.04341"><ele>840.0</ele><time>2026-04-25T08:08:51.844Z</time></trkpt><trkpt lat="43.99072" lon="11.0433767"><ele>840.0</ele><time>2026-04-25T08:08:52.851Z</time></trkpt><trkpt lat="43.990795" lon="11.0433083"><ele>840.0</ele><time>2026-04-25T08:08:54.797Z</time></trkpt><trkpt lat="43.9907983" lon="11.0431683"><ele>840.0</ele><time>2026-04-25T08:08:56.81Z</time></trkpt><trkpt lat="43.990785" lon="11.0430767"><ele>840.0</ele><time>2026-04-25T08:08:57.817Z</time></trkpt><trkpt lat="43.99077" lon="11.04296"><ele>840.0</ele><time>2026-04-25T08:08:58.822Z</time></trkpt><trkpt lat="43.9907533" lon="11.0428683"><ele>839.4</ele><time>2026-04-25T08:08:59.83Z</time></trkpt><trkpt lat="43.9907683" lon="11.0427267"><ele>838.8</ele><time>2026-04-25T08:09:01.843Z</time></trkpt><trkpt lat="43.9908283" lon="11.0426"><ele>838.2</ele><time>2026-04-25T08:09:03.856Z</time></trkpt><trkpt lat="43.9908733" lon="11.0425267"><ele>837.6</ele><time>2026-04-25T08:09:04.796Z</time></trkpt><trkpt lat="43.99093" lon="11.04244"><ele>837.0</ele><time>2026-04-25T08:09:05.802Z</time></trkpt><trkpt lat="43.99098" lon="11.042345"><ele>836.8333333333334</ele><time>2026-04-25T08:09:06.808Z</time></trkpt><trkpt lat="43.9910083" lon="11.042245"><ele>836.6666666666667</ele><time>2026-04-25T08:09:07.816Z</time></trkpt><trkpt lat="43.9910233" lon="11.0421583"><ele>836.5</ele><time>2026-04-25T08:09:08.822Z</time></trkpt><trkpt lat="43.9910267" lon="11.0420117"><ele>836.3333333333334</ele><time>2026-04-25T08:09:10.836Z</time></trkpt><trkpt lat="43.9910083" lon="11.0419033"><ele>836.1666666666667</ele><time>2026-04-25T08:09:12.849Z</time></trkpt><trkpt lat="43.9909283" lon="11.0418467"><ele>836.0</ele><time>2026-04-25T08:09:14.794Z</time></trkpt><trkpt lat="43.9908017" lon="11.0417983"><ele>836.0</ele><time>2026-04-25T08:09:16.807Z</time></trkpt><trkpt lat="43.9906467" lon="11.041745"><ele>836.0</ele><time>2026-04-25T08:09:17.814Z</time></trkpt><trkpt lat="43.9905667" lon="11.0416433"><ele>836.0</ele><time>2026-04-25T08:09:18.822Z</time></trkpt><trkpt lat="43.9904783" lon="11.04155"><ele>836.0</ele><time>2026-04-25T08:09:19.828Z</time></trkpt><trkpt lat="43.99038" lon="11.0414217"><ele>839.0000000000001</ele><time>2026-04-25T08:09:20.834Z</time></trkpt><trkpt lat="43.990305" lon="11.041335"><ele>842.0</ele><time>2026-04-25T08:09:21.842Z</time></trkpt><trkpt lat="43.9902417" lon="11.04125"><ele>845.0</ele><time>2026-04-25T08:09:22.848Z</time></trkpt><trkpt lat="43.9901817" lon="11.0411833"><ele>848.0</ele><time>2026-04-25T08:09:23.788Z</time></trkpt><trkpt lat="43.9901183" lon="11.0411267"><ele>851.0000000000001</ele><time>2026-04-25T08:09:24.794Z</time></trkpt><trkpt lat="43.9900617" lon="11.0410883"><ele>854.0</ele><time>2026-04-25T08:09:25.8Z</time></trkpt><trkpt lat="43.9900133" lon="11.0410217"><ele>854.0</ele><time>2026-04-25T08:09:26.808Z</time></trkpt><trkpt lat="43.9899583" lon="11.0409533"><ele>854.0000000000001</ele><time>2026-04-25T08:09:28.821Z</time></trkpt><trkpt lat="43.9899967" lon="11.0408583"><ele>854.0000000000001</ele><time>2026-04-25T08:09:31.84Z</time></trkpt><trkpt lat="43.9900583" lon="11.0408833"><ele>854.0</ele><time>2026-04-25T08:09:35.8Z</time></trkpt><trkpt lat="43.9901567" lon="11.0409567"><ele>854.0</ele><time>2026-04-25T08:09:38.82Z</time></trkpt><trkpt lat="43.9902733" lon="11.0410233"><ele>854.0000000000001</ele><time>2026-04-25T08:09:40.833Z</time></trkpt><trkpt lat="43.990335" lon="11.041055"><ele>854.0</ele><time>2026-04-25T08:09:41.84Z</time></trkpt><trkpt lat="43.9904233" lon="11.0410667"><ele>854.0</ele><time>2026-04-25T08:09:43.786Z</time></trkpt><trkpt lat="43.990475" lon="11.041"><ele>854.0</ele><time>2026-04-25T08:09:45.799Z</time></trkpt><trkpt lat="43.9904117" lon="11.0409017"><ele>854.0000000000001</ele><time>2026-04-25T08:09:47.813Z</time></trkpt><trkpt lat="43.9903517" lon="11.0408517"><ele>854.0</ele><time>2026-04-25T08:09:48.818Z</time></trkpt><trkpt lat="43.9902817" lon="11.0407933"><ele>855.0</ele><time>2026-04-25T08:09:49.826Z</time></trkpt><trkpt lat="43.990205" lon="11.040715"><ele>856.0000000000001</ele><time>2026-04-25T08:09:50.833Z</time></trkpt><trkpt lat="43.9901367" lon="11.0406117"><ele>857.0000000000001</ele><time>2026-04-25T08:09:51.839Z</time></trkpt><trkpt lat="43.9900783" lon="11.0404917"><ele>858.0</ele><time>2026-04-25T08:09:52.846Z</time></trkpt><trkpt lat="43.990025" lon="11.04038"><ele>859.0</ele><time>2026-04-25T08:09:53.784Z</time></trkpt><trkpt lat="43.9899833" lon="11.0402133"><ele>855.0</ele><time>2026-04-25T08:09:54.791Z</time></trkpt><trkpt lat="43.98998" lon="11.04006"><ele>851.0000000000001</ele><time>2026-04-25T08:09:55.799Z</time></trkpt><trkpt lat="43.9899933" lon="11.0399417"><ele>847.0</ele><time>2026-04-25T08:09:56.805Z</time></trkpt><trkpt lat="43.9899833" lon="11.0397983"><ele>843.0</ele><time>2026-04-25T08:09:57.812Z</time></trkpt><trkpt lat="43.990015" lon="11.0396383"><ele>839.0</ele><time>2026-04-25T08:09:58.819Z</time></trkpt><trkpt lat="43.990065" lon="11.0395283"><ele>839.0</ele><time>2026-04-25T08:09:59.825Z</time></trkpt><trkpt lat="43.9901267" lon="11.0394717"><ele>839.0</ele><time>2026-04-25T08:10:00.832Z</time></trkpt><trkpt lat="43.9902033" lon="11.03944"><ele>839.0</ele><time>2026-04-25T08:10:01.838Z</time></trkpt><trkpt lat="43.9902983" lon="11.0394483"><ele>839.0</ele><time>2026-04-25T08:10:02.845Z</time></trkpt><trkpt lat="43.9904133" lon="11.0395183"><ele>839.0</ele><time>2026-04-25T08:10:03.785Z</time></trkpt><trkpt lat="43.9905667" lon="11.039635"><ele>839.0</ele><time>2026-04-25T08:10:04.791Z</time></trkpt><trkpt lat="43.9907217" lon="11.039745"><ele>839.0</ele><time>2026-04-25T08:10:05.798Z</time></trkpt><trkpt lat="43.9908667" lon="11.0398333"><ele>839.0</ele><time>2026-04-25T08:10:06.804Z</time></trkpt><trkpt lat="43.9909883" lon="11.0399"><ele>843.2</ele><time>2026-04-25T08:10:07.811Z</time></trkpt><trkpt lat="43.9910967" lon="11.039965"><ele>847.4000000000001</ele><time>2026-04-25T08:10:08.818Z</time></trkpt><trkpt lat="43.99119" lon="11.04003"><ele>851.6</ele><time>2026-04-25T08:10:09.824Z</time></trkpt><trkpt lat="43.9912883" lon="11.040085"><ele>855.8</ele><time>2026-04-25T08:10:10.831Z</time></trkpt><trkpt lat="43.9913917" lon="11.0401117"><ele>860.0</ele><time>2026-04-25T08:10:11.838Z</time></trkpt><trkpt lat="43.9914983" lon="11.0401083"><ele>863.5</ele><time>2026-04-25T08:10:12.777Z</time></trkpt><trkpt lat="43.9916017" lon="11.0400567"><ele>867.0</ele><time>2026-04-25T08:10:13.784Z</time></trkpt><trkpt lat="43.9917017" lon="11.0399567"><ele>870.5</ele><time>2026-04-25T08:10:14.79Z</time></trkpt><trkpt lat="43.9917767" lon="11.0398383"><ele>874.0</ele><time>2026-04-25T08:10:15.797Z</time></trkpt><trkpt lat="43.9918467" lon="11.0397167"><ele>876.0</ele><time>2026-04-25T08:10:16.804Z</time></trkpt><trkpt lat="43.9919217" lon="11.0396133"><ele>878.0000000000001</ele><time>2026-04-25T08:10:17.81Z</time></trkpt><trkpt lat="43.9920183" lon="11.0395217"><ele>880.0000000000001</ele><time>2026-04-25T08:10:18.817Z</time></trkpt><trkpt lat="43.99212" lon="11.039465"><ele>882.0</ele><time>2026-04-25T08:10:19.823Z</time></trkpt><trkpt lat="43.9922183" lon="11.0394033"><ele>884.0</ele><time>2026-04-25T08:10:20.83Z</time></trkpt><trkpt lat="43.9923" lon="11.0393283"><ele>884.0</ele><time>2026-04-25T08:10:21.837Z</time></trkpt><trkpt lat="43.9923583" lon="11.0392183"><ele>884.0000000000001</ele><time>2026-04-25T08:10:22.776Z</time></trkpt><trkpt lat="43.992385" lon="11.039065"><ele>884.0000000000001</ele><time>2026-04-25T08:10:23.782Z</time></trkpt><trkpt lat="43.992395" lon="11.0389233"><ele>884.0</ele><time>2026-04-25T08:10:24.79Z</time></trkpt><trkpt lat="43.9924167" lon="11.0388133"><ele>884.0</ele><time>2026-04-25T08:10:25.796Z</time></trkpt><trkpt lat="43.9924467" lon="11.038725"><ele>882.1666666666667</ele><time>2026-04-25T08:10:26.803Z</time></trkpt><trkpt lat="43.9924917" lon="11.0386633"><ele>880.3333333333334</ele><time>2026-04-25T08:10:27.81Z</time></trkpt><trkpt lat="43.9926033" lon="11.03869"><ele>878.5</ele><time>2026-04-25T08:10:29.823Z</time></trkpt><trkpt lat="43.9926567" lon="11.038765"><ele>876.6666666666667</ele><time>2026-04-25T08:10:30.828Z</time></trkpt><trkpt lat="43.9927167" lon="11.03885"><ele>874.8333333333334</ele><time>2026-04-25T08:10:31.836Z</time></trkpt><trkpt lat="43.9927767" lon="11.0389133"><ele>873.0</ele><time>2026-04-25T08:10:32.776Z</time></trkpt><trkpt lat="43.9928433" lon="11.03895"><ele>879.2</ele><time>2026-04-25T08:10:33.781Z</time></trkpt><trkpt lat="43.99291" lon="11.0389633"><ele>885.4</ele><time>2026-04-25T08:10:34.789Z</time></trkpt><trkpt lat="43.993" lon="11.0388733"><ele>891.6000000000001</ele><time>2026-04-25T08:10:36.802Z</time></trkpt><trkpt lat="43.9930167" lon="11.03872"><ele>897.8000000000001</ele><time>2026-04-25T08:10:38.814Z</time></trkpt><trkpt lat="43.9930417" lon="11.0385783"><ele>904.0</ele><time>2026-04-25T08:10:40.828Z</time></trkpt><trkpt lat="43.9931267" lon="11.03844"><ele>904.0</ele><time>2026-04-25T08:10:42.774Z</time></trkpt><trkpt lat="43.99319" lon="11.0383333"><ele>904.0000000000001</ele><time>2026-04-25T08:10:43.78Z</time></trkpt><trkpt lat="43.993265" lon="11.03829"><ele>904.0000000000001</ele><time>2026-04-25T08:10:44.788Z</time></trkpt><trkpt lat="43.9933733" lon="11.03827"><ele>904.0</ele><time>2026-04-25T08:10:45.795Z</time></trkpt><trkpt lat="43.993465" lon="11.0382683"><ele>904.0</ele><time>2026-04-25T08:10:46.8Z</time></trkpt><trkpt lat="43.993555" lon="11.0382633"><ele>906.6</ele><time>2026-04-25T08:10:47.807Z</time></trkpt><trkpt lat="43.9936533" lon="11.0382467"><ele>909.2</ele><time>2026-04-25T08:10:48.814Z</time></trkpt><trkpt lat="43.9937433" lon="11.03822"><ele>911.8000000000001</ele><time>2026-04-25T08:10:49.82Z</time></trkpt><trkpt lat="43.99383" lon="11.0381817"><ele>914.4000000000001</ele><time>2026-04-25T08:10:50.828Z</time></trkpt><trkpt lat="43.9939117" lon="11.0381317"><ele>917.0</ele><time>2026-04-25T08:10:51.835Z</time></trkpt><trkpt lat="43.9939817" lon="11.0380583"><ele>917.0000000000001</ele><time>2026-04-25T08:10:52.773Z</time></trkpt><trkpt lat="43.9940467" lon="11.0379533"><ele>917.0</ele><time>2026-04-25T08:10:53.78Z</time></trkpt><trkpt lat="43.9940767" lon="11.0378717"><ele>917.0</ele><time>2026-04-25T08:10:54.786Z</time></trkpt><trkpt lat="43.9940817" lon="11.0377717"><ele>917.0</ele><time>2026-04-25T08:10:55.793Z</time></trkpt><trkpt lat="43.99411" lon="11.0376467"><ele>917.0000000000001</ele><time>2026-04-25T08:10:56.801Z</time></trkpt><trkpt lat="43.9941017" lon="11.03751"><ele>917.0</ele><time>2026-04-25T08:10:57.807Z</time></trkpt><trkpt lat="43.99408" lon="11.0373583"><ele>917.25</ele><time>2026-04-25T08:10:58.813Z</time></trkpt><trkpt lat="43.99401" lon="11.0372033"><ele>917.5</ele><time>2026-04-25T08:10:59.82Z</time></trkpt><trkpt lat="43.9939483" lon="11.0370117"><ele>917.75</ele><time>2026-04-25T08:11:00.827Z</time></trkpt><trkpt lat="43.9939383" lon="11.036855"><ele>918.0</ele><time>2026-04-25T08:11:01.767Z</time></trkpt><trkpt lat="43.9939417" lon="11.0366667"><ele>919.0</ele><time>2026-04-25T08:11:02.773Z</time></trkpt><trkpt lat="43.9939617" lon="11.03648"><ele>920.0</ele><time>2026-04-25T08:11:03.78Z</time></trkpt><trkpt lat="43.9939733" lon="11.0363067"><ele>921.0</ele><time>2026-04-25T08:11:04.787Z</time></trkpt><trkpt lat="43.993965" lon="11.0361667"><ele>922.0</ele><time>2026-04-25T08:11:05.86Z</time></trkpt><trkpt lat="43.9939483" lon="11.0360533"><ele>923.0</ele><time>2026-04-25T08:11:06.8Z</time></trkpt><trkpt lat="43.9939383" lon="11.0359617"><ele>923.0</ele><time>2026-04-25T08:11:07.806Z</time></trkpt><trkpt lat="43.99391" lon="11.0356533"><ele>923.0</ele><time>2026-04-25T08:11:08.813Z</time></trkpt><trkpt lat="43.9939367" lon="11.0355183"><ele>923.0</ele><time>2026-04-25T08:11:10.826Z</time></trkpt><trkpt lat="43.9939617" lon="11.03543"><ele>923.0</ele><time>2026-04-25T08:11:11.766Z</time></trkpt><trkpt lat="43.99401" lon="11.03554"><ele>923.0</ele><time>2026-04-25T08:11:14.852Z</time></trkpt><trkpt lat="43.99405" lon="11.035635"><ele>923.0</ele><time>2026-04-25T08:11:15.859Z</time></trkpt><trkpt lat="43.99411" lon="11.0357767"><ele>923.0</ele><time>2026-04-25T08:11:16.799Z</time></trkpt><trkpt lat="43.99418" lon="11.0359533"><ele>923.0</ele><time>2026-04-25T08:11:17.806Z</time></trkpt><trkpt lat="43.9942533" lon="11.0361017"><ele>927.5000000000001</ele><time>2026-04-25T08:11:18.812Z</time></trkpt><trkpt lat="43.9942817" lon="11.036235"><ele>932.0</ele><time>2026-04-25T08:11:19.819Z</time></trkpt><trkpt lat="43.9943033" lon="11.0363683"><ele>936.5</ele><time>2026-04-25T08:11:20.826Z</time></trkpt><trkpt lat="43.9943433" lon="11.0364767"><ele>941.0</ele><time>2026-04-25T08:11:21.832Z</time></trkpt><trkpt lat="43.994385" lon="11.036565"><ele>945.5000000000001</ele><time>2026-04-25T08:11:22.839Z</time></trkpt><trkpt lat="43.9944383" lon="11.0366417"><ele>950.0</ele><time>2026-04-25T08:11:23.845Z</time></trkpt><trkpt lat="43.9945717" lon="11.0367233"><ele>950.0</ele><time>2026-04-25T08:11:24.851Z</time></trkpt><trkpt lat="43.9946567" lon="11.03674"><ele>950.0</ele><time>2026-04-25T08:11:25.859Z</time></trkpt><trkpt lat="43.9947217" lon="11.0367383"><ele>950.0</ele><time>2026-04-25T08:11:26.797Z</time></trkpt><trkpt lat="43.9947917" lon="11.0367117"><ele>950.0</ele><time>2026-04-25T08:11:27.805Z</time></trkpt><trkpt lat="43.9948783" lon="11.0365883"><ele>950.0</ele><time>2026-04-25T08:11:29.817Z</time></trkpt><trkpt lat="43.994885" lon="11.0364183"><ele>949.75</ele><time>2026-04-25T08:11:30.825Z</time></trkpt><trkpt lat="43.9948333" lon="11.0362517"><ele>949.5</ele><time>2026-04-25T08:11:31.83Z</time></trkpt><trkpt lat="43.9947917" lon="11.03605"><ele>949.25</ele><time>2026-04-25T08:11:32.838Z</time></trkpt><trkpt lat="43.9947883" lon="11.0358517"><ele>949.0</ele><time>2026-04-25T08:11:33.845Z</time></trkpt><trkpt lat="43.9948117" lon="11.0356767"><ele>949.0</ele><time>2026-04-25T08:11:34.851Z</time></trkpt><trkpt lat="43.9948717" lon="11.035515"><ele>949.0</ele><time>2026-04-25T08:11:35.857Z</time></trkpt><trkpt lat="43.99495" lon="11.0353667"><ele>949.0</ele><time>2026-04-25T08:11:36.797Z</time></trkpt><trkpt lat="43.9950367" lon="11.0352483"><ele>949.0</ele><time>2026-04-25T08:11:37.804Z</time></trkpt><trkpt lat="43.995125" lon="11.035185"><ele>950.75</ele><time>2026-04-25T08:11:38.81Z</time></trkpt><trkpt lat="43.995225" lon="11.035155"><ele>952.5</ele><time>2026-04-25T08:11:39.816Z</time></trkpt><trkpt lat="43.9953367" lon="11.035145"><ele>954.25</ele><time>2026-04-25T08:11:40.824Z</time></trkpt><trkpt lat="43.99545" lon="11.035155"><ele>956.0</ele><time>2026-04-25T08:11:41.831Z</time></trkpt><trkpt lat="43.9955733" lon="11.0351717"><ele>956.0</ele><time>2026-04-25T08:11:42.837Z</time></trkpt><trkpt lat="43.9957067" lon="11.0351867"><ele>956.0</ele><time>2026-04-25T08:11:43.844Z</time></trkpt><trkpt lat="43.9958317" lon="11.0352"><ele>956.0</ele><time>2026-04-25T08:11:44.851Z</time></trkpt><trkpt lat="43.995945" lon="11.035215"><ele>956.0</ele><time>2026-04-25T08:11:45.79Z</time></trkpt><trkpt lat="43.9960533" lon="11.0352417"><ele>955.8</ele><time>2026-04-25T08:11:46.796Z</time></trkpt><trkpt lat="43.9961567" lon="11.03529"><ele>955.5999999999999</ele><time>2026-04-25T08:11:47.803Z</time></trkpt><trkpt lat="43.9962467" lon="11.0353467"><ele>955.4</ele><time>2026-04-25T08:11:48.81Z</time></trkpt><trkpt lat="43.99633" lon="11.0353983"><ele>955.2</ele><time>2026-04-25T08:11:49.817Z</time></trkpt><trkpt lat="43.9964183" lon="11.0353917"><ele>955.0</ele><time>2026-04-25T08:11:50.823Z</time></trkpt><trkpt lat="43.996505" lon="11.03538"><ele>955.0</ele><time>2026-04-25T08:11:51.83Z</time></trkpt><trkpt lat="43.99658" lon="11.0353333"><ele>955.0</ele><time>2026-04-25T08:11:52.836Z</time></trkpt><trkpt lat="43.9966633" lon="11.0352733"><ele>955.0</ele><time>2026-04-25T08:11:53.842Z</time></trkpt><trkpt lat="43.9967433" lon="11.035155"><ele>955.0</ele><time>2026-04-25T08:11:54.85Z</time></trkpt><trkpt lat="43.9968433" lon="11.0349283"><ele>958.0</ele><time>2026-04-25T08:11:55.789Z</time></trkpt><trkpt lat="43.996945" lon="11.0347567"><ele>961.0</ele><time>2026-04-25T08:11:56.796Z</time></trkpt><trkpt lat="43.9970817" lon="11.034555"><ele>964.0</ele><time>2026-04-25T08:11:57.802Z</time></trkpt><trkpt lat="43.9971983" lon="11.03438"><ele>964.0</ele><time>2026-04-25T08:11:58.809Z</time></trkpt><trkpt lat="43.9973" lon="11.0342317"><ele>964.0</ele><time>2026-04-25T08:11:59.816Z</time></trkpt><trkpt lat="43.997395" lon="11.034085"><ele>964.0</ele><time>2026-04-25T08:12:00.822Z</time></trkpt><trkpt lat="43.9974883" lon="11.033935"><ele>964.0</ele><time>2026-04-25T08:12:01.829Z</time></trkpt><trkpt lat="43.9975883" lon="11.0337883"><ele>967.5</ele><time>2026-04-25T08:12:02.836Z</time></trkpt><trkpt lat="43.9976933" lon="11.0336583"><ele>971.0</ele><time>2026-04-25T08:12:03.842Z</time></trkpt><trkpt lat="43.9978033" lon="11.033525"><ele>974.5</ele><time>2026-04-25T08:12:04.849Z</time></trkpt><trkpt lat="43.997905" lon="11.0333717"><ele>978.0</ele><time>2026-04-25T08:12:05.789Z</time></trkpt><trkpt lat="43.9979867" lon="11.03322"><ele>978.0</ele><time>2026-04-25T08:12:06.795Z</time></trkpt><trkpt lat="43.9980667" lon="11.0330817"><ele>978.0</ele><time>2026-04-25T08:12:07.802Z</time></trkpt><trkpt lat="43.9981517" lon="11.0329633"><ele>978.0</ele><time>2026-04-25T08:12:08.807Z</time></trkpt><trkpt lat="43.998245" lon="11.032865"><ele>978.0</ele><time>2026-04-25T08:12:09.814Z</time></trkpt><trkpt lat="43.9983417" lon="11.0327717"><ele>983.4</ele><time>2026-04-25T08:12:10.822Z</time></trkpt><trkpt lat="43.9984417" lon="11.0326833"><ele>988.8</ele><time>2026-04-25T08:12:11.827Z</time></trkpt><trkpt lat="43.9985283" lon="11.03259"><ele>994.2</ele><time>2026-04-25T08:12:12.834Z</time></trkpt><trkpt lat="43.9985917" lon="11.032505"><ele>999.6</ele><time>2026-04-25T08:12:13.842Z</time></trkpt><trkpt lat="43.9986383" lon="11.0324233"><ele>1005.0</ele><time>2026-04-25T08:12:14.848Z</time></trkpt><trkpt lat="43.9986867" lon="11.0322667"><ele>1005.2</ele><time>2026-04-25T08:12:16.794Z</time></trkpt><trkpt lat="43.9986783" lon="11.0321733"><ele>1005.4</ele><time>2026-04-25T08:12:17.801Z</time></trkpt><trkpt lat="43.99865" lon="11.0320583"><ele>1005.5999999999999</ele><time>2026-04-25T08:12:18.808Z</time></trkpt><trkpt lat="43.99862" lon="11.0319033"><ele>1005.8</ele><time>2026-04-25T08:12:19.814Z</time></trkpt><trkpt lat="43.9986083" lon="11.0317467"><ele>1006.0</ele><time>2026-04-25T08:12:20.821Z</time></trkpt><trkpt lat="43.998605" lon="11.0315783"><ele>1007.0</ele><time>2026-04-25T08:12:21.828Z</time></trkpt><trkpt lat="43.9985967" lon="11.0314133"><ele>1008.0</ele><time>2026-04-25T08:12:22.834Z</time></trkpt><trkpt lat="43.9985933" lon="11.0312533"><ele>1009.0</ele><time>2026-04-25T08:12:23.841Z</time></trkpt><trkpt lat="43.998565" lon="11.03108"><ele>1010.0</ele><time>2026-04-25T08:12:24.78Z</time></trkpt><trkpt lat="43.998535" lon="11.0309133"><ele>1011.0</ele><time>2026-04-25T08:12:25.787Z</time></trkpt><trkpt lat="43.9985033" lon="11.0306617"><ele>1012.0</ele><time>2026-04-25T08:12:26.793Z</time></trkpt><trkpt lat="43.9984317" lon="11.0305117"><ele>1013.0</ele><time>2026-04-25T08:12:27.799Z</time></trkpt><trkpt lat="43.9983767" lon="11.0303833"><ele>1014.0</ele><time>2026-04-25T08:12:28.807Z</time></trkpt><trkpt lat="43.9983317" lon="11.03027"><ele>1011.0</ele><time>2026-04-25T08:12:29.813Z</time></trkpt><trkpt lat="43.9982933" lon="11.03015"><ele>1008.0000000000001</ele><time>2026-04-25T08:12:30.819Z</time></trkpt><trkpt lat="43.9982667" lon="11.030025"><ele>1005.0000000000001</ele><time>2026-04-25T08:12:31.827Z</time></trkpt><trkpt lat="43.9982567" lon="11.0299067"><ele>1002.0</ele><time>2026-04-25T08:12:32.832Z</time></trkpt><trkpt lat="43.998255" lon="11.0297867"><ele>999.0</ele><time>2026-04-25T08:12:33.84Z</time></trkpt><trkpt lat="43.9982583" lon="11.02966"><ele>999.0</ele><time>2026-04-25T08:12:34.78Z</time></trkpt><trkpt lat="43.9982567" lon="11.0295217"><ele>999.0000000000001</ele><time>2026-04-25T08:12:35.786Z</time></trkpt><trkpt lat="43.9982533" lon="11.0293933"><ele>999.0000000000001</ele><time>2026-04-25T08:12:36.793Z</time></trkpt><trkpt lat="43.9982467" lon="11.0292667"><ele>999.0</ele><time>2026-04-25T08:12:37.799Z</time></trkpt><trkpt lat="43.9982483" lon="11.029135"><ele>999.0</ele><time>2026-04-25T08:12:38.806Z</time></trkpt><trkpt lat="43.9982467" lon="11.02898"><ele>998.5</ele><time>2026-04-25T08:12:39.813Z</time></trkpt><trkpt lat="43.99823" lon="11.0288"><ele>998.0</ele><time>2026-04-25T08:12:40.819Z</time></trkpt><trkpt lat="43.9982133" lon="11.0286267"><ele>997.5</ele><time>2026-04-25T08:12:41.825Z</time></trkpt><trkpt lat="43.9981983" lon="11.0284717"><ele>997.0</ele><time>2026-04-25T08:12:42.833Z</time></trkpt><trkpt lat="43.9981817" lon="11.0283083"><ele>995.5</ele><time>2026-04-25T08:12:43.839Z</time></trkpt><trkpt lat="43.9981667" lon="11.0281383"><ele>994.0</ele><time>2026-04-25T08:12:44.779Z</time></trkpt><trkpt lat="43.9981483" lon="11.0279317"><ele>992.5</ele><time>2026-04-25T08:12:45.785Z</time></trkpt><trkpt lat="43.998135" lon="11.027775"><ele>991.0</ele><time>2026-04-25T08:12:46.792Z</time></trkpt><trkpt lat="43.998125" lon="11.027625"><ele>990.25</ele><time>2026-04-25T08:12:47.799Z</time></trkpt><trkpt lat="43.9980983" lon="11.0274733"><ele>989.5</ele><time>2026-04-25T08:12:48.804Z</time></trkpt><trkpt lat="43.9980817" lon="11.0272683"><ele>988.75</ele><time>2026-04-25T08:12:49.812Z</time></trkpt><trkpt lat="43.998075" lon="11.0270683"><ele>988.0</ele><time>2026-04-25T08:12:50.819Z</time></trkpt><trkpt lat="43.99805" lon="11.026905"><ele>988.0</ele><time>2026-04-25T08:12:51.825Z</time></trkpt><trkpt lat="43.9980283" lon="11.02676"><ele>988.0</ele><time>2026-04-25T08:12:52.832Z</time></trkpt><trkpt lat="43.998" lon="11.0265983"><ele>988.0</ele><time>2026-04-25T08:12:53.838Z</time></trkpt><trkpt lat="43.99795" lon="11.02645"><ele>988.0</ele><time>2026-04-25T08:12:54.778Z</time></trkpt><trkpt lat="43.9978783" lon="11.0262833"><ele>987.0</ele><time>2026-04-25T08:12:55.785Z</time></trkpt><trkpt lat="43.9978017" lon="11.02612"><ele>986.0</ele><time>2026-04-25T08:12:56.791Z</time></trkpt><trkpt lat="43.9977517" lon="11.025895"><ele>985.0</ele><time>2026-04-25T08:12:57.798Z</time></trkpt><trkpt lat="43.9976817" lon="11.0257333"><ele>984.0</ele><time>2026-04-25T08:12:58.805Z</time></trkpt><trkpt lat="43.9976117" lon="11.0255883"><ele>982.6</ele><time>2026-04-25T08:12:59.811Z</time></trkpt><trkpt lat="43.9975633" lon="11.02546"><ele>981.2</ele><time>2026-04-25T08:13:00.818Z</time></trkpt><trkpt lat="43.9975217" lon="11.0253367"><ele>979.8000000000001</ele><time>2026-04-25T08:13:01.824Z</time></trkpt><trkpt lat="43.99748" lon="11.0252033"><ele>978.4000000000001</ele><time>2026-04-25T08:13:02.831Z</time></trkpt><trkpt lat="43.997425" lon="11.0250733"><ele>977.0</ele><time>2026-04-25T08:13:03.838Z</time></trkpt><trkpt lat="43.997365" lon="11.024895"><ele>972.8</ele><time>2026-04-25T08:13:04.777Z</time></trkpt><trkpt lat="43.9973717" lon="11.0247767"><ele>968.6</ele><time>2026-04-25T08:13:05.784Z</time></trkpt><trkpt lat="43.9974" lon="11.02466"><ele>964.3999999999999</ele><time>2026-04-25T08:13:06.79Z</time></trkpt><trkpt lat="43.9974533" lon="11.024545"><ele>960.1999999999999</ele><time>2026-04-25T08:13:07.797Z</time></trkpt><trkpt lat="43.997545" lon="11.0244017"><ele>956.0</ele><time>2026-04-25T08:13:08.804Z</time></trkpt><trkpt lat="43.99764" lon="11.0242583"><ele>952.75</ele><time>2026-04-25T08:13:09.81Z</time></trkpt><trkpt lat="43.9977333" lon="11.0241333"><ele>949.5</ele><time>2026-04-25T08:13:10.817Z</time></trkpt><trkpt lat="43.9978233" lon="11.02398"><ele>946.25</ele><time>2026-04-25T08:13:11.823Z</time></trkpt><trkpt lat="43.9978917" lon="11.02381"><ele>943.0</ele><time>2026-04-25T08:13:12.829Z</time></trkpt><trkpt lat="43.99795" lon="11.023635"><ele>943.0</ele><time>2026-04-25T08:13:13.769Z</time></trkpt><trkpt lat="43.998" lon="11.0234567"><ele>943.0</ele><time>2026-04-25T08:13:14.776Z</time></trkpt><trkpt lat="43.9980433" lon="11.0232983"><ele>943.0</ele><time>2026-04-25T08:13:15.782Z</time></trkpt><trkpt lat="43.9980867" lon="11.0231367"><ele>943.0</ele><time>2026-04-25T08:13:16.79Z</time></trkpt><trkpt lat="43.9981367" lon="11.023005"><ele>941.2</ele><time>2026-04-25T08:13:17.796Z</time></trkpt><trkpt lat="43.9981867" lon="11.0229083"><ele>939.4</ele><time>2026-04-25T08:13:18.802Z</time></trkpt><trkpt lat="43.99823" lon="11.022825"><ele>937.6000000000001</ele><time>2026-04-25T08:13:19.81Z</time></trkpt><trkpt lat="43.998275" lon="11.0226583"><ele>935.8000000000001</ele><time>2026-04-25T08:13:21.823Z</time></trkpt><trkpt lat="43.9982417" lon="11.0225583"><ele>934.0</ele><time>2026-04-25T08:13:23.769Z</time></trkpt><trkpt lat="43.99813" lon="11.0226133"><ele>934.0</ele><time>2026-04-25T08:13:25.782Z</time></trkpt><trkpt lat="43.9980517" lon="11.0227683"><ele>934.0</ele><time>2026-04-25T08:13:26.788Z</time></trkpt><trkpt lat="43.9979967" lon="11.02291"><ele>934.0</ele><time>2026-04-25T08:13:27.863Z</time></trkpt><trkpt lat="43.99794" lon="11.0230317"><ele>934.0</ele><time>2026-04-25T08:13:28.802Z</time></trkpt><trkpt lat="43.9978767" lon="11.0231617"><ele>934.0</ele><time>2026-04-25T08:13:29.809Z</time></trkpt><trkpt lat="43.9978067" lon="11.0232683"><ele>934.0000000000001</ele><time>2026-04-25T08:13:30.814Z</time></trkpt><trkpt lat="43.9977283" lon="11.0233633"><ele>934.0000000000001</ele><time>2026-04-25T08:13:31.822Z</time></trkpt><trkpt lat="43.9976417" lon="11.0234533"><ele>934.0</ele><time>2026-04-25T08:13:32.828Z</time></trkpt><trkpt lat="43.9975517" lon="11.0235333"><ele>934.0</ele><time>2026-04-25T08:13:33.768Z</time></trkpt><trkpt lat="43.9974583" lon="11.0235833"><ele>932.4000000000001</ele><time>2026-04-25T08:13:34.774Z</time></trkpt><trkpt lat="43.9973583" lon="11.023625"><ele>930.8000000000001</ele><time>2026-04-25T08:13:35.781Z</time></trkpt><trkpt lat="43.9972667" lon="11.0236317"><ele>929.1999999999999</ele><time>2026-04-25T08:13:36.855Z</time></trkpt><trkpt lat="43.9971717" lon="11.0236717"><ele>927.5999999999999</ele><time>2026-04-25T08:13:37.862Z</time></trkpt><trkpt lat="43.9970833" lon="11.0237083"><ele>926.0</ele><time>2026-04-25T08:13:38.801Z</time></trkpt><trkpt lat="43.9969967" lon="11.0237783"><ele>926.0000000000001</ele><time>2026-04-25T08:13:39.808Z</time></trkpt><trkpt lat="43.9969233" lon="11.0238483"><ele>926.0</ele><time>2026-04-25T08:13:40.815Z</time></trkpt><trkpt lat="43.9968533" lon="11.0239233"><ele>926.0</ele><time>2026-04-25T08:13:41.821Z</time></trkpt><trkpt lat="43.9967967" lon="11.023985"><ele>926.0</ele><time>2026-04-25T08:13:42.828Z</time></trkpt><trkpt lat="43.9967083" lon="11.024075"><ele>926.0000000000001</ele><time>2026-04-25T08:13:44.84Z</time></trkpt><trkpt lat="43.9966283" lon="11.0240517"><ele>926.0</ele><time>2026-04-25T08:13:47.86Z</time></trkpt><trkpt lat="43.9966817" lon="11.0239017"><ele>926.0</ele><time>2026-04-25T08:13:50.814Z</time></trkpt><trkpt lat="43.9967733" lon="11.0237617"><ele>926.0</ele><time>2026-04-25T08:13:51.821Z</time></trkpt><trkpt lat="43.9968533" lon="11.023635"><ele>926.0</ele><time>2026-04-25T08:13:52.826Z</time></trkpt><trkpt lat="43.996945" lon="11.0235117"><ele>926.0</ele><time>2026-04-25T08:13:53.834Z</time></trkpt><trkpt lat="43.9970283" lon="11.0234217"><ele>926.0</ele><time>2026-04-25T08:13:54.84Z</time></trkpt><trkpt lat="43.997115" lon="11.023355"><ele>925.9999999999999</ele><time>2026-04-25T08:13:55.846Z</time></trkpt><trkpt lat="43.9972" lon="11.023305"><ele>925.9999999999999</ele><time>2026-04-25T08:13:56.854Z</time></trkpt><trkpt lat="43.9972883" lon="11.0232667"><ele>926.0</ele><time>2026-04-25T08:13:57.793Z</time></trkpt><trkpt lat="43.9973633" lon="11.0232217"><ele>926.0</ele><time>2026-04-25T08:13:58.8Z</time></trkpt><trkpt lat="43.9974467" lon="11.023185"><ele>927.3333333333334</ele><time>2026-04-25T08:13:59.806Z</time></trkpt><trkpt lat="43.9975067" lon="11.02314"><ele>928.6666666666667</ele><time>2026-04-25T08:14:00.813Z</time></trkpt><trkpt lat="43.997565" lon="11.02306"><ele>930.0</ele><time>2026-04-25T08:14:01.82Z</time></trkpt><trkpt lat="43.9976083" lon="11.022945"><ele>931.3333333333333</ele><time>2026-04-25T08:14:02.825Z</time></trkpt><trkpt lat="43.9976533" lon="11.022815"><ele>932.6666666666666</ele><time>2026-04-25T08:14:03.833Z</time></trkpt><trkpt lat="43.9976767" lon="11.02269"><ele>934.0</ele><time>2026-04-25T08:14:04.84Z</time></trkpt><trkpt lat="43.9976617" lon="11.0225467"><ele>930.0</ele><time>2026-04-25T08:14:05.846Z</time></trkpt><trkpt lat="43.9976467" lon="11.0223867"><ele>926.0</ele><time>2026-04-25T08:14:06.853Z</time></trkpt><trkpt lat="43.9976683" lon="11.0222717"><ele>922.0</ele><time>2026-04-25T08:14:07.791Z</time></trkpt><trkpt lat="43.9975917" lon="11.0220833"><ele>918.0</ele><time>2026-04-25T08:14:08.798Z</time></trkpt><trkpt lat="43.9975867" lon="11.02193"><ele>918.0</ele><time>2026-04-25T08:14:09.806Z</time></trkpt><trkpt lat="43.9976033" lon="11.021745"><ele>918.0</ele><time>2026-04-25T08:14:10.812Z</time></trkpt><trkpt lat="43.99768" lon="11.0215733"><ele>918.0</ele><time>2026-04-25T08:14:11.819Z</time></trkpt><trkpt lat="43.9977867" lon="11.0214167"><ele>918.0</ele><time>2026-04-25T08:14:12.826Z</time></trkpt><trkpt lat="43.997875" lon="11.02129"><ele>915.0</ele><time>2026-04-25T08:14:13.832Z</time></trkpt><trkpt lat="43.9979383" lon="11.02118"><ele>912.0</ele><time>2026-04-25T08:14:14.839Z</time></trkpt><trkpt lat="43.9979933" lon="11.0210617"><ele>909.0</ele><time>2026-04-25T08:14:15.845Z</time></trkpt><trkpt lat="43.998005" lon="11.02097"><ele>906.0</ele><time>2026-04-25T08:14:16.852Z</time></trkpt><trkpt lat="43.9980133" lon="11.0208133"><ele>903.0</ele><time>2026-04-25T08:14:17.792Z</time></trkpt><trkpt lat="43.9980017" lon="11.02064"><ele>901.5999999999999</ele><time>2026-04-25T08:14:18.797Z</time></trkpt><trkpt lat="43.9979767" lon="11.0204733"><ele>900.1999999999999</ele><time>2026-04-25T08:14:19.804Z</time></trkpt><trkpt lat="43.99795" lon="11.020325"><ele>898.8</ele><time>2026-04-25T08:14:20.812Z</time></trkpt><trkpt lat="43.9979217" lon="11.0201667"><ele>897.4</ele><time>2026-04-25T08:14:21.817Z</time></trkpt><trkpt lat="43.9979017" lon="11.020035"><ele>896.0</ele><time>2026-04-25T08:14:22.824Z</time></trkpt><trkpt lat="43.997885" lon="11.0198933"><ele>894.6666666666667</ele><time>2026-04-25T08:14:23.83Z</time></trkpt><trkpt lat="43.9978733" lon="11.0197767"><ele>893.3333333333334</ele><time>2026-04-25T08:14:24.837Z</time></trkpt><trkpt lat="43.9978533" lon="11.01965"><ele>892.0</ele><time>2026-04-25T08:14:25.844Z</time></trkpt><trkpt lat="43.9978383" lon="11.0195433"><ele>890.6666666666667</ele><time>2026-04-25T08:14:26.851Z</time></trkpt><trkpt lat="43.997825" lon="11.0194383"><ele>889.3333333333334</ele><time>2026-04-25T08:14:27.791Z</time></trkpt><trkpt lat="43.99783" lon="11.01929"><ele>888.0</ele><time>2026-04-25T08:14:29.804Z</time></trkpt><trkpt lat="43.9978433" lon="11.019185"><ele>886.75</ele><time>2026-04-25T08:14:31.817Z</time></trkpt><trkpt lat="43.9978433" lon="11.0189967"><ele>885.5</ele><time>2026-04-25T08:15:00.808Z</time></trkpt><trkpt lat="43.9978383" lon="11.0188433"><ele>884.25</ele><time>2026-04-25T08:15:02.822Z</time></trkpt><trkpt lat="43.997845" lon="11.0186933"><ele>883.0</ele><time>2026-04-25T08:15:04.835Z</time></trkpt><trkpt lat="43.997865" lon="11.0185433"><ele>883.0</ele><time>2026-04-25T08:15:06.781Z</time></trkpt><trkpt lat="43.9978917" lon="11.01845"><ele>883.0</ele><time>2026-04-25T08:15:07.787Z</time></trkpt><trkpt lat="43.9979267" lon="11.0183233"><ele>883.0</ele><time>2026-04-25T08:15:08.794Z</time></trkpt><trkpt lat="43.9979733" lon="11.0182033"><ele>883.0</ele><time>2026-04-25T08:15:09.8Z</time></trkpt><trkpt lat="43.9980117" lon="11.0180867"><ele>883.0</ele><time>2026-04-25T08:15:10.808Z</time></trkpt><trkpt lat="43.9980467" lon="11.0179617"><ele>882.4</ele><time>2026-04-25T08:15:11.814Z</time></trkpt><trkpt lat="43.9980767" lon="11.0178317"><ele>881.8</ele><time>2026-04-25T08:15:12.82Z</time></trkpt><trkpt lat="43.9980967" lon="11.0176933"><ele>881.2</ele><time>2026-04-25T08:15:13.827Z</time></trkpt><trkpt lat="43.9981083" lon="11.0175533"><ele>880.6</ele><time>2026-04-25T08:15:14.834Z</time></trkpt><trkpt lat="43.99812" lon="11.0174217"><ele>880.0</ele><time>2026-04-25T08:15:15.841Z</time></trkpt><trkpt lat="43.9981267" lon="11.0172883"><ele>880.0</ele><time>2026-04-25T08:15:16.78Z</time></trkpt><trkpt lat="43.9981417" lon="11.0171583"><ele>880.0</ele><time>2026-04-25T08:15:17.787Z</time></trkpt><trkpt lat="43.9981583" lon="11.0170217"><ele>880.0</ele><time>2026-04-25T08:15:18.794Z</time></trkpt><trkpt lat="43.9981817" lon="11.0168817"><ele>880.0</ele><time>2026-04-25T08:15:19.8Z</time></trkpt><trkpt lat="43.998195" lon="11.0167467"><ele>880.0</ele><time>2026-04-25T08:15:20.807Z</time></trkpt><trkpt lat="43.9981983" lon="11.01662"><ele>879.8</ele><time>2026-04-25T08:15:21.813Z</time></trkpt><trkpt lat="43.9982033" lon="11.0165033"><ele>879.6</ele><time>2026-04-25T08:15:22.82Z</time></trkpt><trkpt lat="43.998215" lon="11.0163917"><ele>879.4000000000001</ele><time>2026-04-25T08:15:23.826Z</time></trkpt><trkpt lat="43.9982417" lon="11.0162667"><ele>879.2</ele><time>2026-04-25T08:15:24.833Z</time></trkpt><trkpt lat="43.9982617" lon="11.0161367"><ele>879.0</ele><time>2026-04-25T08:15:25.773Z</time></trkpt><trkpt lat="43.9982783" lon="11.016005"><ele>879.0</ele><time>2026-04-25T08:15:26.78Z</time></trkpt><trkpt lat="43.9983" lon="11.015875"><ele>879.0000000000001</ele><time>2026-04-25T08:15:27.786Z</time></trkpt><trkpt lat="43.998315" lon="11.0157417"><ele>879.0000000000001</ele><time>2026-04-25T08:15:28.793Z</time></trkpt><trkpt lat="43.9983267" lon="11.0156183"><ele>879.0</ele><time>2026-04-25T08:15:29.799Z</time></trkpt><trkpt lat="43.99832" lon="11.0154667"><ele>879.0</ele><time>2026-04-25T08:15:30.806Z</time></trkpt><trkpt lat="43.99832" lon="11.015345"><ele>879.1666666666666</ele><time>2026-04-25T08:15:31.813Z</time></trkpt><trkpt lat="43.9983283" lon="11.015245"><ele>879.3333333333333</ele><time>2026-04-25T08:15:32.819Z</time></trkpt><trkpt lat="43.9983467" lon="11.0151583"><ele>879.5</ele><time>2026-04-25T08:15:33.826Z</time></trkpt><trkpt lat="43.9983767" lon="11.0150733"><ele>879.6666666666666</ele><time>2026-04-25T08:15:34.833Z</time></trkpt><trkpt lat="43.998425" lon="11.0149983"><ele>879.8333333333333</ele><time>2026-04-25T08:15:35.772Z</time></trkpt><trkpt lat="43.9984983" lon="11.0149367"><ele>880.0</ele><time>2026-04-25T08:15:36.779Z</time></trkpt><trkpt lat="43.9986067" lon="11.014875"><ele>879.3333333333333</ele><time>2026-04-25T08:15:37.785Z</time></trkpt><trkpt lat="43.9987467" lon="11.01478"><ele>878.6666666666667</ele><time>2026-04-25T08:15:38.792Z</time></trkpt><trkpt lat="43.9988833" lon="11.0146817"><ele>878.0</ele><time>2026-04-25T08:15:39.799Z</time></trkpt><trkpt lat="43.99902" lon="11.01459"><ele>878.0</ele><time>2026-04-25T08:15:40.805Z</time></trkpt><trkpt lat="43.9991517" lon="11.014485"><ele>878.0</ele><time>2026-04-25T08:15:41.812Z</time></trkpt><trkpt lat="43.9992817" lon="11.0143783"><ele>878.0</ele><time>2026-04-25T08:15:42.819Z</time></trkpt><trkpt lat="43.9994067" lon="11.0142733"><ele>878.0</ele><time>2026-04-25T08:15:43.824Z</time></trkpt><trkpt lat="43.999525" lon="11.014175"><ele>875.5</ele><time>2026-04-25T08:15:44.831Z</time></trkpt><trkpt lat="43.99964" lon="11.01406"><ele>873.0</ele><time>2026-04-25T08:15:45.771Z</time></trkpt><trkpt lat="43.9997533" lon="11.0139283"><ele>870.5</ele><time>2026-04-25T08:15:46.778Z</time></trkpt><trkpt lat="43.99985" lon="11.0137733"><ele>868.0</ele><time>2026-04-25T08:15:47.785Z</time></trkpt><trkpt lat="43.9999383" lon="11.01361"><ele>868.0</ele><time>2026-04-25T08:15:48.791Z</time></trkpt><trkpt lat="44.000025" lon="11.0134517"><ele>868.0</ele><time>2026-04-25T08:15:49.798Z</time></trkpt><trkpt lat="44.0001167" lon="11.0133017"><ele>868.0</ele><time>2026-04-25T08:15:50.805Z</time></trkpt><trkpt lat="44.0002267" lon="11.01315"><ele>868.0</ele><time>2026-04-25T08:15:51.81Z</time></trkpt><trkpt lat="44.0003433" lon="11.0130183"><ele>871.25</ele><time>2026-04-25T08:15:52.817Z</time></trkpt><trkpt lat="44.00045" lon="11.0129"><ele>874.5</ele><time>2026-04-25T08:15:53.824Z</time></trkpt><trkpt lat="44.0005583" lon="11.01281"><ele>877.75</ele><time>2026-04-25T08:15:54.83Z</time></trkpt><trkpt lat="44.0006767" lon="11.0127433"><ele>881.0</ele><time>2026-04-25T08:15:55.77Z</time></trkpt><trkpt lat="44.0008083" lon="11.0126933"><ele>876.25</ele><time>2026-04-25T08:15:56.776Z</time></trkpt><trkpt lat="44.0009383" lon="11.0126867"><ele>871.5</ele><time>2026-04-25T08:15:57.784Z</time></trkpt><trkpt lat="44.0010733" lon="11.01268"><ele>866.75</ele><time>2026-04-25T08:15:58.858Z</time></trkpt><trkpt lat="44.0012183" lon="11.012645"><ele>862.0</ele><time>2026-04-25T08:15:59.863Z</time></trkpt><trkpt lat="44.001365" lon="11.0125783"><ele>862.0</ele><time>2026-04-25T08:16:00.804Z</time></trkpt><trkpt lat="44.0015133" lon="11.01249"><ele>862.0</ele><time>2026-04-25T08:16:01.81Z</time></trkpt><trkpt lat="44.0016517" lon="11.0124017"><ele>862.0</ele><time>2026-04-25T08:16:02.817Z</time></trkpt><trkpt lat="44.00179" lon="11.0123317"><ele>866.0</ele><time>2026-04-25T08:16:03.823Z</time></trkpt><trkpt lat="44.0019233" lon="11.0122883"><ele>870.0</ele><time>2026-04-25T08:16:04.762Z</time></trkpt><trkpt lat="44.00205" lon="11.0122583"><ele>874.0</ele><time>2026-04-25T08:16:05.77Z</time></trkpt><trkpt lat="44.0021717" lon="11.0122317"><ele>878.0</ele><time>2026-04-25T08:16:06.776Z</time></trkpt><trkpt lat="44.0022883" lon="11.0121967"><ele>878.0</ele><time>2026-04-25T08:16:07.85Z</time></trkpt><trkpt lat="44.00241" lon="11.0121583"><ele>878.0</ele><time>2026-04-25T08:16:08.857Z</time></trkpt><trkpt lat="44.0025267" lon="11.0121033"><ele>878.0</ele><time>2026-04-25T08:16:09.796Z</time></trkpt><trkpt lat="44.0026267" lon="11.0120117"><ele>878.0</ele><time>2026-04-25T08:16:10.803Z</time></trkpt><trkpt lat="44.002705" lon="11.0118983"><ele>879.0</ele><time>2026-04-25T08:16:11.81Z</time></trkpt><trkpt lat="44.00277" lon="11.0117867"><ele>880.0</ele><time>2026-04-25T08:16:12.816Z</time></trkpt><trkpt lat="44.0028383" lon="11.011705"><ele>881.0</ele><time>2026-04-25T08:16:13.823Z</time></trkpt><trkpt lat="44.00293" lon="11.011635"><ele>882.0</ele><time>2026-04-25T08:16:14.762Z</time></trkpt><trkpt lat="44.0030267" lon="11.0115967"><ele>883.0</ele><time>2026-04-25T08:16:15.836Z</time></trkpt><trkpt lat="44.003175" lon="11.011605"><ele>883.0</ele><time>2026-04-25T08:16:16.843Z</time></trkpt><trkpt lat="44.0033133" lon="11.011575"><ele>883.0</ele><time>2026-04-25T08:16:17.849Z</time></trkpt><trkpt lat="44.00345" lon="11.01153"><ele>883.0</ele><time>2026-04-25T08:16:18.855Z</time></trkpt><trkpt lat="44.0035933" lon="11.0114217"><ele>883.0</ele><time>2026-04-25T08:16:19.796Z</time></trkpt><trkpt lat="44.003735" lon="11.0113417"><ele>879.5</ele><time>2026-04-25T08:16:20.801Z</time></trkpt><trkpt lat="44.0038767" lon="11.0112633"><ele>876.0</ele><time>2026-04-25T08:16:21.809Z</time></trkpt><trkpt lat="44.0040133" lon="11.011215"><ele>872.5</ele><time>2026-04-25T08:16:22.815Z</time></trkpt><trkpt lat="44.0041533" lon="11.0111933"><ele>869.0</ele><time>2026-04-25T08:16:23.822Z</time></trkpt><trkpt lat="44.004305" lon="11.0111733"><ele>867.0</ele><time>2026-04-25T08:16:24.828Z</time></trkpt><trkpt lat="44.0044417" lon="11.0112183"><ele>865.0</ele><time>2026-04-25T08:16:25.835Z</time></trkpt><trkpt lat="44.00457" lon="11.01127"><ele>863.0</ele><time>2026-04-25T08:16:26.842Z</time></trkpt><trkpt lat="44.00469" lon="11.0113217"><ele>861.0</ele><time>2026-04-25T08:16:27.848Z</time></trkpt><trkpt lat="44.004795" lon="11.0113533"><ele>861.0</ele><time>2026-04-25T08:16:28.855Z</time></trkpt><trkpt lat="44.00491" lon="11.0113517"><ele>860.9999999999999</ele><time>2026-04-25T08:16:29.795Z</time></trkpt><trkpt lat="44.0050083" lon="11.0113033"><ele>860.9999999999999</ele><time>2026-04-25T08:16:30.801Z</time></trkpt><trkpt lat="44.005095" lon="11.0112417"><ele>861.0</ele><time>2026-04-25T08:16:31.807Z</time></trkpt><trkpt lat="44.005185" lon="11.0111867"><ele>861.0</ele><time>2026-04-25T08:16:32.815Z</time></trkpt><trkpt lat="44.0052817" lon="11.01115"><ele>858.1999999999999</ele><time>2026-04-25T08:16:33.82Z</time></trkpt><trkpt lat="44.0053683" lon="11.0111517"><ele>855.3999999999999</ele><time>2026-04-25T08:16:34.828Z</time></trkpt><trkpt lat="44.0054633" lon="11.01115"><ele>852.6</ele><time>2026-04-25T08:16:35.835Z</time></trkpt><trkpt lat="44.0055567" lon="11.0112067"><ele>849.8</ele><time>2026-04-25T08:16:36.841Z</time></trkpt><trkpt lat="44.0056533" lon="11.0112733"><ele>847.0</ele><time>2026-04-25T08:16:37.848Z</time></trkpt><trkpt lat="44.0057533" lon="11.0113417"><ele>845.6</ele><time>2026-04-25T08:16:38.854Z</time></trkpt><trkpt lat="44.005855" lon="11.0114133"><ele>844.2</ele><time>2026-04-25T08:16:39.794Z</time></trkpt><trkpt lat="44.0059533" lon="11.0114917"><ele>842.8</ele><time>2026-04-25T08:16:40.8Z</time></trkpt><trkpt lat="44.00604" lon="11.011575"><ele>841.4</ele><time>2026-04-25T08:16:41.807Z</time></trkpt><trkpt lat="44.006125" lon="11.0116567"><ele>840.0</ele><time>2026-04-25T08:16:42.814Z</time></trkpt><trkpt lat="44.0062133" lon="11.0117417"><ele>840.0</ele><time>2026-04-25T08:16:43.82Z</time></trkpt><trkpt lat="44.0063" lon="11.0118067"><ele>840.0</ele><time>2026-04-25T08:16:44.827Z</time></trkpt><trkpt lat="44.00641" lon="11.01185"><ele>840.0</ele><time>2026-04-25T08:16:45.834Z</time></trkpt><trkpt lat="44.00651" lon="11.0118933"><ele>840.0</ele><time>2026-04-25T08:16:46.84Z</time></trkpt><trkpt lat="44.0066183" lon="11.0119233"><ele>840.0</ele><time>2026-04-25T08:16:47.847Z</time></trkpt><trkpt lat="44.0067283" lon="11.0119417"><ele>843.6</ele><time>2026-04-25T08:16:48.854Z</time></trkpt><trkpt lat="44.0068333" lon="11.0119517"><ele>847.2</ele><time>2026-04-25T08:16:49.793Z</time></trkpt><trkpt lat="44.0069417" lon="11.0119767"><ele>850.8</ele><time>2026-04-25T08:16:50.8Z</time></trkpt><trkpt lat="44.007045" lon="11.01202"><ele>854.4</ele><time>2026-04-25T08:16:51.806Z</time></trkpt><trkpt lat="44.0071567" lon="11.0120667"><ele>858.0</ele><time>2026-04-25T08:16:52.812Z</time></trkpt><trkpt lat="44.0072633" lon="11.0121283"><ele>858.0</ele><time>2026-04-25T08:16:53.819Z</time></trkpt><trkpt lat="44.0073567" lon="11.0122217"><ele>858.0</ele><time>2026-04-25T08:16:54.826Z</time></trkpt><trkpt lat="44.0074517" lon="11.0123167"><ele>858.0</ele><time>2026-04-25T08:16:55.833Z</time></trkpt><trkpt lat="44.0075433" lon="11.0123933"><ele>858.0</ele><time>2026-04-25T08:16:56.84Z</time></trkpt><trkpt lat="44.0076367" lon="11.0124517"><ele>858.0</ele><time>2026-04-25T08:16:57.845Z</time></trkpt><trkpt lat="44.0077083" lon="11.0125383"><ele>858.8</ele><time>2026-04-25T08:16:58.786Z</time></trkpt><trkpt lat="44.00776" lon="11.0126433"><ele>859.5999999999999</ele><time>2026-04-25T08:16:59.791Z</time></trkpt><trkpt lat="44.0078" lon="11.012755"><ele>860.4000000000001</ele><time>2026-04-25T08:17:00.798Z</time></trkpt><trkpt lat="44.0078633" lon="11.0128617"><ele>861.2</ele><time>2026-04-25T08:17:01.806Z</time></trkpt><trkpt lat="44.0079083" lon="11.0129667"><ele>862.0</ele><time>2026-04-25T08:17:02.811Z</time></trkpt><trkpt lat="44.0079567" lon="11.0130583"><ele>861.9999999999999</ele><time>2026-04-25T08:17:03.819Z</time></trkpt><trkpt lat="44.0079983" lon="11.013135"><ele>862.0</ele><time>2026-04-25T08:17:04.826Z</time></trkpt><trkpt lat="44.00804" lon="11.0132717"><ele>862.0</ele><time>2026-04-25T08:17:06.839Z</time></trkpt><trkpt lat="44.0080117" lon="11.0133633"><ele>862.0</ele><time>2026-04-25T08:17:08.785Z</time></trkpt><trkpt lat="44.0079567" lon="11.013415"><ele>861.9999999999999</ele><time>2026-04-25T08:17:09.792Z</time></trkpt><trkpt lat="44.0079083" lon="11.013495"><ele>862.0</ele><time>2026-04-25T08:17:10.798Z</time></trkpt><trkpt lat="44.0078367" lon="11.0136033"><ele>862.25</ele><time>2026-04-25T08:17:11.804Z</time></trkpt><trkpt lat="44.0077767" lon="11.0137117"><ele>862.5</ele><time>2026-04-25T08:17:12.812Z</time></trkpt><trkpt lat="44.00772" lon="11.013865"><ele>862.75</ele><time>2026-04-25T08:17:13.818Z</time></trkpt><trkpt lat="44.0076767" lon="11.014"><ele>863.0</ele><time>2026-04-25T08:17:14.825Z</time></trkpt><trkpt lat="44.0076483" lon="11.0141767"><ele>863.0</ele><time>2026-04-25T08:17:15.831Z</time></trkpt><trkpt lat="44.0076217" lon="11.0143817"><ele>863.0</ele><time>2026-04-25T08:17:16.837Z</time></trkpt><trkpt lat="44.0075933" lon="11.0145633"><ele>863.0</ele><time>2026-04-25T08:17:17.845Z</time></trkpt><trkpt lat="44.007585" lon="11.014695"><ele>863.0</ele><time>2026-04-25T08:17:18.784Z</time></trkpt><trkpt lat="44.0075883" lon="11.01487"><ele>863.2</ele><time>2026-04-25T08:17:19.791Z</time></trkpt><trkpt lat="44.0076383" lon="11.0150083"><ele>863.4</ele><time>2026-04-25T08:17:20.798Z</time></trkpt><trkpt lat="44.0077117" lon="11.01512"><ele>863.6000000000001</ele><time>2026-04-25T08:17:21.804Z</time></trkpt><trkpt lat="44.0078" lon="11.0151867"><ele>863.8000000000001</ele><time>2026-04-25T08:17:22.81Z</time></trkpt><trkpt lat="44.0079067" lon="11.01523"><ele>864.0</ele><time>2026-04-25T08:17:23.816Z</time></trkpt><trkpt lat="44.008015" lon="11.0152833"><ele>864.0</ele><time>2026-04-25T08:17:24.824Z</time></trkpt><trkpt lat="44.0081167" lon="11.01535"><ele>864.0000000000001</ele><time>2026-04-25T08:17:25.831Z</time></trkpt><trkpt lat="44.0082017" lon="11.0154333"><ele>864.0000000000001</ele><time>2026-04-25T08:17:26.837Z</time></trkpt><trkpt lat="44.00829" lon="11.0155033"><ele>864.0</ele><time>2026-04-25T08:17:27.844Z</time></trkpt><trkpt lat="44.0083617" lon="11.0155633"><ele>864.0</ele><time>2026-04-25T08:17:28.783Z</time></trkpt><trkpt lat="44.00844" lon="11.0156117"><ele>865.6666666666666</ele><time>2026-04-25T08:17:29.789Z</time></trkpt><trkpt lat="44.0085217" lon="11.015655"><ele>867.3333333333333</ele><time>2026-04-25T08:17:30.797Z</time></trkpt><trkpt lat="44.0086033" lon="11.0156967"><ele>869.0</ele><time>2026-04-25T08:17:31.802Z</time></trkpt><trkpt lat="44.00868" lon="11.0157417"><ele>870.6666666666666</ele><time>2026-04-25T08:17:32.81Z</time></trkpt><trkpt lat="44.0087483" lon="11.0157967"><ele>872.3333333333333</ele><time>2026-04-25T08:17:33.817Z</time></trkpt><trkpt lat="44.0087917" lon="11.015865"><ele>874.0</ele><time>2026-04-25T08:17:34.822Z</time></trkpt><trkpt lat="44.00881" lon="11.0159617"><ele>874.0</ele><time>2026-04-25T08:17:35.829Z</time></trkpt><trkpt lat="44.0088133" lon="11.0160767"><ele>874.0000000000001</ele><time>2026-04-25T08:17:36.837Z</time></trkpt><trkpt lat="44.0087783" lon="11.0162233"><ele>874.0000000000001</ele><time>2026-04-25T08:17:37.776Z</time></trkpt><trkpt lat="44.008715" lon="11.01637"><ele>874.0</ele><time>2026-04-25T08:17:38.782Z</time></trkpt><trkpt lat="44.0086433" lon="11.016515"><ele>874.0</ele><time>2026-04-25T08:17:39.789Z</time></trkpt><trkpt lat="44.0085733" lon="11.01663"><ele>874.0</ele><time>2026-04-25T08:17:40.796Z</time></trkpt><trkpt lat="44.0084867" lon="11.0167017"><ele>874.0000000000001</ele><time>2026-04-25T08:17:41.802Z</time></trkpt><trkpt lat="44.0083983" lon="11.0168033"><ele>874.0000000000001</ele><time>2026-04-25T08:17:42.809Z</time></trkpt><trkpt lat="44.0083233" lon="11.0169117"><ele>874.0</ele><time>2026-04-25T08:17:43.815Z</time></trkpt><trkpt lat="44.0082583" lon="11.017005"><ele>874.0</ele><time>2026-04-25T08:17:44.822Z</time></trkpt><trkpt lat="44.0082117" lon="11.0171"><ele>870.0</ele><time>2026-04-25T08:17:45.829Z</time></trkpt><trkpt lat="44.0082017" lon="11.0172267"><ele>866.0000000000001</ele><time>2026-04-25T08:17:46.835Z</time></trkpt><trkpt lat="44.0082083" lon="11.0173717"><ele>862.0000000000001</ele><time>2026-04-25T08:17:47.775Z</time></trkpt><trkpt lat="44.0082067" lon="11.0175183"><ele>858.0</ele><time>2026-04-25T08:17:48.782Z</time></trkpt><trkpt lat="44.0081933" lon="11.017675"><ele>854.0</ele><time>2026-04-25T08:17:49.788Z</time></trkpt><trkpt lat="44.0081783" lon="11.0178367"><ele>854.0</ele><time>2026-04-25T08:17:50.795Z</time></trkpt><trkpt lat="44.0081733" lon="11.0180067"><ele>854.0</ele><time>2026-04-25T08:17:51.802Z</time></trkpt><trkpt lat="44.008175" lon="11.0181717"><ele>854.0</ele><time>2026-04-25T08:17:52.808Z</time></trkpt><trkpt lat="44.0081817" lon="11.0183367"><ele>854.0</ele><time>2026-04-25T08:17:53.815Z</time></trkpt><trkpt lat="44.00818" lon="11.0184967"><ele>853.8000000000001</ele><time>2026-04-25T08:17:54.821Z</time></trkpt><trkpt lat="44.0081683" lon="11.0186433"><ele>853.6000000000001</ele><time>2026-04-25T08:17:55.827Z</time></trkpt><trkpt lat="44.008155" lon="11.0187767"><ele>853.4</ele><time>2026-04-25T08:17:56.835Z</time></trkpt><trkpt lat="44.00817" lon="11.018935"><ele>853.2</ele><time>2026-04-25T08:17:57.775Z</time></trkpt><trkpt lat="44.0081783" lon="11.019055"><ele>853.0</ele><time>2026-04-25T08:17:58.781Z</time></trkpt><trkpt lat="44.0082017" lon="11.0191617"><ele>851.0</ele><time>2026-04-25T08:17:59.788Z</time></trkpt><trkpt lat="44.008235" lon="11.0192533"><ele>849.0</ele><time>2026-04-25T08:18:00.794Z</time></trkpt><trkpt lat="44.0082983" lon="11.01935"><ele>847.0</ele><time>2026-04-25T08:18:01.8Z</time></trkpt><trkpt lat="44.0083683" lon="11.019415"><ele>845.0</ele><time>2026-04-25T08:18:02.808Z</time></trkpt><trkpt lat="44.0084667" lon="11.019475"><ele>843.0</ele><time>2026-04-25T08:18:03.814Z</time></trkpt><trkpt lat="44.0085383" lon="11.0195517"><ele>842.4</ele><time>2026-04-25T08:18:04.821Z</time></trkpt><trkpt lat="44.0086017" lon="11.019655"><ele>841.8</ele><time>2026-04-25T08:18:05.828Z</time></trkpt><trkpt lat="44.0086733" lon="11.0197567"><ele>841.2</ele><time>2026-04-25T08:18:06.834Z</time></trkpt><trkpt lat="44.0087583" lon="11.01985"><ele>840.6</ele><time>2026-04-25T08:18:07.774Z</time></trkpt><trkpt lat="44.00884" lon="11.01993"><ele>840.0</ele><time>2026-04-25T08:18:08.78Z</time></trkpt><trkpt lat="44.0089283" lon="11.0199933"><ele>840.0</ele><time>2026-04-25T08:18:09.787Z</time></trkpt><trkpt lat="44.0090533" lon="11.02005"><ele>840.0</ele><time>2026-04-25T08:18:10.794Z</time></trkpt><trkpt lat="44.009195" lon="11.020085"><ele>840.0</ele><time>2026-04-25T08:18:11.799Z</time></trkpt><trkpt lat="44.0093117" lon="11.0201"><ele>840.0</ele><time>2026-04-25T08:18:12.807Z</time></trkpt><trkpt lat="44.0094367" lon="11.020115"><ele>846.0</ele><time>2026-04-25T08:18:13.814Z</time></trkpt><trkpt lat="44.0095483" lon="11.0201267"><ele>852.0</ele><time>2026-04-25T08:18:14.819Z</time></trkpt><trkpt lat="44.0096417" lon="11.0201717"><ele>858.0</ele><time>2026-04-25T08:18:15.826Z</time></trkpt><trkpt lat="44.0097267" lon="11.0202067"><ele>864.0</ele><time>2026-04-25T08:18:16.833Z</time></trkpt><trkpt lat="44.0098183" lon="11.0202233"><ele>870.0</ele><time>2026-04-25T08:18:17.772Z</time></trkpt><trkpt lat="44.009935" lon="11.02023"><ele>871.0</ele><time>2026-04-25T08:18:18.78Z</time></trkpt><trkpt lat="44.0100433" lon="11.0202083"><ele>872.0</ele><time>2026-04-25T08:18:19.786Z</time></trkpt><trkpt lat="44.010145" lon="11.0201933"><ele>873.0</ele><time>2026-04-25T08:18:20.792Z</time></trkpt><trkpt lat="44.0102183" lon="11.0201983"><ele>874.0</ele><time>2026-04-25T08:18:21.799Z</time></trkpt><trkpt lat="44.0103" lon="11.02028"><ele>875.0</ele><time>2026-04-25T08:18:23.812Z</time></trkpt><trkpt lat="44.0103383" lon="11.0204733"><ele>875.0</ele><time>2026-04-25T08:18:25.826Z</time></trkpt><trkpt lat="44.01036" lon="11.0206"><ele>875.0</ele><time>2026-04-25T08:18:26.766Z</time></trkpt><trkpt lat="44.0104017" lon="11.0207133"><ele>875.0</ele><time>2026-04-25T08:18:27.772Z</time></trkpt><trkpt lat="44.0104383" lon="11.02083"><ele>875.0</ele><time>2026-04-25T08:18:28.778Z</time></trkpt><trkpt lat="44.0104767" lon="11.0209567"><ele>875.0</ele><time>2026-04-25T08:18:29.853Z</time></trkpt><trkpt lat="44.010505" lon="11.0210883"><ele>869.0</ele><time>2026-04-25T08:18:30.859Z</time></trkpt><trkpt lat="44.01055" lon="11.0212183"><ele>863.0</ele><time>2026-04-25T08:18:31.799Z</time></trkpt><trkpt lat="44.0106033" lon="11.0213517"><ele>857.0</ele><time>2026-04-25T08:18:32.805Z</time></trkpt><trkpt lat="44.0106517" lon="11.021455"><ele>851.0</ele><time>2026-04-25T08:18:33.812Z</time></trkpt><trkpt lat="44.010735" lon="11.0215633"><ele>845.0</ele><time>2026-04-25T08:18:34.819Z</time></trkpt><trkpt lat="44.0108217" lon="11.02166"><ele>844.5</ele><time>2026-04-25T08:18:35.825Z</time></trkpt><trkpt lat="44.01093" lon="11.0217317"><ele>844.0</ele><time>2026-04-25T08:18:36.765Z</time></trkpt><trkpt lat="44.0110783" lon="11.0217867"><ele>843.5</ele><time>2026-04-25T08:18:37.771Z</time></trkpt><trkpt lat="44.011235" lon="11.021845"><ele>843.0</ele><time>2026-04-25T08:18:38.844Z</time></trkpt><trkpt lat="44.0113967" lon="11.021895"><ele>843.0</ele><time>2026-04-25T08:18:39.852Z</time></trkpt><trkpt lat="44.0115383" lon="11.0219317"><ele>843.0</ele><time>2026-04-25T08:18:40.858Z</time></trkpt><trkpt lat="44.011705" lon="11.0219933"><ele>843.0</ele><time>2026-04-25T08:18:41.798Z</time></trkpt><trkpt lat="44.0118267" lon="11.0220133"><ele>843.0</ele><time>2026-04-25T08:18:42.805Z</time></trkpt><trkpt lat="44.011915" lon="11.022015"><ele>843.8</ele><time>2026-04-25T08:18:43.811Z</time></trkpt><trkpt lat="44.0120017" lon="11.0220133"><ele>844.5999999999999</ele><time>2026-04-25T08:18:44.818Z</time></trkpt><trkpt lat="44.012075" lon="11.0220267"><ele>845.4000000000001</ele><time>2026-04-25T08:18:45.824Z</time></trkpt><trkpt lat="44.0121467" lon="11.02204"><ele>846.2</ele><time>2026-04-25T08:18:46.831Z</time></trkpt><trkpt lat="44.0121933" lon="11.0221833"><ele>847.0</ele><time>2026-04-25T08:18:48.844Z</time></trkpt><trkpt lat="44.0122117" lon="11.022325"><ele>847.0</ele><time>2026-04-25T08:18:49.851Z</time></trkpt><trkpt lat="44.0122167" lon="11.0224667"><ele>847.0</ele><time>2026-04-25T08:18:50.858Z</time></trkpt><trkpt lat="44.012225" lon="11.0225933"><ele>847.0</ele><time>2026-04-25T08:18:51.797Z</time></trkpt><trkpt lat="44.0122367" lon="11.0226983"><ele>847.0</ele><time>2026-04-25T08:18:52.803Z</time></trkpt><trkpt lat="44.01221" lon="11.0228467"><ele>847.0</ele><time>2026-04-25T08:18:54.817Z</time></trkpt><trkpt lat="44.0121367" lon="11.022915"><ele>841.6</ele><time>2026-04-25T08:18:56.83Z</time></trkpt><trkpt lat="44.012045" lon="11.0228517"><ele>836.2</ele><time>2026-04-25T08:18:58.844Z</time></trkpt><trkpt lat="44.0119483" lon="11.0227783"><ele>830.8</ele><time>2026-04-25T08:19:00.856Z</time></trkpt><trkpt lat="44.0118333" lon="11.0227867"><ele>825.4</ele><time>2026-04-25T08:19:02.803Z</time></trkpt><trkpt lat="44.0117817" lon="11.0228517"><ele>820.0</ele><time>2026-04-25T08:19:03.809Z</time></trkpt><trkpt lat="44.0117283" lon="11.0229633"><ele>820.0</ele><time>2026-04-25T08:19:04.816Z</time></trkpt><trkpt lat="44.0116917" lon="11.0230917"><ele>820.0</ele><time>2026-04-25T08:19:05.823Z</time></trkpt><trkpt lat="44.01167" lon="11.02323"><ele>820.0</ele><time>2026-04-25T08:19:06.829Z</time></trkpt><trkpt lat="44.0116667" lon="11.0233717"><ele>820.0</ele><time>2026-04-25T08:19:07.836Z</time></trkpt><trkpt lat="44.0116733" lon="11.0234883"><ele>820.0</ele><time>2026-04-25T08:19:08.843Z</time></trkpt><trkpt lat="44.0116917" lon="11.02358"><ele>817.0</ele><time>2026-04-25T08:19:09.849Z</time></trkpt><trkpt lat="44.0117817" lon="11.023695"><ele>814.0</ele><time>2026-04-25T08:19:11.796Z</time></trkpt><trkpt lat="44.0118633" lon="11.023715"><ele>811.0</ele><time>2026-04-25T08:19:12.802Z</time></trkpt><trkpt lat="44.0119433" lon="11.023735"><ele>808.0</ele><time>2026-04-25T08:19:13.809Z</time></trkpt><trkpt lat="44.0120233" lon="11.023775"><ele>805.0</ele><time>2026-04-25T08:19:14.815Z</time></trkpt><trkpt lat="44.01213" lon="11.0238183"><ele>805.0</ele><time>2026-04-25T08:19:15.821Z</time></trkpt><trkpt lat="44.0122517" lon="11.0238667"><ele>805.0</ele><time>2026-04-25T08:19:16.828Z</time></trkpt><trkpt lat="44.0124033" lon="11.0239267"><ele>805.0</ele><time>2026-04-25T08:19:17.835Z</time></trkpt><trkpt lat="44.0125367" lon="11.024005"><ele>805.0</ele><time>2026-04-25T08:19:18.842Z</time></trkpt><trkpt lat="44.0126683" lon="11.0240933"><ele>801.0</ele><time>2026-04-25T08:19:19.849Z</time></trkpt><trkpt lat="44.0127883" lon="11.024185"><ele>797.0</ele><time>2026-04-25T08:19:20.788Z</time></trkpt><trkpt lat="44.0129017" lon="11.0242933"><ele>793.0</ele><time>2026-04-25T08:19:21.795Z</time></trkpt><trkpt lat="44.0130967" lon="11.0244333"><ele>793.0</ele><time>2026-04-25T08:19:22.801Z</time></trkpt><trkpt lat="44.0131867" lon="11.024485"><ele>793.0</ele><time>2026-04-25T08:19:23.808Z</time></trkpt><trkpt lat="44.0133633" lon="11.02453"><ele>793.0</ele><time>2026-04-25T08:19:24.815Z</time></trkpt><trkpt lat="44.0134517" lon="11.0245333"><ele>793.0</ele><time>2026-04-25T08:19:25.821Z</time></trkpt><trkpt lat="44.0135167" lon="11.024535"><ele>793.0</ele><time>2026-04-25T08:19:26.828Z</time></trkpt><trkpt lat="44.0135783" lon="11.024625"><ele>795.0</ele><time>2026-04-25T08:19:28.841Z</time></trkpt><trkpt lat="44.013575" lon="11.0247133"><ele>797.0</ele><time>2026-04-25T08:19:29.848Z</time></trkpt><trkpt lat="44.0135517" lon="11.0248467"><ele>799.0</ele><time>2026-04-25T08:19:30.786Z</time></trkpt><trkpt lat="44.01355" lon="11.0249883"><ele>801.0</ele><time>2026-04-25T08:19:31.793Z</time></trkpt><trkpt lat="44.0135417" lon="11.0251717"><ele>803.0</ele><time>2026-04-25T08:19:32.8Z</time></trkpt><trkpt lat="44.01355" lon="11.0253233"><ele>796.5999999999999</ele><time>2026-04-25T08:19:33.807Z</time></trkpt><trkpt lat="44.0135783" lon="11.0254533"><ele>790.1999999999999</ele><time>2026-04-25T08:19:34.814Z</time></trkpt><trkpt lat="44.0136233" lon="11.0255683"><ele>783.8</ele><time>2026-04-25T08:19:35.82Z</time></trkpt><trkpt lat="44.0136817" lon="11.0256717"><ele>777.4</ele><time>2026-04-25T08:19:36.827Z</time></trkpt><trkpt lat="44.01378" lon="11.0257533"><ele>771.0</ele><time>2026-04-25T08:19:37.834Z</time></trkpt><trkpt lat="44.0138817" lon="11.0258367"><ele>770.3333333333333</ele><time>2026-04-25T08:19:38.84Z</time></trkpt><trkpt lat="44.0140017" lon="11.025905"><ele>769.6666666666666</ele><time>2026-04-25T08:19:39.847Z</time></trkpt><trkpt lat="44.0141633" lon="11.02596"><ele>769.0</ele><time>2026-04-25T08:19:40.787Z</time></trkpt><trkpt lat="44.0143533" lon="11.025985"><ele>768.5</ele><time>2026-04-25T08:19:41.793Z</time></trkpt><trkpt lat="44.0144767" lon="11.025985"><ele>768.0</ele><time>2026-04-25T08:19:42.8Z</time></trkpt><trkpt lat="44.01459" lon="11.0260067"><ele>767.5</ele><time>2026-04-25T08:19:43.807Z</time></trkpt><trkpt lat="44.0146983" lon="11.0260733"><ele>767.0</ele><time>2026-04-25T08:19:44.813Z</time></trkpt><trkpt lat="44.0148067" lon="11.0261633"><ele>767.0</ele><time>2026-04-25T08:19:45.819Z</time></trkpt><trkpt lat="44.0149167" lon="11.0262567"><ele>767.0</ele><time>2026-04-25T08:19:46.826Z</time></trkpt><trkpt lat="44.0150333" lon="11.0263433"><ele>767.0</ele><time>2026-04-25T08:19:47.833Z</time></trkpt><trkpt lat="44.0151417" lon="11.0264183"><ele>767.0</ele><time>2026-04-25T08:19:48.84Z</time></trkpt><trkpt lat="44.0152483" lon="11.0264933"><ele>769.0</ele><time>2026-04-25T08:19:49.779Z</time></trkpt><trkpt lat="44.0153383" lon="11.026565"><ele>771.0</ele><time>2026-04-25T08:19:50.786Z</time></trkpt><trkpt lat="44.01543" lon="11.0266333"><ele>773.0</ele><time>2026-04-25T08:19:51.792Z</time></trkpt><trkpt lat="44.0155133" lon="11.02672"><ele>775.0</ele><time>2026-04-25T08:19:52.799Z</time></trkpt><trkpt lat="44.01561" lon="11.0268533"><ele>777.0</ele><time>2026-04-25T08:19:53.806Z</time></trkpt><trkpt lat="44.0156967" lon="11.0270117"><ele>773.6666666666666</ele><time>2026-04-25T08:19:54.812Z</time></trkpt><trkpt lat="44.0157833" lon="11.0271817"><ele>770.3333333333333</ele><time>2026-04-25T08:19:55.818Z</time></trkpt><trkpt lat="44.0158717" lon="11.02736"><ele>767.0</ele><time>2026-04-25T08:19:56.826Z</time></trkpt><trkpt lat="44.01595" lon="11.0275317"><ele>763.25</ele><time>2026-04-25T08:19:57.832Z</time></trkpt><trkpt lat="44.0160333" lon="11.027695"><ele>759.5</ele><time>2026-04-25T08:19:58.839Z</time></trkpt><trkpt lat="44.01611" lon="11.0278617"><ele>755.75</ele><time>2026-04-25T08:19:59.778Z</time></trkpt><trkpt lat="44.016185" lon="11.0280183"><ele>752.0</ele><time>2026-04-25T08:20:00.785Z</time></trkpt><trkpt lat="44.0162617" lon="11.0281717"><ele>752.0</ele><time>2026-04-25T08:20:01.791Z</time></trkpt><trkpt lat="44.016355" lon="11.0283083"><ele>752.0</ele><time>2026-04-25T08:20:02.798Z</time></trkpt><trkpt lat="44.0164533" lon="11.0284383"><ele>752.0</ele><time>2026-04-25T08:20:03.805Z</time></trkpt><trkpt lat="44.016555" lon="11.0285733"><ele>752.0</ele><time>2026-04-25T08:20:04.812Z</time></trkpt><trkpt lat="44.0166567" lon="11.0287133"><ele>751.25</ele><time>2026-04-25T08:20:05.818Z</time></trkpt><trkpt lat="44.01675" lon="11.0288667"><ele>750.5</ele><time>2026-04-25T08:20:06.825Z</time></trkpt><trkpt lat="44.0168367" lon="11.0290133"><ele>749.75</ele><time>2026-04-25T08:20:07.831Z</time></trkpt><trkpt lat="44.0169083" lon="11.0291517"><ele>749.0</ele><time>2026-04-25T08:20:08.838Z</time></trkpt><trkpt lat="44.016975" lon="11.0292767"><ele>746.75</ele><time>2026-04-25T08:20:09.778Z</time></trkpt><trkpt lat="44.0170433" lon="11.0293983"><ele>744.5</ele><time>2026-04-25T08:20:10.784Z</time></trkpt><trkpt lat="44.0171217" lon="11.029505"><ele>742.25</ele><time>2026-04-25T08:20:11.791Z</time></trkpt><trkpt lat="44.01722" lon="11.029585"><ele>740.0</ele><time>2026-04-25T08:20:12.797Z</time></trkpt><trkpt lat="44.0173383" lon="11.0296417"><ele>740.0</ele><time>2026-04-25T08:20:13.804Z</time></trkpt><trkpt lat="44.0174733" lon="11.0296733"><ele>740.0</ele><time>2026-04-25T08:20:14.81Z</time></trkpt><trkpt lat="44.0176133" lon="11.0296917"><ele>740.0</ele><time>2026-04-25T08:20:15.817Z</time></trkpt><trkpt lat="44.0177517" lon="11.0297167"><ele>740.0</ele><time>2026-04-25T08:20:16.824Z</time></trkpt><trkpt lat="44.0178867" lon="11.0297433"><ele>743.0</ele><time>2026-04-25T08:20:17.831Z</time></trkpt><trkpt lat="44.01802" lon="11.02977"><ele>746.0</ele><time>2026-04-25T08:20:18.837Z</time></trkpt><trkpt lat="44.018165" lon="11.0298067"><ele>749.0</ele><time>2026-04-25T08:20:19.777Z</time></trkpt><trkpt lat="44.0183183" lon="11.0298533"><ele>752.0</ele><time>2026-04-25T08:20:20.783Z</time></trkpt><trkpt lat="44.0184867" lon="11.0298767"><ele>747.3333333333333</ele><time>2026-04-25T08:20:21.79Z</time></trkpt><trkpt lat="44.0186333" lon="11.0299533"><ele>742.6666666666666</ele><time>2026-04-25T08:20:22.796Z</time></trkpt><trkpt lat="44.01879" lon="11.0300433"><ele>738.0</ele><time>2026-04-25T08:20:23.802Z</time></trkpt><trkpt lat="44.0189367" lon="11.0301383"><ele>738.0</ele><time>2026-04-25T08:20:24.81Z</time></trkpt><trkpt lat="44.0190883" lon="11.0302367"><ele>738.0</ele><time>2026-04-25T08:20:25.816Z</time></trkpt><trkpt lat="44.01924" lon="11.0303317"><ele>738.0</ele><time>2026-04-25T08:20:26.823Z</time></trkpt><trkpt lat="44.01939" lon="11.0304183"><ele>739.6666666666666</ele><time>2026-04-25T08:20:27.83Z</time></trkpt><trkpt lat="44.0195317" lon="11.0305233"><ele>741.3333333333333</ele><time>2026-04-25T08:20:28.836Z</time></trkpt><trkpt lat="44.0196517" lon="11.0306433"><ele>743.0</ele><time>2026-04-25T08:20:29.776Z</time></trkpt><trkpt lat="44.0197717" lon="11.030765"><ele>739.6666666666666</ele><time>2026-04-25T08:20:30.783Z</time></trkpt><trkpt lat="44.0198883" lon="11.0308933"><ele>736.3333333333334</ele><time>2026-04-25T08:20:31.789Z</time></trkpt><trkpt lat="44.0200117" lon="11.0310083"><ele>733.0</ele><time>2026-04-25T08:20:32.796Z</time></trkpt><trkpt lat="44.0201433" lon="11.0311183"><ele>731.75</ele><time>2026-04-25T08:20:33.803Z</time></trkpt><trkpt lat="44.0202817" lon="11.031195"><ele>730.5</ele><time>2026-04-25T08:20:34.809Z</time></trkpt><trkpt lat="44.0204167" lon="11.031265"><ele>729.25</ele><time>2026-04-25T08:20:35.816Z</time></trkpt><trkpt lat="44.020545" lon="11.0313317"><ele>728.0</ele><time>2026-04-25T08:20:36.823Z</time></trkpt><trkpt lat="44.0206617" lon="11.0313933"><ele>728.0</ele><time>2026-04-25T08:20:37.829Z</time></trkpt><trkpt lat="44.0207533" lon="11.0314767"><ele>728.0</ele><time>2026-04-25T08:20:38.768Z</time></trkpt><trkpt lat="44.0208233" lon="11.031585"><ele>728.0</ele><time>2026-04-25T08:20:39.775Z</time></trkpt><trkpt lat="44.020865" lon="11.0317267"><ele>728.0</ele><time>2026-04-25T08:20:40.781Z</time></trkpt><trkpt lat="44.0208633" lon="11.031895"><ele>728.0</ele><time>2026-04-25T08:20:41.789Z</time></trkpt><trkpt lat="44.0208633" lon="11.0320567"><ele>728.5999999999999</ele><time>2026-04-25T08:20:42.795Z</time></trkpt><trkpt lat="44.0208633" lon="11.0322033"><ele>729.1999999999999</ele><time>2026-04-25T08:20:43.802Z</time></trkpt><trkpt lat="44.0208733" lon="11.0323433"><ele>729.8</ele><time>2026-04-25T08:20:44.808Z</time></trkpt><trkpt lat="44.0209083" lon="11.0324817"><ele>730.4</ele><time>2026-04-25T08:20:45.814Z</time></trkpt><trkpt lat="44.02097" lon="11.0326083"><ele>731.0</ele><time>2026-04-25T08:20:46.822Z</time></trkpt><trkpt lat="44.0210533" lon="11.0327133"><ele>727.75</ele><time>2026-04-25T08:20:47.827Z</time></trkpt><trkpt lat="44.0211533" lon="11.0327917"><ele>724.5</ele><time>2026-04-25T08:20:48.768Z</time></trkpt><trkpt lat="44.021275" lon="11.0328367"><ele>721.25</ele><time>2026-04-25T08:20:49.775Z</time></trkpt><trkpt lat="44.02141" lon="11.0328483"><ele>718.0</ele><time>2026-04-25T08:20:50.781Z</time></trkpt><trkpt lat="44.0215483" lon="11.032845"><ele>721.25</ele><time>2026-04-25T08:20:51.788Z</time></trkpt><trkpt lat="44.0216817" lon="11.0328567"><ele>724.5</ele><time>2026-04-25T08:20:52.861Z</time></trkpt><trkpt lat="44.021815" lon="11.0329067"><ele>727.75</ele><time>2026-04-25T08:20:53.801Z</time></trkpt><trkpt lat="44.021945" lon="11.0330017"><ele>731.0</ele><time>2026-04-25T08:20:54.808Z</time></trkpt><trkpt lat="44.0220733" lon="11.0331267"><ele>731.0</ele><time>2026-04-25T08:20:55.814Z</time></trkpt><trkpt lat="44.0222" lon="11.03325"><ele>731.0</ele><time>2026-04-25T08:20:56.821Z</time></trkpt><trkpt lat="44.02233" lon="11.033355"><ele>731.0</ele><time>2026-04-25T08:20:57.828Z</time></trkpt><trkpt lat="44.0224733" lon="11.033425"><ele>724.6666666666666</ele><time>2026-04-25T08:20:58.767Z</time></trkpt><trkpt lat="44.0226283" lon="11.0334717"><ele>718.3333333333334</ele><time>2026-04-25T08:20:59.774Z</time></trkpt><trkpt lat="44.0227817" lon="11.0335067"><ele>712.0</ele><time>2026-04-25T08:21:00.847Z</time></trkpt><trkpt lat="44.0229367" lon="11.0335417"><ele>712.0</ele><time>2026-04-25T08:21:01.854Z</time></trkpt><trkpt lat="44.0230883" lon="11.0335817"><ele>712.0</ele><time>2026-04-25T08:21:02.861Z</time></trkpt><trkpt lat="44.0232367" lon="11.0336217"><ele>712.0</ele><time>2026-04-25T08:21:03.8Z</time></trkpt><trkpt lat="44.0233867" lon="11.0336567"><ele>715.3333333333334</ele><time>2026-04-25T08:21:04.807Z</time></trkpt><trkpt lat="44.0235333" lon="11.0337033"><ele>718.6666666666666</ele><time>2026-04-25T08:21:05.814Z</time></trkpt><trkpt lat="44.02368" lon="11.0337583"><ele>722.0</ele><time>2026-04-25T08:21:06.819Z</time></trkpt><trkpt lat="44.023825" lon="11.03382"><ele>722.0</ele><time>2026-04-25T08:21:07.827Z</time></trkpt><trkpt lat="44.0239667" lon="11.03389"><ele>722.0</ele><time>2026-04-25T08:21:08.766Z</time></trkpt><trkpt lat="44.0241033" lon="11.0339667"><ele>722.0</ele><time>2026-04-25T08:21:09.84Z</time></trkpt><trkpt lat="44.0242233" lon="11.0340517"><ele>722.0</ele><time>2026-04-25T08:21:10.847Z</time></trkpt><trkpt lat="44.0243333" lon="11.0341417"><ele>716.75</ele><time>2026-04-25T08:21:11.853Z</time></trkpt><trkpt lat="44.024445" lon="11.0342317"><ele>711.5</ele><time>2026-04-25T08:21:12.86Z</time></trkpt><trkpt lat="44.02455" lon="11.0343083"><ele>706.25</ele><time>2026-04-25T08:21:13.799Z</time></trkpt><trkpt lat="44.0246483" lon="11.0343833"><ele>701.0</ele><time>2026-04-25T08:21:14.806Z</time></trkpt><trkpt lat="44.0247467" lon="11.0344417"><ele>701.0</ele><time>2026-04-25T08:21:15.813Z</time></trkpt><trkpt lat="44.02485" lon="11.0344683"><ele>701.0</ele><time>2026-04-25T08:21:16.819Z</time></trkpt><trkpt lat="44.02495" lon="11.0344617"><ele>701.0</ele><time>2026-04-25T08:21:17.826Z</time></trkpt><trkpt lat="44.02503" lon="11.0344417"><ele>701.0</ele><time>2026-04-25T08:21:18.833Z</time></trkpt><trkpt lat="44.0251483" lon="11.0344367"><ele>701.0</ele><time>2026-04-25T08:21:20.846Z</time></trkpt><trkpt lat="44.025275" lon="11.0345367"><ele>702.5</ele><time>2026-04-25T08:21:22.792Z</time></trkpt><trkpt lat="44.0253683" lon="11.0346067"><ele>704.0</ele><time>2026-04-25T08:21:23.799Z</time></trkpt><trkpt lat="44.025485" lon="11.0346833"><ele>705.5</ele><time>2026-04-25T08:21:24.805Z</time></trkpt><trkpt lat="44.0255983" lon="11.0347617"><ele>707.0</ele><time>2026-04-25T08:21:25.811Z</time></trkpt><trkpt lat="44.0257133" lon="11.0348483"><ele>706.75</ele><time>2026-04-25T08:21:26.818Z</time></trkpt><trkpt lat="44.0258233" lon="11.0349433"><ele>706.5</ele><time>2026-04-25T08:21:27.825Z</time></trkpt><trkpt lat="44.02593" lon="11.0350467"><ele>706.25</ele><time>2026-04-25T08:21:28.832Z</time></trkpt><trkpt lat="44.0260433" lon="11.0351483"><ele>706.0</ele><time>2026-04-25T08:21:29.839Z</time></trkpt><trkpt lat="44.0261683" lon="11.0352567"><ele>706.0</ele><time>2026-04-25T08:21:30.844Z</time></trkpt><trkpt lat="44.0262983" lon="11.0353733"><ele>706.0</ele><time>2026-04-25T08:21:31.852Z</time></trkpt><trkpt lat="44.02642" lon="11.0355"><ele>706.0</ele><time>2026-04-25T08:21:32.791Z</time></trkpt><trkpt lat="44.02655" lon="11.03563"><ele>705.0</ele><time>2026-04-25T08:21:33.798Z</time></trkpt><trkpt lat="44.02669" lon="11.035775"><ele>704.0</ele><time>2026-04-25T08:21:34.804Z</time></trkpt><trkpt lat="44.02683" lon="11.03593"><ele>703.0</ele><time>2026-04-25T08:21:35.811Z</time></trkpt><trkpt lat="44.0269683" lon="11.03609"><ele>703.0</ele><time>2026-04-25T08:21:36.818Z</time></trkpt><trkpt lat="44.0271" lon="11.03626"><ele>703.0</ele><time>2026-04-25T08:21:37.824Z</time></trkpt><trkpt lat="44.027225" lon="11.0364267"><ele>703.0</ele><time>2026-04-25T08:21:38.831Z</time></trkpt><trkpt lat="44.02734" lon="11.0366017"><ele>705.3333333333334</ele><time>2026-04-25T08:21:39.837Z</time></trkpt><trkpt lat="44.02745" lon="11.0367667"><ele>707.6666666666666</ele><time>2026-04-25T08:21:40.843Z</time></trkpt><trkpt lat="44.0275467" lon="11.03693"><ele>710.0</ele><time>2026-04-25T08:21:41.851Z</time></trkpt><trkpt lat="44.0276267" lon="11.0370883"><ele>710.0</ele><time>2026-04-25T08:21:42.791Z</time></trkpt><trkpt lat="44.0277" lon="11.0372333"><ele>710.0</ele><time>2026-04-25T08:21:43.797Z</time></trkpt><trkpt lat="44.0277783" lon="11.03737"><ele>710.0</ele><time>2026-04-25T08:21:44.804Z</time></trkpt><trkpt lat="44.02788" lon="11.0374983"><ele>710.0</ele><time>2026-04-25T08:21:45.81Z</time></trkpt><trkpt lat="44.028" lon="11.03762"><ele>706.75</ele><time>2026-04-25T08:21:46.817Z</time></trkpt><trkpt lat="44.0281217" lon="11.0377367"><ele>703.5</ele><time>2026-04-25T08:21:47.824Z</time></trkpt><trkpt lat="44.0282517" lon="11.0378333"><ele>700.25</ele><time>2026-04-25T08:21:48.829Z</time></trkpt><trkpt lat="44.028375" lon="11.0379133"><ele>697.0</ele><time>2026-04-25T08:21:49.837Z</time></trkpt><trkpt lat="44.0284983" lon="11.037975"><ele>697.0</ele><time>2026-04-25T08:21:50.844Z</time></trkpt><trkpt lat="44.0286133" lon="11.0380217"><ele>697.0</ele><time>2026-04-25T08:21:51.85Z</time></trkpt><trkpt lat="44.0287233" lon="11.0380433"><ele>697.0</ele><time>2026-04-25T08:21:52.789Z</time></trkpt><trkpt lat="44.028815" lon="11.0380683"><ele>697.0</ele><time>2026-04-25T08:21:53.795Z</time></trkpt><trkpt lat="44.0288983" lon="11.0381067"><ele>697.0</ele><time>2026-04-25T08:21:54.802Z</time></trkpt><trkpt lat="44.0289767" lon="11.0381633"><ele>697.0</ele><time>2026-04-25T08:21:55.81Z</time></trkpt><trkpt lat="44.0290433" lon="11.03825"><ele>697.0</ele><time>2026-04-25T08:21:56.815Z</time></trkpt><trkpt lat="44.0291167" lon="11.038355"><ele>697.0</ele><time>2026-04-25T08:21:57.822Z</time></trkpt><trkpt lat="44.0291967" lon="11.038445"><ele>697.0</ele><time>2026-04-25T08:21:58.829Z</time></trkpt><trkpt lat="44.02928" lon="11.0385333"><ele>697.0</ele><time>2026-04-25T08:21:59.836Z</time></trkpt><trkpt lat="44.0293767" lon="11.03859"><ele>694.5</ele><time>2026-04-25T08:22:00.843Z</time></trkpt><trkpt lat="44.0294733" lon="11.0386233"><ele>692.0</ele><time>2026-04-25T08:22:01.849Z</time></trkpt><trkpt lat="44.0295783" lon="11.038675"><ele>689.5</ele><time>2026-04-25T08:22:02.789Z</time></trkpt><trkpt lat="44.0296983" lon="11.0387267"><ele>687.0</ele><time>2026-04-25T08:22:03.796Z</time></trkpt><trkpt lat="44.0298233" lon="11.0387867"><ele>687.0</ele><time>2026-04-25T08:22:04.802Z</time></trkpt><trkpt lat="44.0299483" lon="11.038845"><ele>687.0</ele><time>2026-04-25T08:22:05.808Z</time></trkpt><trkpt lat="44.030085" lon="11.0389017"><ele>687.0</ele><time>2026-04-25T08:22:06.815Z</time></trkpt><trkpt lat="44.0302233" lon="11.0389533"><ele>687.0</ele><time>2026-04-25T08:22:07.822Z</time></trkpt><trkpt lat="44.0303617" lon="11.03899"><ele>688.25</ele><time>2026-04-25T08:22:08.829Z</time></trkpt><trkpt lat="44.0304933" lon="11.039015"><ele>689.5</ele><time>2026-04-25T08:22:09.835Z</time></trkpt><trkpt lat="44.0306167" lon="11.0390333"><ele>690.75</ele><time>2026-04-25T08:22:10.842Z</time></trkpt><trkpt lat="44.030735" lon="11.0390533"><ele>692.0</ele><time>2026-04-25T08:22:11.782Z</time></trkpt><trkpt lat="44.03085" lon="11.03908"><ele>690.6</ele><time>2026-04-25T08:22:12.788Z</time></trkpt><trkpt lat="44.0309433" lon="11.039105"><ele>689.2</ele><time>2026-04-25T08:22:13.795Z</time></trkpt><trkpt lat="44.03105" lon="11.0391333"><ele>687.8</ele><time>2026-04-25T08:22:14.801Z</time></trkpt><trkpt lat="44.03117" lon="11.039165"><ele>686.4</ele><time>2026-04-25T08:22:15.808Z</time></trkpt><trkpt lat="44.0312683" lon="11.03922"><ele>685.0</ele><time>2026-04-25T08:22:16.815Z</time></trkpt><trkpt lat="44.0313733" lon="11.0392867"><ele>685.0</ele><time>2026-04-25T08:22:17.821Z</time></trkpt><trkpt lat="44.0314733" lon="11.03938"><ele>685.0</ele><time>2026-04-25T08:22:18.828Z</time></trkpt><trkpt lat="44.031565" lon="11.03946"><ele>685.0</ele><time>2026-04-25T08:22:19.835Z</time></trkpt><trkpt lat="44.0316633" lon="11.039545"><ele>685.0</ele><time>2026-04-25T08:22:20.841Z</time></trkpt><trkpt lat="44.03175" lon="11.03962"><ele>685.0</ele><time>2026-04-25T08:22:21.781Z</time></trkpt><trkpt lat="44.0318483" lon="11.0396883"><ele>684.5</ele><time>2026-04-25T08:22:22.787Z</time></trkpt><trkpt lat="44.031955" lon="11.0397667"><ele>684.0</ele><time>2026-04-25T08:22:23.794Z</time></trkpt><trkpt lat="44.032075" lon="11.0398183"><ele>683.5</ele><time>2026-04-25T08:22:24.801Z</time></trkpt><trkpt lat="44.0321917" lon="11.0398567"><ele>683.0</ele><time>2026-04-25T08:22:25.807Z</time></trkpt><trkpt lat="44.0323167" lon="11.0398983"><ele>683.0</ele><time>2026-04-25T08:22:26.814Z</time></trkpt><trkpt lat="44.0324483" lon="11.0399467"><ele>683.0</ele><time>2026-04-25T08:22:27.821Z</time></trkpt><trkpt lat="44.0325767" lon="11.040005"><ele>683.0</ele><time>2026-04-25T08:22:28.827Z</time></trkpt><trkpt lat="44.0327033" lon="11.0400633"><ele>683.0</ele><time>2026-04-25T08:22:29.834Z</time></trkpt><trkpt lat="44.0328283" lon="11.04014"><ele>681.5</ele><time>2026-04-25T08:22:30.84Z</time></trkpt><trkpt lat="44.0329517" lon="11.0402067"><ele>680.0</ele><time>2026-04-25T08:22:31.779Z</time></trkpt><trkpt lat="44.033065" lon="11.0402583"><ele>678.5</ele><time>2026-04-25T08:22:32.786Z</time></trkpt><trkpt lat="44.0331833" lon="11.0403133"><ele>677.0</ele><time>2026-04-25T08:22:33.793Z</time></trkpt><trkpt lat="44.0333017" lon="11.0403633"><ele>676.25</ele><time>2026-04-25T08:22:34.8Z</time></trkpt><trkpt lat="44.033415" lon="11.0404317"><ele>675.5</ele><time>2026-04-25T08:22:35.806Z</time></trkpt><trkpt lat="44.0335233" lon="11.0405183"><ele>674.75</ele><time>2026-04-25T08:22:36.813Z</time></trkpt><trkpt lat="44.0336267" lon="11.0406067"><ele>674.0</ele><time>2026-04-25T08:22:37.82Z</time></trkpt><trkpt lat="44.0337083" lon="11.0406717"><ele>674.0</ele><time>2026-04-25T08:22:38.826Z</time></trkpt><trkpt lat="44.0338017" lon="11.040715"><ele>674.0</ele><time>2026-04-25T08:22:39.833Z</time></trkpt><trkpt lat="44.0338933" lon="11.0407433"><ele>674.0</ele><time>2026-04-25T08:22:40.839Z</time></trkpt><trkpt lat="44.0339917" lon="11.04077"><ele>674.0</ele><time>2026-04-25T08:22:41.779Z</time></trkpt><trkpt lat="44.034085" lon="11.0407983"><ele>674.0</ele><time>2026-04-25T08:22:42.786Z</time></trkpt><trkpt lat="44.0342083" lon="11.0408283"><ele>675.2</ele><time>2026-04-25T08:22:43.792Z</time></trkpt><trkpt lat="44.0343033" lon="11.0408233"><ele>676.4000000000001</ele><time>2026-04-25T08:22:44.798Z</time></trkpt><trkpt lat="44.034395" lon="11.0407967"><ele>677.6</ele><time>2026-04-25T08:22:45.806Z</time></trkpt><trkpt lat="44.0344817" lon="11.0407467"><ele>678.8</ele><time>2026-04-25T08:22:46.811Z</time></trkpt><trkpt lat="44.034565" lon="11.040695"><ele>680.0</ele><time>2026-04-25T08:22:47.819Z</time></trkpt><trkpt lat="44.034645" lon="11.0406183"><ele>680.0</ele><time>2026-04-25T08:22:48.825Z</time></trkpt><trkpt lat="44.034765" lon="11.040465"><ele>680.0</ele><time>2026-04-25T08:22:49.831Z</time></trkpt><trkpt lat="44.03486" lon="11.040315"><ele>680.0</ele><time>2026-04-25T08:22:50.772Z</time></trkpt><trkpt lat="44.0349683" lon="11.0401667"><ele>680.0</ele><time>2026-04-25T08:22:51.778Z</time></trkpt><trkpt lat="44.0350517" lon="11.0400467"><ele>680.0</ele><time>2026-04-25T08:22:52.785Z</time></trkpt><trkpt lat="44.035145" lon="11.0399417"><ele>680.0</ele><time>2026-04-25T08:22:53.792Z</time></trkpt><trkpt lat="44.0352383" lon="11.0398467"><ele>680.0</ele><time>2026-04-25T08:22:54.798Z</time></trkpt><trkpt lat="44.0353267" lon="11.0397733"><ele>680.8</ele><time>2026-04-25T08:22:55.805Z</time></trkpt><trkpt lat="44.0354167" lon="11.039715"><ele>681.6</ele><time>2026-04-25T08:22:56.812Z</time></trkpt><trkpt lat="44.0355017" lon="11.039675"><ele>682.4000000000001</ele><time>2026-04-25T08:22:57.818Z</time></trkpt><trkpt lat="44.0356" lon="11.03963"><ele>683.2</ele><time>2026-04-25T08:22:58.825Z</time></trkpt><trkpt lat="44.0356783" lon="11.03962"><ele>684.0</ele><time>2026-04-25T08:22:59.83Z</time></trkpt><trkpt lat="44.035765" lon="11.0396267"><ele>683.0</ele><time>2026-04-25T08:23:00.771Z</time></trkpt><trkpt lat="44.0358367" lon="11.0396733"><ele>682.0</ele><time>2026-04-25T08:23:01.777Z</time></trkpt><trkpt lat="44.035905" lon="11.0397333"><ele>681.0</ele><time>2026-04-25T08:23:02.784Z</time></trkpt><trkpt lat="44.0359683" lon="11.0397717"><ele>680.0</ele><time>2026-04-25T08:23:03.791Z</time></trkpt><trkpt lat="44.0360667" lon="11.03985"><ele>679.0</ele><time>2026-04-25T08:23:05.804Z</time></trkpt><trkpt lat="44.0361167" lon="11.0399067"><ele>678.0</ele><time>2026-04-25T08:23:07.816Z</time></trkpt><trkpt lat="44.03599" lon="11.0399033"><ele>678.0</ele><time>2026-04-25T08:23:10.77Z</time></trkpt><trkpt lat="44.0358783" lon="11.0398567"><ele>678.0</ele><time>2026-04-25T08:23:11.777Z</time></trkpt><trkpt lat="44.0357817" lon="11.03985"><ele>678.0</ele><time>2026-04-25T08:23:12.783Z</time></trkpt><trkpt lat="44.035675" lon="11.039875"><ele>678.0</ele><time>2026-04-25T08:23:13.79Z</time></trkpt><trkpt lat="44.0355667" lon="11.0399067"><ele>678.0</ele><time>2026-04-25T08:23:14.864Z</time></trkpt><trkpt lat="44.0354833" lon="11.03995"><ele>678.4</ele><time>2026-04-25T08:23:15.803Z</time></trkpt><trkpt lat="44.035415" lon="11.0400083"><ele>678.8</ele><time>2026-04-25T08:23:16.81Z</time></trkpt><trkpt lat="44.035355" lon="11.0401133"><ele>679.2</ele><time>2026-04-25T08:23:17.817Z</time></trkpt><trkpt lat="44.0353283" lon="11.0402717"><ele>679.6</ele><time>2026-04-25T08:23:19.83Z</time></trkpt><trkpt lat="44.0353467" lon="11.0403683"><ele>680.0</ele><time>2026-04-25T08:23:20.769Z</time></trkpt><trkpt lat="44.0354233" lon="11.0404733"><ele>680.0</ele><time>2026-04-25T08:23:22.783Z</time></trkpt><trkpt lat="44.0354933" lon="11.0404633"><ele>680.0</ele><time>2026-04-25T08:23:23.856Z</time></trkpt><trkpt lat="44.03556" lon="11.0404667"><ele>680.0</ele><time>2026-04-25T08:23:24.863Z</time></trkpt><trkpt lat="44.0356533" lon="11.0405117"><ele>680.0</ele><time>2026-04-25T08:23:25.802Z</time></trkpt><trkpt lat="44.03575" lon="11.0405567"><ele>680.0</ele><time>2026-04-25T08:23:26.809Z</time></trkpt><trkpt lat="44.0358567" lon="11.04058"><ele>680.0</ele><time>2026-04-25T08:23:27.816Z</time></trkpt><trkpt lat="44.0359567" lon="11.0406133"><ele>684.25</ele><time>2026-04-25T08:23:28.823Z</time></trkpt><trkpt lat="44.03612" lon="11.0406667"><ele>688.5</ele><time>2026-04-25T08:23:29.829Z</time></trkpt><trkpt lat="44.036235" lon="11.0406433"><ele>692.75</ele><time>2026-04-25T08:23:30.769Z</time></trkpt><trkpt lat="44.0363417" lon="11.0406033"><ele>697.0</ele><time>2026-04-25T08:23:31.841Z</time></trkpt><trkpt lat="44.03648" lon="11.0405433"><ele>697.0</ele><time>2026-04-25T08:23:32.848Z</time></trkpt><trkpt lat="44.03661" lon="11.0405133"><ele>697.0</ele><time>2026-04-25T08:23:33.856Z</time></trkpt><trkpt lat="44.0367433" lon="11.040485"><ele>697.0</ele><time>2026-04-25T08:23:34.861Z</time></trkpt><trkpt lat="44.0368683" lon="11.04045"><ele>697.0</ele><time>2026-04-25T08:23:35.801Z</time></trkpt><trkpt lat="44.0369983" lon="11.0404133"><ele>699.75</ele><time>2026-04-25T08:23:36.808Z</time></trkpt><trkpt lat="44.037115" lon="11.0403717"><ele>702.5</ele><time>2026-04-25T08:23:37.814Z</time></trkpt><trkpt lat="44.037225" lon="11.040325"><ele>705.25</ele><time>2026-04-25T08:23:38.822Z</time></trkpt><trkpt lat="44.0373283" lon="11.040265"><ele>708.0</ele><time>2026-04-25T08:23:39.761Z</time></trkpt><trkpt lat="44.03743" lon="11.0401983"><ele>709.5</ele><time>2026-04-25T08:23:40.835Z</time></trkpt><trkpt lat="44.037525" lon="11.040105"><ele>711.0</ele><time>2026-04-25T08:23:41.842Z</time></trkpt><trkpt lat="44.0376233" lon="11.0400033"><ele>712.5</ele><time>2026-04-25T08:23:42.847Z</time></trkpt><trkpt lat="44.0377183" lon="11.0398933"><ele>714.0</ele><time>2026-04-25T08:23:43.855Z</time></trkpt><trkpt lat="44.0378217" lon="11.0397817"><ele>714.0</ele><time>2026-04-25T08:23:44.794Z</time></trkpt><trkpt lat="44.03793" lon="11.03967"><ele>714.0</ele><time>2026-04-25T08:23:45.801Z</time></trkpt><trkpt lat="44.03803" lon="11.0395733"><ele>714.0</ele><time>2026-04-25T08:23:46.808Z</time></trkpt><trkpt lat="44.038145" lon="11.039475"><ele>714.0</ele><time>2026-04-25T08:23:47.814Z</time></trkpt><trkpt lat="44.0382767" lon="11.0393533"><ele>715.75</ele><time>2026-04-25T08:23:48.821Z</time></trkpt><trkpt lat="44.0383817" lon="11.0392317"><ele>717.5</ele><time>2026-04-25T08:23:49.828Z</time></trkpt><trkpt lat="44.0384583" lon="11.0391033"><ele>719.25</ele><time>2026-04-25T08:23:50.833Z</time></trkpt><trkpt lat="44.0385233" lon="11.0389817"><ele>721.0</ele><time>2026-04-25T08:23:51.841Z</time></trkpt><trkpt lat="44.0385917" lon="11.0388867"><ele>721.0</ele><time>2026-04-25T08:23:52.848Z</time></trkpt><trkpt lat="44.0386833" lon="11.03881"><ele>721.0</ele><time>2026-04-25T08:23:53.854Z</time></trkpt><trkpt lat="44.03876" lon="11.038775"><ele>721.0</ele><time>2026-04-25T08:23:54.794Z</time></trkpt><trkpt lat="44.03883" lon="11.03877"><ele>721.0</ele><time>2026-04-25T08:23:55.8Z</time></trkpt><trkpt lat="44.03893" lon="11.0388467"><ele>721.0</ele><time>2026-04-25T08:23:57.814Z</time></trkpt><trkpt lat="44.0389867" lon="11.0389833"><ele>721.0</ele><time>2026-04-25T08:23:58.819Z</time></trkpt><trkpt lat="44.03904" lon="11.039085"><ele>721.0</ele><time>2026-04-25T08:23:59.827Z</time></trkpt><trkpt lat="44.0390933" lon="11.0391667"><ele>721.0</ele><time>2026-04-25T08:24:00.832Z</time></trkpt><trkpt lat="44.0391317" lon="11.0392433"><ele>721.0</ele><time>2026-04-25T08:24:01.839Z</time></trkpt><trkpt lat="44.0391667" lon="11.0393633"><ele>721.0</ele><time>2026-04-25T08:24:03.853Z</time></trkpt><trkpt lat="44.0391533" lon="11.0394733"><ele>721.0</ele><time>2026-04-25T08:24:05.799Z</time></trkpt><trkpt lat="44.0390617" lon="11.039455"><ele>724.1999999999999</ele><time>2026-04-25T08:24:09.825Z</time></trkpt><trkpt lat="44.0389983" lon="11.0394183"><ele>727.4</ele><time>2026-04-25T08:24:10.833Z</time></trkpt><trkpt lat="44.038925" lon="11.0394017"><ele>730.6</ele><time>2026-04-25T08:24:11.839Z</time></trkpt><trkpt lat="44.0388067" lon="11.0394067"><ele>733.8</ele><time>2026-04-25T08:24:12.846Z</time></trkpt><trkpt lat="44.0387033" lon="11.0394383"><ele>737.0</ele><time>2026-04-25T08:24:13.853Z</time></trkpt><trkpt lat="44.0386033" lon="11.03949"><ele>737.0</ele><time>2026-04-25T08:24:14.791Z</time></trkpt><trkpt lat="44.0385083" lon="11.0395567"><ele>737.0</ele><time>2026-04-25T08:24:15.799Z</time></trkpt><trkpt lat="44.03843" lon="11.039685"><ele>737.0</ele><time>2026-04-25T08:24:16.805Z</time></trkpt><trkpt lat="44.0383567" lon="11.0398117"><ele>737.0</ele><time>2026-04-25T08:24:17.812Z</time></trkpt><trkpt lat="44.0382817" lon="11.03996"><ele>735.0</ele><time>2026-04-25T08:24:18.819Z</time></trkpt><trkpt lat="44.0382183" lon="11.0401"><ele>733.0</ele><time>2026-04-25T08:24:19.825Z</time></trkpt><trkpt lat="44.0381567" lon="11.0402417"><ele>731.0</ele><time>2026-04-25T08:24:20.832Z</time></trkpt><trkpt lat="44.038105" lon="11.0403967"><ele>729.0</ele><time>2026-04-25T08:24:21.839Z</time></trkpt><trkpt lat="44.0380617" lon="11.0405567"><ele>729.0</ele><time>2026-04-25T08:24:22.845Z</time></trkpt><trkpt lat="44.0380217" lon="11.040725"><ele>729.0</ele><time>2026-04-25T08:24:23.784Z</time></trkpt><trkpt lat="44.0379817" lon="11.0408883"><ele>729.0</ele><time>2026-04-25T08:24:24.79Z</time></trkpt><trkpt lat="44.0379467" lon="11.0410567"><ele>729.0</ele><time>2026-04-25T08:24:25.798Z</time></trkpt><trkpt lat="44.0379183" lon="11.0412233"><ele>734.75</ele><time>2026-04-25T08:24:26.805Z</time></trkpt><trkpt lat="44.0378867" lon="11.041385"><ele>740.5</ele><time>2026-04-25T08:24:27.811Z</time></trkpt><trkpt lat="44.0378533" lon="11.0415533"><ele>746.25</ele><time>2026-04-25T08:24:28.817Z</time></trkpt><trkpt lat="44.037815" lon="11.041725"><ele>752.0</ele><time>2026-04-25T08:24:29.823Z</time></trkpt><trkpt lat="44.0377717" lon="11.0418967"><ele>756.75</ele><time>2026-04-25T08:24:30.83Z</time></trkpt><trkpt lat="44.03772" lon="11.04206"><ele>761.5</ele><time>2026-04-25T08:24:31.838Z</time></trkpt><trkpt lat="44.0376617" lon="11.04222"><ele>766.25</ele><time>2026-04-25T08:24:32.844Z</time></trkpt><trkpt lat="44.0376067" lon="11.042385"><ele>771.0</ele><time>2026-04-25T08:24:33.784Z</time></trkpt><trkpt lat="44.03754" lon="11.0425467"><ele>774.0</ele><time>2026-04-25T08:24:34.791Z</time></trkpt><trkpt lat="44.0374667" lon="11.0427"><ele>777.0</ele><time>2026-04-25T08:24:35.797Z</time></trkpt><trkpt lat="44.0373767" lon="11.04284"><ele>780.0</ele><time>2026-04-25T08:24:36.804Z</time></trkpt><trkpt lat="44.0372817" lon="11.0429733"><ele>783.0</ele><time>2026-04-25T08:24:37.81Z</time></trkpt><trkpt lat="44.0371817" lon="11.0431083"><ele>783.0</ele><time>2026-04-25T08:24:38.817Z</time></trkpt><trkpt lat="44.0370933" lon="11.0432367"><ele>783.0</ele><time>2026-04-25T08:24:39.824Z</time></trkpt><trkpt lat="44.0370067" lon="11.0433383"><ele>783.0</ele><time>2026-04-25T08:24:40.83Z</time></trkpt><trkpt lat="44.0369167" lon="11.04342"><ele>783.0</ele><time>2026-04-25T08:24:41.837Z</time></trkpt><trkpt lat="44.03682" lon="11.043485"><ele>786.8</ele><time>2026-04-25T08:24:42.844Z</time></trkpt><trkpt lat="44.036715" lon="11.0435083"><ele>790.5999999999999</ele><time>2026-04-25T08:24:43.783Z</time></trkpt><trkpt lat="44.0366017" lon="11.0435033"><ele>794.4000000000001</ele><time>2026-04-25T08:24:44.79Z</time></trkpt><trkpt lat="44.03649" lon="11.04348"><ele>798.2</ele><time>2026-04-25T08:24:45.795Z</time></trkpt><trkpt lat="44.03639" lon="11.04346"><ele>802.0</ele><time>2026-04-25T08:24:46.803Z</time></trkpt><trkpt lat="44.036295" lon="11.043455"><ele>801.9999999999999</ele><time>2026-04-25T08:24:47.81Z</time></trkpt><trkpt lat="44.0361967" lon="11.0434717"><ele>802.0</ele><time>2026-04-25T08:24:48.816Z</time></trkpt><trkpt lat="44.036115" lon="11.043525"><ele>802.0</ele><time>2026-04-25T08:24:49.823Z</time></trkpt><trkpt lat="44.0360367" lon="11.0435917"><ele>802.0</ele><time>2026-04-25T08:24:50.83Z</time></trkpt><trkpt lat="44.0359683" lon="11.04366"><ele>801.9999999999999</ele><time>2026-04-25T08:24:51.836Z</time></trkpt><trkpt lat="44.03592" lon="11.043745"><ele>802.0</ele><time>2026-04-25T08:24:52.843Z</time></trkpt><trkpt lat="44.0358933" lon="11.04384"><ele>802.0</ele><time>2026-04-25T08:24:53.782Z</time></trkpt><trkpt lat="44.0358917" lon="11.043975"><ele>802.0</ele><time>2026-04-25T08:24:54.788Z</time></trkpt><trkpt lat="44.0359167" lon="11.0441383"><ele>802.0</ele><time>2026-04-25T08:24:55.796Z</time></trkpt><trkpt lat="44.0359633" lon="11.0443333"><ele>802.0</ele><time>2026-04-25T08:24:56.802Z</time></trkpt><trkpt lat="44.0360367" lon="11.0444633"><ele>807.0</ele><time>2026-04-25T08:24:57.808Z</time></trkpt><trkpt lat="44.03611" lon="11.0445833"><ele>812.0</ele><time>2026-04-25T08:24:58.816Z</time></trkpt><trkpt lat="44.0362" lon="11.044685"><ele>817.0</ele><time>2026-04-25T08:24:59.822Z</time></trkpt><trkpt lat="44.03631" lon="11.0447567"><ele>822.0</ele><time>2026-04-25T08:25:00.828Z</time></trkpt><trkpt lat="44.036415" lon="11.044785"><ele>822.0</ele><time>2026-04-25T08:25:01.834Z</time></trkpt><trkpt lat="44.0365183" lon="11.0447917"><ele>822.0</ele><time>2026-04-25T08:25:02.841Z</time></trkpt><trkpt lat="44.0366217" lon="11.0447783"><ele>822.0</ele><time>2026-04-25T08:25:03.782Z</time></trkpt><trkpt lat="44.0367217" lon="11.044715"><ele>822.0</ele><time>2026-04-25T08:25:04.788Z</time></trkpt><trkpt lat="44.0368167" lon="11.0446417"><ele>822.0</ele><time>2026-04-25T08:25:05.795Z</time></trkpt><trkpt lat="44.0369033" lon="11.04455"><ele>823.0</ele><time>2026-04-25T08:25:06.801Z</time></trkpt><trkpt lat="44.0369917" lon="11.0444583"><ele>824.0</ele><time>2026-04-25T08:25:07.807Z</time></trkpt><trkpt lat="44.0370783" lon="11.0443783"><ele>825.0</ele><time>2026-04-25T08:25:08.815Z</time></trkpt><trkpt lat="44.03716" lon="11.0443033"><ele>826.0</ele><time>2026-04-25T08:25:09.821Z</time></trkpt><trkpt lat="44.0372867" lon="11.0441933"><ele>823.5</ele><time>2026-04-25T08:25:10.828Z</time></trkpt><trkpt lat="44.0373983" lon="11.0441"><ele>821.0</ele><time>2026-04-25T08:25:11.835Z</time></trkpt><trkpt lat="44.03751" lon="11.0440167"><ele>818.5</ele><time>2026-04-25T08:25:12.774Z</time></trkpt><trkpt lat="44.03761" lon="11.04395"><ele>816.0</ele><time>2026-04-25T08:25:13.781Z</time></trkpt><trkpt lat="44.0377083" lon="11.0438967"><ele>816.0</ele><time>2026-04-25T08:25:14.786Z</time></trkpt><trkpt lat="44.037805" lon="11.04386"><ele>816.0</ele><time>2026-04-25T08:25:15.794Z</time></trkpt><trkpt lat="44.0379017" lon="11.0438317"><ele>816.0</ele><time>2026-04-25T08:25:16.8Z</time></trkpt><trkpt lat="44.0380083" lon="11.0438233"><ele>816.0</ele><time>2026-04-25T08:25:17.806Z</time></trkpt><trkpt lat="44.038115" lon="11.043845"><ele>816.0</ele><time>2026-04-25T08:25:18.814Z</time></trkpt><trkpt lat="44.0382283" lon="11.0439083"><ele>820.5999999999999</ele><time>2026-04-25T08:25:19.821Z</time></trkpt><trkpt lat="44.038305" lon="11.044"><ele>825.2</ele><time>2026-04-25T08:25:20.827Z</time></trkpt><trkpt lat="44.03838" lon="11.0441167"><ele>829.8</ele><time>2026-04-25T08:25:21.834Z</time></trkpt><trkpt lat="44.0384383" lon="11.0442467"><ele>834.4000000000001</ele><time>2026-04-25T08:25:22.773Z</time></trkpt><trkpt lat="44.038495" lon="11.0443817"><ele>839.0</ele><time>2026-04-25T08:25:23.779Z</time></trkpt><trkpt lat="44.03855" lon="11.0445017"><ele>842.4000000000001</ele><time>2026-04-25T08:25:24.787Z</time></trkpt><trkpt lat="44.038585" lon="11.0446033"><ele>845.8</ele><time>2026-04-25T08:25:25.793Z</time></trkpt><trkpt lat="44.0386117" lon="11.0447017"><ele>849.1999999999999</ele><time>2026-04-25T08:25:26.8Z</time></trkpt><trkpt lat="44.03862" lon="11.04479"><ele>852.5999999999999</ele><time>2026-04-25T08:25:27.807Z</time></trkpt><trkpt lat="44.03857" lon="11.0449367"><ele>856.0</ele><time>2026-04-25T08:25:29.82Z</time></trkpt><trkpt lat="44.0384467" lon="11.0450083"><ele>857.8</ele><time>2026-04-25T08:25:31.833Z</time></trkpt><trkpt lat="44.03836" lon="11.045035"><ele>859.5999999999999</ele><time>2026-04-25T08:25:32.773Z</time></trkpt><trkpt lat="44.0382583" lon="11.0450533"><ele>861.4</ele><time>2026-04-25T08:25:33.779Z</time></trkpt><trkpt lat="44.038155" lon="11.04507"><ele>863.2</ele><time>2026-04-25T08:25:34.786Z</time></trkpt><trkpt lat="44.038025" lon="11.0450783"><ele>865.0</ele><time>2026-04-25T08:25:35.791Z</time></trkpt><trkpt lat="44.03791" lon="11.0450967"><ele>865.0</ele><time>2026-04-25T08:25:36.799Z</time></trkpt><trkpt lat="44.03779" lon="11.0451233"><ele>865.0</ele><time>2026-04-25T08:25:37.805Z</time></trkpt><trkpt lat="44.0376767" lon="11.0451617"><ele>865.0</ele><time>2026-04-25T08:25:38.812Z</time></trkpt><trkpt lat="44.0375617" lon="11.0451933"><ele>865.0</ele><time>2026-04-25T08:25:39.819Z</time></trkpt><trkpt lat="44.0374517" lon="11.0452183"><ele>861.4</ele><time>2026-04-25T08:25:40.825Z</time></trkpt><trkpt lat="44.0373583" lon="11.0452267"><ele>857.8</ele><time>2026-04-25T08:25:41.832Z</time></trkpt><trkpt lat="44.037275" lon="11.0452483"><ele>854.2</ele><time>2026-04-25T08:25:42.771Z</time></trkpt><trkpt lat="44.0371933" lon="11.045265"><ele>850.6</ele><time>2026-04-25T08:25:43.778Z</time></trkpt><trkpt lat="44.0371267" lon="11.0452917"><ele>847.0</ele><time>2026-04-25T08:25:44.785Z</time></trkpt><trkpt lat="44.0370383" lon="11.0454033"><ele>847.0</ele><time>2026-04-25T08:25:46.865Z</time></trkpt><trkpt lat="44.037035" lon="11.045505"><ele>847.0</ele><time>2026-04-25T08:25:47.804Z</time></trkpt><trkpt lat="44.03704" lon="11.0456067"><ele>847.0</ele><time>2026-04-25T08:25:48.812Z</time></trkpt><trkpt lat="44.03708" lon="11.04569"><ele>847.0</ele><time>2026-04-25T08:25:49.818Z</time></trkpt><trkpt lat="44.0371567" lon="11.045775"><ele>847.0</ele><time>2026-04-25T08:25:50.824Z</time></trkpt><trkpt lat="44.0372617" lon="11.0459067"><ele>854.6666666666666</ele><time>2026-04-25T08:25:51.764Z</time></trkpt><trkpt lat="44.03739" lon="11.0460833"><ele>862.3333333333333</ele><time>2026-04-25T08:25:52.771Z</time></trkpt><trkpt lat="44.03748" lon="11.0462483"><ele>870.0</ele><time>2026-04-25T08:25:53.778Z</time></trkpt><trkpt lat="44.0375617" lon="11.0464167"><ele>874.0</ele><time>2026-04-25T08:25:54.851Z</time></trkpt><trkpt lat="44.037645" lon="11.0465883"><ele>878.0</ele><time>2026-04-25T08:25:55.858Z</time></trkpt><trkpt lat="44.0377417" lon="11.0467933"><ele>882.0</ele><time>2026-04-25T08:25:56.797Z</time></trkpt><trkpt lat="44.0378033" lon="11.0469783"><ele>884.5</ele><time>2026-04-25T08:25:57.804Z</time></trkpt><trkpt lat="44.0378533" lon="11.0471467"><ele>887.0</ele><time>2026-04-25T08:25:58.81Z</time></trkpt><trkpt lat="44.0379033" lon="11.0473067"><ele>889.5</ele><time>2026-04-25T08:25:59.816Z</time></trkpt><trkpt lat="44.0379533" lon="11.04745"><ele>892.0</ele><time>2026-04-25T08:26:00.824Z</time></trkpt><trkpt lat="44.038" lon="11.0475733"><ele>893.4000000000001</ele><time>2026-04-25T08:26:01.763Z</time></trkpt><trkpt lat="44.03806" lon="11.0476917"><ele>894.8000000000001</ele><time>2026-04-25T08:26:02.837Z</time></trkpt><trkpt lat="44.0381317" lon="11.0478067"><ele>896.2</ele><time>2026-04-25T08:26:03.844Z</time></trkpt><trkpt lat="44.038215" lon="11.0479167"><ele>897.6</ele><time>2026-04-25T08:26:04.851Z</time></trkpt><trkpt lat="44.0383033" lon="11.04802"><ele>899.0</ele><time>2026-04-25T08:26:05.857Z</time></trkpt><trkpt lat="44.0383817" lon="11.0481317"><ele>899.0</ele><time>2026-04-25T08:26:06.796Z</time></trkpt><trkpt lat="44.038455" lon="11.0482333"><ele>899.0000000000001</ele><time>2026-04-25T08:26:07.802Z</time></trkpt><trkpt lat="44.0385267" lon="11.0483133"><ele>899.0000000000001</ele><time>2026-04-25T08:26:08.81Z</time></trkpt><trkpt lat="44.03859" lon="11.0483933"><ele>899.0</ele><time>2026-04-25T08:26:09.817Z</time></trkpt><trkpt lat="44.0386517" lon="11.0484783"><ele>899.0</ele><time>2026-04-25T08:26:10.823Z</time></trkpt><trkpt lat="44.0387067" lon="11.04857"><ele>901.8000000000001</ele><time>2026-04-25T08:26:11.83Z</time></trkpt><trkpt lat="44.0387367" lon="11.0486917"><ele>904.6000000000001</ele><time>2026-04-25T08:26:12.836Z</time></trkpt><trkpt lat="44.0387433" lon="11.048835"><ele>907.4</ele><time>2026-04-25T08:26:13.843Z</time></trkpt><trkpt lat="44.038735" lon="11.04897"><ele>910.2</ele><time>2026-04-25T08:26:14.85Z</time></trkpt><trkpt lat="44.0387283" lon="11.0491383"><ele>913.0</ele><time>2026-04-25T08:26:15.855Z</time></trkpt><trkpt lat="44.038715" lon="11.0493117"><ele>916.25</ele><time>2026-04-25T08:26:16.795Z</time></trkpt><trkpt lat="44.0386867" lon="11.0494917"><ele>919.5</ele><time>2026-04-25T08:26:17.803Z</time></trkpt><trkpt lat="44.0386417" lon="11.049635"><ele>922.75</ele><time>2026-04-25T08:26:18.809Z</time></trkpt><trkpt lat="44.038535" lon="11.049735"><ele>926.0</ele><time>2026-04-25T08:26:19.816Z</time></trkpt><trkpt lat="44.0384333" lon="11.0498017"><ele>926.0</ele><time>2026-04-25T08:26:20.823Z</time></trkpt><trkpt lat="44.03832" lon="11.0498483"><ele>926.0</ele><time>2026-04-25T08:26:21.829Z</time></trkpt><trkpt lat="44.03822" lon="11.0499133"><ele>926.0</ele><time>2026-04-25T08:26:22.836Z</time></trkpt><trkpt lat="44.03811" lon="11.0499633"><ele>926.0</ele><time>2026-04-25T08:26:23.842Z</time></trkpt><trkpt lat="44.038" lon="11.0500133"><ele>927.5000000000001</ele><time>2026-04-25T08:26:24.849Z</time></trkpt><trkpt lat="44.0379033" lon="11.05008"><ele>929.0</ele><time>2026-04-25T08:26:25.856Z</time></trkpt><trkpt lat="44.0378183" lon="11.0501317"><ele>930.5</ele><time>2026-04-25T08:26:26.795Z</time></trkpt><trkpt lat="44.0377483" lon="11.0501717"><ele>932.0</ele><time>2026-04-25T08:26:27.802Z</time></trkpt><trkpt lat="44.0376983" lon="11.0502267"><ele>933.5000000000001</ele><time>2026-04-25T08:26:28.808Z</time></trkpt><trkpt lat="44.0376433" lon="11.0503467"><ele>935.0</ele><time>2026-04-25T08:26:30.821Z</time></trkpt><trkpt lat="44.0376433" lon="11.050445"><ele>935.0000000000001</ele><time>2026-04-25T08:26:31.828Z</time></trkpt><trkpt lat="44.0376717" lon="11.050555"><ele>935.0</ele><time>2026-04-25T08:26:32.835Z</time></trkpt><trkpt lat="44.0377183" lon="11.050645"><ele>935.0</ele><time>2026-04-25T08:26:33.842Z</time></trkpt><trkpt lat="44.0377967" lon="11.0507"><ele>935.0</ele><time>2026-04-25T08:26:34.848Z</time></trkpt><trkpt lat="44.0378817" lon="11.05073"><ele>935.0000000000001</ele><time>2026-04-25T08:26:35.787Z</time></trkpt><trkpt lat="44.03799" lon="11.0507333"><ele>935.0</ele><time>2026-04-25T08:26:36.794Z</time></trkpt><trkpt lat="44.0380783" lon="11.050745"><ele>935.0</ele><time>2026-04-25T08:26:37.801Z</time></trkpt><trkpt lat="44.0381733" lon="11.0507583"><ele>935.0</ele><time>2026-04-25T08:26:38.807Z</time></trkpt><trkpt lat="44.0382467" lon="11.0508117"><ele>935.0</ele><time>2026-04-25T08:26:39.814Z</time></trkpt><trkpt lat="44.0383083" lon="11.0509"><ele>935.0</ele><time>2026-04-25T08:26:40.82Z</time></trkpt><trkpt lat="44.038355" lon="11.05102"><ele>935.0</ele><time>2026-04-25T08:26:41.828Z</time></trkpt><trkpt lat="44.03839" lon="11.0511517"><ele>937.0</ele><time>2026-04-25T08:26:42.834Z</time></trkpt><trkpt lat="44.0384167" lon="11.0512783"><ele>939.0</ele><time>2026-04-25T08:26:43.841Z</time></trkpt><trkpt lat="44.03844" lon="11.0514033"><ele>941.0</ele><time>2026-04-25T08:26:44.848Z</time></trkpt><trkpt lat="44.038465" lon="11.0515283"><ele>943.0</ele><time>2026-04-25T08:26:45.786Z</time></trkpt><trkpt lat="44.03849" lon="11.0516517"><ele>945.0</ele><time>2026-04-25T08:26:46.794Z</time></trkpt><trkpt lat="44.038505" lon="11.051775"><ele>947.6</ele><time>2026-04-25T08:26:47.8Z</time></trkpt><trkpt lat="44.03851" lon="11.0519033"><ele>950.2</ele><time>2026-04-25T08:26:48.807Z</time></trkpt><trkpt lat="44.0384983" lon="11.0520383"><ele>952.8</ele><time>2026-04-25T08:26:49.813Z</time></trkpt><trkpt lat="44.03848" lon="11.0521667"><ele>955.4</ele><time>2026-04-25T08:26:50.82Z</time></trkpt><trkpt lat="44.03845" lon="11.052295"><ele>958.0</ele><time>2026-04-25T08:26:51.826Z</time></trkpt><trkpt lat="44.03841" lon="11.0524233"><ele>959.3333333333333</ele><time>2026-04-25T08:26:52.833Z</time></trkpt><trkpt lat="44.0383583" lon="11.0525417"><ele>960.6666666666666</ele><time>2026-04-25T08:26:53.84Z</time></trkpt><trkpt lat="44.0383" lon="11.052645"><ele>962.0</ele><time>2026-04-25T08:26:54.847Z</time></trkpt><trkpt lat="44.03825" lon="11.05274"><ele>963.3333333333333</ele><time>2026-04-25T08:26:55.786Z</time></trkpt><trkpt lat="44.0382217" lon="11.05284"><ele>964.6666666666666</ele><time>2026-04-25T08:26:56.793Z</time></trkpt><trkpt lat="44.0382133" lon="11.0529283"><ele>966.0</ele><time>2026-04-25T08:26:57.799Z</time></trkpt><trkpt lat="44.03825" lon="11.05307"><ele>966.0</ele><time>2026-04-25T08:26:59.813Z</time></trkpt><trkpt lat="44.0383367" lon="11.0531117"><ele>965.9999999999999</ele><time>2026-04-25T08:27:01.825Z</time></trkpt><trkpt lat="44.038405" lon="11.0531017"><ele>965.9999999999999</ele><time>2026-04-25T08:27:02.833Z</time></trkpt><trkpt lat="44.03849" lon="11.053065"><ele>966.0</ele><time>2026-04-25T08:27:03.839Z</time></trkpt><trkpt lat="44.0385883" lon="11.0530317"><ele>966.0</ele><time>2026-04-25T08:27:04.846Z</time></trkpt><trkpt lat="44.0387133" lon="11.05301"><ele>966.0</ele><time>2026-04-25T08:27:05.785Z</time></trkpt><trkpt lat="44.038845" lon="11.052995"><ele>966.0</ele><time>2026-04-25T08:27:06.791Z</time></trkpt><trkpt lat="44.0389583" lon="11.052975"><ele>966.0</ele><time>2026-04-25T08:27:07.799Z</time></trkpt><trkpt lat="44.0390783" lon="11.0529283"><ele>966.0</ele><time>2026-04-25T08:27:08.804Z</time></trkpt><trkpt lat="44.0391917" lon="11.0528767"><ele>966.5999999999999</ele><time>2026-04-25T08:27:09.812Z</time></trkpt><trkpt lat="44.0393" lon="11.0528367"><ele>967.1999999999999</ele><time>2026-04-25T08:27:10.819Z</time></trkpt><trkpt lat="44.0394017" lon="11.05281"><ele>967.8000000000001</ele><time>2026-04-25T08:27:11.825Z</time></trkpt><trkpt lat="44.039495" lon="11.052795"><ele>968.4000000000001</ele><time>2026-04-25T08:27:12.831Z</time></trkpt><trkpt lat="44.0396117" lon="11.0527983"><ele>969.0</ele><time>2026-04-25T08:27:13.839Z</time></trkpt><trkpt lat="44.03971" lon="11.05281"><ele>969.0</ele><time>2026-04-25T08:27:14.845Z</time></trkpt><trkpt lat="44.039805" lon="11.0528317"><ele>969.0000000000001</ele><time>2026-04-25T08:27:15.785Z</time></trkpt><trkpt lat="44.0398917" lon="11.0528733"><ele>969.0000000000001</ele><time>2026-04-25T08:27:16.791Z</time></trkpt><trkpt lat="44.0399833" lon="11.0529267"><ele>969.0</ele><time>2026-04-25T08:27:17.798Z</time></trkpt><trkpt lat="44.040065" lon="11.0530067"><ele>969.0</ele><time>2026-04-25T08:27:18.805Z</time></trkpt><trkpt lat="44.0401367" lon="11.0531267"><ele>971.0</ele><time>2026-04-25T08:27:19.811Z</time></trkpt><trkpt lat="44.0401933" lon="11.053245"><ele>973.0000000000001</ele><time>2026-04-25T08:27:20.818Z</time></trkpt><trkpt lat="44.040245" lon="11.053355"><ele>975.0000000000001</ele><time>2026-04-25T08:27:21.825Z</time></trkpt><trkpt lat="44.04029" lon="11.053475"><ele>977.0</ele><time>2026-04-25T08:27:22.831Z</time></trkpt><trkpt lat="44.040325" lon="11.0535817"><ele>979.0</ele><time>2026-04-25T08:27:23.838Z</time></trkpt><trkpt lat="44.0403467" lon="11.0536983"><ele>980.8000000000001</ele><time>2026-04-25T08:27:24.777Z</time></trkpt><trkpt lat="44.0403567" lon="11.0538033"><ele>982.6000000000001</ele><time>2026-04-25T08:27:25.784Z</time></trkpt><trkpt lat="44.0403183" lon="11.053965"><ele>984.4</ele><time>2026-04-25T08:27:26.79Z</time></trkpt><trkpt lat="44.0402783" lon="11.0541117"><ele>986.2</ele><time>2026-04-25T08:27:27.797Z</time></trkpt><trkpt lat="44.0401867" lon="11.0542067"><ele>988.0</ele><time>2026-04-25T08:27:28.804Z</time></trkpt><trkpt lat="44.0400883" lon="11.0542817"><ele>990.5</ele><time>2026-04-25T08:27:29.81Z</time></trkpt><trkpt lat="44.0399667" lon="11.0543533"><ele>993.0</ele><time>2026-04-25T08:27:30.816Z</time></trkpt><trkpt lat="44.039855" lon="11.0544167"><ele>995.5</ele><time>2026-04-25T08:27:31.824Z</time></trkpt><trkpt lat="44.0397383" lon="11.05446"><ele>998.0</ele><time>2026-04-25T08:27:32.83Z</time></trkpt><trkpt lat="44.03963" lon="11.054485"><ele>998.5</ele><time>2026-04-25T08:27:33.837Z</time></trkpt><trkpt lat="44.03952" lon="11.05451"><ele>999.0</ele><time>2026-04-25T08:27:34.776Z</time></trkpt><trkpt lat="44.0393967" lon="11.0545017"><ele>999.5</ele><time>2026-04-25T08:27:35.783Z</time></trkpt><trkpt lat="44.0392783" lon="11.054505"><ele>1000.0</ele><time>2026-04-25T08:27:36.789Z</time></trkpt><trkpt lat="44.0391733" lon="11.0545183"><ele>998.8</ele><time>2026-04-25T08:27:37.796Z</time></trkpt><trkpt lat="44.0390783" lon="11.0545467"><ele>997.6</ele><time>2026-04-25T08:27:38.802Z</time></trkpt><trkpt lat="44.038985" lon="11.054605"><ele>996.4000000000001</ele><time>2026-04-25T08:27:39.81Z</time></trkpt><trkpt lat="44.038905" lon="11.0546983"><ele>995.2</ele><time>2026-04-25T08:27:40.816Z</time></trkpt><trkpt lat="44.0388367" lon="11.0547983"><ele>994.0</ele><time>2026-04-25T08:27:41.822Z</time></trkpt><trkpt lat="44.0387917" lon="11.0549317"><ele>996.8000000000001</ele><time>2026-04-25T08:27:42.83Z</time></trkpt><trkpt lat="44.0387633" lon="11.0550633"><ele>999.6000000000001</ele><time>2026-04-25T08:27:43.836Z</time></trkpt><trkpt lat="44.03875" lon="11.0552083"><ele>1002.4</ele><time>2026-04-25T08:27:44.776Z</time></trkpt><trkpt lat="44.0387333" lon="11.0553467"><ele>1005.2</ele><time>2026-04-25T08:27:45.782Z</time></trkpt><trkpt lat="44.0387183" lon="11.055485"><ele>1008.0</ele><time>2026-04-25T08:27:46.788Z</time></trkpt><trkpt lat="44.0387117" lon="11.055625"><ele>1008.0</ele><time>2026-04-25T08:27:47.796Z</time></trkpt><trkpt lat="44.0387133" lon="11.055765"><ele>1008.0</ele><time>2026-04-25T08:27:48.802Z</time></trkpt><trkpt lat="44.0387133" lon="11.0558967"><ele>1008.0</ele><time>2026-04-25T08:27:49.809Z</time></trkpt><trkpt lat="44.038705" lon="11.0560233"><ele>1008.0</ele><time>2026-04-25T08:27:50.816Z</time></trkpt><trkpt lat="44.0386767" lon="11.05612"><ele>1008.0</ele><time>2026-04-25T08:27:51.822Z</time></trkpt><trkpt lat="44.0386333" lon="11.0561917"><ele>1008.0</ele><time>2026-04-25T08:27:52.829Z</time></trkpt><trkpt lat="44.038585" lon="11.05627"><ele>1011.4</ele><time>2026-04-25T08:27:53.835Z</time></trkpt><trkpt lat="44.03852" lon="11.056315"><ele>1014.8</ele><time>2026-04-25T08:27:54.775Z</time></trkpt><trkpt lat="44.0384367" lon="11.0564083"><ele>1018.2</ele><time>2026-04-25T08:27:55.782Z</time></trkpt><trkpt lat="44.0383533" lon="11.0564933"><ele>1021.6</ele><time>2026-04-25T08:27:56.788Z</time></trkpt><trkpt lat="44.038275" lon="11.0565917"><ele>1025.0</ele><time>2026-04-25T08:27:57.794Z</time></trkpt><trkpt lat="44.0381983" lon="11.05668"><ele>1028.8</ele><time>2026-04-25T08:27:58.801Z</time></trkpt><trkpt lat="44.038115" lon="11.056735"><ele>1032.6</ele><time>2026-04-25T08:27:59.807Z</time></trkpt><trkpt lat="44.0380283" lon="11.0567883"><ele>1036.4</ele><time>2026-04-25T08:28:00.814Z</time></trkpt><trkpt lat="44.0379417" lon="11.056825"><ele>1040.2</ele><time>2026-04-25T08:28:01.821Z</time></trkpt><trkpt lat="44.0378533" lon="11.056825"><ele>1044.0</ele><time>2026-04-25T08:28:02.828Z</time></trkpt><trkpt lat="44.0377633" lon="11.0568383"><ele>1044.0</ele><time>2026-04-25T08:28:03.768Z</time></trkpt><trkpt lat="44.0376783" lon="11.0568433"><ele>1044.0</ele><time>2026-04-25T08:28:04.774Z</time></trkpt><trkpt lat="44.0375833" lon="11.056855"><ele>1044.0</ele><time>2026-04-25T08:28:05.78Z</time></trkpt><trkpt lat="44.0374933" lon="11.0569067"><ele>1044.0</ele><time>2026-04-25T08:28:06.787Z</time></trkpt><trkpt lat="44.037415" lon="11.0569783"><ele>1044.0</ele><time>2026-04-25T08:28:07.794Z</time></trkpt><trkpt lat="44.037365" lon="11.0570717"><ele>1046.3333333333333</ele><time>2026-04-25T08:28:08.801Z</time></trkpt><trkpt lat="44.0373167" lon="11.0571667"><ele>1048.6666666666667</ele><time>2026-04-25T08:28:09.807Z</time></trkpt><trkpt lat="44.037295" lon="11.0572883"><ele>1051.0</ele><time>2026-04-25T08:28:10.814Z</time></trkpt><trkpt lat="44.03728" lon="11.057395"><ele>1053.3333333333335</ele><time>2026-04-25T08:28:11.821Z</time></trkpt><trkpt lat="44.0372533" lon="11.0574783"><ele>1055.6666666666667</ele><time>2026-04-25T08:28:12.827Z</time></trkpt><trkpt lat="44.0372233" lon="11.0575767"><ele>1058.0</ele><time>2026-04-25T08:28:13.767Z</time></trkpt><trkpt lat="44.0371717" lon="11.0577367"><ele>1058.0</ele><time>2026-04-25T08:28:15.78Z</time></trkpt><trkpt lat="44.0370817" lon="11.0577383"><ele>1058.0</ele><time>2026-04-25T08:28:18.8Z</time></trkpt><trkpt lat="44.03704" lon="11.0575917"><ele>1058.0</ele><time>2026-04-25T08:28:19.807Z</time></trkpt><trkpt lat="44.0369867" lon="11.0575083"><ele>1058.0</ele><time>2026-04-25T08:28:20.812Z</time></trkpt><trkpt lat="44.0369267" lon="11.05741"><ele>1058.0</ele><time>2026-04-25T08:28:21.82Z</time></trkpt><trkpt lat="44.03685" lon="11.0573217"><ele>1058.0</ele><time>2026-04-25T08:28:22.825Z</time></trkpt><trkpt lat="44.036785" lon="11.057255"><ele>1058.0</ele><time>2026-04-25T08:28:23.766Z</time></trkpt><trkpt lat="44.0366767" lon="11.0572133"><ele>1058.0</ele><time>2026-04-25T08:28:24.773Z</time></trkpt><trkpt lat="44.0365183" lon="11.05717"><ele>1058.0</ele><time>2026-04-25T08:28:25.846Z</time></trkpt><trkpt lat="44.0363817" lon="11.0571467"><ele>1061.3333333333335</ele><time>2026-04-25T08:28:26.853Z</time></trkpt><trkpt lat="44.0362317" lon="11.0571233"><ele>1064.6666666666667</ele><time>2026-04-25T08:28:27.859Z</time></trkpt><trkpt lat="44.0360867" lon="11.05711"><ele>1068.0</ele><time>2026-04-25T08:28:28.798Z</time></trkpt><trkpt lat="44.0359217" lon="11.05711"><ele>1069.75</ele><time>2026-04-25T08:28:29.806Z</time></trkpt><trkpt lat="44.0357883" lon="11.0571117"><ele>1071.5</ele><time>2026-04-25T08:28:30.812Z</time></trkpt><trkpt lat="44.0356583" lon="11.057115"><ele>1073.25</ele><time>2026-04-25T08:28:31.819Z</time></trkpt><trkpt lat="44.0355483" lon="11.05712"><ele>1075.0</ele><time>2026-04-25T08:28:32.826Z</time></trkpt><trkpt lat="44.03544" lon="11.0571283"><ele>1075.0</ele><time>2026-04-25T08:28:33.832Z</time></trkpt><trkpt lat="44.0353567" lon="11.05715"><ele>1075.0</ele><time>2026-04-25T08:28:34.839Z</time></trkpt><trkpt lat="44.0352933" lon="11.0571883"><ele>1075.0</ele><time>2026-04-25T08:28:35.845Z</time></trkpt><trkpt lat="44.0352017" lon="11.0572933"><ele>1075.0</ele><time>2026-04-25T08:28:37.858Z</time></trkpt><trkpt lat="44.0352217" lon="11.057425"><ele>1075.0</ele><time>2026-04-25T08:28:39.804Z</time></trkpt><trkpt lat="44.0353417" lon="11.0574483"><ele>1077.0</ele><time>2026-04-25T08:28:40.812Z</time></trkpt><trkpt lat="44.0354417" lon="11.0574717"><ele>1079.0</ele><time>2026-04-25T08:28:41.818Z</time></trkpt><trkpt lat="44.0355467" lon="11.0574983"><ele>1081.0</ele><time>2026-04-25T08:28:42.825Z</time></trkpt><trkpt lat="44.0356517" lon="11.057535"><ele>1083.0</ele><time>2026-04-25T08:28:43.832Z</time></trkpt><trkpt lat="44.0357633" lon="11.0576017"><ele>1085.0</ele><time>2026-04-25T08:28:44.837Z</time></trkpt><trkpt lat="44.0358667" lon="11.0576767"><ele>1085.0</ele><time>2026-04-25T08:28:45.845Z</time></trkpt><trkpt lat="44.0359533" lon="11.057755"><ele>1085.0</ele><time>2026-04-25T08:28:46.851Z</time></trkpt><trkpt lat="44.0360333" lon="11.0578233"><ele>1085.0</ele><time>2026-04-25T08:28:47.791Z</time></trkpt><trkpt lat="44.0360883" lon="11.0578817"><ele>1085.0</ele><time>2026-04-25T08:28:48.797Z</time></trkpt><trkpt lat="44.0361367" lon="11.0579517"><ele>1085.0</ele><time>2026-04-25T08:28:49.804Z</time></trkpt><trkpt lat="44.03618" lon="11.058085"><ele>1085.0</ele><time>2026-04-25T08:28:51.816Z</time></trkpt><trkpt lat="44.03614" lon="11.0581883"><ele>1085.0</ele><time>2026-04-25T08:28:53.831Z</time></trkpt><trkpt lat="44.03608" lon="11.0582483"><ele>1085.0</ele><time>2026-04-25T08:28:55.844Z</time></trkpt><trkpt lat="44.036005" lon="11.0582067"><ele>1085.0</ele><time>2026-04-25T08:28:56.85Z</time></trkpt><trkpt lat="44.035925" lon="11.058175"><ele>1085.0</ele><time>2026-04-25T08:28:57.789Z</time></trkpt><trkpt lat="44.0357967" lon="11.0581267"><ele>1085.0</ele><time>2026-04-25T08:28:58.796Z</time></trkpt><trkpt lat="44.0356767" lon="11.0581083"><ele>1089.0</ele><time>2026-04-25T08:28:59.803Z</time></trkpt><trkpt lat="44.0355183" lon="11.0580817"><ele>1093.0</ele><time>2026-04-25T08:29:00.809Z</time></trkpt><trkpt lat="44.0353683" lon="11.0580667"><ele>1097.0</ele><time>2026-04-25T08:29:01.817Z</time></trkpt><trkpt lat="44.0352" lon="11.0580483"><ele>1097.0</ele><time>2026-04-25T08:29:02.823Z</time></trkpt><trkpt lat="44.03506" lon="11.0580217"><ele>1097.0</ele><time>2026-04-25T08:29:03.829Z</time></trkpt><trkpt lat="44.0349567" lon="11.0579817"><ele>1097.0</ele><time>2026-04-25T08:29:04.837Z</time></trkpt><trkpt lat="44.034865" lon="11.0579433"><ele>1097.0</ele><time>2026-04-25T08:29:05.843Z</time></trkpt><trkpt lat="44.034785" lon="11.0579217"><ele>1097.0</ele><time>2026-04-25T08:29:06.85Z</time></trkpt><trkpt lat="44.0347067" lon="11.05792"><ele>1097.6</ele><time>2026-04-25T08:29:07.789Z</time></trkpt><trkpt lat="44.0346" lon="11.0579617"><ele>1098.2</ele><time>2026-04-25T08:29:09.803Z</time></trkpt><trkpt lat="44.0346283" lon="11.0580917"><ele>1098.8</ele><time>2026-04-25T08:29:11.815Z</time></trkpt><trkpt lat="44.0346683" lon="11.05817"><ele>1099.4</ele><time>2026-04-25T08:29:12.823Z</time></trkpt><trkpt lat="44.0347217" lon="11.0582633"><ele>1100.0</ele><time>2026-04-25T08:29:13.829Z</time></trkpt><trkpt lat="44.0347883" lon="11.0583983"><ele>1100.0</ele><time>2026-04-25T08:29:14.836Z</time></trkpt><trkpt lat="44.0348433" lon="11.0585133"><ele>1100.0</ele><time>2026-04-25T08:29:15.842Z</time></trkpt><trkpt lat="44.0348917" lon="11.0586383"><ele>1100.0</ele><time>2026-04-25T08:29:16.849Z</time></trkpt><trkpt lat="44.03493" lon="11.0587617"><ele>1100.0</ele><time>2026-04-25T08:29:17.788Z</time></trkpt><trkpt lat="44.03498" lon="11.05887"><ele>1100.0</ele><time>2026-04-25T08:29:18.795Z</time></trkpt><trkpt lat="44.035035" lon="11.0589767"><ele>1098.8333333333335</ele><time>2026-04-25T08:29:19.802Z</time></trkpt><trkpt lat="44.0350883" lon="11.0590767"><ele>1097.6666666666667</ele><time>2026-04-25T08:29:20.808Z</time></trkpt><trkpt lat="44.0351433" lon="11.0591733"><ele>1096.5</ele><time>2026-04-25T08:29:21.815Z</time></trkpt><trkpt lat="44.0351933" lon="11.0592767"><ele>1095.3333333333333</ele><time>2026-04-25T08:29:22.822Z</time></trkpt><trkpt lat="44.0352433" lon="11.05938"><ele>1094.1666666666665</ele><time>2026-04-25T08:29:23.828Z</time></trkpt><trkpt lat="44.0353017" lon="11.05947"><ele>1093.0</ele><time>2026-04-25T08:29:24.835Z</time></trkpt><trkpt lat="44.0353717" lon="11.0595417"><ele>1093.0</ele><time>2026-04-25T08:29:25.841Z</time></trkpt><trkpt lat="44.0354417" lon="11.0596033"><ele>1093.0</ele><time>2026-04-25T08:29:26.848Z</time></trkpt><trkpt lat="44.0355067" lon="11.05968"><ele>1093.0</ele><time>2026-04-25T08:29:27.788Z</time></trkpt><trkpt lat="44.035565" lon="11.0597817"><ele>1093.0</ele><time>2026-04-25T08:29:28.794Z</time></trkpt><trkpt lat="44.03562" lon="11.0599083"><ele>1093.0</ele><time>2026-04-25T08:29:29.801Z</time></trkpt><trkpt lat="44.0356667" lon="11.0600583"><ele>1095.2</ele><time>2026-04-25T08:29:30.807Z</time></trkpt><trkpt lat="44.0357117" lon="11.0602183"><ele>1097.4</ele><time>2026-04-25T08:29:31.813Z</time></trkpt><trkpt lat="44.0357433" lon="11.0603717"><ele>1099.6000000000001</ele><time>2026-04-25T08:29:32.821Z</time></trkpt><trkpt lat="44.035765" lon="11.0605117"><ele>1101.8</ele><time>2026-04-25T08:29:33.828Z</time></trkpt><trkpt lat="44.03579" lon="11.0606467"><ele>1104.0</ele><time>2026-04-25T08:29:34.833Z</time></trkpt><trkpt lat="44.0358183" lon="11.0607717"><ele>1101.7142857142858</ele><time>2026-04-25T08:29:35.841Z</time></trkpt><trkpt lat="44.0358483" lon="11.0608817"><ele>1099.4285714285716</ele><time>2026-04-25T08:29:36.78Z</time></trkpt><trkpt lat="44.035875" lon="11.0609767"><ele>1097.142857142857</ele><time>2026-04-25T08:29:37.787Z</time></trkpt><trkpt lat="44.0358933" lon="11.0610633"><ele>1094.857142857143</ele><time>2026-04-25T08:29:38.794Z</time></trkpt><trkpt lat="44.0359017" lon="11.0611633"><ele>1092.5714285714284</ele><time>2026-04-25T08:29:39.8Z</time></trkpt><trkpt lat="44.03589" lon="11.0612583"><ele>1090.2857142857142</ele><time>2026-04-25T08:29:40.807Z</time></trkpt><trkpt lat="44.0358583" lon="11.06136"><ele>1088.0</ele><time>2026-04-25T08:29:41.814Z</time></trkpt><trkpt lat="44.03583" lon="11.06147"><ele>1088.0</ele><time>2026-04-25T08:29:42.82Z</time></trkpt><trkpt lat="44.0358133" lon="11.0615883"><ele>1088.0</ele><time>2026-04-25T08:29:43.827Z</time></trkpt><trkpt lat="44.0358083" lon="11.0617167"><ele>1088.0</ele><time>2026-04-25T08:29:44.833Z</time></trkpt><trkpt lat="44.03581" lon="11.0618417"><ele>1088.0</ele><time>2026-04-25T08:29:45.84Z</time></trkpt><trkpt lat="44.0358183" lon="11.0619583"><ele>1088.0</ele><time>2026-04-25T08:29:46.779Z</time></trkpt><trkpt lat="44.0358417" lon="11.062075"><ele>1088.0</ele><time>2026-04-25T08:29:47.785Z</time></trkpt><trkpt lat="44.03588" lon="11.0621883"><ele>1085.0</ele><time>2026-04-25T08:29:48.792Z</time></trkpt><trkpt lat="44.0359283" lon="11.0623"><ele>1082.0</ele><time>2026-04-25T08:29:49.8Z</time></trkpt><trkpt lat="44.035985" lon="11.062405"><ele>1079.0</ele><time>2026-04-25T08:29:50.805Z</time></trkpt><trkpt lat="44.03604" lon="11.062505"><ele>1076.0</ele><time>2026-04-25T08:29:51.813Z</time></trkpt><trkpt lat="44.0360867" lon="11.0626117"><ele>1073.0</ele><time>2026-04-25T08:29:52.818Z</time></trkpt><trkpt lat="44.0361233" lon="11.062725"><ele>1070.6</ele><time>2026-04-25T08:29:53.825Z</time></trkpt><trkpt lat="44.036145" lon="11.0628483"><ele>1068.1999999999998</ele><time>2026-04-25T08:29:54.832Z</time></trkpt><trkpt lat="44.0361533" lon="11.0629767"><ele>1065.8</ele><time>2026-04-25T08:29:55.839Z</time></trkpt><trkpt lat="44.0361467" lon="11.0631167"><ele>1063.3999999999999</ele><time>2026-04-25T08:29:56.779Z</time></trkpt><trkpt lat="44.0361233" lon="11.063265"><ele>1061.0</ele><time>2026-04-25T08:29:57.786Z</time></trkpt><trkpt lat="44.0360867" lon="11.0634217"><ele>1055.75</ele><time>2026-04-25T08:29:58.792Z</time></trkpt><trkpt lat="44.03605" lon="11.0635783"><ele>1050.5</ele><time>2026-04-25T08:29:59.798Z</time></trkpt><trkpt lat="44.0360233" lon="11.0637383"><ele>1045.25</ele><time>2026-04-25T08:30:00.804Z</time></trkpt><trkpt lat="44.036005" lon="11.0639"><ele>1040.0</ele><time>2026-04-25T08:30:01.812Z</time></trkpt><trkpt lat="44.0359967" lon="11.0640583"><ele>1038.0</ele><time>2026-04-25T08:30:02.818Z</time></trkpt><trkpt lat="44.0359967" lon="11.064215"><ele>1036.0</ele><time>2026-04-25T08:30:03.825Z</time></trkpt><trkpt lat="44.0360017" lon="11.064365"><ele>1034.0</ele><time>2026-04-25T08:30:04.831Z</time></trkpt><trkpt lat="44.036015" lon="11.0644933"><ele>1032.0</ele><time>2026-04-25T08:30:05.839Z</time></trkpt><trkpt lat="44.0360383" lon="11.0646"><ele>1030.0</ele><time>2026-04-25T08:30:06.778Z</time></trkpt><trkpt lat="44.0360717" lon="11.0646883"><ele>1030.0</ele><time>2026-04-25T08:30:07.785Z</time></trkpt><trkpt lat="44.0361717" lon="11.0647917"><ele>1030.0</ele><time>2026-04-25T08:30:09.798Z</time></trkpt><trkpt lat="44.03624" lon="11.064815"><ele>1030.0</ele><time>2026-04-25T08:30:10.805Z</time></trkpt><trkpt lat="44.0363183" lon="11.064815"><ele>1030.0</ele><time>2026-04-25T08:30:11.811Z</time></trkpt><trkpt lat="44.03641" lon="11.064795"><ele>1030.0</ele><time>2026-04-25T08:30:12.818Z</time></trkpt><trkpt lat="44.0365117" lon="11.0647483"><ele>1030.0</ele><time>2026-04-25T08:30:13.825Z</time></trkpt><trkpt lat="44.036615" lon="11.06469"><ele>1030.0</ele><time>2026-04-25T08:30:14.831Z</time></trkpt><trkpt lat="44.0367183" lon="11.0646267"><ele>1030.0</ele><time>2026-04-25T08:30:15.771Z</time></trkpt><trkpt lat="44.036825" lon="11.0645567"><ele>1030.0</ele><time>2026-04-25T08:30:16.777Z</time></trkpt><trkpt lat="44.0369383" lon="11.0644817"><ele>1036.8</ele><time>2026-04-25T08:30:17.784Z</time></trkpt><trkpt lat="44.0370467" lon="11.0644083"><ele>1043.6</ele><time>2026-04-25T08:30:18.79Z</time></trkpt><trkpt lat="44.03715" lon="11.06433"><ele>1050.4</ele><time>2026-04-25T08:30:19.796Z</time></trkpt><trkpt lat="44.037245" lon="11.0642483"><ele>1057.2</ele><time>2026-04-25T08:30:20.804Z</time></trkpt><trkpt lat="44.0373267" lon="11.0641833"><ele>1064.0</ele><time>2026-04-25T08:30:21.81Z</time></trkpt><trkpt lat="44.0374" lon="11.0641183"><ele>1063.6000000000001</ele><time>2026-04-25T08:30:22.817Z</time></trkpt><trkpt lat="44.0374667" lon="11.0640567"><ele>1063.2</ele><time>2026-04-25T08:30:23.823Z</time></trkpt><trkpt lat="44.0375267" lon="11.06401"><ele>1062.8000000000002</ele><time>2026-04-25T08:30:24.83Z</time></trkpt><trkpt lat="44.0376383" lon="11.0639783"><ele>1062.4</ele><time>2026-04-25T08:30:26.777Z</time></trkpt><trkpt lat="44.0377367" lon="11.0640167"><ele>1062.0</ele><time>2026-04-25T08:30:28.79Z</time></trkpt><trkpt lat="44.0378083" lon="11.0641833"><ele>1062.0</ele><time>2026-04-25T08:30:30.803Z</time></trkpt><trkpt lat="44.037855" lon="11.0642867"><ele>1062.0</ele><time>2026-04-25T08:30:31.81Z</time></trkpt><trkpt lat="44.0379033" lon="11.064395"><ele>1062.0</ele><time>2026-04-25T08:30:32.815Z</time></trkpt><trkpt lat="44.0379533" lon="11.064505"><ele>1062.0</ele><time>2026-04-25T08:30:33.823Z</time></trkpt><trkpt lat="44.0379883" lon="11.06463"><ele>1062.0</ele><time>2026-04-25T08:30:34.83Z</time></trkpt><trkpt lat="44.0380117" lon="11.0647717"><ele>1062.0</ele><time>2026-04-25T08:30:35.769Z</time></trkpt><trkpt lat="44.0380317" lon="11.0649183"><ele>1062.0</ele><time>2026-04-25T08:30:36.776Z</time></trkpt><trkpt lat="44.0380417" lon="11.065065"><ele>1062.0</ele><time>2026-04-25T08:30:37.782Z</time></trkpt><trkpt lat="44.0380483" lon="11.0652183"><ele>1062.0</ele><time>2026-04-25T08:30:38.789Z</time></trkpt><trkpt lat="44.0380517" lon="11.0653667"><ele>1062.0</ele><time>2026-04-25T08:30:39.863Z</time></trkpt><trkpt lat="44.0380567" lon="11.065505"><ele>1054.4</ele><time>2026-04-25T08:30:40.801Z</time></trkpt><trkpt lat="44.03806" lon="11.0656333"><ele>1046.8000000000002</ele><time>2026-04-25T08:30:41.809Z</time></trkpt><trkpt lat="44.0380517" lon="11.0657633"><ele>1039.2</ele><time>2026-04-25T08:30:42.816Z</time></trkpt><trkpt lat="44.0380267" lon="11.0659033"><ele>1031.6000000000001</ele><time>2026-04-25T08:30:43.822Z</time></trkpt><trkpt lat="44.037995" lon="11.0660483"><ele>1024.0</ele><time>2026-04-25T08:30:44.829Z</time></trkpt><trkpt lat="44.0379583" lon="11.0661867"><ele>1018.5</ele><time>2026-04-25T08:30:45.767Z</time></trkpt><trkpt lat="44.0379233" lon="11.0663283"><ele>1013.0</ele><time>2026-04-25T08:30:46.775Z</time></trkpt><trkpt lat="44.037885" lon="11.06648"><ele>1007.5</ele><time>2026-04-25T08:30:47.848Z</time></trkpt><trkpt lat="44.0378417" lon="11.0666283"><ele>1002.0</ele><time>2026-04-25T08:30:48.855Z</time></trkpt><trkpt lat="44.0377967" lon="11.06678"><ele>999.5</ele><time>2026-04-25T08:30:49.862Z</time></trkpt><trkpt lat="44.037755" lon="11.0669317"><ele>997.0</ele><time>2026-04-25T08:30:50.801Z</time></trkpt><trkpt lat="44.0377183" lon="11.0670817"><ele>994.5</ele><time>2026-04-25T08:30:51.808Z</time></trkpt><trkpt lat="44.0376817" lon="11.0672283"><ele>992.0</ele><time>2026-04-25T08:30:52.815Z</time></trkpt><trkpt lat="44.0376417" lon="11.0673717"><ele>993.5</ele><time>2026-04-25T08:30:53.821Z</time></trkpt><trkpt lat="44.037595" lon="11.0675167"><ele>995.0</ele><time>2026-04-25T08:30:54.828Z</time></trkpt><trkpt lat="44.0375467" lon="11.0676617"><ele>996.5</ele><time>2026-04-25T08:30:55.768Z</time></trkpt><trkpt lat="44.037495" lon="11.067805"><ele>998.0</ele><time>2026-04-25T08:30:56.841Z</time></trkpt><trkpt lat="44.0374433" lon="11.067945"><ele>992.4</ele><time>2026-04-25T08:30:57.848Z</time></trkpt><trkpt lat="44.0373933" lon="11.0680783"><ele>986.8</ele><time>2026-04-25T08:30:58.855Z</time></trkpt><trkpt lat="44.0373517" lon="11.068205"><ele>981.2</ele><time>2026-04-25T08:30:59.794Z</time></trkpt><trkpt lat="44.0373133" lon="11.068315"><ele>975.6</ele><time>2026-04-25T08:31:00.8Z</time></trkpt><trkpt lat="44.0372817" lon="11.0684033"><ele>970.0</ele><time>2026-04-25T08:31:01.807Z</time></trkpt><trkpt lat="44.0372117" lon="11.0685233"><ele>970.0</ele><time>2026-04-25T08:31:03.821Z</time></trkpt><trkpt lat="44.03714" lon="11.06859"><ele>970.0</ele><time>2026-04-25T08:31:05.833Z</time></trkpt><trkpt lat="44.0370867" lon="11.0685"><ele>970.0</ele><time>2026-04-25T08:31:07.847Z</time></trkpt><trkpt lat="44.0370633" lon="11.06832"><ele>970.0</ele><time>2026-04-25T08:31:09.793Z</time></trkpt><trkpt lat="44.03708" lon="11.06819"><ele>970.0</ele><time>2026-04-25T08:31:10.8Z</time></trkpt><trkpt lat="44.0371117" lon="11.0680367"><ele>968.0</ele><time>2026-04-25T08:31:11.807Z</time></trkpt><trkpt lat="44.0371533" lon="11.06786"><ele>966.0</ele><time>2026-04-25T08:31:12.813Z</time></trkpt><trkpt lat="44.0371867" lon="11.0676817"><ele>964.0</ele><time>2026-04-25T08:31:13.82Z</time></trkpt><trkpt lat="44.03721" lon="11.0674983"><ele>962.0</ele><time>2026-04-25T08:31:14.826Z</time></trkpt><trkpt lat="44.0372267" lon="11.0673233"><ele>962.0</ele><time>2026-04-25T08:31:15.833Z</time></trkpt><trkpt lat="44.0372367" lon="11.0671533"><ele>962.0</ele><time>2026-04-25T08:31:16.84Z</time></trkpt><trkpt lat="44.03725" lon="11.066985"><ele>962.0</ele><time>2026-04-25T08:31:17.845Z</time></trkpt><trkpt lat="44.0372667" lon="11.0668217"><ele>962.0</ele><time>2026-04-25T08:31:18.853Z</time></trkpt><trkpt lat="44.0372883" lon="11.0666567"><ele>966.0</ele><time>2026-04-25T08:31:19.793Z</time></trkpt><trkpt lat="44.03731" lon="11.066495"><ele>970.0</ele><time>2026-04-25T08:31:20.799Z</time></trkpt><trkpt lat="44.03733" lon="11.066345"><ele>974.0</ele><time>2026-04-25T08:31:21.806Z</time></trkpt><trkpt lat="44.0373383" lon="11.0662033"><ele>978.0</ele><time>2026-04-25T08:31:22.812Z</time></trkpt><trkpt lat="44.03734" lon="11.06607"><ele>982.0</ele><time>2026-04-25T08:31:23.819Z</time></trkpt><trkpt lat="44.0373383" lon="11.06595"><ele>982.0</ele><time>2026-04-25T08:31:24.826Z</time></trkpt><trkpt lat="44.0373333" lon="11.065855"><ele>982.0</ele><time>2026-04-25T08:31:25.831Z</time></trkpt><trkpt lat="44.0372933" lon="11.0657217"><ele>982.0</ele><time>2026-04-25T08:31:27.846Z</time></trkpt><trkpt lat="44.03721" lon="11.065675"><ele>982.0</ele><time>2026-04-25T08:31:29.792Z</time></trkpt><trkpt lat="44.0371117" lon="11.065725"><ele>982.0</ele><time>2026-04-25T08:31:30.798Z</time></trkpt><trkpt lat="44.03702" lon="11.0657883"><ele>982.0</ele><time>2026-04-25T08:31:31.805Z</time></trkpt><trkpt lat="44.0369" lon="11.0658617"><ele>982.0</ele><time>2026-04-25T08:31:32.812Z</time></trkpt><trkpt lat="44.036785" lon="11.0659367"><ele>982.0</ele><time>2026-04-25T08:31:33.817Z</time></trkpt><trkpt lat="44.0366883" lon="11.0660067"><ele>982.0</ele><time>2026-04-25T08:31:34.825Z</time></trkpt><trkpt lat="44.0365983" lon="11.0660633"><ele>983.6</ele><time>2026-04-25T08:31:35.832Z</time></trkpt><trkpt lat="44.036505" lon="11.0661033"><ele>985.2</ele><time>2026-04-25T08:31:36.838Z</time></trkpt><trkpt lat="44.03641" lon="11.0661383"><ele>986.8</ele><time>2026-04-25T08:31:37.845Z</time></trkpt><trkpt lat="44.0363083" lon="11.066165"><ele>988.4</ele><time>2026-04-25T08:31:38.85Z</time></trkpt><trkpt lat="44.03621" lon="11.0661867"><ele>990.0</ele><time>2026-04-25T08:31:39.791Z</time></trkpt><trkpt lat="44.0361183" lon="11.0662283"><ele>990.0</ele><time>2026-04-25T08:31:40.798Z</time></trkpt><trkpt lat="44.03603" lon="11.066285"><ele>990.0</ele><time>2026-04-25T08:31:41.803Z</time></trkpt><trkpt lat="44.03593" lon="11.0663383"><ele>990.0</ele><time>2026-04-25T08:31:42.811Z</time></trkpt><trkpt lat="44.0358283" lon="11.0663733"><ele>990.0</ele><time>2026-04-25T08:31:43.818Z</time></trkpt><trkpt lat="44.0357067" lon="11.0664033"><ele>990.0</ele><time>2026-04-25T08:31:44.824Z</time></trkpt><trkpt lat="44.0355867" lon="11.066425"><ele>986.75</ele><time>2026-04-25T08:31:45.831Z</time></trkpt><trkpt lat="44.0354667" lon="11.0664417"><ele>983.5</ele><time>2026-04-25T08:31:46.837Z</time></trkpt><trkpt lat="44.0353467" lon="11.0664667"><ele>980.25</ele><time>2026-04-25T08:31:47.844Z</time></trkpt><trkpt lat="44.03523" lon="11.0665017"><ele>977.0</ele><time>2026-04-25T08:31:48.784Z</time></trkpt><trkpt lat="44.0351317" lon="11.0665217"><ele>977.0000000000001</ele><time>2026-04-25T08:31:49.789Z</time></trkpt><trkpt lat="44.035045" lon="11.0665367"><ele>977.0</ele><time>2026-04-25T08:31:50.797Z</time></trkpt><trkpt lat="44.0349617" lon="11.0665367"><ele>977.0</ele><time>2026-04-25T08:31:51.803Z</time></trkpt><trkpt lat="44.0348783" lon="11.066525"><ele>977.0</ele><time>2026-04-25T08:31:52.81Z</time></trkpt><trkpt lat="44.0347983" lon="11.0664817"><ele>977.0000000000001</ele><time>2026-04-25T08:31:53.816Z</time></trkpt><trkpt lat="44.0347233" lon="11.0664367"><ele>977.0</ele><time>2026-04-25T08:31:54.823Z</time></trkpt><trkpt lat="44.03464" lon="11.066405"><ele>970.0000000000001</ele><time>2026-04-25T08:31:55.829Z</time></trkpt><trkpt lat="44.0345483" lon="11.0663967"><ele>963.0</ele><time>2026-04-25T08:31:56.836Z</time></trkpt><trkpt lat="44.0344583" lon="11.0663983"><ele>956.0</ele><time>2026-04-25T08:31:57.843Z</time></trkpt><trkpt lat="44.0343717" lon="11.0664167"><ele>949.0</ele><time>2026-04-25T08:31:58.783Z</time></trkpt><trkpt lat="44.03429" lon="11.0664383"><ele>942.0000000000001</ele><time>2026-04-25T08:31:59.788Z</time></trkpt><trkpt lat="44.0342217" lon="11.0664467"><ele>935.0</ele><time>2026-04-25T08:32:00.796Z</time></trkpt><trkpt lat="44.03413" lon="11.0663783"><ele>932.6666666666667</ele><time>2026-04-25T08:32:02.808Z</time></trkpt><trkpt lat="44.0341" lon="11.0662883"><ele>930.3333333333334</ele><time>2026-04-25T08:32:03.816Z</time></trkpt><trkpt lat="44.0340867" lon="11.0661783"><ele>928.0</ele><time>2026-04-25T08:32:04.823Z</time></trkpt><trkpt lat="44.034085" lon="11.06606"><ele>925.6666666666667</ele><time>2026-04-25T08:32:05.829Z</time></trkpt><trkpt lat="44.03409" lon="11.0659317"><ele>923.3333333333334</ele><time>2026-04-25T08:32:06.836Z</time></trkpt><trkpt lat="44.0341133" lon="11.06579"><ele>921.0</ele><time>2026-04-25T08:32:07.841Z</time></trkpt><trkpt lat="44.0341417" lon="11.0656567"><ele>921.0</ele><time>2026-04-25T08:32:08.782Z</time></trkpt><trkpt lat="44.03417" lon="11.0655233"><ele>920.9999999999999</ele><time>2026-04-25T08:32:09.788Z</time></trkpt><trkpt lat="44.03419" lon="11.0653767"><ele>920.9999999999999</ele><time>2026-04-25T08:32:10.795Z</time></trkpt><trkpt lat="44.03421" lon="11.0652267"><ele>921.0</ele><time>2026-04-25T08:32:11.802Z</time></trkpt><trkpt lat="44.0342367" lon="11.065075"><ele>921.0</ele><time>2026-04-25T08:32:12.809Z</time></trkpt><trkpt lat="44.0342633" lon="11.06493"><ele>921.1666666666666</ele><time>2026-04-25T08:32:13.815Z</time></trkpt><trkpt lat="44.0342917" lon="11.0648017"><ele>921.3333333333333</ele><time>2026-04-25T08:32:14.822Z</time></trkpt><trkpt lat="44.03432" lon="11.0646833"><ele>921.5</ele><time>2026-04-25T08:32:15.828Z</time></trkpt><trkpt lat="44.0343417" lon="11.0645783"><ele>921.6666666666666</ele><time>2026-04-25T08:32:16.835Z</time></trkpt><trkpt lat="44.0343567" lon="11.0644833"><ele>921.8333333333333</ele><time>2026-04-25T08:32:17.842Z</time></trkpt><trkpt lat="44.034365" lon="11.0643867"><ele>922.0</ele><time>2026-04-25T08:32:18.78Z</time></trkpt><trkpt lat="44.034355" lon="11.0642233"><ele>919.0</ele><time>2026-04-25T08:32:20.794Z</time></trkpt><trkpt lat="44.03431" lon="11.0640883"><ele>916.0</ele><time>2026-04-25T08:32:22.807Z</time></trkpt><trkpt lat="44.0342483" lon="11.064045"><ele>913.0</ele><time>2026-04-25T08:32:23.814Z</time></trkpt><trkpt lat="44.03416" lon="11.0640283"><ele>910.0</ele><time>2026-04-25T08:32:24.82Z</time></trkpt><trkpt lat="44.0340517" lon="11.06403"><ele>907.0</ele><time>2026-04-25T08:32:25.828Z</time></trkpt><trkpt lat="44.033935" lon="11.0640283"><ele>906.9999999999999</ele><time>2026-04-25T08:32:26.834Z</time></trkpt><trkpt lat="44.0338267" lon="11.06403"><ele>907.0</ele><time>2026-04-25T08:32:27.841Z</time></trkpt><trkpt lat="44.0337267" lon="11.06403"><ele>907.0</ele><time>2026-04-25T08:32:28.78Z</time></trkpt><trkpt lat="44.0336383" lon="11.064035"><ele>907.0</ele><time>2026-04-25T08:32:29.787Z</time></trkpt><trkpt lat="44.0335683" lon="11.06403"><ele>906.9999999999999</ele><time>2026-04-25T08:32:30.793Z</time></trkpt><trkpt lat="44.033505" lon="11.0640133"><ele>907.0</ele><time>2026-04-25T08:32:31.8Z</time></trkpt><trkpt lat="44.033425" lon="11.0639117"><ele>906.9999999999999</ele><time>2026-04-25T08:32:33.814Z</time></trkpt><trkpt lat="44.0334" lon="11.063815"><ele>907.0</ele><time>2026-04-25T08:32:34.82Z</time></trkpt><trkpt lat="44.0333733" lon="11.06371"><ele>907.0</ele><time>2026-04-25T08:32:35.827Z</time></trkpt><trkpt lat="44.0333467" lon="11.0636033"><ele>907.0</ele><time>2026-04-25T08:32:36.834Z</time></trkpt><trkpt lat="44.0333283" lon="11.06349"><ele>906.9999999999999</ele><time>2026-04-25T08:32:37.773Z</time></trkpt><trkpt lat="44.03332" lon="11.0633717"><ele>907.0</ele><time>2026-04-25T08:32:38.78Z</time></trkpt><trkpt lat="44.0333217" lon="11.0632433"><ele>908.4999999999999</ele><time>2026-04-25T08:32:39.786Z</time></trkpt><trkpt lat="44.0333217" lon="11.063115"><ele>910.0</ele><time>2026-04-25T08:32:40.793Z</time></trkpt><trkpt lat="44.0333133" lon="11.0629783"><ele>911.5</ele><time>2026-04-25T08:32:41.8Z</time></trkpt><trkpt lat="44.033295" lon="11.0628517"><ele>913.0</ele><time>2026-04-25T08:32:42.806Z</time></trkpt><trkpt lat="44.0332783" lon="11.0627417"><ele>914.4999999999999</ele><time>2026-04-25T08:32:43.813Z</time></trkpt><trkpt lat="44.0332617" lon="11.0626517"><ele>916.0</ele><time>2026-04-25T08:32:44.818Z</time></trkpt><trkpt lat="44.0332067" lon="11.06252"><ele>915.9999999999999</ele><time>2026-04-25T08:32:46.833Z</time></trkpt><trkpt lat="44.0331167" lon="11.062475"><ele>916.0</ele><time>2026-04-25T08:32:48.778Z</time></trkpt><trkpt lat="44.0330517" lon="11.0624983"><ele>916.0</ele><time>2026-04-25T08:32:49.785Z</time></trkpt><trkpt lat="44.0329633" lon="11.0625617"><ele>916.0</ele><time>2026-04-25T08:32:50.792Z</time></trkpt><trkpt lat="44.0328883" lon="11.06262"><ele>915.9999999999999</ele><time>2026-04-25T08:32:51.798Z</time></trkpt><trkpt lat="44.0328267" lon="11.0626883"><ele>916.0</ele><time>2026-04-25T08:32:52.805Z</time></trkpt><trkpt lat="44.0327633" lon="11.0627717"><ele>916.0</ele><time>2026-04-25T08:32:53.811Z</time></trkpt><trkpt lat="44.0326933" lon="11.062865"><ele>915.9999999999999</ele><time>2026-04-25T08:32:54.819Z</time></trkpt><trkpt lat="44.0326267" lon="11.0629583"><ele>915.9999999999999</ele><time>2026-04-25T08:32:55.825Z</time></trkpt><trkpt lat="44.03256" lon="11.0630483"><ele>916.0</ele><time>2026-04-25T08:32:56.832Z</time></trkpt><trkpt lat="44.0324933" lon="11.0631433"><ele>916.0</ele><time>2026-04-25T08:32:57.771Z</time></trkpt><trkpt lat="44.03243" lon="11.06324"><ele>912.6666666666666</ele><time>2026-04-25T08:32:58.778Z</time></trkpt><trkpt lat="44.03237" lon="11.0633417"><ele>909.3333333333333</ele><time>2026-04-25T08:32:59.785Z</time></trkpt><trkpt lat="44.032315" lon="11.063445"><ele>906.0</ele><time>2026-04-25T08:33:00.791Z</time></trkpt><trkpt lat="44.0322717" lon="11.063555"><ele>902.6666666666667</ele><time>2026-04-25T08:33:01.798Z</time></trkpt><trkpt lat="44.03223" lon="11.0636583"><ele>899.3333333333334</ele><time>2026-04-25T08:33:02.804Z</time></trkpt><trkpt lat="44.0321817" lon="11.06375"><ele>896.0</ele><time>2026-04-25T08:33:03.811Z</time></trkpt><trkpt lat="44.0321383" lon="11.06383"><ele>896.0</ele><time>2026-04-25T08:33:04.818Z</time></trkpt><trkpt lat="44.03209" lon="11.063895"><ele>895.9999999999999</ele><time>2026-04-25T08:33:05.825Z</time></trkpt><trkpt lat="44.0319717" lon="11.0639483"><ele>895.9999999999999</ele><time>2026-04-25T08:33:07.771Z</time></trkpt><trkpt lat="44.0318967" lon="11.0639317"><ele>896.0</ele><time>2026-04-25T08:33:08.777Z</time></trkpt><trkpt lat="44.0318067" lon="11.0638917"><ele>896.0</ele><time>2026-04-25T08:33:09.784Z</time></trkpt><trkpt lat="44.0317183" lon="11.0638383"><ele>898.6666666666667</ele><time>2026-04-25T08:33:10.858Z</time></trkpt><trkpt lat="44.031625" lon="11.063775"><ele>901.3333333333334</ele><time>2026-04-25T08:33:11.864Z</time></trkpt><trkpt lat="44.031545" lon="11.063735"><ele>904.0</ele><time>2026-04-25T08:33:12.804Z</time></trkpt><trkpt lat="44.0314767" lon="11.063725"><ele>906.6666666666667</ele><time>2026-04-25T08:33:13.81Z</time></trkpt><trkpt lat="44.0314133" lon="11.06374"><ele>909.3333333333334</ele><time>2026-04-25T08:33:14.817Z</time></trkpt><trkpt lat="44.031355" lon="11.063775"><ele>912.0</ele><time>2026-04-25T08:33:15.824Z</time></trkpt><trkpt lat="44.0313133" lon="11.0639483"><ele>910.5</ele><time>2026-04-25T08:33:17.77Z</time></trkpt><trkpt lat="44.0313733" lon="11.0641383"><ele>909.0</ele><time>2026-04-25T08:33:18.844Z</time></trkpt><trkpt lat="44.03142" lon="11.0643167"><ele>907.5</ele><time>2026-04-25T08:33:19.85Z</time></trkpt><trkpt lat="44.03146" lon="11.0644783"><ele>906.0</ele><time>2026-04-25T08:33:20.857Z</time></trkpt><trkpt lat="44.03149" lon="11.0646167"><ele>906.0</ele><time>2026-04-25T08:33:21.796Z</time></trkpt><trkpt lat="44.0315083" lon="11.0647367"><ele>905.9999999999999</ele><time>2026-04-25T08:33:22.803Z</time></trkpt><trkpt lat="44.03151" lon="11.0648533"><ele>905.9999999999999</ele><time>2026-04-25T08:33:23.81Z</time></trkpt><trkpt lat="44.0314867" lon="11.064965"><ele>906.0</ele><time>2026-04-25T08:33:24.816Z</time></trkpt><trkpt lat="44.0314467" lon="11.0651"><ele>906.0</ele><time>2026-04-25T08:33:25.823Z</time></trkpt><trkpt lat="44.031385" lon="11.06524"><ele>902.8</ele><time>2026-04-25T08:33:26.763Z</time></trkpt><trkpt lat="44.0313283" lon="11.065385"><ele>899.5999999999999</ele><time>2026-04-25T08:33:27.836Z</time></trkpt><trkpt lat="44.0312783" lon="11.0655067"><ele>896.4</ele><time>2026-04-25T08:33:28.843Z</time></trkpt><trkpt lat="44.031225" lon="11.0656133"><ele>893.2</ele><time>2026-04-25T08:33:29.85Z</time></trkpt><trkpt lat="44.0311633" lon="11.065705"><ele>890.0</ele><time>2026-04-25T08:33:30.855Z</time></trkpt><trkpt lat="44.03109" lon="11.0657767"><ele>887.8333333333334</ele><time>2026-04-25T08:33:31.796Z</time></trkpt><trkpt lat="44.0310233" lon="11.0658633"><ele>885.6666666666667</ele><time>2026-04-25T08:33:32.801Z</time></trkpt><trkpt lat="44.0309717" lon="11.0659533"><ele>883.5</ele><time>2026-04-25T08:33:33.808Z</time></trkpt><trkpt lat="44.0309183" lon="11.0660233"><ele>881.3333333333333</ele><time>2026-04-25T08:33:34.816Z</time></trkpt><trkpt lat="44.0308683" lon="11.0661117"><ele>879.1666666666666</ele><time>2026-04-25T08:33:35.822Z</time></trkpt><trkpt lat="44.0308017" lon="11.0662083"><ele>877.0</ele><time>2026-04-25T08:33:36.829Z</time></trkpt><trkpt lat="44.03071" lon="11.0662817"><ele>877.0</ele><time>2026-04-25T08:33:37.835Z</time></trkpt><trkpt lat="44.03062" lon="11.0663717"><ele>877.0</ele><time>2026-04-25T08:33:38.842Z</time></trkpt><trkpt lat="44.0305483" lon="11.0664783"><ele>877.0</ele><time>2026-04-25T08:33:39.848Z</time></trkpt><trkpt lat="44.0304867" lon="11.0665633"><ele>877.0</ele><time>2026-04-25T08:33:40.855Z</time></trkpt><trkpt lat="44.0304283" lon="11.0666283"><ele>877.0</ele><time>2026-04-25T08:33:41.794Z</time></trkpt><trkpt lat="44.0303633" lon="11.0666817"><ele>869.8</ele><time>2026-04-25T08:33:42.802Z</time></trkpt><trkpt lat="44.0302783" lon="11.0667067"><ele>862.6</ele><time>2026-04-25T08:33:43.808Z</time></trkpt><trkpt lat="44.03018" lon="11.0667067"><ele>855.4</ele><time>2026-04-25T08:33:44.815Z</time></trkpt><trkpt lat="44.0300683" lon="11.0667317"><ele>848.1999999999999</ele><time>2026-04-25T08:33:45.82Z</time></trkpt><trkpt lat="44.0299533" lon="11.06678"><ele>841.0</ele><time>2026-04-25T08:33:46.827Z</time></trkpt><trkpt lat="44.029845" lon="11.066825"><ele>840.9999999999999</ele><time>2026-04-25T08:33:47.835Z</time></trkpt><trkpt lat="44.029745" lon="11.06686"><ele>841.0</ele><time>2026-04-25T08:33:48.841Z</time></trkpt><trkpt lat="44.029655" lon="11.0668867"><ele>841.0</ele><time>2026-04-25T08:33:49.847Z</time></trkpt><trkpt lat="44.0295817" lon="11.0669283"><ele>841.0</ele><time>2026-04-25T08:33:50.855Z</time></trkpt><trkpt lat="44.0295167" lon="11.0669917"><ele>840.9999999999999</ele><time>2026-04-25T08:33:51.794Z</time></trkpt><trkpt lat="44.029455" lon="11.0670733"><ele>841.0</ele><time>2026-04-25T08:33:52.801Z</time></trkpt><trkpt lat="44.0294117" lon="11.0671783"><ele>840.9999999999999</ele><time>2026-04-25T08:33:53.806Z</time></trkpt><trkpt lat="44.0293717" lon="11.067285"><ele>841.0</ele><time>2026-04-25T08:33:54.813Z</time></trkpt><trkpt lat="44.0293167" lon="11.0673867"><ele>841.0</ele><time>2026-04-25T08:33:55.821Z</time></trkpt><trkpt lat="44.029275" lon="11.0674933"><ele>841.0</ele><time>2026-04-25T08:33:56.826Z</time></trkpt><trkpt lat="44.0291967" lon="11.0675633"><ele>840.9999999999999</ele><time>2026-04-25T08:33:57.834Z</time></trkpt><trkpt lat="44.0291183" lon="11.067625"><ele>841.0</ele><time>2026-04-25T08:33:58.84Z</time></trkpt><trkpt lat="44.02904" lon="11.0676967"><ele>828.0</ele><time>2026-04-25T08:33:59.847Z</time></trkpt><trkpt lat="44.0289717" lon="11.06779"><ele>815.0</ele><time>2026-04-25T08:34:00.787Z</time></trkpt><trkpt lat="44.028915" lon="11.0679167"><ele>802.0</ele><time>2026-04-25T08:34:01.793Z</time></trkpt><trkpt lat="44.02887" lon="11.0680617"><ele>789.0</ele><time>2026-04-25T08:34:02.799Z</time></trkpt><trkpt lat="44.0288267" lon="11.0682017"><ele>776.0</ele><time>2026-04-25T08:34:03.807Z</time></trkpt><trkpt lat="44.0287883" lon="11.0683483"><ele>774.8</ele><time>2026-04-25T08:34:04.813Z</time></trkpt><trkpt lat="44.028755" lon="11.0684967"><ele>773.5999999999999</ele><time>2026-04-25T08:34:05.82Z</time></trkpt><trkpt lat="44.02872" lon="11.0686333"><ele>772.4</ele><time>2026-04-25T08:34:06.826Z</time></trkpt><trkpt lat="44.0286833" lon="11.0687633"><ele>771.2</ele><time>2026-04-25T08:34:07.832Z</time></trkpt><trkpt lat="44.028635" lon="11.0688833"><ele>770.0</ele><time>2026-04-25T08:34:08.84Z</time></trkpt><trkpt lat="44.028565" lon="11.0689833"><ele>770.0</ele><time>2026-04-25T08:34:09.846Z</time></trkpt><trkpt lat="44.0284833" lon="11.06907"><ele>770.0</ele><time>2026-04-25T08:34:10.786Z</time></trkpt><trkpt lat="44.0284017" lon="11.0691533"><ele>770.0</ele><time>2026-04-25T08:34:11.793Z</time></trkpt><trkpt lat="44.0283367" lon="11.06926"><ele>770.0</ele><time>2026-04-25T08:34:12.798Z</time></trkpt><trkpt lat="44.0282833" lon="11.0693833"><ele>770.0</ele><time>2026-04-25T08:34:13.806Z</time></trkpt><trkpt lat="44.0282333" lon="11.069525"><ele>761.75</ele><time>2026-04-25T08:34:14.812Z</time></trkpt><trkpt lat="44.0281933" lon="11.0696783"><ele>753.5</ele><time>2026-04-25T08:34:15.819Z</time></trkpt><trkpt lat="44.0281633" lon="11.0698317"><ele>745.25</ele><time>2026-04-25T08:34:16.825Z</time></trkpt><trkpt lat="44.0281383" lon="11.0699833"><ele>737.0</ele><time>2026-04-25T08:34:17.832Z</time></trkpt><trkpt lat="44.028125" lon="11.07014"><ele>737.0</ele><time>2026-04-25T08:34:18.839Z</time></trkpt><trkpt lat="44.0281267" lon="11.070295"><ele>737.0</ele><time>2026-04-25T08:34:19.846Z</time></trkpt><trkpt lat="44.0281367" lon="11.070455"><ele>737.0</ele><time>2026-04-25T08:34:20.785Z</time></trkpt><trkpt lat="44.028145" lon="11.0706167"><ele>737.0</ele><time>2026-04-25T08:34:21.792Z</time></trkpt><trkpt lat="44.02815" lon="11.0707817"><ele>737.0</ele><time>2026-04-25T08:34:22.798Z</time></trkpt><trkpt lat="44.0281433" lon="11.0709517"><ele>737.0</ele><time>2026-04-25T08:34:23.805Z</time></trkpt><trkpt lat="44.0281033" lon="11.0711367"><ele>737.0</ele><time>2026-04-25T08:34:24.812Z</time></trkpt><trkpt lat="44.0280267" lon="11.071335"><ele>737.0</ele><time>2026-04-25T08:34:25.818Z</time></trkpt><trkpt lat="44.0279317" lon="11.0715267"><ele>740.0</ele><time>2026-04-25T08:34:26.825Z</time></trkpt><trkpt lat="44.0278233" lon="11.0716983"><ele>743.0</ele><time>2026-04-25T08:34:27.832Z</time></trkpt><trkpt lat="44.02771" lon="11.0718467"><ele>746.0</ele><time>2026-04-25T08:34:28.838Z</time></trkpt><trkpt lat="44.02759" lon="11.0719717"><ele>735.0</ele><time>2026-04-25T08:34:29.845Z</time></trkpt><trkpt lat="44.02747" lon="11.0720867"><ele>724.0</ele><time>2026-04-25T08:34:30.783Z</time></trkpt><trkpt lat="44.0273583" lon="11.07221"><ele>713.0</ele><time>2026-04-25T08:34:31.79Z</time></trkpt><trkpt lat="44.027245" lon="11.0723167"><ele>702.0</ele><time>2026-04-25T08:34:32.798Z</time></trkpt><trkpt lat="44.027125" lon="11.0723867"><ele>702.0</ele><time>2026-04-25T08:34:33.804Z</time></trkpt><trkpt lat="44.0270117" lon="11.0724283"><ele>702.0</ele><time>2026-04-25T08:34:34.811Z</time></trkpt><trkpt lat="44.0269167" lon="11.0724783"><ele>702.0</ele><time>2026-04-25T08:34:35.818Z</time></trkpt><trkpt lat="44.02684" lon="11.0725533"><ele>702.0</ele><time>2026-04-25T08:34:36.823Z</time></trkpt><trkpt lat="44.0267733" lon="11.0726567"><ele>702.0</ele><time>2026-04-25T08:34:37.83Z</time></trkpt><trkpt lat="44.0267267" lon="11.07279"><ele>708.0</ele><time>2026-04-25T08:34:38.837Z</time></trkpt><trkpt lat="44.0267083" lon="11.0729283"><ele>714.0</ele><time>2026-04-25T08:34:39.843Z</time></trkpt><trkpt lat="44.0267233" lon="11.073075"><ele>720.0</ele><time>2026-04-25T08:34:40.783Z</time></trkpt><trkpt lat="44.0267633" lon="11.0732117"><ele>726.0</ele><time>2026-04-25T08:34:41.789Z</time></trkpt><trkpt lat="44.0268217" lon="11.0733483"><ele>732.0</ele><time>2026-04-25T08:34:42.796Z</time></trkpt><trkpt lat="44.026885" lon="11.0734833"><ele>732.5</ele><time>2026-04-25T08:34:43.803Z</time></trkpt><trkpt lat="44.026945" lon="11.0736183"><ele>733.0</ele><time>2026-04-25T08:34:44.81Z</time></trkpt><trkpt lat="44.02699" lon="11.0737617"><ele>733.5</ele><time>2026-04-25T08:34:45.817Z</time></trkpt><trkpt lat="44.0270217" lon="11.073925"><ele>734.0</ele><time>2026-04-25T08:34:46.823Z</time></trkpt><trkpt lat="44.027025" lon="11.0741033"><ele>729.5</ele><time>2026-04-25T08:34:47.829Z</time></trkpt><trkpt lat="44.0270017" lon="11.0742967"><ele>725.0</ele><time>2026-04-25T08:34:48.837Z</time></trkpt><trkpt lat="44.0269617" lon="11.0744867"><ele>720.5</ele><time>2026-04-25T08:34:49.776Z</time></trkpt><trkpt lat="44.0269167" lon="11.07467"><ele>716.0</ele><time>2026-04-25T08:34:50.783Z</time></trkpt><trkpt lat="44.02687" lon="11.074845"><ele>716.25</ele><time>2026-04-25T08:34:51.789Z</time></trkpt><trkpt lat="44.02683" lon="11.0750083"><ele>716.5</ele><time>2026-04-25T08:34:52.795Z</time></trkpt><trkpt lat="44.0267967" lon="11.0751683"><ele>716.75</ele><time>2026-04-25T08:34:53.803Z</time></trkpt><trkpt lat="44.0267583" lon="11.0753083"><ele>717.0</ele><time>2026-04-25T08:34:54.808Z</time></trkpt><trkpt lat="44.0267033" lon="11.0754267"><ele>710.0</ele><time>2026-04-25T08:34:55.816Z</time></trkpt><trkpt lat="44.02663" lon="11.0755267"><ele>703.0</ele><time>2026-04-25T08:34:56.822Z</time></trkpt><trkpt lat="44.0265417" lon="11.075585"><ele>696.0</ele><time>2026-04-25T08:34:57.829Z</time></trkpt><trkpt lat="44.0264467" lon="11.0756233"><ele>689.0</ele><time>2026-04-25T08:34:58.836Z</time></trkpt><trkpt lat="44.0263517" lon="11.0756717"><ele>682.0</ele><time>2026-04-25T08:34:59.775Z</time></trkpt><trkpt lat="44.0262633" lon="11.0757333"><ele>686.0</ele><time>2026-04-25T08:35:00.781Z</time></trkpt><trkpt lat="44.0261767" lon="11.0758033"><ele>690.0</ele><time>2026-04-25T08:35:01.789Z</time></trkpt><trkpt lat="44.0260917" lon="11.07588"><ele>694.0</ele><time>2026-04-25T08:35:02.794Z</time></trkpt><trkpt lat="44.0260183" lon="11.07599"><ele>698.0</ele><time>2026-04-25T08:35:03.802Z</time></trkpt><trkpt lat="44.0259533" lon="11.0761167"><ele>702.0</ele><time>2026-04-25T08:35:04.809Z</time></trkpt><trkpt lat="44.0258967" lon="11.0762483"><ele>702.0</ele><time>2026-04-25T08:35:05.815Z</time></trkpt><trkpt lat="44.025845" lon="11.0763917"><ele>702.0</ele><time>2026-04-25T08:35:06.822Z</time></trkpt><trkpt lat="44.0258033" lon="11.0765433"><ele>702.0</ele><time>2026-04-25T08:35:07.828Z</time></trkpt><trkpt lat="44.0257683" lon="11.076705"><ele>702.0</ele><time>2026-04-25T08:35:08.835Z</time></trkpt><trkpt lat="44.0257383" lon="11.07688"><ele>692.75</ele><time>2026-04-25T08:35:09.775Z</time></trkpt><trkpt lat="44.0257117" lon="11.0770667"><ele>683.5</ele><time>2026-04-25T08:35:10.78Z</time></trkpt><trkpt lat="44.02569" lon="11.0772733"><ele>674.25</ele><time>2026-04-25T08:35:11.788Z</time></trkpt><trkpt lat="44.0256667" lon="11.077475"><ele>665.0</ele><time>2026-04-25T08:35:12.794Z</time></trkpt><trkpt lat="44.0256467" lon="11.0777033"><ele>665.0</ele><time>2026-04-25T08:35:13.8Z</time></trkpt><trkpt lat="44.0256283" lon="11.0779"><ele>665.0</ele><time>2026-04-25T08:35:14.808Z</time></trkpt><trkpt lat="44.0256183" lon="11.0781033"><ele>665.0</ele><time>2026-04-25T08:35:15.814Z</time></trkpt><trkpt lat="44.0256067" lon="11.0782833"><ele>665.0</ele><time>2026-04-25T08:35:16.821Z</time></trkpt><trkpt lat="44.0255817" lon="11.0784717"><ele>666.6666666666666</ele><time>2026-04-25T08:35:17.828Z</time></trkpt><trkpt lat="44.025535" lon="11.0786817"><ele>668.3333333333334</ele><time>2026-04-25T08:35:18.834Z</time></trkpt><trkpt lat="44.0254667" lon="11.078885"><ele>670.0</ele><time>2026-04-25T08:35:19.774Z</time></trkpt><trkpt lat="44.0253967" lon="11.0790833"><ele>671.0</ele><time>2026-04-25T08:35:20.78Z</time></trkpt><trkpt lat="44.025335" lon="11.0792717"><ele>672.0</ele><time>2026-04-25T08:35:21.787Z</time></trkpt><trkpt lat="44.02528" lon="11.0794517"><ele>673.0</ele><time>2026-04-25T08:35:22.793Z</time></trkpt><trkpt lat="44.0252267" lon="11.07963"><ele>674.0</ele><time>2026-04-25T08:35:23.799Z</time></trkpt><trkpt lat="44.0251817" lon="11.07982"><ele>675.0</ele><time>2026-04-25T08:35:24.807Z</time></trkpt><trkpt lat="44.0251433" lon="11.08001"><ele>676.0</ele><time>2026-04-25T08:35:25.814Z</time></trkpt><trkpt lat="44.02511" lon="11.0802033"><ele>677.0</ele><time>2026-04-25T08:35:26.82Z</time></trkpt><trkpt lat="44.02508" lon="11.0803983"><ele>678.0</ele><time>2026-04-25T08:35:27.827Z</time></trkpt><trkpt lat="44.0250533" lon="11.0805933"><ele>679.25</ele><time>2026-04-25T08:35:28.834Z</time></trkpt><trkpt lat="44.0250217" lon="11.0807933"><ele>680.5</ele><time>2026-04-25T08:35:29.773Z</time></trkpt><trkpt lat="44.0249767" lon="11.0809817"><ele>681.75</ele><time>2026-04-25T08:35:30.779Z</time></trkpt><trkpt lat="44.02492" lon="11.0811533"><ele>683.0</ele><time>2026-04-25T08:35:31.786Z</time></trkpt><trkpt lat="44.0248533" lon="11.08131"><ele>675.75</ele><time>2026-04-25T08:35:32.793Z</time></trkpt><trkpt lat="44.0247867" lon="11.08146"><ele>668.5</ele><time>2026-04-25T08:35:33.8Z</time></trkpt><trkpt lat="44.02472" lon="11.081605"><ele>661.25</ele><time>2026-04-25T08:35:34.806Z</time></trkpt><trkpt lat="44.02465" lon="11.081735"><ele>654.0</ele><time>2026-04-25T08:35:35.812Z</time></trkpt><trkpt lat="44.0245783" lon="11.0818667"><ele>654.0</ele><time>2026-04-25T08:35:36.819Z</time></trkpt><trkpt lat="44.0245017" lon="11.081985"><ele>654.0</ele><time>2026-04-25T08:35:37.826Z</time></trkpt><trkpt lat="44.0244117" lon="11.082085"><ele>654.0</ele><time>2026-04-25T08:35:38.766Z</time></trkpt><trkpt lat="44.02431" lon="11.082155"><ele>654.0</ele><time>2026-04-25T08:35:39.772Z</time></trkpt><trkpt lat="44.0241917" lon="11.0821783"><ele>646.5</ele><time>2026-04-25T08:35:40.779Z</time></trkpt><trkpt lat="44.0240717" lon="11.082215"><ele>639.0</ele><time>2026-04-25T08:35:41.852Z</time></trkpt><trkpt lat="44.0239467" lon="11.0822317"><ele>631.5</ele><time>2026-04-25T08:35:42.859Z</time></trkpt><trkpt lat="44.0238283" lon="11.0822667"><ele>624.0</ele><time>2026-04-25T08:35:43.799Z</time></trkpt><trkpt lat="44.023715" lon="11.082315"><ele>624.0</ele><time>2026-04-25T08:35:44.805Z</time></trkpt><trkpt lat="44.0236067" lon="11.0823783"><ele>624.0</ele><time>2026-04-25T08:35:45.811Z</time></trkpt><trkpt lat="44.0235067" lon="11.0824533"><ele>624.0</ele><time>2026-04-25T08:35:46.819Z</time></trkpt><trkpt lat="44.0234233" lon="11.0825467"><ele>624.0</ele><time>2026-04-25T08:35:47.825Z</time></trkpt><trkpt lat="44.0233517" lon="11.08265"><ele>624.0</ele><time>2026-04-25T08:35:48.765Z</time></trkpt><trkpt lat="44.0232983" lon="11.0827717"><ele>622.75</ele><time>2026-04-25T08:35:49.839Z</time></trkpt><trkpt lat="44.02326" lon="11.08292"><ele>621.5</ele><time>2026-04-25T08:35:50.845Z</time></trkpt><trkpt lat="44.0232383" lon="11.0830867"><ele>620.25</ele><time>2026-04-25T08:35:51.851Z</time></trkpt><trkpt lat="44.02323" lon="11.0832617"><ele>619.0</ele><time>2026-04-25T08:35:52.859Z</time></trkpt><trkpt lat="44.0232317" lon="11.08343"><ele>619.0</ele><time>2026-04-25T08:35:53.798Z</time></trkpt><trkpt lat="44.02324" lon="11.0835967"><ele>619.0</ele><time>2026-04-25T08:35:54.804Z</time></trkpt><trkpt lat="44.023255" lon="11.08376"><ele>619.0</ele><time>2026-04-25T08:35:55.811Z</time></trkpt><trkpt lat="44.023285" lon="11.0839233"><ele>619.0</ele><time>2026-04-25T08:35:56.818Z</time></trkpt><trkpt lat="44.0233233" lon="11.0840783"><ele>624.2</ele><time>2026-04-25T08:35:57.825Z</time></trkpt><trkpt lat="44.0233667" lon="11.0842183"><ele>629.4</ele><time>2026-04-25T08:35:58.831Z</time></trkpt><trkpt lat="44.0234167" lon="11.0843533"><ele>634.6</ele><time>2026-04-25T08:35:59.838Z</time></trkpt><trkpt lat="44.0234717" lon="11.084465"><ele>639.8</ele><time>2026-04-25T08:36:00.843Z</time></trkpt><trkpt lat="44.0235233" lon="11.084565"><ele>645.0</ele><time>2026-04-25T08:36:01.851Z</time></trkpt><trkpt lat="44.02356" lon="11.0846617"><ele>645.0</ele><time>2026-04-25T08:36:02.858Z</time></trkpt><trkpt lat="44.0235717" lon="11.0847533"><ele>645.0</ele><time>2026-04-25T08:36:03.797Z</time></trkpt><trkpt lat="44.0235517" lon="11.0848483"><ele>645.0</ele><time>2026-04-25T08:36:04.804Z</time></trkpt><trkpt lat="44.0234733" lon="11.08482"><ele>645.0</ele><time>2026-04-25T08:36:05.811Z</time></trkpt><trkpt lat="44.02337" lon="11.084755"><ele>645.0</ele><time>2026-04-25T08:36:07.823Z</time></trkpt><trkpt lat="44.0233267" lon="11.084625"><ele>645.0</ele><time>2026-04-25T08:36:08.83Z</time></trkpt><trkpt lat="44.023285" lon="11.08447"><ele>638.5</ele><time>2026-04-25T08:36:09.837Z</time></trkpt><trkpt lat="44.0232383" lon="11.0843133"><ele>632.0</ele><time>2026-04-25T08:36:10.844Z</time></trkpt><trkpt lat="44.0231817" lon="11.0841767"><ele>625.5</ele><time>2026-04-25T08:36:11.85Z</time></trkpt><trkpt lat="44.0231183" lon="11.0840483"><ele>619.0</ele><time>2026-04-25T08:36:12.856Z</time></trkpt><trkpt lat="44.0230617" lon="11.083905"><ele>619.0</ele><time>2026-04-25T08:36:13.795Z</time></trkpt><trkpt lat="44.02301" lon="11.0837467"><ele>619.0</ele><time>2026-04-25T08:36:14.802Z</time></trkpt><trkpt lat="44.02296" lon="11.0835833"><ele>619.0</ele><time>2026-04-25T08:36:15.81Z</time></trkpt><trkpt lat="44.022915" lon="11.0834183"><ele>619.0</ele><time>2026-04-25T08:36:16.816Z</time></trkpt><trkpt lat="44.02287" lon="11.0832483"><ele>618.0</ele><time>2026-04-25T08:36:17.823Z</time></trkpt><trkpt lat="44.02283" lon="11.08308"><ele>617.0</ele><time>2026-04-25T08:36:18.83Z</time></trkpt><trkpt lat="44.0228" lon="11.08291"><ele>616.0</ele><time>2026-04-25T08:36:19.836Z</time></trkpt><trkpt lat="44.02278" lon="11.0827383"><ele>615.0</ele><time>2026-04-25T08:36:20.842Z</time></trkpt><trkpt lat="44.0227717" lon="11.0825783"><ele>611.25</ele><time>2026-04-25T08:36:21.849Z</time></trkpt><trkpt lat="44.0227833" lon="11.08242"><ele>607.5</ele><time>2026-04-25T08:36:22.788Z</time></trkpt><trkpt lat="44.0228167" lon="11.0822633"><ele>603.75</ele><time>2026-04-25T08:36:23.796Z</time></trkpt><trkpt lat="44.0228717" lon="11.0821317"><ele>600.0</ele><time>2026-04-25T08:36:24.802Z</time></trkpt><trkpt lat="44.0229467" lon="11.08202"><ele>600.0</ele><time>2026-04-25T08:36:25.809Z</time></trkpt><trkpt lat="44.0230417" lon="11.0819183"><ele>600.0</ele><time>2026-04-25T08:36:26.815Z</time></trkpt><trkpt lat="44.0231467" lon="11.0818167"><ele>600.0</ele><time>2026-04-25T08:36:27.822Z</time></trkpt><trkpt lat="44.0232567" lon="11.0817067"><ele>600.0</ele><time>2026-04-25T08:36:28.829Z</time></trkpt><trkpt lat="44.0233567" lon="11.0816217"><ele>601.6</ele><time>2026-04-25T08:36:29.835Z</time></trkpt><trkpt lat="44.0234417" lon="11.0815533"><ele>603.2</ele><time>2026-04-25T08:36:30.842Z</time></trkpt><trkpt lat="44.023515" lon="11.0814783"><ele>604.8</ele><time>2026-04-25T08:36:31.849Z</time></trkpt><trkpt lat="44.0235683" lon="11.08138"><ele>606.4</ele><time>2026-04-25T08:36:32.787Z</time></trkpt><trkpt lat="44.0236017" lon="11.0812533"><ele>608.0</ele><time>2026-04-25T08:36:33.795Z</time></trkpt><trkpt lat="44.0236033" lon="11.081085"><ele>608.0</ele><time>2026-04-25T08:36:34.802Z</time></trkpt><trkpt lat="44.0235833" lon="11.080915"><ele>608.0</ele><time>2026-04-25T08:36:35.808Z</time></trkpt><trkpt lat="44.0235533" lon="11.080745"><ele>608.0</ele><time>2026-04-25T08:36:36.815Z</time></trkpt><trkpt lat="44.0235233" lon="11.0805833"><ele>608.0</ele><time>2026-04-25T08:36:37.821Z</time></trkpt><trkpt lat="44.0235033" lon="11.0804183"><ele>606.75</ele><time>2026-04-25T08:36:38.828Z</time></trkpt><trkpt lat="44.0234967" lon="11.0802483"><ele>605.5</ele><time>2026-04-25T08:36:39.835Z</time></trkpt><trkpt lat="44.0234917" lon="11.0800667"><ele>604.25</ele><time>2026-04-25T08:36:40.841Z</time></trkpt><trkpt lat="44.0234917" lon="11.0798883"><ele>603.0</ele><time>2026-04-25T08:36:41.848Z</time></trkpt><trkpt lat="44.0235033" lon="11.0797117"><ele>600.75</ele><time>2026-04-25T08:36:42.787Z</time></trkpt><trkpt lat="44.0235317" lon="11.0795367"><ele>598.5</ele><time>2026-04-25T08:36:43.794Z</time></trkpt><trkpt lat="44.0235583" lon="11.0793583"><ele>596.25</ele><time>2026-04-25T08:36:44.801Z</time></trkpt><trkpt lat="44.0235767" lon="11.079175"><ele>594.0</ele><time>2026-04-25T08:36:45.807Z</time></trkpt><trkpt lat="44.0235883" lon="11.07899"><ele>591.0</ele><time>2026-04-25T08:36:46.814Z</time></trkpt><trkpt lat="44.0235883" lon="11.07881"><ele>588.0</ele><time>2026-04-25T08:36:47.82Z</time></trkpt><trkpt lat="44.02359" lon="11.0786317"><ele>585.0</ele><time>2026-04-25T08:36:48.827Z</time></trkpt><trkpt lat="44.0235967" lon="11.07846"><ele>582.0</ele><time>2026-04-25T08:36:49.834Z</time></trkpt><trkpt lat="44.0236133" lon="11.0782933"><ele>578.25</ele><time>2026-04-25T08:36:50.841Z</time></trkpt><trkpt lat="44.0236467" lon="11.07813"><ele>574.5</ele><time>2026-04-25T08:36:51.846Z</time></trkpt><trkpt lat="44.0237033" lon="11.077975"><ele>570.75</ele><time>2026-04-25T08:36:52.787Z</time></trkpt><trkpt lat="44.0237717" lon="11.0778317"><ele>567.0</ele><time>2026-04-25T08:36:53.793Z</time></trkpt><trkpt lat="44.0238333" lon="11.0776867"><ele>567.0</ele><time>2026-04-25T08:36:54.8Z</time></trkpt><trkpt lat="44.02387" lon="11.07753"><ele>567.0</ele><time>2026-04-25T08:36:55.807Z</time></trkpt><trkpt lat="44.0238767" lon="11.0773733"><ele>567.0</ele><time>2026-04-25T08:36:56.812Z</time></trkpt><trkpt lat="44.0238583" lon="11.0772133"><ele>567.0</ele><time>2026-04-25T08:36:57.82Z</time></trkpt><trkpt lat="44.0238267" lon="11.0770483"><ele>565.75</ele><time>2026-04-25T08:36:58.827Z</time></trkpt><trkpt lat="44.0237967" lon="11.0768817"><ele>564.5</ele><time>2026-04-25T08:36:59.833Z</time></trkpt><trkpt lat="44.0237833" lon="11.0767067"><ele>563.25</ele><time>2026-04-25T08:37:00.84Z</time></trkpt><trkpt lat="44.0237733" lon="11.076525"><ele>562.0</ele><time>2026-04-25T08:37:01.779Z</time></trkpt><trkpt lat="44.023765" lon="11.076335"><ele>560.6</ele><time>2026-04-25T08:37:02.786Z</time></trkpt><trkpt lat="44.023755" lon="11.0761517"><ele>559.2</ele><time>2026-04-25T08:37:03.793Z</time></trkpt><trkpt lat="44.0237467" lon="11.0759817"><ele>557.8</ele><time>2026-04-25T08:37:04.799Z</time></trkpt><trkpt lat="44.0237383" lon="11.0758467"><ele>556.4</ele><time>2026-04-25T08:37:05.805Z</time></trkpt><trkpt lat="44.0237233" lon="11.0757367"><ele>555.0</ele><time>2026-04-25T08:37:06.812Z</time></trkpt><trkpt lat="44.0237033" lon="11.075645"><ele>555.0</ele><time>2026-04-25T08:37:07.819Z</time></trkpt><trkpt lat="44.0236067" lon="11.0755867"><ele>555.0</ele><time>2026-04-25T08:37:09.832Z</time></trkpt><trkpt lat="44.0235533" lon="11.0757083"><ele>555.0</ele><time>2026-04-25T08:37:11.779Z</time></trkpt><trkpt lat="44.02356" lon="11.0758283"><ele>555.0</ele><time>2026-04-25T08:37:12.785Z</time></trkpt><trkpt lat="44.02357" lon="11.07597"><ele>555.0</ele><time>2026-04-25T08:37:13.792Z</time></trkpt><trkpt lat="44.02357" lon="11.0761267"><ele>555.0</ele><time>2026-04-25T08:37:14.798Z</time></trkpt><trkpt lat="44.023545" lon="11.07629"><ele>555.0</ele><time>2026-04-25T08:37:15.805Z</time></trkpt><trkpt lat="44.023495" lon="11.07646"><ele>555.0</ele><time>2026-04-25T08:37:16.811Z</time></trkpt><trkpt lat="44.023435" lon="11.0766333"><ele>555.0</ele><time>2026-04-25T08:37:17.818Z</time></trkpt><trkpt lat="44.023375" lon="11.0768067"><ele>556.75</ele><time>2026-04-25T08:37:18.825Z</time></trkpt><trkpt lat="44.0233233" lon="11.0769783"><ele>558.5</ele><time>2026-04-25T08:37:19.832Z</time></trkpt><trkpt lat="44.0232717" lon="11.077155"><ele>560.25</ele><time>2026-04-25T08:37:20.838Z</time></trkpt><trkpt lat="44.023205" lon="11.0773183"><ele>562.0</ele><time>2026-04-25T08:37:21.777Z</time></trkpt><trkpt lat="44.0231333" lon="11.0774783"><ele>557.5</ele><time>2026-04-25T08:37:22.784Z</time></trkpt><trkpt lat="44.0230517" lon="11.0776283"><ele>553.0</ele><time>2026-04-25T08:37:23.79Z</time></trkpt><trkpt lat="44.0229683" lon="11.0777633"><ele>548.5</ele><time>2026-04-25T08:37:24.798Z</time></trkpt><trkpt lat="44.022885" lon="11.0778767"><ele>544.0</ele><time>2026-04-25T08:37:25.804Z</time></trkpt><trkpt lat="44.0228083" lon="11.0779867"><ele>544.0</ele><time>2026-04-25T08:37:26.811Z</time></trkpt><trkpt lat="44.0227367" lon="11.0780933"><ele>544.0</ele><time>2026-04-25T08:37:27.817Z</time></trkpt><trkpt lat="44.0226683" lon="11.0781967"><ele>544.0</ele><time>2026-04-25T08:37:28.824Z</time></trkpt><trkpt lat="44.022595" lon="11.0782983"><ele>544.0</ele><time>2026-04-25T08:37:29.831Z</time></trkpt><trkpt lat="44.022525" lon="11.0784017"><ele>544.0</ele><time>2026-04-25T08:37:30.837Z</time></trkpt><trkpt lat="44.0224583" lon="11.07851"><ele>543.4</ele><time>2026-04-25T08:37:31.777Z</time></trkpt><trkpt lat="44.0223917" lon="11.078605"><ele>542.8</ele><time>2026-04-25T08:37:32.784Z</time></trkpt><trkpt lat="44.02233" lon="11.0787017"><ele>542.2</ele><time>2026-04-25T08:37:33.79Z</time></trkpt><trkpt lat="44.0222717" lon="11.078805"><ele>541.6</ele><time>2026-04-25T08:37:34.797Z</time></trkpt><trkpt lat="44.02222" lon="11.078925"><ele>541.0</ele><time>2026-04-25T08:37:35.803Z</time></trkpt><trkpt lat="44.0221717" lon="11.0790483"><ele>543.4</ele><time>2026-04-25T08:37:36.809Z</time></trkpt><trkpt lat="44.0221217" lon="11.079165"><ele>545.8</ele><time>2026-04-25T08:37:37.817Z</time></trkpt><trkpt lat="44.022075" lon="11.0792817"><ele>548.1999999999999</ele><time>2026-04-25T08:37:38.823Z</time></trkpt><trkpt lat="44.022025" lon="11.0793967"><ele>550.6</ele><time>2026-04-25T08:37:39.829Z</time></trkpt><trkpt lat="44.0219783" lon="11.0795067"><ele>553.0</ele><time>2026-04-25T08:37:40.836Z</time></trkpt><trkpt lat="44.0219283" lon="11.0796133"><ele>553.0</ele><time>2026-04-25T08:37:41.776Z</time></trkpt><trkpt lat="44.0218817" lon="11.0797083"><ele>553.0</ele><time>2026-04-25T08:37:42.782Z</time></trkpt><trkpt lat="44.021835" lon="11.0797833"><ele>553.0</ele><time>2026-04-25T08:37:43.789Z</time></trkpt><trkpt lat="44.021785" lon="11.0798433"><ele>553.0</ele><time>2026-04-25T08:37:44.795Z</time></trkpt><trkpt lat="44.021725" lon="11.079885"><ele>553.0</ele><time>2026-04-25T08:37:45.803Z</time></trkpt><trkpt lat="44.021655" lon="11.0799083"><ele>553.0</ele><time>2026-04-25T08:37:46.809Z</time></trkpt><trkpt lat="44.02157" lon="11.0799317"><ele>553.0</ele><time>2026-04-25T08:37:47.816Z</time></trkpt><trkpt lat="44.021475" lon="11.0799283"><ele>550.1999999999999</ele><time>2026-04-25T08:37:48.823Z</time></trkpt><trkpt lat="44.0213767" lon="11.0799233"><ele>547.4</ele><time>2026-04-25T08:37:49.829Z</time></trkpt><trkpt lat="44.0212733" lon="11.0799317"><ele>544.5999999999999</ele><time>2026-04-25T08:37:50.768Z</time></trkpt><trkpt lat="44.0211733" lon="11.0799583"><ele>541.8</ele><time>2026-04-25T08:37:51.775Z</time></trkpt><trkpt lat="44.0210767" lon="11.0800067"><ele>539.0</ele><time>2026-04-25T08:37:52.782Z</time></trkpt><trkpt lat="44.020995" lon="11.0800767"><ele>539.0</ele><time>2026-04-25T08:37:53.789Z</time></trkpt><trkpt lat="44.020935" lon="11.0801633"><ele>539.0</ele><time>2026-04-25T08:37:54.795Z</time></trkpt><trkpt lat="44.02089" lon="11.0802733"><ele>539.0</ele><time>2026-04-25T08:37:55.802Z</time></trkpt><trkpt lat="44.0208783" lon="11.0804117"><ele>539.0</ele><time>2026-04-25T08:37:56.808Z</time></trkpt><trkpt lat="44.0208983" lon="11.080565"><ele>539.0</ele><time>2026-04-25T08:37:57.814Z</time></trkpt><trkpt lat="44.0209417" lon="11.0807233"><ele>538.75</ele><time>2026-04-25T08:37:58.821Z</time></trkpt><trkpt lat="44.020995" lon="11.0808867"><ele>538.5</ele><time>2026-04-25T08:37:59.828Z</time></trkpt><trkpt lat="44.0210517" lon="11.0810417"><ele>538.25</ele><time>2026-04-25T08:38:00.767Z</time></trkpt><trkpt lat="44.021105" lon="11.081185"><ele>538.0</ele><time>2026-04-25T08:38:01.775Z</time></trkpt><trkpt lat="44.0211483" lon="11.0813183"><ele>538.0</ele><time>2026-04-25T08:38:02.781Z</time></trkpt><trkpt lat="44.0211633" lon="11.0814433"><ele>538.0</ele><time>2026-04-25T08:38:03.788Z</time></trkpt><trkpt lat="44.0211433" lon="11.08155"><ele>538.0</ele><time>2026-04-25T08:38:04.862Z</time></trkpt><trkpt lat="44.0210983" lon="11.0816517"><ele>538.0</ele><time>2026-04-25T08:38:05.801Z</time></trkpt><trkpt lat="44.02104" lon="11.0817833"><ele>538.0</ele><time>2026-04-25T08:38:06.808Z</time></trkpt><trkpt lat="44.0209783" lon="11.0819183"><ele>536.75</ele><time>2026-04-25T08:38:07.814Z</time></trkpt><trkpt lat="44.02092" lon="11.0820533"><ele>535.5</ele><time>2026-04-25T08:38:08.821Z</time></trkpt><trkpt lat="44.02087" lon="11.0821917"><ele>534.25</ele><time>2026-04-25T08:38:09.827Z</time></trkpt><trkpt lat="44.0208317" lon="11.082345"><ele>533.0</ele><time>2026-04-25T08:38:10.767Z</time></trkpt><trkpt lat="44.0208067" lon="11.08251"><ele>523.25</ele><time>2026-04-25T08:38:11.774Z</time></trkpt><trkpt lat="44.0207817" lon="11.0826783"><ele>513.5</ele><time>2026-04-25T08:38:12.847Z</time></trkpt><trkpt lat="44.0207367" lon="11.08283"><ele>503.75</ele><time>2026-04-25T08:38:13.854Z</time></trkpt><trkpt lat="44.0206783" lon="11.0829633"><ele>494.0</ele><time>2026-04-25T08:38:14.861Z</time></trkpt><trkpt lat="44.0206033" lon="11.0830767"><ele>494.0</ele><time>2026-04-25T08:38:15.8Z</time></trkpt><trkpt lat="44.0205117" lon="11.0831583"><ele>494.0</ele><time>2026-04-25T08:38:16.806Z</time></trkpt><trkpt lat="44.020415" lon="11.0832017"><ele>494.0</ele><time>2026-04-25T08:38:17.814Z</time></trkpt><trkpt lat="44.02032" lon="11.0832317"><ele>494.0</ele><time>2026-04-25T08:38:18.82Z</time></trkpt><trkpt lat="44.0202333" lon="11.083265"><ele>494.0</ele><time>2026-04-25T08:38:19.827Z</time></trkpt><trkpt lat="44.0201533" lon="11.08332"><ele>497.4</ele><time>2026-04-25T08:38:20.834Z</time></trkpt><trkpt lat="44.0200983" lon="11.08344"><ele>500.79999999999995</ele><time>2026-04-25T08:38:21.839Z</time></trkpt><trkpt lat="44.0200567" lon="11.0835833"><ele>504.20000000000005</ele><time>2026-04-25T08:38:22.847Z</time></trkpt><trkpt lat="44.0200317" lon="11.08372"><ele>507.6</ele><time>2026-04-25T08:38:23.852Z</time></trkpt><trkpt lat="44.02003" lon="11.08384"><ele>511.0</ele><time>2026-04-25T08:38:24.86Z</time></trkpt><trkpt lat="44.0200483" lon="11.08396"><ele>511.0</ele><time>2026-04-25T08:38:25.799Z</time></trkpt><trkpt lat="44.0200833" lon="11.0840667"><ele>511.0</ele><time>2026-04-25T08:38:26.805Z</time></trkpt><trkpt lat="44.0201367" lon="11.084155"><ele>511.0</ele><time>2026-04-25T08:38:27.813Z</time></trkpt><trkpt lat="44.0202517" lon="11.0842067"><ele>511.0</ele><time>2026-04-25T08:38:28.82Z</time></trkpt><trkpt lat="44.02037" lon="11.0842417"><ele>511.0</ele><time>2026-04-25T08:38:29.826Z</time></trkpt><trkpt lat="44.0204917" lon="11.0842717"><ele>510.25</ele><time>2026-04-25T08:38:30.833Z</time></trkpt><trkpt lat="44.0206033" lon="11.0843233"><ele>509.5</ele><time>2026-04-25T08:38:31.839Z</time></trkpt><trkpt lat="44.0207033" lon="11.0844033"><ele>508.75</ele><time>2026-04-25T08:38:32.845Z</time></trkpt><trkpt lat="44.0207917" lon="11.0845083"><ele>508.0</ele><time>2026-04-25T08:38:33.852Z</time></trkpt><trkpt lat="44.0208533" lon="11.08464"><ele>507.5</ele><time>2026-04-25T08:38:34.791Z</time></trkpt><trkpt lat="44.0208883" lon="11.0848017"><ele>507.0</ele><time>2026-04-25T08:38:35.799Z</time></trkpt><trkpt lat="44.0209083" lon="11.0849817"><ele>506.5</ele><time>2026-04-25T08:38:36.805Z</time></trkpt><trkpt lat="44.0209283" lon="11.0851583"><ele>506.0</ele><time>2026-04-25T08:38:37.812Z</time></trkpt><trkpt lat="44.0209517" lon="11.0853217"><ele>506.0</ele><time>2026-04-25T08:38:38.819Z</time></trkpt><trkpt lat="44.020975" lon="11.08547"><ele>506.0</ele><time>2026-04-25T08:38:39.825Z</time></trkpt><trkpt lat="44.0210083" lon="11.0856067"><ele>506.0</ele><time>2026-04-25T08:38:40.831Z</time></trkpt><trkpt lat="44.0210683" lon="11.0857283"><ele>506.0</ele><time>2026-04-25T08:38:41.839Z</time></trkpt><trkpt lat="44.0211483" lon="11.0858317"><ele>506.0</ele><time>2026-04-25T08:38:42.845Z</time></trkpt><trkpt lat="44.0212283" lon="11.0859233"><ele>502.6</ele><time>2026-04-25T08:38:43.852Z</time></trkpt><trkpt lat="44.0212967" lon="11.0860183"><ele>499.20000000000005</ele><time>2026-04-25T08:38:44.791Z</time></trkpt><trkpt lat="44.02134" lon="11.0861267"><ele>495.79999999999995</ele><time>2026-04-25T08:38:45.798Z</time></trkpt><trkpt lat="44.0213633" lon="11.0862433"><ele>492.4</ele><time>2026-04-25T08:38:46.805Z</time></trkpt><trkpt lat="44.02136" lon="11.0863667"><ele>489.0</ele><time>2026-04-25T08:38:47.811Z</time></trkpt><trkpt lat="44.02133" lon="11.0865"><ele>488.0</ele><time>2026-04-25T08:38:48.818Z</time></trkpt><trkpt lat="44.021265" lon="11.0866567"><ele>487.0</ele><time>2026-04-25T08:38:49.825Z</time></trkpt><trkpt lat="44.0212" lon="11.0868083"><ele>486.0</ele><time>2026-04-25T08:38:50.831Z</time></trkpt><trkpt lat="44.0211317" lon="11.0869517"><ele>485.0</ele><time>2026-04-25T08:38:51.837Z</time></trkpt><trkpt lat="44.0210583" lon="11.0870767"><ele>485.0</ele><time>2026-04-25T08:38:52.843Z</time></trkpt><trkpt lat="44.0209783" lon="11.087185"><ele>485.0</ele><time>2026-04-25T08:38:53.851Z</time></trkpt><trkpt lat="44.0209017" lon="11.087285"><ele>485.0</ele><time>2026-04-25T08:38:54.791Z</time></trkpt><trkpt lat="44.020835" lon="11.0873783"><ele>485.0</ele><time>2026-04-25T08:38:55.796Z</time></trkpt><trkpt lat="44.02078" lon="11.0874667"><ele>485.0</ele><time>2026-04-25T08:38:56.803Z</time></trkpt><trkpt lat="44.0207433" lon="11.0875483"><ele>485.49999999999994</ele><time>2026-04-25T08:38:57.811Z</time></trkpt><trkpt lat="44.02073" lon="11.087635"><ele>486.0</ele><time>2026-04-25T08:38:58.817Z</time></trkpt><trkpt lat="44.0207383" lon="11.0877283"><ele>486.5</ele><time>2026-04-25T08:38:59.824Z</time></trkpt><trkpt lat="44.0207717" lon="11.0878433"><ele>487.0</ele><time>2026-04-25T08:39:00.83Z</time></trkpt><trkpt lat="44.0208183" lon="11.087965"><ele>487.49999999999994</ele><time>2026-04-25T08:39:01.837Z</time></trkpt><trkpt lat="44.020855" lon="11.0880933"><ele>488.0</ele><time>2026-04-25T08:39:02.844Z</time></trkpt><trkpt lat="44.02088" lon="11.08823"><ele>486.79999999999995</ele><time>2026-04-25T08:39:03.85Z</time></trkpt><trkpt lat="44.0208783" lon="11.0883683"><ele>485.59999999999997</ele><time>2026-04-25T08:39:04.79Z</time></trkpt><trkpt lat="44.0208483" lon="11.0885017"><ele>484.40000000000003</ele><time>2026-04-25T08:39:05.795Z</time></trkpt><trkpt lat="44.02079" lon="11.0886133"><ele>483.20000000000005</ele><time>2026-04-25T08:39:06.803Z</time></trkpt><trkpt lat="44.0207283" lon="11.0887183"><ele>482.0</ele><time>2026-04-25T08:39:07.81Z</time></trkpt><trkpt lat="44.0206683" lon="11.0888383"><ele>473.25</ele><time>2026-04-25T08:39:08.816Z</time></trkpt><trkpt lat="44.020625" lon="11.0889783"><ele>464.5</ele><time>2026-04-25T08:39:09.823Z</time></trkpt><trkpt lat="44.0205917" lon="11.0891267"><ele>455.75</ele><time>2026-04-25T08:39:10.829Z</time></trkpt><trkpt lat="44.02055" lon="11.0892733"><ele>447.0</ele><time>2026-04-25T08:39:11.836Z</time></trkpt><trkpt lat="44.0204983" lon="11.08942"><ele>446.75</ele><time>2026-04-25T08:39:12.843Z</time></trkpt><trkpt lat="44.020445" lon="11.089555"><ele>446.5</ele><time>2026-04-25T08:39:13.85Z</time></trkpt><trkpt lat="44.0203967" lon="11.0896967"><ele>446.25</ele><time>2026-04-25T08:39:14.789Z</time></trkpt><trkpt lat="44.02036" lon="11.089845"><ele>446.0</ele><time>2026-04-25T08:39:15.796Z</time></trkpt><trkpt lat="44.0203367" lon="11.0900083"><ele>446.5</ele><time>2026-04-25T08:39:16.802Z</time></trkpt><trkpt lat="44.0203217" lon="11.0901767"><ele>447.0</ele><time>2026-04-25T08:39:17.809Z</time></trkpt><trkpt lat="44.0203233" lon="11.0903483"><ele>447.5</ele><time>2026-04-25T08:39:18.816Z</time></trkpt><trkpt lat="44.02034" lon="11.090515"><ele>448.0</ele><time>2026-04-25T08:39:19.822Z</time></trkpt><trkpt lat="44.0203667" lon="11.0906967"><ele>446.75</ele><time>2026-04-25T08:39:20.829Z</time></trkpt><trkpt lat="44.0203883" lon="11.0908767"><ele>445.5</ele><time>2026-04-25T08:39:21.835Z</time></trkpt><trkpt lat="44.020395" lon="11.0910733"><ele>444.25</ele><time>2026-04-25T08:39:22.842Z</time></trkpt><trkpt lat="44.0203933" lon="11.0912717"><ele>443.0</ele><time>2026-04-25T08:39:23.782Z</time></trkpt><trkpt lat="44.020385" lon="11.091455"><ele>440.79999999999995</ele><time>2026-04-25T08:39:24.788Z</time></trkpt><trkpt lat="44.0203833" lon="11.0916217"><ele>438.59999999999997</ele><time>2026-04-25T08:39:25.794Z</time></trkpt><trkpt lat="44.0203867" lon="11.0917733"><ele>436.40000000000003</ele><time>2026-04-25T08:39:26.802Z</time></trkpt><trkpt lat="44.0204067" lon="11.091905"><ele>434.20000000000005</ele><time>2026-04-25T08:39:27.807Z</time></trkpt><trkpt lat="44.020455" lon="11.0920317"><ele>432.0</ele><time>2026-04-25T08:39:28.814Z</time></trkpt><trkpt lat="44.0205117" lon="11.0921683"><ele>432.0</ele><time>2026-04-25T08:39:29.82Z</time></trkpt><trkpt lat="44.02056" lon="11.0923217"><ele>432.0</ele><time>2026-04-25T08:39:30.827Z</time></trkpt><trkpt lat="44.0206" lon="11.09249"><ele>432.0</ele><time>2026-04-25T08:39:31.835Z</time></trkpt><trkpt lat="44.0206367" lon="11.09266"><ele>432.0</ele><time>2026-04-25T08:39:32.841Z</time></trkpt><trkpt lat="44.0206767" lon="11.092835"><ele>432.25</ele><time>2026-04-25T08:39:33.78Z</time></trkpt><trkpt lat="44.020715" lon="11.0930083"><ele>432.5</ele><time>2026-04-25T08:39:34.787Z</time></trkpt><trkpt lat="44.02076" lon="11.0931783"><ele>432.75</ele><time>2026-04-25T08:39:35.793Z</time></trkpt><trkpt lat="44.0208217" lon="11.0933383"><ele>433.0</ele><time>2026-04-25T08:39:36.8Z</time></trkpt><trkpt lat="44.0209" lon="11.09349"><ele>433.0</ele><time>2026-04-25T08:39:37.806Z</time></trkpt><trkpt lat="44.0209867" lon="11.0936433"><ele>433.0</ele><time>2026-04-25T08:39:38.814Z</time></trkpt><trkpt lat="44.0210717" lon="11.0937883"><ele>433.0</ele><time>2026-04-25T08:39:39.82Z</time></trkpt><trkpt lat="44.02116" lon="11.0939217"><ele>433.0</ele><time>2026-04-25T08:39:40.827Z</time></trkpt><trkpt lat="44.021245" lon="11.094045"><ele>426.0</ele><time>2026-04-25T08:39:41.833Z</time></trkpt><trkpt lat="44.0213183" lon="11.0941817"><ele>419.0</ele><time>2026-04-25T08:39:42.841Z</time></trkpt><trkpt lat="44.0213733" lon="11.0943383"><ele>412.0</ele><time>2026-04-25T08:39:43.78Z</time></trkpt><trkpt lat="44.0214167" lon="11.094515"><ele>405.0</ele><time>2026-04-25T08:39:44.787Z</time></trkpt><trkpt lat="44.0214533" lon="11.094695"><ele>405.0</ele><time>2026-04-25T08:39:45.793Z</time></trkpt><trkpt lat="44.0214933" lon="11.0948767"><ele>405.0</ele><time>2026-04-25T08:39:46.8Z</time></trkpt><trkpt lat="44.0215367" lon="11.0950567"><ele>405.0</ele><time>2026-04-25T08:39:47.807Z</time></trkpt><trkpt lat="44.0215867" lon="11.095235"><ele>405.0</ele><time>2026-04-25T08:39:48.812Z</time></trkpt><trkpt lat="44.02165" lon="11.09541"><ele>404.0</ele><time>2026-04-25T08:39:49.82Z</time></trkpt><trkpt lat="44.021715" lon="11.0955767"><ele>403.0</ele><time>2026-04-25T08:39:50.827Z</time></trkpt><trkpt lat="44.0217617" lon="11.09574"><ele>402.0</ele><time>2026-04-25T08:39:51.833Z</time></trkpt><trkpt lat="44.0217983" lon="11.0958933"><ele>401.0</ele><time>2026-04-25T08:39:52.839Z</time></trkpt><trkpt lat="44.02181" lon="11.0960233"><ele>401.0</ele><time>2026-04-25T08:39:53.779Z</time></trkpt><trkpt lat="44.0218283" lon="11.09614"><ele>401.0</ele><time>2026-04-25T08:39:54.786Z</time></trkpt><trkpt lat="44.0218617" lon="11.0962483"><ele>401.0</ele><time>2026-04-25T08:39:55.792Z</time></trkpt><trkpt lat="44.0219083" lon="11.0963583"><ele>401.0</ele><time>2026-04-25T08:39:56.799Z</time></trkpt><trkpt lat="44.0219633" lon="11.09647"><ele>401.0</ele><time>2026-04-25T08:39:57.806Z</time></trkpt><trkpt lat="44.0220267" lon="11.096585"><ele>395.25</ele><time>2026-04-25T08:39:58.812Z</time></trkpt><trkpt lat="44.022095" lon="11.0967"><ele>389.5</ele><time>2026-04-25T08:39:59.819Z</time></trkpt><trkpt lat="44.02222" lon="11.0969067"><ele>383.75</ele><time>2026-04-25T08:40:01.832Z</time></trkpt><trkpt lat="44.0223017" lon="11.0969883"><ele>378.0</ele><time>2026-04-25T08:40:02.772Z</time></trkpt><trkpt lat="44.0224067" lon="11.0970483"><ele>378.25</ele><time>2026-04-25T08:40:03.779Z</time></trkpt><trkpt lat="44.022515" lon="11.0971167"><ele>378.5</ele><time>2026-04-25T08:40:04.784Z</time></trkpt><trkpt lat="44.0226233" lon="11.0972133"><ele>378.75</ele><time>2026-04-25T08:40:05.792Z</time></trkpt><trkpt lat="44.0227333" lon="11.09733"><ele>379.0</ele><time>2026-04-25T08:40:06.798Z</time></trkpt><trkpt lat="44.022845" lon="11.097435"><ele>379.0</ele><time>2026-04-25T08:40:07.804Z</time></trkpt><trkpt lat="44.0229533" lon="11.09754"><ele>379.0</ele><time>2026-04-25T08:40:08.811Z</time></trkpt><trkpt lat="44.023055" lon="11.0976417"><ele>379.0</ele><time>2026-04-25T08:40:09.818Z</time></trkpt><trkpt lat="44.0231467" lon="11.097745"><ele>379.0</ele><time>2026-04-25T08:40:10.824Z</time></trkpt><trkpt lat="44.02323" lon="11.0978517"><ele>379.0</ele><time>2026-04-25T08:40:11.832Z</time></trkpt><trkpt lat="44.0232967" lon="11.0979583"><ele>379.0</ele><time>2026-04-25T08:40:12.771Z</time></trkpt><trkpt lat="44.023355" lon="11.0980467"><ele>379.0</ele><time>2026-04-25T08:40:13.778Z</time></trkpt><trkpt lat="44.0234217" lon="11.0981083"><ele>379.0</ele><time>2026-04-25T08:40:14.784Z</time></trkpt><trkpt lat="44.0234983" lon="11.09813"><ele>379.0</ele><time>2026-04-25T08:40:15.791Z</time></trkpt><trkpt lat="44.0235783" lon="11.0981067"><ele>379.0</ele><time>2026-04-25T08:40:16.797Z</time></trkpt><trkpt lat="44.02366" lon="11.0980433"><ele>384.5</ele><time>2026-04-25T08:40:17.804Z</time></trkpt><trkpt lat="44.0237583" lon="11.0979533"><ele>390.0</ele><time>2026-04-25T08:40:18.811Z</time></trkpt><trkpt lat="44.0238517" lon="11.09788"><ele>395.5</ele><time>2026-04-25T08:40:19.818Z</time></trkpt><trkpt lat="44.0239483" lon="11.0977983"><ele>401.0</ele><time>2026-04-25T08:40:20.824Z</time></trkpt><trkpt lat="44.0240317" lon="11.0976933"><ele>401.0</ele><time>2026-04-25T08:40:21.831Z</time></trkpt><trkpt lat="44.0241033" lon="11.097575"><ele>401.0</ele><time>2026-04-25T08:40:22.77Z</time></trkpt><trkpt lat="44.0241667" lon="11.0974733"><ele>401.0</ele><time>2026-04-25T08:40:23.777Z</time></trkpt><trkpt lat="44.0242267" lon="11.0973867"><ele>401.0</ele><time>2026-04-25T08:40:24.784Z</time></trkpt><trkpt lat="44.0242883" lon="11.0973167"><ele>401.0</ele><time>2026-04-25T08:40:25.79Z</time></trkpt><trkpt lat="44.0243533" lon="11.097255"><ele>399.16666666666663</ele><time>2026-04-25T08:40:26.864Z</time></trkpt><trkpt lat="44.0244167" lon="11.0972083"><ele>397.3333333333333</ele><time>2026-04-25T08:40:27.803Z</time></trkpt><trkpt lat="44.024465" lon="11.0972783"><ele>395.5</ele><time>2026-04-25T08:40:28.81Z</time></trkpt><trkpt lat="44.0245083" lon="11.097345"><ele>393.66666666666663</ele><time>2026-04-25T08:40:29.817Z</time></trkpt><trkpt lat="44.0245167" lon="11.0974383"><ele>391.8333333333333</ele><time>2026-04-25T08:40:30.822Z</time></trkpt><trkpt lat="44.0244933" lon="11.0975767"><ele>390.0</ele><time>2026-04-25T08:40:31.83Z</time></trkpt><trkpt lat="44.0244717" lon="11.09771"><ele>390.0</ele><time>2026-04-25T08:40:32.769Z</time></trkpt><trkpt lat="44.024455" lon="11.0978567"><ele>390.0</ele><time>2026-04-25T08:40:33.776Z</time></trkpt><trkpt lat="44.02443" lon="11.097995"><ele>390.0</ele><time>2026-04-25T08:40:34.783Z</time></trkpt><trkpt lat="44.0243817" lon="11.09812"><ele>390.0</ele><time>2026-04-25T08:40:35.857Z</time></trkpt><trkpt lat="44.02432" lon="11.0982417"><ele>390.0</ele><time>2026-04-25T08:40:36.863Z</time></trkpt><trkpt lat="44.0242583" lon="11.0983517"><ele>387.8</ele><time>2026-04-25T08:40:37.803Z</time></trkpt><trkpt lat="44.02421" lon="11.0984733"><ele>385.6</ele><time>2026-04-25T08:40:38.809Z</time></trkpt><trkpt lat="44.0241817" lon="11.09861"><ele>383.4</ele><time>2026-04-25T08:40:39.816Z</time></trkpt><trkpt lat="44.024165" lon="11.0987617"><ele>381.2</ele><time>2026-04-25T08:40:40.823Z</time></trkpt><trkpt lat="44.02414" lon="11.098905"><ele>379.0</ele><time>2026-04-25T08:40:41.829Z</time></trkpt><trkpt lat="44.024105" lon="11.0990283"><ele>379.0</ele><time>2026-04-25T08:40:42.769Z</time></trkpt><trkpt lat="44.0240783" lon="11.0991467"><ele>379.0</ele><time>2026-04-25T08:40:43.843Z</time></trkpt><trkpt lat="44.02407" lon="11.0992683"><ele>379.0</ele><time>2026-04-25T08:40:44.849Z</time></trkpt><trkpt lat="44.0240817" lon="11.099395"><ele>379.0</ele><time>2026-04-25T08:40:45.856Z</time></trkpt><trkpt lat="44.024125" lon="11.0995267"><ele>379.0</ele><time>2026-04-25T08:40:46.795Z</time></trkpt><trkpt lat="44.0241833" lon="11.0996667"><ele>379.0</ele><time>2026-04-25T08:40:47.802Z</time></trkpt><trkpt lat="44.0242417" lon="11.0998067"><ele>379.0</ele><time>2026-04-25T08:40:48.809Z</time></trkpt><trkpt lat="44.0242967" lon="11.0999483"><ele>379.0</ele><time>2026-04-25T08:40:49.815Z</time></trkpt><trkpt lat="44.0243467" lon="11.1000967"><ele>379.0</ele><time>2026-04-25T08:40:50.822Z</time></trkpt><trkpt lat="44.024385" lon="11.1002533"><ele>377.75</ele><time>2026-04-25T08:40:51.828Z</time></trkpt><trkpt lat="44.0244117" lon="11.10042"><ele>376.5</ele><time>2026-04-25T08:40:52.835Z</time></trkpt><trkpt lat="44.02444" lon="11.1005917"><ele>375.25</ele><time>2026-04-25T08:40:53.841Z</time></trkpt><trkpt lat="44.024475" lon="11.1007617"><ele>374.0</ele><time>2026-04-25T08:40:54.847Z</time></trkpt><trkpt lat="44.0245117" lon="11.1009267"><ele>371.75</ele><time>2026-04-25T08:40:55.855Z</time></trkpt><trkpt lat="44.0245433" lon="11.1010867"><ele>369.5</ele><time>2026-04-25T08:40:56.795Z</time></trkpt><trkpt lat="44.0245733" lon="11.101245"><ele>367.25</ele><time>2026-04-25T08:40:57.801Z</time></trkpt><trkpt lat="44.0246083" lon="11.1014"><ele>365.0</ele><time>2026-04-25T08:40:58.807Z</time></trkpt><trkpt lat="44.0246583" lon="11.1015417"><ele>363.8</ele><time>2026-04-25T08:40:59.814Z</time></trkpt><trkpt lat="44.024725" lon="11.10166"><ele>362.6</ele><time>2026-04-25T08:41:00.821Z</time></trkpt><trkpt lat="44.0248083" lon="11.1017533"><ele>361.4</ele><time>2026-04-25T08:41:01.827Z</time></trkpt><trkpt lat="44.0249" lon="11.1018167"><ele>360.2</ele><time>2026-04-25T08:41:02.833Z</time></trkpt><trkpt lat="44.024995" lon="11.1018467"><ele>359.0</ele><time>2026-04-25T08:41:03.841Z</time></trkpt><trkpt lat="44.02509" lon="11.1018383"><ele>363.0</ele><time>2026-04-25T08:41:04.847Z</time></trkpt><trkpt lat="44.025175" lon="11.1018183"><ele>367.0</ele><time>2026-04-25T08:41:05.854Z</time></trkpt><trkpt lat="44.02525" lon="11.1018217"><ele>371.0</ele><time>2026-04-25T08:41:06.794Z</time></trkpt><trkpt lat="44.0253117" lon="11.10186"><ele>375.0</ele><time>2026-04-25T08:41:07.799Z</time></trkpt><trkpt lat="44.0253583" lon="11.1019233"><ele>379.0</ele><time>2026-04-25T08:41:08.807Z</time></trkpt><trkpt lat="44.0253717" lon="11.10204"><ele>383.0</ele><time>2026-04-25T08:41:09.813Z</time></trkpt><trkpt lat="44.0253983" lon="11.1021633"><ele>383.0</ele><time>2026-04-25T08:41:10.82Z</time></trkpt><trkpt lat="44.025445" lon="11.1023117"><ele>383.0</ele><time>2026-04-25T08:41:11.827Z</time></trkpt><trkpt lat="44.0255167" lon="11.102445"><ele>383.0</ele><time>2026-04-25T08:41:12.834Z</time></trkpt><trkpt lat="44.0256117" lon="11.1025517"><ele>383.0</ele><time>2026-04-25T08:41:13.84Z</time></trkpt><trkpt lat="44.0257283" lon="11.102635"><ele>386.0</ele><time>2026-04-25T08:41:14.847Z</time></trkpt><trkpt lat="44.025855" lon="11.1027"><ele>389.0</ele><time>2026-04-25T08:41:15.853Z</time></trkpt><trkpt lat="44.0259817" lon="11.1027633"><ele>392.0</ele><time>2026-04-25T08:41:16.793Z</time></trkpt><trkpt lat="44.026095" lon="11.10283"><ele>395.0</ele><time>2026-04-25T08:41:17.8Z</time></trkpt><trkpt lat="44.0261917" lon="11.102905"><ele>395.0</ele><time>2026-04-25T08:41:18.806Z</time></trkpt><trkpt lat="44.0262817" lon="11.1029867"><ele>395.0</ele><time>2026-04-25T08:41:19.812Z</time></trkpt><trkpt lat="44.0263733" lon="11.10308"><ele>395.0</ele><time>2026-04-25T08:41:20.819Z</time></trkpt><trkpt lat="44.0264617" lon="11.1031933"><ele>395.0</ele><time>2026-04-25T08:41:21.826Z</time></trkpt><trkpt lat="44.02654" lon="11.1033217"><ele>394.0</ele><time>2026-04-25T08:41:22.833Z</time></trkpt><trkpt lat="44.0266183" lon="11.1034567"><ele>393.0</ele><time>2026-04-25T08:41:23.839Z</time></trkpt><trkpt lat="44.026695" lon="11.1035883"><ele>392.0</ele><time>2026-04-25T08:41:24.846Z</time></trkpt><trkpt lat="44.0267633" lon="11.103715"><ele>391.0</ele><time>2026-04-25T08:41:25.853Z</time></trkpt><trkpt lat="44.0268217" lon="11.10385"><ele>391.0</ele><time>2026-04-25T08:41:26.792Z</time></trkpt><trkpt lat="44.0268633" lon="11.104"><ele>391.0</ele><time>2026-04-25T08:41:27.799Z</time></trkpt><trkpt lat="44.0268933" lon="11.1041667"><ele>391.0</ele><time>2026-04-25T08:41:28.805Z</time></trkpt><trkpt lat="44.0269133" lon="11.1043417"><ele>391.0</ele><time>2026-04-25T08:41:29.812Z</time></trkpt><trkpt lat="44.0269217" lon="11.1045117"><ele>389.6</ele><time>2026-04-25T08:41:30.819Z</time></trkpt><trkpt lat="44.02693" lon="11.104685"><ele>388.20000000000005</ele><time>2026-04-25T08:41:31.825Z</time></trkpt><trkpt lat="44.0269383" lon="11.1048417"><ele>386.79999999999995</ele><time>2026-04-25T08:41:32.832Z</time></trkpt><trkpt lat="44.0269433" lon="11.1049833"><ele>385.4</ele><time>2026-04-25T08:41:33.838Z</time></trkpt><trkpt lat="44.0269433" lon="11.10512"><ele>384.0</ele><time>2026-04-25T08:41:34.845Z</time></trkpt><trkpt lat="44.0269483" lon="11.105245"><ele>384.0</ele><time>2026-04-25T08:41:35.784Z</time></trkpt><trkpt lat="44.0269617" lon="11.1053683"><ele>384.0</ele><time>2026-04-25T08:41:36.791Z</time></trkpt><trkpt lat="44.0269933" lon="11.105495"><ele>384.0</ele><time>2026-04-25T08:41:37.798Z</time></trkpt><trkpt lat="44.0270433" lon="11.10562"><ele>384.0</ele><time>2026-04-25T08:41:38.804Z</time></trkpt><trkpt lat="44.0271083" lon="11.1057467"><ele>384.0</ele><time>2026-04-25T08:41:39.811Z</time></trkpt><trkpt lat="44.0271833" lon="11.1058683"><ele>384.0</ele><time>2026-04-25T08:41:40.817Z</time></trkpt><trkpt lat="44.0272617" lon="11.1059783"><ele>384.0</ele><time>2026-04-25T08:41:41.825Z</time></trkpt><trkpt lat="44.02734" lon="11.1060767"><ele>384.0</ele><time>2026-04-25T08:41:42.831Z</time></trkpt><trkpt lat="44.027405" lon="11.1061567"><ele>384.0</ele><time>2026-04-25T08:41:43.838Z</time></trkpt><trkpt lat="44.0274667" lon="11.1062367"><ele>384.0</ele><time>2026-04-25T08:41:44.844Z</time></trkpt><trkpt lat="44.02753" lon="11.1063133"><ele>385.2</ele><time>2026-04-25T08:41:45.784Z</time></trkpt><trkpt lat="44.0276" lon="11.1063933"><ele>386.4</ele><time>2026-04-25T08:41:46.79Z</time></trkpt><trkpt lat="44.0276767" lon="11.10648"><ele>387.6</ele><time>2026-04-25T08:41:47.797Z</time></trkpt><trkpt lat="44.0277533" lon="11.1065767"><ele>388.8</ele><time>2026-04-25T08:41:48.804Z</time></trkpt><trkpt lat="44.027825" lon="11.1066917"><ele>390.0</ele><time>2026-04-25T08:41:49.811Z</time></trkpt><trkpt lat="44.0278933" lon="11.1068083"><ele>390.0</ele><time>2026-04-25T08:41:50.817Z</time></trkpt><trkpt lat="44.0279567" lon="11.1069233"><ele>390.0</ele><time>2026-04-25T08:41:51.824Z</time></trkpt><trkpt lat="44.0280167" lon="11.1070317"><ele>390.0</ele><time>2026-04-25T08:41:52.829Z</time></trkpt><trkpt lat="44.0280733" lon="11.1071367"><ele>390.0</ele><time>2026-04-25T08:41:53.837Z</time></trkpt><trkpt lat="44.028125" lon="11.1072317"><ele>390.0</ele><time>2026-04-25T08:41:54.844Z</time></trkpt><trkpt lat="44.028175" lon="11.1073117"><ele>390.0</ele><time>2026-04-25T08:41:55.783Z</time></trkpt><trkpt lat="44.0282183" lon="11.10738"><ele>390.0</ele><time>2026-04-25T08:41:56.789Z</time></trkpt><trkpt lat="44.0282867" lon="11.1075083"><ele>390.0</ele><time>2026-04-25T08:41:58.803Z</time></trkpt><trkpt lat="44.0283533" lon="11.107665"><ele>390.0</ele><time>2026-04-25T08:42:00.816Z</time></trkpt><trkpt lat="44.0283867" lon="11.1077667"><ele>390.0</ele><time>2026-04-25T08:42:01.823Z</time></trkpt><trkpt lat="44.0284233" lon="11.10787"><ele>393.2</ele><time>2026-04-25T08:42:02.83Z</time></trkpt><trkpt lat="44.0284567" lon="11.1079783"><ele>396.4</ele><time>2026-04-25T08:42:03.836Z</time></trkpt><trkpt lat="44.02849" lon="11.1080933"><ele>399.6</ele><time>2026-04-25T08:42:04.843Z</time></trkpt><trkpt lat="44.0285217" lon="11.1082233"><ele>402.8</ele><time>2026-04-25T08:42:05.782Z</time></trkpt><trkpt lat="44.0285483" lon="11.1083683"><ele>406.0</ele><time>2026-04-25T08:42:06.789Z</time></trkpt><trkpt lat="44.0285667" lon="11.1085267"><ele>407.0</ele><time>2026-04-25T08:42:07.796Z</time></trkpt><trkpt lat="44.0285817" lon="11.1086883"><ele>408.0</ele><time>2026-04-25T08:42:08.801Z</time></trkpt><trkpt lat="44.0285983" lon="11.108855"><ele>409.0</ele><time>2026-04-25T08:42:09.809Z</time></trkpt><trkpt lat="44.0286233" lon="11.1090217"><ele>410.0</ele><time>2026-04-25T08:42:10.816Z</time></trkpt><trkpt lat="44.02866" lon="11.1091783"><ele>410.0</ele><time>2026-04-25T08:42:11.822Z</time></trkpt><trkpt lat="44.0287017" lon="11.1093317"><ele>410.0</ele><time>2026-04-25T08:42:12.829Z</time></trkpt><trkpt lat="44.028735" lon="11.1094783"><ele>410.0</ele><time>2026-04-25T08:42:13.836Z</time></trkpt><trkpt lat="44.028755" lon="11.1096433"><ele>410.0</ele><time>2026-04-25T08:42:14.775Z</time></trkpt><trkpt lat="44.0287683" lon="11.109815"><ele>407.0</ele><time>2026-04-25T08:42:15.782Z</time></trkpt><trkpt lat="44.0287733" lon="11.109995"><ele>404.0</ele><time>2026-04-25T08:42:16.787Z</time></trkpt><trkpt lat="44.0287883" lon="11.11018"><ele>401.0</ele><time>2026-04-25T08:42:17.795Z</time></trkpt><trkpt lat="44.0288283" lon="11.1103767"><ele>398.0</ele><time>2026-04-25T08:42:18.802Z</time></trkpt><trkpt lat="44.0288717" lon="11.1105717"><ele>395.5</ele><time>2026-04-25T08:42:19.808Z</time></trkpt><trkpt lat="44.0289117" lon="11.1107633"><ele>393.0</ele><time>2026-04-25T08:42:20.815Z</time></trkpt><trkpt lat="44.0289667" lon="11.1109317"><ele>390.5</ele><time>2026-04-25T08:42:21.821Z</time></trkpt><trkpt lat="44.0290233" lon="11.1110817"><ele>388.0</ele><time>2026-04-25T08:42:22.827Z</time></trkpt><trkpt lat="44.0290683" lon="11.1112217"><ele>388.0</ele><time>2026-04-25T08:42:23.835Z</time></trkpt><trkpt lat="44.0290967" lon="11.1113483"><ele>388.0</ele><time>2026-04-25T08:42:24.773Z</time></trkpt><trkpt lat="44.0291033" lon="11.1114617"><ele>388.0</ele><time>2026-04-25T08:42:25.781Z</time></trkpt><trkpt lat="44.0290933" lon="11.1115817"><ele>388.0</ele><time>2026-04-25T08:42:26.788Z</time></trkpt><trkpt lat="44.0290567" lon="11.1117017"><ele>388.0</ele><time>2026-04-25T08:42:27.793Z</time></trkpt><trkpt lat="44.028995" lon="11.111815"><ele>387.59999999999997</ele><time>2026-04-25T08:42:28.801Z</time></trkpt><trkpt lat="44.0288983" lon="11.1118933"><ele>387.2</ele><time>2026-04-25T08:42:29.807Z</time></trkpt><trkpt lat="44.028805" lon="11.111955"><ele>386.8</ele><time>2026-04-25T08:42:30.814Z</time></trkpt><trkpt lat="44.0287117" lon="11.1120167"><ele>386.4</ele><time>2026-04-25T08:42:31.821Z</time></trkpt><trkpt lat="44.0286317" lon="11.1121117"><ele>386.0</ele><time>2026-04-25T08:42:32.827Z</time></trkpt><trkpt lat="44.0285767" lon="11.11223"><ele>386.0</ele><time>2026-04-25T08:42:33.834Z</time></trkpt><trkpt lat="44.02856" lon="11.112385"><ele>386.0</ele><time>2026-04-25T08:42:34.773Z</time></trkpt><trkpt lat="44.0285667" lon="11.112565"><ele>386.0</ele><time>2026-04-25T08:42:35.78Z</time></trkpt><trkpt lat="44.02858" lon="11.1127383"><ele>386.0</ele><time>2026-04-25T08:42:36.786Z</time></trkpt><trkpt lat="44.0286017" lon="11.1129067"><ele>386.0</ele><time>2026-04-25T08:42:37.793Z</time></trkpt><trkpt lat="44.0286183" lon="11.113055"><ele>386.0</ele><time>2026-04-25T08:42:38.8Z</time></trkpt><trkpt lat="44.0286183" lon="11.1132033"><ele>386.0</ele><time>2026-04-25T08:42:39.807Z</time></trkpt><trkpt lat="44.0285933" lon="11.1133517"><ele>386.0</ele><time>2026-04-25T08:42:40.813Z</time></trkpt><trkpt lat="44.028545" lon="11.113505"><ele>386.0</ele><time>2026-04-25T08:42:41.82Z</time></trkpt><trkpt lat="44.02849" lon="11.1136667"><ele>385.0</ele><time>2026-04-25T08:42:42.826Z</time></trkpt><trkpt lat="44.028455" lon="11.1138367"><ele>384.0</ele><time>2026-04-25T08:42:43.832Z</time></trkpt><trkpt lat="44.028435" lon="11.11401"><ele>383.0</ele><time>2026-04-25T08:42:44.773Z</time></trkpt><trkpt lat="44.0284333" lon="11.11418"><ele>382.0</ele><time>2026-04-25T08:42:45.778Z</time></trkpt><trkpt lat="44.0284433" lon="11.114335"><ele>381.40000000000003</ele><time>2026-04-25T08:42:46.786Z</time></trkpt><trkpt lat="44.028445" lon="11.1144667"><ele>380.8</ele><time>2026-04-25T08:42:47.793Z</time></trkpt><trkpt lat="44.0284333" lon="11.1145917"><ele>380.2</ele><time>2026-04-25T08:42:48.799Z</time></trkpt><trkpt lat="44.0283933" lon="11.11472"><ele>379.6</ele><time>2026-04-25T08:42:49.806Z</time></trkpt><trkpt lat="44.02832" lon="11.114835"><ele>379.0</ele><time>2026-04-25T08:42:50.813Z</time></trkpt><trkpt lat="44.0282333" lon="11.1149417"><ele>379.0</ele><time>2026-04-25T08:42:51.818Z</time></trkpt><trkpt lat="44.02813" lon="11.1150483"><ele>379.0</ele><time>2026-04-25T08:42:52.826Z</time></trkpt><trkpt lat="44.0280433" lon="11.115155"><ele>379.0</ele><time>2026-04-25T08:42:53.832Z</time></trkpt><trkpt lat="44.027975" lon="11.115275"><ele>379.0</ele><time>2026-04-25T08:42:54.772Z</time></trkpt><trkpt lat="44.02793" lon="11.115415"><ele>379.0</ele><time>2026-04-25T08:42:55.779Z</time></trkpt><trkpt lat="44.027905" lon="11.1155783"><ele>379.0</ele><time>2026-04-25T08:42:56.784Z</time></trkpt><trkpt lat="44.02789" lon="11.11576"><ele>379.0</ele><time>2026-04-25T08:42:57.858Z</time></trkpt><trkpt lat="44.027875" lon="11.115935"><ele>379.0</ele><time>2026-04-25T08:42:58.798Z</time></trkpt><trkpt lat="44.027855" lon="11.1161067"><ele>377.5</ele><time>2026-04-25T08:42:59.805Z</time></trkpt><trkpt lat="44.02782" lon="11.1162733"><ele>376.0</ele><time>2026-04-25T08:43:00.811Z</time></trkpt><trkpt lat="44.0277717" lon="11.11644"><ele>374.5</ele><time>2026-04-25T08:43:01.818Z</time></trkpt><trkpt lat="44.0277067" lon="11.1165983"><ele>373.0</ele><time>2026-04-25T08:43:02.825Z</time></trkpt><trkpt lat="44.0276417" lon="11.11675"><ele>369.25</ele><time>2026-04-25T08:43:03.765Z</time></trkpt><trkpt lat="44.0275817" lon="11.1168917"><ele>365.5</ele><time>2026-04-25T08:43:04.771Z</time></trkpt><trkpt lat="44.0275117" lon="11.117015"><ele>361.75</ele><time>2026-04-25T08:43:05.778Z</time></trkpt><trkpt lat="44.027425" lon="11.1171183"><ele>358.0</ele><time>2026-04-25T08:43:06.852Z</time></trkpt><trkpt lat="44.0273183" lon="11.1171883"><ele>356.75</ele><time>2026-04-25T08:43:07.858Z</time></trkpt><trkpt lat="44.0271983" lon="11.1172433"><ele>355.5</ele><time>2026-04-25T08:43:08.798Z</time></trkpt><trkpt lat="44.02707" lon="11.1172983"><ele>354.25</ele><time>2026-04-25T08:43:09.804Z</time></trkpt><trkpt lat="44.0269433" lon="11.1173833"><ele>353.0</ele><time>2026-04-25T08:43:10.81Z</time></trkpt><trkpt lat="44.0268217" lon="11.1175"><ele>351.0</ele><time>2026-04-25T08:43:11.818Z</time></trkpt><trkpt lat="44.0267067" lon="11.1176033"><ele>349.0</ele><time>2026-04-25T08:43:12.824Z</time></trkpt><trkpt lat="44.0266" lon="11.1176883"><ele>347.0</ele><time>2026-04-25T08:43:13.764Z</time></trkpt><trkpt lat="44.0264967" lon="11.1177683"><ele>345.0</ele><time>2026-04-25T08:43:14.837Z</time></trkpt><trkpt lat="44.026395" lon="11.117845"><ele>343.8</ele><time>2026-04-25T08:43:15.844Z</time></trkpt><trkpt lat="44.0262983" lon="11.1179167"><ele>342.6</ele><time>2026-04-25T08:43:16.851Z</time></trkpt><trkpt lat="44.02621" lon="11.1179767"><ele>341.4</ele><time>2026-04-25T08:43:17.857Z</time></trkpt><trkpt lat="44.0261167" lon="11.118005"><ele>340.2</ele><time>2026-04-25T08:43:18.797Z</time></trkpt><trkpt lat="44.026025" lon="11.1180067"><ele>339.0</ele><time>2026-04-25T08:43:19.804Z</time></trkpt><trkpt lat="44.0259333" lon="11.1179633"><ele>339.0</ele><time>2026-04-25T08:43:20.81Z</time></trkpt><trkpt lat="44.025825" lon="11.1179133"><ele>339.0</ele><time>2026-04-25T08:43:21.816Z</time></trkpt><trkpt lat="44.0257167" lon="11.11789"><ele>339.0</ele><time>2026-04-25T08:43:22.823Z</time></trkpt><trkpt lat="44.0256117" lon="11.1179183"><ele>339.0</ele><time>2026-04-25T08:43:23.829Z</time></trkpt><trkpt lat="44.02551" lon="11.1179917"><ele>339.0</ele><time>2026-04-25T08:43:24.837Z</time></trkpt><trkpt lat="44.02541" lon="11.118065"><ele>336.6</ele><time>2026-04-25T08:43:25.843Z</time></trkpt><trkpt lat="44.0253083" lon="11.1181167"><ele>334.2</ele><time>2026-04-25T08:43:26.85Z</time></trkpt><trkpt lat="44.02521" lon="11.118145"><ele>331.8</ele><time>2026-04-25T08:43:27.857Z</time></trkpt><trkpt lat="44.0251067" lon="11.1181567"><ele>329.40000000000003</ele><time>2026-04-25T08:43:28.796Z</time></trkpt><trkpt lat="44.025005" lon="11.1181433"><ele>327.0</ele><time>2026-04-25T08:43:29.803Z</time></trkpt><trkpt lat="44.024915" lon="11.1181033"><ele>324.20000000000005</ele><time>2026-04-25T08:43:30.809Z</time></trkpt><trkpt lat="44.0248417" lon="11.11804"><ele>321.40000000000003</ele><time>2026-04-25T08:43:31.815Z</time></trkpt><trkpt lat="44.0247817" lon="11.1179767"><ele>318.6</ele><time>2026-04-25T08:43:32.823Z</time></trkpt><trkpt lat="44.0247267" lon="11.1179317"><ele>315.8</ele><time>2026-04-25T08:43:33.829Z</time></trkpt><trkpt lat="44.0246317" lon="11.11797"><ele>313.0</ele><time>2026-04-25T08:43:35.842Z</time></trkpt><trkpt lat="44.024705" lon="11.1181783"><ele>312.75</ele><time>2026-04-25T08:43:37.856Z</time></trkpt><trkpt lat="44.0247817" lon="11.1182833"><ele>312.5</ele><time>2026-04-25T08:43:38.795Z</time></trkpt><trkpt lat="44.0248983" lon="11.1183583"><ele>312.25</ele><time>2026-04-25T08:43:39.802Z</time></trkpt><trkpt lat="44.025035" lon="11.11839"><ele>312.0</ele><time>2026-04-25T08:43:40.809Z</time></trkpt><trkpt lat="44.02518" lon="11.1183983"><ele>316.6666666666667</ele><time>2026-04-25T08:43:41.814Z</time></trkpt><trkpt lat="44.025335" lon="11.1183983"><ele>321.33333333333337</ele><time>2026-04-25T08:43:42.822Z</time></trkpt><trkpt lat="44.0254917" lon="11.118415"><ele>326.0</ele><time>2026-04-25T08:43:43.828Z</time></trkpt><trkpt lat="44.025645" lon="11.11845"><ele>326.0</ele><time>2026-04-25T08:43:44.835Z</time></trkpt><trkpt lat="44.0257933" lon="11.1184983"><ele>326.0</ele><time>2026-04-25T08:43:45.841Z</time></trkpt><trkpt lat="44.025945" lon="11.118535"><ele>326.0</ele><time>2026-04-25T08:43:46.848Z</time></trkpt><trkpt lat="44.0260983" lon="11.118555"><ele>325.75</ele><time>2026-04-25T08:43:47.788Z</time></trkpt><trkpt lat="44.0262433" lon="11.11857"><ele>325.5</ele><time>2026-04-25T08:43:48.795Z</time></trkpt><trkpt lat="44.0263867" lon="11.11859"><ele>325.25</ele><time>2026-04-25T08:43:49.8Z</time></trkpt><trkpt lat="44.026535" lon="11.11863"><ele>325.0</ele><time>2026-04-25T08:43:50.808Z</time></trkpt><trkpt lat="44.0266883" lon="11.1186883"><ele>324.3333333333333</ele><time>2026-04-25T08:43:51.813Z</time></trkpt><trkpt lat="44.0268433" lon="11.118745"><ele>323.6666666666667</ele><time>2026-04-25T08:43:52.821Z</time></trkpt><trkpt lat="44.0269933" lon="11.1187933"><ele>323.0</ele><time>2026-04-25T08:43:53.828Z</time></trkpt><trkpt lat="44.02714" lon="11.1188367"><ele>323.0</ele><time>2026-04-25T08:43:54.834Z</time></trkpt><trkpt lat="44.0272783" lon="11.1188883"><ele>323.0</ele><time>2026-04-25T08:43:55.841Z</time></trkpt><trkpt lat="44.027415" lon="11.1189433"><ele>323.0</ele><time>2026-04-25T08:43:56.848Z</time></trkpt><trkpt lat="44.0275567" lon="11.1189967"><ele>323.0</ele><time>2026-04-25T08:43:57.787Z</time></trkpt><trkpt lat="44.02769" lon="11.1190667"><ele>317.5</ele><time>2026-04-25T08:43:58.794Z</time></trkpt><trkpt lat="44.0278117" lon="11.1191467"><ele>312.0</ele><time>2026-04-25T08:43:59.8Z</time></trkpt><trkpt lat="44.0279183" lon="11.119235"><ele>306.5</ele><time>2026-04-25T08:44:00.807Z</time></trkpt><trkpt lat="44.0280133" lon="11.1193183"><ele>301.0</ele><time>2026-04-25T08:44:01.814Z</time></trkpt><trkpt lat="44.0281" lon="11.1193917"><ele>301.0</ele><time>2026-04-25T08:44:02.82Z</time></trkpt><trkpt lat="44.02818" lon="11.1194383"><ele>301.0</ele><time>2026-04-25T08:44:03.826Z</time></trkpt><trkpt lat="44.028255" lon="11.11946"><ele>301.0</ele><time>2026-04-25T08:44:04.834Z</time></trkpt><trkpt lat="44.02833" lon="11.1194517"><ele>301.0</ele><time>2026-04-25T08:44:05.84Z</time></trkpt><trkpt lat="44.0284183" lon="11.1194167"><ele>301.0</ele><time>2026-04-25T08:44:06.846Z</time></trkpt><trkpt lat="44.0285167" lon="11.1194067"><ele>301.0</ele><time>2026-04-25T08:44:07.786Z</time></trkpt><trkpt lat="44.0286217" lon="11.11944"><ele>300.25</ele><time>2026-04-25T08:44:08.793Z</time></trkpt><trkpt lat="44.0287217" lon="11.11952"><ele>299.5</ele><time>2026-04-25T08:44:09.8Z</time></trkpt><trkpt lat="44.0288267" lon="11.1196233"><ele>298.75</ele><time>2026-04-25T08:44:10.806Z</time></trkpt><trkpt lat="44.02892" lon="11.11975"><ele>298.0</ele><time>2026-04-25T08:44:11.813Z</time></trkpt><trkpt lat="44.028995" lon="11.1198967"><ele>298.5</ele><time>2026-04-25T08:44:12.819Z</time></trkpt><trkpt lat="44.02905" lon="11.1200517"><ele>299.0</ele><time>2026-04-25T08:44:13.825Z</time></trkpt><trkpt lat="44.0291017" lon="11.1202083"><ele>299.5</ele><time>2026-04-25T08:44:14.833Z</time></trkpt><trkpt lat="44.0291617" lon="11.1203583"><ele>300.0</ele><time>2026-04-25T08:44:15.839Z</time></trkpt><trkpt lat="44.0292383" lon="11.1205033"><ele>300.0</ele><time>2026-04-25T08:44:16.846Z</time></trkpt><trkpt lat="44.029325" lon="11.120635"><ele>300.0</ele><time>2026-04-25T08:44:17.786Z</time></trkpt><trkpt lat="44.02941" lon="11.12075"><ele>300.0</ele><time>2026-04-25T08:44:18.791Z</time></trkpt><trkpt lat="44.0294867" lon="11.1208567"><ele>300.0</ele><time>2026-04-25T08:44:19.798Z</time></trkpt><trkpt lat="44.029555" lon="11.1209417"><ele>300.0</ele><time>2026-04-25T08:44:20.805Z</time></trkpt><trkpt lat="44.02963" lon="11.1209867"><ele>300.0</ele><time>2026-04-25T08:44:21.812Z</time></trkpt><trkpt lat="44.0297067" lon="11.121"><ele>300.0</ele><time>2026-04-25T08:44:22.819Z</time></trkpt><trkpt lat="44.0297767" lon="11.120985"><ele>300.0</ele><time>2026-04-25T08:44:23.824Z</time></trkpt><trkpt lat="44.0298333" lon="11.12093"><ele>300.0</ele><time>2026-04-25T08:44:24.831Z</time></trkpt><trkpt lat="44.0298667" lon="11.1208033"><ele>300.0</ele><time>2026-04-25T08:44:25.838Z</time></trkpt><trkpt lat="44.0299233" lon="11.1206633"><ele>300.0</ele><time>2026-04-25T08:44:26.778Z</time></trkpt><trkpt lat="44.0299867" lon="11.12054"><ele>301.1666666666667</ele><time>2026-04-25T08:44:27.785Z</time></trkpt><trkpt lat="44.0300567" lon="11.1204583"><ele>302.3333333333333</ele><time>2026-04-25T08:44:28.791Z</time></trkpt><trkpt lat="44.0301283" lon="11.1203883"><ele>303.5</ele><time>2026-04-25T08:44:29.798Z</time></trkpt><trkpt lat="44.0302" lon="11.1203467"><ele>304.66666666666663</ele><time>2026-04-25T08:44:30.805Z</time></trkpt><trkpt lat="44.03028" lon="11.12032"><ele>305.8333333333333</ele><time>2026-04-25T08:44:31.81Z</time></trkpt><trkpt lat="44.0303717" lon="11.1203333"><ele>307.0</ele><time>2026-04-25T08:44:32.818Z</time></trkpt><trkpt lat="44.03045" lon="11.120385"><ele>307.0</ele><time>2026-04-25T08:44:33.825Z</time></trkpt><trkpt lat="44.030535" lon="11.1204733"><ele>307.0</ele><time>2026-04-25T08:44:34.83Z</time></trkpt><trkpt lat="44.0306283" lon="11.1205683"><ele>307.0</ele><time>2026-04-25T08:44:35.838Z</time></trkpt><trkpt lat="44.0307233" lon="11.120665"><ele>307.0</ele><time>2026-04-25T08:44:36.777Z</time></trkpt><trkpt lat="44.0308117" lon="11.1207733"><ele>306.6</ele><time>2026-04-25T08:44:37.783Z</time></trkpt><trkpt lat="44.030895" lon="11.1208733"><ele>306.2</ele><time>2026-04-25T08:44:38.79Z</time></trkpt><trkpt lat="44.0309733" lon="11.1209783"><ele>305.8</ele><time>2026-04-25T08:44:39.796Z</time></trkpt><trkpt lat="44.0310433" lon="11.1210883"><ele>305.4</ele><time>2026-04-25T08:44:40.804Z</time></trkpt><trkpt lat="44.03111" lon="11.1212067"><ele>305.0</ele><time>2026-04-25T08:44:41.811Z</time></trkpt><trkpt lat="44.0311767" lon="11.1213383"><ele>305.0</ele><time>2026-04-25T08:44:42.817Z</time></trkpt><trkpt lat="44.0312333" lon="11.121495"><ele>305.0</ele><time>2026-04-25T08:44:43.824Z</time></trkpt><trkpt lat="44.0312867" lon="11.1216533"><ele>305.0</ele><time>2026-04-25T08:44:44.83Z</time></trkpt><trkpt lat="44.031335" lon="11.1218117"><ele>305.0</ele><time>2026-04-25T08:44:45.837Z</time></trkpt><trkpt lat="44.031385" lon="11.1219717"><ele>306.75</ele><time>2026-04-25T08:44:46.777Z</time></trkpt><trkpt lat="44.0314367" lon="11.12213"><ele>308.5</ele><time>2026-04-25T08:44:47.783Z</time></trkpt><trkpt lat="44.031495" lon="11.1222933"><ele>310.25</ele><time>2026-04-25T08:44:48.789Z</time></trkpt><trkpt lat="44.0315633" lon="11.12245"><ele>312.0</ele><time>2026-04-25T08:44:49.796Z</time></trkpt><trkpt lat="44.0316417" lon="11.122595"><ele>312.0</ele><time>2026-04-25T08:44:50.803Z</time></trkpt><trkpt lat="44.0317183" lon="11.1227317"><ele>312.0</ele><time>2026-04-25T08:44:51.81Z</time></trkpt><trkpt lat="44.03178" lon="11.1228617"><ele>312.0</ele><time>2026-04-25T08:44:52.815Z</time></trkpt><trkpt lat="44.03182" lon="11.1230017"><ele>312.0</ele><time>2026-04-25T08:44:53.823Z</time></trkpt><trkpt lat="44.0318383" lon="11.1231583"><ele>310.2</ele><time>2026-04-25T08:44:54.83Z</time></trkpt><trkpt lat="44.03183" lon="11.1233183"><ele>308.4</ele><time>2026-04-25T08:44:55.835Z</time></trkpt><trkpt lat="44.0318183" lon="11.12347"><ele>306.6</ele><time>2026-04-25T08:44:56.776Z</time></trkpt><trkpt lat="44.0318167" lon="11.1236183"><ele>304.8</ele><time>2026-04-25T08:44:57.782Z</time></trkpt><trkpt lat="44.03184" lon="11.1237667"><ele>303.0</ele><time>2026-04-25T08:44:58.788Z</time></trkpt><trkpt lat="44.0318933" lon="11.1239033"><ele>303.0</ele><time>2026-04-25T08:44:59.796Z</time></trkpt><trkpt lat="44.0319783" lon="11.12402"><ele>303.0</ele><time>2026-04-25T08:45:00.802Z</time></trkpt><trkpt lat="44.0320867" lon="11.1241183"><ele>303.0</ele><time>2026-04-25T08:45:01.808Z</time></trkpt><trkpt lat="44.0322117" lon="11.1242033"><ele>303.0</ele><time>2026-04-25T08:45:02.816Z</time></trkpt><trkpt lat="44.0323467" lon="11.1242783"><ele>304.5</ele><time>2026-04-25T08:45:03.821Z</time></trkpt><trkpt lat="44.032475" lon="11.1243467"><ele>306.0</ele><time>2026-04-25T08:45:04.829Z</time></trkpt><trkpt lat="44.0325983" lon="11.1244117"><ele>307.5</ele><time>2026-04-25T08:45:05.836Z</time></trkpt><trkpt lat="44.0327133" lon="11.12446"><ele>309.0</ele><time>2026-04-25T08:45:06.774Z</time></trkpt><trkpt lat="44.0328433" lon="11.1244833"><ele>309.0</ele><time>2026-04-25T08:45:07.782Z</time></trkpt><trkpt lat="44.0329783" lon="11.1245"><ele>309.0</ele><time>2026-04-25T08:45:08.788Z</time></trkpt><trkpt lat="44.0331183" lon="11.1245267"><ele>309.0</ele><time>2026-04-25T08:45:09.794Z</time></trkpt><trkpt lat="44.03325" lon="11.1245683"><ele>309.0</ele><time>2026-04-25T08:45:10.801Z</time></trkpt><trkpt lat="44.03338" lon="11.12461"><ele>310.5</ele><time>2026-04-25T08:45:11.807Z</time></trkpt><trkpt lat="44.0335033" lon="11.1246383"><ele>312.0</ele><time>2026-04-25T08:45:12.814Z</time></trkpt><trkpt lat="44.0336233" lon="11.1246533"><ele>313.5</ele><time>2026-04-25T08:45:13.821Z</time></trkpt><trkpt lat="44.0337467" lon="11.124665"><ele>315.0</ele><time>2026-04-25T08:45:14.828Z</time></trkpt><trkpt lat="44.033875" lon="11.124685"><ele>315.0</ele><time>2026-04-25T08:45:15.768Z</time></trkpt><trkpt lat="44.034" lon="11.1247317"><ele>315.0</ele><time>2026-04-25T08:45:16.774Z</time></trkpt><trkpt lat="44.0341133" lon="11.12481"><ele>315.0</ele><time>2026-04-25T08:45:17.781Z</time></trkpt><trkpt lat="44.0342217" lon="11.1249017"><ele>315.0</ele><time>2026-04-25T08:45:18.788Z</time></trkpt><trkpt lat="44.034335" lon="11.124995"><ele>309.0</ele><time>2026-04-25T08:45:19.794Z</time></trkpt><trkpt lat="44.0344667" lon="11.125075"><ele>303.0</ele><time>2026-04-25T08:45:20.8Z</time></trkpt><trkpt lat="44.0346217" lon="11.12513"><ele>297.0</ele><time>2026-04-25T08:45:21.806Z</time></trkpt><trkpt lat="44.034775" lon="11.12518"><ele>297.0</ele><time>2026-04-25T08:45:22.814Z</time></trkpt><trkpt lat="44.03492" lon="11.1252483"><ele>297.0</ele><time>2026-04-25T08:45:23.82Z</time></trkpt><trkpt lat="44.0350583" lon="11.1253467"><ele>297.0</ele><time>2026-04-25T08:45:24.826Z</time></trkpt><trkpt lat="44.0351833" lon="11.1254717"><ele>295.6666666666667</ele><time>2026-04-25T08:45:25.767Z</time></trkpt><trkpt lat="44.0353017" lon="11.1256067"><ele>294.33333333333337</ele><time>2026-04-25T08:45:26.773Z</time></trkpt><trkpt lat="44.03542" lon="11.1257467"><ele>293.0</ele><time>2026-04-25T08:45:27.779Z</time></trkpt><trkpt lat="44.0355367" lon="11.125885"><ele>293.0</ele><time>2026-04-25T08:45:28.854Z</time></trkpt><trkpt lat="44.0356483" lon="11.1260217"><ele>293.0</ele><time>2026-04-25T08:45:29.861Z</time></trkpt><trkpt lat="44.0357567" lon="11.1261583"><ele>293.0</ele><time>2026-04-25T08:45:30.8Z</time></trkpt><trkpt lat="44.035865" lon="11.126285"><ele>293.0</ele><time>2026-04-25T08:45:31.807Z</time></trkpt><trkpt lat="44.0359767" lon="11.1263883"><ele>292.25</ele><time>2026-04-25T08:45:32.813Z</time></trkpt><trkpt lat="44.0360983" lon="11.1264733"><ele>291.5</ele><time>2026-04-25T08:45:33.819Z</time></trkpt><trkpt lat="44.03623" lon="11.12654"><ele>290.75</ele><time>2026-04-25T08:45:34.827Z</time></trkpt><trkpt lat="44.0363517" lon="11.1266017"><ele>290.0</ele><time>2026-04-25T08:45:35.766Z</time></trkpt><trkpt lat="44.036465" lon="11.1266617"><ele>290.0</ele><time>2026-04-25T08:45:36.772Z</time></trkpt><trkpt lat="44.036565" lon="11.12673"><ele>290.0</ele><time>2026-04-25T08:45:37.846Z</time></trkpt><trkpt lat="44.0366383" lon="11.12682"><ele>290.0</ele><time>2026-04-25T08:45:38.853Z</time></trkpt><trkpt lat="44.0366883" lon="11.126925"><ele>290.0</ele><time>2026-04-25T08:45:39.859Z</time></trkpt><trkpt lat="44.0367433" lon="11.127025"><ele>290.0</ele><time>2026-04-25T08:45:40.798Z</time></trkpt><trkpt lat="44.036815" lon="11.1271067"><ele>294.5</ele><time>2026-04-25T08:45:41.805Z</time></trkpt><trkpt lat="44.03691" lon="11.127165"><ele>299.0</ele><time>2026-04-25T08:45:42.812Z</time></trkpt><trkpt lat="44.0370217" lon="11.1272083"><ele>303.5</ele><time>2026-04-25T08:45:43.819Z</time></trkpt><trkpt lat="44.0371433" lon="11.127255"><ele>308.0</ele><time>2026-04-25T08:45:44.825Z</time></trkpt><trkpt lat="44.0372633" lon="11.1273167"><ele>307.5</ele><time>2026-04-25T08:45:45.831Z</time></trkpt><trkpt lat="44.0373783" lon="11.1274117"><ele>307.0</ele><time>2026-04-25T08:45:46.838Z</time></trkpt><trkpt lat="44.03749" lon="11.1275367"><ele>306.5</ele><time>2026-04-25T08:45:47.846Z</time></trkpt><trkpt lat="44.0376083" lon="11.1276783"><ele>306.0</ele><time>2026-04-25T08:45:48.852Z</time></trkpt><trkpt lat="44.0377183" lon="11.1278383"><ele>306.0</ele><time>2026-04-25T08:45:49.858Z</time></trkpt><trkpt lat="44.0378067" lon="11.1280183"><ele>306.0</ele><time>2026-04-25T08:45:50.798Z</time></trkpt><trkpt lat="44.037885" lon="11.1281967"><ele>306.0</ele><time>2026-04-25T08:45:51.805Z</time></trkpt><trkpt lat="44.03796" lon="11.1283767"><ele>300.0</ele><time>2026-04-25T08:45:52.812Z</time></trkpt><trkpt lat="44.038035" lon="11.1285617"><ele>294.0</ele><time>2026-04-25T08:45:53.817Z</time></trkpt><trkpt lat="44.038105" lon="11.1287467"><ele>288.0</ele><time>2026-04-25T08:45:54.824Z</time></trkpt><trkpt lat="44.03817" lon="11.128935"><ele>290.25</ele><time>2026-04-25T08:45:55.832Z</time></trkpt><trkpt lat="44.0382283" lon="11.1291217"><ele>292.5</ele><time>2026-04-25T08:45:56.837Z</time></trkpt><trkpt lat="44.0382883" lon="11.129315"><ele>294.75</ele><time>2026-04-25T08:45:57.844Z</time></trkpt><trkpt lat="44.0383517" lon="11.1295067"><ele>297.0</ele><time>2026-04-25T08:45:58.851Z</time></trkpt><trkpt lat="44.03841" lon="11.129695"><ele>297.0</ele><time>2026-04-25T08:45:59.791Z</time></trkpt><trkpt lat="44.0384667" lon="11.1298767"><ele>297.0</ele><time>2026-04-25T08:46:00.798Z</time></trkpt><trkpt lat="44.0385317" lon="11.130055"><ele>297.0</ele><time>2026-04-25T08:46:01.803Z</time></trkpt><trkpt lat="44.0386017" lon="11.1302217"><ele>297.0</ele><time>2026-04-25T08:46:02.811Z</time></trkpt><trkpt lat="44.0386733" lon="11.130385"><ele>297.0</ele><time>2026-04-25T08:46:03.818Z</time></trkpt><trkpt lat="44.0387433" lon="11.1305517"><ele>297.0</ele><time>2026-04-25T08:46:04.824Z</time></trkpt><trkpt lat="44.03881" lon="11.1307267"><ele>297.0</ele><time>2026-04-25T08:46:05.831Z</time></trkpt><trkpt lat="44.0388833" lon="11.1309133"><ele>297.0</ele><time>2026-04-25T08:46:06.837Z</time></trkpt><trkpt lat="44.0389633" lon="11.1311"><ele>296.6666666666667</ele><time>2026-04-25T08:46:07.844Z</time></trkpt><trkpt lat="44.0390433" lon="11.131285"><ele>296.33333333333337</ele><time>2026-04-25T08:46:08.851Z</time></trkpt><trkpt lat="44.0391233" lon="11.1314633"><ele>296.0</ele><time>2026-04-25T08:46:09.79Z</time></trkpt><trkpt lat="44.0392133" lon="11.131645"><ele>296.0</ele><time>2026-04-25T08:46:10.797Z</time></trkpt><trkpt lat="44.0392917" lon="11.1318217"><ele>296.0</ele><time>2026-04-25T08:46:11.804Z</time></trkpt><trkpt lat="44.0393617" lon="11.1319883"><ele>296.0</ele><time>2026-04-25T08:46:12.81Z</time></trkpt><trkpt lat="44.0394267" lon="11.1321483"><ele>296.0</ele><time>2026-04-25T08:46:13.816Z</time></trkpt><trkpt lat="44.0394967" lon="11.132315"><ele>294.0</ele><time>2026-04-25T08:46:14.823Z</time></trkpt><trkpt lat="44.0395617" lon="11.13248"><ele>292.0</ele><time>2026-04-25T08:46:15.83Z</time></trkpt><trkpt lat="44.0396283" lon="11.1326467"><ele>290.0</ele><time>2026-04-25T08:46:16.837Z</time></trkpt><trkpt lat="44.03969" lon="11.1327983"><ele>288.0</ele><time>2026-04-25T08:46:17.843Z</time></trkpt><trkpt lat="44.0397417" lon="11.1329183"><ele>288.0</ele><time>2026-04-25T08:46:18.85Z</time></trkpt><trkpt lat="44.0398017" lon="11.1330083"><ele>288.0</ele><time>2026-04-25T08:46:19.789Z</time></trkpt><trkpt lat="44.0398767" lon="11.1330833"><ele>288.0</ele><time>2026-04-25T08:46:20.796Z</time></trkpt><trkpt lat="44.03997" lon="11.1331017"><ele>288.0</ele><time>2026-04-25T08:46:21.803Z</time></trkpt><trkpt lat="44.0400633" lon="11.1330783"><ele>288.0</ele><time>2026-04-25T08:46:22.809Z</time></trkpt><trkpt lat="44.0401517" lon="11.1330517"><ele>287.4</ele><time>2026-04-25T08:46:23.815Z</time></trkpt><trkpt lat="44.0402367" lon="11.1330333"><ele>286.8</ele><time>2026-04-25T08:46:24.823Z</time></trkpt><trkpt lat="44.04032" lon="11.1330467"><ele>286.2</ele><time>2026-04-25T08:46:25.829Z</time></trkpt><trkpt lat="44.0404033" lon="11.1330917"><ele>285.6</ele><time>2026-04-25T08:46:26.836Z</time></trkpt><trkpt lat="44.04049" lon="11.133165"><ele>285.0</ele><time>2026-04-25T08:46:27.843Z</time></trkpt><trkpt lat="44.0405717" lon="11.1332467"><ele>284.6666666666667</ele><time>2026-04-25T08:46:28.849Z</time></trkpt><trkpt lat="44.0406467" lon="11.1333133"><ele>284.3333333333333</ele><time>2026-04-25T08:46:29.789Z</time></trkpt><trkpt lat="44.0407267" lon="11.1333533"><ele>284.0</ele><time>2026-04-25T08:46:30.795Z</time></trkpt><trkpt lat="44.04081" lon="11.1333533"><ele>283.66666666666663</ele><time>2026-04-25T08:46:31.801Z</time></trkpt><trkpt lat="44.040885" lon="11.13332"><ele>283.3333333333333</ele><time>2026-04-25T08:46:32.808Z</time></trkpt><trkpt lat="44.040955" lon="11.1332583"><ele>283.0</ele><time>2026-04-25T08:46:33.815Z</time></trkpt><trkpt lat="44.0410267" lon="11.1331783"><ele>283.0</ele><time>2026-04-25T08:46:34.822Z</time></trkpt><trkpt lat="44.0411033" lon="11.133085"><ele>283.0</ele><time>2026-04-25T08:46:35.829Z</time></trkpt><trkpt lat="44.0412017" lon="11.1329883"><ele>283.0</ele><time>2026-04-25T08:46:36.835Z</time></trkpt><trkpt lat="44.0413067" lon="11.13289"><ele>283.0</ele><time>2026-04-25T08:46:37.842Z</time></trkpt><trkpt lat="44.0414183" lon="11.1327967"><ele>283.0</ele><time>2026-04-25T08:46:38.848Z</time></trkpt><trkpt lat="44.0415383" lon="11.1327083"><ele>283.0</ele><time>2026-04-25T08:46:39.788Z</time></trkpt><trkpt lat="44.0416683" lon="11.1326467"><ele>283.0</ele><time>2026-04-25T08:46:40.795Z</time></trkpt><trkpt lat="44.0417983" lon="11.13261"><ele>283.0</ele><time>2026-04-25T08:46:41.801Z</time></trkpt><trkpt lat="44.0419383" lon="11.1325867"><ele>284.0</ele><time>2026-04-25T08:46:42.808Z</time></trkpt><trkpt lat="44.04208" lon="11.1325733"><ele>285.0</ele><time>2026-04-25T08:46:43.814Z</time></trkpt><trkpt lat="44.0422233" lon="11.1325667"><ele>286.0</ele><time>2026-04-25T08:46:44.821Z</time></trkpt><trkpt lat="44.0423617" lon="11.1325667"><ele>287.0</ele><time>2026-04-25T08:46:45.828Z</time></trkpt><trkpt lat="44.0424917" lon="11.13259"><ele>288.5</ele><time>2026-04-25T08:46:46.834Z</time></trkpt><trkpt lat="44.042615" lon="11.132635"><ele>290.0</ele><time>2026-04-25T08:46:47.841Z</time></trkpt><trkpt lat="44.0427317" lon="11.1327117"><ele>291.5</ele><time>2026-04-25T08:46:48.781Z</time></trkpt><trkpt lat="44.0428467" lon="11.13281"><ele>293.0</ele><time>2026-04-25T08:46:49.787Z</time></trkpt><trkpt lat="44.04296" lon="11.1329217"><ele>293.0</ele><time>2026-04-25T08:46:50.794Z</time></trkpt><trkpt lat="44.043065" lon="11.133045"><ele>293.0</ele><time>2026-04-25T08:46:51.799Z</time></trkpt><trkpt lat="44.0431583" lon="11.1331867"><ele>293.0</ele><time>2026-04-25T08:46:52.807Z</time></trkpt><trkpt lat="44.04323" lon="11.1333483"><ele>293.0</ele><time>2026-04-25T08:46:53.814Z</time></trkpt><trkpt lat="44.04329" lon="11.1335233"><ele>290.0</ele><time>2026-04-25T08:46:54.819Z</time></trkpt><trkpt lat="44.04335" lon="11.1337033"><ele>287.0</ele><time>2026-04-25T08:46:55.827Z</time></trkpt><trkpt lat="44.0434183" lon="11.1338883"><ele>284.0</ele><time>2026-04-25T08:46:56.834Z</time></trkpt><trkpt lat="44.043495" lon="11.13408"><ele>280.6666666666667</ele><time>2026-04-25T08:46:57.84Z</time></trkpt><trkpt lat="44.04357" lon="11.134275"><ele>277.3333333333333</ele><time>2026-04-25T08:46:58.78Z</time></trkpt><trkpt lat="44.0436383" lon="11.1344717"><ele>274.0</ele><time>2026-04-25T08:46:59.786Z</time></trkpt><trkpt lat="44.0436983" lon="11.13467"><ele>274.0</ele><time>2026-04-25T08:47:00.793Z</time></trkpt><trkpt lat="44.0437467" lon="11.1348733"><ele>274.0</ele><time>2026-04-25T08:47:01.8Z</time></trkpt><trkpt lat="44.04379" lon="11.1350783"><ele>274.0</ele><time>2026-04-25T08:47:02.806Z</time></trkpt><trkpt lat="44.04383" lon="11.13528"><ele>274.0</ele><time>2026-04-25T08:47:03.813Z</time></trkpt><trkpt lat="44.04387" lon="11.1354783"><ele>274.0</ele><time>2026-04-25T08:47:04.82Z</time></trkpt><trkpt lat="44.04391" lon="11.1356667"><ele>274.0</ele><time>2026-04-25T08:47:05.826Z</time></trkpt><trkpt lat="44.04395" lon="11.135845"><ele>274.0</ele><time>2026-04-25T08:47:06.832Z</time></trkpt><trkpt lat="44.0439867" lon="11.1360117"><ele>275.2</ele><time>2026-04-25T08:47:07.839Z</time></trkpt><trkpt lat="44.044025" lon="11.1361633"><ele>276.4</ele><time>2026-04-25T08:47:08.779Z</time></trkpt><trkpt lat="44.0440717" lon="11.1363033"><ele>277.6</ele><time>2026-04-25T08:47:09.786Z</time></trkpt><trkpt lat="44.044125" lon="11.13644"><ele>278.8</ele><time>2026-04-25T08:47:10.791Z</time></trkpt><trkpt lat="44.0441783" lon="11.1365733"><ele>280.0</ele><time>2026-04-25T08:47:11.799Z</time></trkpt><trkpt lat="44.04423" lon="11.1367133"><ele>280.0</ele><time>2026-04-25T08:47:12.806Z</time></trkpt><trkpt lat="44.04429" lon="11.1368567"><ele>280.0</ele><time>2026-04-25T08:47:13.812Z</time></trkpt><trkpt lat="44.044365" lon="11.137005"><ele>280.0</ele><time>2026-04-25T08:47:14.819Z</time></trkpt><trkpt lat="44.0444333" lon="11.1371667"><ele>280.0</ele><time>2026-04-25T08:47:15.825Z</time></trkpt><trkpt lat="44.0444817" lon="11.13734"><ele>277.75</ele><time>2026-04-25T08:47:16.831Z</time></trkpt><trkpt lat="44.0445067" lon="11.1375217"><ele>275.5</ele><time>2026-04-25T08:47:17.839Z</time></trkpt><trkpt lat="44.0445167" lon="11.137705"><ele>273.25</ele><time>2026-04-25T08:47:18.777Z</time></trkpt><trkpt lat="44.04452" lon="11.137885"><ele>271.0</ele><time>2026-04-25T08:47:19.785Z</time></trkpt><trkpt lat="44.0445317" lon="11.1380617"><ele>269.75</ele><time>2026-04-25T08:47:20.791Z</time></trkpt><trkpt lat="44.0445583" lon="11.1382433"><ele>268.5</ele><time>2026-04-25T08:47:21.798Z</time></trkpt><trkpt lat="44.0445983" lon="11.13843"><ele>267.25</ele><time>2026-04-25T08:47:22.805Z</time></trkpt><trkpt lat="44.0446467" lon="11.13862"><ele>266.0</ele><time>2026-04-25T08:47:23.811Z</time></trkpt><trkpt lat="44.044695" lon="11.138815"><ele>266.0</ele><time>2026-04-25T08:47:24.817Z</time></trkpt><trkpt lat="44.04473" lon="11.1390083"><ele>266.0</ele><time>2026-04-25T08:47:25.825Z</time></trkpt><trkpt lat="44.04475" lon="11.1392"><ele>266.0</ele><time>2026-04-25T08:47:26.831Z</time></trkpt><trkpt lat="44.0447467" lon="11.1393883"><ele>266.0</ele><time>2026-04-25T08:47:27.771Z</time></trkpt><trkpt lat="44.0447233" lon="11.139575"><ele>265.5</ele><time>2026-04-25T08:47:28.777Z</time></trkpt><trkpt lat="44.0447033" lon="11.1397583"><ele>265.0</ele><time>2026-04-25T08:47:29.784Z</time></trkpt><trkpt lat="44.0447033" lon="11.1399417"><ele>264.5</ele><time>2026-04-25T08:47:30.791Z</time></trkpt><trkpt lat="44.0447283" lon="11.1401167"><ele>264.0</ele><time>2026-04-25T08:47:31.797Z</time></trkpt><trkpt lat="44.0447533" lon="11.1402783"><ele>263.25</ele><time>2026-04-25T08:47:32.804Z</time></trkpt><trkpt lat="44.044755" lon="11.14043"><ele>262.5</ele><time>2026-04-25T08:47:33.811Z</time></trkpt><trkpt lat="44.0447233" lon="11.1405833"><ele>261.75</ele><time>2026-04-25T08:47:34.817Z</time></trkpt><trkpt lat="44.04468" lon="11.1407433"><ele>261.0</ele><time>2026-04-25T08:47:35.823Z</time></trkpt><trkpt lat="44.04465" lon="11.140915"><ele>260.75</ele><time>2026-04-25T08:47:36.829Z</time></trkpt><trkpt lat="44.044645" lon="11.1410967"><ele>260.5</ele><time>2026-04-25T08:47:37.77Z</time></trkpt><trkpt lat="44.0446583" lon="11.14129"><ele>260.25</ele><time>2026-04-25T08:47:38.777Z</time></trkpt><trkpt lat="44.0446783" lon="11.1414933"><ele>260.0</ele><time>2026-04-25T08:47:39.783Z</time></trkpt><trkpt lat="44.0446983" lon="11.141695"><ele>260.25</ele><time>2026-04-25T08:47:40.79Z</time></trkpt><trkpt lat="44.0447083" lon="11.1419017"><ele>260.5</ele><time>2026-04-25T08:47:41.797Z</time></trkpt><trkpt lat="44.0447" lon="11.1421017"><ele>260.75</ele><time>2026-04-25T08:47:42.803Z</time></trkpt><trkpt lat="44.0446833" lon="11.1423067"><ele>261.0</ele><time>2026-04-25T08:47:43.81Z</time></trkpt><trkpt lat="44.0446733" lon="11.1425233"><ele>261.0</ele><time>2026-04-25T08:47:44.816Z</time></trkpt><trkpt lat="44.0446783" lon="11.1427333"><ele>261.0</ele><time>2026-04-25T08:47:45.823Z</time></trkpt><trkpt lat="44.0446933" lon="11.142935"><ele>261.0</ele><time>2026-04-25T08:47:46.83Z</time></trkpt><trkpt lat="44.0447033" lon="11.1431117"><ele>261.0</ele><time>2026-04-25T08:47:47.769Z</time></trkpt><trkpt lat="44.0446983" lon="11.14327"><ele>261.6</ele><time>2026-04-25T08:47:48.776Z</time></trkpt><trkpt lat="44.0446667" lon="11.1434167"><ele>262.20000000000005</ele><time>2026-04-25T08:47:49.782Z</time></trkpt><trkpt lat="44.0446117" lon="11.143555"><ele>262.79999999999995</ele><time>2026-04-25T08:47:50.788Z</time></trkpt><trkpt lat="44.04455" lon="11.14369"><ele>263.4</ele><time>2026-04-25T08:47:51.863Z</time></trkpt><trkpt lat="44.044495" lon="11.143815"><ele>264.0</ele><time>2026-04-25T08:47:52.802Z</time></trkpt><trkpt lat="44.0444533" lon="11.1439517"><ele>264.4</ele><time>2026-04-25T08:47:53.808Z</time></trkpt><trkpt lat="44.044425" lon="11.14409"><ele>264.79999999999995</ele><time>2026-04-25T08:47:54.816Z</time></trkpt><trkpt lat="44.04442" lon="11.144225"><ele>265.20000000000005</ele><time>2026-04-25T08:47:55.822Z</time></trkpt><trkpt lat="44.0444333" lon="11.144335"><ele>265.6</ele><time>2026-04-25T08:47:56.828Z</time></trkpt><trkpt lat="44.0444667" lon="11.14448"><ele>266.0</ele><time>2026-04-25T08:47:58.775Z</time></trkpt><trkpt lat="44.0445233" lon="11.1445483"><ele>266.0</ele><time>2026-04-25T08:48:01.861Z</time></trkpt><trkpt lat="44.0445333" lon="11.14445"><ele>266.0</ele><time>2026-04-25T08:48:06.828Z</time></trkpt><trkpt lat="44.0445033" lon="11.1442817"><ele>266.0</ele><time>2026-04-25T08:48:08.84Z</time></trkpt><trkpt lat="44.044505" lon="11.1441733"><ele>266.0</ele><time>2026-04-25T08:48:09.848Z</time></trkpt><trkpt lat="44.04453" lon="11.1440517"><ele>266.0</ele><time>2026-04-25T08:48:10.854Z</time></trkpt><trkpt lat="44.04457" lon="11.1439283"><ele>265.6</ele><time>2026-04-25T08:48:11.794Z</time></trkpt><trkpt lat="44.044625" lon="11.1438217"><ele>265.20000000000005</ele><time>2026-04-25T08:48:12.8Z</time></trkpt><trkpt lat="44.0446967" lon="11.143735"><ele>264.79999999999995</ele><time>2026-04-25T08:48:13.807Z</time></trkpt><trkpt lat="44.0447783" lon="11.143655"><ele>264.4</ele><time>2026-04-25T08:48:14.813Z</time></trkpt><trkpt lat="44.0448667" lon="11.143575"><ele>264.0</ele><time>2026-04-25T08:48:15.821Z</time></trkpt><trkpt lat="44.0449567" lon="11.1434917"><ele>268.5</ele><time>2026-04-25T08:48:16.827Z</time></trkpt><trkpt lat="44.0450417" lon="11.1433917"><ele>273.0</ele><time>2026-04-25T08:48:17.834Z</time></trkpt><trkpt lat="44.045125" lon="11.14326"><ele>277.5</ele><time>2026-04-25T08:48:18.841Z</time></trkpt><trkpt lat="44.0451967" lon="11.1431233"><ele>282.0</ele><time>2026-04-25T08:48:19.847Z</time></trkpt><trkpt lat="44.0452633" lon="11.1429883"><ele>282.0</ele><time>2026-04-25T08:48:20.853Z</time></trkpt><trkpt lat="44.0453233" lon="11.14286"><ele>282.0</ele><time>2026-04-25T08:48:21.793Z</time></trkpt><trkpt lat="44.04537" lon="11.1427367"><ele>282.0</ele><time>2026-04-25T08:48:22.8Z</time></trkpt><trkpt lat="44.0454017" lon="11.1426233"><ele>282.0</ele><time>2026-04-25T08:48:23.807Z</time></trkpt><trkpt lat="44.0453833" lon="11.1425167"><ele>282.0</ele><time>2026-04-25T08:48:24.813Z</time></trkpt><trkpt lat="44.04535" lon="11.1424083"><ele>283.0</ele><time>2026-04-25T08:48:25.82Z</time></trkpt><trkpt lat="44.04527" lon="11.14231"><ele>284.0</ele><time>2026-04-25T08:48:26.827Z</time></trkpt><trkpt lat="44.0452017" lon="11.1422067"><ele>285.0</ele><time>2026-04-25T08:48:27.833Z</time></trkpt><trkpt lat="44.0451517" lon="11.142085"><ele>286.0</ele><time>2026-04-25T08:48:28.839Z</time></trkpt><trkpt lat="44.0451267" lon="11.1419483"><ele>287.0</ele><time>2026-04-25T08:48:29.846Z</time></trkpt><trkpt lat="44.0451367" lon="11.1417967"><ele>287.0</ele><time>2026-04-25T08:48:30.853Z</time></trkpt><trkpt lat="44.0451533" lon="11.1416433"><ele>287.0</ele><time>2026-04-25T08:48:31.792Z</time></trkpt><trkpt lat="44.0451633" lon="11.14148"><ele>287.0</ele><time>2026-04-25T08:48:32.799Z</time></trkpt><trkpt lat="44.04517" lon="11.14132"><ele>287.0</ele><time>2026-04-25T08:48:33.806Z</time></trkpt><trkpt lat="44.04518" lon="11.1411733"><ele>287.0</ele><time>2026-04-25T08:48:34.813Z</time></trkpt><trkpt lat="44.0452033" lon="11.1410417"><ele>287.0</ele><time>2026-04-25T08:48:35.819Z</time></trkpt><trkpt lat="44.045235" lon="11.1409367"><ele>287.0</ele><time>2026-04-25T08:48:36.825Z</time></trkpt><trkpt lat="44.0452717" lon="11.1408633"><ele>287.0</ele><time>2026-04-25T08:48:37.831Z</time></trkpt><trkpt lat="44.045355" lon="11.1408667"><ele>287.0</ele><time>2026-04-25T08:48:39.846Z</time></trkpt><trkpt lat="44.045355" lon="11.1410167"><ele>287.0</ele><time>2026-04-25T08:48:41.792Z</time></trkpt><trkpt lat="44.045325" lon="11.1411483"><ele>287.0</ele><time>2026-04-25T08:48:42.798Z</time></trkpt><trkpt lat="44.045315" lon="11.1412967"><ele>287.0</ele><time>2026-04-25T08:48:43.805Z</time></trkpt><trkpt lat="44.04532" lon="11.1414567"><ele>287.0</ele><time>2026-04-25T08:48:44.812Z</time></trkpt><trkpt lat="44.045325" lon="11.1416067"><ele>287.0</ele><time>2026-04-25T08:48:45.818Z</time></trkpt><trkpt lat="44.04534" lon="11.1417383"><ele>287.0</ele><time>2026-04-25T08:48:46.825Z</time></trkpt><trkpt lat="44.04537" lon="11.1418533"><ele>287.0</ele><time>2026-04-25T08:48:47.831Z</time></trkpt><trkpt lat="44.0454267" lon="11.1419483"><ele>287.0</ele><time>2026-04-25T08:48:48.838Z</time></trkpt><trkpt lat="44.04551" lon="11.142005"><ele>287.0</ele><time>2026-04-25T08:48:49.845Z</time></trkpt><trkpt lat="44.0455917" lon="11.14203"><ele>287.0</ele><time>2026-04-25T08:48:50.851Z</time></trkpt><trkpt lat="44.0456633" lon="11.1420317"><ele>287.0</ele><time>2026-04-25T08:48:51.79Z</time></trkpt><trkpt lat="44.04576" lon="11.1419467"><ele>287.0</ele><time>2026-04-25T08:48:53.804Z</time></trkpt><trkpt lat="44.0457783" lon="11.1417733"><ele>287.0</ele><time>2026-04-25T08:48:55.817Z</time></trkpt><trkpt lat="44.0457533" lon="11.1416467"><ele>287.0</ele><time>2026-04-25T08:48:56.824Z</time></trkpt><trkpt lat="44.0457333" lon="11.14152"><ele>287.0</ele><time>2026-04-25T08:48:57.831Z</time></trkpt><trkpt lat="44.0456883" lon="11.14139"><ele>287.0</ele><time>2026-04-25T08:48:58.837Z</time></trkpt><trkpt lat="44.0456467" lon="11.1412733"><ele>287.0</ele><time>2026-04-25T08:48:59.844Z</time></trkpt><trkpt lat="44.0456167" lon="11.1411667"><ele>287.0</ele><time>2026-04-25T08:49:00.784Z</time></trkpt><trkpt lat="44.0455967" lon="11.1410367"><ele>287.0</ele><time>2026-04-25T08:49:01.789Z</time></trkpt><trkpt lat="44.0455917" lon="11.1409017"><ele>287.0</ele><time>2026-04-25T08:49:02.796Z</time></trkpt><trkpt lat="44.0456183" lon="11.14079"><ele>287.0</ele><time>2026-04-25T08:49:04.81Z</time></trkpt><trkpt lat="44.045645" lon="11.1408883"><ele>287.0</ele><time>2026-04-25T08:49:06.823Z</time></trkpt><trkpt lat="44.04567" lon="11.1410483"><ele>287.0</ele><time>2026-04-25T08:49:07.83Z</time></trkpt><trkpt lat="44.045705" lon="11.1412083"><ele>287.0</ele><time>2026-04-25T08:49:08.837Z</time></trkpt><trkpt lat="44.0457617" lon="11.1413783"><ele>287.0</ele><time>2026-04-25T08:49:09.843Z</time></trkpt><trkpt lat="44.0458233" lon="11.141495"><ele>287.0</ele><time>2026-04-25T08:49:10.782Z</time></trkpt><trkpt lat="44.0458767" lon="11.1415883"><ele>287.0</ele><time>2026-04-25T08:49:11.79Z</time></trkpt><trkpt lat="44.0459433" lon="11.1416883"><ele>294.2</ele><time>2026-04-25T08:49:12.796Z</time></trkpt><trkpt lat="44.0460333" lon="11.14164"><ele>301.4</ele><time>2026-04-25T08:49:14.809Z</time></trkpt><trkpt lat="44.0460517" lon="11.1415117"><ele>308.59999999999997</ele><time>2026-04-25T08:49:16.823Z</time></trkpt><trkpt lat="44.046015" lon="11.1414233"><ele>315.79999999999995</ele><time>2026-04-25T08:49:17.829Z</time></trkpt><trkpt lat="44.0459633" lon="11.1413117"><ele>323.0</ele><time>2026-04-25T08:49:18.835Z</time></trkpt><trkpt lat="44.0459333" lon="11.14119"><ele>323.5</ele><time>2026-04-25T08:49:19.843Z</time></trkpt><trkpt lat="44.045915" lon="11.1410733"><ele>324.0</ele><time>2026-04-25T08:49:20.782Z</time></trkpt><trkpt lat="44.0459083" lon="11.140965"><ele>324.5</ele><time>2026-04-25T08:49:21.789Z</time></trkpt><trkpt lat="44.0459133" lon="11.140875"><ele>325.0</ele><time>2026-04-25T08:49:22.794Z</time></trkpt><trkpt lat="44.0459917" lon="11.14092"><ele>325.5</ele><time>2026-04-25T08:49:25.815Z</time></trkpt><trkpt lat="44.04602" lon="11.1410467"><ele>326.0</ele><time>2026-04-25T08:49:26.822Z</time></trkpt><trkpt lat="44.04606" lon="11.14117"><ele>326.0</ele><time>2026-04-25T08:49:27.828Z</time></trkpt><trkpt lat="44.046115" lon="11.14128"><ele>326.0</ele><time>2026-04-25T08:49:28.835Z</time></trkpt><trkpt lat="44.0461783" lon="11.14137"><ele>326.0</ele><time>2026-04-25T08:49:29.842Z</time></trkpt><trkpt lat="44.0462517" lon="11.1414367"><ele>326.0</ele><time>2026-04-25T08:49:30.781Z</time></trkpt><trkpt lat="44.046325" lon="11.1414883"><ele>326.0</ele><time>2026-04-25T08:49:31.788Z</time></trkpt><trkpt lat="44.04641" lon="11.1415133"><ele>326.0</ele><time>2026-04-25T08:49:32.795Z</time></trkpt><trkpt lat="44.0465067" lon="11.141515"><ele>326.0</ele><time>2026-04-25T08:49:33.801Z</time></trkpt><trkpt lat="44.0465967" lon="11.1415133"><ele>326.0</ele><time>2026-04-25T08:49:34.808Z</time></trkpt><trkpt lat="44.0466817" lon="11.1415017"><ele>326.0</ele><time>2026-04-25T08:49:35.814Z</time></trkpt><trkpt lat="44.0467583" lon="11.1414617"><ele>326.0</ele><time>2026-04-25T08:49:36.821Z</time></trkpt><trkpt lat="44.0468483" lon="11.1414017"><ele>326.0</ele><time>2026-04-25T08:49:37.828Z</time></trkpt><trkpt lat="44.0469317" lon="11.1413033"><ele>333.75</ele><time>2026-04-25T08:49:38.834Z</time></trkpt><trkpt lat="44.047025" lon="11.1411967"><ele>341.5</ele><time>2026-04-25T08:49:39.84Z</time></trkpt><trkpt lat="44.0471333" lon="11.1411083"><ele>349.25</ele><time>2026-04-25T08:49:40.78Z</time></trkpt><trkpt lat="44.047245" lon="11.1410467"><ele>357.0</ele><time>2026-04-25T08:49:41.787Z</time></trkpt><trkpt lat="44.0473533" lon="11.14101"><ele>357.0</ele><time>2026-04-25T08:49:42.794Z</time></trkpt><trkpt lat="44.04746" lon="11.140975"><ele>357.0</ele><time>2026-04-25T08:49:43.8Z</time></trkpt><trkpt lat="44.0475667" lon="11.140925"><ele>357.0</ele><time>2026-04-25T08:49:44.807Z</time></trkpt><trkpt lat="44.047645" lon="11.1408467"><ele>357.0</ele><time>2026-04-25T08:49:45.814Z</time></trkpt><trkpt lat="44.0477083" lon="11.140735"><ele>357.0</ele><time>2026-04-25T08:49:46.82Z</time></trkpt><trkpt lat="44.0477467" lon="11.140645"><ele>356.20000000000005</ele><time>2026-04-25T08:49:47.827Z</time></trkpt><trkpt lat="44.04777" lon="11.14053"><ele>355.4</ele><time>2026-04-25T08:49:48.834Z</time></trkpt><trkpt lat="44.0477317" lon="11.1404567"><ele>354.6</ele><time>2026-04-25T08:49:49.773Z</time></trkpt><trkpt lat="44.0476917" lon="11.1403817"><ele>353.79999999999995</ele><time>2026-04-25T08:49:50.78Z</time></trkpt><trkpt lat="44.0475567" lon="11.1403367"><ele>353.0</ele><time>2026-04-25T08:49:52.793Z</time></trkpt><trkpt lat="44.0474383" lon="11.1403633"><ele>353.0</ele><time>2026-04-25T08:49:53.799Z</time></trkpt><trkpt lat="44.0473" lon="11.140435"><ele>353.0</ele><time>2026-04-25T08:49:54.806Z</time></trkpt><trkpt lat="44.04716" lon="11.140505"><ele>353.0</ele><time>2026-04-25T08:49:55.813Z</time></trkpt><trkpt lat="44.0470467" lon="11.140565"><ele>353.0</ele><time>2026-04-25T08:49:56.82Z</time></trkpt><trkpt lat="44.0469383" lon="11.1406217"><ele>353.0</ele><time>2026-04-25T08:49:57.826Z</time></trkpt><trkpt lat="44.0468367" lon="11.1406483"><ele>353.0</ele><time>2026-04-25T08:49:58.833Z</time></trkpt><trkpt lat="44.0467417" lon="11.1406417"><ele>353.0</ele><time>2026-04-25T08:49:59.772Z</time></trkpt><trkpt lat="44.046685" lon="11.140515"><ele>353.0</ele><time>2026-04-25T08:50:01.785Z</time></trkpt><trkpt lat="44.0467217" lon="11.14041"><ele>353.0</ele><time>2026-04-25T08:50:03.798Z</time></trkpt><trkpt lat="44.046875" lon="11.1404133"><ele>353.0</ele><time>2026-04-25T08:50:05.812Z</time></trkpt><trkpt lat="44.046985" lon="11.1404067"><ele>353.0</ele><time>2026-04-25T08:50:06.819Z</time></trkpt><trkpt lat="44.04709" lon="11.1403717"><ele>353.0</ele><time>2026-04-25T08:50:07.825Z</time></trkpt><trkpt lat="44.0471883" lon="11.1403317"><ele>353.0</ele><time>2026-04-25T08:50:08.831Z</time></trkpt><trkpt lat="44.0472733" lon="11.1402883"><ele>353.0</ele><time>2026-04-25T08:50:09.772Z</time></trkpt><trkpt lat="44.0473383" lon="11.140235"><ele>353.0</ele><time>2026-04-25T08:50:10.778Z</time></trkpt><trkpt lat="44.047385" lon="11.140165"><ele>353.0</ele><time>2026-04-25T08:50:11.784Z</time></trkpt><trkpt lat="44.0473717" lon="11.1400317"><ele>353.0</ele><time>2026-04-25T08:50:13.865Z</time></trkpt><trkpt lat="44.04725" lon="11.140025"><ele>353.0</ele><time>2026-04-25T08:50:15.81Z</time></trkpt><trkpt lat="44.0471733" lon="11.1400567"><ele>353.0</ele><time>2026-04-25T08:50:16.818Z</time></trkpt><trkpt lat="44.04711" lon="11.1400533"><ele>353.0</ele><time>2026-04-25T08:50:17.825Z</time></trkpt><trkpt lat="44.04703" lon="11.1400567"><ele>353.0</ele><time>2026-04-25T08:50:18.831Z</time></trkpt><trkpt lat="44.0469667" lon="11.1400333"><ele>353.0</ele><time>2026-04-25T08:50:19.771Z</time></trkpt><trkpt lat="44.0469533" lon="11.1399333"><ele>353.0</ele><time>2026-04-25T08:50:20.777Z</time></trkpt><trkpt lat="44.0469717" lon="11.139825"><ele>353.0</ele><time>2026-04-25T08:50:21.784Z</time></trkpt><trkpt lat="44.0470167" lon="11.1396983"><ele>353.0</ele><time>2026-04-25T08:50:22.857Z</time></trkpt><trkpt lat="44.0470917" lon="11.13955"><ele>347.33333333333337</ele><time>2026-04-25T08:50:23.864Z</time></trkpt><trkpt lat="44.0472033" lon="11.1393933"><ele>341.6666666666667</ele><time>2026-04-25T08:50:24.804Z</time></trkpt><trkpt lat="44.0473283" lon="11.1392467"><ele>336.0</ele><time>2026-04-25T08:50:25.811Z</time></trkpt><trkpt lat="44.0474633" lon="11.139105"><ele>343.0</ele><time>2026-04-25T08:50:26.816Z</time></trkpt><trkpt lat="44.0475833" lon="11.13898"><ele>350.0</ele><time>2026-04-25T08:50:27.823Z</time></trkpt><trkpt lat="44.0476833" lon="11.1388617"><ele>357.0</ele><time>2026-04-25T08:50:28.763Z</time></trkpt><trkpt lat="44.0477717" lon="11.138735"><ele>364.0</ele><time>2026-04-25T08:50:29.77Z</time></trkpt><trkpt lat="44.04785" lon="11.13859"><ele>364.0</ele><time>2026-04-25T08:50:30.844Z</time></trkpt><trkpt lat="44.04792" lon="11.1384383"><ele>364.0</ele><time>2026-04-25T08:50:31.849Z</time></trkpt><trkpt lat="44.047985" lon="11.1383"><ele>364.0</ele><time>2026-04-25T08:50:32.857Z</time></trkpt><trkpt lat="44.0480333" lon="11.1381483"><ele>364.0</ele><time>2026-04-25T08:50:33.797Z</time></trkpt><trkpt lat="44.0480533" lon="11.1379867"><ele>361.4</ele><time>2026-04-25T08:50:34.803Z</time></trkpt><trkpt lat="44.0480533" lon="11.1378317"><ele>358.79999999999995</ele><time>2026-04-25T08:50:35.809Z</time></trkpt><trkpt lat="44.0480583" lon="11.137685"><ele>356.20000000000005</ele><time>2026-04-25T08:50:36.816Z</time></trkpt><trkpt lat="44.0480867" lon="11.1375417"><ele>353.6</ele><time>2026-04-25T08:50:37.823Z</time></trkpt><trkpt lat="44.0481467" lon="11.1374067"><ele>351.0</ele><time>2026-04-25T08:50:38.763Z</time></trkpt><trkpt lat="44.048235" lon="11.137275"><ele>360.0</ele><time>2026-04-25T08:50:39.836Z</time></trkpt><trkpt lat="44.0483267" lon="11.1371483"><ele>369.0</ele><time>2026-04-25T08:50:40.843Z</time></trkpt><trkpt lat="44.0484217" lon="11.1369967"><ele>378.0</ele><time>2026-04-25T08:50:41.85Z</time></trkpt><trkpt lat="44.04852" lon="11.1368283"><ele>387.0</ele><time>2026-04-25T08:50:42.855Z</time></trkpt><trkpt lat="44.0486167" lon="11.13663"><ele>383.0</ele><time>2026-04-25T08:50:43.796Z</time></trkpt><trkpt lat="44.0486917" lon="11.1364067"><ele>379.0</ele><time>2026-04-25T08:50:44.802Z</time></trkpt><trkpt lat="44.04874" lon="11.1361683"><ele>375.0</ele><time>2026-04-25T08:50:45.808Z</time></trkpt><trkpt lat="44.0487817" lon="11.1359267"><ele>374.0</ele><time>2026-04-25T08:50:46.816Z</time></trkpt><trkpt lat="44.0488233" lon="11.1356967"><ele>373.0</ele><time>2026-04-25T08:50:47.822Z</time></trkpt><trkpt lat="44.04885" lon="11.1354867"><ele>372.0</ele><time>2026-04-25T08:50:48.829Z</time></trkpt><trkpt lat="44.0488767" lon="11.1352933"><ele>372.0</ele><time>2026-04-25T08:50:49.836Z</time></trkpt><trkpt lat="44.0489167" lon="11.135105"><ele>372.0</ele><time>2026-04-25T08:50:50.842Z</time></trkpt><trkpt lat="44.0489733" lon="11.1349217"><ele>372.0</ele><time>2026-04-25T08:50:51.848Z</time></trkpt><trkpt lat="44.0490433" lon="11.134745"><ele>372.0</ele><time>2026-04-25T08:50:52.855Z</time></trkpt><trkpt lat="44.0491017" lon="11.1345883"><ele>374.0</ele><time>2026-04-25T08:50:53.795Z</time></trkpt><trkpt lat="44.0491567" lon="11.13444"><ele>376.0</ele><time>2026-04-25T08:50:54.802Z</time></trkpt><trkpt lat="44.04922" lon="11.1343"><ele>378.0</ele><time>2026-04-25T08:50:55.808Z</time></trkpt><trkpt lat="44.0492917" lon="11.1341683"><ele>380.0</ele><time>2026-04-25T08:50:56.815Z</time></trkpt><trkpt lat="44.0493783" lon="11.1340533"><ele>380.0</ele><time>2026-04-25T08:50:57.822Z</time></trkpt><trkpt lat="44.0494717" lon="11.1339617"><ele>380.0</ele><time>2026-04-25T08:50:58.828Z</time></trkpt><trkpt lat="44.049575" lon="11.1339017"><ele>380.0</ele><time>2026-04-25T08:50:59.835Z</time></trkpt><trkpt lat="44.049695" lon="11.1338733"><ele>380.0</ele><time>2026-04-25T08:51:00.841Z</time></trkpt><trkpt lat="44.0498" lon="11.1338633"><ele>380.0</ele><time>2026-04-25T08:51:01.848Z</time></trkpt><trkpt lat="44.0499033" lon="11.13385"><ele>380.0</ele><time>2026-04-25T08:51:02.855Z</time></trkpt><trkpt lat="44.0500067" lon="11.1338033"><ele>380.0</ele><time>2026-04-25T08:51:03.794Z</time></trkpt><trkpt lat="44.050095" lon="11.1337133"><ele>380.0</ele><time>2026-04-25T08:51:04.801Z</time></trkpt><trkpt lat="44.050175" lon="11.1335933"><ele>380.0</ele><time>2026-04-25T08:51:05.807Z</time></trkpt><trkpt lat="44.050235" lon="11.13345"><ele>388.0</ele><time>2026-04-25T08:51:06.814Z</time></trkpt><trkpt lat="44.0502867" lon="11.13329"><ele>396.0</ele><time>2026-04-25T08:51:07.821Z</time></trkpt><trkpt lat="44.0503267" lon="11.1331217"><ele>404.0</ele><time>2026-04-25T08:51:08.826Z</time></trkpt><trkpt lat="44.0503517" lon="11.13296"><ele>412.0</ele><time>2026-04-25T08:51:09.834Z</time></trkpt><trkpt lat="44.05036" lon="11.1328217"><ele>412.0</ele><time>2026-04-25T08:51:10.841Z</time></trkpt><trkpt lat="44.0503567" lon="11.132695"><ele>412.0</ele><time>2026-04-25T08:51:11.847Z</time></trkpt><trkpt lat="44.0503633" lon="11.1325733"><ele>412.0</ele><time>2026-04-25T08:51:12.787Z</time></trkpt><trkpt lat="44.050375" lon="11.1324533"><ele>412.0</ele><time>2026-04-25T08:51:13.793Z</time></trkpt><trkpt lat="44.0504117" lon="11.13234"><ele>412.0</ele><time>2026-04-25T08:51:14.8Z</time></trkpt><trkpt lat="44.050475" lon="11.13224"><ele>409.25</ele><time>2026-04-25T08:51:15.806Z</time></trkpt><trkpt lat="44.0505717" lon="11.1321633"><ele>406.5</ele><time>2026-04-25T08:51:16.813Z</time></trkpt><trkpt lat="44.050685" lon="11.13209"><ele>403.75</ele><time>2026-04-25T08:51:17.819Z</time></trkpt><trkpt lat="44.0508017" lon="11.1320067"><ele>401.0</ele><time>2026-04-25T08:51:18.827Z</time></trkpt><trkpt lat="44.0509117" lon="11.1319017"><ele>408.25</ele><time>2026-04-25T08:51:19.833Z</time></trkpt><trkpt lat="44.0510383" lon="11.1317933"><ele>415.5</ele><time>2026-04-25T08:51:20.839Z</time></trkpt><trkpt lat="44.0511617" lon="11.131705"><ele>422.75</ele><time>2026-04-25T08:51:21.847Z</time></trkpt><trkpt lat="44.05129" lon="11.131645"><ele>430.0</ele><time>2026-04-25T08:51:22.786Z</time></trkpt><trkpt lat="44.0513967" lon="11.1315767"><ele>428.25</ele><time>2026-04-25T08:51:23.793Z</time></trkpt><trkpt lat="44.051505" lon="11.1314733"><ele>426.5</ele><time>2026-04-25T08:51:24.799Z</time></trkpt><trkpt lat="44.051595" lon="11.131325"><ele>424.75</ele><time>2026-04-25T08:51:25.805Z</time></trkpt><trkpt lat="44.0516683" lon="11.13115"><ele>423.0</ele><time>2026-04-25T08:51:26.813Z</time></trkpt><trkpt lat="44.05174" lon="11.1309817"><ele>426.0</ele><time>2026-04-25T08:51:27.818Z</time></trkpt><trkpt lat="44.0518317" lon="11.1308233"><ele>429.0</ele><time>2026-04-25T08:51:28.826Z</time></trkpt><trkpt lat="44.0519367" lon="11.1306817"><ele>432.0</ele><time>2026-04-25T08:51:29.832Z</time></trkpt><trkpt lat="44.0520483" lon="11.1305533"><ele>435.0</ele><time>2026-04-25T08:51:30.838Z</time></trkpt><trkpt lat="44.0521583" lon="11.130435"><ele>435.0</ele><time>2026-04-25T08:51:31.846Z</time></trkpt><trkpt lat="44.05226" lon="11.1303367"><ele>435.0</ele><time>2026-04-25T08:51:32.785Z</time></trkpt><trkpt lat="44.0523683" lon="11.1302717"><ele>435.0</ele><time>2026-04-25T08:51:33.792Z</time></trkpt><trkpt lat="44.0524767" lon="11.1302317"><ele>435.0</ele><time>2026-04-25T08:51:34.798Z</time></trkpt><trkpt lat="44.0525733" lon="11.1301933"><ele>440.6</ele><time>2026-04-25T08:51:35.805Z</time></trkpt><trkpt lat="44.052655" lon="11.1301383"><ele>446.2</ele><time>2026-04-25T08:51:36.812Z</time></trkpt><trkpt lat="44.0527233" lon="11.130055"><ele>451.79999999999995</ele><time>2026-04-25T08:51:37.818Z</time></trkpt><trkpt lat="44.0527867" lon="11.1299517"><ele>457.4</ele><time>2026-04-25T08:51:38.824Z</time></trkpt><trkpt lat="44.0528017" lon="11.129815"><ele>463.0</ele><time>2026-04-25T08:51:39.832Z</time></trkpt><trkpt lat="44.0527767" lon="11.1296533"><ele>463.0</ele><time>2026-04-25T08:51:40.837Z</time></trkpt><trkpt lat="44.0527333" lon="11.1294933"><ele>463.0</ele><time>2026-04-25T08:51:41.845Z</time></trkpt><trkpt lat="44.052705" lon="11.1293333"><ele>463.0</ele><time>2026-04-25T08:51:42.784Z</time></trkpt><trkpt lat="44.0526833" lon="11.1291817"><ele>463.0</ele><time>2026-04-25T08:51:43.79Z</time></trkpt><trkpt lat="44.0526867" lon="11.129025"><ele>463.5</ele><time>2026-04-25T08:51:44.798Z</time></trkpt><trkpt lat="44.0527117" lon="11.1288667"><ele>464.0</ele><time>2026-04-25T08:51:45.804Z</time></trkpt><trkpt lat="44.052745" lon="11.1286667"><ele>464.5</ele><time>2026-04-25T08:51:46.811Z</time></trkpt><trkpt lat="44.052775" lon="11.1284633"><ele>465.0</ele><time>2026-04-25T08:51:47.818Z</time></trkpt><trkpt lat="44.0528033" lon="11.1282517"><ele>467.0</ele><time>2026-04-25T08:51:48.824Z</time></trkpt><trkpt lat="44.052835" lon="11.1280267"><ele>469.0</ele><time>2026-04-25T08:51:49.831Z</time></trkpt><trkpt lat="44.0528567" lon="11.127805"><ele>471.0</ele><time>2026-04-25T08:51:50.838Z</time></trkpt><trkpt lat="44.05287" lon="11.1275917"><ele>471.0</ele><time>2026-04-25T08:51:51.844Z</time></trkpt><trkpt lat="44.05288" lon="11.1274183"><ele>471.0</ele><time>2026-04-25T08:51:52.784Z</time></trkpt><trkpt lat="44.0528917" lon="11.1272817"><ele>471.0</ele><time>2026-04-25T08:51:53.79Z</time></trkpt><trkpt lat="44.0529167" lon="11.1271567"><ele>471.0</ele><time>2026-04-25T08:51:54.797Z</time></trkpt><trkpt lat="44.05296" lon="11.12706"><ele>471.0</ele><time>2026-04-25T08:51:55.804Z</time></trkpt><trkpt lat="44.053005" lon="11.1269917"><ele>471.0</ele><time>2026-04-25T08:51:56.809Z</time></trkpt><trkpt lat="44.0531033" lon="11.1269517"><ele>471.0</ele><time>2026-04-25T08:51:58.823Z</time></trkpt><trkpt lat="44.053125" lon="11.1270433"><ele>471.0</ele><time>2026-04-25T08:51:59.83Z</time></trkpt><trkpt lat="44.0531083" lon="11.1272"><ele>471.0</ele><time>2026-04-25T08:52:01.776Z</time></trkpt><trkpt lat="44.0530833" lon="11.127305"><ele>471.0</ele><time>2026-04-25T08:52:02.783Z</time></trkpt><trkpt lat="44.05307" lon="11.12742"><ele>471.0</ele><time>2026-04-25T08:52:03.79Z</time></trkpt><trkpt lat="44.053075" lon="11.1275467"><ele>471.0</ele><time>2026-04-25T08:52:04.796Z</time></trkpt><trkpt lat="44.05309" lon="11.12771"><ele>471.0</ele><time>2026-04-25T08:52:05.803Z</time></trkpt><trkpt lat="44.0530933" lon="11.1278917"><ele>471.0</ele><time>2026-04-25T08:52:06.808Z</time></trkpt><trkpt lat="44.0530883" lon="11.1280783"><ele>471.0</ele><time>2026-04-25T08:52:07.816Z</time></trkpt><trkpt lat="44.0530783" lon="11.1282683"><ele>469.5</ele><time>2026-04-25T08:52:08.823Z</time></trkpt><trkpt lat="44.0530667" lon="11.1284433"><ele>468.0</ele><time>2026-04-25T08:52:09.828Z</time></trkpt><trkpt lat="44.0530583" lon="11.128615"><ele>466.5</ele><time>2026-04-25T08:52:10.836Z</time></trkpt><trkpt lat="44.05306" lon="11.1287817"><ele>465.0</ele><time>2026-04-25T08:52:11.776Z</time></trkpt><trkpt lat="44.05308" lon="11.1289517"><ele>464.5</ele><time>2026-04-25T08:52:12.782Z</time></trkpt><trkpt lat="44.0531317" lon="11.1291283"><ele>464.0</ele><time>2026-04-25T08:52:13.789Z</time></trkpt><trkpt lat="44.0532033" lon="11.1293117"><ele>463.5</ele><time>2026-04-25T08:52:14.794Z</time></trkpt><trkpt lat="44.0532817" lon="11.1294917"><ele>463.0</ele><time>2026-04-25T08:52:15.801Z</time></trkpt><trkpt lat="44.0533533" lon="11.1296633"><ele>472.2</ele><time>2026-04-25T08:52:16.808Z</time></trkpt><trkpt lat="44.0533983" lon="11.1298167"><ele>481.4</ele><time>2026-04-25T08:52:17.815Z</time></trkpt><trkpt lat="44.0534383" lon="11.129945"><ele>490.59999999999997</ele><time>2026-04-25T08:52:18.821Z</time></trkpt><trkpt lat="44.0534867" lon="11.1300333"><ele>499.79999999999995</ele><time>2026-04-25T08:52:19.829Z</time></trkpt><trkpt lat="44.0535567" lon="11.1301033"><ele>509.0</ele><time>2026-04-25T08:52:20.835Z</time></trkpt><trkpt lat="44.053655" lon="11.130145"><ele>509.0</ele><time>2026-04-25T08:52:21.775Z</time></trkpt><trkpt lat="44.0538033" lon="11.13016"><ele>509.0</ele><time>2026-04-25T08:52:22.781Z</time></trkpt><trkpt lat="44.053935" lon="11.1301933"><ele>509.0</ele><time>2026-04-25T08:52:23.788Z</time></trkpt><trkpt lat="44.05406" lon="11.13024"><ele>509.0</ele><time>2026-04-25T08:52:24.794Z</time></trkpt><trkpt lat="44.054165" lon="11.13029"><ele>514.0</ele><time>2026-04-25T08:52:25.801Z</time></trkpt><trkpt lat="44.0542667" lon="11.1303333"><ele>519.0</ele><time>2026-04-25T08:52:26.807Z</time></trkpt><trkpt lat="44.05435" lon="11.130365"><ele>524.0</ele><time>2026-04-25T08:52:27.814Z</time></trkpt><trkpt lat="44.05443" lon="11.1303817"><ele>529.0</ele><time>2026-04-25T08:52:28.821Z</time></trkpt><trkpt lat="44.054525" lon="11.1303417"><ele>534.0</ele><time>2026-04-25T08:52:30.834Z</time></trkpt><trkpt lat="44.0544983" lon="11.130205"><ele>534.0</ele><time>2026-04-25T08:52:32.78Z</time></trkpt><trkpt lat="44.054385" lon="11.130125"><ele>534.0</ele><time>2026-04-25T08:52:33.787Z</time></trkpt><trkpt lat="44.0542817" lon="11.1300517"><ele>534.0</ele><time>2026-04-25T08:52:34.794Z</time></trkpt><trkpt lat="44.05417" lon="11.1299767"><ele>534.0</ele><time>2026-04-25T08:52:35.799Z</time></trkpt><trkpt lat="44.0540517" lon="11.1299067"><ele>530.8</ele><time>2026-04-25T08:52:36.807Z</time></trkpt><trkpt lat="44.0539467" lon="11.129855"><ele>527.5999999999999</ele><time>2026-04-25T08:52:37.814Z</time></trkpt><trkpt lat="44.053855" lon="11.1298083"><ele>524.4</ele><time>2026-04-25T08:52:38.82Z</time></trkpt><trkpt lat="44.0537767" lon="11.129755"><ele>521.1999999999999</ele><time>2026-04-25T08:52:39.827Z</time></trkpt><trkpt lat="44.053705" lon="11.129675"><ele>518.0</ele><time>2026-04-25T08:52:40.767Z</time></trkpt><trkpt lat="44.0536683" lon="11.1295417"><ele>518.0</ele><time>2026-04-25T08:52:41.773Z</time></trkpt><trkpt lat="44.0536567" lon="11.129395"><ele>518.0</ele><time>2026-04-25T08:52:42.78Z</time></trkpt><trkpt lat="44.0536617" lon="11.1292467"><ele>518.0</ele><time>2026-04-25T08:52:43.786Z</time></trkpt><trkpt lat="44.053685" lon="11.1290767"><ele>518.0</ele><time>2026-04-25T08:52:44.86Z</time></trkpt><trkpt lat="44.0537083" lon="11.1288867"><ele>517.0</ele><time>2026-04-25T08:52:45.8Z</time></trkpt><trkpt lat="44.0537283" lon="11.1287167"><ele>516.0</ele><time>2026-04-25T08:52:46.806Z</time></trkpt><trkpt lat="44.0537533" lon="11.1285767"><ele>515.0</ele><time>2026-04-25T08:52:47.813Z</time></trkpt><trkpt lat="44.0537883" lon="11.1284383"><ele>514.0</ele><time>2026-04-25T08:52:48.82Z</time></trkpt><trkpt lat="44.053835" lon="11.1283033"><ele>513.0</ele><time>2026-04-25T08:52:49.826Z</time></trkpt><trkpt lat="44.0538933" lon="11.1281817"><ele>511.6666666666667</ele><time>2026-04-25T08:52:50.766Z</time></trkpt><trkpt lat="44.05395" lon="11.1280733"><ele>510.33333333333337</ele><time>2026-04-25T08:52:51.772Z</time></trkpt><trkpt lat="44.054" lon="11.1279833"><ele>509.0</ele><time>2026-04-25T08:52:52.779Z</time></trkpt><trkpt lat="44.0540517" lon="11.1279233"><ele>507.6666666666667</ele><time>2026-04-25T08:52:53.853Z</time></trkpt><trkpt lat="44.0541083" lon="11.1278833"><ele>506.33333333333337</ele><time>2026-04-25T08:52:54.858Z</time></trkpt><trkpt lat="44.0541833" lon="11.127875"><ele>505.0</ele><time>2026-04-25T08:52:56.806Z</time></trkpt><trkpt lat="44.0541567" lon="11.1280517"><ele>505.0</ele><time>2026-04-25T08:52:58.819Z</time></trkpt><trkpt lat="44.05412" lon="11.1281833"><ele>505.0</ele><time>2026-04-25T08:52:59.825Z</time></trkpt><trkpt lat="44.0540933" lon="11.1283217"><ele>505.0</ele><time>2026-04-25T08:53:00.765Z</time></trkpt><trkpt lat="44.0540683" lon="11.1284717"><ele>505.0</ele><time>2026-04-25T08:53:01.838Z</time></trkpt><trkpt lat="44.0540567" lon="11.1286233"><ele>505.0</ele><time>2026-04-25T08:53:02.845Z</time></trkpt><trkpt lat="44.05406" lon="11.1287767"><ele>506.6</ele><time>2026-04-25T08:53:03.852Z</time></trkpt><trkpt lat="44.0540817" lon="11.1289133"><ele>508.2</ele><time>2026-04-25T08:53:04.858Z</time></trkpt><trkpt lat="44.054125" lon="11.1290683"><ele>509.79999999999995</ele><time>2026-04-25T08:53:05.798Z</time></trkpt><trkpt lat="44.0541833" lon="11.129165"><ele>511.4</ele><time>2026-04-25T08:53:06.805Z</time></trkpt><trkpt lat="44.0542667" lon="11.1292383"><ele>513.0</ele><time>2026-04-25T08:53:07.811Z</time></trkpt><trkpt lat="44.0543667" lon="11.1292933"><ele>523.5</ele><time>2026-04-25T08:53:08.818Z</time></trkpt><trkpt lat="44.0544833" lon="11.1293517"><ele>534.0</ele><time>2026-04-25T08:53:09.824Z</time></trkpt><trkpt lat="44.05459" lon="11.1294067"><ele>544.5</ele><time>2026-04-25T08:53:10.831Z</time></trkpt><trkpt lat="44.0547017" lon="11.1294667"><ele>555.0</ele><time>2026-04-25T08:53:11.838Z</time></trkpt><trkpt lat="44.054805" lon="11.129515"><ele>555.0</ele><time>2026-04-25T08:53:12.845Z</time></trkpt><trkpt lat="44.0548983" lon="11.1295667"><ele>555.0</ele><time>2026-04-25T08:53:13.85Z</time></trkpt><trkpt lat="44.05498" lon="11.12961"><ele>555.0</ele><time>2026-04-25T08:53:14.858Z</time></trkpt><trkpt lat="44.055055" lon="11.129635"><ele>555.0</ele><time>2026-04-25T08:53:15.797Z</time></trkpt><trkpt lat="44.0551183" lon="11.1296333"><ele>555.0</ele><time>2026-04-25T08:53:16.804Z</time></trkpt><trkpt lat="44.0551833" lon="11.12955"><ele>555.0</ele><time>2026-04-25T08:53:18.817Z</time></trkpt><trkpt lat="44.055135" lon="11.12941"><ele>555.0</ele><time>2026-04-25T08:53:20.831Z</time></trkpt><trkpt lat="44.055085" lon="11.1293567"><ele>555.0</ele><time>2026-04-25T08:53:21.837Z</time></trkpt><trkpt lat="44.05499" lon="11.1293183"><ele>555.0</ele><time>2026-04-25T08:53:22.844Z</time></trkpt><trkpt lat="44.0548967" lon="11.1292783"><ele>555.0</ele><time>2026-04-25T08:53:23.849Z</time></trkpt><trkpt lat="44.054805" lon="11.1292283"><ele>555.0</ele><time>2026-04-25T08:53:24.79Z</time></trkpt><trkpt lat="44.0547367" lon="11.1291683"><ele>555.0</ele><time>2026-04-25T08:53:25.796Z</time></trkpt><trkpt lat="44.0546933" lon="11.1290833"><ele>554.4</ele><time>2026-04-25T08:53:26.803Z</time></trkpt><trkpt lat="44.0546633" lon="11.128975"><ele>553.8</ele><time>2026-04-25T08:53:27.81Z</time></trkpt><trkpt lat="44.0546517" lon="11.1288267"><ele>553.2</ele><time>2026-04-25T08:53:28.816Z</time></trkpt><trkpt lat="44.0546517" lon="11.128675"><ele>552.6</ele><time>2026-04-25T08:53:29.823Z</time></trkpt><trkpt lat="44.05467" lon="11.1285"><ele>552.0</ele><time>2026-04-25T08:53:30.83Z</time></trkpt><trkpt lat="44.0546933" lon="11.12833"><ele>550.0</ele><time>2026-04-25T08:53:31.836Z</time></trkpt><trkpt lat="44.0547217" lon="11.1281867"><ele>548.0</ele><time>2026-04-25T08:53:32.842Z</time></trkpt><trkpt lat="44.0547567" lon="11.128065"><ele>546.0</ele><time>2026-04-25T08:53:33.849Z</time></trkpt><trkpt lat="44.0547933" lon="11.127975"><ele>544.0</ele><time>2026-04-25T08:53:34.789Z</time></trkpt><trkpt lat="44.0548383" lon="11.1279117"><ele>542.0</ele><time>2026-04-25T08:53:35.796Z</time></trkpt><trkpt lat="44.0549367" lon="11.1278783"><ele>540.0</ele><time>2026-04-25T08:53:37.808Z</time></trkpt><trkpt lat="44.0550283" lon="11.1279933"><ele>547.2</ele><time>2026-04-25T08:53:39.822Z</time></trkpt><trkpt lat="44.0550317" lon="11.128115"><ele>554.4</ele><time>2026-04-25T08:53:40.829Z</time></trkpt><trkpt lat="44.055035" lon="11.1282483"><ele>561.6</ele><time>2026-04-25T08:53:41.836Z</time></trkpt><trkpt lat="44.0550483" lon="11.1283967"><ele>568.8</ele><time>2026-04-25T08:53:42.842Z</time></trkpt><trkpt lat="44.0550717" lon="11.1285333"><ele>576.0</ele><time>2026-04-25T08:53:43.849Z</time></trkpt><trkpt lat="44.0551" lon="11.128665"><ele>576.5</ele><time>2026-04-25T08:53:44.788Z</time></trkpt><trkpt lat="44.0551367" lon="11.128775"><ele>577.0</ele><time>2026-04-25T08:53:45.795Z</time></trkpt><trkpt lat="44.0551783" lon="11.1288767"><ele>577.5</ele><time>2026-04-25T08:53:46.801Z</time></trkpt><trkpt lat="44.055235" lon="11.1289617"><ele>578.0</ele><time>2026-04-25T08:53:47.808Z</time></trkpt><trkpt lat="44.05531" lon="11.1290333"><ele>578.5</ele><time>2026-04-25T08:53:48.815Z</time></trkpt><trkpt lat="44.05539" lon="11.1291067"><ele>579.0</ele><time>2026-04-25T08:53:49.822Z</time></trkpt><trkpt lat="44.0554617" lon="11.1291717"><ele>579.0</ele><time>2026-04-25T08:53:50.828Z</time></trkpt><trkpt lat="44.05552" lon="11.1292217"><ele>579.0</ele><time>2026-04-25T08:53:51.834Z</time></trkpt><trkpt lat="44.0556367" lon="11.1292383"><ele>579.0</ele><time>2026-04-25T08:53:53.848Z</time></trkpt><trkpt lat="44.0556833" lon="11.1290817"><ele>579.0</ele><time>2026-04-25T08:53:55.793Z</time></trkpt><trkpt lat="44.0556367" lon="11.128895"><ele>580.2</ele><time>2026-04-25T08:53:57.808Z</time></trkpt><trkpt lat="44.05559" lon="11.1287883"><ele>581.4</ele><time>2026-04-25T08:53:58.813Z</time></trkpt><trkpt lat="44.0555317" lon="11.1286833"><ele>582.6</ele><time>2026-04-25T08:53:59.821Z</time></trkpt><trkpt lat="44.055475" lon="11.128575"><ele>583.8</ele><time>2026-04-25T08:54:00.826Z</time></trkpt><trkpt lat="44.0554233" lon="11.12846"><ele>585.0</ele><time>2026-04-25T08:54:01.834Z</time></trkpt><trkpt lat="44.05539" lon="11.1283467"><ele>585.0</ele><time>2026-04-25T08:54:02.841Z</time></trkpt><trkpt lat="44.0553683" lon="11.12824"><ele>585.0</ele><time>2026-04-25T08:54:03.847Z</time></trkpt><trkpt lat="44.0553583" lon="11.1281267"><ele>585.0</ele><time>2026-04-25T08:54:04.787Z</time></trkpt><trkpt lat="44.0553667" lon="11.1280067"><ele>585.0</ele><time>2026-04-25T08:54:05.793Z</time></trkpt><trkpt lat="44.0553883" lon="11.1278833"><ele>585.0</ele><time>2026-04-25T08:54:06.8Z</time></trkpt><trkpt lat="44.0554183" lon="11.127765"><ele>585.0</ele><time>2026-04-25T08:54:07.807Z</time></trkpt><trkpt lat="44.0554617" lon="11.1276533"><ele>583.8</ele><time>2026-04-25T08:54:08.812Z</time></trkpt><trkpt lat="44.0555183" lon="11.1275567"><ele>582.6</ele><time>2026-04-25T08:54:09.819Z</time></trkpt><trkpt lat="44.0555867" lon="11.1274717"><ele>581.4</ele><time>2026-04-25T08:54:10.827Z</time></trkpt><trkpt lat="44.05566" lon="11.1273933"><ele>580.2</ele><time>2026-04-25T08:54:11.833Z</time></trkpt><trkpt lat="44.055735" lon="11.1273133"><ele>579.0</ele><time>2026-04-25T08:54:12.84Z</time></trkpt><trkpt lat="44.055815" lon="11.1272217"><ele>583.75</ele><time>2026-04-25T08:54:13.778Z</time></trkpt><trkpt lat="44.0558983" lon="11.1271217"><ele>588.5</ele><time>2026-04-25T08:54:14.786Z</time></trkpt><trkpt lat="44.055985" lon="11.1270167"><ele>593.25</ele><time>2026-04-25T08:54:15.793Z</time></trkpt><trkpt lat="44.0560733" lon="11.1269067"><ele>598.0</ele><time>2026-04-25T08:54:16.799Z</time></trkpt><trkpt lat="44.056155" lon="11.126795"><ele>598.0</ele><time>2026-04-25T08:54:17.806Z</time></trkpt><trkpt lat="44.05623" lon="11.1266817"><ele>598.0</ele><time>2026-04-25T08:54:18.812Z</time></trkpt><trkpt lat="44.0562967" lon="11.126565"><ele>598.0</ele><time>2026-04-25T08:54:19.819Z</time></trkpt><trkpt lat="44.0563583" lon="11.1264517"><ele>598.0</ele><time>2026-04-25T08:54:20.826Z</time></trkpt><trkpt lat="44.05642" lon="11.1263367"><ele>598.0</ele><time>2026-04-25T08:54:21.832Z</time></trkpt><trkpt lat="44.056475" lon="11.12622"><ele>598.0</ele><time>2026-04-25T08:54:22.839Z</time></trkpt><trkpt lat="44.05652" lon="11.1261017"><ele>598.0</ele><time>2026-04-25T08:54:23.778Z</time></trkpt><trkpt lat="44.0565367" lon="11.1259717"><ele>598.0</ele><time>2026-04-25T08:54:24.784Z</time></trkpt><trkpt lat="44.05652" lon="11.1258367"><ele>598.0</ele><time>2026-04-25T08:54:25.792Z</time></trkpt><trkpt lat="44.056485" lon="11.1256983"><ele>598.0</ele><time>2026-04-25T08:54:26.799Z</time></trkpt><trkpt lat="44.0564383" lon="11.1255533"><ele>599.1999999999999</ele><time>2026-04-25T08:54:27.805Z</time></trkpt><trkpt lat="44.0563933" lon="11.1254083"><ele>600.4</ele><time>2026-04-25T08:54:28.811Z</time></trkpt><trkpt lat="44.0563417" lon="11.12527"><ele>601.5999999999999</ele><time>2026-04-25T08:54:29.818Z</time></trkpt><trkpt lat="44.0562883" lon="11.125145"><ele>602.8</ele><time>2026-04-25T08:54:30.824Z</time></trkpt><trkpt lat="44.056245" lon="11.1250367"><ele>604.0</ele><time>2026-04-25T08:54:31.832Z</time></trkpt><trkpt lat="44.0562067" lon="11.1249417"><ele>607.2</ele><time>2026-04-25T08:54:32.837Z</time></trkpt><trkpt lat="44.0561833" lon="11.1248483"><ele>610.4</ele><time>2026-04-25T08:54:33.778Z</time></trkpt><trkpt lat="44.05618" lon="11.124755"><ele>613.6</ele><time>2026-04-25T08:54:34.784Z</time></trkpt><trkpt lat="44.0561917" lon="11.1246617"><ele>616.8</ele><time>2026-04-25T08:54:35.79Z</time></trkpt><trkpt lat="44.0563067" lon="11.1246267"><ele>620.0</ele><time>2026-04-25T08:54:37.803Z</time></trkpt><trkpt lat="44.05643" lon="11.12475"><ele>620.0</ele><time>2026-04-25T08:54:39.818Z</time></trkpt><trkpt lat="44.0564933" lon="11.1248767"><ele>620.0</ele><time>2026-04-25T08:54:40.824Z</time></trkpt><trkpt lat="44.0565633" lon="11.1250183"><ele>620.0</ele><time>2026-04-25T08:54:41.831Z</time></trkpt><trkpt lat="44.0566417" lon="11.12517"><ele>620.0</ele><time>2026-04-25T08:54:42.838Z</time></trkpt><trkpt lat="44.05672" lon="11.12532"><ele>620.5</ele><time>2026-04-25T08:54:43.777Z</time></trkpt><trkpt lat="44.0567867" lon="11.125475"><ele>621.0</ele><time>2026-04-25T08:54:44.783Z</time></trkpt><trkpt lat="44.05684" lon="11.1256367"><ele>621.5</ele><time>2026-04-25T08:54:45.79Z</time></trkpt><trkpt lat="44.05688" lon="11.1258083"><ele>622.0</ele><time>2026-04-25T08:54:46.797Z</time></trkpt><trkpt lat="44.05691" lon="11.1259817"><ele>622.0</ele><time>2026-04-25T08:54:47.803Z</time></trkpt><trkpt lat="44.0569317" lon="11.126155"><ele>622.0</ele><time>2026-04-25T08:54:48.81Z</time></trkpt><trkpt lat="44.0569467" lon="11.126345"><ele>622.0</ele><time>2026-04-25T08:54:49.816Z</time></trkpt><trkpt lat="44.056955" lon="11.1265467"><ele>622.0</ele><time>2026-04-25T08:54:50.824Z</time></trkpt><trkpt lat="44.0569533" lon="11.12674"><ele>621.75</ele><time>2026-04-25T08:54:51.83Z</time></trkpt><trkpt lat="44.0569383" lon="11.1269167"><ele>621.5</ele><time>2026-04-25T08:54:52.837Z</time></trkpt><trkpt lat="44.0569217" lon="11.1270833"><ele>621.25</ele><time>2026-04-25T08:54:53.776Z</time></trkpt><trkpt lat="44.056905" lon="11.127235"><ele>621.0</ele><time>2026-04-25T08:54:54.783Z</time></trkpt><trkpt lat="44.05688" lon="11.1273617"><ele>622.6666666666666</ele><time>2026-04-25T08:54:55.79Z</time></trkpt><trkpt lat="44.05685" lon="11.1274617"><ele>624.3333333333334</ele><time>2026-04-25T08:54:56.795Z</time></trkpt><trkpt lat="44.0568267" lon="11.127555"><ele>626.0</ele><time>2026-04-25T08:54:57.802Z</time></trkpt><trkpt lat="44.0568217" lon="11.1276533"><ele>627.6666666666667</ele><time>2026-04-25T08:54:58.809Z</time></trkpt><trkpt lat="44.0568317" lon="11.1277417"><ele>629.3333333333334</ele><time>2026-04-25T08:54:59.816Z</time></trkpt><trkpt lat="44.056875" lon="11.1278817"><ele>631.0</ele><time>2026-04-25T08:55:01.829Z</time></trkpt><trkpt lat="44.0569133" lon="11.1279633"><ele>631.0</ele><time>2026-04-25T08:55:02.769Z</time></trkpt><trkpt lat="44.0569733" lon="11.1280183"><ele>631.0</ele><time>2026-04-25T08:55:03.775Z</time></trkpt><trkpt lat="44.05706" lon="11.128075"><ele>631.0</ele><time>2026-04-25T08:55:04.781Z</time></trkpt><trkpt lat="44.0571533" lon="11.1281267"><ele>631.0</ele><time>2026-04-25T08:55:05.788Z</time></trkpt><trkpt lat="44.0572333" lon="11.128155"><ele>631.0</ele><time>2026-04-25T08:55:06.794Z</time></trkpt><trkpt lat="44.0573067" lon="11.1281667"><ele>631.0</ele><time>2026-04-25T08:55:07.801Z</time></trkpt><trkpt lat="44.0574017" lon="11.1281783"><ele>633.0</ele><time>2026-04-25T08:55:08.809Z</time></trkpt><trkpt lat="44.0574717" lon="11.1281667"><ele>635.0</ele><time>2026-04-25T08:55:09.815Z</time></trkpt><trkpt lat="44.0575317" lon="11.128125"><ele>637.0</ele><time>2026-04-25T08:55:10.822Z</time></trkpt><trkpt lat="44.0575683" lon="11.1280417"><ele>639.0</ele><time>2026-04-25T08:55:11.829Z</time></trkpt><trkpt lat="44.0575833" lon="11.1279417"><ele>641.0</ele><time>2026-04-25T08:55:12.767Z</time></trkpt><trkpt lat="44.05758" lon="11.1278367"><ele>643.0</ele><time>2026-04-25T08:55:13.775Z</time></trkpt><trkpt lat="44.057555" lon="11.1276767"><ele>643.0</ele><time>2026-04-25T08:55:15.855Z</time></trkpt><trkpt lat="44.0575267" lon="11.12756"><ele>643.0</ele><time>2026-04-25T08:55:17.801Z</time></trkpt><trkpt lat="44.0575183" lon="11.1274633"><ele>643.0</ele><time>2026-04-25T08:55:19.814Z</time></trkpt><trkpt lat="44.0575" lon="11.1273733"><ele>643.0</ele><time>2026-04-25T08:55:21.828Z</time></trkpt><trkpt lat="44.0574817" lon="11.1272333"><ele>643.0</ele><time>2026-04-25T08:55:23.774Z</time></trkpt><trkpt lat="44.05749" lon="11.1270617"><ele>643.5</ele><time>2026-04-25T08:55:25.854Z</time></trkpt><trkpt lat="44.0575017" lon="11.1269633"><ele>644.0</ele><time>2026-04-25T08:55:26.861Z</time></trkpt><trkpt lat="44.057525" lon="11.1268617"><ele>644.5</ele><time>2026-04-25T08:55:27.8Z</time></trkpt><trkpt lat="44.0575483" lon="11.1267517"><ele>645.0</ele><time>2026-04-25T08:55:28.806Z</time></trkpt><trkpt lat="44.0575833" lon="11.1266283"><ele>645.5</ele><time>2026-04-25T08:55:29.814Z</time></trkpt><trkpt lat="44.0576083" lon="11.1265033"><ele>646.0</ele><time>2026-04-25T08:55:30.82Z</time></trkpt><trkpt lat="44.057645" lon="11.1263883"><ele>646.5999999999999</ele><time>2026-04-25T08:55:31.827Z</time></trkpt><trkpt lat="44.0577" lon="11.1262817"><ele>647.2</ele><time>2026-04-25T08:55:32.834Z</time></trkpt><trkpt lat="44.0577567" lon="11.126175"><ele>647.8</ele><time>2026-04-25T08:55:33.84Z</time></trkpt><trkpt lat="44.0578283" lon="11.1260867"><ele>648.4000000000001</ele><time>2026-04-25T08:55:34.847Z</time></trkpt><trkpt lat="44.057905" lon="11.1260217"><ele>649.0</ele><time>2026-04-25T08:55:35.854Z</time></trkpt><trkpt lat="44.057985" lon="11.1259683"><ele>649.0</ele><time>2026-04-25T08:55:36.86Z</time></trkpt><trkpt lat="44.0580533" lon="11.1259067"><ele>649.0</ele><time>2026-04-25T08:55:37.8Z</time></trkpt><trkpt lat="44.05811" lon="11.1258217"><ele>649.0</ele><time>2026-04-25T08:55:38.806Z</time></trkpt><trkpt lat="44.05816" lon="11.125715"><ele>649.0</ele><time>2026-04-25T08:55:39.812Z</time></trkpt><trkpt lat="44.05822" lon="11.1256067"><ele>649.0</ele><time>2026-04-25T08:55:40.819Z</time></trkpt><trkpt lat="44.05828" lon="11.1254933"><ele>650.4000000000001</ele><time>2026-04-25T08:55:41.826Z</time></trkpt><trkpt lat="44.0583367" lon="11.1253683"><ele>651.8</ele><time>2026-04-25T08:55:42.832Z</time></trkpt><trkpt lat="44.0583817" lon="11.1252267"><ele>653.2</ele><time>2026-04-25T08:55:43.839Z</time></trkpt><trkpt lat="44.0584283" lon="11.12508"><ele>654.5999999999999</ele><time>2026-04-25T08:55:44.846Z</time></trkpt><trkpt lat="44.0584833" lon="11.1249383"><ele>656.0</ele><time>2026-04-25T08:55:45.852Z</time></trkpt><trkpt lat="44.05855" lon="11.124815"><ele>660.1999999999999</ele><time>2026-04-25T08:55:46.792Z</time></trkpt><trkpt lat="44.0586283" lon="11.1247067"><ele>664.4</ele><time>2026-04-25T08:55:47.799Z</time></trkpt><trkpt lat="44.0587083" lon="11.124615"><ele>668.6</ele><time>2026-04-25T08:55:48.806Z</time></trkpt><trkpt lat="44.05878" lon="11.1245383"><ele>672.8</ele><time>2026-04-25T08:55:49.812Z</time></trkpt><trkpt lat="44.0588517" lon="11.1244633"><ele>677.0</ele><time>2026-04-25T08:55:50.819Z</time></trkpt><trkpt lat="44.0589283" lon="11.124395"><ele>677.0</ele><time>2026-04-25T08:55:51.825Z</time></trkpt><trkpt lat="44.0590133" lon="11.12434"><ele>677.0</ele><time>2026-04-25T08:55:52.832Z</time></trkpt><trkpt lat="44.059105" lon="11.1242933"><ele>677.0</ele><time>2026-04-25T08:55:53.838Z</time></trkpt><trkpt lat="44.0591933" lon="11.1242517"><ele>677.0</ele><time>2026-04-25T08:55:54.845Z</time></trkpt><trkpt lat="44.05927" lon="11.12419"><ele>677.0</ele><time>2026-04-25T08:55:55.852Z</time></trkpt><trkpt lat="44.0593217" lon="11.1240933"><ele>679.5</ele><time>2026-04-25T08:55:56.791Z</time></trkpt><trkpt lat="44.0593567" lon="11.1239833"><ele>682.0</ele><time>2026-04-25T08:55:57.798Z</time></trkpt><trkpt lat="44.0593833" lon="11.123885"><ele>684.5</ele><time>2026-04-25T08:55:58.804Z</time></trkpt><trkpt lat="44.0594183" lon="11.1237917"><ele>687.0</ele><time>2026-04-25T08:55:59.81Z</time></trkpt><trkpt lat="44.05947" lon="11.1237183"><ele>689.5</ele><time>2026-04-25T08:56:00.818Z</time></trkpt><trkpt lat="44.0595567" lon="11.1237"><ele>692.0</ele><time>2026-04-25T08:56:01.824Z</time></trkpt><trkpt lat="44.0596467" lon="11.1237133"><ele>692.0</ele><time>2026-04-25T08:56:02.831Z</time></trkpt><trkpt lat="44.0597417" lon="11.1237567"><ele>692.0</ele><time>2026-04-25T08:56:03.838Z</time></trkpt><trkpt lat="44.0598383" lon="11.1238083"><ele>692.0</ele><time>2026-04-25T08:56:04.845Z</time></trkpt><trkpt lat="44.059935" lon="11.1238617"><ele>692.0</ele><time>2026-04-25T08:56:05.851Z</time></trkpt><trkpt lat="44.0600267" lon="11.1239133"><ele>692.0</ele><time>2026-04-25T08:56:06.791Z</time></trkpt><trkpt lat="44.06011" lon="11.1239533"><ele>691.0</ele><time>2026-04-25T08:56:07.796Z</time></trkpt><trkpt lat="44.060185" lon="11.12397"><ele>690.0</ele><time>2026-04-25T08:56:08.804Z</time></trkpt><trkpt lat="44.0602483" lon="11.1239533"><ele>689.0</ele><time>2026-04-25T08:56:09.811Z</time></trkpt><trkpt lat="44.060305" lon="11.123875"><ele>688.0</ele><time>2026-04-25T08:56:10.816Z</time></trkpt><trkpt lat="44.0603517" lon="11.1237733"><ele>687.0</ele><time>2026-04-25T08:56:11.824Z</time></trkpt><trkpt lat="44.06038" lon="11.1236533"><ele>686.0</ele><time>2026-04-25T08:56:12.831Z</time></trkpt><trkpt lat="44.0603983" lon="11.1235233"><ele>686.0</ele><time>2026-04-25T08:56:13.837Z</time></trkpt><trkpt lat="44.0604217" lon="11.1233967"><ele>686.0</ele><time>2026-04-25T08:56:14.844Z</time></trkpt><trkpt lat="44.0604733" lon="11.12329"><ele>686.0</ele><time>2026-04-25T08:56:15.85Z</time></trkpt><trkpt lat="44.06054" lon="11.123195"><ele>686.0</ele><time>2026-04-25T08:56:16.79Z</time></trkpt><trkpt lat="44.0606167" lon="11.123105"><ele>686.0</ele><time>2026-04-25T08:56:17.797Z</time></trkpt><trkpt lat="44.060695" lon="11.123"><ele>686.25</ele><time>2026-04-25T08:56:18.803Z</time></trkpt><trkpt lat="44.0607683" lon="11.1228567"><ele>686.5</ele><time>2026-04-25T08:56:19.81Z</time></trkpt><trkpt lat="44.0608367" lon="11.1227"><ele>686.75</ele><time>2026-04-25T08:56:20.816Z</time></trkpt><trkpt lat="44.06091" lon="11.1225467"><ele>687.0</ele><time>2026-04-25T08:56:21.823Z</time></trkpt><trkpt lat="44.0609967" lon="11.122415"><ele>688.5</ele><time>2026-04-25T08:56:22.83Z</time></trkpt><trkpt lat="44.0610917" lon="11.1222867"><ele>690.0</ele><time>2026-04-25T08:56:23.836Z</time></trkpt><trkpt lat="44.0611883" lon="11.122155"><ele>691.5</ele><time>2026-04-25T08:56:24.843Z</time></trkpt><trkpt lat="44.0612883" lon="11.122025"><ele>693.0</ele><time>2026-04-25T08:56:25.783Z</time></trkpt><trkpt lat="44.0613917" lon="11.1218767"><ele>693.0</ele><time>2026-04-25T08:56:26.789Z</time></trkpt><trkpt lat="44.0615033" lon="11.1217167"><ele>693.0</ele><time>2026-04-25T08:56:27.796Z</time></trkpt><trkpt lat="44.06162" lon="11.1215683"><ele>693.0</ele><time>2026-04-25T08:56:28.802Z</time></trkpt><trkpt lat="44.0617417" lon="11.121425"><ele>687.75</ele><time>2026-04-25T08:56:29.809Z</time></trkpt><trkpt lat="44.061855" lon="11.121315"><ele>682.5</ele><time>2026-04-25T08:56:30.816Z</time></trkpt><trkpt lat="44.061955" lon="11.1212233"><ele>677.25</ele><time>2026-04-25T08:56:31.822Z</time></trkpt><trkpt lat="44.0620433" lon="11.1211567"><ele>672.0</ele><time>2026-04-25T08:56:32.829Z</time></trkpt><trkpt lat="44.062135" lon="11.121115"><ele>672.0</ele><time>2026-04-25T08:56:33.835Z</time></trkpt><trkpt lat="44.062235" lon="11.12111"><ele>672.0</ele><time>2026-04-25T08:56:34.842Z</time></trkpt><trkpt lat="44.06234" lon="11.1211333"><ele>672.0</ele><time>2026-04-25T08:56:35.782Z</time></trkpt><trkpt lat="44.062455" lon="11.1211583"><ele>672.0</ele><time>2026-04-25T08:56:36.788Z</time></trkpt><trkpt lat="44.0625717" lon="11.1211717"><ele>672.0</ele><time>2026-04-25T08:56:37.795Z</time></trkpt><trkpt lat="44.062695" lon="11.1211667"><ele>675.75</ele><time>2026-04-25T08:56:38.801Z</time></trkpt><trkpt lat="44.0628133" lon="11.1211367"><ele>679.5</ele><time>2026-04-25T08:56:39.808Z</time></trkpt><trkpt lat="44.0629333" lon="11.1210867"><ele>683.25</ele><time>2026-04-25T08:56:40.814Z</time></trkpt><trkpt lat="44.0630533" lon="11.1210417"><ele>687.0</ele><time>2026-04-25T08:56:41.822Z</time></trkpt><trkpt lat="44.063175" lon="11.1210133"><ele>689.5</ele><time>2026-04-25T08:56:42.828Z</time></trkpt><trkpt lat="44.0633" lon="11.1209933"><ele>692.0</ele><time>2026-04-25T08:56:43.835Z</time></trkpt><trkpt lat="44.0634233" lon="11.1209767"><ele>694.5</ele><time>2026-04-25T08:56:44.841Z</time></trkpt><trkpt lat="44.0635517" lon="11.1209683"><ele>697.0</ele><time>2026-04-25T08:56:45.78Z</time></trkpt><trkpt lat="44.0636783" lon="11.1209567"><ele>697.0</ele><time>2026-04-25T08:56:46.787Z</time></trkpt><trkpt lat="44.0638017" lon="11.120935"><ele>697.0</ele><time>2026-04-25T08:56:47.793Z</time></trkpt><trkpt lat="44.0639317" lon="11.1209067"><ele>697.0</ele><time>2026-04-25T08:56:48.801Z</time></trkpt><trkpt lat="44.0640717" lon="11.1208817"><ele>697.0</ele><time>2026-04-25T08:56:49.808Z</time></trkpt><trkpt lat="44.0642017" lon="11.120855"><ele>701.8</ele><time>2026-04-25T08:56:50.813Z</time></trkpt><trkpt lat="44.0643133" lon="11.1208283"><ele>706.6</ele><time>2026-04-25T08:56:51.821Z</time></trkpt><trkpt lat="44.0644083" lon="11.120805"><ele>711.4</ele><time>2026-04-25T08:56:52.827Z</time></trkpt><trkpt lat="44.06449" lon="11.1207967"><ele>716.1999999999999</ele><time>2026-04-25T08:56:53.834Z</time></trkpt><trkpt lat="44.0645717" lon="11.1208"><ele>721.0</ele><time>2026-04-25T08:56:54.841Z</time></trkpt><trkpt lat="44.064655" lon="11.1207867"><ele>721.0</ele><time>2026-04-25T08:56:55.78Z</time></trkpt><trkpt lat="44.0647417" lon="11.1207467"><ele>721.0</ele><time>2026-04-25T08:56:56.787Z</time></trkpt><trkpt lat="44.0648367" lon="11.1206967"><ele>721.0</ele><time>2026-04-25T08:56:57.792Z</time></trkpt><trkpt lat="44.06495" lon="11.120625"><ele>721.0</ele><time>2026-04-25T08:56:58.8Z</time></trkpt><trkpt lat="44.0650633" lon="11.120555"><ele>721.0</ele><time>2026-04-25T08:56:59.806Z</time></trkpt><trkpt lat="44.0651833" lon="11.12049"><ele>718.25</ele><time>2026-04-25T08:57:00.813Z</time></trkpt><trkpt lat="44.0653083" lon="11.120435"><ele>715.5</ele><time>2026-04-25T08:57:01.82Z</time></trkpt><trkpt lat="44.065435" lon="11.1203967"><ele>712.75</ele><time>2026-04-25T08:57:02.827Z</time></trkpt><trkpt lat="44.0655683" lon="11.12036"><ele>710.0</ele><time>2026-04-25T08:57:03.833Z</time></trkpt><trkpt lat="44.065695" lon="11.120335"><ele>711.75</ele><time>2026-04-25T08:57:04.839Z</time></trkpt><trkpt lat="44.065825" lon="11.120305"><ele>713.5</ele><time>2026-04-25T08:57:05.779Z</time></trkpt><trkpt lat="44.0659567" lon="11.1202717"><ele>715.25</ele><time>2026-04-25T08:57:06.785Z</time></trkpt><trkpt lat="44.0660833" lon="11.1202367"><ele>717.0</ele><time>2026-04-25T08:57:07.792Z</time></trkpt><trkpt lat="44.0662033" lon="11.120195"><ele>717.0</ele><time>2026-04-25T08:57:08.799Z</time></trkpt><trkpt lat="44.0663183" lon="11.1201517"><ele>717.0</ele><time>2026-04-25T08:57:09.806Z</time></trkpt><trkpt lat="44.0664267" lon="11.1201133"><ele>717.0</ele><time>2026-04-25T08:57:10.813Z</time></trkpt><trkpt lat="44.0665317" lon="11.12008"><ele>717.0</ele><time>2026-04-25T08:57:11.819Z</time></trkpt><trkpt lat="44.0666367" lon="11.1200483"><ele>717.0</ele><time>2026-04-25T08:57:12.826Z</time></trkpt><trkpt lat="44.0667433" lon="11.1200133"><ele>717.6</ele><time>2026-04-25T08:57:13.832Z</time></trkpt><trkpt lat="44.066845" lon="11.11997"><ele>718.2</ele><time>2026-04-25T08:57:14.772Z</time></trkpt><trkpt lat="44.0669483" lon="11.1199233"><ele>718.8</ele><time>2026-04-25T08:57:15.778Z</time></trkpt><trkpt lat="44.0670467" lon="11.11988"><ele>719.4</ele><time>2026-04-25T08:57:16.785Z</time></trkpt><trkpt lat="44.0671433" lon="11.1198317"><ele>720.0</ele><time>2026-04-25T08:57:17.792Z</time></trkpt><trkpt lat="44.067235" lon="11.1197583"><ele>720.0</ele><time>2026-04-25T08:57:18.799Z</time></trkpt><trkpt lat="44.0673217" lon="11.1196633"><ele>720.0</ele><time>2026-04-25T08:57:19.805Z</time></trkpt><trkpt lat="44.0674117" lon="11.1195817"><ele>720.0</ele><time>2026-04-25T08:57:20.812Z</time></trkpt><trkpt lat="44.0675167" lon="11.1195317"><ele>720.0</ele><time>2026-04-25T08:57:21.818Z</time></trkpt><trkpt lat="44.0676383" lon="11.119505"><ele>729.75</ele><time>2026-04-25T08:57:22.825Z</time></trkpt><trkpt lat="44.0677633" lon="11.119485"><ele>739.5</ele><time>2026-04-25T08:57:23.831Z</time></trkpt><trkpt lat="44.0678867" lon="11.1194567"><ele>749.25</ele><time>2026-04-25T08:57:24.771Z</time></trkpt><trkpt lat="44.06801" lon="11.1194267"><ele>759.0</ele><time>2026-04-25T08:57:25.778Z</time></trkpt><trkpt lat="44.06813" lon="11.1194017"><ele>759.0</ele><time>2026-04-25T08:57:26.785Z</time></trkpt><trkpt lat="44.068255" lon="11.119385"><ele>759.0</ele><time>2026-04-25T08:57:27.791Z</time></trkpt><trkpt lat="44.068385" lon="11.1193867"><ele>759.0</ele><time>2026-04-25T08:57:28.798Z</time></trkpt><trkpt lat="44.0685167" lon="11.1194"><ele>759.0</ele><time>2026-04-25T08:57:29.803Z</time></trkpt><trkpt lat="44.0686467" lon="11.1194167"><ele>760.6</ele><time>2026-04-25T08:57:30.811Z</time></trkpt><trkpt lat="44.0687633" lon="11.11944"><ele>762.2</ele><time>2026-04-25T08:57:31.818Z</time></trkpt><trkpt lat="44.068885" lon="11.119465"><ele>763.8000000000001</ele><time>2026-04-25T08:57:32.824Z</time></trkpt><trkpt lat="44.0689817" lon="11.1195217"><ele>765.4000000000001</ele><time>2026-04-25T08:57:33.83Z</time></trkpt><trkpt lat="44.0690583" lon="11.1196017"><ele>767.0</ele><time>2026-04-25T08:57:34.769Z</time></trkpt><trkpt lat="44.069115" lon="11.1197117"><ele>767.4000000000001</ele><time>2026-04-25T08:57:35.776Z</time></trkpt><trkpt lat="44.0691567" lon="11.1198383"><ele>767.8000000000001</ele><time>2026-04-25T08:57:36.784Z</time></trkpt><trkpt lat="44.0692033" lon="11.1199667"><ele>768.2</ele><time>2026-04-25T08:57:37.79Z</time></trkpt><trkpt lat="44.069265" lon="11.1200767"><ele>768.6</ele><time>2026-04-25T08:57:38.863Z</time></trkpt><trkpt lat="44.0693383" lon="11.1201783"><ele>769.0</ele><time>2026-04-25T08:57:39.804Z</time></trkpt><trkpt lat="44.0694233" lon="11.1202567"><ele>769.0</ele><time>2026-04-25T08:57:40.81Z</time></trkpt><trkpt lat="44.0695067" lon="11.1203083"><ele>769.0</ele><time>2026-04-25T08:57:41.817Z</time></trkpt><trkpt lat="44.0695967" lon="11.1203167"><ele>769.0</ele><time>2026-04-25T08:57:42.824Z</time></trkpt><trkpt lat="44.06969" lon="11.1202867"><ele>769.0</ele><time>2026-04-25T08:57:43.83Z</time></trkpt><trkpt lat="44.0697833" lon="11.1202167"><ele>769.0</ele><time>2026-04-25T08:57:44.77Z</time></trkpt><trkpt lat="44.069875" lon="11.120105"><ele>772.25</ele><time>2026-04-25T08:57:45.776Z</time></trkpt><trkpt lat="44.069965" lon="11.1199717"><ele>775.5</ele><time>2026-04-25T08:57:46.85Z</time></trkpt><trkpt lat="44.0700433" lon="11.1198233"><ele>778.75</ele><time>2026-04-25T08:57:47.857Z</time></trkpt><trkpt lat="44.07011" lon="11.11966"><ele>782.0</ele><time>2026-04-25T08:57:48.863Z</time></trkpt><trkpt lat="44.0701717" lon="11.1195033"><ele>784.6666666666667</ele><time>2026-04-25T08:57:49.803Z</time></trkpt><trkpt lat="44.07023" lon="11.1193683"><ele>787.3333333333334</ele><time>2026-04-25T08:57:50.808Z</time></trkpt><trkpt lat="44.0702717" lon="11.1192583"><ele>790.0</ele><time>2026-04-25T08:57:51.816Z</time></trkpt><trkpt lat="44.0703" lon="11.1191617"><ele>792.6666666666667</ele><time>2026-04-25T08:57:52.823Z</time></trkpt><trkpt lat="44.07031" lon="11.1190333"><ele>795.3333333333334</ele><time>2026-04-25T08:57:54.769Z</time></trkpt><trkpt lat="44.0702517" lon="11.11898"><ele>798.0</ele><time>2026-04-25T08:57:57.856Z</time></trkpt><trkpt lat="44.0701933" lon="11.1190233"><ele>798.0</ele><time>2026-04-25T08:57:58.794Z</time></trkpt><trkpt lat="44.07011" lon="11.1190883"><ele>798.0</ele><time>2026-04-25T08:57:59.802Z</time></trkpt><trkpt lat="44.0700333" lon="11.11914"><ele>798.0</ele><time>2026-04-25T08:58:00.809Z</time></trkpt><trkpt lat="44.0699333" lon="11.119185"><ele>798.0</ele><time>2026-04-25T08:58:01.814Z</time></trkpt><trkpt lat="44.0698617" lon="11.11919"><ele>798.0</ele><time>2026-04-25T08:58:02.821Z</time></trkpt><trkpt lat="44.0697817" lon="11.1191717"><ele>798.0</ele><time>2026-04-25T08:58:03.828Z</time></trkpt><trkpt lat="44.0697467" lon="11.119065"><ele>799.2</ele><time>2026-04-25T08:58:04.835Z</time></trkpt><trkpt lat="44.069715" lon="11.1189367"><ele>800.4</ele><time>2026-04-25T08:58:05.842Z</time></trkpt><trkpt lat="44.0697083" lon="11.1188017"><ele>801.6</ele><time>2026-04-25T08:58:06.849Z</time></trkpt><trkpt lat="44.0697133" lon="11.11867"><ele>802.8000000000001</ele><time>2026-04-25T08:58:07.855Z</time></trkpt><trkpt lat="44.069715" lon="11.1185283"><ele>804.0</ele><time>2026-04-25T08:58:08.795Z</time></trkpt><trkpt lat="44.06972" lon="11.1183817"><ele>804.0</ele><time>2026-04-25T08:58:09.8Z</time></trkpt><trkpt lat="44.0697367" lon="11.1182367"><ele>804.0</ele><time>2026-04-25T08:58:10.807Z</time></trkpt><trkpt lat="44.069765" lon="11.1181"><ele>804.0</ele><time>2026-04-25T08:58:11.814Z</time></trkpt><trkpt lat="44.069815" lon="11.1179583"><ele>804.0</ele><time>2026-04-25T08:58:12.821Z</time></trkpt><trkpt lat="44.06988" lon="11.117825"><ele>804.0</ele><time>2026-04-25T08:58:13.827Z</time></trkpt><trkpt lat="44.0699383" lon="11.117665"><ele>803.25</ele><time>2026-04-25T08:58:14.834Z</time></trkpt><trkpt lat="44.069985" lon="11.1174883"><ele>802.5</ele><time>2026-04-25T08:58:15.841Z</time></trkpt><trkpt lat="44.0700283" lon="11.117315"><ele>801.75</ele><time>2026-04-25T08:58:16.848Z</time></trkpt><trkpt lat="44.070075" lon="11.1171633"><ele>801.0</ele><time>2026-04-25T08:58:17.854Z</time></trkpt><trkpt lat="44.070125" lon="11.1170367"><ele>801.0</ele><time>2026-04-25T08:58:18.794Z</time></trkpt><trkpt lat="44.0701883" lon="11.1169217"><ele>801.0</ele><time>2026-04-25T08:58:19.801Z</time></trkpt><trkpt lat="44.070265" lon="11.1168183"><ele>801.0</ele><time>2026-04-25T08:58:20.806Z</time></trkpt><trkpt lat="44.0703467" lon="11.11673"><ele>801.0</ele><time>2026-04-25T08:58:21.814Z</time></trkpt><trkpt lat="44.07043" lon="11.1166467"><ele>801.0</ele><time>2026-04-25T08:58:22.819Z</time></trkpt><trkpt lat="44.070515" lon="11.11657"><ele>804.5999999999999</ele><time>2026-04-25T08:58:23.827Z</time></trkpt><trkpt lat="44.0705983" lon="11.11651"><ele>808.2</ele><time>2026-04-25T08:58:24.834Z</time></trkpt><trkpt lat="44.0706917" lon="11.1164417"><ele>811.8</ele><time>2026-04-25T08:58:25.84Z</time></trkpt><trkpt lat="44.0707883" lon="11.1164067"><ele>815.4000000000001</ele><time>2026-04-25T08:58:26.847Z</time></trkpt><trkpt lat="44.07089" lon="11.11639"><ele>819.0</ele><time>2026-04-25T08:58:27.854Z</time></trkpt><trkpt lat="44.0709933" lon="11.116395"><ele>819.0</ele><time>2026-04-25T08:58:28.793Z</time></trkpt><trkpt lat="44.0711017" lon="11.11641"><ele>819.0</ele><time>2026-04-25T08:58:29.8Z</time></trkpt><trkpt lat="44.071205" lon="11.1164317"><ele>819.0</ele><time>2026-04-25T08:58:30.806Z</time></trkpt><trkpt lat="44.07131" lon="11.1164367"><ele>819.0</ele><time>2026-04-25T08:58:31.813Z</time></trkpt><trkpt lat="44.0714183" lon="11.11642"><ele>819.0</ele><time>2026-04-25T08:58:32.819Z</time></trkpt><trkpt lat="44.0715317" lon="11.1163933"><ele>820.5</ele><time>2026-04-25T08:58:33.825Z</time></trkpt><trkpt lat="44.0716517" lon="11.1163583"><ele>822.0</ele><time>2026-04-25T08:58:34.833Z</time></trkpt><trkpt lat="44.0717683" lon="11.1163267"><ele>823.5</ele><time>2026-04-25T08:58:35.839Z</time></trkpt><trkpt lat="44.0718817" lon="11.1163033"><ele>825.0</ele><time>2026-04-25T08:58:36.846Z</time></trkpt><trkpt lat="44.0719883" lon="11.11629"><ele>825.0</ele><time>2026-04-25T08:58:37.786Z</time></trkpt><trkpt lat="44.0720867" lon="11.116285"><ele>825.0</ele><time>2026-04-25T08:58:38.792Z</time></trkpt><trkpt lat="44.0721917" lon="11.1162617"><ele>825.0</ele><time>2026-04-25T08:58:39.799Z</time></trkpt><trkpt lat="44.0723017" lon="11.11621"><ele>825.0</ele><time>2026-04-25T08:58:40.805Z</time></trkpt><trkpt lat="44.072415" lon="11.1161317"><ele>825.0</ele><time>2026-04-25T08:58:41.812Z</time></trkpt><trkpt lat="44.072525" lon="11.1160583"><ele>826.25</ele><time>2026-04-25T08:58:42.818Z</time></trkpt><trkpt lat="44.07264" lon="11.115975"><ele>827.5</ele><time>2026-04-25T08:58:43.825Z</time></trkpt><trkpt lat="44.07275" lon="11.1158883"><ele>828.75</ele><time>2026-04-25T08:58:44.831Z</time></trkpt><trkpt lat="44.072855" lon="11.1157933"><ele>830.0</ele><time>2026-04-25T08:58:45.839Z</time></trkpt><trkpt lat="44.0729583" lon="11.1156867"><ele>830.5</ele><time>2026-04-25T08:58:46.845Z</time></trkpt><trkpt lat="44.0730667" lon="11.11557"><ele>831.0</ele><time>2026-04-25T08:58:47.785Z</time></trkpt><trkpt lat="44.07318" lon="11.1154533"><ele>831.5</ele><time>2026-04-25T08:58:48.792Z</time></trkpt><trkpt lat="44.0732983" lon="11.1153417"><ele>832.0</ele><time>2026-04-25T08:58:49.798Z</time></trkpt><trkpt lat="44.0734167" lon="11.115225"><ele>832.0</ele><time>2026-04-25T08:58:50.804Z</time></trkpt><trkpt lat="44.0735267" lon="11.1150933"><ele>832.0</ele><time>2026-04-25T08:58:51.811Z</time></trkpt><trkpt lat="44.0736217" lon="11.1149417"><ele>832.0</ele><time>2026-04-25T08:58:52.817Z</time></trkpt><trkpt lat="44.0737083" lon="11.1147783"><ele>832.0</ele><time>2026-04-25T08:58:53.825Z</time></trkpt><trkpt lat="44.0737933" lon="11.1146167"><ele>828.75</ele><time>2026-04-25T08:58:54.83Z</time></trkpt><trkpt lat="44.0738833" lon="11.1144583"><ele>825.5</ele><time>2026-04-25T08:58:55.838Z</time></trkpt><trkpt lat="44.0739817" lon="11.11431"><ele>822.25</ele><time>2026-04-25T08:58:56.845Z</time></trkpt><trkpt lat="44.074075" lon="11.1141833"><ele>819.0</ele><time>2026-04-25T08:58:57.783Z</time></trkpt><trkpt lat="44.0741633" lon="11.1140833"><ele>820.2</ele><time>2026-04-25T08:58:58.791Z</time></trkpt><trkpt lat="44.07424" lon="11.1140267"><ele>821.4000000000001</ele><time>2026-04-25T08:58:59.797Z</time></trkpt><trkpt lat="44.0743183" lon="11.11399"><ele>822.6</ele><time>2026-04-25T08:59:00.803Z</time></trkpt><trkpt lat="44.074405" lon="11.1139833"><ele>823.8</ele><time>2026-04-25T08:59:01.811Z</time></trkpt><trkpt lat="44.07451" lon="11.1139967"><ele>825.0</ele><time>2026-04-25T08:59:02.817Z</time></trkpt><trkpt lat="44.074625" lon="11.1140267"><ele>825.0</ele><time>2026-04-25T08:59:03.824Z</time></trkpt><trkpt lat="44.0747333" lon="11.1140617"><ele>825.0</ele><time>2026-04-25T08:59:04.831Z</time></trkpt><trkpt lat="44.0748333" lon="11.114115"><ele>825.0</ele><time>2026-04-25T08:59:05.837Z</time></trkpt><trkpt lat="44.0749217" lon="11.1141817"><ele>825.0</ele><time>2026-04-25T08:59:06.844Z</time></trkpt><trkpt lat="44.0750083" lon="11.1142417"><ele>825.0</ele><time>2026-04-25T08:59:07.783Z</time></trkpt><trkpt lat="44.075105" lon="11.1142733"><ele>833.0</ele><time>2026-04-25T08:59:08.789Z</time></trkpt><trkpt lat="44.075205" lon="11.11427"><ele>841.0</ele><time>2026-04-25T08:59:09.797Z</time></trkpt><trkpt lat="44.0753083" lon="11.1142483"><ele>849.0</ele><time>2026-04-25T08:59:10.803Z</time></trkpt><trkpt lat="44.0754267" lon="11.11421"><ele>857.0</ele><time>2026-04-25T08:59:11.81Z</time></trkpt><trkpt lat="44.0755367" lon="11.1141733"><ele>865.0</ele><time>2026-04-25T08:59:12.817Z</time></trkpt><trkpt lat="44.0756383" lon="11.1141433"><ele>864.9999999999999</ele><time>2026-04-25T08:59:13.822Z</time></trkpt><trkpt lat="44.07573" lon="11.11411"><ele>865.0</ele><time>2026-04-25T08:59:14.83Z</time></trkpt><trkpt lat="44.0758167" lon="11.1140683"><ele>865.0</ele><time>2026-04-25T08:59:15.835Z</time></trkpt><trkpt lat="44.0759017" lon="11.114025"><ele>865.0</ele><time>2026-04-25T08:59:16.843Z</time></trkpt><trkpt lat="44.07597" lon="11.11399"><ele>864.9999999999999</ele><time>2026-04-25T08:59:17.783Z</time></trkpt><trkpt lat="44.0760433" lon="11.113965"><ele>865.0</ele><time>2026-04-25T08:59:20.801Z</time></trkpt><trkpt lat="44.0761624" lon="11.1139731"><ele>864.6</ele><time>2026-04-25T09:11:31.231Z</time></trkpt><trkpt lat="44.0762533" lon="11.1139567"><ele>864.2</ele><time>2026-04-25T09:12:51.813Z</time></trkpt><trkpt lat="44.07634" lon="11.113905"><ele>863.8</ele><time>2026-04-25T09:12:53.826Z</time></trkpt><trkpt lat="44.0764067" lon="11.1138933"><ele>863.4</ele><time>2026-04-25T09:12:54.833Z</time></trkpt><trkpt lat="44.0765033" lon="11.1138767"><ele>863.0</ele><time>2026-04-25T09:12:56.846Z</time></trkpt><trkpt lat="44.0766133" lon="11.1138933"><ele>863.0</ele><time>2026-04-25T09:12:58.792Z</time></trkpt><trkpt lat="44.076675" lon="11.113925"><ele>863.0</ele><time>2026-04-25T09:12:59.799Z</time></trkpt><trkpt lat="44.076795" lon="11.11401"><ele>863.0</ele><time>2026-04-25T09:13:01.812Z</time></trkpt><trkpt lat="44.0768633" lon="11.1140417"><ele>863.0</ele><time>2026-04-25T09:13:02.818Z</time></trkpt><trkpt lat="44.0769867" lon="11.1140667"><ele>863.0</ele><time>2026-04-25T09:13:04.831Z</time></trkpt><trkpt lat="44.0770583" lon="11.114055"><ele>863.0000000000001</ele><time>2026-04-25T09:13:05.839Z</time></trkpt><trkpt lat="44.077125" lon="11.11403"><ele>863.0</ele><time>2026-04-25T09:13:06.845Z</time></trkpt><trkpt lat="44.077245" lon="11.1140017"><ele>863.0</ele><time>2026-04-25T09:13:08.792Z</time></trkpt><trkpt lat="44.0773617" lon="11.11403"><ele>863.0</ele><time>2026-04-25T09:13:10.805Z</time></trkpt><trkpt lat="44.077425" lon="11.1140567"><ele>863.0000000000001</ele><time>2026-04-25T09:13:11.812Z</time></trkpt><trkpt lat="44.0774917" lon="11.1140633"><ele>863.0</ele><time>2026-04-25T09:13:12.818Z</time></trkpt><trkpt lat="44.0775567" lon="11.1140667"><ele>863.6666666666667</ele><time>2026-04-25T09:13:13.824Z</time></trkpt><trkpt lat="44.0776233" lon="11.1140417"><ele>864.3333333333334</ele><time>2026-04-25T09:13:14.831Z</time></trkpt><trkpt lat="44.0776867" lon="11.114"><ele>865.0</ele><time>2026-04-25T09:13:15.838Z</time></trkpt><trkpt lat="44.07775" lon="11.1139333"><ele>865.6666666666667</ele><time>2026-04-25T09:13:16.845Z</time></trkpt><trkpt lat="44.0778067" lon="11.1138483"><ele>866.3333333333334</ele><time>2026-04-25T09:13:17.85Z</time></trkpt><trkpt lat="44.0778567" lon="11.1137517"><ele>867.0</ele><time>2026-04-25T09:13:18.791Z</time></trkpt><trkpt lat="44.077905" lon="11.1136533"><ele>867.0</ele><time>2026-04-25T09:13:19.797Z</time></trkpt><trkpt lat="44.0779567" lon="11.1135567"><ele>867.0</ele><time>2026-04-25T09:13:20.803Z</time></trkpt><trkpt lat="44.078005" lon="11.11346"><ele>867.0</ele><time>2026-04-25T09:13:21.811Z</time></trkpt><trkpt lat="44.0780433" lon="11.1133633"><ele>867.0</ele><time>2026-04-25T09:13:22.817Z</time></trkpt><trkpt lat="44.0780883" lon="11.1132717"><ele>867.0</ele><time>2026-04-25T09:13:23.824Z</time></trkpt><trkpt lat="44.0781417" lon="11.1132"><ele>867.0</ele><time>2026-04-25T09:13:24.831Z</time></trkpt><trkpt lat="44.0782067" lon="11.1131417"><ele>864.2</ele><time>2026-04-25T09:13:25.837Z</time></trkpt><trkpt lat="44.0782867" lon="11.1130933"><ele>861.4000000000001</ele><time>2026-04-25T09:13:26.844Z</time></trkpt><trkpt lat="44.0783733" lon="11.1130583"><ele>858.5999999999999</ele><time>2026-04-25T09:13:27.851Z</time></trkpt><trkpt lat="44.0784633" lon="11.11302"><ele>855.8</ele><time>2026-04-25T09:13:28.79Z</time></trkpt><trkpt lat="44.0785533" lon="11.1129767"><ele>853.0</ele><time>2026-04-25T09:13:29.797Z</time></trkpt><trkpt lat="44.07864" lon="11.1129417"><ele>852.9999999999999</ele><time>2026-04-25T09:13:30.803Z</time></trkpt><trkpt lat="44.078725" lon="11.1129217"><ele>853.0</ele><time>2026-04-25T09:13:31.81Z</time></trkpt><trkpt lat="44.078815" lon="11.11292"><ele>853.0</ele><time>2026-04-25T09:13:32.817Z</time></trkpt><trkpt lat="44.0789017" lon="11.112935"><ele>853.0</ele><time>2026-04-25T09:13:33.823Z</time></trkpt><trkpt lat="44.0789917" lon="11.112935"><ele>852.9999999999999</ele><time>2026-04-25T09:13:34.829Z</time></trkpt><trkpt lat="44.0790767" lon="11.11292"><ele>853.0</ele><time>2026-04-25T09:13:35.836Z</time></trkpt><trkpt lat="44.07916" lon="11.112895"><ele>857.8333333333333</ele><time>2026-04-25T09:13:36.843Z</time></trkpt><trkpt lat="44.0792417" lon="11.1128717"><ele>862.6666666666666</ele><time>2026-04-25T09:13:37.782Z</time></trkpt><trkpt lat="44.0793233" lon="11.1128533"><ele>867.5</ele><time>2026-04-25T09:13:38.789Z</time></trkpt><trkpt lat="44.079395" lon="11.112855"><ele>872.3333333333333</ele><time>2026-04-25T09:13:39.796Z</time></trkpt><trkpt lat="44.079465" lon="11.1128333"><ele>877.1666666666666</ele><time>2026-04-25T09:13:40.802Z</time></trkpt><trkpt lat="44.0795283" lon="11.1127967"><ele>882.0</ele><time>2026-04-25T09:13:41.809Z</time></trkpt><trkpt lat="44.0795867" lon="11.112725"><ele>882.0</ele><time>2026-04-25T09:13:42.815Z</time></trkpt><trkpt lat="44.07963" lon="11.11264"><ele>882.0</ele><time>2026-04-25T09:13:43.822Z</time></trkpt><trkpt lat="44.0796683" lon="11.1125417"><ele>882.0</ele><time>2026-04-25T09:13:44.829Z</time></trkpt><trkpt lat="44.0797017" lon="11.1124283"><ele>882.0</ele><time>2026-04-25T09:13:45.836Z</time></trkpt><trkpt lat="44.0797333" lon="11.1123067"><ele>882.0</ele><time>2026-04-25T09:13:46.842Z</time></trkpt><trkpt lat="44.0797783" lon="11.1121933"><ele>882.0</ele><time>2026-04-25T09:13:47.781Z</time></trkpt><trkpt lat="44.0798067" lon="11.1120817"><ele>877.0</ele><time>2026-04-25T09:13:48.789Z</time></trkpt><trkpt lat="44.0798183" lon="11.1119633"><ele>872.0</ele><time>2026-04-25T09:13:49.794Z</time></trkpt><trkpt lat="44.0798267" lon="11.1118367"><ele>867.0</ele><time>2026-04-25T09:13:50.801Z</time></trkpt><trkpt lat="44.07983" lon="11.1116983"><ele>862.0</ele><time>2026-04-25T09:13:51.808Z</time></trkpt><trkpt lat="44.0798567" lon="11.11156"><ele>857.0</ele><time>2026-04-25T09:13:52.815Z</time></trkpt><trkpt lat="44.0799017" lon="11.1114333"><ele>862.4000000000001</ele><time>2026-04-25T09:13:53.822Z</time></trkpt><trkpt lat="44.0799383" lon="11.1113117"><ele>867.8000000000001</ele><time>2026-04-25T09:13:54.828Z</time></trkpt><trkpt lat="44.079975" lon="11.1111683"><ele>873.2</ele><time>2026-04-25T09:13:55.835Z</time></trkpt><trkpt lat="44.0799933" lon="11.1110167"><ele>878.6</ele><time>2026-04-25T09:13:56.841Z</time></trkpt><trkpt lat="44.0799967" lon="11.1108567"><ele>884.0</ele><time>2026-04-25T09:13:57.781Z</time></trkpt><trkpt lat="44.0799883" lon="11.1106967"><ele>884.0000000000001</ele><time>2026-04-25T09:13:58.788Z</time></trkpt><trkpt lat="44.0799683" lon="11.1105517"><ele>884.0</ele><time>2026-04-25T09:13:59.794Z</time></trkpt><trkpt lat="44.0799517" lon="11.11042"><ele>884.0</ele><time>2026-04-25T09:14:00.801Z</time></trkpt><trkpt lat="44.079945" lon="11.110305"><ele>884.0</ele><time>2026-04-25T09:14:01.808Z</time></trkpt><trkpt lat="44.0799467" lon="11.1101933"><ele>884.0000000000001</ele><time>2026-04-25T09:14:02.814Z</time></trkpt><trkpt lat="44.0799667" lon="11.11008"><ele>884.0</ele><time>2026-04-25T09:14:03.821Z</time></trkpt><trkpt lat="44.0800017" lon="11.10998"><ele>881.5000000000001</ele><time>2026-04-25T09:14:04.828Z</time></trkpt><trkpt lat="44.0800533" lon="11.1098917"><ele>879.0</ele><time>2026-04-25T09:14:05.834Z</time></trkpt><trkpt lat="44.0801267" lon="11.1098283"><ele>876.5</ele><time>2026-04-25T09:14:06.84Z</time></trkpt><trkpt lat="44.08021" lon="11.1097917"><ele>874.0</ele><time>2026-04-25T09:14:07.78Z</time></trkpt><trkpt lat="44.0802967" lon="11.1097817"><ele>871.5000000000001</ele><time>2026-04-25T09:14:08.787Z</time></trkpt><trkpt lat="44.080385" lon="11.1097983"><ele>869.0</ele><time>2026-04-25T09:14:09.794Z</time></trkpt><trkpt lat="44.0804633" lon="11.109855"><ele>869.0</ele><time>2026-04-25T09:14:10.8Z</time></trkpt><trkpt lat="44.0805783" lon="11.1098883"><ele>869.0</ele><time>2026-04-25T09:14:11.807Z</time></trkpt><trkpt lat="44.0806633" lon="11.1099817"><ele>869.0</ele><time>2026-04-25T09:14:12.813Z</time></trkpt><trkpt lat="44.0807517" lon="11.110105"><ele>869.0</ele><time>2026-04-25T09:14:13.82Z</time></trkpt><trkpt lat="44.08084" lon="11.1102117"><ele>871.8000000000001</ele><time>2026-04-25T09:14:14.827Z</time></trkpt><trkpt lat="44.08093" lon="11.1103017"><ele>874.6000000000001</ele><time>2026-04-25T09:14:15.833Z</time></trkpt><trkpt lat="44.0810117" lon="11.1103733"><ele>877.4</ele><time>2026-04-25T09:14:16.84Z</time></trkpt><trkpt lat="44.0810967" lon="11.1104267"><ele>880.2</ele><time>2026-04-25T09:14:17.78Z</time></trkpt><trkpt lat="44.0811917" lon="11.1104533"><ele>883.0</ele><time>2026-04-25T09:14:18.786Z</time></trkpt><trkpt lat="44.0812817" lon="11.11047"><ele>882.9999999999999</ele><time>2026-04-25T09:14:19.793Z</time></trkpt><trkpt lat="44.08138" lon="11.110475"><ele>883.0</ele><time>2026-04-25T09:14:20.799Z</time></trkpt><trkpt lat="44.08146" lon="11.11048"><ele>883.0</ele><time>2026-04-25T09:14:21.806Z</time></trkpt><trkpt lat="44.08153" lon="11.11051"><ele>883.0</ele><time>2026-04-25T09:14:22.813Z</time></trkpt><trkpt lat="44.0815917" lon="11.1105517"><ele>882.9999999999999</ele><time>2026-04-25T09:14:23.819Z</time></trkpt><trkpt lat="44.0816483" lon="11.1106217"><ele>883.0</ele><time>2026-04-25T09:14:24.826Z</time></trkpt><trkpt lat="44.08169" lon="11.11072"><ele>886.9999999999999</ele><time>2026-04-25T09:14:25.833Z</time></trkpt><trkpt lat="44.0817367" lon="11.1108167"><ele>891.0</ele><time>2026-04-25T09:14:26.771Z</time></trkpt><trkpt lat="44.0817817" lon="11.1109"><ele>895.0</ele><time>2026-04-25T09:14:27.779Z</time></trkpt><trkpt lat="44.0818417" lon="11.1109633"><ele>899.0</ele><time>2026-04-25T09:14:28.785Z</time></trkpt><trkpt lat="44.0819083" lon="11.1110033"><ele>902.9999999999999</ele><time>2026-04-25T09:14:29.792Z</time></trkpt><trkpt lat="44.081985" lon="11.1110167"><ele>907.0</ele><time>2026-04-25T09:14:30.798Z</time></trkpt><trkpt lat="44.0820667" lon="11.111005"><ele>907.0</ele><time>2026-04-25T09:14:31.804Z</time></trkpt><trkpt lat="44.0821583" lon="11.1109567"><ele>907.0</ele><time>2026-04-25T09:14:32.812Z</time></trkpt><trkpt lat="44.0822467" lon="11.1109033"><ele>907.0</ele><time>2026-04-25T09:14:33.818Z</time></trkpt><trkpt lat="44.0823333" lon="11.1108433"><ele>907.0</ele><time>2026-04-25T09:14:34.825Z</time></trkpt><trkpt lat="44.0824233" lon="11.1107817"><ele>907.0</ele><time>2026-04-25T09:14:35.832Z</time></trkpt><trkpt lat="44.082515" lon="11.11072"><ele>906.6666666666666</ele><time>2026-04-25T09:14:36.77Z</time></trkpt><trkpt lat="44.082605" lon="11.1106683"><ele>906.3333333333333</ele><time>2026-04-25T09:14:37.778Z</time></trkpt><trkpt lat="44.08268" lon="11.1106433"><ele>906.0</ele><time>2026-04-25T09:14:38.784Z</time></trkpt><trkpt lat="44.0827467" lon="11.11064"><ele>905.6666666666667</ele><time>2026-04-25T09:14:39.79Z</time></trkpt><trkpt lat="44.0828133" lon="11.110665"><ele>905.3333333333334</ele><time>2026-04-25T09:14:40.798Z</time></trkpt><trkpt lat="44.082925" lon="11.1107483"><ele>905.0</ele><time>2026-04-25T09:14:42.811Z</time></trkpt><trkpt lat="44.0829667" lon="11.110835"><ele>905.0000000000001</ele><time>2026-04-25T09:14:43.818Z</time></trkpt><trkpt lat="44.0829983" lon="11.1109367"><ele>905.0</ele><time>2026-04-25T09:14:44.824Z</time></trkpt><trkpt lat="44.0830283" lon="11.1110483"><ele>905.0</ele><time>2026-04-25T09:14:45.831Z</time></trkpt><trkpt lat="44.0830583" lon="11.1111567"><ele>905.0</ele><time>2026-04-25T09:14:46.771Z</time></trkpt><trkpt lat="44.0830917" lon="11.11126"><ele>905.0000000000001</ele><time>2026-04-25T09:14:47.777Z</time></trkpt><trkpt lat="44.083135" lon="11.1113333"><ele>905.0</ele><time>2026-04-25T09:14:48.784Z</time></trkpt><trkpt lat="44.0831883" lon="11.1113867"><ele>905.0000000000001</ele><time>2026-04-25T09:14:49.79Z</time></trkpt><trkpt lat="44.0832517" lon="11.111415"><ele>905.0</ele><time>2026-04-25T09:14:50.864Z</time></trkpt><trkpt lat="44.083325" lon="11.11142"><ele>905.0</ele><time>2026-04-25T09:14:51.804Z</time></trkpt><trkpt lat="44.0834117" lon="11.1114117"><ele>905.0</ele><time>2026-04-25T09:14:52.81Z</time></trkpt><trkpt lat="44.0835033" lon="11.11141"><ele>905.0000000000001</ele><time>2026-04-25T09:14:53.817Z</time></trkpt><trkpt lat="44.0835883" lon="11.111435"><ele>905.0</ele><time>2026-04-25T09:14:54.824Z</time></trkpt><trkpt lat="44.0836633" lon="11.111475"><ele>903.8571428571428</ele><time>2026-04-25T09:14:55.83Z</time></trkpt><trkpt lat="44.0837267" lon="11.1115367"><ele>902.7142857142856</ele><time>2026-04-25T09:14:56.769Z</time></trkpt><trkpt lat="44.083765" lon="11.1116217"><ele>901.5714285714286</ele><time>2026-04-25T09:14:57.775Z</time></trkpt><trkpt lat="44.083795" lon="11.111715"><ele>900.4285714285713</ele><time>2026-04-25T09:14:58.85Z</time></trkpt><trkpt lat="44.083805" lon="11.1118217"><ele>899.2857142857142</ele><time>2026-04-25T09:14:59.856Z</time></trkpt><trkpt lat="44.0838017" lon="11.11192"><ele>898.1428571428571</ele><time>2026-04-25T09:15:00.863Z</time></trkpt><trkpt lat="44.0837833" lon="11.112015"><ele>897.0</ele><time>2026-04-25T09:15:01.803Z</time></trkpt><trkpt lat="44.0837533" lon="11.1121067"><ele>903.8</ele><time>2026-04-25T09:15:02.81Z</time></trkpt><trkpt lat="44.083705" lon="11.1121917"><ele>910.6</ele><time>2026-04-25T09:15:03.816Z</time></trkpt><trkpt lat="44.0836683" lon="11.11227"><ele>917.3999999999999</ele><time>2026-04-25T09:15:04.822Z</time></trkpt><trkpt lat="44.0836283" lon="11.1124217"><ele>924.1999999999999</ele><time>2026-04-25T09:15:06.769Z</time></trkpt><trkpt lat="44.083655" lon="11.1126083"><ele>931.0</ele><time>2026-04-25T09:15:08.849Z</time></trkpt><trkpt lat="44.083695" lon="11.1127283"><ele>935.8333333333333</ele><time>2026-04-25T09:15:09.856Z</time></trkpt><trkpt lat="44.0837433" lon="11.1128467"><ele>940.6666666666666</ele><time>2026-04-25T09:15:10.796Z</time></trkpt><trkpt lat="44.08379" lon="11.1129567"><ele>945.5</ele><time>2026-04-25T09:15:11.801Z</time></trkpt><trkpt lat="44.083845" lon="11.1130483"><ele>950.3333333333333</ele><time>2026-04-25T09:15:12.809Z</time></trkpt><trkpt lat="44.0839033" lon="11.1131167"><ele>955.1666666666666</ele><time>2026-04-25T09:15:13.814Z</time></trkpt><trkpt lat="44.08397" lon="11.1131617"><ele>960.0</ele><time>2026-04-25T09:15:14.821Z</time></trkpt><trkpt lat="44.08406" lon="11.1131617"><ele>957.0</ele><time>2026-04-25T09:15:15.829Z</time></trkpt><trkpt lat="44.0841467" lon="11.1131467"><ele>954.0</ele><time>2026-04-25T09:15:16.835Z</time></trkpt><trkpt lat="44.0842317" lon="11.1131333"><ele>951.0</ele><time>2026-04-25T09:15:17.842Z</time></trkpt><trkpt lat="44.0843183" lon="11.1131417"><ele>948.0</ele><time>2026-04-25T09:15:18.849Z</time></trkpt><trkpt lat="44.084405" lon="11.1131833"><ele>945.0</ele><time>2026-04-25T09:15:19.854Z</time></trkpt><trkpt lat="44.0844783" lon="11.113255"><ele>942.0</ele><time>2026-04-25T09:15:20.795Z</time></trkpt><trkpt lat="44.08455" lon="11.1133067"><ele>942.0</ele><time>2026-04-25T09:15:21.8Z</time></trkpt><trkpt lat="44.0846233" lon="11.1133283"><ele>942.0</ele><time>2026-04-25T09:15:22.808Z</time></trkpt><trkpt lat="44.0846933" lon="11.1133283"><ele>942.0</ele><time>2026-04-25T09:15:23.815Z</time></trkpt><trkpt lat="44.0847617" lon="11.1132933"><ele>942.0</ele><time>2026-04-25T09:15:24.82Z</time></trkpt><trkpt lat="44.0848367" lon="11.1132333"><ele>942.0</ele><time>2026-04-25T09:15:25.828Z</time></trkpt><trkpt lat="44.0849167" lon="11.11315"><ele>942.0</ele><time>2026-04-25T09:15:26.835Z</time></trkpt><trkpt lat="44.0850017" lon="11.1130533"><ele>936.8</ele><time>2026-04-25T09:15:27.841Z</time></trkpt><trkpt lat="44.0850867" lon="11.11296"><ele>931.6</ele><time>2026-04-25T09:15:28.847Z</time></trkpt><trkpt lat="44.0851783" lon="11.1128833"><ele>926.3999999999999</ele><time>2026-04-25T09:15:29.854Z</time></trkpt><trkpt lat="44.0852683" lon="11.1128317"><ele>921.1999999999999</ele><time>2026-04-25T09:15:30.794Z</time></trkpt><trkpt lat="44.08536" lon="11.1128083"><ele>916.0</ele><time>2026-04-25T09:15:31.801Z</time></trkpt><trkpt lat="44.0854617" lon="11.1128183"><ele>916.0</ele><time>2026-04-25T09:15:32.807Z</time></trkpt><trkpt lat="44.0855567" lon="11.1128483"><ele>915.9999999999999</ele><time>2026-04-25T09:15:33.813Z</time></trkpt><trkpt lat="44.0856433" lon="11.112895"><ele>915.9999999999999</ele><time>2026-04-25T09:15:34.82Z</time></trkpt><trkpt lat="44.08572" lon="11.1129633"><ele>916.0</ele><time>2026-04-25T09:15:35.827Z</time></trkpt><trkpt lat="44.085785" lon="11.11306"><ele>916.0</ele><time>2026-04-25T09:15:36.834Z</time></trkpt><trkpt lat="44.0858283" lon="11.1131633"><ele>924.0</ele><time>2026-04-25T09:15:37.84Z</time></trkpt><trkpt lat="44.0858617" lon="11.113275"><ele>931.9999999999999</ele><time>2026-04-25T09:15:38.846Z</time></trkpt><trkpt lat="44.08589" lon="11.1133767"><ele>939.9999999999999</ele><time>2026-04-25T09:15:39.854Z</time></trkpt><trkpt lat="44.0859167" lon="11.1134583"><ele>948.0</ele><time>2026-04-25T09:15:40.793Z</time></trkpt><trkpt lat="44.086" lon="11.1135767"><ele>956.0</ele><time>2026-04-25T09:15:42.806Z</time></trkpt><trkpt lat="44.0861233" lon="11.1135967"><ele>956.0</ele><time>2026-04-25T09:15:44.819Z</time></trkpt><trkpt lat="44.0862233" lon="11.1135483"><ele>955.9999999999999</ele><time>2026-04-25T09:15:45.826Z</time></trkpt><trkpt lat="44.08633" lon="11.113525"><ele>955.9999999999999</ele><time>2026-04-25T09:15:46.833Z</time></trkpt><trkpt lat="44.086425" lon="11.1135217"><ele>956.0</ele><time>2026-04-25T09:15:47.84Z</time></trkpt><trkpt lat="44.0865133" lon="11.1135083"><ele>956.0</ele><time>2026-04-25T09:15:48.846Z</time></trkpt><trkpt lat="44.0866" lon="11.1134683"><ele>955.4</ele><time>2026-04-25T09:15:49.786Z</time></trkpt><trkpt lat="44.086685" lon="11.1134"><ele>954.8</ele><time>2026-04-25T09:15:50.791Z</time></trkpt><trkpt lat="44.0867733" lon="11.1133217"><ele>954.1999999999999</ele><time>2026-04-25T09:15:51.799Z</time></trkpt><trkpt lat="44.0868633" lon="11.1132483"><ele>953.5999999999999</ele><time>2026-04-25T09:15:52.806Z</time></trkpt><trkpt lat="44.086955" lon="11.1131633"><ele>953.0</ele><time>2026-04-25T09:15:53.812Z</time></trkpt><trkpt lat="44.0870367" lon="11.113065"><ele>946.8</ele><time>2026-04-25T09:15:54.819Z</time></trkpt><trkpt lat="44.0871067" lon="11.1129583"><ele>940.5999999999999</ele><time>2026-04-25T09:15:55.825Z</time></trkpt><trkpt lat="44.0871683" lon="11.1128383"><ele>934.4000000000001</ele><time>2026-04-25T09:15:56.832Z</time></trkpt><trkpt lat="44.087225" lon="11.112705"><ele>928.2</ele><time>2026-04-25T09:15:57.839Z</time></trkpt><trkpt lat="44.087285" lon="11.11258"><ele>922.0</ele><time>2026-04-25T09:15:58.845Z</time></trkpt><trkpt lat="44.0873583" lon="11.112465"><ele>924.8</ele><time>2026-04-25T09:15:59.785Z</time></trkpt><trkpt lat="44.0874417" lon="11.1123683"><ele>927.6</ele><time>2026-04-25T09:16:00.792Z</time></trkpt><trkpt lat="44.087535" lon="11.1122917"><ele>930.3999999999999</ele><time>2026-04-25T09:16:01.798Z</time></trkpt><trkpt lat="44.087625" lon="11.1122167"><ele>933.1999999999999</ele><time>2026-04-25T09:16:02.805Z</time></trkpt><trkpt lat="44.08771" lon="11.1121317"><ele>936.0</ele><time>2026-04-25T09:16:03.812Z</time></trkpt><trkpt lat="44.0877833" lon="11.1120383"><ele>936.0</ele><time>2026-04-25T09:16:04.818Z</time></trkpt><trkpt lat="44.0878533" lon="11.11195"><ele>935.9999999999999</ele><time>2026-04-25T09:16:05.824Z</time></trkpt><trkpt lat="44.087935" lon="11.1118767"><ele>935.9999999999999</ele><time>2026-04-25T09:16:06.831Z</time></trkpt><trkpt lat="44.088025" lon="11.1118283"><ele>936.0</ele><time>2026-04-25T09:16:07.838Z</time></trkpt><trkpt lat="44.0881267" lon="11.1117983"><ele>936.0</ele><time>2026-04-25T09:16:08.844Z</time></trkpt><trkpt lat="44.0882267" lon="11.1117767"><ele>941.5999999999999</ele><time>2026-04-25T09:16:09.784Z</time></trkpt><trkpt lat="44.088325" lon="11.1117517"><ele>947.1999999999999</ele><time>2026-04-25T09:16:10.791Z</time></trkpt><trkpt lat="44.08843" lon="11.11172"><ele>952.8000000000001</ele><time>2026-04-25T09:16:11.797Z</time></trkpt><trkpt lat="44.0885367" lon="11.11168"><ele>958.4000000000001</ele><time>2026-04-25T09:16:12.804Z</time></trkpt><trkpt lat="44.0886417" lon="11.1116367"><ele>964.0</ele><time>2026-04-25T09:16:13.811Z</time></trkpt><trkpt lat="44.088745" lon="11.11158"><ele>961.8000000000001</ele><time>2026-04-25T09:16:14.817Z</time></trkpt><trkpt lat="44.08884" lon="11.1115033"><ele>959.6000000000001</ele><time>2026-04-25T09:16:15.823Z</time></trkpt><trkpt lat="44.08893" lon="11.1114217"><ele>957.4</ele><time>2026-04-25T09:16:16.831Z</time></trkpt><trkpt lat="44.089025" lon="11.111335"><ele>955.2</ele><time>2026-04-25T09:16:17.837Z</time></trkpt><trkpt lat="44.0891217" lon="11.111255"><ele>953.0</ele><time>2026-04-25T09:16:18.844Z</time></trkpt><trkpt lat="44.0892233" lon="11.111175"><ele>953.0</ele><time>2026-04-25T09:16:19.783Z</time></trkpt><trkpt lat="44.0893267" lon="11.1111083"><ele>953.0</ele><time>2026-04-25T09:16:20.79Z</time></trkpt><trkpt lat="44.0894317" lon="11.111065"><ele>953.0</ele><time>2026-04-25T09:16:21.796Z</time></trkpt><trkpt lat="44.089545" lon="11.1110433"><ele>953.0</ele><time>2026-04-25T09:16:22.802Z</time></trkpt><trkpt lat="44.0896683" lon="11.1110417"><ele>953.0</ele><time>2026-04-25T09:16:23.809Z</time></trkpt><trkpt lat="44.0897917" lon="11.1110433"><ele>953.0</ele><time>2026-04-25T09:16:24.817Z</time></trkpt><trkpt lat="44.08991" lon="11.1110283"><ele>953.0</ele><time>2026-04-25T09:16:25.822Z</time></trkpt><trkpt lat="44.0900233" lon="11.1110017"><ele>953.0</ele><time>2026-04-25T09:16:26.83Z</time></trkpt><trkpt lat="44.090135" lon="11.1109733"><ele>957.2</ele><time>2026-04-25T09:16:27.837Z</time></trkpt><trkpt lat="44.09024" lon="11.11094"><ele>961.4</ele><time>2026-04-25T09:16:28.843Z</time></trkpt><trkpt lat="44.0903433" lon="11.1109067"><ele>965.6000000000001</ele><time>2026-04-25T09:16:29.782Z</time></trkpt><trkpt lat="44.0904433" lon="11.11089"><ele>969.8000000000001</ele><time>2026-04-25T09:16:30.789Z</time></trkpt><trkpt lat="44.09054" lon="11.1108783"><ele>974.0</ele><time>2026-04-25T09:16:31.796Z</time></trkpt><trkpt lat="44.09063" lon="11.1108617"><ele>974.0000000000001</ele><time>2026-04-25T09:16:32.803Z</time></trkpt><trkpt lat="44.090705" lon="11.1108367"><ele>974.0</ele><time>2026-04-25T09:16:33.809Z</time></trkpt><trkpt lat="44.090775" lon="11.1107933"><ele>974.0</ele><time>2026-04-25T09:16:34.816Z</time></trkpt><trkpt lat="44.090845" lon="11.1107467"><ele>974.0</ele><time>2026-04-25T09:16:35.822Z</time></trkpt><trkpt lat="44.090925" lon="11.1107117"><ele>974.0000000000001</ele><time>2026-04-25T09:16:36.828Z</time></trkpt><trkpt lat="44.09103" lon="11.1107017"><ele>974.0</ele><time>2026-04-25T09:16:37.835Z</time></trkpt><trkpt lat="44.0911433" lon="11.1106817"><ele>975.5</ele><time>2026-04-25T09:16:38.774Z</time></trkpt><trkpt lat="44.09125" lon="11.1106617"><ele>977.0</ele><time>2026-04-25T09:16:39.781Z</time></trkpt><trkpt lat="44.091365" lon="11.1106467"><ele>978.5</ele><time>2026-04-25T09:16:40.789Z</time></trkpt><trkpt lat="44.09148" lon="11.110635"><ele>980.0</ele><time>2026-04-25T09:16:41.795Z</time></trkpt><trkpt lat="44.091595" lon="11.110615"><ele>980.0</ele><time>2026-04-25T09:16:42.802Z</time></trkpt><trkpt lat="44.0917083" lon="11.11058"><ele>980.0</ele><time>2026-04-25T09:16:43.807Z</time></trkpt><trkpt lat="44.091815" lon="11.1105383"><ele>980.0</ele><time>2026-04-25T09:16:44.815Z</time></trkpt><trkpt lat="44.091915" lon="11.110505"><ele>980.0</ele><time>2026-04-25T09:16:45.821Z</time></trkpt><trkpt lat="44.092005" lon="11.110495"><ele>980.0</ele><time>2026-04-25T09:16:46.828Z</time></trkpt><trkpt lat="44.092095" lon="11.11051"><ele>980.0</ele><time>2026-04-25T09:16:47.835Z</time></trkpt><trkpt lat="44.092195" lon="11.1105483"><ele>980.0</ele><time>2026-04-25T09:16:48.774Z</time></trkpt><trkpt lat="44.0923" lon="11.110595"><ele>980.0</ele><time>2026-04-25T09:16:49.78Z</time></trkpt><trkpt lat="44.0924167" lon="11.110635"><ele>980.0</ele><time>2026-04-25T09:16:50.788Z</time></trkpt><trkpt lat="44.09254" lon="11.110665"><ele>983.25</ele><time>2026-04-25T09:16:51.794Z</time></trkpt><trkpt lat="44.0926617" lon="11.1106933"><ele>986.5</ele><time>2026-04-25T09:16:52.801Z</time></trkpt><trkpt lat="44.09278" lon="11.1107233"><ele>989.75</ele><time>2026-04-25T09:16:53.807Z</time></trkpt><trkpt lat="44.092895" lon="11.11076"><ele>993.0</ele><time>2026-04-25T09:16:54.814Z</time></trkpt><trkpt lat="44.0930067" lon="11.1108183"><ele>995.75</ele><time>2026-04-25T09:16:55.821Z</time></trkpt><trkpt lat="44.0931117" lon="11.110895"><ele>998.5</ele><time>2026-04-25T09:16:56.827Z</time></trkpt><trkpt lat="44.0932117" lon="11.1110017"><ele>1001.25</ele><time>2026-04-25T09:16:57.834Z</time></trkpt><trkpt lat="44.09331" lon="11.111135"><ele>1004.0</ele><time>2026-04-25T09:16:58.774Z</time></trkpt><trkpt lat="44.093415" lon="11.1112883"><ele>1004.0</ele><time>2026-04-25T09:16:59.779Z</time></trkpt><trkpt lat="44.0935217" lon="11.111445"><ele>1004.0</ele><time>2026-04-25T09:17:00.787Z</time></trkpt><trkpt lat="44.0936233" lon="11.111615"><ele>1004.0</ele><time>2026-04-25T09:17:01.793Z</time></trkpt><trkpt lat="44.0937367" lon="11.1117967"><ele>1004.0</ele><time>2026-04-25T09:17:02.8Z</time></trkpt><trkpt lat="44.09386" lon="11.1119867"><ele>1004.0</ele><time>2026-04-25T09:17:03.806Z</time></trkpt><trkpt lat="44.0939733" lon="11.1121733"><ele>1004.0</ele><time>2026-04-25T09:17:04.813Z</time></trkpt><trkpt lat="44.094085" lon="11.11236"><ele>1006.3333333333334</ele><time>2026-04-25T09:17:05.82Z</time></trkpt><trkpt lat="44.0941883" lon="11.1125383"><ele>1008.6666666666667</ele><time>2026-04-25T09:17:06.827Z</time></trkpt><trkpt lat="44.0942933" lon="11.1127167"><ele>1011.0</ele><time>2026-04-25T09:17:07.832Z</time></trkpt><trkpt lat="44.0943933" lon="11.1128817"><ele>1011.0</ele><time>2026-04-25T09:17:08.773Z</time></trkpt><trkpt lat="44.0944883" lon="11.1130383"><ele>1011.0</ele><time>2026-04-25T09:17:09.78Z</time></trkpt><trkpt lat="44.09457" lon="11.113195"><ele>1011.0</ele><time>2026-04-25T09:17:10.786Z</time></trkpt><trkpt lat="44.0946483" lon="11.1133667"><ele>1011.0</ele><time>2026-04-25T09:17:11.792Z</time></trkpt><trkpt lat="44.0947217" lon="11.113545"><ele>1011.6666666666667</ele><time>2026-04-25T09:17:12.867Z</time></trkpt><trkpt lat="44.0948017" lon="11.1137283"><ele>1012.3333333333334</ele><time>2026-04-25T09:17:13.806Z</time></trkpt><trkpt lat="44.0948767" lon="11.11392"><ele>1013.0</ele><time>2026-04-25T09:17:14.813Z</time></trkpt><trkpt lat="44.0949533" lon="11.1141"><ele>1013.0</ele><time>2026-04-25T09:17:15.818Z</time></trkpt><trkpt lat="44.0950267" lon="11.1142667"><ele>1013.0</ele><time>2026-04-25T09:17:16.826Z</time></trkpt><trkpt lat="44.09509" lon="11.114405"><ele>1013.0</ele><time>2026-04-25T09:17:17.766Z</time></trkpt><trkpt lat="44.09516" lon="11.1145317"><ele>1013.0</ele><time>2026-04-25T09:17:18.772Z</time></trkpt><trkpt lat="44.095215" lon="11.1146417"><ele>1013.0</ele><time>2026-04-25T09:17:19.779Z</time></trkpt><trkpt lat="44.0952567" lon="11.1147633"><ele>1013.0</ele><time>2026-04-25T09:17:20.785Z</time></trkpt><trkpt lat="44.095285" lon="11.1149"><ele>1013.0</ele><time>2026-04-25T09:17:21.859Z</time></trkpt><trkpt lat="44.0953" lon="11.115045"><ele>1013.0</ele><time>2026-04-25T09:17:22.799Z</time></trkpt><trkpt lat="44.0953033" lon="11.1151867"><ele>1013.0</ele><time>2026-04-25T09:17:23.805Z</time></trkpt><trkpt lat="44.0953067" lon="11.1153267"><ele>1012.2</ele><time>2026-04-25T09:17:24.811Z</time></trkpt><trkpt lat="44.0953217" lon="11.11547"><ele>1011.4</ele><time>2026-04-25T09:17:25.818Z</time></trkpt><trkpt lat="44.0953383" lon="11.1156133"><ele>1010.6000000000001</ele><time>2026-04-25T09:17:26.825Z</time></trkpt><trkpt lat="44.09536" lon="11.1157367"><ele>1009.8000000000001</ele><time>2026-04-25T09:17:27.765Z</time></trkpt><trkpt lat="44.095395" lon="11.1158467"><ele>1009.0</ele><time>2026-04-25T09:17:28.771Z</time></trkpt><trkpt lat="44.0954533" lon="11.1159367"><ele>1009.0</ele><time>2026-04-25T09:17:29.845Z</time></trkpt><trkpt lat="44.0955217" lon="11.116015"><ele>1009.0</ele><time>2026-04-25T09:17:30.852Z</time></trkpt><trkpt lat="44.0956217" lon="11.1160433"><ele>1009.0</ele><time>2026-04-25T09:17:31.858Z</time></trkpt><trkpt lat="44.0957517" lon="11.1160233"><ele>1009.0</ele><time>2026-04-25T09:17:32.797Z</time></trkpt><trkpt lat="44.0958833" lon="11.1159883"><ele>1013.5</ele><time>2026-04-25T09:17:33.805Z</time></trkpt><trkpt lat="44.09601" lon="11.1159367"><ele>1018.0</ele><time>2026-04-25T09:17:34.811Z</time></trkpt><trkpt lat="44.0961333" lon="11.1158883"><ele>1022.5</ele><time>2026-04-25T09:17:35.818Z</time></trkpt><trkpt lat="44.0962483" lon="11.1158683"><ele>1027.0</ele><time>2026-04-25T09:17:36.824Z</time></trkpt><trkpt lat="44.0963483" lon="11.1158867"><ele>1027.0</ele><time>2026-04-25T09:17:37.764Z</time></trkpt><trkpt lat="44.09643" lon="11.11593"><ele>1027.0</ele><time>2026-04-25T09:17:38.837Z</time></trkpt><trkpt lat="44.0965033" lon="11.1159917"><ele>1027.0</ele><time>2026-04-25T09:17:39.844Z</time></trkpt><trkpt lat="44.096585" lon="11.1160417"><ele>1027.0</ele><time>2026-04-25T09:17:40.85Z</time></trkpt><trkpt lat="44.0966683" lon="11.1160667"><ele>1027.0</ele><time>2026-04-25T09:17:41.857Z</time></trkpt><trkpt lat="44.0967567" lon="11.1160467"><ele>1027.0</ele><time>2026-04-25T09:17:42.797Z</time></trkpt><trkpt lat="44.0968367" lon="11.1159983"><ele>1028.0</ele><time>2026-04-25T09:17:43.803Z</time></trkpt><trkpt lat="44.0969283" lon="11.11591"><ele>1029.0</ele><time>2026-04-25T09:17:44.81Z</time></trkpt><trkpt lat="44.0970083" lon="11.1157367"><ele>1030.0</ele><time>2026-04-25T09:17:45.817Z</time></trkpt><trkpt lat="44.0970733" lon="11.11558"><ele>1031.0</ele><time>2026-04-25T09:17:46.824Z</time></trkpt><trkpt lat="44.0971417" lon="11.1154283"><ele>1037.75</ele><time>2026-04-25T09:17:47.83Z</time></trkpt><trkpt lat="44.09722" lon="11.1152933"><ele>1044.5</ele><time>2026-04-25T09:17:48.837Z</time></trkpt><trkpt lat="44.0973183" lon="11.1151567"><ele>1051.25</ele><time>2026-04-25T09:17:49.844Z</time></trkpt><trkpt lat="44.0974033" lon="11.1150183"><ele>1058.0</ele><time>2026-04-25T09:17:50.849Z</time></trkpt><trkpt lat="44.09748" lon="11.1148633"><ele>1058.75</ele><time>2026-04-25T09:17:51.857Z</time></trkpt><trkpt lat="44.0975633" lon="11.1147117"><ele>1059.5</ele><time>2026-04-25T09:17:52.796Z</time></trkpt><trkpt lat="44.0976133" lon="11.1145617"><ele>1060.25</ele><time>2026-04-25T09:17:53.803Z</time></trkpt><trkpt lat="44.0976667" lon="11.114445"><ele>1061.0</ele><time>2026-04-25T09:17:54.81Z</time></trkpt><trkpt lat="44.0977467" lon="11.114355"><ele>1061.0</ele><time>2026-04-25T09:17:55.816Z</time></trkpt><trkpt lat="44.0978417" lon="11.114285"><ele>1061.0</ele><time>2026-04-25T09:17:56.823Z</time></trkpt><trkpt lat="44.0979433" lon="11.1142167"><ele>1061.0</ele><time>2026-04-25T09:17:57.83Z</time></trkpt><trkpt lat="44.098035" lon="11.1141283"><ele>1061.0</ele><time>2026-04-25T09:17:58.836Z</time></trkpt><trkpt lat="44.0981017" lon="11.1140267"><ele>1061.0</ele><time>2026-04-25T09:17:59.843Z</time></trkpt><trkpt lat="44.0981617" lon="11.1139433"><ele>1062.0</ele><time>2026-04-25T09:18:00.849Z</time></trkpt><trkpt lat="44.0982267" lon="11.1138783"><ele>1063.0</ele><time>2026-04-25T09:18:01.789Z</time></trkpt><trkpt lat="44.0983033" lon="11.1138283"><ele>1064.0</ele><time>2026-04-25T09:18:02.796Z</time></trkpt><trkpt lat="44.0983867" lon="11.1137767"><ele>1065.0</ele><time>2026-04-25T09:18:03.802Z</time></trkpt><trkpt lat="44.098465" lon="11.113725"><ele>1066.0</ele><time>2026-04-25T09:18:04.809Z</time></trkpt><trkpt lat="44.0985317" lon="11.1136833"><ele>1067.0</ele><time>2026-04-25T09:18:05.815Z</time></trkpt><trkpt lat="44.0985917" lon="11.1136517"><ele>1067.0</ele><time>2026-04-25T09:18:06.822Z</time></trkpt><trkpt lat="44.098675" lon="11.113635"><ele>1067.0</ele><time>2026-04-25T09:18:08.835Z</time></trkpt><trkpt lat="44.0987467" lon="11.1136283"><ele>1067.0</ele><time>2026-04-25T09:18:11.788Z</time></trkpt><trkpt lat="44.09881" lon="11.1136633"><ele>1067.0</ele><time>2026-04-25T09:18:14.808Z</time></trkpt><trkpt lat="44.0989" lon="11.1136867"><ele>1067.0</ele><time>2026-04-25T09:18:16.821Z</time></trkpt><trkpt lat="44.0989867" lon="11.1137117"><ele>1067.0</ele><time>2026-04-25T09:18:18.834Z</time></trkpt><trkpt lat="44.0990933" lon="11.1137217"><ele>1067.0</ele><time>2026-04-25T09:18:20.848Z</time></trkpt><trkpt lat="44.0992083" lon="11.1137333"><ele>1067.0</ele><time>2026-04-25T09:18:22.794Z</time></trkpt><trkpt lat="44.0992733" lon="11.1137283"><ele>1067.0</ele><time>2026-04-25T09:18:23.801Z</time></trkpt><trkpt lat="44.0993433" lon="11.113715"><ele>1067.0</ele><time>2026-04-25T09:18:24.806Z</time></trkpt><trkpt lat="44.0994117" lon="11.1136933"><ele>1067.0</ele><time>2026-04-25T09:18:25.814Z</time></trkpt><trkpt lat="44.0994783" lon="11.1136633"><ele>1067.0</ele><time>2026-04-25T09:18:26.821Z</time></trkpt><trkpt lat="44.0995433" lon="11.1136383"><ele>1067.0</ele><time>2026-04-25T09:18:27.827Z</time></trkpt><trkpt lat="44.0996733" lon="11.1135933"><ele>1067.0</ele><time>2026-04-25T09:18:29.84Z</time></trkpt><trkpt lat="44.0997767" lon="11.1134983"><ele>1067.0</ele><time>2026-04-25T09:18:31.787Z</time></trkpt><trkpt lat="44.09983" lon="11.1133717"><ele>1067.0</ele><time>2026-04-25T09:18:33.8Z</time></trkpt><trkpt lat="44.0998083" lon="11.1132133"><ele>1070.1666666666667</ele><time>2026-04-25T09:18:35.813Z</time></trkpt><trkpt lat="44.0997717" lon="11.11313"><ele>1073.3333333333335</ele><time>2026-04-25T09:18:36.82Z</time></trkpt><trkpt lat="44.0997367" lon="11.1130433"><ele>1076.5</ele><time>2026-04-25T09:18:37.825Z</time></trkpt><trkpt lat="44.0997017" lon="11.1129567"><ele>1079.6666666666667</ele><time>2026-04-25T09:18:38.832Z</time></trkpt><trkpt lat="44.0996417" lon="11.1128367"><ele>1082.8333333333333</ele><time>2026-04-25T09:18:40.846Z</time></trkpt><trkpt lat="44.099575" lon="11.1127817"><ele>1086.0</ele><time>2026-04-25T09:18:42.792Z</time></trkpt><trkpt lat="44.0994983" lon="11.1128683"><ele>1086.0</ele><time>2026-04-25T09:18:45.811Z</time></trkpt><trkpt lat="44.0993983" lon="11.11296"><ele>1086.0</ele><time>2026-04-25T09:18:47.826Z</time></trkpt><trkpt lat="44.0993067" lon="11.1129883"><ele>1086.0</ele><time>2026-04-25T09:18:49.839Z</time></trkpt><trkpt lat="44.099215" lon="11.112985"><ele>1086.0</ele><time>2026-04-25T09:18:51.785Z</time></trkpt><trkpt lat="44.0991383" lon="11.112965"><ele>1086.0</ele><time>2026-04-25T09:18:53.798Z</time></trkpt><trkpt lat="44.0990767" lon="11.11294"><ele>1086.0</ele><time>2026-04-25T09:18:54.805Z</time></trkpt><trkpt lat="44.099035" lon="11.1128533"><ele>1086.0</ele><time>2026-04-25T09:18:57.825Z</time></trkpt><trkpt lat="44.099055" lon="11.112765"><ele>1086.0</ele><time>2026-04-25T09:18:58.831Z</time></trkpt><trkpt lat="44.09907" lon="11.112665"><ele>1086.0</ele><time>2026-04-25T09:18:59.838Z</time></trkpt><trkpt lat="44.099085" lon="11.11256"><ele>1086.0</ele><time>2026-04-25T09:19:00.778Z</time></trkpt><trkpt lat="44.0991017" lon="11.1124583"><ele>1086.0</ele><time>2026-04-25T09:19:01.784Z</time></trkpt><trkpt lat="44.0991117" lon="11.11232"><ele>1086.0</ele><time>2026-04-25T09:19:02.79Z</time></trkpt><trkpt lat="44.0990933" lon="11.1122267"><ele>1089.6666666666667</ele><time>2026-04-25T09:19:03.798Z</time></trkpt><trkpt lat="44.09907" lon="11.11211"><ele>1093.3333333333333</ele><time>2026-04-25T09:19:04.804Z</time></trkpt><trkpt lat="44.0990433" lon="11.11203"><ele>1097.0</ele><time>2026-04-25T09:19:05.811Z</time></trkpt><trkpt lat="44.0990033" lon="11.1119017"><ele>1100.6666666666665</ele><time>2026-04-25T09:19:07.824Z</time></trkpt><trkpt lat="44.0989983" lon="11.111805"><ele>1104.3333333333333</ele><time>2026-04-25T09:19:09.837Z</time></trkpt><trkpt lat="44.0990733" lon="11.1118433"><ele>1108.0</ele><time>2026-04-25T09:19:14.803Z</time></trkpt><trkpt lat="44.0991533" lon="11.1118367"><ele>1108.0</ele><time>2026-04-25T09:19:16.817Z</time></trkpt><trkpt lat="44.0992133" lon="11.1118083"><ele>1108.0</ele><time>2026-04-25T09:19:17.823Z</time></trkpt><trkpt lat="44.09932" lon="11.1117"><ele>1108.0</ele><time>2026-04-25T09:19:19.837Z</time></trkpt><trkpt lat="44.0994117" lon="11.1115733"><ele>1108.0</ele><time>2026-04-25T09:19:21.783Z</time></trkpt><trkpt lat="44.09952" lon="11.1114883"><ele>1108.0</ele><time>2026-04-25T09:19:23.796Z</time></trkpt><trkpt lat="44.0995817" lon="11.111465"><ele>1110.3333333333333</ele><time>2026-04-25T09:19:24.803Z</time></trkpt><trkpt lat="44.0996517" lon="11.1114483"><ele>1112.6666666666665</ele><time>2026-04-25T09:19:25.809Z</time></trkpt><trkpt lat="44.0997217" lon="11.1114367"><ele>1115.0</ele><time>2026-04-25T09:19:26.816Z</time></trkpt><trkpt lat="44.0997983" lon="11.111425"><ele>1117.3333333333333</ele><time>2026-04-25T09:19:27.821Z</time></trkpt><trkpt lat="44.0998717" lon="11.1114033"><ele>1119.6666666666667</ele><time>2026-04-25T09:19:28.829Z</time></trkpt><trkpt lat="44.0999517" lon="11.1113483"><ele>1122.0</ele><time>2026-04-25T09:19:29.836Z</time></trkpt><trkpt lat="44.1000183" lon="11.1112867"><ele>1122.0</ele><time>2026-04-25T09:19:30.775Z</time></trkpt><trkpt lat="44.1000817" lon="11.1112233"><ele>1122.0</ele><time>2026-04-25T09:19:31.782Z</time></trkpt><trkpt lat="44.100155" lon="11.1111367"><ele>1122.0</ele><time>2026-04-25T09:19:32.789Z</time></trkpt><trkpt lat="44.10022" lon="11.1110433"><ele>1122.0</ele><time>2026-04-25T09:19:33.795Z</time></trkpt><trkpt lat="44.1002583" lon="11.1109617"><ele>1122.0</ele><time>2026-04-25T09:19:34.802Z</time></trkpt><trkpt lat="44.1003033" lon="11.1108417"><ele>1122.0</ele><time>2026-04-25T09:19:35.808Z</time></trkpt><trkpt lat="44.1003333" lon="11.1106967"><ele>1125.3333333333333</ele><time>2026-04-25T09:19:36.815Z</time></trkpt><trkpt lat="44.10034" lon="11.1105367"><ele>1128.6666666666667</ele><time>2026-04-25T09:19:37.821Z</time></trkpt><trkpt lat="44.1003433" lon="11.1104117"><ele>1132.0</ele><time>2026-04-25T09:19:38.828Z</time></trkpt><trkpt lat="44.1003483" lon="11.1103017"><ele>1135.3333333333335</ele><time>2026-04-25T09:19:39.767Z</time></trkpt><trkpt lat="44.100355" lon="11.1102033"><ele>1138.6666666666667</ele><time>2026-04-25T09:19:40.775Z</time></trkpt><trkpt lat="44.1003583" lon="11.1101083"><ele>1142.0</ele><time>2026-04-25T09:19:41.781Z</time></trkpt><trkpt lat="44.100335" lon="11.1099517"><ele>1144.8</ele><time>2026-04-25T09:19:43.862Z</time></trkpt><trkpt lat="44.1003033" lon="11.1098483"><ele>1147.6</ele><time>2026-04-25T09:19:45.808Z</time></trkpt><trkpt lat="44.1003083" lon="11.1097233"><ele>1150.3999999999999</ele><time>2026-04-25T09:19:47.821Z</time></trkpt><trkpt lat="44.1003333" lon="11.1095867"><ele>1153.2</ele><time>2026-04-25T09:19:49.767Z</time></trkpt><trkpt lat="44.1003433" lon="11.10945"><ele>1156.0</ele><time>2026-04-25T09:19:51.779Z</time></trkpt><trkpt lat="44.1003317" lon="11.1093033"><ele>1156.0</ele><time>2026-04-25T09:19:53.861Z</time></trkpt><trkpt lat="44.10032" lon="11.1092167"><ele>1156.0</ele><time>2026-04-25T09:19:54.8Z</time></trkpt><trkpt lat="44.1003033" lon="11.1090783"><ele>1156.0</ele><time>2026-04-25T09:19:56.814Z</time></trkpt><trkpt lat="44.1003317" lon="11.1089733"><ele>1156.0</ele><time>2026-04-25T09:19:58.827Z</time></trkpt><trkpt lat="44.1003917" lon="11.108885"><ele>1156.0</ele><time>2026-04-25T09:20:00.839Z</time></trkpt><trkpt lat="44.1004467" lon="11.108835"><ele>1156.0</ele><time>2026-04-25T09:20:01.847Z</time></trkpt><trkpt lat="44.1005333" lon="11.1087167"><ele>1157.0</ele><time>2026-04-25T09:20:03.86Z</time></trkpt><trkpt lat="44.1006267" lon="11.1086017"><ele>1158.0</ele><time>2026-04-25T09:20:05.806Z</time></trkpt><trkpt lat="44.1007183" lon="11.1084933"><ele>1159.0</ele><time>2026-04-25T09:20:07.819Z</time></trkpt><trkpt lat="44.1007567" lon="11.1084233"><ele>1160.0</ele><time>2026-04-25T09:20:08.826Z</time></trkpt><trkpt lat="44.1007917" lon="11.108345"><ele>1161.0</ele><time>2026-04-25T09:20:09.832Z</time></trkpt><trkpt lat="44.100825" lon="11.1082683"><ele>1162.0</ele><time>2026-04-25T09:20:10.839Z</time></trkpt><trkpt lat="44.100875" lon="11.1081517"><ele>1162.0</ele><time>2026-04-25T09:20:12.853Z</time></trkpt><trkpt lat="44.1009" lon="11.1080533"><ele>1162.0</ele><time>2026-04-25T09:20:14.799Z</time></trkpt><trkpt lat="44.1009133" lon="11.10793"><ele>1162.0</ele><time>2026-04-25T09:20:16.811Z</time></trkpt><trkpt lat="44.1009333" lon="11.1078"><ele>1162.0</ele><time>2026-04-25T09:20:18.825Z</time></trkpt><trkpt lat="44.1009517" lon="11.1076733"><ele>1162.0</ele><time>2026-04-25T09:20:20.839Z</time></trkpt><trkpt lat="44.1009917" lon="11.107595"><ele>1162.0</ele><time>2026-04-25T09:20:22.852Z</time></trkpt><trkpt lat="44.1010517" lon="11.1075467"><ele>1162.0</ele><time>2026-04-25T09:20:24.798Z</time></trkpt><trkpt lat="44.1011067" lon="11.1074967"><ele>1162.0</ele><time>2026-04-25T09:20:25.805Z</time></trkpt><trkpt lat="44.101165" lon="11.1074433"><ele>1162.0</ele><time>2026-04-25T09:20:26.811Z</time></trkpt><trkpt lat="44.1012233" lon="11.10739"><ele>1162.0</ele><time>2026-04-25T09:20:27.818Z</time></trkpt><trkpt lat="44.1012817" lon="11.1073383"><ele>1162.0</ele><time>2026-04-25T09:20:28.824Z</time></trkpt><trkpt lat="44.10134" lon="11.107285"><ele>1162.0</ele><time>2026-04-25T09:20:29.831Z</time></trkpt><trkpt lat="44.1014533" lon="11.107215"><ele>1163.0</ele><time>2026-04-25T09:20:31.844Z</time></trkpt><trkpt lat="44.1015683" lon="11.1071767"><ele>1164.0</ele><time>2026-04-25T09:20:33.791Z</time></trkpt><trkpt lat="44.1016733" lon="11.1071467"><ele>1165.0</ele><time>2026-04-25T09:20:35.804Z</time></trkpt><trkpt lat="44.1017767" lon="11.1071417"><ele>1166.0</ele><time>2026-04-25T09:20:37.817Z</time></trkpt><trkpt lat="44.10187" lon="11.1071633"><ele>1167.0</ele><time>2026-04-25T09:20:39.83Z</time></trkpt><trkpt lat="44.10197" lon="11.1072133"><ele>1167.0</ele><time>2026-04-25T09:20:41.844Z</time></trkpt><trkpt lat="44.1020833" lon="11.1072267"><ele>1167.0</ele><time>2026-04-25T09:20:43.789Z</time></trkpt><trkpt lat="44.1021883" lon="11.1072317"><ele>1167.0</ele><time>2026-04-25T09:20:45.803Z</time></trkpt><trkpt lat="44.1022617" lon="11.1072217"><ele>1167.0</ele><time>2026-04-25T09:20:47.816Z</time></trkpt><trkpt lat="44.1023567" lon="11.1071467"><ele>1167.0</ele><time>2026-04-25T09:20:56.809Z</time></trkpt><trkpt lat="44.102405" lon="11.1070783"><ele>1166.4</ele><time>2026-04-25T09:20:58.822Z</time></trkpt><trkpt lat="44.1024667" lon="11.10698"><ele>1165.8000000000002</ele><time>2026-04-25T09:21:00.834Z</time></trkpt><trkpt lat="44.10255" lon="11.1068917"><ele>1165.2</ele><time>2026-04-25T09:21:02.782Z</time></trkpt><trkpt lat="44.1026333" lon="11.1067867"><ele>1164.6000000000001</ele><time>2026-04-25T09:21:04.795Z</time></trkpt><trkpt lat="44.1027133" lon="11.1066967"><ele>1164.0</ele><time>2026-04-25T09:21:06.807Z</time></trkpt><trkpt lat="44.102815" lon="11.1066233"><ele>1165.2</ele><time>2026-04-25T09:21:08.821Z</time></trkpt><trkpt lat="44.102925" lon="11.1065667"><ele>1166.4</ele><time>2026-04-25T09:21:10.835Z</time></trkpt><trkpt lat="44.1030383" lon="11.1065367"><ele>1167.6</ele><time>2026-04-25T09:21:12.781Z</time></trkpt><trkpt lat="44.1031067" lon="11.1064967"><ele>1168.8</ele><time>2026-04-25T09:21:13.786Z</time></trkpt><trkpt lat="44.103175" lon="11.1064583"><ele>1170.0</ele><time>2026-04-25T09:21:14.794Z</time></trkpt><trkpt lat="44.103255" lon="11.106415"><ele>1170.0</ele><time>2026-04-25T09:21:15.801Z</time></trkpt><trkpt lat="44.10334" lon="11.1063917"><ele>1170.0</ele><time>2026-04-25T09:21:16.807Z</time></trkpt><trkpt lat="44.1034183" lon="11.1063833"><ele>1170.0</ele><time>2026-04-25T09:21:17.814Z</time></trkpt><trkpt lat="44.1035067" lon="11.1063783"><ele>1170.0</ele><time>2026-04-25T09:21:18.821Z</time></trkpt><trkpt lat="44.1035917" lon="11.1063733"><ele>1170.0</ele><time>2026-04-25T09:21:19.826Z</time></trkpt><trkpt lat="44.1036767" lon="11.1063533"><ele>1170.0</ele><time>2026-04-25T09:21:20.834Z</time></trkpt><trkpt lat="44.103745" lon="11.1063233"><ele>1170.0</ele><time>2026-04-25T09:21:21.84Z</time></trkpt><trkpt lat="44.1038083" lon="11.1062833"><ele>1170.0</ele><time>2026-04-25T09:21:22.78Z</time></trkpt><trkpt lat="44.1039" lon="11.1060933"><ele>1170.0</ele><time>2026-04-25T09:21:24.793Z</time></trkpt><trkpt lat="44.10395" lon="11.105965"><ele>1170.0</ele><time>2026-04-25T09:21:25.8Z</time></trkpt><trkpt lat="44.104015" lon="11.105835"><ele>1167.2</ele><time>2026-04-25T09:21:27.813Z</time></trkpt><trkpt lat="44.1040983" lon="11.1057567"><ele>1164.4</ele><time>2026-04-25T09:21:29.826Z</time></trkpt><trkpt lat="44.1041767" lon="11.1057233"><ele>1161.6</ele><time>2026-04-25T09:21:31.84Z</time></trkpt><trkpt lat="44.104265" lon="11.1057417"><ele>1158.8</ele><time>2026-04-25T09:21:33.786Z</time></trkpt><trkpt lat="44.104355" lon="11.1057883"><ele>1156.0</ele><time>2026-04-25T09:21:35.799Z</time></trkpt><trkpt lat="44.1044517" lon="11.1058267"><ele>1156.0</ele><time>2026-04-25T09:21:37.812Z</time></trkpt><trkpt lat="44.10456" lon="11.1058833"><ele>1156.0</ele><time>2026-04-25T09:21:39.826Z</time></trkpt><trkpt lat="44.1046617" lon="11.1059333"><ele>1156.0</ele><time>2026-04-25T09:21:41.839Z</time></trkpt><trkpt lat="44.1047517" lon="11.1059867"><ele>1156.0</ele><time>2026-04-25T09:21:43.785Z</time></trkpt><trkpt lat="44.1048433" lon="11.10599"><ele>1156.0</ele><time>2026-04-25T09:21:45.798Z</time></trkpt><trkpt lat="44.10498" lon="11.1059833"><ele>1154.2</ele><time>2026-04-25T09:21:47.812Z</time></trkpt><trkpt lat="44.1050517" lon="11.1059933"><ele>1152.3999999999999</ele><time>2026-04-25T09:21:48.818Z</time></trkpt><trkpt lat="44.10512" lon="11.1059967"><ele>1150.6</ele><time>2026-04-25T09:21:49.825Z</time></trkpt><trkpt lat="44.1052633" lon="11.10602"><ele>1148.8</ele><time>2026-04-25T09:21:51.771Z</time></trkpt><trkpt lat="44.1053433" lon="11.106025"><ele>1147.0</ele><time>2026-04-25T09:21:52.778Z</time></trkpt><trkpt lat="44.10546" lon="11.10601"><ele>1147.0</ele><time>2026-04-25T09:21:54.791Z</time></trkpt><trkpt lat="44.1055717" lon="11.105985"><ele>1147.0</ele><time>2026-04-25T09:21:56.804Z</time></trkpt><trkpt lat="44.1056733" lon="11.1059617"><ele>1147.0</ele><time>2026-04-25T09:21:58.817Z</time></trkpt><trkpt lat="44.105785" lon="11.1059617"><ele>1147.0</ele><time>2026-04-25T09:22:00.831Z</time></trkpt><trkpt lat="44.1058883" lon="11.1059633"><ele>1147.0</ele><time>2026-04-25T09:22:02.776Z</time></trkpt><trkpt lat="44.1059733" lon="11.1059067"><ele>1145.6</ele><time>2026-04-25T09:22:04.79Z</time></trkpt><trkpt lat="44.106045" lon="11.1058283"><ele>1144.2</ele><time>2026-04-25T09:22:06.803Z</time></trkpt><trkpt lat="44.1061083" lon="11.10571"><ele>1142.8</ele><time>2026-04-25T09:22:08.816Z</time></trkpt><trkpt lat="44.1061333" lon="11.10557"><ele>1141.4</ele><time>2026-04-25T09:22:10.83Z</time></trkpt><trkpt lat="44.1061833" lon="11.1054417"><ele>1140.0</ele><time>2026-04-25T09:22:12.776Z</time></trkpt><trkpt lat="44.1062267" lon="11.1053083"><ele>1136.4</ele><time>2026-04-25T09:22:14.856Z</time></trkpt><trkpt lat="44.1062517" lon="11.10519"><ele>1132.8</ele><time>2026-04-25T09:22:16.803Z</time></trkpt><trkpt lat="44.1062767" lon="11.1050417"><ele>1129.2</ele><time>2026-04-25T09:22:18.816Z</time></trkpt><trkpt lat="44.1062817" lon="11.1048983"><ele>1125.6</ele><time>2026-04-25T09:22:20.829Z</time></trkpt><trkpt lat="44.1062633" lon="11.1047533"><ele>1122.0</ele><time>2026-04-25T09:22:22.774Z</time></trkpt><trkpt lat="44.1062717" lon="11.1046017"><ele>1117.25</ele><time>2026-04-25T09:22:24.856Z</time></trkpt><trkpt lat="44.10634" lon="11.1044667"><ele>1112.5</ele><time>2026-04-25T09:22:26.802Z</time></trkpt><trkpt lat="44.1064283" lon="11.1043467"><ele>1107.75</ele><time>2026-04-25T09:22:28.815Z</time></trkpt><trkpt lat="44.1065033" lon="11.1042233"><ele>1103.0</ele><time>2026-04-25T09:22:30.761Z</time></trkpt><trkpt lat="44.1065533" lon="11.104085"><ele>1105.6666666666667</ele><time>2026-04-25T09:22:32.842Z</time></trkpt><trkpt lat="44.106585" lon="11.1039567"><ele>1108.3333333333335</ele><time>2026-04-25T09:22:34.855Z</time></trkpt><trkpt lat="44.1066033" lon="11.1038433"><ele>1111.0</ele><time>2026-04-25T09:22:36.801Z</time></trkpt><trkpt lat="44.1066317" lon="11.1037133"><ele>1113.6666666666667</ele><time>2026-04-25T09:22:38.814Z</time></trkpt><trkpt lat="44.1066483" lon="11.1036133"><ele>1116.3333333333333</ele><time>2026-04-25T09:22:40.828Z</time></trkpt><trkpt lat="44.1066383" lon="11.1034817"><ele>1119.0</ele><time>2026-04-25T09:22:42.841Z</time></trkpt><trkpt lat="44.1066383" lon="11.103285"><ele>1112.2</ele><time>2026-04-25T09:22:44.854Z</time></trkpt><trkpt lat="44.1065767" lon="11.1031783"><ele>1105.4</ele><time>2026-04-25T09:22:46.799Z</time></trkpt><trkpt lat="44.1065267" lon="11.10302"><ele>1098.6</ele><time>2026-04-25T09:22:48.814Z</time></trkpt><trkpt lat="44.1064833" lon="11.1029133"><ele>1091.8</ele><time>2026-04-25T09:22:49.819Z</time></trkpt><trkpt lat="44.1064433" lon="11.1028383"><ele>1085.0</ele><time>2026-04-25T09:22:50.827Z</time></trkpt><trkpt lat="44.106415" lon="11.1026967"><ele>1085.0</ele><time>2026-04-25T09:22:51.833Z</time></trkpt><trkpt lat="44.1063783" lon="11.102605"><ele>1085.0</ele><time>2026-04-25T09:22:52.84Z</time></trkpt><trkpt lat="44.1063267" lon="11.1025433"><ele>1085.0</ele><time>2026-04-25T09:22:53.847Z</time></trkpt><trkpt lat="44.106235" lon="11.1024517"><ele>1085.0</ele><time>2026-04-25T09:22:55.793Z</time></trkpt><trkpt lat="44.1061767" lon="11.1023233"><ele>1085.0</ele><time>2026-04-25T09:22:57.806Z</time></trkpt><trkpt lat="44.106155" lon="11.102205"><ele>1083.8</ele><time>2026-04-25T09:22:59.818Z</time></trkpt><trkpt lat="44.106145" lon="11.102075"><ele>1082.6</ele><time>2026-04-25T09:23:01.833Z</time></trkpt><trkpt lat="44.1061667" lon="11.1019233"><ele>1081.4</ele><time>2026-04-25T09:23:03.846Z</time></trkpt><trkpt lat="44.1061933" lon="11.10179"><ele>1080.2</ele><time>2026-04-25T09:23:05.792Z</time></trkpt><trkpt lat="44.1062067" lon="11.1016717"><ele>1079.0</ele><time>2026-04-25T09:23:07.805Z</time></trkpt><trkpt lat="44.10621" lon="11.1015667"><ele>1080.1666666666667</ele><time>2026-04-25T09:23:09.819Z</time></trkpt><trkpt lat="44.1062433" lon="11.101465"><ele>1081.3333333333335</ele><time>2026-04-25T09:23:11.832Z</time></trkpt><trkpt lat="44.106285" lon="11.101395"><ele>1082.5</ele><time>2026-04-25T09:23:13.845Z</time></trkpt><trkpt lat="44.1063467" lon="11.1013017"><ele>1083.6666666666667</ele><time>2026-04-25T09:23:15.791Z</time></trkpt><trkpt lat="44.106435" lon="11.1012667"><ele>1084.8333333333333</ele><time>2026-04-25T09:23:17.805Z</time></trkpt><trkpt lat="44.10653" lon="11.1012417"><ele>1086.0</ele><time>2026-04-25T09:23:19.817Z</time></trkpt><trkpt lat="44.1066017" lon="11.10116"><ele>1086.0</ele><time>2026-04-25T09:23:21.831Z</time></trkpt><trkpt lat="44.10666" lon="11.1010467"><ele>1086.0</ele><time>2026-04-25T09:23:23.843Z</time></trkpt><trkpt lat="44.1067083" lon="11.100925"><ele>1086.0</ele><time>2026-04-25T09:23:25.791Z</time></trkpt><trkpt lat="44.10675" lon="11.1008217"><ele>1086.0</ele><time>2026-04-25T09:23:27.803Z</time></trkpt><trkpt lat="44.1067733" lon="11.1006783"><ele>1086.0</ele><time>2026-04-25T09:23:29.817Z</time></trkpt><trkpt lat="44.1068033" lon="11.1005333"><ele>1081.8</ele><time>2026-04-25T09:23:31.83Z</time></trkpt><trkpt lat="44.1068333" lon="11.1003933"><ele>1077.6</ele><time>2026-04-25T09:23:33.844Z</time></trkpt><trkpt lat="44.1068517" lon="11.100265"><ele>1073.4</ele><time>2026-04-25T09:23:35.79Z</time></trkpt><trkpt lat="44.1068667" lon="11.1000883"><ele>1069.2</ele><time>2026-04-25T09:23:37.802Z</time></trkpt><trkpt lat="44.1068467" lon="11.0999967"><ele>1065.0</ele><time>2026-04-25T09:23:38.81Z</time></trkpt><trkpt lat="44.10683" lon="11.0999117"><ele>1062.8333333333333</ele><time>2026-04-25T09:23:39.816Z</time></trkpt><trkpt lat="44.1068167" lon="11.0998133"><ele>1060.6666666666667</ele><time>2026-04-25T09:23:40.823Z</time></trkpt><trkpt lat="44.1068067" lon="11.0997083"><ele>1058.5</ele><time>2026-04-25T09:23:41.83Z</time></trkpt><trkpt lat="44.106795" lon="11.0996133"><ele>1056.3333333333335</ele><time>2026-04-25T09:23:42.835Z</time></trkpt><trkpt lat="44.1067867" lon="11.0994883"><ele>1054.1666666666667</ele><time>2026-04-25T09:23:44.782Z</time></trkpt><trkpt lat="44.1068067" lon="11.099335"><ele>1052.0</ele><time>2026-04-25T09:23:46.796Z</time></trkpt><trkpt lat="44.106865" lon="11.0992167"><ele>1050.0</ele><time>2026-04-25T09:23:48.809Z</time></trkpt><trkpt lat="44.1069217" lon="11.0990717"><ele>1048.0</ele><time>2026-04-25T09:23:50.822Z</time></trkpt><trkpt lat="44.1069533" lon="11.098995"><ele>1046.0</ele><time>2026-04-25T09:23:51.829Z</time></trkpt><trkpt lat="44.1069867" lon="11.09892"><ele>1044.0</ele><time>2026-04-25T09:23:52.835Z</time></trkpt><trkpt lat="44.10702" lon="11.0988317"><ele>1042.0</ele><time>2026-04-25T09:23:53.842Z</time></trkpt><trkpt lat="44.1070417" lon="11.0987433"><ele>1040.0</ele><time>2026-04-25T09:23:54.782Z</time></trkpt><trkpt lat="44.1070683" lon="11.0986517"><ele>1040.0</ele><time>2026-04-25T09:23:55.787Z</time></trkpt><trkpt lat="44.1071017" lon="11.09851"><ele>1040.0</ele><time>2026-04-25T09:23:57.801Z</time></trkpt><trkpt lat="44.107115" lon="11.09837"><ele>1040.0</ele><time>2026-04-25T09:23:59.815Z</time></trkpt><trkpt lat="44.10712" lon="11.098275"><ele>1040.0</ele><time>2026-04-25T09:24:00.821Z</time></trkpt><trkpt lat="44.1071467" lon="11.09815"><ele>1040.0</ele><time>2026-04-25T09:24:01.828Z</time></trkpt><trkpt lat="44.1070783" lon="11.0979983"><ele>1039.5</ele><time>2026-04-25T09:24:03.774Z</time></trkpt><trkpt lat="44.107035" lon="11.0979183"><ele>1039.0</ele><time>2026-04-25T09:24:04.78Z</time></trkpt><trkpt lat="44.107005" lon="11.0977917"><ele>1038.5</ele><time>2026-04-25T09:24:05.787Z</time></trkpt><trkpt lat="44.1069833" lon="11.0977033"><ele>1038.0</ele><time>2026-04-25T09:24:06.793Z</time></trkpt><trkpt lat="44.10696" lon="11.09762"><ele>1037.5</ele><time>2026-04-25T09:24:07.801Z</time></trkpt><trkpt lat="44.106925" lon="11.09744"><ele>1037.0</ele><time>2026-04-25T09:24:09.813Z</time></trkpt><trkpt lat="44.1069117" lon="11.0971983"><ele>1035.8333333333335</ele><time>2026-04-25T09:24:11.827Z</time></trkpt><trkpt lat="44.1069283" lon="11.09709"><ele>1034.6666666666667</ele><time>2026-04-25T09:24:12.834Z</time></trkpt><trkpt lat="44.10697" lon="11.0969883"><ele>1033.5</ele><time>2026-04-25T09:24:13.772Z</time></trkpt><trkpt lat="44.1070033" lon="11.0969017"><ele>1032.3333333333333</ele><time>2026-04-25T09:24:14.78Z</time></trkpt><trkpt lat="44.1070317" lon="11.0968067"><ele>1031.1666666666665</ele><time>2026-04-25T09:24:15.787Z</time></trkpt><trkpt lat="44.1070417" lon="11.09664"><ele>1030.0</ele><time>2026-04-25T09:24:17.8Z</time></trkpt><trkpt lat="44.1070433" lon="11.0964767"><ele>1028.1666666666665</ele><time>2026-04-25T09:24:19.813Z</time></trkpt><trkpt lat="44.1070333" lon="11.0963567"><ele>1026.3333333333333</ele><time>2026-04-25T09:24:20.82Z</time></trkpt><trkpt lat="44.107" lon="11.096275"><ele>1024.5</ele><time>2026-04-25T09:24:21.826Z</time></trkpt><trkpt lat="44.1069683" lon="11.0961933"><ele>1022.6666666666667</ele><time>2026-04-25T09:24:22.832Z</time></trkpt><trkpt lat="44.106925" lon="11.096045"><ele>1020.8333333333334</ele><time>2026-04-25T09:24:24.778Z</time></trkpt><trkpt lat="44.1069183" lon="11.0959517"><ele>1019.0</ele><time>2026-04-25T09:24:25.786Z</time></trkpt><trkpt lat="44.106945" lon="11.095785"><ele>1017.0000000000001</ele><time>2026-04-25T09:24:27.799Z</time></trkpt><trkpt lat="44.1069617" lon="11.0956783"><ele>1015.0</ele><time>2026-04-25T09:24:28.805Z</time></trkpt><trkpt lat="44.1069983" lon="11.0955817"><ele>1013.0</ele><time>2026-04-25T09:24:29.812Z</time></trkpt><trkpt lat="44.1070317" lon="11.0954783"><ele>1011.0</ele><time>2026-04-25T09:24:30.818Z</time></trkpt><trkpt lat="44.10706" lon="11.0953717"><ele>1009.0000000000001</ele><time>2026-04-25T09:24:31.826Z</time></trkpt><trkpt lat="44.1070883" lon="11.0952817"><ele>1007.0</ele><time>2026-04-25T09:24:32.832Z</time></trkpt><trkpt lat="44.1071533" lon="11.0951433"><ele>1007.0</ele><time>2026-04-25T09:24:34.778Z</time></trkpt><trkpt lat="44.1072067" lon="11.09508"><ele>1007.0</ele><time>2026-04-25T09:24:35.785Z</time></trkpt><trkpt lat="44.1072583" lon="11.095025"><ele>1007.0</ele><time>2026-04-25T09:24:36.791Z</time></trkpt><trkpt lat="44.1073183" lon="11.09496"><ele>1007.0</ele><time>2026-04-25T09:24:37.865Z</time></trkpt><trkpt lat="44.107375" lon="11.0948933"><ele>1007.0</ele><time>2026-04-25T09:24:38.805Z</time></trkpt><trkpt lat="44.1074217" lon="11.094825"><ele>1007.0</ele><time>2026-04-25T09:24:39.812Z</time></trkpt><trkpt lat="44.107465" lon="11.09474"><ele>1007.0</ele><time>2026-04-25T09:24:40.818Z</time></trkpt><trkpt lat="44.1075033" lon="11.094655"><ele>1007.2857142857142</ele><time>2026-04-25T09:24:41.825Z</time></trkpt><trkpt lat="44.107545" lon="11.0945617"><ele>1007.5714285714287</ele><time>2026-04-25T09:24:42.763Z</time></trkpt><trkpt lat="44.1075783" lon="11.094475"><ele>1007.8571428571429</ele><time>2026-04-25T09:24:43.771Z</time></trkpt><trkpt lat="44.1076083" lon="11.0943817"><ele>1008.1428571428571</ele><time>2026-04-25T09:24:44.778Z</time></trkpt><trkpt lat="44.10764" lon="11.094295"><ele>1008.4285714285713</ele><time>2026-04-25T09:24:45.851Z</time></trkpt><trkpt lat="44.1076733" lon="11.0942167"><ele>1008.7142857142858</ele><time>2026-04-25T09:24:46.858Z</time></trkpt><trkpt lat="44.1077117" lon="11.094135"><ele>1009.0</ele><time>2026-04-25T09:24:47.798Z</time></trkpt><trkpt lat="44.107755" lon="11.0940583"><ele>1005.8333333333333</ele><time>2026-04-25T09:24:48.804Z</time></trkpt><trkpt lat="44.1078033" lon="11.093995"><ele>1002.6666666666666</ele><time>2026-04-25T09:24:49.811Z</time></trkpt><trkpt lat="44.107855" lon="11.0939267"><ele>999.5</ele><time>2026-04-25T09:24:50.817Z</time></trkpt><trkpt lat="44.1079133" lon="11.0938667"><ele>996.3333333333333</ele><time>2026-04-25T09:24:51.824Z</time></trkpt><trkpt lat="44.1079667" lon="11.0938167"><ele>993.1666666666666</ele><time>2026-04-25T09:24:52.764Z</time></trkpt><trkpt lat="44.1080667" lon="11.093715"><ele>990.0</ele><time>2026-04-25T09:24:54.844Z</time></trkpt><trkpt lat="44.1081917" lon="11.0936133"><ele>991.6</ele><time>2026-04-25T09:24:56.857Z</time></trkpt><trkpt lat="44.1082683" lon="11.093575"><ele>993.2</ele><time>2026-04-25T09:24:57.797Z</time></trkpt><trkpt lat="44.1083683" lon="11.093515"><ele>994.8</ele><time>2026-04-25T09:24:59.809Z</time></trkpt><trkpt lat="44.1084667" lon="11.0934467"><ele>996.4</ele><time>2026-04-25T09:25:01.823Z</time></trkpt><trkpt lat="44.108485" lon="11.0933383"><ele>998.0</ele><time>2026-04-25T09:25:03.837Z</time></trkpt><trkpt lat="44.108445" lon="11.0932567"><ele>996.4</ele><time>2026-04-25T09:25:05.849Z</time></trkpt><trkpt lat="44.1083783" lon="11.09321"><ele>994.8</ele><time>2026-04-25T09:25:07.796Z</time></trkpt><trkpt lat="44.1082883" lon="11.0932367"><ele>993.2</ele><time>2026-04-25T09:25:09.809Z</time></trkpt><trkpt lat="44.1081783" lon="11.0932717"><ele>991.6</ele><time>2026-04-25T09:25:11.823Z</time></trkpt><trkpt lat="44.1080733" lon="11.0932967"><ele>990.0</ele><time>2026-04-25T09:25:13.835Z</time></trkpt><trkpt lat="44.1079683" lon="11.0933217"><ele>990.0</ele><time>2026-04-25T09:25:15.849Z</time></trkpt><trkpt lat="44.1078383" lon="11.09334"><ele>990.0</ele><time>2026-04-25T09:25:17.795Z</time></trkpt><trkpt lat="44.107725" lon="11.0933283"><ele>990.0</ele><time>2026-04-25T09:25:19.808Z</time></trkpt><trkpt lat="44.1076567" lon="11.09331"><ele>990.0</ele><time>2026-04-25T09:25:20.815Z</time></trkpt><trkpt lat="44.1075867" lon="11.0932883"><ele>990.0</ele><time>2026-04-25T09:25:21.822Z</time></trkpt><trkpt lat="44.1075183" lon="11.093285"><ele>986.8</ele><time>2026-04-25T09:25:22.827Z</time></trkpt><trkpt lat="44.1074067" lon="11.0932867"><ele>983.6</ele><time>2026-04-25T09:25:23.835Z</time></trkpt><trkpt lat="44.1072833" lon="11.093335"><ele>980.4000000000001</ele><time>2026-04-25T09:25:25.848Z</time></trkpt><trkpt lat="44.1072167" lon="11.0933683"><ele>977.2</ele><time>2026-04-25T09:25:26.855Z</time></trkpt><trkpt lat="44.1071533" lon="11.0934033"><ele>974.0</ele><time>2026-04-25T09:25:27.794Z</time></trkpt><trkpt lat="44.1070483" lon="11.09346"><ele>974.0</ele><time>2026-04-25T09:25:29.808Z</time></trkpt><trkpt lat="44.1069767" lon="11.0934733"><ele>974.0000000000001</ele><time>2026-04-25T09:25:30.814Z</time></trkpt><trkpt lat="44.1068517" lon="11.0934933"><ele>974.0000000000001</ele><time>2026-04-25T09:25:32.827Z</time></trkpt><trkpt lat="44.10679" lon="11.0935167"><ele>974.0</ele><time>2026-04-25T09:25:33.834Z</time></trkpt><trkpt lat="44.1066983" lon="11.093565"><ele>974.0</ele><time>2026-04-25T09:25:35.848Z</time></trkpt><trkpt lat="44.1065867" lon="11.0936233"><ele>969.0</ele><time>2026-04-25T09:25:37.794Z</time></trkpt><trkpt lat="44.1064533" lon="11.0936883"><ele>964.0</ele><time>2026-04-25T09:25:39.807Z</time></trkpt><trkpt lat="44.1063417" lon="11.0937567"><ele>959.0</ele><time>2026-04-25T09:25:41.819Z</time></trkpt><trkpt lat="44.1062517" lon="11.09386"><ele>954.0</ele><time>2026-04-25T09:25:43.833Z</time></trkpt><trkpt lat="44.1061817" lon="11.0939917"><ele>954.0</ele><time>2026-04-25T09:25:45.847Z</time></trkpt><trkpt lat="44.1061267" lon="11.09406"><ele>954.0</ele><time>2026-04-25T09:25:46.786Z</time></trkpt><trkpt lat="44.1060667" lon="11.0941833"><ele>954.0</ele><time>2026-04-25T09:25:48.8Z</time></trkpt><trkpt lat="44.10601" lon="11.0943083"><ele>954.0</ele><time>2026-04-25T09:25:50.813Z</time></trkpt><trkpt lat="44.105965" lon="11.094415"><ele>954.0</ele><time>2026-04-25T09:25:52.825Z</time></trkpt><trkpt lat="44.1059267" lon="11.0944967"><ele>954.0</ele><time>2026-04-25T09:25:54.839Z</time></trkpt><trkpt lat="44.105875" lon="11.0945533"><ele>956.0</ele><time>2026-04-25T09:25:56.785Z</time></trkpt><trkpt lat="44.1058" lon="11.09457"><ele>958.0000000000001</ele><time>2026-04-25T09:26:00.811Z</time></trkpt><trkpt lat="44.1057433" lon="11.0945067"><ele>960.0000000000001</ele><time>2026-04-25T09:26:02.824Z</time></trkpt><trkpt lat="44.10565" lon="11.0944283"><ele>962.0</ele><time>2026-04-25T09:26:04.839Z</time></trkpt><trkpt lat="44.1055933" lon="11.09428"><ele>964.0</ele><time>2026-04-25T09:26:06.785Z</time></trkpt><trkpt lat="44.105605" lon="11.094175"><ele>964.1666666666666</ele><time>2026-04-25T09:26:07.791Z</time></trkpt><trkpt lat="44.10562" lon="11.094075"><ele>964.3333333333333</ele><time>2026-04-25T09:26:08.798Z</time></trkpt><trkpt lat="44.105645" lon="11.0939683"><ele>964.5</ele><time>2026-04-25T09:26:09.805Z</time></trkpt><trkpt lat="44.1056667" lon="11.0938683"><ele>964.6666666666667</ele><time>2026-04-25T09:26:10.811Z</time></trkpt><trkpt lat="44.105695" lon="11.0937733"><ele>964.8333333333334</ele><time>2026-04-25T09:26:11.818Z</time></trkpt><trkpt lat="44.1057283" lon="11.093665"><ele>965.0</ele><time>2026-04-25T09:26:12.824Z</time></trkpt><trkpt lat="44.105755" lon="11.093555"><ele>963.1666666666667</ele><time>2026-04-25T09:26:13.831Z</time></trkpt><trkpt lat="44.1057767" lon="11.093455"><ele>961.3333333333334</ele><time>2026-04-25T09:26:14.838Z</time></trkpt><trkpt lat="44.1057933" lon="11.0933533"><ele>959.5</ele><time>2026-04-25T09:26:15.777Z</time></trkpt><trkpt lat="44.10581" lon="11.0932517"><ele>957.6666666666667</ele><time>2026-04-25T09:26:16.784Z</time></trkpt><trkpt lat="44.1058233" lon="11.0931583"><ele>955.8333333333334</ele><time>2026-04-25T09:26:17.791Z</time></trkpt><trkpt lat="44.105845" lon="11.093075"><ele>954.0</ele><time>2026-04-25T09:26:18.797Z</time></trkpt><trkpt lat="44.1058783" lon="11.09293"><ele>953.0</ele><time>2026-04-25T09:26:20.81Z</time></trkpt><trkpt lat="44.1059383" lon="11.092765"><ele>952.0</ele><time>2026-04-25T09:26:22.824Z</time></trkpt><trkpt lat="44.1059783" lon="11.09268"><ele>951.0</ele><time>2026-04-25T09:26:23.83Z</time></trkpt><trkpt lat="44.106025" lon="11.0925967"><ele>950.0</ele><time>2026-04-25T09:26:24.837Z</time></trkpt><trkpt lat="44.106085" lon="11.0925267"><ele>949.0</ele><time>2026-04-25T09:26:25.777Z</time></trkpt><trkpt lat="44.1061433" lon="11.0924717"><ele>948.0</ele><time>2026-04-25T09:26:26.783Z</time></trkpt><trkpt lat="44.1062317" lon="11.0923733"><ele>946.5</ele><time>2026-04-25T09:26:28.795Z</time></trkpt><trkpt lat="44.1062767" lon="11.0922817"><ele>945.0</ele><time>2026-04-25T09:26:29.803Z</time></trkpt><trkpt lat="44.1063217" lon="11.0921983"><ele>943.5</ele><time>2026-04-25T09:26:30.809Z</time></trkpt><trkpt lat="44.1063833" lon="11.0921133"><ele>942.0</ele><time>2026-04-25T09:26:31.816Z</time></trkpt><trkpt lat="44.1064617" lon="11.0920317"><ele>940.5</ele><time>2026-04-25T09:26:32.823Z</time></trkpt><trkpt lat="44.1065233" lon="11.0919383"><ele>939.0</ele><time>2026-04-25T09:26:33.829Z</time></trkpt><trkpt lat="44.1065933" lon="11.091855"><ele>939.0</ele><time>2026-04-25T09:26:34.836Z</time></trkpt><trkpt lat="44.1066433" lon="11.091755"><ele>939.0</ele><time>2026-04-25T09:26:35.776Z</time></trkpt><trkpt lat="44.1066917" lon="11.0916733"><ele>939.0</ele><time>2026-04-25T09:26:36.781Z</time></trkpt><trkpt lat="44.1067383" lon="11.0916017"><ele>939.0</ele><time>2026-04-25T09:26:37.789Z</time></trkpt><trkpt lat="44.106785" lon="11.091515"><ele>939.0</ele><time>2026-04-25T09:26:38.796Z</time></trkpt><trkpt lat="44.1068267" lon="11.0914317"><ele>939.0</ele><time>2026-04-25T09:26:39.802Z</time></trkpt><trkpt lat="44.1068667" lon="11.0913633"><ele>939.0</ele><time>2026-04-25T09:26:40.808Z</time></trkpt><trkpt lat="44.1069367" lon="11.091245"><ele>937.8333333333334</ele><time>2026-04-25T09:26:42.822Z</time></trkpt><trkpt lat="44.1069983" lon="11.091165"><ele>936.6666666666667</ele><time>2026-04-25T09:26:44.835Z</time></trkpt><trkpt lat="44.1070717" lon="11.0911033"><ele>935.5</ele><time>2026-04-25T09:26:46.781Z</time></trkpt><trkpt lat="44.10714" lon="11.0911017"><ele>934.3333333333334</ele><time>2026-04-25T09:26:47.788Z</time></trkpt><trkpt lat="44.107225" lon="11.0910717"><ele>933.1666666666667</ele><time>2026-04-25T09:26:48.795Z</time></trkpt><trkpt lat="44.1073217" lon="11.091045"><ele>932.0</ele><time>2026-04-25T09:26:49.801Z</time></trkpt><trkpt lat="44.1074133" lon="11.0910017"><ele>932.0000000000001</ele><time>2026-04-25T09:26:50.807Z</time></trkpt><trkpt lat="44.1074867" lon="11.0909683"><ele>932.0</ele><time>2026-04-25T09:26:51.815Z</time></trkpt><trkpt lat="44.10756" lon="11.0909333"><ele>932.0</ele><time>2026-04-25T09:26:52.82Z</time></trkpt><trkpt lat="44.1076283" lon="11.090895"><ele>932.0</ele><time>2026-04-25T09:26:53.828Z</time></trkpt><trkpt lat="44.10769" lon="11.09086"><ele>932.0000000000001</ele><time>2026-04-25T09:26:54.834Z</time></trkpt><trkpt lat="44.1077883" lon="11.090775"><ele>932.0</ele><time>2026-04-25T09:26:56.781Z</time></trkpt><trkpt lat="44.107845" lon="11.0907317"><ele>931.4285714285714</ele><time>2026-04-25T09:26:57.787Z</time></trkpt><trkpt lat="44.10791" lon="11.0906767"><ele>930.8571428571429</ele><time>2026-04-25T09:26:58.794Z</time></trkpt><trkpt lat="44.1079733" lon="11.0906283"><ele>930.2857142857143</ele><time>2026-04-25T09:26:59.801Z</time></trkpt><trkpt lat="44.1080417" lon="11.0905883"><ele>929.7142857142858</ele><time>2026-04-25T09:27:00.807Z</time></trkpt><trkpt lat="44.1081067" lon="11.0905567"><ele>929.1428571428571</ele><time>2026-04-25T09:27:01.814Z</time></trkpt><trkpt lat="44.1081783" lon="11.0905333"><ele>928.5714285714287</ele><time>2026-04-25T09:27:02.821Z</time></trkpt><trkpt lat="44.1082533" lon="11.0905067"><ele>928.0000000000001</ele><time>2026-04-25T09:27:03.827Z</time></trkpt><trkpt lat="44.1083417" lon="11.0904983"><ele>928.0</ele><time>2026-04-25T09:27:04.767Z</time></trkpt><trkpt lat="44.108415" lon="11.0905033"><ele>928.0</ele><time>2026-04-25T09:27:05.773Z</time></trkpt><trkpt lat="44.1084883" lon="11.0905"><ele>928.0</ele><time>2026-04-25T09:27:06.78Z</time></trkpt><trkpt lat="44.1085917" lon="11.0905033"><ele>928.0</ele><time>2026-04-25T09:27:07.786Z</time></trkpt><trkpt lat="44.1087067" lon="11.090455"><ele>928.0</ele><time>2026-04-25T09:27:09.8Z</time></trkpt><trkpt lat="44.10881" lon="11.0904533"><ele>928.0</ele><time>2026-04-25T09:27:10.806Z</time></trkpt><trkpt lat="44.1089083" lon="11.0903817"><ele>928.0</ele><time>2026-04-25T09:27:12.82Z</time></trkpt><trkpt lat="44.1089833" lon="11.0903617"><ele>928.0</ele><time>2026-04-25T09:27:13.825Z</time></trkpt><trkpt lat="44.1091067" lon="11.0904083"><ele>928.0</ele><time>2026-04-25T09:27:15.773Z</time></trkpt><trkpt lat="44.1091817" lon="11.0904583"><ele>928.0</ele><time>2026-04-25T09:27:16.846Z</time></trkpt><trkpt lat="44.1092433" lon="11.0905183"><ele>925.3333333333333</ele><time>2026-04-25T09:27:17.853Z</time></trkpt><trkpt lat="44.1093117" lon="11.0905867"><ele>922.6666666666666</ele><time>2026-04-25T09:27:18.86Z</time></trkpt><trkpt lat="44.1093733" lon="11.0906433"><ele>920.0</ele><time>2026-04-25T09:27:19.799Z</time></trkpt><trkpt lat="44.1094333" lon="11.090725"><ele>917.3333333333333</ele><time>2026-04-25T09:27:20.806Z</time></trkpt><trkpt lat="44.109475" lon="11.09081"><ele>914.6666666666666</ele><time>2026-04-25T09:27:21.812Z</time></trkpt><trkpt lat="44.1095117" lon="11.090885"><ele>912.0</ele><time>2026-04-25T09:27:22.819Z</time></trkpt><trkpt lat="44.10959" lon="11.091015"><ele>912.2</ele><time>2026-04-25T09:27:24.765Z</time></trkpt><trkpt lat="44.1096483" lon="11.09109"><ele>912.4000000000001</ele><time>2026-04-25T09:27:25.838Z</time></trkpt><trkpt lat="44.10972" lon="11.0911617"><ele>912.5999999999999</ele><time>2026-04-25T09:27:26.846Z</time></trkpt><trkpt lat="44.1097883" lon="11.0912517"><ele>912.8</ele><time>2026-04-25T09:27:27.851Z</time></trkpt><trkpt lat="44.10986" lon="11.0913383"><ele>913.0</ele><time>2026-04-25T09:27:28.859Z</time></trkpt><trkpt lat="44.10993" lon="11.091425"><ele>913.0</ele><time>2026-04-25T09:27:29.798Z</time></trkpt><trkpt lat="44.1100183" lon="11.0914933"><ele>913.0</ele><time>2026-04-25T09:27:30.804Z</time></trkpt><trkpt lat="44.1100933" lon="11.0915617"><ele>913.0</ele><time>2026-04-25T09:27:31.812Z</time></trkpt><trkpt lat="44.11019" lon="11.0916233"><ele>913.0</ele><time>2026-04-25T09:27:32.818Z</time></trkpt><trkpt lat="44.110275" lon="11.09169"><ele>913.0</ele><time>2026-04-25T09:27:33.825Z</time></trkpt><trkpt lat="44.1103683" lon="11.0917417"><ele>910.9999999999999</ele><time>2026-04-25T09:27:34.832Z</time></trkpt><trkpt lat="44.1104667" lon="11.0918083"><ele>909.0</ele><time>2026-04-25T09:27:35.837Z</time></trkpt><trkpt lat="44.1105417" lon="11.0918383"><ele>907.0</ele><time>2026-04-25T09:27:36.845Z</time></trkpt><trkpt lat="44.11062" lon="11.0918467"><ele>905.0</ele><time>2026-04-25T09:27:37.851Z</time></trkpt><trkpt lat="44.110705" lon="11.09184"><ele>902.9999999999999</ele><time>2026-04-25T09:27:38.858Z</time></trkpt><trkpt lat="44.1107767" lon="11.0918383"><ele>901.0</ele><time>2026-04-25T09:27:39.798Z</time></trkpt><trkpt lat="44.110865" lon="11.0918583"><ele>901.0</ele><time>2026-04-25T09:27:40.804Z</time></trkpt><trkpt lat="44.11098" lon="11.0918983"><ele>900.9999999999999</ele><time>2026-04-25T09:27:41.811Z</time></trkpt><trkpt lat="44.111075" lon="11.0919117"><ele>900.9999999999999</ele><time>2026-04-25T09:27:42.817Z</time></trkpt><trkpt lat="44.1111667" lon="11.0919133"><ele>901.0</ele><time>2026-04-25T09:27:43.824Z</time></trkpt><trkpt lat="44.1112517" lon="11.0919317"><ele>901.0</ele><time>2026-04-25T09:27:44.831Z</time></trkpt><trkpt lat="44.1113483" lon="11.09196"><ele>900.9999999999999</ele><time>2026-04-25T09:27:45.837Z</time></trkpt><trkpt lat="44.1114217" lon="11.09201"><ele>901.0</ele><time>2026-04-25T09:27:46.844Z</time></trkpt><trkpt lat="44.1114917" lon="11.092075"><ele>901.0</ele><time>2026-04-25T09:27:47.851Z</time></trkpt><trkpt lat="44.1115317" lon="11.09216"><ele>901.0</ele><time>2026-04-25T09:27:48.789Z</time></trkpt><trkpt lat="44.111555" lon="11.092285"><ele>900.9999999999999</ele><time>2026-04-25T09:27:49.796Z</time></trkpt><trkpt lat="44.1115817" lon="11.0924083"><ele>901.0</ele><time>2026-04-25T09:27:50.803Z</time></trkpt><trkpt lat="44.1116317" lon="11.0925367"><ele>900.0</ele><time>2026-04-25T09:27:51.81Z</time></trkpt><trkpt lat="44.111685" lon="11.0926483"><ele>898.9999999999999</ele><time>2026-04-25T09:27:52.817Z</time></trkpt><trkpt lat="44.1117517" lon="11.092715"><ele>897.9999999999999</ele><time>2026-04-25T09:27:53.822Z</time></trkpt><trkpt lat="44.11185" lon="11.0927767"><ele>897.0</ele><time>2026-04-25T09:27:54.83Z</time></trkpt><trkpt lat="44.1119667" lon="11.09281"><ele>896.0</ele><time>2026-04-25T09:27:55.837Z</time></trkpt><trkpt lat="44.1121017" lon="11.09285"><ele>896.0</ele><time>2026-04-25T09:27:56.842Z</time></trkpt><trkpt lat="44.1122367" lon="11.0928917"><ele>896.0</ele><time>2026-04-25T09:27:57.85Z</time></trkpt><trkpt lat="44.11236" lon="11.09294"><ele>896.0</ele><time>2026-04-25T09:27:58.789Z</time></trkpt><trkpt lat="44.1124883" lon="11.09299"><ele>896.0</ele><time>2026-04-25T09:27:59.796Z</time></trkpt><trkpt lat="44.112605" lon="11.0930467"><ele>894.4</ele><time>2026-04-25T09:28:00.803Z</time></trkpt><trkpt lat="44.112735" lon="11.0930983"><ele>892.8</ele><time>2026-04-25T09:28:01.809Z</time></trkpt><trkpt lat="44.1128367" lon="11.0931583"><ele>891.1999999999999</ele><time>2026-04-25T09:28:02.815Z</time></trkpt><trkpt lat="44.1129267" lon="11.0932333"><ele>889.5999999999999</ele><time>2026-04-25T09:28:03.822Z</time></trkpt><trkpt lat="44.1130033" lon="11.0933083"><ele>888.0</ele><time>2026-04-25T09:28:04.828Z</time></trkpt><trkpt lat="44.1130817" lon="11.0933767"><ele>888.0</ele><time>2026-04-25T09:28:05.835Z</time></trkpt><trkpt lat="44.1131617" lon="11.093425"><ele>888.0</ele><time>2026-04-25T09:28:06.842Z</time></trkpt><trkpt lat="44.113245" lon="11.0934933"><ele>888.0</ele><time>2026-04-25T09:28:07.849Z</time></trkpt><trkpt lat="44.11331" lon="11.0935733"><ele>888.0</ele><time>2026-04-25T09:28:08.789Z</time></trkpt><trkpt lat="44.1133783" lon="11.093655"><ele>888.0</ele><time>2026-04-25T09:28:09.794Z</time></trkpt><trkpt lat="44.113465" lon="11.0937483"><ele>887.5999999999999</ele><time>2026-04-25T09:28:10.802Z</time></trkpt><trkpt lat="44.113535" lon="11.0938333"><ele>887.1999999999999</ele><time>2026-04-25T09:28:11.809Z</time></trkpt><trkpt lat="44.1136183" lon="11.0939217"><ele>886.8</ele><time>2026-04-25T09:28:12.815Z</time></trkpt><trkpt lat="44.1137" lon="11.0939833"><ele>886.4</ele><time>2026-04-25T09:28:13.822Z</time></trkpt><trkpt lat="44.1137833" lon="11.094045"><ele>886.0</ele><time>2026-04-25T09:28:14.828Z</time></trkpt><trkpt lat="44.1138917" lon="11.0941033"><ele>885.9999999999999</ele><time>2026-04-25T09:28:15.835Z</time></trkpt><trkpt lat="44.1139783" lon="11.0941483"><ele>886.0</ele><time>2026-04-25T09:28:16.842Z</time></trkpt><trkpt lat="44.1140533" lon="11.0941883"><ele>886.0</ele><time>2026-04-25T09:28:17.848Z</time></trkpt><trkpt lat="44.1141283" lon="11.0942533"><ele>886.0</ele><time>2026-04-25T09:28:18.788Z</time></trkpt><trkpt lat="44.11419" lon="11.0943333"><ele>885.9999999999999</ele><time>2026-04-25T09:28:19.793Z</time></trkpt><trkpt lat="44.11425" lon="11.0944233"><ele>886.0</ele><time>2026-04-25T09:28:20.801Z</time></trkpt><trkpt lat="44.114315" lon="11.0945217"><ele>885.6666666666666</ele><time>2026-04-25T09:28:21.807Z</time></trkpt><trkpt lat="44.114385" lon="11.094615"><ele>885.3333333333333</ele><time>2026-04-25T09:28:22.814Z</time></trkpt><trkpt lat="44.1144583" lon="11.09469"><ele>885.0</ele><time>2026-04-25T09:28:23.821Z</time></trkpt><trkpt lat="44.1145333" lon="11.09476"><ele>884.6666666666667</ele><time>2026-04-25T09:28:24.827Z</time></trkpt><trkpt lat="44.114605" lon="11.0948067"><ele>884.3333333333334</ele><time>2026-04-25T09:28:25.833Z</time></trkpt><trkpt lat="44.1146833" lon="11.0948467"><ele>884.0</ele><time>2026-04-25T09:28:26.84Z</time></trkpt><trkpt lat="44.1147583" lon="11.0948767"><ele>884.0000000000001</ele><time>2026-04-25T09:28:27.78Z</time></trkpt><trkpt lat="44.11483" lon="11.09492"><ele>884.0</ele><time>2026-04-25T09:28:28.786Z</time></trkpt><trkpt lat="44.1149017" lon="11.0949717"><ele>884.0</ele><time>2026-04-25T09:28:29.793Z</time></trkpt><trkpt lat="44.1149767" lon="11.0950233"><ele>884.0</ele><time>2026-04-25T09:28:30.8Z</time></trkpt><trkpt lat="44.115055" lon="11.0950733"><ele>884.0000000000001</ele><time>2026-04-25T09:28:31.806Z</time></trkpt><trkpt lat="44.1151217" lon="11.0951333"><ele>884.0</ele><time>2026-04-25T09:28:32.814Z</time></trkpt><trkpt lat="44.11518" lon="11.095205"><ele>882.4000000000001</ele><time>2026-04-25T09:28:33.819Z</time></trkpt><trkpt lat="44.11524" lon="11.095285"><ele>880.8000000000001</ele><time>2026-04-25T09:28:34.827Z</time></trkpt><trkpt lat="44.115305" lon="11.0953733"><ele>879.1999999999999</ele><time>2026-04-25T09:28:35.833Z</time></trkpt><trkpt lat="44.11537" lon="11.0954717"><ele>877.5999999999999</ele><time>2026-04-25T09:28:36.84Z</time></trkpt><trkpt lat="44.11544" lon="11.09559"><ele>876.0</ele><time>2026-04-25T09:28:37.78Z</time></trkpt><trkpt lat="44.115505" lon="11.09571"><ele>875.5999999999999</ele><time>2026-04-25T09:28:38.785Z</time></trkpt><trkpt lat="44.1155717" lon="11.0958183"><ele>875.1999999999999</ele><time>2026-04-25T09:28:39.793Z</time></trkpt><trkpt lat="44.115645" lon="11.0959333"><ele>874.8000000000001</ele><time>2026-04-25T09:28:40.8Z</time></trkpt><trkpt lat="44.115715" lon="11.09604"><ele>874.4000000000001</ele><time>2026-04-25T09:28:41.806Z</time></trkpt><trkpt lat="44.1157867" lon="11.0961367"><ele>874.0</ele><time>2026-04-25T09:28:42.813Z</time></trkpt><trkpt lat="44.115865" lon="11.0962417"><ele>874.0</ele><time>2026-04-25T09:28:43.819Z</time></trkpt><trkpt lat="44.1159383" lon="11.0963267"><ele>874.0</ele><time>2026-04-25T09:28:44.826Z</time></trkpt><trkpt lat="44.1160017" lon="11.09638"><ele>874.0</ele><time>2026-04-25T09:28:45.832Z</time></trkpt><trkpt lat="44.1160683" lon="11.096415"><ele>874.0</ele><time>2026-04-25T09:28:46.839Z</time></trkpt><trkpt lat="44.1161333" lon="11.09644"><ele>874.0</ele><time>2026-04-25T09:28:47.779Z</time></trkpt><trkpt lat="44.1162017" lon="11.0964533"><ele>874.0</ele><time>2026-04-25T09:28:48.785Z</time></trkpt><trkpt lat="44.11626" lon="11.0965"><ele>874.0</ele><time>2026-04-25T09:28:49.791Z</time></trkpt><trkpt lat="44.11631" lon="11.0965567"><ele>874.4999999999999</ele><time>2026-04-25T09:28:50.799Z</time></trkpt><trkpt lat="44.1163583" lon="11.0966133"><ele>875.0</ele><time>2026-04-25T09:28:51.804Z</time></trkpt><trkpt lat="44.1164" lon="11.0966933"><ele>875.5</ele><time>2026-04-25T09:28:52.811Z</time></trkpt><trkpt lat="44.11645" lon="11.0967817"><ele>876.0</ele><time>2026-04-25T09:28:53.819Z</time></trkpt><trkpt lat="44.1165067" lon="11.0968617"><ele>876.4999999999999</ele><time>2026-04-25T09:28:54.824Z</time></trkpt><trkpt lat="44.11657" lon="11.0969433"><ele>877.0</ele><time>2026-04-25T09:28:55.832Z</time></trkpt><trkpt lat="44.1166333" lon="11.097025"><ele>876.9999999999999</ele><time>2026-04-25T09:28:56.839Z</time></trkpt><trkpt lat="44.1166933" lon="11.0971033"><ele>877.0</ele><time>2026-04-25T09:28:57.777Z</time></trkpt><trkpt lat="44.1167617" lon="11.097175"><ele>877.0</ele><time>2026-04-25T09:28:58.785Z</time></trkpt><trkpt lat="44.1168383" lon="11.0972367"><ele>877.0</ele><time>2026-04-25T09:28:59.791Z</time></trkpt><trkpt lat="44.1169233" lon="11.0972867"><ele>876.9999999999999</ele><time>2026-04-25T09:29:00.798Z</time></trkpt><trkpt lat="44.1170167" lon="11.0973383"><ele>877.0</ele><time>2026-04-25T09:29:01.805Z</time></trkpt><trkpt lat="44.1171233" lon="11.0973867"><ele>877.4999999999999</ele><time>2026-04-25T09:29:02.811Z</time></trkpt><trkpt lat="44.1172167" lon="11.0974217"><ele>878.0</ele><time>2026-04-25T09:29:03.818Z</time></trkpt><trkpt lat="44.1173017" lon="11.0974683"><ele>878.5</ele><time>2026-04-25T09:29:04.825Z</time></trkpt><trkpt lat="44.11738" lon="11.097525"><ele>879.0</ele><time>2026-04-25T09:29:05.831Z</time></trkpt><trkpt lat="44.1174467" lon="11.097565"><ele>879.4999999999999</ele><time>2026-04-25T09:29:06.838Z</time></trkpt><trkpt lat="44.1175117" lon="11.0976067"><ele>880.0</ele><time>2026-04-25T09:29:07.777Z</time></trkpt><trkpt lat="44.1175917" lon="11.0976867"><ele>877.4</ele><time>2026-04-25T09:29:09.791Z</time></trkpt><trkpt lat="44.1176883" lon="11.097755"><ele>874.8</ele><time>2026-04-25T09:29:41.8Z</time></trkpt><trkpt lat="44.117755" lon="11.0977217"><ele>872.2</ele><time>2026-04-25T09:29:42.808Z</time></trkpt><trkpt lat="44.1178233" lon="11.0976733"><ele>869.6</ele><time>2026-04-25T09:29:43.815Z</time></trkpt><trkpt lat="44.1178983" lon="11.0975967"><ele>867.0</ele><time>2026-04-25T09:29:44.821Z</time></trkpt><trkpt lat="44.117985" lon="11.0974933"><ele>868.75</ele><time>2026-04-25T09:29:45.828Z</time></trkpt><trkpt lat="44.1180767" lon="11.0973333"><ele>870.5</ele><time>2026-04-25T09:29:46.768Z</time></trkpt><trkpt lat="44.118155" lon="11.0971633"><ele>872.25</ele><time>2026-04-25T09:29:47.841Z</time></trkpt><trkpt lat="44.11822" lon="11.0969983"><ele>874.0</ele><time>2026-04-25T09:29:48.848Z</time></trkpt><trkpt lat="44.118285" lon="11.096845"><ele>874.0</ele><time>2026-04-25T09:29:49.855Z</time></trkpt><trkpt lat="44.118355" lon="11.0966983"><ele>874.0</ele><time>2026-04-25T09:29:50.86Z</time></trkpt><trkpt lat="44.1184367" lon="11.0965683"><ele>874.0</ele><time>2026-04-25T09:29:51.8Z</time></trkpt><trkpt lat="44.1185267" lon="11.0964533"><ele>874.0</ele><time>2026-04-25T09:29:52.807Z</time></trkpt><trkpt lat="44.1186217" lon="11.0963433"><ele>876.75</ele><time>2026-04-25T09:29:53.814Z</time></trkpt><trkpt lat="44.1187217" lon="11.09625"><ele>879.5</ele><time>2026-04-25T09:29:54.821Z</time></trkpt><trkpt lat="44.1188417" lon="11.09619"><ele>882.25</ele><time>2026-04-25T09:29:55.759Z</time></trkpt><trkpt lat="44.1189733" lon="11.0961517"><ele>885.0</ele><time>2026-04-25T09:29:56.834Z</time></trkpt><trkpt lat="44.119095" lon="11.0961383"><ele>885.25</ele><time>2026-04-25T09:29:57.841Z</time></trkpt><trkpt lat="44.119205" lon="11.0961467"><ele>885.5</ele><time>2026-04-25T09:29:58.847Z</time></trkpt><trkpt lat="44.1193083" lon="11.09616"><ele>885.75</ele><time>2026-04-25T09:29:59.854Z</time></trkpt><trkpt lat="44.11944" lon="11.0961417"><ele>886.0</ele><time>2026-04-25T09:30:00.793Z</time></trkpt><trkpt lat="44.1195517" lon="11.0960917"><ele>886.0</ele><time>2026-04-25T09:30:01.799Z</time></trkpt><trkpt lat="44.119655" lon="11.0960067"><ele>886.0</ele><time>2026-04-25T09:30:02.807Z</time></trkpt><trkpt lat="44.1197733" lon="11.0959083"><ele>886.0</ele><time>2026-04-25T09:30:03.813Z</time></trkpt><trkpt lat="44.1199017" lon="11.0958267"><ele>886.0</ele><time>2026-04-25T09:30:04.82Z</time></trkpt><trkpt lat="44.12002" lon="11.095755"><ele>888.1999999999999</ele><time>2026-04-25T09:30:05.826Z</time></trkpt><trkpt lat="44.12011" lon="11.09567"><ele>890.3999999999999</ele><time>2026-04-25T09:30:06.833Z</time></trkpt><trkpt lat="44.1201817" lon="11.0955667"><ele>892.6</ele><time>2026-04-25T09:30:07.84Z</time></trkpt><trkpt lat="44.1202667" lon="11.0954067"><ele>894.8</ele><time>2026-04-25T09:30:09.853Z</time></trkpt><trkpt lat="44.1203183" lon="11.0953467"><ele>897.0</ele><time>2026-04-25T09:30:12.806Z</time></trkpt><trkpt lat="44.1203567" lon="11.0954233"><ele>897.0</ele><time>2026-04-25T09:30:14.819Z</time></trkpt><trkpt lat="44.1203733" lon="11.095515"><ele>897.0</ele><time>2026-04-25T09:30:15.826Z</time></trkpt><trkpt lat="44.1203567" lon="11.0956117"><ele>897.0</ele><time>2026-04-25T09:30:16.832Z</time></trkpt><trkpt lat="44.1203467" lon="11.0957083"><ele>897.0</ele><time>2026-04-25T09:30:17.839Z</time></trkpt><trkpt lat="44.12031" lon="11.095865"><ele>897.0</ele><time>2026-04-25T09:30:19.852Z</time></trkpt><trkpt lat="44.12025" lon="11.096"><ele>897.0</ele><time>2026-04-25T09:30:21.798Z</time></trkpt><trkpt lat="44.1202283" lon="11.096155"><ele>892.0</ele><time>2026-04-25T09:30:23.812Z</time></trkpt><trkpt lat="44.120245" lon="11.0962967"><ele>892.0</ele><time>2026-04-25T09:30:25.824Z</time></trkpt><trkpt lat="44.1202717" lon="11.0963917"><ele>892.0</ele><time>2026-04-25T09:30:27.838Z</time></trkpt><trkpt lat="44.1203233" lon="11.0964683"><ele>892.0</ele><time>2026-04-25T09:30:30.791Z</time></trkpt></trkseg><trkseg><trkpt lat="44.1175075" lon="11.0975436"><ele>867.0</ele><time>2026-04-25T14:06:33.124Z</time></trkpt><trkpt lat="44.1175406" lon="11.0974615"><ele>867.0</ele><time>2026-04-25T14:06:47.221Z</time></trkpt><trkpt lat="44.1174417" lon="11.0974133"><ele>867.0</ele><time>2026-04-25T14:06:51.876Z</time></trkpt><trkpt lat="44.1173217" lon="11.0973817"><ele>867.0</ele><time>2026-04-25T14:06:52.815Z</time></trkpt><trkpt lat="44.1172167" lon="11.09736"><ele>867.0</ele><time>2026-04-25T14:06:53.89Z</time></trkpt><trkpt lat="44.117135" lon="11.0973317"><ele>868.6666666666666</ele><time>2026-04-25T14:06:54.897Z</time></trkpt><trkpt lat="44.1170733" lon="11.0973017"><ele>870.3333333333333</ele><time>2026-04-25T14:06:55.902Z</time></trkpt><trkpt lat="44.1170033" lon="11.09725"><ele>872.0</ele><time>2026-04-25T14:06:56.91Z</time></trkpt><trkpt lat="44.116945" lon="11.09721"><ele>873.6666666666666</ele><time>2026-04-25T14:06:57.85Z</time></trkpt><trkpt lat="44.1168833" lon="11.097155"><ele>875.3333333333333</ele><time>2026-04-25T14:06:58.855Z</time></trkpt><trkpt lat="44.11682" lon="11.0970783"><ele>877.0</ele><time>2026-04-25T14:06:59.863Z</time></trkpt><trkpt lat="44.1167517" lon="11.0969833"><ele>877.0</ele><time>2026-04-25T14:07:00.869Z</time></trkpt><trkpt lat="44.1167067" lon="11.096885"><ele>877.0</ele><time>2026-04-25T14:07:01.875Z</time></trkpt><trkpt lat="44.11665" lon="11.0967983"><ele>877.0</ele><time>2026-04-25T14:07:02.883Z</time></trkpt><trkpt lat="44.1165733" lon="11.0966767"><ele>877.0</ele><time>2026-04-25T14:07:04.896Z</time></trkpt><trkpt lat="44.1164333" lon="11.0966267"><ele>877.0</ele><time>2026-04-25T14:07:18.855Z</time></trkpt><trkpt lat="44.1163533" lon="11.0966"><ele>877.6</ele><time>2026-04-25T14:07:20.868Z</time></trkpt><trkpt lat="44.116265" lon="11.096595"><ele>878.2</ele><time>2026-04-25T14:07:22.881Z</time></trkpt><trkpt lat="44.1161983" lon="11.09655"><ele>878.8</ele><time>2026-04-25T14:07:24.894Z</time></trkpt><trkpt lat="44.1160967" lon="11.0964433"><ele>879.4</ele><time>2026-04-25T14:07:40.866Z</time></trkpt><trkpt lat="44.116" lon="11.0962833"><ele>880.0</ele><time>2026-04-25T14:07:42.879Z</time></trkpt><trkpt lat="44.11593" lon="11.096185"><ele>881.0</ele><time>2026-04-25T14:07:43.886Z</time></trkpt><trkpt lat="44.1158433" lon="11.0960783"><ele>882.0</ele><time>2026-04-25T14:07:44.893Z</time></trkpt><trkpt lat="44.11576" lon="11.095975"><ele>883.0</ele><time>2026-04-25T14:07:45.832Z</time></trkpt><trkpt lat="44.1156533" lon="11.0958433"><ele>884.0</ele><time>2026-04-25T14:07:46.839Z</time></trkpt><trkpt lat="44.1155733" lon="11.0957317"><ele>882.4000000000001</ele><time>2026-04-25T14:07:47.846Z</time></trkpt><trkpt lat="44.1155017" lon="11.0956333"><ele>880.8000000000001</ele><time>2026-04-25T14:07:48.852Z</time></trkpt><trkpt lat="44.11542" lon="11.0955333"><ele>879.1999999999999</ele><time>2026-04-25T14:07:49.859Z</time></trkpt><trkpt lat="44.115335" lon="11.0954533"><ele>877.5999999999999</ele><time>2026-04-25T14:07:50.865Z</time></trkpt><trkpt lat="44.1152517" lon="11.0953817"><ele>876.0</ele><time>2026-04-25T14:07:51.871Z</time></trkpt><trkpt lat="44.1151683" lon="11.0953117"><ele>876.0</ele><time>2026-04-25T14:07:52.879Z</time></trkpt><trkpt lat="44.1150767" lon="11.09525"><ele>875.9999999999999</ele><time>2026-04-25T14:07:53.885Z</time></trkpt><trkpt lat="44.1149867" lon="11.0951933"><ele>875.9999999999999</ele><time>2026-04-25T14:07:54.891Z</time></trkpt><trkpt lat="44.1148867" lon="11.0951483"><ele>876.0</ele><time>2026-04-25T14:07:55.831Z</time></trkpt><trkpt lat="44.114785" lon="11.0951"><ele>876.0</ele><time>2026-04-25T14:07:56.838Z</time></trkpt><trkpt lat="44.1146967" lon="11.0950533"><ele>877.5999999999999</ele><time>2026-04-25T14:07:57.845Z</time></trkpt><trkpt lat="44.114605" lon="11.0949667"><ele>879.1999999999999</ele><time>2026-04-25T14:07:58.851Z</time></trkpt><trkpt lat="44.11453" lon="11.0948717"><ele>880.8000000000001</ele><time>2026-04-25T14:07:59.858Z</time></trkpt><trkpt lat="44.1144617" lon="11.0947633"><ele>882.4000000000001</ele><time>2026-04-25T14:08:00.865Z</time></trkpt><trkpt lat="44.1144067" lon="11.09467"><ele>884.0</ele><time>2026-04-25T14:08:01.871Z</time></trkpt><trkpt lat="44.1143533" lon="11.0945867"><ele>884.0000000000001</ele><time>2026-04-25T14:08:02.878Z</time></trkpt><trkpt lat="44.1142867" lon="11.0945183"><ele>884.0</ele><time>2026-04-25T14:08:03.885Z</time></trkpt><trkpt lat="44.114215" lon="11.0944667"><ele>884.0</ele><time>2026-04-25T14:08:04.891Z</time></trkpt><trkpt lat="44.1141317" lon="11.0944117"><ele>884.0</ele><time>2026-04-25T14:08:05.831Z</time></trkpt><trkpt lat="44.1140533" lon="11.09437"><ele>884.0000000000001</ele><time>2026-04-25T14:08:06.837Z</time></trkpt><trkpt lat="44.1139783" lon="11.0943233"><ele>884.0</ele><time>2026-04-25T14:08:07.844Z</time></trkpt><trkpt lat="44.1139033" lon="11.094275"><ele>884.4000000000001</ele><time>2026-04-25T14:08:08.851Z</time></trkpt><trkpt lat="44.1138233" lon="11.09422"><ele>884.8000000000001</ele><time>2026-04-25T14:08:09.857Z</time></trkpt><trkpt lat="44.1137383" lon="11.0941567"><ele>885.1999999999999</ele><time>2026-04-25T14:08:10.864Z</time></trkpt><trkpt lat="44.11364" lon="11.09408"><ele>885.5999999999999</ele><time>2026-04-25T14:08:11.871Z</time></trkpt><trkpt lat="44.11356" lon="11.0940017"><ele>886.0</ele><time>2026-04-25T14:08:12.877Z</time></trkpt><trkpt lat="44.113485" lon="11.09392"><ele>886.4</ele><time>2026-04-25T14:08:13.884Z</time></trkpt><trkpt lat="44.1134017" lon="11.093835"><ele>886.8</ele><time>2026-04-25T14:08:14.89Z</time></trkpt><trkpt lat="44.1133183" lon="11.093745"><ele>887.1999999999999</ele><time>2026-04-25T14:08:15.83Z</time></trkpt><trkpt lat="44.11323" lon="11.0936683"><ele>887.5999999999999</ele><time>2026-04-25T14:08:16.837Z</time></trkpt><trkpt lat="44.1131383" lon="11.0935883"><ele>888.0</ele><time>2026-04-25T14:08:17.842Z</time></trkpt><trkpt lat="44.1130583" lon="11.093505"><ele>888.0</ele><time>2026-04-25T14:08:18.849Z</time></trkpt><trkpt lat="44.112975" lon="11.093435"><ele>888.0</ele><time>2026-04-25T14:08:19.856Z</time></trkpt><trkpt lat="44.11288" lon="11.09337"><ele>888.0</ele><time>2026-04-25T14:08:20.862Z</time></trkpt><trkpt lat="44.1127833" lon="11.0933117"><ele>888.0</ele><time>2026-04-25T14:08:21.869Z</time></trkpt><trkpt lat="44.1126833" lon="11.0932417"><ele>888.0</ele><time>2026-04-25T14:08:22.876Z</time></trkpt><trkpt lat="44.1125817" lon="11.093205"><ele>889.5999999999999</ele><time>2026-04-25T14:08:23.882Z</time></trkpt><trkpt lat="44.1124883" lon="11.093165"><ele>891.1999999999999</ele><time>2026-04-25T14:08:24.89Z</time></trkpt><trkpt lat="44.1123983" lon="11.0931167"><ele>892.8</ele><time>2026-04-25T14:08:25.829Z</time></trkpt><trkpt lat="44.1123183" lon="11.0930783"><ele>894.4</ele><time>2026-04-25T14:08:26.836Z</time></trkpt><trkpt lat="44.112215" lon="11.093015"><ele>896.0</ele><time>2026-04-25T14:08:27.843Z</time></trkpt><trkpt lat="44.1121417" lon="11.0929767"><ele>896.0000000000001</ele><time>2026-04-25T14:08:28.849Z</time></trkpt><trkpt lat="44.112075" lon="11.092925"><ele>896.0</ele><time>2026-04-25T14:08:29.856Z</time></trkpt><trkpt lat="44.1120133" lon="11.0928667"><ele>896.0</ele><time>2026-04-25T14:08:30.862Z</time></trkpt><trkpt lat="44.1119583" lon="11.09277"><ele>896.0</ele><time>2026-04-25T14:08:31.869Z</time></trkpt><trkpt lat="44.1119033" lon="11.09267"><ele>896.0000000000001</ele><time>2026-04-25T14:08:32.876Z</time></trkpt><trkpt lat="44.1118517" lon="11.09256"><ele>896.0</ele><time>2026-04-25T14:08:33.882Z</time></trkpt><trkpt lat="44.1118217" lon="11.0924467"><ele>897.0</ele><time>2026-04-25T14:08:34.822Z</time></trkpt><trkpt lat="44.1117783" lon="11.09234"><ele>897.9999999999999</ele><time>2026-04-25T14:08:35.828Z</time></trkpt><trkpt lat="44.1117267" lon="11.09224"><ele>898.9999999999999</ele><time>2026-04-25T14:08:36.835Z</time></trkpt><trkpt lat="44.1116617" lon="11.0921317"><ele>900.0</ele><time>2026-04-25T14:08:37.841Z</time></trkpt><trkpt lat="44.11158" lon="11.09203"><ele>901.0</ele><time>2026-04-25T14:08:38.848Z</time></trkpt><trkpt lat="44.1115083" lon="11.09192"><ele>901.0</ele><time>2026-04-25T14:08:39.855Z</time></trkpt><trkpt lat="44.1114317" lon="11.09184"><ele>900.9999999999999</ele><time>2026-04-25T14:08:40.861Z</time></trkpt><trkpt lat="44.1113267" lon="11.0917717"><ele>900.9999999999999</ele><time>2026-04-25T14:08:41.867Z</time></trkpt><trkpt lat="44.1112383" lon="11.0917167"><ele>901.0</ele><time>2026-04-25T14:08:42.875Z</time></trkpt><trkpt lat="44.1111333" lon="11.0916833"><ele>901.0</ele><time>2026-04-25T14:08:43.882Z</time></trkpt><trkpt lat="44.1110417" lon="11.0916867"><ele>901.0</ele><time>2026-04-25T14:08:44.82Z</time></trkpt><trkpt lat="44.1109567" lon="11.091705"><ele>900.9999999999999</ele><time>2026-04-25T14:08:45.828Z</time></trkpt><trkpt lat="44.110855" lon="11.09175"><ele>900.9999999999999</ele><time>2026-04-25T14:08:46.834Z</time></trkpt><trkpt lat="44.1107517" lon="11.0917883"><ele>901.0</ele><time>2026-04-25T14:08:47.84Z</time></trkpt><trkpt lat="44.1106567" lon="11.091795"><ele>901.0</ele><time>2026-04-25T14:08:48.848Z</time></trkpt><trkpt lat="44.1105683" lon="11.0917733"><ele>901.0</ele><time>2026-04-25T14:08:49.854Z</time></trkpt><trkpt lat="44.1104867" lon="11.0917133"><ele>900.9999999999999</ele><time>2026-04-25T14:08:50.861Z</time></trkpt><trkpt lat="44.110395" lon="11.09166"><ele>900.9999999999999</ele><time>2026-04-25T14:08:51.866Z</time></trkpt><trkpt lat="44.1103083" lon="11.09157"><ele>901.0</ele><time>2026-04-25T14:08:52.874Z</time></trkpt><trkpt lat="44.1102167" lon="11.0914867"><ele>901.0</ele><time>2026-04-25T14:08:53.881Z</time></trkpt><trkpt lat="44.1101267" lon="11.0914033"><ele>902.1999999999999</ele><time>2026-04-25T14:08:54.82Z</time></trkpt><trkpt lat="44.110035" lon="11.09132"><ele>903.3999999999999</ele><time>2026-04-25T14:08:55.827Z</time></trkpt><trkpt lat="44.1099533" lon="11.0912133"><ele>904.6</ele><time>2026-04-25T14:08:56.834Z</time></trkpt><trkpt lat="44.109885" lon="11.0910917"><ele>905.8</ele><time>2026-04-25T14:08:57.839Z</time></trkpt><trkpt lat="44.1098233" lon="11.0909833"><ele>907.0</ele><time>2026-04-25T14:08:58.847Z</time></trkpt><trkpt lat="44.1097583" lon="11.0908833"><ele>907.0</ele><time>2026-04-25T14:08:59.853Z</time></trkpt><trkpt lat="44.1096917" lon="11.090795"><ele>907.0</ele><time>2026-04-25T14:09:00.86Z</time></trkpt><trkpt lat="44.109625" lon="11.0907033"><ele>907.0</ele><time>2026-04-25T14:09:01.867Z</time></trkpt><trkpt lat="44.10955" lon="11.0905933"><ele>907.0</ele><time>2026-04-25T14:09:02.873Z</time></trkpt><trkpt lat="44.109485" lon="11.0905183"><ele>907.0</ele><time>2026-04-25T14:09:03.88Z</time></trkpt><trkpt lat="44.1094267" lon="11.0904417"><ele>908.0</ele><time>2026-04-25T14:09:04.818Z</time></trkpt><trkpt lat="44.1093683" lon="11.0903817"><ele>909.0</ele><time>2026-04-25T14:09:05.826Z</time></trkpt><trkpt lat="44.1092633" lon="11.0902917"><ele>910.0</ele><time>2026-04-25T14:09:07.906Z</time></trkpt><trkpt lat="44.1091567" lon="11.0902833"><ele>911.0</ele><time>2026-04-25T14:09:09.852Z</time></trkpt><trkpt lat="44.10907" lon="11.09029"><ele>912.0</ele><time>2026-04-25T14:09:11.866Z</time></trkpt><trkpt lat="44.1089733" lon="11.09034"><ele>914.6666666666666</ele><time>2026-04-25T14:09:13.878Z</time></trkpt><trkpt lat="44.1089133" lon="11.0903817"><ele>917.3333333333333</ele><time>2026-04-25T14:09:14.819Z</time></trkpt><trkpt lat="44.10884" lon="11.0904483"><ele>920.0</ele><time>2026-04-25T14:09:15.825Z</time></trkpt><trkpt lat="44.1087167" lon="11.09047"><ele>922.6666666666666</ele><time>2026-04-25T14:09:17.906Z</time></trkpt><trkpt lat="44.1086483" lon="11.0904767"><ele>925.3333333333333</ele><time>2026-04-25T14:09:18.844Z</time></trkpt><trkpt lat="44.1085733" lon="11.0904933"><ele>928.0</ele><time>2026-04-25T14:09:20.859Z</time></trkpt><trkpt lat="44.108495" lon="11.090515"><ele>928.0</ele><time>2026-04-25T14:09:21.865Z</time></trkpt><trkpt lat="44.1083967" lon="11.0905717"><ele>928.0</ele><time>2026-04-25T14:09:23.811Z</time></trkpt><trkpt lat="44.1083017" lon="11.0906183"><ele>928.0</ele><time>2026-04-25T14:09:24.885Z</time></trkpt><trkpt lat="44.10823" lon="11.090675"><ele>928.0</ele><time>2026-04-25T14:09:25.891Z</time></trkpt><trkpt lat="44.1081467" lon="11.0907583"><ele>928.0</ele><time>2026-04-25T14:09:27.905Z</time></trkpt><trkpt lat="44.1080267" lon="11.0908283"><ele>928.8</ele><time>2026-04-25T14:09:29.851Z</time></trkpt><trkpt lat="44.107945" lon="11.0908833"><ele>929.5999999999999</ele><time>2026-04-25T14:09:30.858Z</time></trkpt><trkpt lat="44.1078717" lon="11.0909183"><ele>930.4000000000001</ele><time>2026-04-25T14:09:31.864Z</time></trkpt><trkpt lat="44.1077867" lon="11.0909533"><ele>931.2</ele><time>2026-04-25T14:09:32.87Z</time></trkpt><trkpt lat="44.107655" lon="11.0910367"><ele>932.0</ele><time>2026-04-25T14:09:33.877Z</time></trkpt><trkpt lat="44.1075533" lon="11.0910683"><ele>932.0000000000001</ele><time>2026-04-25T14:09:34.884Z</time></trkpt><trkpt lat="44.1074717" lon="11.0910683"><ele>932.0</ele><time>2026-04-25T14:09:35.891Z</time></trkpt><trkpt lat="44.10741" lon="11.0910917"><ele>932.0</ele><time>2026-04-25T14:09:36.898Z</time></trkpt><trkpt lat="44.1073267" lon="11.0911517"><ele>932.0</ele><time>2026-04-25T14:09:38.844Z</time></trkpt><trkpt lat="44.1072633" lon="11.0912433"><ele>932.0000000000001</ele><time>2026-04-25T14:09:40.857Z</time></trkpt><trkpt lat="44.1072283" lon="11.0913217"><ele>932.0</ele><time>2026-04-25T14:09:41.864Z</time></trkpt><trkpt lat="44.1071533" lon="11.09144"><ele>933.4000000000001</ele><time>2026-04-25T14:09:43.877Z</time></trkpt><trkpt lat="44.10709" lon="11.0915917"><ele>934.8000000000001</ele><time>2026-04-25T14:09:45.89Z</time></trkpt><trkpt lat="44.1070283" lon="11.091705"><ele>936.2</ele><time>2026-04-25T14:09:46.897Z</time></trkpt><trkpt lat="44.1069667" lon="11.0918133"><ele>937.6</ele><time>2026-04-25T14:09:47.903Z</time></trkpt><trkpt lat="44.1069033" lon="11.0919233"><ele>939.0</ele><time>2026-04-25T14:09:48.843Z</time></trkpt><trkpt lat="44.1068517" lon="11.0920183"><ele>939.0</ele><time>2026-04-25T14:09:49.85Z</time></trkpt><trkpt lat="44.106755" lon="11.09213"><ele>939.0</ele><time>2026-04-25T14:09:50.856Z</time></trkpt><trkpt lat="44.10669" lon="11.0922083"><ele>939.0</ele><time>2026-04-25T14:09:51.863Z</time></trkpt><trkpt lat="44.1066267" lon="11.0922683"><ele>939.0</ele><time>2026-04-25T14:09:52.869Z</time></trkpt><trkpt lat="44.1065567" lon="11.0923317"><ele>939.0</ele><time>2026-04-25T14:09:53.876Z</time></trkpt><trkpt lat="44.1064917" lon="11.09238"><ele>939.0</ele><time>2026-04-25T14:09:54.883Z</time></trkpt><trkpt lat="44.10643" lon="11.09243"><ele>940.5</ele><time>2026-04-25T14:09:55.888Z</time></trkpt><trkpt lat="44.1063283" lon="11.09253"><ele>942.0</ele><time>2026-04-25T14:09:57.903Z</time></trkpt><trkpt lat="44.1062917" lon="11.0926017"><ele>943.5</ele><time>2026-04-25T14:09:58.842Z</time></trkpt><trkpt lat="44.106255" lon="11.092685"><ele>945.0</ele><time>2026-04-25T14:09:59.849Z</time></trkpt><trkpt lat="44.1062233" lon="11.092765"><ele>946.5</ele><time>2026-04-25T14:10:00.855Z</time></trkpt><trkpt lat="44.1061883" lon="11.0928583"><ele>948.0</ele><time>2026-04-25T14:10:01.862Z</time></trkpt><trkpt lat="44.1061617" lon="11.09295"><ele>948.0</ele><time>2026-04-25T14:10:02.869Z</time></trkpt><trkpt lat="44.106145" lon="11.0930417"><ele>948.0</ele><time>2026-04-25T14:10:03.875Z</time></trkpt><trkpt lat="44.10613" lon="11.0931367"><ele>948.0</ele><time>2026-04-25T14:10:04.882Z</time></trkpt><trkpt lat="44.10611" lon="11.0933017"><ele>948.0</ele><time>2026-04-25T14:10:06.894Z</time></trkpt><trkpt lat="44.1060533" lon="11.0934717"><ele>948.0</ele><time>2026-04-25T14:10:08.841Z</time></trkpt><trkpt lat="44.10602" lon="11.0935633"><ele>949.0</ele><time>2026-04-25T14:10:09.848Z</time></trkpt><trkpt lat="44.1059833" lon="11.0936667"><ele>950.0</ele><time>2026-04-25T14:10:10.855Z</time></trkpt><trkpt lat="44.1059667" lon="11.093755"><ele>951.0</ele><time>2026-04-25T14:10:11.861Z</time></trkpt><trkpt lat="44.1059333" lon="11.0938733"><ele>952.0</ele><time>2026-04-25T14:10:12.867Z</time></trkpt><trkpt lat="44.1059217" lon="11.0939867"><ele>953.0</ele><time>2026-04-25T14:10:13.875Z</time></trkpt><trkpt lat="44.1059133" lon="11.0940983"><ele>954.0</ele><time>2026-04-25T14:10:14.881Z</time></trkpt><trkpt lat="44.1058883" lon="11.09421"><ele>955.6666666666666</ele><time>2026-04-25T14:10:15.888Z</time></trkpt><trkpt lat="44.105875" lon="11.0943083"><ele>957.3333333333333</ele><time>2026-04-25T14:10:16.894Z</time></trkpt><trkpt lat="44.1058617" lon="11.0943967"><ele>959.0</ele><time>2026-04-25T14:10:17.834Z</time></trkpt><trkpt lat="44.10588" lon="11.0945217"><ele>960.6666666666666</ele><time>2026-04-25T14:10:19.847Z</time></trkpt><trkpt lat="44.1059233" lon="11.09462"><ele>962.3333333333333</ele><time>2026-04-25T14:10:21.86Z</time></trkpt><trkpt lat="44.1059983" lon="11.094585"><ele>964.0</ele><time>2026-04-25T14:10:23.874Z</time></trkpt><trkpt lat="44.10605" lon="11.0945133"><ele>964.0</ele><time>2026-04-25T14:10:25.886Z</time></trkpt><trkpt lat="44.1060933" lon="11.09442"><ele>964.0000000000001</ele><time>2026-04-25T14:10:27.832Z</time></trkpt><trkpt lat="44.106145" lon="11.0942767"><ele>964.0000000000001</ele><time>2026-04-25T14:10:29.846Z</time></trkpt><trkpt lat="44.106165" lon="11.09419"><ele>964.0</ele><time>2026-04-25T14:10:30.852Z</time></trkpt><trkpt lat="44.1062383" lon="11.09405"><ele>964.0</ele><time>2026-04-25T14:10:32.866Z</time></trkpt><trkpt lat="44.1063167" lon="11.0939217"><ele>962.3333333333333</ele><time>2026-04-25T14:10:34.88Z</time></trkpt><trkpt lat="44.1063767" lon="11.0938383"><ele>960.6666666666666</ele><time>2026-04-25T14:10:36.893Z</time></trkpt><trkpt lat="44.1064467" lon="11.0937567"><ele>959.0</ele><time>2026-04-25T14:10:38.839Z</time></trkpt><trkpt lat="44.10651" lon="11.093715"><ele>957.3333333333333</ele><time>2026-04-25T14:10:39.846Z</time></trkpt><trkpt lat="44.1065667" lon="11.093665"><ele>955.6666666666666</ele><time>2026-04-25T14:10:40.852Z</time></trkpt><trkpt lat="44.1066217" lon="11.0936117"><ele>954.0</ele><time>2026-04-25T14:10:41.858Z</time></trkpt><trkpt lat="44.1066883" lon="11.0935783"><ele>957.3333333333334</ele><time>2026-04-25T14:10:42.866Z</time></trkpt><trkpt lat="44.1067583" lon="11.0935467"><ele>960.6666666666667</ele><time>2026-04-25T14:10:43.872Z</time></trkpt><trkpt lat="44.1068467" lon="11.09349"><ele>964.0</ele><time>2026-04-25T14:10:45.885Z</time></trkpt><trkpt lat="44.10694" lon="11.0934633"><ele>967.3333333333334</ele><time>2026-04-25T14:10:47.832Z</time></trkpt><trkpt lat="44.107035" lon="11.0934183"><ele>970.6666666666667</ele><time>2026-04-25T14:10:49.845Z</time></trkpt><trkpt lat="44.1070917" lon="11.0933783"><ele>974.0</ele><time>2026-04-25T14:10:50.851Z</time></trkpt><trkpt lat="44.1071783" lon="11.09333"><ele>974.0000000000001</ele><time>2026-04-25T14:10:52.865Z</time></trkpt><trkpt lat="44.1072883" lon="11.09331"><ele>974.0</ele><time>2026-04-25T14:10:54.878Z</time></trkpt><trkpt lat="44.1073517" lon="11.0933033"><ele>974.0</ele><time>2026-04-25T14:10:55.884Z</time></trkpt><trkpt lat="44.1074267" lon="11.093315"><ele>974.0</ele><time>2026-04-25T14:10:56.824Z</time></trkpt><trkpt lat="44.107495" lon="11.0933333"><ele>974.0000000000001</ele><time>2026-04-25T14:10:57.831Z</time></trkpt><trkpt lat="44.1076117" lon="11.0933317"><ele>974.0</ele><time>2026-04-25T14:10:59.843Z</time></trkpt><trkpt lat="44.107695" lon="11.09332"><ele>972.4000000000001</ele><time>2026-04-25T14:11:00.851Z</time></trkpt><trkpt lat="44.1077833" lon="11.0933167"><ele>970.8000000000001</ele><time>2026-04-25T14:11:01.857Z</time></trkpt><trkpt lat="44.1079" lon="11.0933017"><ele>969.1999999999999</ele><time>2026-04-25T14:11:03.871Z</time></trkpt><trkpt lat="44.107975" lon="11.093295"><ele>967.5999999999999</ele><time>2026-04-25T14:11:04.877Z</time></trkpt><trkpt lat="44.1080567" lon="11.0932867"><ele>966.0</ele><time>2026-04-25T14:11:05.884Z</time></trkpt><trkpt lat="44.108165" lon="11.0932533"><ele>966.0</ele><time>2026-04-25T14:11:07.83Z</time></trkpt><trkpt lat="44.108235" lon="11.0932233"><ele>966.0</ele><time>2026-04-25T14:11:08.836Z</time></trkpt><trkpt lat="44.10834" lon="11.0931817"><ele>966.0</ele><time>2026-04-25T14:11:10.85Z</time></trkpt><trkpt lat="44.10845" lon="11.0931983"><ele>966.0</ele><time>2026-04-25T14:11:12.863Z</time></trkpt><trkpt lat="44.1085217" lon="11.0932267"><ele>966.0</ele><time>2026-04-25T14:11:14.876Z</time></trkpt><trkpt lat="44.10857" lon="11.0933167"><ele>966.0</ele><time>2026-04-25T14:11:18.836Z</time></trkpt><trkpt lat="44.10852" lon="11.0934117"><ele>970.0</ele><time>2026-04-25T14:11:21.855Z</time></trkpt><trkpt lat="44.1084233" lon="11.093475"><ele>974.0</ele><time>2026-04-25T14:11:23.869Z</time></trkpt><trkpt lat="44.1083633" lon="11.09351"><ele>978.0</ele><time>2026-04-25T14:11:24.875Z</time></trkpt><trkpt lat="44.1082483" lon="11.093575"><ele>982.0</ele><time>2026-04-25T14:11:26.822Z</time></trkpt><trkpt lat="44.1081917" lon="11.093615"><ele>986.0</ele><time>2026-04-25T14:11:27.828Z</time></trkpt><trkpt lat="44.10813" lon="11.09367"><ele>990.0</ele><time>2026-04-25T14:11:28.835Z</time></trkpt><trkpt lat="44.108075" lon="11.093735"><ele>990.0</ele><time>2026-04-25T14:11:29.842Z</time></trkpt><trkpt lat="44.10799" lon="11.093865"><ele>990.0</ele><time>2026-04-25T14:11:31.855Z</time></trkpt><trkpt lat="44.1079283" lon="11.0939867"><ele>990.0</ele><time>2026-04-25T14:11:33.867Z</time></trkpt><trkpt lat="44.1078967" lon="11.0940717"><ele>990.0</ele><time>2026-04-25T14:11:34.875Z</time></trkpt><trkpt lat="44.1078567" lon="11.094175"><ele>990.0</ele><time>2026-04-25T14:11:35.814Z</time></trkpt><trkpt lat="44.1077967" lon="11.0943333"><ele>993.8</ele><time>2026-04-25T14:11:37.828Z</time></trkpt><trkpt lat="44.1077517" lon="11.0944767"><ele>997.6</ele><time>2026-04-25T14:11:39.908Z</time></trkpt><trkpt lat="44.107695" lon="11.0945933"><ele>1001.4000000000001</ele><time>2026-04-25T14:11:41.854Z</time></trkpt><trkpt lat="44.1076233" lon="11.0946883"><ele>1005.2</ele><time>2026-04-25T14:11:43.867Z</time></trkpt><trkpt lat="44.1075217" lon="11.0947967"><ele>1009.0</ele><time>2026-04-25T14:11:45.814Z</time></trkpt><trkpt lat="44.1074683" lon="11.0948717"><ele>1008.6666666666666</ele><time>2026-04-25T14:11:46.82Z</time></trkpt><trkpt lat="44.1074233" lon="11.0949383"><ele>1008.3333333333333</ele><time>2026-04-25T14:11:47.894Z</time></trkpt><trkpt lat="44.1073767" lon="11.0950083"><ele>1008.0</ele><time>2026-04-25T14:11:48.901Z</time></trkpt><trkpt lat="44.1073417" lon="11.0950833"><ele>1007.6666666666667</ele><time>2026-04-25T14:11:49.907Z</time></trkpt><trkpt lat="44.1073" lon="11.0951683"><ele>1007.3333333333334</ele><time>2026-04-25T14:11:50.847Z</time></trkpt><trkpt lat="44.1072333" lon="11.09529"><ele>1007.0</ele><time>2026-04-25T14:11:51.853Z</time></trkpt><trkpt lat="44.1071967" lon="11.0953933"><ele>1007.0</ele><time>2026-04-25T14:11:52.86Z</time></trkpt><trkpt lat="44.1071517" lon="11.0954917"><ele>1007.0</ele><time>2026-04-25T14:11:53.867Z</time></trkpt><trkpt lat="44.1071233" lon="11.095595"><ele>1007.0</ele><time>2026-04-25T14:11:54.873Z</time></trkpt><trkpt lat="44.107105" lon="11.095685"><ele>1007.0</ele><time>2026-04-25T14:11:55.879Z</time></trkpt><trkpt lat="44.1071017" lon="11.095775"><ele>1007.0</ele><time>2026-04-25T14:11:56.887Z</time></trkpt><trkpt lat="44.1070983" lon="11.09587"><ele>1007.0</ele><time>2026-04-25T14:11:57.892Z</time></trkpt><trkpt lat="44.107105" lon="11.0959633"><ele>1007.0</ele><time>2026-04-25T14:11:58.899Z</time></trkpt><trkpt lat="44.1071517" lon="11.0961083"><ele>1009.4000000000001</ele><time>2026-04-25T14:12:00.845Z</time></trkpt><trkpt lat="44.107185" lon="11.0962633"><ele>1011.8000000000001</ele><time>2026-04-25T14:12:02.859Z</time></trkpt><trkpt lat="44.10723" lon="11.096405"><ele>1014.2</ele><time>2026-04-25T14:12:04.873Z</time></trkpt><trkpt lat="44.107255" lon="11.0965317"><ele>1016.6</ele><time>2026-04-25T14:12:06.886Z</time></trkpt><trkpt lat="44.10723" lon="11.0966633"><ele>1019.0</ele><time>2026-04-25T14:12:08.898Z</time></trkpt><trkpt lat="44.107155" lon="11.09679"><ele>1020.8333333333334</ele><time>2026-04-25T14:12:10.845Z</time></trkpt><trkpt lat="44.1071133" lon="11.0968633"><ele>1022.6666666666667</ele><time>2026-04-25T14:12:11.852Z</time></trkpt><trkpt lat="44.1070633" lon="11.0970333"><ele>1024.5</ele><time>2026-04-25T14:12:13.865Z</time></trkpt><trkpt lat="44.1070483" lon="11.0971333"><ele>1026.3333333333333</ele><time>2026-04-25T14:12:14.871Z</time></trkpt><trkpt lat="44.1070367" lon="11.09724"><ele>1028.1666666666665</ele><time>2026-04-25T14:12:15.878Z</time></trkpt><trkpt lat="44.107045" lon="11.0973533"><ele>1030.0</ele><time>2026-04-25T14:12:16.885Z</time></trkpt><trkpt lat="44.107075" lon="11.0974483"><ele>1031.1666666666665</ele><time>2026-04-25T14:12:17.892Z</time></trkpt><trkpt lat="44.107115" lon="11.09754"><ele>1032.3333333333333</ele><time>2026-04-25T14:12:18.897Z</time></trkpt><trkpt lat="44.107155" lon="11.0976383"><ele>1033.5</ele><time>2026-04-25T14:12:19.838Z</time></trkpt><trkpt lat="44.1071983" lon="11.0977217"><ele>1034.6666666666667</ele><time>2026-04-25T14:12:20.844Z</time></trkpt><trkpt lat="44.10724" lon="11.0977917"><ele>1035.8333333333335</ele><time>2026-04-25T14:12:21.851Z</time></trkpt><trkpt lat="44.107275" lon="11.0978733"><ele>1037.0</ele><time>2026-04-25T14:12:22.858Z</time></trkpt><trkpt lat="44.1073233" lon="11.0980167"><ele>1037.0</ele><time>2026-04-25T14:12:24.871Z</time></trkpt><trkpt lat="44.1073417" lon="11.098175"><ele>1037.0</ele><time>2026-04-25T14:12:26.884Z</time></trkpt><trkpt lat="44.107345" lon="11.0983333"><ele>1037.0</ele><time>2026-04-25T14:12:28.898Z</time></trkpt><trkpt lat="44.1073333" lon="11.09846"><ele>1037.0</ele><time>2026-04-25T14:12:30.844Z</time></trkpt><trkpt lat="44.107275" lon="11.0985867"><ele>1037.0</ele><time>2026-04-25T14:12:31.849Z</time></trkpt><trkpt lat="44.1071833" lon="11.0987133"><ele>1037.6</ele><time>2026-04-25T14:12:32.856Z</time></trkpt><trkpt lat="44.1071" lon="11.0988117"><ele>1038.2</ele><time>2026-04-25T14:12:33.864Z</time></trkpt><trkpt lat="44.107015" lon="11.0989533"><ele>1038.8</ele><time>2026-04-25T14:12:35.877Z</time></trkpt><trkpt lat="44.1069617" lon="11.0990533"><ele>1039.4</ele><time>2026-04-25T14:12:36.884Z</time></trkpt><trkpt lat="44.1069383" lon="11.099145"><ele>1040.0</ele><time>2026-04-25T14:12:37.889Z</time></trkpt><trkpt lat="44.1069333" lon="11.09932"><ele>1042.4</ele><time>2026-04-25T14:12:39.835Z</time></trkpt><trkpt lat="44.1069583" lon="11.0994717"><ele>1044.8</ele><time>2026-04-25T14:12:41.849Z</time></trkpt><trkpt lat="44.1070433" lon="11.0995867"><ele>1047.2</ele><time>2026-04-25T14:12:43.862Z</time></trkpt><trkpt lat="44.10709" lon="11.0996967"><ele>1049.6</ele><time>2026-04-25T14:12:45.876Z</time></trkpt><trkpt lat="44.1071033" lon="11.0998033"><ele>1052.0</ele><time>2026-04-25T14:12:47.889Z</time></trkpt><trkpt lat="44.1070517" lon="11.0999417"><ele>1054.1666666666667</ele><time>2026-04-25T14:12:49.836Z</time></trkpt><trkpt lat="44.1069983" lon="11.1000367"><ele>1056.3333333333335</ele><time>2026-04-25T14:12:51.848Z</time></trkpt><trkpt lat="44.1069467" lon="11.10011"><ele>1058.5</ele><time>2026-04-25T14:12:52.855Z</time></trkpt><trkpt lat="44.1069017" lon="11.1002033"><ele>1060.6666666666667</ele><time>2026-04-25T14:12:53.862Z</time></trkpt><trkpt lat="44.106875" lon="11.1002917"><ele>1062.8333333333333</ele><time>2026-04-25T14:12:54.869Z</time></trkpt><trkpt lat="44.1068533" lon="11.1003817"><ele>1065.0</ele><time>2026-04-25T14:12:55.875Z</time></trkpt><trkpt lat="44.106835" lon="11.1004783"><ele>1065.0</ele><time>2026-04-25T14:12:56.882Z</time></trkpt><trkpt lat="44.106775" lon="11.10063"><ele>1065.0</ele><time>2026-04-25T14:12:58.828Z</time></trkpt><trkpt lat="44.1067367" lon="11.1007117"><ele>1065.0</ele><time>2026-04-25T14:12:59.835Z</time></trkpt><trkpt lat="44.1066583" lon="11.1008617"><ele>1065.0</ele><time>2026-04-25T14:13:01.848Z</time></trkpt><trkpt lat="44.106545" lon="11.1009117"><ele>1065.0</ele><time>2026-04-25T14:13:03.86Z</time></trkpt><trkpt lat="44.1064617" lon="11.100945"><ele>1064.3333333333333</ele><time>2026-04-25T14:13:05.875Z</time></trkpt><trkpt lat="44.1064" lon="11.1009883"><ele>1063.6666666666667</ele><time>2026-04-25T14:13:07.888Z</time></trkpt><trkpt lat="44.106335" lon="11.1010683"><ele>1063.0</ele><time>2026-04-25T14:13:09.834Z</time></trkpt><trkpt lat="44.106295" lon="11.1011783"><ele>1062.3333333333335</ele><time>2026-04-25T14:13:11.847Z</time></trkpt><trkpt lat="44.10628" lon="11.101295"><ele>1061.6666666666667</ele><time>2026-04-25T14:13:13.86Z</time></trkpt><trkpt lat="44.1062717" lon="11.1014183"><ele>1061.0</ele><time>2026-04-25T14:13:15.874Z</time></trkpt><trkpt lat="44.1062667" lon="11.1015667"><ele>1064.6</ele><time>2026-04-25T14:13:17.887Z</time></trkpt><trkpt lat="44.1062867" lon="11.1016767"><ele>1068.1999999999998</ele><time>2026-04-25T14:13:19.833Z</time></trkpt><trkpt lat="44.1063067" lon="11.1017867"><ele>1071.8000000000002</ele><time>2026-04-25T14:13:21.846Z</time></trkpt><trkpt lat="44.1063183" lon="11.1019583"><ele>1075.4</ele><time>2026-04-25T14:13:23.86Z</time></trkpt><trkpt lat="44.1063133" lon="11.1020533"><ele>1079.0</ele><time>2026-04-25T14:13:24.866Z</time></trkpt><trkpt lat="44.1063667" lon="11.1021933"><ele>1079.0</ele><time>2026-04-25T14:13:26.88Z</time></trkpt><trkpt lat="44.10645" lon="11.10232"><ele>1079.0</ele><time>2026-04-25T14:13:28.826Z</time></trkpt><trkpt lat="44.1065017" lon="11.1023883"><ele>1079.0</ele><time>2026-04-25T14:13:29.831Z</time></trkpt><trkpt lat="44.1065467" lon="11.1024683"><ele>1079.0</ele><time>2026-04-25T14:13:30.839Z</time></trkpt><trkpt lat="44.1065717" lon="11.1025517"><ele>1079.0</ele><time>2026-04-25T14:13:31.846Z</time></trkpt><trkpt lat="44.106605" lon="11.1026267"><ele>1079.0</ele><time>2026-04-25T14:13:32.852Z</time></trkpt><trkpt lat="44.1066317" lon="11.1027067"><ele>1083.7142857142858</ele><time>2026-04-25T14:13:33.859Z</time></trkpt><trkpt lat="44.106705" lon="11.1028317"><ele>1088.4285714285713</ele><time>2026-04-25T14:13:35.871Z</time></trkpt><trkpt lat="44.1067433" lon="11.1029033"><ele>1093.142857142857</ele><time>2026-04-25T14:13:36.879Z</time></trkpt><trkpt lat="44.1067833" lon="11.1029733"><ele>1097.857142857143</ele><time>2026-04-25T14:13:37.884Z</time></trkpt><trkpt lat="44.10682" lon="11.1030467"><ele>1102.5714285714287</ele><time>2026-04-25T14:13:38.825Z</time></trkpt><trkpt lat="44.1068667" lon="11.1031083"><ele>1107.2857142857142</ele><time>2026-04-25T14:13:39.832Z</time></trkpt><trkpt lat="44.106925" lon="11.1031567"><ele>1112.0</ele><time>2026-04-25T14:13:40.838Z</time></trkpt><trkpt lat="44.1069867" lon="11.1032333"><ele>1113.4</ele><time>2026-04-25T14:13:42.851Z</time></trkpt><trkpt lat="44.10701" lon="11.1033433"><ele>1114.8000000000002</ele><time>2026-04-25T14:13:45.871Z</time></trkpt><trkpt lat="44.1069617" lon="11.10346"><ele>1116.2</ele><time>2026-04-25T14:13:47.817Z</time></trkpt><trkpt lat="44.10688" lon="11.1035633"><ele>1117.6000000000001</ele><time>2026-04-25T14:13:49.831Z</time></trkpt><trkpt lat="44.1068233" lon="11.1036517"><ele>1119.0</ele><time>2026-04-25T14:13:51.843Z</time></trkpt><trkpt lat="44.1067083" lon="11.10384"><ele>1119.0</ele><time>2026-04-25T14:13:53.857Z</time></trkpt><trkpt lat="44.1066433" lon="11.1039633"><ele>1119.0</ele><time>2026-04-25T14:13:54.864Z</time></trkpt><trkpt lat="44.1065783" lon="11.1041333"><ele>1119.0</ele><time>2026-04-25T14:13:56.877Z</time></trkpt><trkpt lat="44.1065467" lon="11.104225"><ele>1119.0</ele><time>2026-04-25T14:13:57.817Z</time></trkpt><trkpt lat="44.1065417" lon="11.1043983"><ele>1119.0</ele><time>2026-04-25T14:13:59.83Z</time></trkpt><trkpt lat="44.1065467" lon="11.1045617"><ele>1119.6000000000001</ele><time>2026-04-25T14:14:01.909Z</time></trkpt><trkpt lat="44.1065317" lon="11.1047183"><ele>1120.2</ele><time>2026-04-25T14:14:03.856Z</time></trkpt><trkpt lat="44.1065117" lon="11.104885"><ele>1120.8000000000002</ele><time>2026-04-25T14:14:05.87Z</time></trkpt><trkpt lat="44.10648" lon="11.10502"><ele>1121.4</ele><time>2026-04-25T14:14:07.816Z</time></trkpt><trkpt lat="44.1064367" lon="11.1051017"><ele>1122.0</ele><time>2026-04-25T14:14:08.822Z</time></trkpt><trkpt lat="44.10635" lon="11.10521"><ele>1122.0</ele><time>2026-04-25T14:14:10.903Z</time></trkpt><trkpt lat="44.1062767" lon="11.105305"><ele>1122.0</ele><time>2026-04-25T14:14:12.848Z</time></trkpt><trkpt lat="44.10621" lon="11.1054033"><ele>1122.0</ele><time>2026-04-25T14:14:13.856Z</time></trkpt><trkpt lat="44.1061617" lon="11.1054633"><ele>1122.0</ele><time>2026-04-25T14:14:15.869Z</time></trkpt><trkpt lat="44.10609" lon="11.1055533"><ele>1122.0</ele><time>2026-04-25T14:14:17.815Z</time></trkpt><trkpt lat="44.1059983" lon="11.105595"><ele>1122.0</ele><time>2026-04-25T14:14:19.896Z</time></trkpt><trkpt lat="44.1059117" lon="11.1056383"><ele>1122.0</ele><time>2026-04-25T14:14:21.908Z</time></trkpt><trkpt lat="44.1058333" lon="11.1057"><ele>1122.0</ele><time>2026-04-25T14:14:23.854Z</time></trkpt><trkpt lat="44.105745" lon="11.1057483"><ele>1122.0</ele><time>2026-04-25T14:14:25.868Z</time></trkpt><trkpt lat="44.1056433" lon="11.1057867"><ele>1122.0</ele><time>2026-04-25T14:14:27.882Z</time></trkpt><trkpt lat="44.1055183" lon="11.1058433"><ele>1127.0</ele><time>2026-04-25T14:14:29.894Z</time></trkpt><trkpt lat="44.1054017" lon="11.105845"><ele>1132.0</ele><time>2026-04-25T14:14:31.908Z</time></trkpt><trkpt lat="44.1052967" lon="11.1058433"><ele>1137.0</ele><time>2026-04-25T14:14:33.854Z</time></trkpt><trkpt lat="44.105205" lon="11.1058717"><ele>1142.0</ele><time>2026-04-25T14:14:35.868Z</time></trkpt><trkpt lat="44.1051317" lon="11.105885"><ele>1147.0</ele><time>2026-04-25T14:14:36.873Z</time></trkpt><trkpt lat="44.1050567" lon="11.1058867"><ele>1147.0</ele><time>2026-04-25T14:14:37.88Z</time></trkpt><trkpt lat="44.1049833" lon="11.1058867"><ele>1147.0</ele><time>2026-04-25T14:14:38.886Z</time></trkpt><trkpt lat="44.1048617" lon="11.1058783"><ele>1147.0</ele><time>2026-04-25T14:14:40.9Z</time></trkpt><trkpt lat="44.1047483" lon="11.105835"><ele>1147.0</ele><time>2026-04-25T14:14:42.847Z</time></trkpt><trkpt lat="44.10464" lon="11.10575"><ele>1147.0</ele><time>2026-04-25T14:14:44.86Z</time></trkpt><trkpt lat="44.1045417" lon="11.1057017"><ele>1148.8</ele><time>2026-04-25T14:14:46.872Z</time></trkpt><trkpt lat="44.1044333" lon="11.1056983"><ele>1150.6</ele><time>2026-04-25T14:14:48.886Z</time></trkpt><trkpt lat="44.1043317" lon="11.1057567"><ele>1152.3999999999999</ele><time>2026-04-25T14:14:50.9Z</time></trkpt><trkpt lat="44.1042733" lon="11.1058233"><ele>1154.2</ele><time>2026-04-25T14:14:52.846Z</time></trkpt><trkpt lat="44.104145" lon="11.1058133"><ele>1156.0</ele><time>2026-04-25T14:15:14.858Z</time></trkpt><trkpt lat="44.10407" lon="11.10593"><ele>1158.3333333333333</ele><time>2026-04-25T14:15:24.856Z</time></trkpt><trkpt lat="44.1040217" lon="11.1060033"><ele>1160.6666666666665</ele><time>2026-04-25T14:15:26.87Z</time></trkpt><trkpt lat="44.1039717" lon="11.1060633"><ele>1163.0</ele><time>2026-04-25T14:15:28.884Z</time></trkpt><trkpt lat="44.1038933" lon="11.106135"><ele>1165.3333333333333</ele><time>2026-04-25T14:15:31.835Z</time></trkpt><trkpt lat="44.1038283" lon="11.1061683"><ele>1167.6666666666667</ele><time>2026-04-25T14:15:33.849Z</time></trkpt><trkpt lat="44.1037533" lon="11.106195"><ele>1170.0</ele><time>2026-04-25T14:15:35.863Z</time></trkpt><trkpt lat="44.1036733" lon="11.1061983"><ele>1170.0</ele><time>2026-04-25T14:15:37.876Z</time></trkpt><trkpt lat="44.103575" lon="11.1062133"><ele>1170.0</ele><time>2026-04-25T14:15:39.888Z</time></trkpt><trkpt lat="44.103465" lon="11.106245"><ele>1170.0</ele><time>2026-04-25T14:15:41.836Z</time></trkpt><trkpt lat="44.10336" lon="11.1062883"><ele>1170.0</ele><time>2026-04-25T14:15:43.849Z</time></trkpt><trkpt lat="44.10325" lon="11.1063317"><ele>1170.0</ele><time>2026-04-25T14:15:45.862Z</time></trkpt><trkpt lat="44.1031333" lon="11.1063767"><ele>1168.8</ele><time>2026-04-25T14:15:47.875Z</time></trkpt><trkpt lat="44.1030617" lon="11.1064167"><ele>1167.6</ele><time>2026-04-25T14:15:48.882Z</time></trkpt><trkpt lat="44.1029983" lon="11.1064583"><ele>1166.4</ele><time>2026-04-25T14:15:49.889Z</time></trkpt><trkpt lat="44.1028383" lon="11.1065367"><ele>1165.2</ele><time>2026-04-25T14:15:52.84Z</time></trkpt><trkpt lat="44.1027317" lon="11.1066217"><ele>1164.0</ele><time>2026-04-25T14:15:54.855Z</time></trkpt><trkpt lat="44.1026817" lon="11.1066883"><ele>1164.0</ele><time>2026-04-25T14:15:55.861Z</time></trkpt><trkpt lat="44.1026333" lon="11.10677"><ele>1164.0</ele><time>2026-04-25T14:15:56.868Z</time></trkpt><trkpt lat="44.1025867" lon="11.1068417"><ele>1164.0</ele><time>2026-04-25T14:15:57.875Z</time></trkpt><trkpt lat="44.102535" lon="11.1069167"><ele>1164.0</ele><time>2026-04-25T14:15:58.881Z</time></trkpt><trkpt lat="44.1024333" lon="11.107025"><ele>1164.0</ele><time>2026-04-25T14:16:00.827Z</time></trkpt><trkpt lat="44.1023283" lon="11.1070983"><ele>1164.6000000000001</ele><time>2026-04-25T14:16:02.841Z</time></trkpt><trkpt lat="44.1022283" lon="11.1071117"><ele>1165.2</ele><time>2026-04-25T14:16:04.853Z</time></trkpt><trkpt lat="44.1021517" lon="11.1070983"><ele>1165.8000000000002</ele><time>2026-04-25T14:16:06.867Z</time></trkpt><trkpt lat="44.1020767" lon="11.107075"><ele>1166.4</ele><time>2026-04-25T14:16:08.879Z</time></trkpt><trkpt lat="44.10198" lon="11.1070317"><ele>1167.0</ele><time>2026-04-25T14:16:10.827Z</time></trkpt><trkpt lat="44.1018883" lon="11.107"><ele>1167.0</ele><time>2026-04-25T14:16:12.839Z</time></trkpt><trkpt lat="44.1018083" lon="11.106995"><ele>1167.0</ele><time>2026-04-25T14:16:14.853Z</time></trkpt><trkpt lat="44.1017183" lon="11.10702"><ele>1167.0</ele><time>2026-04-25T14:16:16.865Z</time></trkpt><trkpt lat="44.1016133" lon="11.1070533"><ele>1167.0</ele><time>2026-04-25T14:16:18.879Z</time></trkpt><trkpt lat="44.1015267" lon="11.107075"><ele>1167.0</ele><time>2026-04-25T14:16:20.826Z</time></trkpt><trkpt lat="44.1014467" lon="11.1071167"><ele>1166.0</ele><time>2026-04-25T14:16:22.839Z</time></trkpt><trkpt lat="44.1013717" lon="11.107185"><ele>1165.0</ele><time>2026-04-25T14:16:24.852Z</time></trkpt><trkpt lat="44.101285" lon="11.1072467"><ele>1164.0</ele><time>2026-04-25T14:16:26.866Z</time></trkpt><trkpt lat="44.1011833" lon="11.1073067"><ele>1163.0</ele><time>2026-04-25T14:16:28.878Z</time></trkpt><trkpt lat="44.1011" lon="11.10735"><ele>1162.0</ele><time>2026-04-25T14:16:30.824Z</time></trkpt><trkpt lat="44.10103" lon="11.1074333"><ele>1162.0</ele><time>2026-04-25T14:16:33.912Z</time></trkpt><trkpt lat="44.1009983" lon="11.1075267"><ele>1162.0</ele><time>2026-04-25T14:16:35.858Z</time></trkpt><trkpt lat="44.100975" lon="11.1076483"><ele>1162.0</ele><time>2026-04-25T14:16:37.871Z</time></trkpt><trkpt lat="44.100955" lon="11.1077817"><ele>1162.0</ele><time>2026-04-25T14:16:39.818Z</time></trkpt><trkpt lat="44.1009233" lon="11.1078933"><ele>1162.0</ele><time>2026-04-25T14:16:41.898Z</time></trkpt><trkpt lat="44.10087" lon="11.1080083"><ele>1162.0</ele><time>2026-04-25T14:16:43.91Z</time></trkpt><trkpt lat="44.1008133" lon="11.108135"><ele>1163.6666666666665</ele><time>2026-04-25T14:16:45.857Z</time></trkpt><trkpt lat="44.100755" lon="11.108265"><ele>1165.3333333333333</ele><time>2026-04-25T14:16:47.87Z</time></trkpt><trkpt lat="44.100705" lon="11.1083517"><ele>1167.0</ele><time>2026-04-25T14:16:49.884Z</time></trkpt><trkpt lat="44.1006517" lon="11.108405"><ele>1168.6666666666667</ele><time>2026-04-25T14:16:51.896Z</time></trkpt><trkpt lat="44.100595" lon="11.1084833"><ele>1170.3333333333335</ele><time>2026-04-25T14:16:53.843Z</time></trkpt><trkpt lat="44.1005217" lon="11.10856"><ele>1172.0</ele><time>2026-04-25T14:16:55.857Z</time></trkpt><trkpt lat="44.10046" lon="11.1086183"><ele>1172.0</ele><time>2026-04-25T14:16:57.87Z</time></trkpt><trkpt lat="44.1004" lon="11.10868"><ele>1172.0</ele><time>2026-04-25T14:16:59.883Z</time></trkpt><trkpt lat="44.10033" lon="11.1087483"><ele>1172.0</ele><time>2026-04-25T14:17:02.903Z</time></trkpt><trkpt lat="44.1003033" lon="11.1088383"><ele>1172.0</ele><time>2026-04-25T14:17:04.848Z</time></trkpt><trkpt lat="44.1003133" lon="11.1089583"><ele>1172.0</ele><time>2026-04-25T14:17:06.861Z</time></trkpt><trkpt lat="44.10035" lon="11.1090317"><ele>1172.0</ele><time>2026-04-25T14:17:07.869Z</time></trkpt><trkpt lat="44.1003883" lon="11.1091567"><ele>1169.3333333333335</ele><time>2026-04-25T14:17:09.882Z</time></trkpt><trkpt lat="44.1004233" lon="11.1092517"><ele>1166.6666666666667</ele><time>2026-04-25T14:17:11.896Z</time></trkpt><trkpt lat="44.1004433" lon="11.1093817"><ele>1164.0</ele><time>2026-04-25T14:17:13.841Z</time></trkpt><trkpt lat="44.1004417" lon="11.109495"><ele>1161.3333333333333</ele><time>2026-04-25T14:17:15.855Z</time></trkpt><trkpt lat="44.1004633" lon="11.1096217"><ele>1158.6666666666665</ele><time>2026-04-25T14:17:17.868Z</time></trkpt><trkpt lat="44.100505" lon="11.1097467"><ele>1156.0</ele><time>2026-04-25T14:17:19.882Z</time></trkpt><trkpt lat="44.1005267" lon="11.1098567"><ele>1153.2</ele><time>2026-04-25T14:17:21.895Z</time></trkpt><trkpt lat="44.10052" lon="11.1099917"><ele>1150.3999999999999</ele><time>2026-04-25T14:17:23.84Z</time></trkpt><trkpt lat="44.1004983" lon="11.110125"><ele>1147.6</ele><time>2026-04-25T14:17:25.854Z</time></trkpt><trkpt lat="44.1004883" lon="11.1102567"><ele>1144.8</ele><time>2026-04-25T14:17:27.867Z</time></trkpt><trkpt lat="44.10048" lon="11.1104017"><ele>1142.0</ele><time>2026-04-25T14:17:29.881Z</time></trkpt><trkpt lat="44.1004583" lon="11.1105383"><ele>1142.0</ele><time>2026-04-25T14:17:31.894Z</time></trkpt><trkpt lat="44.10042" lon="11.11065"><ele>1142.0</ele><time>2026-04-25T14:17:33.839Z</time></trkpt><trkpt lat="44.1003683" lon="11.1107483"><ele>1142.0</ele><time>2026-04-25T14:17:35.853Z</time></trkpt><trkpt lat="44.1003017" lon="11.1108217"><ele>1142.0</ele><time>2026-04-25T14:17:37.867Z</time></trkpt><trkpt lat="44.100215" lon="11.1108767"><ele>1142.0</ele><time>2026-04-25T14:17:39.88Z</time></trkpt><trkpt lat="44.1001333" lon="11.1109367"><ele>1142.0</ele><time>2026-04-25T14:17:41.892Z</time></trkpt><trkpt lat="44.1000333" lon="11.110995"><ele>1141.8</ele><time>2026-04-25T14:17:43.839Z</time></trkpt><trkpt lat="44.09994" lon="11.111045"><ele>1141.6</ele><time>2026-04-25T14:17:45.853Z</time></trkpt><trkpt lat="44.09984" lon="11.1110583"><ele>1141.3999999999999</ele><time>2026-04-25T14:17:47.866Z</time></trkpt><trkpt lat="44.0997383" lon="11.1110783"><ele>1141.2</ele><time>2026-04-25T14:17:49.878Z</time></trkpt><trkpt lat="44.0996633" lon="11.111105"><ele>1141.0</ele><time>2026-04-25T14:17:51.892Z</time></trkpt><trkpt lat="44.09959" lon="11.1111667"><ele>1141.0</ele><time>2026-04-25T14:17:53.839Z</time></trkpt><trkpt lat="44.0995467" lon="11.1112583"><ele>1141.0</ele><time>2026-04-25T14:17:55.852Z</time></trkpt><trkpt lat="44.0994883" lon="11.11134"><ele>1141.0</ele><time>2026-04-25T14:17:57.865Z</time></trkpt><trkpt lat="44.09939" lon="11.1114517"><ele>1141.0</ele><time>2026-04-25T14:17:59.877Z</time></trkpt><trkpt lat="44.0993283" lon="11.1115217"><ele>1141.0</ele><time>2026-04-25T14:18:01.892Z</time></trkpt><trkpt lat="44.09926" lon="11.1115767"><ele>1141.0</ele><time>2026-04-25T14:18:03.838Z</time></trkpt><trkpt lat="44.0991933" lon="11.1116017"><ele>1140.5</ele><time>2026-04-25T14:18:05.85Z</time></trkpt><trkpt lat="44.09913" lon="11.1116083"><ele>1140.0</ele><time>2026-04-25T14:18:07.864Z</time></trkpt><trkpt lat="44.0990733" lon="11.1116717"><ele>1139.5</ele><time>2026-04-25T14:18:10.884Z</time></trkpt><trkpt lat="44.0990917" lon="11.1117683"><ele>1139.0</ele><time>2026-04-25T14:18:13.837Z</time></trkpt><trkpt lat="44.0991217" lon="11.1118567"><ele>1138.5</ele><time>2026-04-25T14:18:15.85Z</time></trkpt><trkpt lat="44.099155" lon="11.1119817"><ele>1138.0</ele><time>2026-04-25T14:18:17.863Z</time></trkpt><trkpt lat="44.099155" lon="11.1121083"><ele>1138.0</ele><time>2026-04-25T14:18:19.877Z</time></trkpt><trkpt lat="44.09914" lon="11.1122283"><ele>1138.0</ele><time>2026-04-25T14:18:21.823Z</time></trkpt><trkpt lat="44.099075" lon="11.1123617"><ele>1138.0</ele><time>2026-04-25T14:18:23.836Z</time></trkpt><trkpt lat="44.09904" lon="11.1124683"><ele>1138.0</ele><time>2026-04-25T14:18:25.85Z</time></trkpt><trkpt lat="44.099015" lon="11.1125567"><ele>1138.0</ele><time>2026-04-25T14:18:27.863Z</time></trkpt><trkpt lat="44.0990133" lon="11.1126617"><ele>1138.0</ele><time>2026-04-25T14:18:29.876Z</time></trkpt><trkpt lat="44.099065" lon="11.1127617"><ele>1129.3333333333333</ele><time>2026-04-25T14:18:31.822Z</time></trkpt><trkpt lat="44.0991267" lon="11.11281"><ele>1120.6666666666665</ele><time>2026-04-25T14:18:33.836Z</time></trkpt><trkpt lat="44.09921" lon="11.1128333"><ele>1112.0</ele><time>2026-04-25T14:18:35.849Z</time></trkpt><trkpt lat="44.0992767" lon="11.11283"><ele>1103.3333333333333</ele><time>2026-04-25T14:18:37.862Z</time></trkpt><trkpt lat="44.099345" lon="11.1127533"><ele>1094.6666666666667</ele><time>2026-04-25T14:18:40.882Z</time></trkpt><trkpt lat="44.0993933" lon="11.1126917"><ele>1086.0</ele><time>2026-04-25T14:18:42.828Z</time></trkpt><trkpt lat="44.099465" lon="11.11265"><ele>1086.0</ele><time>2026-04-25T14:18:44.84Z</time></trkpt><trkpt lat="44.0995667" lon="11.1126617"><ele>1086.0</ele><time>2026-04-25T14:18:46.855Z</time></trkpt><trkpt lat="44.0996517" lon="11.1127317"><ele>1086.0</ele><time>2026-04-25T14:18:48.868Z</time></trkpt><trkpt lat="44.0997167" lon="11.1128367"><ele>1086.0</ele><time>2026-04-25T14:18:50.881Z</time></trkpt><trkpt lat="44.0997717" lon="11.1129533"><ele>1086.0</ele><time>2026-04-25T14:18:52.827Z</time></trkpt><trkpt lat="44.0998133" lon="11.1130683"><ele>1086.0</ele><time>2026-04-25T14:18:54.907Z</time></trkpt><trkpt lat="44.0998317" lon="11.1131817"><ele>1086.0</ele><time>2026-04-25T14:18:56.853Z</time></trkpt><trkpt lat="44.0998017" lon="11.1133117"><ele>1086.0</ele><time>2026-04-25T14:18:58.867Z</time></trkpt><trkpt lat="44.099735" lon="11.1134133"><ele>1086.0</ele><time>2026-04-25T14:19:00.813Z</time></trkpt><trkpt lat="44.0996417" lon="11.11348"><ele>1086.0</ele><time>2026-04-25T14:19:02.827Z</time></trkpt><trkpt lat="44.0995383" lon="11.11353"><ele>1082.8333333333333</ele><time>2026-04-25T14:19:04.907Z</time></trkpt><trkpt lat="44.09945" lon="11.113585"><ele>1079.6666666666667</ele><time>2026-04-25T14:19:06.853Z</time></trkpt><trkpt lat="44.0993567" lon="11.1136167"><ele>1076.5</ele><time>2026-04-25T14:19:08.865Z</time></trkpt><trkpt lat="44.0992717" lon="11.1136117"><ele>1073.3333333333335</ele><time>2026-04-25T14:19:10.813Z</time></trkpt><trkpt lat="44.099195" lon="11.1136"><ele>1070.1666666666667</ele><time>2026-04-25T14:19:12.893Z</time></trkpt><trkpt lat="44.0991283" lon="11.1135917"><ele>1067.0</ele><time>2026-04-25T14:19:14.906Z</time></trkpt><trkpt lat="44.0990583" lon="11.1135767"><ele>1067.0</ele><time>2026-04-25T14:19:16.852Z</time></trkpt><trkpt lat="44.098975" lon="11.1135783"><ele>1067.0</ele><time>2026-04-25T14:19:18.866Z</time></trkpt><trkpt lat="44.09889" lon="11.1135933"><ele>1067.0</ele><time>2026-04-25T14:19:20.879Z</time></trkpt><trkpt lat="44.0987933" lon="11.1135883"><ele>1067.0</ele><time>2026-04-25T14:19:22.891Z</time></trkpt><trkpt lat="44.0987217" lon="11.1135417"><ele>1067.0</ele><time>2026-04-25T14:19:24.905Z</time></trkpt><trkpt lat="44.0986467" lon="11.1135233"><ele>1067.0</ele><time>2026-04-25T14:19:26.852Z</time></trkpt><trkpt lat="44.098515" lon="11.1136017"><ele>1067.0</ele><time>2026-04-25T14:19:40.877Z</time></trkpt><trkpt lat="44.09844" lon="11.1136817"><ele>1067.0</ele><time>2026-04-25T14:20:19.868Z</time></trkpt><trkpt lat="44.098365" lon="11.1137383"><ele>1067.0</ele><time>2026-04-25T14:20:21.88Z</time></trkpt><trkpt lat="44.0982733" lon="11.113765"><ele>1067.0</ele><time>2026-04-25T14:20:23.894Z</time></trkpt><trkpt lat="44.098185" lon="11.11383"><ele>1067.0</ele><time>2026-04-25T14:20:25.839Z</time></trkpt><trkpt lat="44.0981183" lon="11.113945"><ele>1065.5</ele><time>2026-04-25T14:20:27.853Z</time></trkpt><trkpt lat="44.0980517" lon="11.11405"><ele>1064.0</ele><time>2026-04-25T14:20:29.866Z</time></trkpt><trkpt lat="44.0979617" lon="11.1141267"><ele>1062.5</ele><time>2026-04-25T14:20:31.88Z</time></trkpt><trkpt lat="44.0978517" lon="11.1141867"><ele>1061.0</ele><time>2026-04-25T14:20:33.826Z</time></trkpt><trkpt lat="44.097745" lon="11.1142883"><ele>1061.0</ele><time>2026-04-25T14:20:35.839Z</time></trkpt><trkpt lat="44.0976983" lon="11.1143617"><ele>1061.0</ele><time>2026-04-25T14:20:36.846Z</time></trkpt><trkpt lat="44.0976567" lon="11.11446"><ele>1061.0</ele><time>2026-04-25T14:20:37.853Z</time></trkpt><trkpt lat="44.0976267" lon="11.1145683"><ele>1061.0</ele><time>2026-04-25T14:20:38.859Z</time></trkpt><trkpt lat="44.0975917" lon="11.11468"><ele>1061.0</ele><time>2026-04-25T14:20:39.865Z</time></trkpt><trkpt lat="44.0975583" lon="11.114795"><ele>1061.0</ele><time>2026-04-25T14:20:40.873Z</time></trkpt><trkpt lat="44.0975183" lon="11.1149117"><ele>1060.3999999999999</ele><time>2026-04-25T14:20:41.878Z</time></trkpt><trkpt lat="44.0974583" lon="11.11503"><ele>1059.8</ele><time>2026-04-25T14:20:42.885Z</time></trkpt><trkpt lat="44.0973967" lon="11.115145"><ele>1059.1999999999998</ele><time>2026-04-25T14:20:43.825Z</time></trkpt><trkpt lat="44.0973333" lon="11.1152617"><ele>1058.6</ele><time>2026-04-25T14:20:44.831Z</time></trkpt><trkpt lat="44.097275" lon="11.1153733"><ele>1058.0</ele><time>2026-04-25T14:20:45.838Z</time></trkpt><trkpt lat="44.09722" lon="11.1154817"><ele>1058.0</ele><time>2026-04-25T14:20:46.845Z</time></trkpt><trkpt lat="44.097175" lon="11.11558"><ele>1058.0</ele><time>2026-04-25T14:20:47.851Z</time></trkpt><trkpt lat="44.09713" lon="11.1156667"><ele>1058.0</ele><time>2026-04-25T14:20:48.858Z</time></trkpt><trkpt lat="44.0970867" lon="11.1157433"><ele>1058.0</ele><time>2026-04-25T14:20:49.865Z</time></trkpt><trkpt lat="44.0970383" lon="11.1158067"><ele>1058.0</ele><time>2026-04-25T14:20:50.872Z</time></trkpt><trkpt lat="44.0969917" lon="11.1158683"><ele>1058.0</ele><time>2026-04-25T14:20:51.877Z</time></trkpt><trkpt lat="44.0969333" lon="11.11592"><ele>1058.0</ele><time>2026-04-25T14:20:52.885Z</time></trkpt><trkpt lat="44.096865" lon="11.11596"><ele>1054.142857142857</ele><time>2026-04-25T14:20:53.825Z</time></trkpt><trkpt lat="44.0967933" lon="11.1159733"><ele>1050.2857142857142</ele><time>2026-04-25T14:20:54.831Z</time></trkpt><trkpt lat="44.0967183" lon="11.11598"><ele>1046.4285714285713</ele><time>2026-04-25T14:20:55.838Z</time></trkpt><trkpt lat="44.0966467" lon="11.1159583"><ele>1042.5714285714284</ele><time>2026-04-25T14:20:56.845Z</time></trkpt><trkpt lat="44.0965767" lon="11.1159333"><ele>1038.7142857142856</ele><time>2026-04-25T14:20:57.851Z</time></trkpt><trkpt lat="44.0965133" lon="11.115905"><ele>1034.857142857143</ele><time>2026-04-25T14:20:58.858Z</time></trkpt><trkpt lat="44.0964517" lon="11.115875"><ele>1031.0</ele><time>2026-04-25T14:20:59.864Z</time></trkpt><trkpt lat="44.0963883" lon="11.11586"><ele>1030.3333333333335</ele><time>2026-04-25T14:21:00.871Z</time></trkpt><trkpt lat="44.096315" lon="11.1158583"><ele>1029.6666666666667</ele><time>2026-04-25T14:21:01.878Z</time></trkpt><trkpt lat="44.096245" lon="11.1158567"><ele>1029.0</ele><time>2026-04-25T14:21:02.883Z</time></trkpt><trkpt lat="44.0961733" lon="11.1159"><ele>1028.3333333333333</ele><time>2026-04-25T14:21:03.824Z</time></trkpt><trkpt lat="44.0960917" lon="11.1159317"><ele>1027.6666666666665</ele><time>2026-04-25T14:21:04.83Z</time></trkpt><trkpt lat="44.096015" lon="11.1159633"><ele>1027.0</ele><time>2026-04-25T14:21:05.837Z</time></trkpt><trkpt lat="44.0959417" lon="11.115985"><ele>1027.0</ele><time>2026-04-25T14:21:06.844Z</time></trkpt><trkpt lat="44.0958717" lon="11.1159967"><ele>1027.0</ele><time>2026-04-25T14:21:07.85Z</time></trkpt><trkpt lat="44.0958067" lon="11.116005"><ele>1027.0</ele><time>2026-04-25T14:21:08.857Z</time></trkpt><trkpt lat="44.0957417" lon="11.116015"><ele>1027.0</ele><time>2026-04-25T14:21:09.864Z</time></trkpt><trkpt lat="44.0956183" lon="11.11599"><ele>1027.0</ele><time>2026-04-25T14:21:11.877Z</time></trkpt><trkpt lat="44.0955117" lon="11.1158967"><ele>1023.9999999999999</ele><time>2026-04-25T14:21:13.822Z</time></trkpt><trkpt lat="44.0954633" lon="11.1158117"><ele>1021.0</ele><time>2026-04-25T14:21:14.83Z</time></trkpt><trkpt lat="44.0954267" lon="11.1156917"><ele>1018.0</ele><time>2026-04-25T14:21:15.835Z</time></trkpt><trkpt lat="44.0953967" lon="11.1155717"><ele>1015.0</ele><time>2026-04-25T14:21:16.842Z</time></trkpt><trkpt lat="44.09536" lon="11.11546"><ele>1011.9999999999999</ele><time>2026-04-25T14:21:17.85Z</time></trkpt><trkpt lat="44.0953433" lon="11.11534"><ele>1009.0</ele><time>2026-04-25T14:21:18.855Z</time></trkpt><trkpt lat="44.0953317" lon="11.1152283"><ele>1009.0</ele><time>2026-04-25T14:21:19.863Z</time></trkpt><trkpt lat="44.09532" lon="11.1150917"><ele>1009.0000000000001</ele><time>2026-04-25T14:21:20.869Z</time></trkpt><trkpt lat="44.095345" lon="11.1149567"><ele>1009.0000000000001</ele><time>2026-04-25T14:21:21.876Z</time></trkpt><trkpt lat="44.0953517" lon="11.1148217"><ele>1009.0</ele><time>2026-04-25T14:21:22.816Z</time></trkpt><trkpt lat="44.0953367" lon="11.1147017"><ele>1009.0</ele><time>2026-04-25T14:21:23.822Z</time></trkpt><trkpt lat="44.09528" lon="11.1145533"><ele>1010.0</ele><time>2026-04-25T14:21:24.829Z</time></trkpt><trkpt lat="44.095205" lon="11.1143733"><ele>1011.0</ele><time>2026-04-25T14:21:25.903Z</time></trkpt><trkpt lat="44.0951317" lon="11.1142067"><ele>1012.0</ele><time>2026-04-25T14:21:26.909Z</time></trkpt><trkpt lat="44.0950667" lon="11.11405"><ele>1013.0</ele><time>2026-04-25T14:21:27.849Z</time></trkpt><trkpt lat="44.09501" lon="11.1138933"><ele>1015.75</ele><time>2026-04-25T14:21:28.855Z</time></trkpt><trkpt lat="44.0949517" lon="11.113745"><ele>1018.5</ele><time>2026-04-25T14:21:29.862Z</time></trkpt><trkpt lat="44.0948867" lon="11.1135917"><ele>1021.25</ele><time>2026-04-25T14:21:30.869Z</time></trkpt><trkpt lat="44.0948233" lon="11.1134333"><ele>1024.0</ele><time>2026-04-25T14:21:31.875Z</time></trkpt><trkpt lat="44.0947617" lon="11.1132983"><ele>1021.4000000000001</ele><time>2026-04-25T14:21:32.814Z</time></trkpt><trkpt lat="44.0946933" lon="11.1131583"><ele>1018.8000000000001</ele><time>2026-04-25T14:21:33.822Z</time></trkpt><trkpt lat="44.0946317" lon="11.113025"><ele>1016.1999999999999</ele><time>2026-04-25T14:21:34.895Z</time></trkpt><trkpt lat="44.09457" lon="11.1129033"><ele>1013.5999999999999</ele><time>2026-04-25T14:21:35.901Z</time></trkpt><trkpt lat="44.0945033" lon="11.1127967"><ele>1011.0</ele><time>2026-04-25T14:21:36.909Z</time></trkpt><trkpt lat="44.09443" lon="11.1126867"><ele>1011.0</ele><time>2026-04-25T14:21:37.847Z</time></trkpt><trkpt lat="44.0943717" lon="11.112585"><ele>1010.9999999999999</ele><time>2026-04-25T14:21:38.854Z</time></trkpt><trkpt lat="44.0943017" lon="11.1124633"><ele>1010.9999999999999</ele><time>2026-04-25T14:21:39.861Z</time></trkpt><trkpt lat="44.0942333" lon="11.11234"><ele>1011.0</ele><time>2026-04-25T14:21:40.868Z</time></trkpt><trkpt lat="44.09416" lon="11.1122167"><ele>1011.0</ele><time>2026-04-25T14:21:41.874Z</time></trkpt><trkpt lat="44.094085" lon="11.1120933"><ele>1009.25</ele><time>2026-04-25T14:21:42.88Z</time></trkpt><trkpt lat="44.0940067" lon="11.1119667"><ele>1007.5</ele><time>2026-04-25T14:21:43.887Z</time></trkpt><trkpt lat="44.093925" lon="11.1118417"><ele>1005.75</ele><time>2026-04-25T14:21:44.894Z</time></trkpt><trkpt lat="44.0938417" lon="11.1117133"><ele>1004.0</ele><time>2026-04-25T14:21:45.9Z</time></trkpt><trkpt lat="44.0937567" lon="11.111585"><ele>1007.0</ele><time>2026-04-25T14:21:46.907Z</time></trkpt><trkpt lat="44.0936683" lon="11.1114583"><ele>1010.0</ele><time>2026-04-25T14:21:47.847Z</time></trkpt><trkpt lat="44.0935867" lon="11.1113317"><ele>1013.0</ele><time>2026-04-25T14:21:48.854Z</time></trkpt><trkpt lat="44.0935117" lon="11.1112167"><ele>1016.0</ele><time>2026-04-25T14:21:49.861Z</time></trkpt><trkpt lat="44.0934417" lon="11.1111083"><ele>1016.0</ele><time>2026-04-25T14:21:50.867Z</time></trkpt><trkpt lat="44.0933733" lon="11.1110067"><ele>1015.9999999999999</ele><time>2026-04-25T14:21:51.873Z</time></trkpt><trkpt lat="44.0933083" lon="11.110915"><ele>1015.9999999999999</ele><time>2026-04-25T14:21:52.88Z</time></trkpt><trkpt lat="44.0932433" lon="11.1108367"><ele>1016.0</ele><time>2026-04-25T14:21:53.886Z</time></trkpt><trkpt lat="44.0931783" lon="11.110765"><ele>1016.0</ele><time>2026-04-25T14:21:54.894Z</time></trkpt><trkpt lat="44.093095" lon="11.110695"><ele>1011.4</ele><time>2026-04-25T14:21:55.9Z</time></trkpt><trkpt lat="44.0930133" lon="11.1106383"><ele>1006.8</ele><time>2026-04-25T14:21:56.84Z</time></trkpt><trkpt lat="44.0929367" lon="11.1105983"><ele>1002.1999999999999</ele><time>2026-04-25T14:21:57.846Z</time></trkpt><trkpt lat="44.09282" lon="11.11056"><ele>997.5999999999999</ele><time>2026-04-25T14:21:59.86Z</time></trkpt><trkpt lat="44.0927233" lon="11.1105833"><ele>993.0</ele><time>2026-04-25T14:22:01.873Z</time></trkpt><trkpt lat="44.0926717" lon="11.110655"><ele>994.3333333333334</ele><time>2026-04-25T14:22:03.886Z</time></trkpt><trkpt lat="44.0926367" lon="11.1107683"><ele>995.6666666666667</ele><time>2026-04-25T14:22:05.9Z</time></trkpt><trkpt lat="44.092585" lon="11.1108733"><ele>997.0</ele><time>2026-04-25T14:22:07.845Z</time></trkpt><trkpt lat="44.09252" lon="11.1109483"><ele>998.3333333333334</ele><time>2026-04-25T14:22:09.858Z</time></trkpt><trkpt lat="44.09244" lon="11.1110117"><ele>999.6666666666667</ele><time>2026-04-25T14:22:11.872Z</time></trkpt><trkpt lat="44.0923683" lon="11.1110717"><ele>1001.0</ele><time>2026-04-25T14:22:13.886Z</time></trkpt><trkpt lat="44.0922767" lon="11.1110867"><ele>1001.0000000000001</ele><time>2026-04-25T14:22:16.838Z</time></trkpt><trkpt lat="44.092205" lon="11.1110467"><ele>1001.0</ele><time>2026-04-25T14:22:19.858Z</time></trkpt><trkpt lat="44.0921317" lon="11.11104"><ele>1001.0</ele><time>2026-04-25T14:22:23.885Z</time></trkpt><trkpt lat="44.0921183" lon="11.11116"><ele>1001.0</ele><time>2026-04-25T14:27:53.858Z</time></trkpt><trkpt lat="44.092195" lon="11.1111667"><ele>1001.0000000000001</ele><time>2026-04-25T14:27:56.878Z</time></trkpt><trkpt lat="44.092265" lon="11.1111533"><ele>1001.0</ele><time>2026-04-25T14:27:59.831Z</time></trkpt><trkpt lat="44.0923333" lon="11.11112"><ele>1001.0</ele><time>2026-04-25T14:28:02.852Z</time></trkpt><trkpt lat="44.092405" lon="11.1110683"><ele>1001.0</ele><time>2026-04-25T14:28:06.878Z</time></trkpt><trkpt lat="44.0924667" lon="11.1110433"><ele>1001.0</ele><time>2026-04-25T14:28:09.831Z</time></trkpt><trkpt lat="44.0925417" lon="11.1110117"><ele>1001.0</ele><time>2026-04-25T14:28:12.851Z</time></trkpt><trkpt lat="44.0925883" lon="11.110935"><ele>1001.0</ele><time>2026-04-25T14:28:15.871Z</time></trkpt><trkpt lat="44.0926" lon="11.1108467"><ele>1001.0</ele><time>2026-04-25T14:28:18.823Z</time></trkpt><trkpt lat="44.0925733" lon="11.110745"><ele>1001.0</ele><time>2026-04-25T14:28:21.843Z</time></trkpt><trkpt lat="44.0925283" lon="11.1106517"><ele>999.6666666666667</ele><time>2026-04-25T14:28:24.863Z</time></trkpt><trkpt lat="44.09247" lon="11.1105767"><ele>998.3333333333334</ele><time>2026-04-25T14:28:27.883Z</time></trkpt><trkpt lat="44.092405" lon="11.1105233"><ele>997.0</ele><time>2026-04-25T14:28:30.835Z</time></trkpt><trkpt lat="44.0923417" lon="11.11047"><ele>995.6666666666667</ele><time>2026-04-25T14:28:33.856Z</time></trkpt><trkpt lat="44.0922767" lon="11.1104367"><ele>994.3333333333334</ele><time>2026-04-25T14:28:36.876Z</time></trkpt><trkpt lat="44.0921483" lon="11.1104"><ele>993.0</ele><time>2026-04-25T14:29:38.884Z</time></trkpt><trkpt lat="44.0920267" lon="11.11041"><ele>991.1428571428571</ele><time>2026-04-25T14:29:40.898Z</time></trkpt><trkpt lat="44.0919617" lon="11.1104183"><ele>989.2857142857143</ele><time>2026-04-25T14:29:41.836Z</time></trkpt><trkpt lat="44.0918933" lon="11.11044"><ele>987.4285714285714</ele><time>2026-04-25T14:29:42.843Z</time></trkpt><trkpt lat="44.0918233" lon="11.110465"><ele>985.5714285714286</ele><time>2026-04-25T14:29:43.849Z</time></trkpt><trkpt lat="44.0917483" lon="11.11048"><ele>983.7142857142858</ele><time>2026-04-25T14:29:44.856Z</time></trkpt><trkpt lat="44.0916667" lon="11.1104883"><ele>981.8571428571429</ele><time>2026-04-25T14:29:45.864Z</time></trkpt><trkpt lat="44.091585" lon="11.110495"><ele>980.0</ele><time>2026-04-25T14:29:46.869Z</time></trkpt><trkpt lat="44.0915" lon="11.1105"><ele>976.0000000000001</ele><time>2026-04-25T14:29:47.877Z</time></trkpt><trkpt lat="44.091415" lon="11.1105067"><ele>972.0</ele><time>2026-04-25T14:29:48.884Z</time></trkpt><trkpt lat="44.0913317" lon="11.11052"><ele>968.0</ele><time>2026-04-25T14:29:49.89Z</time></trkpt><trkpt lat="44.09125" lon="11.1105417"><ele>964.0</ele><time>2026-04-25T14:29:50.897Z</time></trkpt><trkpt lat="44.091165" lon="11.1105583"><ele>960.0000000000001</ele><time>2026-04-25T14:29:51.836Z</time></trkpt><trkpt lat="44.0910783" lon="11.1105767"><ele>956.0</ele><time>2026-04-25T14:29:52.843Z</time></trkpt><trkpt lat="44.0909917" lon="11.11061"><ele>956.0000000000001</ele><time>2026-04-25T14:29:53.85Z</time></trkpt><trkpt lat="44.0909083" lon="11.1106517"><ele>956.0</ele><time>2026-04-25T14:29:54.856Z</time></trkpt><trkpt lat="44.0908283" lon="11.1106983"><ele>956.0</ele><time>2026-04-25T14:29:55.863Z</time></trkpt><trkpt lat="44.0907517" lon="11.1107417"><ele>956.0</ele><time>2026-04-25T14:29:56.87Z</time></trkpt><trkpt lat="44.0906683" lon="11.11077"><ele>956.0000000000001</ele><time>2026-04-25T14:29:57.876Z</time></trkpt><trkpt lat="44.0905817" lon="11.1107817"><ele>956.0</ele><time>2026-04-25T14:29:58.883Z</time></trkpt><trkpt lat="44.0904917" lon="11.1107933"><ele>959.5999999999999</ele><time>2026-04-25T14:29:59.889Z</time></trkpt><trkpt lat="44.09039" lon="11.110815"><ele>963.1999999999999</ele><time>2026-04-25T14:30:00.896Z</time></trkpt><trkpt lat="44.09029" lon="11.110845"><ele>966.8000000000001</ele><time>2026-04-25T14:30:01.836Z</time></trkpt><trkpt lat="44.0902017" lon="11.110875"><ele>970.4000000000001</ele><time>2026-04-25T14:30:02.842Z</time></trkpt><trkpt lat="44.0901033" lon="11.110895"><ele>974.0</ele><time>2026-04-25T14:30:03.849Z</time></trkpt><trkpt lat="44.0899983" lon="11.1109117"><ele>969.8000000000001</ele><time>2026-04-25T14:30:04.855Z</time></trkpt><trkpt lat="44.089895" lon="11.1109267"><ele>965.6000000000001</ele><time>2026-04-25T14:30:05.862Z</time></trkpt><trkpt lat="44.0897983" lon="11.1109367"><ele>961.4</ele><time>2026-04-25T14:30:06.869Z</time></trkpt><trkpt lat="44.0897017" lon="11.1109333"><ele>957.2</ele><time>2026-04-25T14:30:07.875Z</time></trkpt><trkpt lat="44.0896083" lon="11.1109367"><ele>953.0</ele><time>2026-04-25T14:30:08.882Z</time></trkpt><trkpt lat="44.0895183" lon="11.1109483"><ele>953.0</ele><time>2026-04-25T14:30:09.888Z</time></trkpt><trkpt lat="44.0894317" lon="11.1109767"><ele>953.0</ele><time>2026-04-25T14:30:10.828Z</time></trkpt><trkpt lat="44.089345" lon="11.1110267"><ele>953.0</ele><time>2026-04-25T14:30:11.835Z</time></trkpt><trkpt lat="44.0892633" lon="11.11109"><ele>953.0</ele><time>2026-04-25T14:30:12.84Z</time></trkpt><trkpt lat="44.089185" lon="11.1111533"><ele>953.0</ele><time>2026-04-25T14:30:13.848Z</time></trkpt><trkpt lat="44.089105" lon="11.1112133"><ele>947.8</ele><time>2026-04-25T14:30:14.855Z</time></trkpt><trkpt lat="44.089025" lon="11.1112767"><ele>942.5999999999999</ele><time>2026-04-25T14:30:15.861Z</time></trkpt><trkpt lat="44.0889533" lon="11.1113533"><ele>937.4000000000001</ele><time>2026-04-25T14:30:16.867Z</time></trkpt><trkpt lat="44.0888783" lon="11.1114317"><ele>932.2</ele><time>2026-04-25T14:30:17.875Z</time></trkpt><trkpt lat="44.0887983" lon="11.1114983"><ele>927.0</ele><time>2026-04-25T14:30:18.88Z</time></trkpt><trkpt lat="44.0887083" lon="11.1115483"><ele>928.5</ele><time>2026-04-25T14:30:19.888Z</time></trkpt><trkpt lat="44.08862" lon="11.111585"><ele>930.0</ele><time>2026-04-25T14:30:20.826Z</time></trkpt><trkpt lat="44.0885333" lon="11.11161"><ele>931.5</ele><time>2026-04-25T14:30:21.834Z</time></trkpt><trkpt lat="44.08845" lon="11.1116217"><ele>933.0</ele><time>2026-04-25T14:30:22.841Z</time></trkpt><trkpt lat="44.08836" lon="11.1116283"><ele>934.5</ele><time>2026-04-25T14:30:23.847Z</time></trkpt><trkpt lat="44.088275" lon="11.11165"><ele>936.0</ele><time>2026-04-25T14:30:24.854Z</time></trkpt><trkpt lat="44.08819" lon="11.1116817"><ele>936.0</ele><time>2026-04-25T14:30:25.86Z</time></trkpt><trkpt lat="44.0881083" lon="11.111725"><ele>935.9999999999999</ele><time>2026-04-25T14:30:26.867Z</time></trkpt><trkpt lat="44.0880267" lon="11.111775"><ele>935.9999999999999</ele><time>2026-04-25T14:30:27.874Z</time></trkpt><trkpt lat="44.0879517" lon="11.1118417"><ele>936.0</ele><time>2026-04-25T14:30:28.88Z</time></trkpt><trkpt lat="44.0878733" lon="11.1119133"><ele>936.0</ele><time>2026-04-25T14:30:29.886Z</time></trkpt><trkpt lat="44.0877983" lon="11.1119883"><ele>936.0</ele><time>2026-04-25T14:30:30.827Z</time></trkpt><trkpt lat="44.087725" lon="11.1120633"><ele>936.0</ele><time>2026-04-25T14:30:31.833Z</time></trkpt><trkpt lat="44.08765" lon="11.1121283"><ele>936.0</ele><time>2026-04-25T14:30:32.84Z</time></trkpt><trkpt lat="44.08758" lon="11.1121883"><ele>936.0</ele><time>2026-04-25T14:30:33.847Z</time></trkpt><trkpt lat="44.08751" lon="11.11225"><ele>936.0</ele><time>2026-04-25T14:30:34.852Z</time></trkpt><trkpt lat="44.0874433" lon="11.1123183"><ele>936.0</ele><time>2026-04-25T14:30:35.86Z</time></trkpt><trkpt lat="44.08739" lon="11.112405"><ele>933.6666666666666</ele><time>2026-04-25T14:30:36.866Z</time></trkpt><trkpt lat="44.0873417" lon="11.1125033"><ele>931.3333333333333</ele><time>2026-04-25T14:30:37.873Z</time></trkpt><trkpt lat="44.0872933" lon="11.112615"><ele>929.0</ele><time>2026-04-25T14:30:38.88Z</time></trkpt><trkpt lat="44.0872483" lon="11.11273"><ele>926.6666666666666</ele><time>2026-04-25T14:30:39.886Z</time></trkpt><trkpt lat="44.0871967" lon="11.1128317"><ele>924.3333333333333</ele><time>2026-04-25T14:30:40.826Z</time></trkpt><trkpt lat="44.08715" lon="11.1129167"><ele>922.0</ele><time>2026-04-25T14:30:41.832Z</time></trkpt><trkpt lat="44.0870967" lon="11.113"><ele>921.9999999999999</ele><time>2026-04-25T14:30:42.839Z</time></trkpt><trkpt lat="44.0870383" lon="11.1130683"><ele>922.0</ele><time>2026-04-25T14:30:43.846Z</time></trkpt><trkpt lat="44.08697" lon="11.1131217"><ele>922.0</ele><time>2026-04-25T14:30:44.852Z</time></trkpt><trkpt lat="44.086905" lon="11.1131683"><ele>922.0</ele><time>2026-04-25T14:30:45.859Z</time></trkpt><trkpt lat="44.0868383" lon="11.11321"><ele>921.9999999999999</ele><time>2026-04-25T14:30:46.866Z</time></trkpt><trkpt lat="44.0867817" lon="11.1132567"><ele>922.0</ele><time>2026-04-25T14:30:47.871Z</time></trkpt><trkpt lat="44.0866967" lon="11.113365"><ele>928.2</ele><time>2026-04-25T14:30:49.885Z</time></trkpt><trkpt lat="44.0866033" lon="11.1134533"><ele>934.4000000000001</ele><time>2026-04-25T14:30:51.832Z</time></trkpt><trkpt lat="44.0865117" lon="11.1134717"><ele>940.5999999999999</ele><time>2026-04-25T14:30:53.845Z</time></trkpt><trkpt lat="44.08642" lon="11.1134283"><ele>946.8</ele><time>2026-04-25T14:30:55.858Z</time></trkpt><trkpt lat="44.0863133" lon="11.1134183"><ele>953.0</ele><time>2026-04-25T14:30:57.872Z</time></trkpt><trkpt lat="44.0862033" lon="11.1134667"><ele>953.5000000000001</ele><time>2026-04-25T14:30:59.817Z</time></trkpt><trkpt lat="44.0861" lon="11.113525"><ele>954.0</ele><time>2026-04-25T14:31:01.831Z</time></trkpt><trkpt lat="44.0860117" lon="11.113535"><ele>954.5</ele><time>2026-04-25T14:31:03.844Z</time></trkpt><trkpt lat="44.0859383" lon="11.11349"><ele>955.0</ele><time>2026-04-25T14:31:05.857Z</time></trkpt><trkpt lat="44.0858767" lon="11.1133833"><ele>955.5000000000001</ele><time>2026-04-25T14:31:07.871Z</time></trkpt><trkpt lat="44.08585" lon="11.1133017"><ele>956.0</ele><time>2026-04-25T14:31:08.877Z</time></trkpt><trkpt lat="44.0858167" lon="11.1132167"><ele>950.2857142857144</ele><time>2026-04-25T14:31:09.817Z</time></trkpt><trkpt lat="44.0857767" lon="11.1131233"><ele>944.5714285714287</ele><time>2026-04-25T14:31:10.824Z</time></trkpt><trkpt lat="44.0857283" lon="11.1130483"><ele>938.8571428571429</ele><time>2026-04-25T14:31:11.829Z</time></trkpt><trkpt lat="44.08568" lon="11.1129667"><ele>933.1428571428572</ele><time>2026-04-25T14:31:12.836Z</time></trkpt><trkpt lat="44.08562" lon="11.1129083"><ele>927.4285714285716</ele><time>2026-04-25T14:31:13.91Z</time></trkpt><trkpt lat="44.0855633" lon="11.1128433"><ele>921.7142857142857</ele><time>2026-04-25T14:31:14.849Z</time></trkpt><trkpt lat="44.0855017" lon="11.1127917"><ele>916.0</ele><time>2026-04-25T14:31:15.856Z</time></trkpt><trkpt lat="44.0854367" lon="11.1127483"><ele>915.9999999999999</ele><time>2026-04-25T14:31:16.862Z</time></trkpt><trkpt lat="44.08536" lon="11.1127517"><ele>916.0</ele><time>2026-04-25T14:31:17.87Z</time></trkpt><trkpt lat="44.0852833" lon="11.1127783"><ele>916.0</ele><time>2026-04-25T14:31:18.877Z</time></trkpt><trkpt lat="44.08521" lon="11.11283"><ele>916.0</ele><time>2026-04-25T14:31:19.816Z</time></trkpt><trkpt lat="44.0851317" lon="11.1128933"><ele>915.9999999999999</ele><time>2026-04-25T14:31:20.823Z</time></trkpt><trkpt lat="44.0850517" lon="11.1129717"><ele>916.0</ele><time>2026-04-25T14:31:21.896Z</time></trkpt><trkpt lat="44.0849817" lon="11.1130533"><ele>914.8333333333333</ele><time>2026-04-25T14:31:22.903Z</time></trkpt><trkpt lat="44.0849167" lon="11.1131317"><ele>913.6666666666666</ele><time>2026-04-25T14:31:23.91Z</time></trkpt><trkpt lat="44.0848633" lon="11.113205"><ele>912.5</ele><time>2026-04-25T14:31:24.849Z</time></trkpt><trkpt lat="44.0848117" lon="11.1132617"><ele>911.3333333333333</ele><time>2026-04-25T14:31:25.856Z</time></trkpt><trkpt lat="44.0847017" lon="11.1133167"><ele>910.1666666666666</ele><time>2026-04-25T14:31:27.869Z</time></trkpt><trkpt lat="44.0846383" lon="11.1133083"><ele>909.0</ele><time>2026-04-25T14:31:28.876Z</time></trkpt><trkpt lat="44.084575" lon="11.11329"><ele>909.0</ele><time>2026-04-25T14:31:29.882Z</time></trkpt><trkpt lat="44.084505" lon="11.1132467"><ele>909.0</ele><time>2026-04-25T14:31:30.889Z</time></trkpt><trkpt lat="44.0844483" lon="11.1131917"><ele>909.0</ele><time>2026-04-25T14:31:31.896Z</time></trkpt><trkpt lat="44.084395" lon="11.1131383"><ele>909.0</ele><time>2026-04-25T14:31:32.902Z</time></trkpt><trkpt lat="44.084335" lon="11.1131033"><ele>909.0</ele><time>2026-04-25T14:31:33.909Z</time></trkpt><trkpt lat="44.0842633" lon="11.1131067"><ele>909.0</ele><time>2026-04-25T14:31:34.849Z</time></trkpt><trkpt lat="44.0841883" lon="11.11313"><ele>909.0</ele><time>2026-04-25T14:31:35.855Z</time></trkpt><trkpt lat="44.0841183" lon="11.1131533"><ele>917.5</ele><time>2026-04-25T14:31:36.862Z</time></trkpt><trkpt lat="44.0840433" lon="11.1131583"><ele>926.0</ele><time>2026-04-25T14:31:37.868Z</time></trkpt><trkpt lat="44.08397" lon="11.1131533"><ele>934.5</ele><time>2026-04-25T14:31:38.875Z</time></trkpt><trkpt lat="44.0839117" lon="11.113115"><ele>943.0</ele><time>2026-04-25T14:31:39.882Z</time></trkpt><trkpt lat="44.0838567" lon="11.113055"><ele>951.5</ele><time>2026-04-25T14:31:40.888Z</time></trkpt><trkpt lat="44.0838033" lon="11.112965"><ele>960.0</ele><time>2026-04-25T14:31:41.895Z</time></trkpt><trkpt lat="44.08376" lon="11.1128517"><ele>960.0</ele><time>2026-04-25T14:31:42.901Z</time></trkpt><trkpt lat="44.0837183" lon="11.1127533"><ele>960.0</ele><time>2026-04-25T14:31:43.841Z</time></trkpt><trkpt lat="44.0836733" lon="11.112665"><ele>960.0</ele><time>2026-04-25T14:31:44.847Z</time></trkpt><trkpt lat="44.0836433" lon="11.1125733"><ele>960.0</ele><time>2026-04-25T14:31:45.854Z</time></trkpt><trkpt lat="44.0836183" lon="11.112485"><ele>960.0</ele><time>2026-04-25T14:31:46.861Z</time></trkpt><trkpt lat="44.08361" lon="11.1123967"><ele>960.0</ele><time>2026-04-25T14:31:47.868Z</time></trkpt><trkpt lat="44.0836533" lon="11.112225"><ele>955.8571428571429</ele><time>2026-04-25T14:31:49.881Z</time></trkpt><trkpt lat="44.0837" lon="11.1121483"><ele>951.7142857142857</ele><time>2026-04-25T14:31:50.887Z</time></trkpt><trkpt lat="44.0837483" lon="11.1120783"><ele>947.5714285714286</ele><time>2026-04-25T14:31:51.894Z</time></trkpt><trkpt lat="44.0837883" lon="11.1119967"><ele>943.4285714285714</ele><time>2026-04-25T14:31:52.901Z</time></trkpt><trkpt lat="44.0838167" lon="11.11191"><ele>939.2857142857142</ele><time>2026-04-25T14:31:53.84Z</time></trkpt><trkpt lat="44.08382" lon="11.1118117"><ele>935.1428571428571</ele><time>2026-04-25T14:31:54.847Z</time></trkpt><trkpt lat="44.0838117" lon="11.111705"><ele>931.0</ele><time>2026-04-25T14:31:55.853Z</time></trkpt><trkpt lat="44.0837967" lon="11.1116117"><ele>924.1999999999999</ele><time>2026-04-25T14:31:56.86Z</time></trkpt><trkpt lat="44.0837683" lon="11.11153"><ele>917.3999999999999</ele><time>2026-04-25T14:31:57.867Z</time></trkpt><trkpt lat="44.0836683" lon="11.111405"><ele>910.6</ele><time>2026-04-25T14:31:59.88Z</time></trkpt><trkpt lat="44.0835933" lon="11.1113567"><ele>903.8</ele><time>2026-04-25T14:32:00.887Z</time></trkpt><trkpt lat="44.0835083" lon="11.111335"><ele>897.0</ele><time>2026-04-25T14:32:01.892Z</time></trkpt><trkpt lat="44.0834167" lon="11.111345"><ele>897.0</ele><time>2026-04-25T14:32:02.9Z</time></trkpt><trkpt lat="44.08333" lon="11.11136"><ele>897.0</ele><time>2026-04-25T14:32:03.84Z</time></trkpt><trkpt lat="44.0832617" lon="11.1113733"><ele>897.0</ele><time>2026-04-25T14:32:04.846Z</time></trkpt><trkpt lat="44.083145" lon="11.1113467"><ele>897.0</ele><time>2026-04-25T14:32:06.859Z</time></trkpt><trkpt lat="44.083095" lon="11.1112917"><ele>897.0</ele><time>2026-04-25T14:32:07.865Z</time></trkpt><trkpt lat="44.0830683" lon="11.1112017"><ele>897.0</ele><time>2026-04-25T14:32:08.873Z</time></trkpt><trkpt lat="44.0830417" lon="11.1111"><ele>898.1428571428571</ele><time>2026-04-25T14:32:09.879Z</time></trkpt><trkpt lat="44.0830167" lon="11.1109833"><ele>899.2857142857142</ele><time>2026-04-25T14:32:10.886Z</time></trkpt><trkpt lat="44.0829833" lon="11.1108733"><ele>900.4285714285713</ele><time>2026-04-25T14:32:11.892Z</time></trkpt><trkpt lat="44.082945" lon="11.1107867"><ele>901.5714285714286</ele><time>2026-04-25T14:32:12.899Z</time></trkpt><trkpt lat="44.08291" lon="11.1107133"><ele>902.7142857142856</ele><time>2026-04-25T14:32:13.839Z</time></trkpt><trkpt lat="44.082865" lon="11.1106483"><ele>903.8571428571428</ele><time>2026-04-25T14:32:14.845Z</time></trkpt><trkpt lat="44.0828033" lon="11.1106033"><ele>905.0</ele><time>2026-04-25T14:32:15.852Z</time></trkpt><trkpt lat="44.082735" lon="11.110585"><ele>905.4</ele><time>2026-04-25T14:32:16.859Z</time></trkpt><trkpt lat="44.0826567" lon="11.1105933"><ele>905.8</ele><time>2026-04-25T14:32:17.865Z</time></trkpt><trkpt lat="44.0825483" lon="11.1106617"><ele>906.2</ele><time>2026-04-25T14:32:18.872Z</time></trkpt><trkpt lat="44.0824383" lon="11.1107267"><ele>906.6</ele><time>2026-04-25T14:32:19.878Z</time></trkpt><trkpt lat="44.0823383" lon="11.1107967"><ele>907.0</ele><time>2026-04-25T14:32:20.884Z</time></trkpt><trkpt lat="44.0822433" lon="11.1108633"><ele>906.9999999999999</ele><time>2026-04-25T14:32:21.891Z</time></trkpt><trkpt lat="44.0821517" lon="11.1109083"><ele>907.0</ele><time>2026-04-25T14:32:22.898Z</time></trkpt><trkpt lat="44.0820633" lon="11.11094"><ele>907.0</ele><time>2026-04-25T14:32:23.838Z</time></trkpt><trkpt lat="44.0819733" lon="11.1109533"><ele>907.0</ele><time>2026-04-25T14:32:24.845Z</time></trkpt><trkpt lat="44.0818917" lon="11.1109583"><ele>906.9999999999999</ele><time>2026-04-25T14:32:25.851Z</time></trkpt><trkpt lat="44.0818183" lon="11.1109367"><ele>907.0</ele><time>2026-04-25T14:32:26.857Z</time></trkpt><trkpt lat="44.0817467" lon="11.1109067"><ele>906.9999999999999</ele><time>2026-04-25T14:32:27.865Z</time></trkpt><trkpt lat="44.0816833" lon="11.11083"><ele>907.0</ele><time>2026-04-25T14:32:28.871Z</time></trkpt><trkpt lat="44.0816517" lon="11.1107367"><ele>907.0</ele><time>2026-04-25T14:32:29.878Z</time></trkpt><trkpt lat="44.0816267" lon="11.1106367"><ele>907.0</ele><time>2026-04-25T14:32:30.884Z</time></trkpt><trkpt lat="44.08159" lon="11.1105517"><ele>906.9999999999999</ele><time>2026-04-25T14:32:31.891Z</time></trkpt><trkpt lat="44.0815367" lon="11.1105033"><ele>907.0</ele><time>2026-04-25T14:32:32.831Z</time></trkpt><trkpt lat="44.081445" lon="11.110485"><ele>902.2</ele><time>2026-04-25T14:32:33.837Z</time></trkpt><trkpt lat="44.0813517" lon="11.110485"><ele>897.4000000000001</ele><time>2026-04-25T14:32:34.844Z</time></trkpt><trkpt lat="44.0812617" lon="11.1104933"><ele>892.5999999999999</ele><time>2026-04-25T14:32:35.85Z</time></trkpt><trkpt lat="44.08117" lon="11.1104833"><ele>887.8</ele><time>2026-04-25T14:32:36.857Z</time></trkpt><trkpt lat="44.0810833" lon="11.1104517"><ele>883.0</ele><time>2026-04-25T14:32:37.864Z</time></trkpt><trkpt lat="44.080995" lon="11.110405"><ele>882.9999999999999</ele><time>2026-04-25T14:32:38.87Z</time></trkpt><trkpt lat="44.08091" lon="11.1103533"><ele>883.0</ele><time>2026-04-25T14:32:39.876Z</time></trkpt><trkpt lat="44.0808367" lon="11.1103033"><ele>883.0</ele><time>2026-04-25T14:32:40.884Z</time></trkpt><trkpt lat="44.0807733" lon="11.110225"><ele>883.0</ele><time>2026-04-25T14:32:41.89Z</time></trkpt><trkpt lat="44.080715" lon="11.1101333"><ele>882.9999999999999</ele><time>2026-04-25T14:32:42.83Z</time></trkpt><trkpt lat="44.0806583" lon="11.11004"><ele>883.0</ele><time>2026-04-25T14:32:43.836Z</time></trkpt><trkpt lat="44.0806033" lon="11.109945"><ele>880.6666666666666</ele><time>2026-04-25T14:32:44.843Z</time></trkpt><trkpt lat="44.080545" lon="11.1098667"><ele>878.3333333333333</ele><time>2026-04-25T14:32:45.85Z</time></trkpt><trkpt lat="44.08048" lon="11.1098083"><ele>876.0</ele><time>2026-04-25T14:32:46.855Z</time></trkpt><trkpt lat="44.0804133" lon="11.1097583"><ele>873.6666666666667</ele><time>2026-04-25T14:32:47.862Z</time></trkpt><trkpt lat="44.080335" lon="11.109725"><ele>871.3333333333334</ele><time>2026-04-25T14:32:48.869Z</time></trkpt><trkpt lat="44.08025" lon="11.1097233"><ele>869.0</ele><time>2026-04-25T14:32:49.875Z</time></trkpt><trkpt lat="44.0801617" lon="11.1097483"><ele>869.0000000000001</ele><time>2026-04-25T14:32:50.882Z</time></trkpt><trkpt lat="44.0800833" lon="11.1097867"><ele>869.0</ele><time>2026-04-25T14:32:51.889Z</time></trkpt><trkpt lat="44.08002" lon="11.1098567"><ele>869.0</ele><time>2026-04-25T14:32:52.829Z</time></trkpt><trkpt lat="44.0799817" lon="11.10993"><ele>869.0</ele><time>2026-04-25T14:32:53.835Z</time></trkpt><trkpt lat="44.07999" lon="11.110085"><ele>869.0000000000001</ele><time>2026-04-25T14:32:54.842Z</time></trkpt><trkpt lat="44.0799967" lon="11.1102267"><ele>869.0</ele><time>2026-04-25T14:32:55.849Z</time></trkpt><trkpt lat="44.0800233" lon="11.110385"><ele>872.0</ele><time>2026-04-25T14:32:56.855Z</time></trkpt><trkpt lat="44.0800483" lon="11.1105467"><ele>875.0000000000001</ele><time>2026-04-25T14:32:57.861Z</time></trkpt><trkpt lat="44.080065" lon="11.110695"><ele>878.0000000000001</ele><time>2026-04-25T14:32:58.869Z</time></trkpt><trkpt lat="44.080075" lon="11.11083"><ele>881.0</ele><time>2026-04-25T14:32:59.875Z</time></trkpt><trkpt lat="44.080075" lon="11.110955"><ele>884.0</ele><time>2026-04-25T14:33:00.882Z</time></trkpt><trkpt lat="44.0800667" lon="11.11107"><ele>885.5000000000001</ele><time>2026-04-25T14:33:01.888Z</time></trkpt><trkpt lat="44.08004" lon="11.1111817"><ele>887.0</ele><time>2026-04-25T14:33:02.827Z</time></trkpt><trkpt lat="44.08" lon="11.1112767"><ele>888.5</ele><time>2026-04-25T14:33:03.835Z</time></trkpt><trkpt lat="44.0799617" lon="11.1113767"><ele>890.0</ele><time>2026-04-25T14:33:04.841Z</time></trkpt><trkpt lat="44.0799367" lon="11.1114867"><ele>891.5000000000001</ele><time>2026-04-25T14:33:05.848Z</time></trkpt><trkpt lat="44.07993" lon="11.11161"><ele>893.0</ele><time>2026-04-25T14:33:06.855Z</time></trkpt><trkpt lat="44.0799333" lon="11.11174"><ele>885.8</ele><time>2026-04-25T14:33:07.861Z</time></trkpt><trkpt lat="44.07993" lon="11.1118617"><ele>878.5999999999999</ele><time>2026-04-25T14:33:08.868Z</time></trkpt><trkpt lat="44.0799117" lon="11.11198"><ele>871.4000000000001</ele><time>2026-04-25T14:33:09.874Z</time></trkpt><trkpt lat="44.07989" lon="11.1120933"><ele>864.2</ele><time>2026-04-25T14:33:10.881Z</time></trkpt><trkpt lat="44.07986" lon="11.11223"><ele>857.0</ele><time>2026-04-25T14:33:11.821Z</time></trkpt><trkpt lat="44.0798283" lon="11.11236"><ele>861.1666666666667</ele><time>2026-04-25T14:33:12.827Z</time></trkpt><trkpt lat="44.0797967" lon="11.1124733"><ele>865.3333333333334</ele><time>2026-04-25T14:33:13.834Z</time></trkpt><trkpt lat="44.0797617" lon="11.11258"><ele>869.5</ele><time>2026-04-25T14:33:14.841Z</time></trkpt><trkpt lat="44.0797133" lon="11.112665"><ele>873.6666666666667</ele><time>2026-04-25T14:33:15.847Z</time></trkpt><trkpt lat="44.0796533" lon="11.112745"><ele>877.8333333333334</ele><time>2026-04-25T14:33:16.854Z</time></trkpt><trkpt lat="44.0795683" lon="11.11281"><ele>882.0</ele><time>2026-04-25T14:33:17.861Z</time></trkpt><trkpt lat="44.0794767" lon="11.11283"><ele>882.0</ele><time>2026-04-25T14:33:18.867Z</time></trkpt><trkpt lat="44.0793817" lon="11.1128533"><ele>882.0</ele><time>2026-04-25T14:33:19.873Z</time></trkpt><trkpt lat="44.079285" lon="11.1128867"><ele>882.0</ele><time>2026-04-25T14:33:20.88Z</time></trkpt><trkpt lat="44.0791933" lon="11.112915"><ele>882.0</ele><time>2026-04-25T14:33:21.82Z</time></trkpt><trkpt lat="44.0790967" lon="11.1129367"><ele>882.0</ele><time>2026-04-25T14:33:22.826Z</time></trkpt><trkpt lat="44.0789967" lon="11.1129333"><ele>874.75</ele><time>2026-04-25T14:33:23.833Z</time></trkpt><trkpt lat="44.0788983" lon="11.1129183"><ele>867.5</ele><time>2026-04-25T14:33:24.84Z</time></trkpt><trkpt lat="44.078785" lon="11.1129333"><ele>860.25</ele><time>2026-04-25T14:33:25.847Z</time></trkpt><trkpt lat="44.07866" lon="11.1129467"><ele>853.0</ele><time>2026-04-25T14:33:26.853Z</time></trkpt><trkpt lat="44.0785467" lon="11.1129883"><ele>852.9999999999999</ele><time>2026-04-25T14:33:27.86Z</time></trkpt><trkpt lat="44.078445" lon="11.1130267"><ele>853.0</ele><time>2026-04-25T14:33:28.866Z</time></trkpt><trkpt lat="44.0783583" lon="11.1130567"><ele>853.0</ele><time>2026-04-25T14:33:29.873Z</time></trkpt><trkpt lat="44.0782833" lon="11.1130967"><ele>853.0</ele><time>2026-04-25T14:33:30.88Z</time></trkpt><trkpt lat="44.0782167" lon="11.1131433"><ele>852.9999999999999</ele><time>2026-04-25T14:33:31.819Z</time></trkpt><trkpt lat="44.0781583" lon="11.1132233"><ele>853.0</ele><time>2026-04-25T14:33:32.826Z</time></trkpt><trkpt lat="44.0781017" lon="11.1133267"><ele>855.3333333333333</ele><time>2026-04-25T14:33:33.833Z</time></trkpt><trkpt lat="44.0780533" lon="11.113435"><ele>857.6666666666666</ele><time>2026-04-25T14:33:34.839Z</time></trkpt><trkpt lat="44.078" lon="11.11354"><ele>860.0</ele><time>2026-04-25T14:33:35.913Z</time></trkpt><trkpt lat="44.0779517" lon="11.11364"><ele>862.3333333333333</ele><time>2026-04-25T14:33:36.852Z</time></trkpt><trkpt lat="44.0779" lon="11.113735"><ele>864.6666666666666</ele><time>2026-04-25T14:33:37.858Z</time></trkpt><trkpt lat="44.0778367" lon="11.1138233"><ele>867.0</ele><time>2026-04-25T14:33:38.866Z</time></trkpt><trkpt lat="44.077765" lon="11.1139033"><ele>867.0</ele><time>2026-04-25T14:33:39.872Z</time></trkpt><trkpt lat="44.0776933" lon="11.1139733"><ele>867.0</ele><time>2026-04-25T14:33:40.878Z</time></trkpt><trkpt lat="44.0776167" lon="11.11403"><ele>867.0</ele><time>2026-04-25T14:33:41.818Z</time></trkpt><trkpt lat="44.07754" lon="11.11406"><ele>867.0</ele><time>2026-04-25T14:33:42.825Z</time></trkpt><trkpt lat="44.0774567" lon="11.1140483"><ele>867.0</ele><time>2026-04-25T14:33:43.831Z</time></trkpt><trkpt lat="44.0773767" lon="11.114025"><ele>867.0</ele><time>2026-04-25T14:33:44.905Z</time></trkpt><trkpt lat="44.0772983" lon="11.1140117"><ele>866.2</ele><time>2026-04-25T14:33:45.912Z</time></trkpt><trkpt lat="44.07721" lon="11.1140183"><ele>865.4000000000001</ele><time>2026-04-25T14:33:46.852Z</time></trkpt><trkpt lat="44.0771217" lon="11.1140467"><ele>864.5999999999999</ele><time>2026-04-25T14:33:47.858Z</time></trkpt><trkpt lat="44.0770283" lon="11.1140633"><ele>863.8</ele><time>2026-04-25T14:33:48.865Z</time></trkpt><trkpt lat="44.0769383" lon="11.1140533"><ele>863.0</ele><time>2026-04-25T14:33:49.872Z</time></trkpt><trkpt lat="44.07685" lon="11.11403"><ele>863.0000000000001</ele><time>2026-04-25T14:33:50.877Z</time></trkpt><trkpt lat="44.0767683" lon="11.1139867"><ele>863.0</ele><time>2026-04-25T14:33:51.818Z</time></trkpt><trkpt lat="44.0766867" lon="11.1139233"><ele>863.0</ele><time>2026-04-25T14:33:52.891Z</time></trkpt><trkpt lat="44.0766033" lon="11.11388"><ele>863.0</ele><time>2026-04-25T14:33:53.898Z</time></trkpt><trkpt lat="44.07652" lon="11.1138617"><ele>863.0000000000001</ele><time>2026-04-25T14:33:54.905Z</time></trkpt><trkpt lat="44.0764267" lon="11.1138617"><ele>863.0</ele><time>2026-04-25T14:33:55.844Z</time></trkpt><trkpt lat="44.0763317" lon="11.1138917"><ele>861.2</ele><time>2026-04-25T14:33:56.851Z</time></trkpt><trkpt lat="44.0762283" lon="11.1139283"><ele>859.4</ele><time>2026-04-25T14:33:57.857Z</time></trkpt><trkpt lat="44.0761267" lon="11.1139633"><ele>857.6000000000001</ele><time>2026-04-25T14:33:58.864Z</time></trkpt><trkpt lat="44.0760133" lon="11.113995"><ele>855.8000000000001</ele><time>2026-04-25T14:33:59.87Z</time></trkpt><trkpt lat="44.0759033" lon="11.1140217"><ele>854.0</ele><time>2026-04-25T14:34:00.877Z</time></trkpt><trkpt lat="44.0757617" lon="11.114055"><ele>856.75</ele><time>2026-04-25T14:34:01.884Z</time></trkpt><trkpt lat="44.0756017" lon="11.1141183"><ele>859.5</ele><time>2026-04-25T14:34:02.891Z</time></trkpt><trkpt lat="44.075455" lon="11.1141783"><ele>862.25</ele><time>2026-04-25T14:34:03.897Z</time></trkpt><trkpt lat="44.0753283" lon="11.11422"><ele>865.0</ele><time>2026-04-25T14:34:04.903Z</time></trkpt><trkpt lat="44.0752267" lon="11.114255"><ele>865.0</ele><time>2026-04-25T14:34:05.843Z</time></trkpt><trkpt lat="44.07514" lon="11.1142817"><ele>865.0</ele><time>2026-04-25T14:34:06.85Z</time></trkpt><trkpt lat="44.0750533" lon="11.1142833"><ele>865.0</ele><time>2026-04-25T14:34:07.857Z</time></trkpt><trkpt lat="44.0749733" lon="11.1142533"><ele>865.0</ele><time>2026-04-25T14:34:08.863Z</time></trkpt><trkpt lat="44.0748833" lon="11.1142083"><ele>865.0</ele><time>2026-04-25T14:34:09.869Z</time></trkpt><trkpt lat="44.074785" lon="11.1141633"><ele>862.6</ele><time>2026-04-25T14:34:10.877Z</time></trkpt><trkpt lat="44.0746883" lon="11.114115"><ele>860.2</ele><time>2026-04-25T14:34:11.883Z</time></trkpt><trkpt lat="44.0745867" lon="11.1140717"><ele>857.8</ele><time>2026-04-25T14:34:12.89Z</time></trkpt><trkpt lat="44.0744933" lon="11.1140417"><ele>855.4</ele><time>2026-04-25T14:34:13.896Z</time></trkpt><trkpt lat="44.0744067" lon="11.1140117"><ele>853.0</ele><time>2026-04-25T14:34:14.903Z</time></trkpt><trkpt lat="44.0743233" lon="11.1139983"><ele>847.4</ele><time>2026-04-25T14:34:15.843Z</time></trkpt><trkpt lat="44.0742367" lon="11.1140017"><ele>841.8</ele><time>2026-04-25T14:34:16.849Z</time></trkpt><trkpt lat="44.07415" lon="11.1140233"><ele>836.2</ele><time>2026-04-25T14:34:17.855Z</time></trkpt><trkpt lat="44.074075" lon="11.1141117"><ele>830.6</ele><time>2026-04-25T14:34:18.862Z</time></trkpt><trkpt lat="44.0740017" lon="11.1142317"><ele>825.0</ele><time>2026-04-25T14:34:19.869Z</time></trkpt><trkpt lat="44.07393" lon="11.1143667"><ele>823.5</ele><time>2026-04-25T14:34:20.875Z</time></trkpt><trkpt lat="44.0738567" lon="11.1144983"><ele>822.0</ele><time>2026-04-25T14:34:21.882Z</time></trkpt><trkpt lat="44.0737717" lon="11.1146517"><ele>820.5</ele><time>2026-04-25T14:34:22.889Z</time></trkpt><trkpt lat="44.0736883" lon="11.1148267"><ele>819.0</ele><time>2026-04-25T14:34:23.896Z</time></trkpt><trkpt lat="44.0736" lon="11.11499"><ele>815.0</ele><time>2026-04-25T14:34:24.902Z</time></trkpt><trkpt lat="44.0734983" lon="11.1151383"><ele>811.0</ele><time>2026-04-25T14:34:25.842Z</time></trkpt><trkpt lat="44.0733767" lon="11.1152833"><ele>807.0</ele><time>2026-04-25T14:34:26.849Z</time></trkpt><trkpt lat="44.07325" lon="11.11542"><ele>807.0</ele><time>2026-04-25T14:34:27.855Z</time></trkpt><trkpt lat="44.07312" lon="11.11556"><ele>807.0</ele><time>2026-04-25T14:34:28.861Z</time></trkpt><trkpt lat="44.07299" lon="11.115705"><ele>807.0</ele><time>2026-04-25T14:34:29.868Z</time></trkpt><trkpt lat="44.072865" lon="11.1158417"><ele>811.5</ele><time>2026-04-25T14:34:30.875Z</time></trkpt><trkpt lat="44.0727383" lon="11.115955"><ele>816.0</ele><time>2026-04-25T14:34:31.881Z</time></trkpt><trkpt lat="44.0726217" lon="11.11604"><ele>820.5</ele><time>2026-04-25T14:34:32.888Z</time></trkpt><trkpt lat="44.0725083" lon="11.1161233"><ele>825.0</ele><time>2026-04-25T14:34:33.894Z</time></trkpt><trkpt lat="44.072405" lon="11.11619"><ele>825.0</ele><time>2026-04-25T14:34:34.902Z</time></trkpt><trkpt lat="44.072305" lon="11.11624"><ele>825.0</ele><time>2026-04-25T14:34:35.84Z</time></trkpt><trkpt lat="44.0722117" lon="11.1162733"><ele>825.0</ele><time>2026-04-25T14:34:36.848Z</time></trkpt><trkpt lat="44.0721233" lon="11.1162933"><ele>825.0</ele><time>2026-04-25T14:34:37.853Z</time></trkpt><trkpt lat="44.0720283" lon="11.1162967"><ele>825.0</ele><time>2026-04-25T14:34:38.861Z</time></trkpt><trkpt lat="44.0719283" lon="11.1163117"><ele>825.0</ele><time>2026-04-25T14:34:39.868Z</time></trkpt><trkpt lat="44.0718167" lon="11.11633"><ele>825.0</ele><time>2026-04-25T14:34:40.874Z</time></trkpt><trkpt lat="44.0716983" lon="11.1163583"><ele>825.0</ele><time>2026-04-25T14:34:41.88Z</time></trkpt><trkpt lat="44.0715817" lon="11.116395"><ele>825.0</ele><time>2026-04-25T14:34:42.888Z</time></trkpt><trkpt lat="44.0714717" lon="11.1164233"><ele>823.8</ele><time>2026-04-25T14:34:43.893Z</time></trkpt><trkpt lat="44.071365" lon="11.1164467"><ele>822.6</ele><time>2026-04-25T14:34:44.834Z</time></trkpt><trkpt lat="44.07126" lon="11.1164533"><ele>821.4000000000001</ele><time>2026-04-25T14:34:45.84Z</time></trkpt><trkpt lat="44.07115" lon="11.1164517"><ele>820.2</ele><time>2026-04-25T14:34:46.847Z</time></trkpt><trkpt lat="44.071035" lon="11.11644"><ele>819.0</ele><time>2026-04-25T14:34:47.854Z</time></trkpt><trkpt lat="44.070915" lon="11.1164267"><ele>819.0</ele><time>2026-04-25T14:34:48.86Z</time></trkpt><trkpt lat="44.07078" lon="11.1164383"><ele>819.0</ele><time>2026-04-25T14:34:49.867Z</time></trkpt><trkpt lat="44.0706483" lon="11.1164967"><ele>819.0</ele><time>2026-04-25T14:34:50.873Z</time></trkpt><trkpt lat="44.0705183" lon="11.1165767"><ele>819.0</ele><time>2026-04-25T14:34:51.88Z</time></trkpt><trkpt lat="44.0703933" lon="11.1166783"><ele>814.5</ele><time>2026-04-25T14:34:52.886Z</time></trkpt><trkpt lat="44.0702817" lon="11.1167867"><ele>810.0</ele><time>2026-04-25T14:34:53.893Z</time></trkpt><trkpt lat="44.0701867" lon="11.1169017"><ele>805.5</ele><time>2026-04-25T14:34:54.833Z</time></trkpt><trkpt lat="44.07011" lon="11.1170217"><ele>801.0</ele><time>2026-04-25T14:34:55.839Z</time></trkpt><trkpt lat="44.0700467" lon="11.1171733"><ele>801.0</ele><time>2026-04-25T14:34:56.846Z</time></trkpt><trkpt lat="44.07" lon="11.117345"><ele>801.0</ele><time>2026-04-25T14:34:57.853Z</time></trkpt><trkpt lat="44.0699633" lon="11.11751"><ele>801.0</ele><time>2026-04-25T14:34:58.859Z</time></trkpt><trkpt lat="44.0699217" lon="11.1176667"><ele>801.0</ele><time>2026-04-25T14:34:59.865Z</time></trkpt><trkpt lat="44.06987" lon="11.1177967"><ele>800.4</ele><time>2026-04-25T14:35:00.873Z</time></trkpt><trkpt lat="44.0698183" lon="11.1179033"><ele>799.8</ele><time>2026-04-25T14:35:01.879Z</time></trkpt><trkpt lat="44.0697767" lon="11.1180133"><ele>799.1999999999999</ele><time>2026-04-25T14:35:02.886Z</time></trkpt><trkpt lat="44.0697433" lon="11.1181383"><ele>798.5999999999999</ele><time>2026-04-25T14:35:03.893Z</time></trkpt><trkpt lat="44.0697167" lon="11.118295"><ele>798.0</ele><time>2026-04-25T14:35:04.831Z</time></trkpt><trkpt lat="44.0697033" lon="11.11845"><ele>799.2</ele><time>2026-04-25T14:35:05.838Z</time></trkpt><trkpt lat="44.0696917" lon="11.118605"><ele>800.4</ele><time>2026-04-25T14:35:06.845Z</time></trkpt><trkpt lat="44.069685" lon="11.1187517"><ele>801.6</ele><time>2026-04-25T14:35:07.852Z</time></trkpt><trkpt lat="44.06968" lon="11.1188817"><ele>802.8000000000001</ele><time>2026-04-25T14:35:08.859Z</time></trkpt><trkpt lat="44.0696817" lon="11.1189983"><ele>804.0</ele><time>2026-04-25T14:35:09.865Z</time></trkpt><trkpt lat="44.0697" lon="11.119115"><ele>803.0</ele><time>2026-04-25T14:35:10.872Z</time></trkpt><trkpt lat="44.0697417" lon="11.1191867"><ele>802.0</ele><time>2026-04-25T14:35:11.878Z</time></trkpt><trkpt lat="44.0697933" lon="11.11925"><ele>801.0</ele><time>2026-04-25T14:35:12.885Z</time></trkpt><trkpt lat="44.0698483" lon="11.1192983"><ele>800.0</ele><time>2026-04-25T14:35:13.892Z</time></trkpt><trkpt lat="44.069915" lon="11.11932"><ele>799.0</ele><time>2026-04-25T14:35:14.83Z</time></trkpt><trkpt lat="44.0700067" lon="11.1192617"><ele>798.0</ele><time>2026-04-25T14:35:15.838Z</time></trkpt><trkpt lat="44.0700983" lon="11.1191717"><ele>798.0</ele><time>2026-04-25T14:35:16.845Z</time></trkpt><trkpt lat="44.07017" lon="11.1190933"><ele>798.0</ele><time>2026-04-25T14:35:17.851Z</time></trkpt><trkpt lat="44.0702617" lon="11.11905"><ele>798.0</ele><time>2026-04-25T14:35:19.864Z</time></trkpt><trkpt lat="44.0703533" lon="11.11909"><ele>798.0</ele><time>2026-04-25T14:35:21.878Z</time></trkpt><trkpt lat="44.0703083" lon="11.11926"><ele>798.0</ele><time>2026-04-25T14:35:23.824Z</time></trkpt><trkpt lat="44.0702733" lon="11.1193617"><ele>798.0</ele><time>2026-04-25T14:35:24.83Z</time></trkpt><trkpt lat="44.0702317" lon="11.11948"><ele>798.0</ele><time>2026-04-25T14:35:25.837Z</time></trkpt><trkpt lat="44.0701867" lon="11.1196"><ele>798.0</ele><time>2026-04-25T14:35:26.843Z</time></trkpt><trkpt lat="44.0701317" lon="11.11973"><ele>798.0</ele><time>2026-04-25T14:35:27.85Z</time></trkpt><trkpt lat="44.07007" lon="11.119835"><ele>798.0</ele><time>2026-04-25T14:35:28.857Z</time></trkpt><trkpt lat="44.070005" lon="11.1199317"><ele>792.2</ele><time>2026-04-25T14:35:29.864Z</time></trkpt><trkpt lat="44.06994" lon="11.1200183"><ele>786.4</ele><time>2026-04-25T14:35:30.869Z</time></trkpt><trkpt lat="44.06986" lon="11.1201017"><ele>780.6</ele><time>2026-04-25T14:35:31.877Z</time></trkpt><trkpt lat="44.06978" lon="11.1201817"><ele>774.8000000000001</ele><time>2026-04-25T14:35:32.884Z</time></trkpt><trkpt lat="44.0697" lon="11.1202317"><ele>769.0</ele><time>2026-04-25T14:35:33.823Z</time></trkpt><trkpt lat="44.0696183" lon="11.1202517"><ele>769.0</ele><time>2026-04-25T14:35:34.83Z</time></trkpt><trkpt lat="44.0695433" lon="11.12029"><ele>769.0</ele><time>2026-04-25T14:35:35.835Z</time></trkpt><trkpt lat="44.0694667" lon="11.120285"><ele>769.0</ele><time>2026-04-25T14:35:36.843Z</time></trkpt><trkpt lat="44.0693883" lon="11.1202467"><ele>769.0</ele><time>2026-04-25T14:35:37.849Z</time></trkpt><trkpt lat="44.0692983" lon="11.1200767"><ele>769.0</ele><time>2026-04-25T14:35:38.856Z</time></trkpt><trkpt lat="44.0692317" lon="11.119955"><ele>768.6666666666666</ele><time>2026-04-25T14:35:39.863Z</time></trkpt><trkpt lat="44.0691833" lon="11.1198517"><ele>768.3333333333333</ele><time>2026-04-25T14:35:40.87Z</time></trkpt><trkpt lat="44.0691483" lon="11.1197467"><ele>768.0</ele><time>2026-04-25T14:35:41.876Z</time></trkpt><trkpt lat="44.069115" lon="11.1196517"><ele>767.6666666666666</ele><time>2026-04-25T14:35:42.883Z</time></trkpt><trkpt lat="44.0690717" lon="11.1195667"><ele>767.3333333333333</ele><time>2026-04-25T14:35:43.821Z</time></trkpt><trkpt lat="44.069025" lon="11.1194917"><ele>767.0</ele><time>2026-04-25T14:35:44.828Z</time></trkpt><trkpt lat="44.0689667" lon="11.1194317"><ele>767.0</ele><time>2026-04-25T14:35:45.835Z</time></trkpt><trkpt lat="44.0688933" lon="11.1193817"><ele>767.0</ele><time>2026-04-25T14:35:46.842Z</time></trkpt><trkpt lat="44.0688067" lon="11.119345"><ele>767.0</ele><time>2026-04-25T14:35:47.848Z</time></trkpt><trkpt lat="44.0687167" lon="11.11931"><ele>767.0</ele><time>2026-04-25T14:35:48.856Z</time></trkpt><trkpt lat="44.0685783" lon="11.119295"><ele>767.0</ele><time>2026-04-25T14:35:49.862Z</time></trkpt><trkpt lat="44.0683967" lon="11.1193083"><ele>764.3333333333333</ele><time>2026-04-25T14:35:50.869Z</time></trkpt><trkpt lat="44.0682167" lon="11.1193367"><ele>761.6666666666666</ele><time>2026-04-25T14:35:51.875Z</time></trkpt><trkpt lat="44.0680483" lon="11.119365"><ele>759.0</ele><time>2026-04-25T14:35:52.882Z</time></trkpt><trkpt lat="44.067905" lon="11.1193933"><ele>759.0</ele><time>2026-04-25T14:35:53.821Z</time></trkpt><trkpt lat="44.067765" lon="11.1194033"><ele>759.0</ele><time>2026-04-25T14:35:54.828Z</time></trkpt><trkpt lat="44.0676417" lon="11.11943"><ele>759.0</ele><time>2026-04-25T14:35:55.835Z</time></trkpt><trkpt lat="44.0675383" lon="11.1194667"><ele>759.0</ele><time>2026-04-25T14:35:56.841Z</time></trkpt><trkpt lat="44.06744" lon="11.1195217"><ele>751.2</ele><time>2026-04-25T14:35:57.847Z</time></trkpt><trkpt lat="44.0673517" lon="11.119595"><ele>743.4000000000001</ele><time>2026-04-25T14:35:58.855Z</time></trkpt><trkpt lat="44.067265" lon="11.1196817"><ele>735.6</ele><time>2026-04-25T14:35:59.861Z</time></trkpt><trkpt lat="44.06717" lon="11.1197467"><ele>727.8</ele><time>2026-04-25T14:36:00.867Z</time></trkpt><trkpt lat="44.067065" lon="11.11979"><ele>720.0</ele><time>2026-04-25T14:36:01.875Z</time></trkpt><trkpt lat="44.0669517" lon="11.1198617"><ele>719.25</ele><time>2026-04-25T14:36:02.881Z</time></trkpt><trkpt lat="44.0668333" lon="11.1199133"><ele>718.5</ele><time>2026-04-25T14:36:03.82Z</time></trkpt><trkpt lat="44.06671" lon="11.1199333"><ele>717.75</ele><time>2026-04-25T14:36:04.827Z</time></trkpt><trkpt lat="44.066585" lon="11.1199467"><ele>717.0</ele><time>2026-04-25T14:36:05.834Z</time></trkpt><trkpt lat="44.06646" lon="11.1199667"><ele>717.0</ele><time>2026-04-25T14:36:06.907Z</time></trkpt><trkpt lat="44.0663333" lon="11.12001"><ele>717.0</ele><time>2026-04-25T14:36:07.847Z</time></trkpt><trkpt lat="44.0661983" lon="11.1200583"><ele>717.0</ele><time>2026-04-25T14:36:08.853Z</time></trkpt><trkpt lat="44.0660567" lon="11.1201083"><ele>717.0</ele><time>2026-04-25T14:36:09.861Z</time></trkpt><trkpt lat="44.065915" lon="11.120155"><ele>715.25</ele><time>2026-04-25T14:36:10.866Z</time></trkpt><trkpt lat="44.06577" lon="11.120195"><ele>713.5</ele><time>2026-04-25T14:36:11.874Z</time></trkpt><trkpt lat="44.0656217" lon="11.1202283"><ele>711.75</ele><time>2026-04-25T14:36:12.813Z</time></trkpt><trkpt lat="44.06548" lon="11.1202583"><ele>710.0</ele><time>2026-04-25T14:36:13.82Z</time></trkpt><trkpt lat="44.0653467" lon="11.120305"><ele>710.0</ele><time>2026-04-25T14:36:14.827Z</time></trkpt><trkpt lat="44.06521" lon="11.1203633"><ele>710.0</ele><time>2026-04-25T14:36:15.9Z</time></trkpt><trkpt lat="44.0650733" lon="11.1204383"><ele>710.0</ele><time>2026-04-25T14:36:16.907Z</time></trkpt><trkpt lat="44.0649517" lon="11.12052"><ele>710.0</ele><time>2026-04-25T14:36:17.847Z</time></trkpt><trkpt lat="44.0648417" lon="11.120605"><ele>712.2</ele><time>2026-04-25T14:36:18.853Z</time></trkpt><trkpt lat="44.064745" lon="11.1206717"><ele>714.4</ele><time>2026-04-25T14:36:19.859Z</time></trkpt><trkpt lat="44.0646533" lon="11.12072"><ele>716.5999999999999</ele><time>2026-04-25T14:36:20.866Z</time></trkpt><trkpt lat="44.0645567" lon="11.120755"><ele>718.8</ele><time>2026-04-25T14:36:21.873Z</time></trkpt><trkpt lat="44.0644517" lon="11.1207883"><ele>721.0</ele><time>2026-04-25T14:36:22.813Z</time></trkpt><trkpt lat="44.0643417" lon="11.1208217"><ele>721.0</ele><time>2026-04-25T14:36:23.886Z</time></trkpt><trkpt lat="44.0642317" lon="11.1208567"><ele>721.0</ele><time>2026-04-25T14:36:24.893Z</time></trkpt><trkpt lat="44.0641133" lon="11.1208883"><ele>721.0</ele><time>2026-04-25T14:36:25.9Z</time></trkpt><trkpt lat="44.0639933" lon="11.1209183"><ele>721.0</ele><time>2026-04-25T14:36:26.906Z</time></trkpt><trkpt lat="44.0638733" lon="11.1209483"><ele>715.0</ele><time>2026-04-25T14:36:27.845Z</time></trkpt><trkpt lat="44.0637583" lon="11.12097"><ele>709.0</ele><time>2026-04-25T14:36:28.852Z</time></trkpt><trkpt lat="44.0636483" lon="11.1209883"><ele>703.0</ele><time>2026-04-25T14:36:29.859Z</time></trkpt><trkpt lat="44.063535" lon="11.1209917"><ele>697.0</ele><time>2026-04-25T14:36:30.865Z</time></trkpt><trkpt lat="44.063425" lon="11.1210017"><ele>697.0</ele><time>2026-04-25T14:36:31.872Z</time></trkpt><trkpt lat="44.0633067" lon="11.1210083"><ele>697.0</ele><time>2026-04-25T14:36:32.879Z</time></trkpt><trkpt lat="44.063185" lon="11.1210217"><ele>697.0</ele><time>2026-04-25T14:36:33.886Z</time></trkpt><trkpt lat="44.06306" lon="11.1210517"><ele>697.0</ele><time>2026-04-25T14:36:34.892Z</time></trkpt><trkpt lat="44.0629417" lon="11.1211017"><ele>694.5</ele><time>2026-04-25T14:36:35.899Z</time></trkpt><trkpt lat="44.0628117" lon="11.12113"><ele>692.0</ele><time>2026-04-25T14:36:36.906Z</time></trkpt><trkpt lat="44.0626883" lon="11.1211517"><ele>689.5</ele><time>2026-04-25T14:36:37.845Z</time></trkpt><trkpt lat="44.0625633" lon="11.1211567"><ele>687.0</ele><time>2026-04-25T14:36:38.851Z</time></trkpt><trkpt lat="44.0624533" lon="11.1211433"><ele>684.0</ele><time>2026-04-25T14:36:39.858Z</time></trkpt><trkpt lat="44.062355" lon="11.1211167"><ele>681.0</ele><time>2026-04-25T14:36:40.865Z</time></trkpt><trkpt lat="44.0622683" lon="11.1210933"><ele>678.0</ele><time>2026-04-25T14:36:41.872Z</time></trkpt><trkpt lat="44.062185" lon="11.1211017"><ele>675.0</ele><time>2026-04-25T14:36:42.878Z</time></trkpt><trkpt lat="44.0620967" lon="11.1211233"><ele>672.0</ele><time>2026-04-25T14:36:43.884Z</time></trkpt><trkpt lat="44.06201" lon="11.1211683"><ele>672.0</ele><time>2026-04-25T14:36:44.891Z</time></trkpt><trkpt lat="44.0619183" lon="11.1212417"><ele>672.0</ele><time>2026-04-25T14:36:45.898Z</time></trkpt><trkpt lat="44.06182" lon="11.1213367"><ele>672.0</ele><time>2026-04-25T14:36:46.905Z</time></trkpt><trkpt lat="44.06172" lon="11.1214433"><ele>672.0</ele><time>2026-04-25T14:36:47.844Z</time></trkpt><trkpt lat="44.0616133" lon="11.121565"><ele>677.25</ele><time>2026-04-25T14:36:48.851Z</time></trkpt><trkpt lat="44.0615083" lon="11.121695"><ele>682.5</ele><time>2026-04-25T14:36:49.858Z</time></trkpt><trkpt lat="44.0614083" lon="11.1218267"><ele>687.75</ele><time>2026-04-25T14:36:50.863Z</time></trkpt><trkpt lat="44.0613083" lon="11.1219583"><ele>693.0</ele><time>2026-04-25T14:36:51.871Z</time></trkpt><trkpt lat="44.0612017" lon="11.1220717"><ele>693.0</ele><time>2026-04-25T14:36:52.877Z</time></trkpt><trkpt lat="44.0611" lon="11.122195"><ele>693.0</ele><time>2026-04-25T14:36:53.884Z</time></trkpt><trkpt lat="44.061005" lon="11.122325"><ele>693.0</ele><time>2026-04-25T14:36:54.891Z</time></trkpt><trkpt lat="44.060925" lon="11.122465"><ele>693.0</ele><time>2026-04-25T14:36:55.897Z</time></trkpt><trkpt lat="44.0608617" lon="11.1226233"><ele>691.5</ele><time>2026-04-25T14:36:56.837Z</time></trkpt><trkpt lat="44.060795" lon="11.1227683"><ele>690.0</ele><time>2026-04-25T14:36:57.843Z</time></trkpt><trkpt lat="44.060725" lon="11.1229133"><ele>688.5</ele><time>2026-04-25T14:36:58.85Z</time></trkpt><trkpt lat="44.06065" lon="11.1230367"><ele>687.0</ele><time>2026-04-25T14:36:59.857Z</time></trkpt><trkpt lat="44.0605767" lon="11.1231483"><ele>686.8333333333334</ele><time>2026-04-25T14:37:00.862Z</time></trkpt><trkpt lat="44.060505" lon="11.1232517"><ele>686.6666666666666</ele><time>2026-04-25T14:37:01.87Z</time></trkpt><trkpt lat="44.0604567" lon="11.123365"><ele>686.5</ele><time>2026-04-25T14:37:02.876Z</time></trkpt><trkpt lat="44.06043" lon="11.1234883"><ele>686.3333333333333</ele><time>2026-04-25T14:37:03.883Z</time></trkpt><trkpt lat="44.06042" lon="11.1235933"><ele>686.1666666666666</ele><time>2026-04-25T14:37:04.89Z</time></trkpt><trkpt lat="44.0604033" lon="11.1236883"><ele>686.0</ele><time>2026-04-25T14:37:05.897Z</time></trkpt><trkpt lat="44.0603783" lon="11.1237783"><ele>686.0</ele><time>2026-04-25T14:37:06.836Z</time></trkpt><trkpt lat="44.0603017" lon="11.1239"><ele>686.0</ele><time>2026-04-25T14:37:08.849Z</time></trkpt><trkpt lat="44.06024" lon="11.123935"><ele>686.0</ele><time>2026-04-25T14:37:09.855Z</time></trkpt><trkpt lat="44.060165" lon="11.123955"><ele>686.0</ele><time>2026-04-25T14:37:10.862Z</time></trkpt><trkpt lat="44.0600567" lon="11.123935"><ele>686.0</ele><time>2026-04-25T14:37:11.869Z</time></trkpt><trkpt lat="44.059935" lon="11.1238683"><ele>687.1999999999999</ele><time>2026-04-25T14:37:12.876Z</time></trkpt><trkpt lat="44.05982" lon="11.1238167"><ele>688.4</ele><time>2026-04-25T14:37:13.881Z</time></trkpt><trkpt lat="44.0597167" lon="11.1237683"><ele>689.6</ele><time>2026-04-25T14:37:14.888Z</time></trkpt><trkpt lat="44.059625" lon="11.123735"><ele>690.8</ele><time>2026-04-25T14:37:15.895Z</time></trkpt><trkpt lat="44.0595433" lon="11.1237267"><ele>692.0</ele><time>2026-04-25T14:37:16.835Z</time></trkpt><trkpt lat="44.0594633" lon="11.1237333"><ele>692.0</ele><time>2026-04-25T14:37:17.842Z</time></trkpt><trkpt lat="44.0594133" lon="11.123805"><ele>692.0</ele><time>2026-04-25T14:37:18.849Z</time></trkpt><trkpt lat="44.0593767" lon="11.1238933"><ele>692.0</ele><time>2026-04-25T14:37:19.855Z</time></trkpt><trkpt lat="44.059345" lon="11.12399"><ele>692.0</ele><time>2026-04-25T14:37:20.862Z</time></trkpt><trkpt lat="44.0593033" lon="11.1240867"><ele>692.0</ele><time>2026-04-25T14:37:21.868Z</time></trkpt><trkpt lat="44.05925" lon="11.1241817"><ele>692.0</ele><time>2026-04-25T14:37:22.875Z</time></trkpt><trkpt lat="44.0591583" lon="11.124255"><ele>688.25</ele><time>2026-04-25T14:37:23.882Z</time></trkpt><trkpt lat="44.0590583" lon="11.12433"><ele>684.5</ele><time>2026-04-25T14:37:24.888Z</time></trkpt><trkpt lat="44.0589533" lon="11.1244117"><ele>680.75</ele><time>2026-04-25T14:37:25.894Z</time></trkpt><trkpt lat="44.0588467" lon="11.1245067"><ele>677.0</ele><time>2026-04-25T14:37:26.833Z</time></trkpt><trkpt lat="44.058745" lon="11.1246133"><ele>677.0</ele><time>2026-04-25T14:37:27.841Z</time></trkpt><trkpt lat="44.0586533" lon="11.12473"><ele>677.0</ele><time>2026-04-25T14:37:28.848Z</time></trkpt><trkpt lat="44.0585717" lon="11.12484"><ele>677.0</ele><time>2026-04-25T14:37:29.854Z</time></trkpt><trkpt lat="44.0585" lon="11.1249683"><ele>677.0</ele><time>2026-04-25T14:37:30.861Z</time></trkpt><trkpt lat="44.05844" lon="11.1251167"><ele>674.2</ele><time>2026-04-25T14:37:31.867Z</time></trkpt><trkpt lat="44.0583883" lon="11.125255"><ele>671.4000000000001</ele><time>2026-04-25T14:37:32.874Z</time></trkpt><trkpt lat="44.0583333" lon="11.1253883"><ele>668.5999999999999</ele><time>2026-04-25T14:37:33.881Z</time></trkpt><trkpt lat="44.058275" lon="11.1255033"><ele>665.8</ele><time>2026-04-25T14:37:34.888Z</time></trkpt><trkpt lat="44.0582217" lon="11.125615"><ele>663.0</ele><time>2026-04-25T14:37:35.826Z</time></trkpt><trkpt lat="44.058175" lon="11.1257167"><ele>660.6666666666666</ele><time>2026-04-25T14:37:36.834Z</time></trkpt><trkpt lat="44.0581283" lon="11.125805"><ele>658.3333333333334</ele><time>2026-04-25T14:37:37.84Z</time></trkpt><trkpt lat="44.0580767" lon="11.125885"><ele>656.0</ele><time>2026-04-25T14:37:38.847Z</time></trkpt><trkpt lat="44.0580067" lon="11.1259467"><ele>653.6666666666667</ele><time>2026-04-25T14:37:39.854Z</time></trkpt><trkpt lat="44.0579267" lon="11.1259883"><ele>651.3333333333334</ele><time>2026-04-25T14:37:40.86Z</time></trkpt><trkpt lat="44.057845" lon="11.126045"><ele>649.0</ele><time>2026-04-25T14:37:41.867Z</time></trkpt><trkpt lat="44.0577633" lon="11.1261333"><ele>649.0</ele><time>2026-04-25T14:37:42.874Z</time></trkpt><trkpt lat="44.0576967" lon="11.1262417"><ele>649.0</ele><time>2026-04-25T14:37:43.88Z</time></trkpt><trkpt lat="44.0576517" lon="11.1263683"><ele>649.0</ele><time>2026-04-25T14:37:44.887Z</time></trkpt><trkpt lat="44.0576117" lon="11.1264983"><ele>649.0</ele><time>2026-04-25T14:37:45.826Z</time></trkpt><trkpt lat="44.057575" lon="11.1266267"><ele>649.0</ele><time>2026-04-25T14:37:46.833Z</time></trkpt><trkpt lat="44.0575483" lon="11.1267333"><ele>648.5</ele><time>2026-04-25T14:37:47.84Z</time></trkpt><trkpt lat="44.0575233" lon="11.1268333"><ele>648.0</ele><time>2026-04-25T14:37:48.845Z</time></trkpt><trkpt lat="44.0575017" lon="11.1269317"><ele>647.5</ele><time>2026-04-25T14:37:49.852Z</time></trkpt><trkpt lat="44.057485" lon="11.1270233"><ele>647.0</ele><time>2026-04-25T14:37:50.859Z</time></trkpt><trkpt lat="44.0574633" lon="11.1271867"><ele>646.5</ele><time>2026-04-25T14:37:52.872Z</time></trkpt><trkpt lat="44.0574567" lon="11.1272967"><ele>646.0</ele><time>2026-04-25T14:37:53.879Z</time></trkpt><trkpt lat="44.0574917" lon="11.127445"><ele>645.5</ele><time>2026-04-25T14:37:54.886Z</time></trkpt><trkpt lat="44.0575217" lon="11.1275717"><ele>645.0</ele><time>2026-04-25T14:37:55.826Z</time></trkpt><trkpt lat="44.0575367" lon="11.1276767"><ele>644.5</ele><time>2026-04-25T14:37:56.831Z</time></trkpt><trkpt lat="44.0575283" lon="11.1277817"><ele>644.0</ele><time>2026-04-25T14:37:57.839Z</time></trkpt><trkpt lat="44.0575317" lon="11.1278767"><ele>643.5</ele><time>2026-04-25T14:37:58.845Z</time></trkpt><trkpt lat="44.0574967" lon="11.128035"><ele>643.0</ele><time>2026-04-25T14:38:00.859Z</time></trkpt><trkpt lat="44.0574767" lon="11.12812"><ele>641.0</ele><time>2026-04-25T14:38:01.864Z</time></trkpt><trkpt lat="44.057365" lon="11.1281967"><ele>639.0</ele><time>2026-04-25T14:38:03.879Z</time></trkpt><trkpt lat="44.057285" lon="11.1281933"><ele>637.0</ele><time>2026-04-25T14:38:04.884Z</time></trkpt><trkpt lat="44.0572033" lon="11.1281633"><ele>635.0</ele><time>2026-04-25T14:38:05.825Z</time></trkpt><trkpt lat="44.0571283" lon="11.1281167"><ele>633.0</ele><time>2026-04-25T14:38:06.831Z</time></trkpt><trkpt lat="44.05707" lon="11.1280567"><ele>631.0</ele><time>2026-04-25T14:38:07.838Z</time></trkpt><trkpt lat="44.057015" lon="11.1280133"><ele>631.0</ele><time>2026-04-25T14:38:08.845Z</time></trkpt><trkpt lat="44.0569267" lon="11.1279633"><ele>631.0</ele><time>2026-04-25T14:38:10.858Z</time></trkpt><trkpt lat="44.05687" lon="11.1278567"><ele>631.0</ele><time>2026-04-25T14:38:12.871Z</time></trkpt><trkpt lat="44.0568583" lon="11.12772"><ele>631.0</ele><time>2026-04-25T14:38:14.884Z</time></trkpt><trkpt lat="44.05687" lon="11.1276083"><ele>631.0</ele><time>2026-04-25T14:38:15.824Z</time></trkpt><trkpt lat="44.0568817" lon="11.1274917"><ele>628.5</ele><time>2026-04-25T14:38:16.831Z</time></trkpt><trkpt lat="44.0569033" lon="11.1273533"><ele>626.0</ele><time>2026-04-25T14:38:17.836Z</time></trkpt><trkpt lat="44.0569233" lon="11.1271983"><ele>623.5</ele><time>2026-04-25T14:38:18.844Z</time></trkpt><trkpt lat="44.0569517" lon="11.127035"><ele>621.0</ele><time>2026-04-25T14:38:19.85Z</time></trkpt><trkpt lat="44.0569717" lon="11.12686"><ele>621.0</ele><time>2026-04-25T14:38:20.857Z</time></trkpt><trkpt lat="44.05698" lon="11.1266783"><ele>621.0</ele><time>2026-04-25T14:38:21.863Z</time></trkpt><trkpt lat="44.0569783" lon="11.1265033"><ele>621.0</ele><time>2026-04-25T14:38:22.87Z</time></trkpt><trkpt lat="44.05697" lon="11.12633"><ele>621.0</ele><time>2026-04-25T14:38:23.876Z</time></trkpt><trkpt lat="44.0569567" lon="11.1261667"><ele>621.25</ele><time>2026-04-25T14:38:24.817Z</time></trkpt><trkpt lat="44.05694" lon="11.1260033"><ele>621.5</ele><time>2026-04-25T14:38:25.823Z</time></trkpt><trkpt lat="44.05691" lon="11.125835"><ele>621.75</ele><time>2026-04-25T14:38:26.83Z</time></trkpt><trkpt lat="44.0568667" lon="11.12567"><ele>622.0</ele><time>2026-04-25T14:38:27.835Z</time></trkpt><trkpt lat="44.0568067" lon="11.1255183"><ele>624.75</ele><time>2026-04-25T14:38:28.843Z</time></trkpt><trkpt lat="44.0567433" lon="11.1253633"><ele>627.5</ele><time>2026-04-25T14:38:29.85Z</time></trkpt><trkpt lat="44.0566683" lon="11.12522"><ele>630.25</ele><time>2026-04-25T14:38:30.855Z</time></trkpt><trkpt lat="44.056595" lon="11.125085"><ele>633.0</ele><time>2026-04-25T14:38:31.863Z</time></trkpt><trkpt lat="44.0565283" lon="11.1249567"><ele>630.4</ele><time>2026-04-25T14:38:32.87Z</time></trkpt><trkpt lat="44.0564667" lon="11.1248317"><ele>627.8</ele><time>2026-04-25T14:38:33.876Z</time></trkpt><trkpt lat="44.0564133" lon="11.12472"><ele>625.2</ele><time>2026-04-25T14:38:34.816Z</time></trkpt><trkpt lat="44.056365" lon="11.12463"><ele>622.6</ele><time>2026-04-25T14:38:35.822Z</time></trkpt><trkpt lat="44.0563117" lon="11.1245567"><ele>620.0</ele><time>2026-04-25T14:38:36.829Z</time></trkpt><trkpt lat="44.0562033" lon="11.1245783"><ele>620.0</ele><time>2026-04-25T14:38:38.909Z</time></trkpt><trkpt lat="44.0561617" lon="11.1247317"><ele>620.0</ele><time>2026-04-25T14:38:40.856Z</time></trkpt><trkpt lat="44.0561783" lon="11.1248417"><ele>620.0</ele><time>2026-04-25T14:38:41.861Z</time></trkpt><trkpt lat="44.05622" lon="11.1249633"><ele>620.0</ele><time>2026-04-25T14:38:42.869Z</time></trkpt><trkpt lat="44.0562667" lon="11.1250833"><ele>620.0</ele><time>2026-04-25T14:38:43.874Z</time></trkpt><trkpt lat="44.05632" lon="11.1252217"><ele>616.0</ele><time>2026-04-25T14:38:44.815Z</time></trkpt><trkpt lat="44.05638" lon="11.1253733"><ele>612.0</ele><time>2026-04-25T14:38:45.822Z</time></trkpt><trkpt lat="44.0564383" lon="11.1255217"><ele>608.0</ele><time>2026-04-25T14:38:46.895Z</time></trkpt><trkpt lat="44.0564867" lon="11.1256617"><ele>604.0</ele><time>2026-04-25T14:38:47.902Z</time></trkpt><trkpt lat="44.05652" lon="11.1257967"><ele>602.8</ele><time>2026-04-25T14:38:48.909Z</time></trkpt><trkpt lat="44.05653" lon="11.12593"><ele>601.5999999999999</ele><time>2026-04-25T14:38:49.848Z</time></trkpt><trkpt lat="44.05652" lon="11.126055"><ele>600.4</ele><time>2026-04-25T14:38:50.854Z</time></trkpt><trkpt lat="44.0564883" lon="11.1261883"><ele>599.1999999999999</ele><time>2026-04-25T14:38:51.86Z</time></trkpt><trkpt lat="44.0564367" lon="11.1263267"><ele>598.0</ele><time>2026-04-25T14:38:52.868Z</time></trkpt><trkpt lat="44.0563667" lon="11.1264767"><ele>598.0</ele><time>2026-04-25T14:38:53.874Z</time></trkpt><trkpt lat="44.0562833" lon="11.126625"><ele>598.0</ele><time>2026-04-25T14:38:54.881Z</time></trkpt><trkpt lat="44.0561867" lon="11.126765"><ele>598.0</ele><time>2026-04-25T14:38:55.888Z</time></trkpt><trkpt lat="44.05609" lon="11.12691"><ele>598.0</ele><time>2026-04-25T14:38:56.895Z</time></trkpt><trkpt lat="44.0559967" lon="11.1270467"><ele>598.0</ele><time>2026-04-25T14:38:57.9Z</time></trkpt><trkpt lat="44.0559017" lon="11.1271633"><ele>598.0</ele><time>2026-04-25T14:38:58.908Z</time></trkpt><trkpt lat="44.0558117" lon="11.1272733"><ele>598.0</ele><time>2026-04-25T14:38:59.847Z</time></trkpt><trkpt lat="44.05572" lon="11.1273617"><ele>598.0</ele><time>2026-04-25T14:39:00.854Z</time></trkpt><trkpt lat="44.0556317" lon="11.1274433"><ele>593.6</ele><time>2026-04-25T14:39:01.861Z</time></trkpt><trkpt lat="44.055545" lon="11.1275383"><ele>589.1999999999999</ele><time>2026-04-25T14:39:02.867Z</time></trkpt><trkpt lat="44.0554767" lon="11.127655"><ele>584.8</ele><time>2026-04-25T14:39:03.874Z</time></trkpt><trkpt lat="44.0554217" lon="11.12777"><ele>580.4</ele><time>2026-04-25T14:39:04.881Z</time></trkpt><trkpt lat="44.0553767" lon="11.127905"><ele>576.0</ele><time>2026-04-25T14:39:05.886Z</time></trkpt><trkpt lat="44.0553533" lon="11.1280383"><ele>576.0</ele><time>2026-04-25T14:39:06.894Z</time></trkpt><trkpt lat="44.055355" lon="11.1281817"><ele>576.0</ele><time>2026-04-25T14:39:07.899Z</time></trkpt><trkpt lat="44.0553783" lon="11.1283283"><ele>576.0</ele><time>2026-04-25T14:39:08.84Z</time></trkpt><trkpt lat="44.0554333" lon="11.1284733"><ele>576.0</ele><time>2026-04-25T14:39:09.847Z</time></trkpt><trkpt lat="44.05551" lon="11.12862"><ele>576.6</ele><time>2026-04-25T14:39:10.853Z</time></trkpt><trkpt lat="44.0555917" lon="11.1287517"><ele>577.2</ele><time>2026-04-25T14:39:11.859Z</time></trkpt><trkpt lat="44.055655" lon="11.1288667"><ele>577.8</ele><time>2026-04-25T14:39:12.867Z</time></trkpt><trkpt lat="44.0557017" lon="11.1289717"><ele>578.4</ele><time>2026-04-25T14:39:13.872Z</time></trkpt><trkpt lat="44.0557267" lon="11.1290667"><ele>579.0</ele><time>2026-04-25T14:39:14.88Z</time></trkpt><trkpt lat="44.0557433" lon="11.1291517"><ele>579.0</ele><time>2026-04-25T14:39:15.886Z</time></trkpt><trkpt lat="44.055705" lon="11.1292617"><ele>579.0</ele><time>2026-04-25T14:39:17.9Z</time></trkpt><trkpt lat="44.0555983" lon="11.1292567"><ele>579.0</ele><time>2026-04-25T14:39:19.846Z</time></trkpt><trkpt lat="44.0555283" lon="11.1292133"><ele>579.0</ele><time>2026-04-25T14:39:20.852Z</time></trkpt><trkpt lat="44.05541" lon="11.1291183"><ele>579.0</ele><time>2026-04-25T14:39:21.859Z</time></trkpt><trkpt lat="44.0553167" lon="11.1290433"><ele>580.5</ele><time>2026-04-25T14:39:22.866Z</time></trkpt><trkpt lat="44.05524" lon="11.1289567"><ele>582.0</ele><time>2026-04-25T14:39:23.871Z</time></trkpt><trkpt lat="44.05517" lon="11.1288633"><ele>583.5</ele><time>2026-04-25T14:39:24.879Z</time></trkpt><trkpt lat="44.0550983" lon="11.128755"><ele>585.0</ele><time>2026-04-25T14:39:25.886Z</time></trkpt><trkpt lat="44.0550783" lon="11.128545"><ele>585.0</ele><time>2026-04-25T14:39:26.891Z</time></trkpt><trkpt lat="44.05505" lon="11.1283917"><ele>585.0</ele><time>2026-04-25T14:39:27.898Z</time></trkpt><trkpt lat="44.0550467" lon="11.1282417"><ele>585.0</ele><time>2026-04-25T14:39:28.837Z</time></trkpt><trkpt lat="44.0550367" lon="11.128105"><ele>585.0</ele><time>2026-04-25T14:39:29.845Z</time></trkpt><trkpt lat="44.055025" lon="11.128"><ele>585.0</ele><time>2026-04-25T14:39:30.851Z</time></trkpt><trkpt lat="44.0549983" lon="11.1279117"><ele>583.2</ele><time>2026-04-25T14:39:31.858Z</time></trkpt><trkpt lat="44.0549617" lon="11.1278317"><ele>581.4</ele><time>2026-04-25T14:39:32.865Z</time></trkpt><trkpt lat="44.05485" lon="11.1278583"><ele>579.6</ele><time>2026-04-25T14:39:34.878Z</time></trkpt><trkpt lat="44.0548" lon="11.1279767"><ele>577.8</ele><time>2026-04-25T14:39:35.885Z</time></trkpt><trkpt lat="44.05475" lon="11.1281133"><ele>576.0</ele><time>2026-04-25T14:39:36.89Z</time></trkpt><trkpt lat="44.0547083" lon="11.1283033"><ele>571.2</ele><time>2026-04-25T14:39:37.897Z</time></trkpt><trkpt lat="44.054675" lon="11.12849"><ele>566.4000000000001</ele><time>2026-04-25T14:39:38.838Z</time></trkpt><trkpt lat="44.05465" lon="11.1286567"><ele>561.6</ele><time>2026-04-25T14:39:39.843Z</time></trkpt><trkpt lat="44.0546267" lon="11.12879"><ele>556.8000000000001</ele><time>2026-04-25T14:39:40.851Z</time></trkpt><trkpt lat="44.0546167" lon="11.128895"><ele>552.0</ele><time>2026-04-25T14:39:41.858Z</time></trkpt><trkpt lat="44.0546233" lon="11.1289983"><ele>552.6</ele><time>2026-04-25T14:39:42.864Z</time></trkpt><trkpt lat="44.0546517" lon="11.1290767"><ele>553.2</ele><time>2026-04-25T14:39:43.871Z</time></trkpt><trkpt lat="44.0547367" lon="11.1291567"><ele>553.8</ele><time>2026-04-25T14:39:44.877Z</time></trkpt><trkpt lat="44.0548217" lon="11.1292283"><ele>554.4</ele><time>2026-04-25T14:39:45.883Z</time></trkpt><trkpt lat="44.054935" lon="11.129255"><ele>555.0</ele><time>2026-04-25T14:39:46.89Z</time></trkpt><trkpt lat="44.05502" lon="11.1292867"><ele>559.0</ele><time>2026-04-25T14:39:47.897Z</time></trkpt><trkpt lat="44.05509" lon="11.1293183"><ele>563.0</ele><time>2026-04-25T14:39:48.836Z</time></trkpt><trkpt lat="44.0551483" lon="11.1293633"><ele>567.0</ele><time>2026-04-25T14:39:49.842Z</time></trkpt><trkpt lat="44.0551817" lon="11.12949"><ele>571.0</ele><time>2026-04-25T14:39:51.857Z</time></trkpt><trkpt lat="44.055165" lon="11.12958"><ele>575.0</ele><time>2026-04-25T14:39:52.863Z</time></trkpt><trkpt lat="44.055085" lon="11.1295933"><ele>579.0</ele><time>2026-04-25T14:39:53.87Z</time></trkpt><trkpt lat="44.0550033" lon="11.1295933"><ele>573.0</ele><time>2026-04-25T14:39:54.877Z</time></trkpt><trkpt lat="44.0548733" lon="11.12955"><ele>567.0</ele><time>2026-04-25T14:39:55.882Z</time></trkpt><trkpt lat="44.054745" lon="11.129505"><ele>561.0</ele><time>2026-04-25T14:39:56.89Z</time></trkpt><trkpt lat="44.0546233" lon="11.129465"><ele>555.0</ele><time>2026-04-25T14:39:57.829Z</time></trkpt><trkpt lat="44.054505" lon="11.1294167"><ele>555.0</ele><time>2026-04-25T14:39:58.835Z</time></trkpt><trkpt lat="44.0543867" lon="11.1293667"><ele>555.0</ele><time>2026-04-25T14:39:59.842Z</time></trkpt><trkpt lat="44.0542783" lon="11.1293133"><ele>555.0</ele><time>2026-04-25T14:40:00.849Z</time></trkpt><trkpt lat="44.0542" lon="11.1292483"><ele>555.0</ele><time>2026-04-25T14:40:01.856Z</time></trkpt><trkpt lat="44.0541367" lon="11.1291633"><ele>555.0</ele><time>2026-04-25T14:40:02.863Z</time></trkpt><trkpt lat="44.0540883" lon="11.1290583"><ele>546.6</ele><time>2026-04-25T14:40:03.869Z</time></trkpt><trkpt lat="44.054075" lon="11.1289183"><ele>538.2</ele><time>2026-04-25T14:40:04.876Z</time></trkpt><trkpt lat="44.0540633" lon="11.1287717"><ele>529.8</ele><time>2026-04-25T14:40:05.883Z</time></trkpt><trkpt lat="44.0540717" lon="11.1286233"><ele>521.4</ele><time>2026-04-25T14:40:06.889Z</time></trkpt><trkpt lat="44.054085" lon="11.12848"><ele>513.0</ele><time>2026-04-25T14:40:07.829Z</time></trkpt><trkpt lat="44.05411" lon="11.12835"><ele>511.6666666666667</ele><time>2026-04-25T14:40:08.835Z</time></trkpt><trkpt lat="44.0541433" lon="11.1282317"><ele>510.33333333333337</ele><time>2026-04-25T14:40:09.841Z</time></trkpt><trkpt lat="44.054175" lon="11.1281283"><ele>509.0</ele><time>2026-04-25T14:40:10.849Z</time></trkpt><trkpt lat="44.0541967" lon="11.1280433"><ele>507.6666666666667</ele><time>2026-04-25T14:40:11.854Z</time></trkpt><trkpt lat="44.054195" lon="11.1279033"><ele>506.33333333333337</ele><time>2026-04-25T14:40:13.867Z</time></trkpt><trkpt lat="44.05412" lon="11.1278533"><ele>505.0</ele><time>2026-04-25T14:40:15.881Z</time></trkpt><trkpt lat="44.0540517" lon="11.1279267"><ele>505.0</ele><time>2026-04-25T14:40:16.887Z</time></trkpt><trkpt lat="44.0539917" lon="11.1280067"><ele>505.0</ele><time>2026-04-25T14:40:17.828Z</time></trkpt><trkpt lat="44.05393" lon="11.1281117"><ele>505.0</ele><time>2026-04-25T14:40:18.834Z</time></trkpt><trkpt lat="44.053875" lon="11.1282417"><ele>505.0</ele><time>2026-04-25T14:40:19.841Z</time></trkpt><trkpt lat="44.053825" lon="11.1284233"><ele>505.0</ele><time>2026-04-25T14:40:20.848Z</time></trkpt><trkpt lat="44.05379" lon="11.1286133"><ele>507.0</ele><time>2026-04-25T14:40:21.853Z</time></trkpt><trkpt lat="44.0537517" lon="11.128805"><ele>509.0</ele><time>2026-04-25T14:40:22.86Z</time></trkpt><trkpt lat="44.05372" lon="11.1289917"><ele>511.0</ele><time>2026-04-25T14:40:23.868Z</time></trkpt><trkpt lat="44.0536917" lon="11.1291533"><ele>513.0</ele><time>2026-04-25T14:40:24.873Z</time></trkpt><trkpt lat="44.05367" lon="11.1293"><ele>513.8333333333334</ele><time>2026-04-25T14:40:25.881Z</time></trkpt><trkpt lat="44.053665" lon="11.1294283"><ele>514.6666666666666</ele><time>2026-04-25T14:40:26.888Z</time></trkpt><trkpt lat="44.053675" lon="11.1295317"><ele>515.5</ele><time>2026-04-25T14:40:27.826Z</time></trkpt><trkpt lat="44.0537" lon="11.1296233"><ele>516.3333333333333</ele><time>2026-04-25T14:40:28.834Z</time></trkpt><trkpt lat="44.053745" lon="11.1297"><ele>517.1666666666666</ele><time>2026-04-25T14:40:29.84Z</time></trkpt><trkpt lat="44.0538167" lon="11.1297733"><ele>518.0</ele><time>2026-04-25T14:40:30.847Z</time></trkpt><trkpt lat="44.0539083" lon="11.129825"><ele>518.0</ele><time>2026-04-25T14:40:31.854Z</time></trkpt><trkpt lat="44.0540333" lon="11.12986"><ele>518.0</ele><time>2026-04-25T14:40:32.86Z</time></trkpt><trkpt lat="44.0541417" lon="11.1299033"><ele>518.0</ele><time>2026-04-25T14:40:33.866Z</time></trkpt><trkpt lat="44.0542483" lon="11.1299433"><ele>518.0</ele><time>2026-04-25T14:40:34.874Z</time></trkpt><trkpt lat="44.0543483" lon="11.1299767"><ele>520.6666666666666</ele><time>2026-04-25T14:40:35.88Z</time></trkpt><trkpt lat="44.0544367" lon="11.1300017"><ele>523.3333333333333</ele><time>2026-04-25T14:40:36.887Z</time></trkpt><trkpt lat="44.054505" lon="11.1300433"><ele>526.0</ele><time>2026-04-25T14:40:37.825Z</time></trkpt><trkpt lat="44.0545633" lon="11.1300867"><ele>528.6666666666666</ele><time>2026-04-25T14:40:38.833Z</time></trkpt><trkpt lat="44.05463" lon="11.1301917"><ele>531.3333333333334</ele><time>2026-04-25T14:40:40.846Z</time></trkpt><trkpt lat="44.05459" lon="11.1303067"><ele>534.0</ele><time>2026-04-25T14:40:42.859Z</time></trkpt><trkpt lat="44.0544767" lon="11.1303633"><ele>534.0</ele><time>2026-04-25T14:40:44.873Z</time></trkpt><trkpt lat="44.0541767" lon="11.1301683"><ele>534.0</ele><time>2026-04-25T14:40:45.878Z</time></trkpt><trkpt lat="44.054025" lon="11.1301283"><ele>529.0</ele><time>2026-04-25T14:40:46.819Z</time></trkpt><trkpt lat="44.0538867" lon="11.1301083"><ele>524.0</ele><time>2026-04-25T14:40:47.825Z</time></trkpt><trkpt lat="44.0537733" lon="11.1301067"><ele>519.0</ele><time>2026-04-25T14:40:48.832Z</time></trkpt><trkpt lat="44.0536783" lon="11.1301"><ele>514.0</ele><time>2026-04-25T14:40:49.839Z</time></trkpt><trkpt lat="44.0535967" lon="11.1300767"><ele>509.0</ele><time>2026-04-25T14:40:50.845Z</time></trkpt><trkpt lat="44.0535283" lon="11.1300433"><ele>509.0</ele><time>2026-04-25T14:40:51.851Z</time></trkpt><trkpt lat="44.0534733" lon="11.1299667"><ele>509.0</ele><time>2026-04-25T14:40:52.859Z</time></trkpt><trkpt lat="44.05341" lon="11.1298867"><ele>509.0</ele><time>2026-04-25T14:40:53.865Z</time></trkpt><trkpt lat="44.0533483" lon="11.1297717"><ele>509.0</ele><time>2026-04-25T14:40:54.872Z</time></trkpt><trkpt lat="44.0532817" lon="11.129575"><ele>509.0</ele><time>2026-04-25T14:40:55.879Z</time></trkpt><trkpt lat="44.053215" lon="11.1294033"><ele>498.0</ele><time>2026-04-25T14:40:56.818Z</time></trkpt><trkpt lat="44.0531583" lon="11.1292517"><ele>487.0</ele><time>2026-04-25T14:40:57.825Z</time></trkpt><trkpt lat="44.0531217" lon="11.1291017"><ele>476.0</ele><time>2026-04-25T14:40:58.831Z</time></trkpt><trkpt lat="44.0531033" lon="11.1289283"><ele>465.0</ele><time>2026-04-25T14:40:59.838Z</time></trkpt><trkpt lat="44.0531033" lon="11.12869"><ele>465.0</ele><time>2026-04-25T14:41:00.911Z</time></trkpt><trkpt lat="44.0531233" lon="11.1284517"><ele>465.0</ele><time>2026-04-25T14:41:01.85Z</time></trkpt><trkpt lat="44.0531283" lon="11.1282233"><ele>465.0</ele><time>2026-04-25T14:41:02.858Z</time></trkpt><trkpt lat="44.0531333" lon="11.1280267"><ele>466.2</ele><time>2026-04-25T14:41:03.864Z</time></trkpt><trkpt lat="44.0531267" lon="11.1278533"><ele>467.4</ele><time>2026-04-25T14:41:04.871Z</time></trkpt><trkpt lat="44.0531067" lon="11.1276933"><ele>468.6</ele><time>2026-04-25T14:41:05.878Z</time></trkpt><trkpt lat="44.053095" lon="11.1275483"><ele>469.8</ele><time>2026-04-25T14:41:06.816Z</time></trkpt><trkpt lat="44.0531033" lon="11.1274067"><ele>471.0</ele><time>2026-04-25T14:41:07.824Z</time></trkpt><trkpt lat="44.05313" lon="11.1272833"><ele>473.0</ele><time>2026-04-25T14:41:08.898Z</time></trkpt><trkpt lat="44.0531833" lon="11.1271783"><ele>475.0</ele><time>2026-04-25T14:41:09.904Z</time></trkpt><trkpt lat="44.0532267" lon="11.1270933"><ele>477.0</ele><time>2026-04-25T14:41:10.91Z</time></trkpt><trkpt lat="44.0532283" lon="11.127"><ele>479.0</ele><time>2026-04-25T14:41:11.851Z</time></trkpt><trkpt lat="44.0531667" lon="11.1269383"><ele>481.0</ele><time>2026-04-25T14:41:12.857Z</time></trkpt><trkpt lat="44.0530633" lon="11.1269433"><ele>483.0</ele><time>2026-04-25T14:41:14.87Z</time></trkpt><trkpt lat="44.0530317" lon="11.1270367"><ele>483.0</ele><time>2026-04-25T14:41:15.876Z</time></trkpt><trkpt lat="44.0530033" lon="11.12714"><ele>483.0</ele><time>2026-04-25T14:41:16.817Z</time></trkpt><trkpt lat="44.0529717" lon="11.1272983"><ele>483.0</ele><time>2026-04-25T14:41:17.89Z</time></trkpt><trkpt lat="44.052945" lon="11.12748"><ele>483.0</ele><time>2026-04-25T14:41:18.897Z</time></trkpt><trkpt lat="44.0529283" lon="11.1276767"><ele>479.0</ele><time>2026-04-25T14:41:19.904Z</time></trkpt><trkpt lat="44.0528983" lon="11.1278967"><ele>475.0</ele><time>2026-04-25T14:41:20.91Z</time></trkpt><trkpt lat="44.0528683" lon="11.1281167"><ele>471.0</ele><time>2026-04-25T14:41:21.85Z</time></trkpt><trkpt lat="44.0528283" lon="11.1283383"><ele>469.5</ele><time>2026-04-25T14:41:22.856Z</time></trkpt><trkpt lat="44.05279" lon="11.128545"><ele>468.0</ele><time>2026-04-25T14:41:23.863Z</time></trkpt><trkpt lat="44.0527567" lon="11.1287283"><ele>466.5</ele><time>2026-04-25T14:41:24.87Z</time></trkpt><trkpt lat="44.05274" lon="11.1289033"><ele>465.0</ele><time>2026-04-25T14:41:25.876Z</time></trkpt><trkpt lat="44.05274" lon="11.129065"><ele>464.6</ele><time>2026-04-25T14:41:26.883Z</time></trkpt><trkpt lat="44.0527633" lon="11.1292283"><ele>464.2</ele><time>2026-04-25T14:41:27.89Z</time></trkpt><trkpt lat="44.0528067" lon="11.129385"><ele>463.79999999999995</ele><time>2026-04-25T14:41:28.895Z</time></trkpt><trkpt lat="44.0528533" lon="11.1295217"><ele>463.4</ele><time>2026-04-25T14:41:29.903Z</time></trkpt><trkpt lat="44.0528833" lon="11.12965"><ele>463.0</ele><time>2026-04-25T14:41:30.842Z</time></trkpt><trkpt lat="44.052895" lon="11.129775"><ele>464.2</ele><time>2026-04-25T14:41:31.849Z</time></trkpt><trkpt lat="44.0528817" lon="11.129895"><ele>465.4</ele><time>2026-04-25T14:41:32.855Z</time></trkpt><trkpt lat="44.05283" lon="11.1300167"><ele>466.59999999999997</ele><time>2026-04-25T14:41:33.862Z</time></trkpt><trkpt lat="44.0527617" lon="11.1301"><ele>467.79999999999995</ele><time>2026-04-25T14:41:34.869Z</time></trkpt><trkpt lat="44.052675" lon="11.1301633"><ele>469.0</ele><time>2026-04-25T14:41:35.875Z</time></trkpt><trkpt lat="44.0525767" lon="11.130215"><ele>469.0</ele><time>2026-04-25T14:41:36.882Z</time></trkpt><trkpt lat="44.0524583" lon="11.13028"><ele>469.0</ele><time>2026-04-25T14:41:37.889Z</time></trkpt><trkpt lat="44.0523467" lon="11.1303617"><ele>469.0</ele><time>2026-04-25T14:41:38.894Z</time></trkpt><trkpt lat="44.0522433" lon="11.1304633"><ele>469.0</ele><time>2026-04-25T14:41:39.901Z</time></trkpt><trkpt lat="44.0521433" lon="11.1305717"><ele>462.5</ele><time>2026-04-25T14:41:40.841Z</time></trkpt><trkpt lat="44.05205" lon="11.1307067"><ele>456.0</ele><time>2026-04-25T14:41:41.847Z</time></trkpt><trkpt lat="44.0519667" lon="11.1308483"><ele>449.5</ele><time>2026-04-25T14:41:42.855Z</time></trkpt><trkpt lat="44.0518933" lon="11.1310017"><ele>443.0</ele><time>2026-04-25T14:41:43.861Z</time></trkpt><trkpt lat="44.0518267" lon="11.131155"><ele>443.0</ele><time>2026-04-25T14:41:44.867Z</time></trkpt><trkpt lat="44.0517617" lon="11.1313033"><ele>443.0</ele><time>2026-04-25T14:41:45.874Z</time></trkpt><trkpt lat="44.0516967" lon="11.13143"><ele>443.0</ele><time>2026-04-25T14:41:46.881Z</time></trkpt><trkpt lat="44.05162" lon="11.1315417"><ele>443.0</ele><time>2026-04-25T14:41:47.888Z</time></trkpt><trkpt lat="44.0515417" lon="11.1316333"><ele>440.4</ele><time>2026-04-25T14:41:48.894Z</time></trkpt><trkpt lat="44.05145" lon="11.1316967"><ele>437.79999999999995</ele><time>2026-04-25T14:41:49.9Z</time></trkpt><trkpt lat="44.051355" lon="11.13175"><ele>435.2</ele><time>2026-04-25T14:41:50.841Z</time></trkpt><trkpt lat="44.05126" lon="11.1318267"><ele>432.6</ele><time>2026-04-25T14:41:51.847Z</time></trkpt><trkpt lat="44.0511583" lon="11.13193"><ele>430.0</ele><time>2026-04-25T14:41:52.854Z</time></trkpt><trkpt lat="44.0510667" lon="11.13203"><ele>430.0</ele><time>2026-04-25T14:41:53.861Z</time></trkpt><trkpt lat="44.0509583" lon="11.132105"><ele>430.0</ele><time>2026-04-25T14:41:54.867Z</time></trkpt><trkpt lat="44.05084" lon="11.1321583"><ele>430.0</ele><time>2026-04-25T14:41:55.874Z</time></trkpt><trkpt lat="44.05073" lon="11.13222"><ele>430.0</ele><time>2026-04-25T14:41:56.881Z</time></trkpt><trkpt lat="44.0506317" lon="11.1322933"><ele>426.4</ele><time>2026-04-25T14:41:57.886Z</time></trkpt><trkpt lat="44.0505433" lon="11.1323633"><ele>422.8</ele><time>2026-04-25T14:41:58.894Z</time></trkpt><trkpt lat="44.0504883" lon="11.1324483"><ele>419.20000000000005</ele><time>2026-04-25T14:41:59.9Z</time></trkpt><trkpt lat="44.050445" lon="11.1325433"><ele>415.6</ele><time>2026-04-25T14:42:00.84Z</time></trkpt><trkpt lat="44.0504317" lon="11.13268"><ele>412.0</ele><time>2026-04-25T14:42:01.847Z</time></trkpt><trkpt lat="44.0504217" lon="11.1328183"><ele>412.0</ele><time>2026-04-25T14:42:02.853Z</time></trkpt><trkpt lat="44.0504033" lon="11.1329733"><ele>412.0</ele><time>2026-04-25T14:42:03.86Z</time></trkpt><trkpt lat="44.0503717" lon="11.133125"><ele>412.0</ele><time>2026-04-25T14:42:04.867Z</time></trkpt><trkpt lat="44.0503483" lon="11.133295"><ele>412.0</ele><time>2026-04-25T14:42:05.873Z</time></trkpt><trkpt lat="44.0503133" lon="11.133435"><ele>413.6</ele><time>2026-04-25T14:42:06.88Z</time></trkpt><trkpt lat="44.0502617" lon="11.1335533"><ele>415.20000000000005</ele><time>2026-04-25T14:42:07.885Z</time></trkpt><trkpt lat="44.0501967" lon="11.1336667"><ele>416.8</ele><time>2026-04-25T14:42:08.892Z</time></trkpt><trkpt lat="44.0501217" lon="11.1337733"><ele>418.4</ele><time>2026-04-25T14:42:09.833Z</time></trkpt><trkpt lat="44.0500383" lon="11.1338583"><ele>420.0</ele><time>2026-04-25T14:42:10.838Z</time></trkpt><trkpt lat="44.0499467" lon="11.1339183"><ele>416.8</ele><time>2026-04-25T14:42:11.846Z</time></trkpt><trkpt lat="44.049855" lon="11.133925"><ele>413.6</ele><time>2026-04-25T14:42:12.852Z</time></trkpt><trkpt lat="44.0497533" lon="11.1339517"><ele>410.4</ele><time>2026-04-25T14:42:13.859Z</time></trkpt><trkpt lat="44.0496633" lon="11.134005"><ele>407.2</ele><time>2026-04-25T14:42:14.866Z</time></trkpt><trkpt lat="44.0495683" lon="11.1340633"><ele>404.0</ele><time>2026-04-25T14:42:15.871Z</time></trkpt><trkpt lat="44.049475" lon="11.1341533"><ele>404.0</ele><time>2026-04-25T14:42:16.879Z</time></trkpt><trkpt lat="44.0493867" lon="11.1342767"><ele>404.0</ele><time>2026-04-25T14:42:17.885Z</time></trkpt><trkpt lat="44.049315" lon="11.1344333"><ele>404.0</ele><time>2026-04-25T14:42:18.892Z</time></trkpt><trkpt lat="44.049245" lon="11.134595"><ele>404.0</ele><time>2026-04-25T14:42:19.831Z</time></trkpt><trkpt lat="44.0491733" lon="11.1347567"><ele>396.0</ele><time>2026-04-25T14:42:20.837Z</time></trkpt><trkpt lat="44.04911" lon="11.13492"><ele>388.0</ele><time>2026-04-25T14:42:21.844Z</time></trkpt><trkpt lat="44.0490467" lon="11.135085"><ele>380.0</ele><time>2026-04-25T14:42:22.852Z</time></trkpt><trkpt lat="44.0489883" lon="11.1352633"><ele>372.0</ele><time>2026-04-25T14:42:23.858Z</time></trkpt><trkpt lat="44.0489483" lon="11.1354533"><ele>372.0</ele><time>2026-04-25T14:42:24.864Z</time></trkpt><trkpt lat="44.0489183" lon="11.135655"><ele>372.0</ele><time>2026-04-25T14:42:25.871Z</time></trkpt><trkpt lat="44.0488767" lon="11.135825"><ele>372.0</ele><time>2026-04-25T14:42:26.878Z</time></trkpt><trkpt lat="44.0488483" lon="11.136"><ele>372.0</ele><time>2026-04-25T14:42:27.885Z</time></trkpt><trkpt lat="44.0488283" lon="11.1361683"><ele>372.75</ele><time>2026-04-25T14:42:28.891Z</time></trkpt><trkpt lat="44.0488033" lon="11.13633"><ele>373.5</ele><time>2026-04-25T14:42:29.831Z</time></trkpt><trkpt lat="44.04877" lon="11.1364833"><ele>374.25</ele><time>2026-04-25T14:42:30.838Z</time></trkpt><trkpt lat="44.0487167" lon="11.13663"><ele>375.0</ele><time>2026-04-25T14:42:31.844Z</time></trkpt><trkpt lat="44.048655" lon="11.1367733"><ele>378.0</ele><time>2026-04-25T14:42:32.85Z</time></trkpt><trkpt lat="44.0485733" lon="11.1369067"><ele>381.0</ele><time>2026-04-25T14:42:33.858Z</time></trkpt><trkpt lat="44.048495" lon="11.1370383"><ele>384.0</ele><time>2026-04-25T14:42:34.864Z</time></trkpt><trkpt lat="44.0484133" lon="11.1371633"><ele>387.0</ele><time>2026-04-25T14:42:35.871Z</time></trkpt><trkpt lat="44.0483233" lon="11.137265"><ele>379.8</ele><time>2026-04-25T14:42:36.877Z</time></trkpt><trkpt lat="44.04824" lon="11.1373567"><ele>372.6</ele><time>2026-04-25T14:42:37.884Z</time></trkpt><trkpt lat="44.0481717" lon="11.1374433"><ele>365.40000000000003</ele><time>2026-04-25T14:42:38.891Z</time></trkpt><trkpt lat="44.048125" lon="11.1375367"><ele>358.20000000000005</ele><time>2026-04-25T14:42:39.83Z</time></trkpt><trkpt lat="44.0481033" lon="11.13765"><ele>351.0</ele><time>2026-04-25T14:42:40.837Z</time></trkpt><trkpt lat="44.0481033" lon="11.1377767"><ele>351.0</ele><time>2026-04-25T14:42:41.844Z</time></trkpt><trkpt lat="44.04811" lon="11.13791"><ele>351.0</ele><time>2026-04-25T14:42:42.849Z</time></trkpt><trkpt lat="44.048095" lon="11.1380567"><ele>351.0</ele><time>2026-04-25T14:42:43.857Z</time></trkpt><trkpt lat="44.04805" lon="11.138215"><ele>351.0</ele><time>2026-04-25T14:42:44.863Z</time></trkpt><trkpt lat="44.0479817" lon="11.1383767"><ele>355.3333333333333</ele><time>2026-04-25T14:42:45.869Z</time></trkpt><trkpt lat="44.0479133" lon="11.13853"><ele>359.66666666666663</ele><time>2026-04-25T14:42:46.876Z</time></trkpt><trkpt lat="44.04783" lon="11.138685"><ele>364.0</ele><time>2026-04-25T14:42:47.883Z</time></trkpt><trkpt lat="44.04762" lon="11.1389617"><ele>367.75</ele><time>2026-04-25T14:42:49.829Z</time></trkpt><trkpt lat="44.0474983" lon="11.1390733"><ele>371.5</ele><time>2026-04-25T14:42:50.836Z</time></trkpt><trkpt lat="44.0473783" lon="11.1391817"><ele>375.25</ele><time>2026-04-25T14:42:51.843Z</time></trkpt><trkpt lat="44.04727" lon="11.1393067"><ele>379.0</ele><time>2026-04-25T14:42:52.849Z</time></trkpt><trkpt lat="44.047185" lon="11.1394383"><ele>373.79999999999995</ele><time>2026-04-25T14:42:53.855Z</time></trkpt><trkpt lat="44.047115" lon="11.1395717"><ele>368.59999999999997</ele><time>2026-04-25T14:42:54.863Z</time></trkpt><trkpt lat="44.047055" lon="11.1396983"><ele>363.4</ele><time>2026-04-25T14:42:55.869Z</time></trkpt><trkpt lat="44.0470083" lon="11.139805"><ele>358.2</ele><time>2026-04-25T14:42:56.876Z</time></trkpt><trkpt lat="44.0469583" lon="11.13991"><ele>353.0</ele><time>2026-04-25T14:42:57.882Z</time></trkpt><trkpt lat="44.046925" lon="11.1400017"><ele>353.0</ele><time>2026-04-25T14:42:58.822Z</time></trkpt><trkpt lat="44.0469083" lon="11.1400917"><ele>353.0</ele><time>2026-04-25T14:42:59.829Z</time></trkpt><trkpt lat="44.0469617" lon="11.140205"><ele>353.0</ele><time>2026-04-25T14:43:01.842Z</time></trkpt><trkpt lat="44.0470267" lon="11.140185"><ele>353.0</ele><time>2026-04-25T14:43:02.849Z</time></trkpt><trkpt lat="44.0471233" lon="11.1401217"><ele>353.0</ele><time>2026-04-25T14:43:03.854Z</time></trkpt><trkpt lat="44.04721" lon="11.14007"><ele>353.0</ele><time>2026-04-25T14:43:04.862Z</time></trkpt><trkpt lat="44.047285" lon="11.1400533"><ele>353.0</ele><time>2026-04-25T14:43:05.868Z</time></trkpt><trkpt lat="44.0473767" lon="11.1400883"><ele>353.0</ele><time>2026-04-25T14:43:07.881Z</time></trkpt><trkpt lat="44.0473533" lon="11.1401767"><ele>353.0</ele><time>2026-04-25T14:43:08.821Z</time></trkpt><trkpt lat="44.0472683" lon="11.1402783"><ele>353.0</ele><time>2026-04-25T14:43:10.835Z</time></trkpt><trkpt lat="44.04717" lon="11.1403233"><ele>353.0</ele><time>2026-04-25T14:43:11.841Z</time></trkpt><trkpt lat="44.0470617" lon="11.14036"><ele>353.0</ele><time>2026-04-25T14:43:12.848Z</time></trkpt><trkpt lat="44.0469533" lon="11.140375"><ele>353.0</ele><time>2026-04-25T14:43:13.854Z</time></trkpt><trkpt lat="44.046865" lon="11.1403667"><ele>353.0</ele><time>2026-04-25T14:43:14.86Z</time></trkpt><trkpt lat="44.04679" lon="11.1403733"><ele>353.0</ele><time>2026-04-25T14:43:15.867Z</time></trkpt><trkpt lat="44.0467033" lon="11.140475"><ele>353.0</ele><time>2026-04-25T14:43:17.88Z</time></trkpt><trkpt lat="44.0466833" lon="11.14056"><ele>353.0</ele><time>2026-04-25T14:43:18.82Z</time></trkpt><trkpt lat="44.0466983" lon="11.1407167"><ele>353.0</ele><time>2026-04-25T14:43:20.833Z</time></trkpt><trkpt lat="44.0468583" lon="11.1407117"><ele>353.0</ele><time>2026-04-25T14:43:22.914Z</time></trkpt><trkpt lat="44.0469367" lon="11.14068"><ele>353.0</ele><time>2026-04-25T14:43:23.854Z</time></trkpt><trkpt lat="44.0470383" lon="11.14064"><ele>353.0</ele><time>2026-04-25T14:43:24.86Z</time></trkpt><trkpt lat="44.04715" lon="11.140585"><ele>353.0</ele><time>2026-04-25T14:43:25.866Z</time></trkpt><trkpt lat="44.0472567" lon="11.140535"><ele>353.0</ele><time>2026-04-25T14:43:26.874Z</time></trkpt><trkpt lat="44.0473533" lon="11.1404883"><ele>353.0</ele><time>2026-04-25T14:43:27.879Z</time></trkpt><trkpt lat="44.0474333" lon="11.1404567"><ele>353.0</ele><time>2026-04-25T14:43:28.82Z</time></trkpt><trkpt lat="44.0475183" lon="11.140435"><ele>353.1666666666667</ele><time>2026-04-25T14:43:29.826Z</time></trkpt><trkpt lat="44.04762" lon="11.1404267"><ele>353.33333333333337</ele><time>2026-04-25T14:43:30.833Z</time></trkpt><trkpt lat="44.0476917" lon="11.140425"><ele>353.5</ele><time>2026-04-25T14:43:31.907Z</time></trkpt><trkpt lat="44.0476767" lon="11.1405333"><ele>353.6666666666667</ele><time>2026-04-25T14:43:32.913Z</time></trkpt><trkpt lat="44.0476517" lon="11.1406383"><ele>353.8333333333333</ele><time>2026-04-25T14:43:33.853Z</time></trkpt><trkpt lat="44.0476317" lon="11.140725"><ele>354.0</ele><time>2026-04-25T14:43:34.859Z</time></trkpt><trkpt lat="44.047555" lon="11.14077"><ele>354.75</ele><time>2026-04-25T14:43:35.866Z</time></trkpt><trkpt lat="44.0474583" lon="11.1407667"><ele>355.5</ele><time>2026-04-25T14:43:36.872Z</time></trkpt><trkpt lat="44.0473433" lon="11.1408083"><ele>356.25</ele><time>2026-04-25T14:43:37.812Z</time></trkpt><trkpt lat="44.0472267" lon="11.1408817"><ele>357.0</ele><time>2026-04-25T14:43:38.819Z</time></trkpt><trkpt lat="44.0471267" lon="11.1409667"><ele>357.0</ele><time>2026-04-25T14:43:39.893Z</time></trkpt><trkpt lat="44.0470467" lon="11.1410733"><ele>357.0</ele><time>2026-04-25T14:43:40.899Z</time></trkpt><trkpt lat="44.0469767" lon="11.1411783"><ele>357.0</ele><time>2026-04-25T14:43:41.906Z</time></trkpt><trkpt lat="44.0469067" lon="11.1412633"><ele>357.0</ele><time>2026-04-25T14:43:42.845Z</time></trkpt><trkpt lat="44.0468267" lon="11.1413383"><ele>357.0</ele><time>2026-04-25T14:43:43.852Z</time></trkpt><trkpt lat="44.0467417" lon="11.141395"><ele>357.0</ele><time>2026-04-25T14:43:44.859Z</time></trkpt><trkpt lat="44.0466433" lon="11.1414333"><ele>357.0</ele><time>2026-04-25T14:43:45.865Z</time></trkpt><trkpt lat="44.0465467" lon="11.1414667"><ele>357.0</ele><time>2026-04-25T14:43:46.871Z</time></trkpt><trkpt lat="44.0464517" lon="11.1414833"><ele>357.0</ele><time>2026-04-25T14:43:47.811Z</time></trkpt><trkpt lat="44.0463633" lon="11.141485"><ele>357.0</ele><time>2026-04-25T14:43:48.884Z</time></trkpt><trkpt lat="44.046275" lon="11.141475"><ele>350.8</ele><time>2026-04-25T14:43:49.892Z</time></trkpt><trkpt lat="44.0461883" lon="11.14146"><ele>344.6</ele><time>2026-04-25T14:43:50.899Z</time></trkpt><trkpt lat="44.0461033" lon="11.141415"><ele>338.40000000000003</ele><time>2026-04-25T14:43:51.905Z</time></trkpt><trkpt lat="44.0460333" lon="11.1413083"><ele>332.20000000000005</ele><time>2026-04-25T14:43:52.844Z</time></trkpt><trkpt lat="44.04599" lon="11.14123"><ele>326.0</ele><time>2026-04-25T14:43:53.851Z</time></trkpt><trkpt lat="44.0459917" lon="11.14107"><ele>326.0</ele><time>2026-04-25T14:43:54.858Z</time></trkpt><trkpt lat="44.045955" lon="11.1409667"><ele>326.0</ele><time>2026-04-25T14:43:55.865Z</time></trkpt><trkpt lat="44.0458783" lon="11.14097"><ele>326.0</ele><time>2026-04-25T14:43:57.878Z</time></trkpt><trkpt lat="44.045835" lon="11.1410933"><ele>326.0</ele><time>2026-04-25T14:43:59.89Z</time></trkpt><trkpt lat="44.0458633" lon="11.1412033"><ele>326.0</ele><time>2026-04-25T14:44:00.898Z</time></trkpt><trkpt lat="44.0459067" lon="11.1413033"><ele>326.0</ele><time>2026-04-25T14:44:01.903Z</time></trkpt><trkpt lat="44.0459517" lon="11.1413817"><ele>326.0</ele><time>2026-04-25T14:44:02.844Z</time></trkpt><trkpt lat="44.0459917" lon="11.1414517"><ele>326.0</ele><time>2026-04-25T14:44:03.851Z</time></trkpt><trkpt lat="44.0460267" lon="11.1416"><ele>326.0</ele><time>2026-04-25T14:44:05.864Z</time></trkpt><trkpt lat="44.04602" lon="11.1417133"><ele>326.0</ele><time>2026-04-25T14:44:07.876Z</time></trkpt><trkpt lat="44.0459417" lon="11.14169"><ele>326.0</ele><time>2026-04-25T14:44:09.89Z</time></trkpt><trkpt lat="44.0458917" lon="11.1416183"><ele>326.0</ele><time>2026-04-25T14:44:10.896Z</time></trkpt><trkpt lat="44.0458217" lon="11.1414683"><ele>319.5</ele><time>2026-04-25T14:44:11.904Z</time></trkpt><trkpt lat="44.04578" lon="11.14136"><ele>313.0</ele><time>2026-04-25T14:44:12.843Z</time></trkpt><trkpt lat="44.0457567" lon="11.1412567"><ele>306.5</ele><time>2026-04-25T14:44:13.849Z</time></trkpt><trkpt lat="44.0457417" lon="11.1411583"><ele>300.0</ele><time>2026-04-25T14:44:14.856Z</time></trkpt><trkpt lat="44.0456983" lon="11.141025"><ele>293.5</ele><time>2026-04-25T14:44:16.869Z</time></trkpt><trkpt lat="44.0456567" lon="11.140955"><ele>287.0</ele><time>2026-04-25T14:44:17.876Z</time></trkpt><trkpt lat="44.0455867" lon="11.140865"><ele>287.0</ele><time>2026-04-25T14:44:19.89Z</time></trkpt><trkpt lat="44.045555" lon="11.141045"><ele>287.0</ele><time>2026-04-25T14:44:22.842Z</time></trkpt><trkpt lat="44.0455917" lon="11.1411783"><ele>287.0</ele><time>2026-04-25T14:44:23.848Z</time></trkpt><trkpt lat="44.0456367" lon="11.1413067"><ele>287.0</ele><time>2026-04-25T14:44:24.856Z</time></trkpt><trkpt lat="44.0457117" lon="11.1414683"><ele>287.0</ele><time>2026-04-25T14:44:25.862Z</time></trkpt><trkpt lat="44.045755" lon="11.1416133"><ele>287.0</ele><time>2026-04-25T14:44:26.868Z</time></trkpt><trkpt lat="44.0457783" lon="11.141735"><ele>287.0</ele><time>2026-04-25T14:44:27.876Z</time></trkpt><trkpt lat="44.0457717" lon="11.1418417"><ele>287.0</ele><time>2026-04-25T14:44:28.881Z</time></trkpt><trkpt lat="44.045735" lon="11.14194"><ele>287.0</ele><time>2026-04-25T14:44:29.889Z</time></trkpt><trkpt lat="44.0456833" lon="11.1420083"><ele>287.0</ele><time>2026-04-25T14:44:30.895Z</time></trkpt><trkpt lat="44.04561" lon="11.1420333"><ele>287.0</ele><time>2026-04-25T14:44:31.835Z</time></trkpt><trkpt lat="44.0455333" lon="11.1420083"><ele>287.0</ele><time>2026-04-25T14:44:32.842Z</time></trkpt><trkpt lat="44.0454717" lon="11.14186"><ele>287.0</ele><time>2026-04-25T14:44:33.848Z</time></trkpt><trkpt lat="44.045425" lon="11.1417417"><ele>287.0</ele><time>2026-04-25T14:44:34.855Z</time></trkpt><trkpt lat="44.04539" lon="11.14159"><ele>287.0</ele><time>2026-04-25T14:44:35.861Z</time></trkpt><trkpt lat="44.0453883" lon="11.1414217"><ele>287.0</ele><time>2026-04-25T14:44:36.867Z</time></trkpt><trkpt lat="44.0453983" lon="11.1412617"><ele>287.0</ele><time>2026-04-25T14:44:37.875Z</time></trkpt><trkpt lat="44.0454167" lon="11.1411417"><ele>287.0</ele><time>2026-04-25T14:44:38.881Z</time></trkpt><trkpt lat="44.045425" lon="11.14103"><ele>287.0</ele><time>2026-04-25T14:44:39.888Z</time></trkpt><trkpt lat="44.0454183" lon="11.1409333"><ele>287.0</ele><time>2026-04-25T14:44:40.895Z</time></trkpt><trkpt lat="44.0453533" lon="11.1408233"><ele>287.0</ele><time>2026-04-25T14:44:42.841Z</time></trkpt><trkpt lat="44.0452667" lon="11.1409317"><ele>287.0</ele><time>2026-04-25T14:44:44.854Z</time></trkpt><trkpt lat="44.0452383" lon="11.1410933"><ele>287.0</ele><time>2026-04-25T14:44:45.861Z</time></trkpt><trkpt lat="44.0452267" lon="11.1412417"><ele>287.0</ele><time>2026-04-25T14:44:46.866Z</time></trkpt><trkpt lat="44.0452067" lon="11.1413783"><ele>287.0</ele><time>2026-04-25T14:44:47.873Z</time></trkpt><trkpt lat="44.0451867" lon="11.1415183"><ele>287.0</ele><time>2026-04-25T14:44:48.88Z</time></trkpt><trkpt lat="44.0451667" lon="11.1416567"><ele>287.0</ele><time>2026-04-25T14:44:49.887Z</time></trkpt><trkpt lat="44.045145" lon="11.14181"><ele>287.0</ele><time>2026-04-25T14:44:50.894Z</time></trkpt><trkpt lat="44.045135" lon="11.14196"><ele>287.0</ele><time>2026-04-25T14:44:51.833Z</time></trkpt><trkpt lat="44.0451617" lon="11.14208"><ele>287.0</ele><time>2026-04-25T14:44:52.84Z</time></trkpt><trkpt lat="44.0451967" lon="11.1421917"><ele>287.0</ele><time>2026-04-25T14:44:53.847Z</time></trkpt><trkpt lat="44.04526" lon="11.1422633"><ele>287.0</ele><time>2026-04-25T14:44:54.853Z</time></trkpt><trkpt lat="44.0453233" lon="11.14234"><ele>287.0</ele><time>2026-04-25T14:44:55.86Z</time></trkpt><trkpt lat="44.04538" lon="11.1424283"><ele>287.0</ele><time>2026-04-25T14:44:56.867Z</time></trkpt><trkpt lat="44.0454233" lon="11.142525"><ele>287.0</ele><time>2026-04-25T14:44:57.873Z</time></trkpt><trkpt lat="44.0454467" lon="11.1426217"><ele>287.0</ele><time>2026-04-25T14:44:58.879Z</time></trkpt><trkpt lat="44.0454183" lon="11.1427467"><ele>286.8</ele><time>2026-04-25T14:44:59.885Z</time></trkpt><trkpt lat="44.045395" lon="11.142855"><ele>286.6</ele><time>2026-04-25T14:45:00.893Z</time></trkpt><trkpt lat="44.0453467" lon="11.1429733"><ele>286.40000000000003</ele><time>2026-04-25T14:45:01.833Z</time></trkpt><trkpt lat="44.0452867" lon="11.1431033"><ele>286.2</ele><time>2026-04-25T14:45:02.838Z</time></trkpt><trkpt lat="44.0452217" lon="11.14323"><ele>286.0</ele><time>2026-04-25T14:45:03.845Z</time></trkpt><trkpt lat="44.0451317" lon="11.143345"><ele>286.0</ele><time>2026-04-25T14:45:04.852Z</time></trkpt><trkpt lat="44.0450333" lon="11.1434433"><ele>286.0</ele><time>2026-04-25T14:45:05.858Z</time></trkpt><trkpt lat="44.0449317" lon="11.1435333"><ele>286.0</ele><time>2026-04-25T14:45:06.866Z</time></trkpt><trkpt lat="44.04484" lon="11.14361"><ele>286.0</ele><time>2026-04-25T14:45:07.871Z</time></trkpt><trkpt lat="44.04475" lon="11.143695"><ele>282.0</ele><time>2026-04-25T14:45:08.879Z</time></trkpt><trkpt lat="44.0446633" lon="11.1438"><ele>278.0</ele><time>2026-04-25T14:45:09.886Z</time></trkpt><trkpt lat="44.044595" lon="11.1439183"><ele>274.0</ele><time>2026-04-25T14:45:10.825Z</time></trkpt><trkpt lat="44.044555" lon="11.144035"><ele>270.0</ele><time>2026-04-25T14:45:11.832Z</time></trkpt><trkpt lat="44.04453" lon="11.14415"><ele>266.0</ele><time>2026-04-25T14:45:12.838Z</time></trkpt><trkpt lat="44.044525" lon="11.1442683"><ele>266.0</ele><time>2026-04-25T14:45:13.845Z</time></trkpt><trkpt lat="44.0445383" lon="11.1443817"><ele>266.0</ele><time>2026-04-25T14:45:14.852Z</time></trkpt><trkpt lat="44.0445667" lon="11.1444883"><ele>266.0</ele><time>2026-04-25T14:45:15.857Z</time></trkpt><trkpt lat="44.044615" lon="11.1445983"><ele>266.0</ele><time>2026-04-25T14:45:16.864Z</time></trkpt><trkpt lat="44.0446717" lon="11.1447267"><ele>266.0</ele><time>2026-04-25T14:45:17.871Z</time></trkpt><trkpt lat="44.0447267" lon="11.1448683"><ele>263.75</ele><time>2026-04-25T14:45:18.878Z</time></trkpt><trkpt lat="44.044765" lon="11.1450167"><ele>261.5</ele><time>2026-04-25T14:45:19.885Z</time></trkpt><trkpt lat="44.0447883" lon="11.1451717"><ele>259.25</ele><time>2026-04-25T14:45:20.823Z</time></trkpt><trkpt lat="44.0448083" lon="11.145325"><ele>257.0</ele><time>2026-04-25T14:45:21.83Z</time></trkpt><trkpt lat="44.04482" lon="11.1454867"><ele>257.0</ele><time>2026-04-25T14:45:22.837Z</time></trkpt><trkpt lat="44.0448267" lon="11.145655"><ele>257.0</ele><time>2026-04-25T14:45:23.844Z</time></trkpt><trkpt lat="44.0448333" lon="11.1458233"><ele>257.0</ele><time>2026-04-25T14:45:24.851Z</time></trkpt><trkpt lat="44.0448367" lon="11.1459933"><ele>257.0</ele><time>2026-04-25T14:45:25.858Z</time></trkpt><trkpt lat="44.044835" lon="11.1461633"><ele>256.0</ele><time>2026-04-25T14:45:26.864Z</time></trkpt><trkpt lat="44.0448283" lon="11.1463233"><ele>255.0</ele><time>2026-04-25T14:45:27.871Z</time></trkpt><trkpt lat="44.0448117" lon="11.146485"><ele>254.0</ele><time>2026-04-25T14:45:28.877Z</time></trkpt><trkpt lat="44.044785" lon="11.1466517"><ele>253.0</ele><time>2026-04-25T14:45:29.884Z</time></trkpt><trkpt lat="44.044755" lon="11.1468117"><ele>252.8</ele><time>2026-04-25T14:45:30.824Z</time></trkpt><trkpt lat="44.044725" lon="11.1469667"><ele>252.60000000000002</ele><time>2026-04-25T14:45:31.83Z</time></trkpt><trkpt lat="44.0446967" lon="11.1471117"><ele>252.39999999999998</ele><time>2026-04-25T14:45:32.837Z</time></trkpt><trkpt lat="44.0446617" lon="11.1472567"><ele>252.2</ele><time>2026-04-25T14:45:33.844Z</time></trkpt><trkpt lat="44.0446183" lon="11.1473933"><ele>252.0</ele><time>2026-04-25T14:45:34.85Z</time></trkpt><trkpt lat="44.0445633" lon="11.1475117"><ele>252.39999999999998</ele><time>2026-04-25T14:45:35.857Z</time></trkpt><trkpt lat="44.0445017" lon="11.1476317"><ele>252.79999999999998</ele><time>2026-04-25T14:45:36.863Z</time></trkpt><trkpt lat="44.044455" lon="11.14776"><ele>253.2</ele><time>2026-04-25T14:45:37.87Z</time></trkpt><trkpt lat="44.044425" lon="11.1479067"><ele>253.6</ele><time>2026-04-25T14:45:38.876Z</time></trkpt><trkpt lat="44.0444133" lon="11.1480733"><ele>254.0</ele><time>2026-04-25T14:45:39.882Z</time></trkpt><trkpt lat="44.044415" lon="11.1482383"><ele>254.25</ele><time>2026-04-25T14:45:40.822Z</time></trkpt><trkpt lat="44.044415" lon="11.1484033"><ele>254.5</ele><time>2026-04-25T14:45:41.828Z</time></trkpt><trkpt lat="44.0444133" lon="11.1485683"><ele>254.75</ele><time>2026-04-25T14:45:42.835Z</time></trkpt><trkpt lat="44.04441" lon="11.1487333"><ele>255.0</ele><time>2026-04-25T14:45:43.843Z</time></trkpt><trkpt lat="44.04441" lon="11.1488867"><ele>255.0</ele><time>2026-04-25T14:45:44.849Z</time></trkpt><trkpt lat="44.04441" lon="11.1490367"><ele>255.0</ele><time>2026-04-25T14:45:45.856Z</time></trkpt><trkpt lat="44.0444033" lon="11.1491867"><ele>255.0</ele><time>2026-04-25T14:45:46.863Z</time></trkpt><trkpt lat="44.0443883" lon="11.1493167"><ele>255.0</ele><time>2026-04-25T14:45:47.869Z</time></trkpt><trkpt lat="44.04437" lon="11.1494433"><ele>255.0</ele><time>2026-04-25T14:45:48.876Z</time></trkpt><trkpt lat="44.04434" lon="11.1495533"><ele>254.6</ele><time>2026-04-25T14:45:49.882Z</time></trkpt><trkpt lat="44.0443017" lon="11.149635"><ele>254.2</ele><time>2026-04-25T14:45:50.822Z</time></trkpt><trkpt lat="44.0442133" lon="11.1497383"><ele>253.8</ele><time>2026-04-25T14:45:52.835Z</time></trkpt><trkpt lat="44.0441383" lon="11.1497317"><ele>253.4</ele><time>2026-04-25T14:45:55.854Z</time></trkpt><trkpt lat="44.0440583" lon="11.14966"><ele>253.0</ele><time>2026-04-25T14:46:36.858Z</time></trkpt><trkpt lat="44.0439317" lon="11.1496167"><ele>252.60000000000002</ele><time>2026-04-25T14:46:38.872Z</time></trkpt><trkpt lat="44.0438383" lon="11.1495833"><ele>252.20000000000002</ele><time>2026-04-25T14:46:39.879Z</time></trkpt><trkpt lat="44.0437433" lon="11.1495517"><ele>251.8</ele><time>2026-04-25T14:46:40.885Z</time></trkpt><trkpt lat="44.0436517" lon="11.14952"><ele>251.4</ele><time>2026-04-25T14:46:41.892Z</time></trkpt><trkpt lat="44.0435567" lon="11.14947"><ele>251.0</ele><time>2026-04-25T14:46:42.899Z</time></trkpt><trkpt lat="44.0434517" lon="11.149415"><ele>251.0</ele><time>2026-04-25T14:46:43.838Z</time></trkpt><trkpt lat="44.0433567" lon="11.1493617"><ele>251.00000000000003</ele><time>2026-04-25T14:46:44.845Z</time></trkpt><trkpt lat="44.0432683" lon="11.1493167"><ele>251.00000000000003</ele><time>2026-04-25T14:46:45.851Z</time></trkpt><trkpt lat="44.043185" lon="11.14928"><ele>251.0</ele><time>2026-04-25T14:46:46.857Z</time></trkpt><trkpt lat="44.0430983" lon="11.149245"><ele>251.0</ele><time>2026-04-25T14:46:47.865Z</time></trkpt><trkpt lat="44.0430117" lon="11.1492167"><ele>253.8</ele><time>2026-04-25T14:46:48.87Z</time></trkpt><trkpt lat="44.04292" lon="11.14921"><ele>256.6</ele><time>2026-04-25T14:46:49.878Z</time></trkpt><trkpt lat="44.0428367" lon="11.1492283"><ele>259.4</ele><time>2026-04-25T14:46:50.885Z</time></trkpt><trkpt lat="44.0427583" lon="11.1492567"><ele>262.2</ele><time>2026-04-25T14:46:51.891Z</time></trkpt><trkpt lat="44.0426867" lon="11.1492983"><ele>265.0</ele><time>2026-04-25T14:46:52.898Z</time></trkpt><trkpt lat="44.0426317" lon="11.1494767"><ele>265.0</ele><time>2026-04-25T14:46:54.844Z</time></trkpt><trkpt lat="44.0426217" lon="11.1495833"><ele>265.0</ele><time>2026-04-25T14:46:55.851Z</time></trkpt><trkpt lat="44.042615" lon="11.149685"><ele>265.0</ele><time>2026-04-25T14:46:56.857Z</time></trkpt><trkpt lat="44.0425917" lon="11.1498017"><ele>265.0</ele><time>2026-04-25T14:46:57.864Z</time></trkpt><trkpt lat="44.0425583" lon="11.1499067"><ele>265.0</ele><time>2026-04-25T14:46:58.87Z</time></trkpt><trkpt lat="44.04252" lon="11.15001"><ele>265.0</ele><time>2026-04-25T14:46:59.877Z</time></trkpt><trkpt lat="44.04247" lon="11.1501017"><ele>265.8</ele><time>2026-04-25T14:47:00.884Z</time></trkpt><trkpt lat="44.0423983" lon="11.1502067"><ele>266.6</ele><time>2026-04-25T14:47:01.89Z</time></trkpt><trkpt lat="44.0423033" lon="11.150275"><ele>267.4</ele><time>2026-04-25T14:47:02.897Z</time></trkpt><trkpt lat="44.042215" lon="11.1503283"><ele>268.2</ele><time>2026-04-25T14:47:03.837Z</time></trkpt><trkpt lat="44.0421283" lon="11.1503767"><ele>269.0</ele><time>2026-04-25T14:47:04.843Z</time></trkpt><trkpt lat="44.0420533" lon="11.15042"><ele>269.0</ele><time>2026-04-25T14:47:05.85Z</time></trkpt><trkpt lat="44.0419783" lon="11.150465"><ele>269.0</ele><time>2026-04-25T14:47:06.856Z</time></trkpt><trkpt lat="44.041895" lon="11.1505033"><ele>269.0</ele><time>2026-04-25T14:47:07.863Z</time></trkpt><trkpt lat="44.0418133" lon="11.1505483"><ele>269.0</ele><time>2026-04-25T14:47:08.87Z</time></trkpt><trkpt lat="44.0417267" lon="11.1505833"><ele>269.0</ele><time>2026-04-25T14:47:09.876Z</time></trkpt><trkpt lat="44.04164" lon="11.1506283"><ele>269.0</ele><time>2026-04-25T14:47:10.883Z</time></trkpt><trkpt lat="44.0415517" lon="11.1506683"><ele>270.2</ele><time>2026-04-25T14:47:11.889Z</time></trkpt><trkpt lat="44.04146" lon="11.1506983"><ele>271.4</ele><time>2026-04-25T14:47:12.896Z</time></trkpt><trkpt lat="44.0413583" lon="11.1507183"><ele>272.6</ele><time>2026-04-25T14:47:13.836Z</time></trkpt><trkpt lat="44.0412583" lon="11.15077"><ele>273.8</ele><time>2026-04-25T14:47:14.842Z</time></trkpt><trkpt lat="44.0411683" lon="11.1508417"><ele>275.0</ele><time>2026-04-25T14:47:15.848Z</time></trkpt><trkpt lat="44.0410783" lon="11.15093"><ele>275.0</ele><time>2026-04-25T14:47:16.855Z</time></trkpt><trkpt lat="44.0409883" lon="11.1510133"><ele>275.0</ele><time>2026-04-25T14:47:17.862Z</time></trkpt><trkpt lat="44.0408983" lon="11.1511033"><ele>275.0</ele><time>2026-04-25T14:47:18.869Z</time></trkpt><trkpt lat="44.04081" lon="11.1511967"><ele>275.0</ele><time>2026-04-25T14:47:19.876Z</time></trkpt><trkpt lat="44.040725" lon="11.1513183"><ele>274.2</ele><time>2026-04-25T14:47:20.882Z</time></trkpt><trkpt lat="44.0406367" lon="11.1514117"><ele>273.4</ele><time>2026-04-25T14:47:21.888Z</time></trkpt><trkpt lat="44.0405417" lon="11.1514667"><ele>272.6</ele><time>2026-04-25T14:47:22.828Z</time></trkpt><trkpt lat="44.0404433" lon="11.1515183"><ele>271.8</ele><time>2026-04-25T14:47:23.835Z</time></trkpt><trkpt lat="44.0403367" lon="11.15157"><ele>271.0</ele><time>2026-04-25T14:47:24.842Z</time></trkpt><trkpt lat="44.0402283" lon="11.1516183"><ele>271.0</ele><time>2026-04-25T14:47:25.848Z</time></trkpt><trkpt lat="44.0401117" lon="11.1516767"><ele>271.0</ele><time>2026-04-25T14:47:26.855Z</time></trkpt><trkpt lat="44.0399883" lon="11.1517417"><ele>271.0</ele><time>2026-04-25T14:47:27.861Z</time></trkpt><trkpt lat="44.0398683" lon="11.151835"><ele>271.0</ele><time>2026-04-25T14:47:28.868Z</time></trkpt><trkpt lat="44.0397483" lon="11.15194"><ele>273.66666666666663</ele><time>2026-04-25T14:47:29.874Z</time></trkpt><trkpt lat="44.039625" lon="11.1520567"><ele>276.3333333333333</ele><time>2026-04-25T14:47:30.881Z</time></trkpt><trkpt lat="44.0394883" lon="11.1521967"><ele>279.0</ele><time>2026-04-25T14:47:31.887Z</time></trkpt><trkpt lat="44.0393383" lon="11.1523533"><ele>278.6666666666667</ele><time>2026-04-25T14:47:32.828Z</time></trkpt><trkpt lat="44.0391867" lon="11.15251"><ele>278.33333333333337</ele><time>2026-04-25T14:47:33.833Z</time></trkpt><trkpt lat="44.0390383" lon="11.1526633"><ele>278.0</ele><time>2026-04-25T14:47:34.841Z</time></trkpt><trkpt lat="44.038895" lon="11.1527933"><ele>278.0</ele><time>2026-04-25T14:47:35.847Z</time></trkpt><trkpt lat="44.038775" lon="11.1529317"><ele>278.0</ele><time>2026-04-25T14:47:36.854Z</time></trkpt><trkpt lat="44.0386483" lon="11.1530617"><ele>278.0</ele><time>2026-04-25T14:47:37.86Z</time></trkpt><trkpt lat="44.0385183" lon="11.1531917"><ele>275.33333333333337</ele><time>2026-04-25T14:47:38.867Z</time></trkpt><trkpt lat="44.0383817" lon="11.1533167"><ele>272.6666666666667</ele><time>2026-04-25T14:47:39.874Z</time></trkpt><trkpt lat="44.03825" lon="11.1534317"><ele>270.0</ele><time>2026-04-25T14:47:40.881Z</time></trkpt><trkpt lat="44.03811" lon="11.1535533"><ele>270.0</ele><time>2026-04-25T14:47:41.887Z</time></trkpt><trkpt lat="44.037975" lon="11.1536767"><ele>270.0</ele><time>2026-04-25T14:47:42.827Z</time></trkpt><trkpt lat="44.0378417" lon="11.1538"><ele>270.0</ele><time>2026-04-25T14:47:43.833Z</time></trkpt><trkpt lat="44.0377133" lon="11.1539183"><ele>267.6666666666667</ele><time>2026-04-25T14:47:44.84Z</time></trkpt><trkpt lat="44.037585" lon="11.154045"><ele>265.33333333333337</ele><time>2026-04-25T14:47:45.847Z</time></trkpt><trkpt lat="44.0374633" lon="11.1541667"><ele>263.0</ele><time>2026-04-25T14:47:46.853Z</time></trkpt><trkpt lat="44.0373483" lon="11.1542867"><ele>263.0</ele><time>2026-04-25T14:47:47.859Z</time></trkpt><trkpt lat="44.037235" lon="11.154395"><ele>263.0</ele><time>2026-04-25T14:47:48.867Z</time></trkpt><trkpt lat="44.0371283" lon="11.1545017"><ele>263.0</ele><time>2026-04-25T14:47:49.873Z</time></trkpt><trkpt lat="44.0370133" lon="11.15458"><ele>263.0</ele><time>2026-04-25T14:47:50.879Z</time></trkpt><trkpt lat="44.03689" lon="11.1546333"><ele>263.0</ele><time>2026-04-25T14:47:51.885Z</time></trkpt><trkpt lat="44.0367567" lon="11.1546483"><ele>263.0</ele><time>2026-04-25T14:47:52.826Z</time></trkpt><trkpt lat="44.03662" lon="11.1546317"><ele>263.0</ele><time>2026-04-25T14:47:53.833Z</time></trkpt><trkpt lat="44.0364983" lon="11.1545817"><ele>263.0</ele><time>2026-04-25T14:47:54.839Z</time></trkpt><trkpt lat="44.036375" lon="11.1544783"><ele>261.0</ele><time>2026-04-25T14:47:55.846Z</time></trkpt><trkpt lat="44.03626" lon="11.15435"><ele>259.0</ele><time>2026-04-25T14:47:56.852Z</time></trkpt><trkpt lat="44.0361433" lon="11.1542083"><ele>257.0</ele><time>2026-04-25T14:47:57.859Z</time></trkpt><trkpt lat="44.0360183" lon="11.1540717"><ele>262.33333333333337</ele><time>2026-04-25T14:47:58.866Z</time></trkpt><trkpt lat="44.035885" lon="11.153955"><ele>267.6666666666667</ele><time>2026-04-25T14:47:59.871Z</time></trkpt><trkpt lat="44.0357467" lon="11.1538683"><ele>273.0</ele><time>2026-04-25T14:48:00.879Z</time></trkpt><trkpt lat="44.0356067" lon="11.1538133"><ele>273.0</ele><time>2026-04-25T14:48:01.886Z</time></trkpt><trkpt lat="44.0354567" lon="11.153785"><ele>273.0</ele><time>2026-04-25T14:48:02.825Z</time></trkpt><trkpt lat="44.0353" lon="11.1537883"><ele>273.0</ele><time>2026-04-25T14:48:03.832Z</time></trkpt><trkpt lat="44.03515" lon="11.1537917"><ele>273.0</ele><time>2026-04-25T14:48:04.838Z</time></trkpt><trkpt lat="44.034995" lon="11.1538217"><ele>273.0</ele><time>2026-04-25T14:48:05.845Z</time></trkpt><trkpt lat="44.0348483" lon="11.153855"><ele>273.0</ele><time>2026-04-25T14:48:06.852Z</time></trkpt><trkpt lat="44.0347033" lon="11.1539"><ele>272.75</ele><time>2026-04-25T14:48:07.857Z</time></trkpt><trkpt lat="44.0345617" lon="11.1539317"><ele>272.5</ele><time>2026-04-25T14:48:08.865Z</time></trkpt><trkpt lat="44.03442" lon="11.153945"><ele>272.25</ele><time>2026-04-25T14:48:09.872Z</time></trkpt><trkpt lat="44.03428" lon="11.153945"><ele>272.0</ele><time>2026-04-25T14:48:10.877Z</time></trkpt><trkpt lat="44.034135" lon="11.1539383"><ele>274.5</ele><time>2026-04-25T14:48:11.818Z</time></trkpt><trkpt lat="44.0339867" lon="11.1539333"><ele>277.0</ele><time>2026-04-25T14:48:12.823Z</time></trkpt><trkpt lat="44.0338383" lon="11.1539417"><ele>279.5</ele><time>2026-04-25T14:48:13.831Z</time></trkpt><trkpt lat="44.0336883" lon="11.1539483"><ele>282.0</ele><time>2026-04-25T14:48:14.838Z</time></trkpt><trkpt lat="44.03354" lon="11.1539517"><ele>282.0</ele><time>2026-04-25T14:48:15.844Z</time></trkpt><trkpt lat="44.033395" lon="11.15395"><ele>282.0</ele><time>2026-04-25T14:48:16.851Z</time></trkpt><trkpt lat="44.0332583" lon="11.1539267"><ele>282.0</ele><time>2026-04-25T14:48:17.858Z</time></trkpt><trkpt lat="44.03312" lon="11.1539033"><ele>282.0</ele><time>2026-04-25T14:48:18.864Z</time></trkpt><trkpt lat="44.03297" lon="11.1539183"><ele>282.5</ele><time>2026-04-25T14:48:19.87Z</time></trkpt><trkpt lat="44.0328233" lon="11.1539133"><ele>283.0</ele><time>2026-04-25T14:48:20.877Z</time></trkpt><trkpt lat="44.0326767" lon="11.1539067"><ele>283.5</ele><time>2026-04-25T14:48:21.817Z</time></trkpt><trkpt lat="44.032525" lon="11.1538983"><ele>284.0</ele><time>2026-04-25T14:48:22.823Z</time></trkpt><trkpt lat="44.0323667" lon="11.15389"><ele>278.6666666666667</ele><time>2026-04-25T14:48:23.829Z</time></trkpt><trkpt lat="44.0322167" lon="11.1538583"><ele>273.3333333333333</ele><time>2026-04-25T14:48:24.904Z</time></trkpt><trkpt lat="44.0320617" lon="11.1538283"><ele>268.0</ele><time>2026-04-25T14:48:25.911Z</time></trkpt><trkpt lat="44.0319133" lon="11.1538017"><ele>268.0</ele><time>2026-04-25T14:48:26.849Z</time></trkpt><trkpt lat="44.0317683" lon="11.1537767"><ele>268.0</ele><time>2026-04-25T14:48:27.857Z</time></trkpt><trkpt lat="44.0316183" lon="11.1537817"><ele>268.0</ele><time>2026-04-25T14:48:28.863Z</time></trkpt><trkpt lat="44.031475" lon="11.1537967"><ele>268.0</ele><time>2026-04-25T14:48:29.87Z</time></trkpt><trkpt lat="44.031335" lon="11.15383"><ele>264.25</ele><time>2026-04-25T14:48:30.877Z</time></trkpt><trkpt lat="44.0312033" lon="11.153875"><ele>260.5</ele><time>2026-04-25T14:48:31.816Z</time></trkpt><trkpt lat="44.0310733" lon="11.1539217"><ele>256.75</ele><time>2026-04-25T14:48:32.822Z</time></trkpt><trkpt lat="44.030945" lon="11.1539383"><ele>253.0</ele><time>2026-04-25T14:48:33.897Z</time></trkpt><trkpt lat="44.03082" lon="11.153925"><ele>248.75</ele><time>2026-04-25T14:48:34.903Z</time></trkpt><trkpt lat="44.0306883" lon="11.1539083"><ele>244.5</ele><time>2026-04-25T14:48:35.909Z</time></trkpt><trkpt lat="44.03056" lon="11.153885"><ele>240.25</ele><time>2026-04-25T14:48:36.848Z</time></trkpt><trkpt lat="44.03043" lon="11.1538517"><ele>236.0</ele><time>2026-04-25T14:48:37.856Z</time></trkpt><trkpt lat="44.0303" lon="11.1538033"><ele>236.0</ele><time>2026-04-25T14:48:38.863Z</time></trkpt><trkpt lat="44.03017" lon="11.15374"><ele>236.0</ele><time>2026-04-25T14:48:39.868Z</time></trkpt><trkpt lat="44.0300517" lon="11.1536517"><ele>236.0</ele><time>2026-04-25T14:48:40.875Z</time></trkpt><trkpt lat="44.0299367" lon="11.153545"><ele>236.0</ele><time>2026-04-25T14:48:41.883Z</time></trkpt><trkpt lat="44.0298333" lon="11.1534183"><ele>234.75</ele><time>2026-04-25T14:48:42.889Z</time></trkpt><trkpt lat="44.0297433" lon="11.1532717"><ele>233.5</ele><time>2026-04-25T14:48:43.896Z</time></trkpt><trkpt lat="44.029665" lon="11.1531133"><ele>232.25</ele><time>2026-04-25T14:48:44.901Z</time></trkpt><trkpt lat="44.029595" lon="11.152955"><ele>231.0</ele><time>2026-04-25T14:48:45.908Z</time></trkpt><trkpt lat="44.0295333" lon="11.1528017"><ele>230.25</ele><time>2026-04-25T14:48:46.848Z</time></trkpt><trkpt lat="44.0294733" lon="11.152655"><ele>229.5</ele><time>2026-04-25T14:48:47.854Z</time></trkpt><trkpt lat="44.0294067" lon="11.152515"><ele>228.75</ele><time>2026-04-25T14:48:48.861Z</time></trkpt><trkpt lat="44.0293283" lon="11.1523867"><ele>228.0</ele><time>2026-04-25T14:48:49.869Z</time></trkpt><trkpt lat="44.0292467" lon="11.1522567"><ele>228.25</ele><time>2026-04-25T14:48:50.874Z</time></trkpt><trkpt lat="44.0291533" lon="11.1521533"><ele>228.5</ele><time>2026-04-25T14:48:51.882Z</time></trkpt><trkpt lat="44.0290583" lon="11.1520517"><ele>228.75</ele><time>2026-04-25T14:48:52.888Z</time></trkpt><trkpt lat="44.0289717" lon="11.15194"><ele>229.0</ele><time>2026-04-25T14:48:53.895Z</time></trkpt><trkpt lat="44.028885" lon="11.1518367"><ele>229.0</ele><time>2026-04-25T14:48:54.902Z</time></trkpt><trkpt lat="44.0288017" lon="11.151715"><ele>229.0</ele><time>2026-04-25T14:48:55.841Z</time></trkpt><trkpt lat="44.0287183" lon="11.1515783"><ele>229.0</ele><time>2026-04-25T14:48:56.848Z</time></trkpt><trkpt lat="44.02864" lon="11.15143"><ele>229.0</ele><time>2026-04-25T14:48:57.854Z</time></trkpt><trkpt lat="44.028575" lon="11.1512733"><ele>229.0</ele><time>2026-04-25T14:48:58.861Z</time></trkpt><trkpt lat="44.0285233" lon="11.1511183"><ele>229.0</ele><time>2026-04-25T14:48:59.868Z</time></trkpt><trkpt lat="44.0284817" lon="11.15096"><ele>229.0</ele><time>2026-04-25T14:49:00.874Z</time></trkpt><trkpt lat="44.0284567" lon="11.1507917"><ele>229.0</ele><time>2026-04-25T14:49:01.881Z</time></trkpt><trkpt lat="44.0284433" lon="11.15062"><ele>228.5</ele><time>2026-04-25T14:49:02.888Z</time></trkpt><trkpt lat="44.0284333" lon="11.15045"><ele>228.0</ele><time>2026-04-25T14:49:03.894Z</time></trkpt><trkpt lat="44.0284267" lon="11.1502783"><ele>227.5</ele><time>2026-04-25T14:49:04.901Z</time></trkpt><trkpt lat="44.0284133" lon="11.15011"><ele>227.0</ele><time>2026-04-25T14:49:05.84Z</time></trkpt><trkpt lat="44.0284" lon="11.1499533"><ele>227.2</ele><time>2026-04-25T14:49:06.847Z</time></trkpt><trkpt lat="44.0283917" lon="11.1498017"><ele>227.39999999999998</ele><time>2026-04-25T14:49:07.854Z</time></trkpt><trkpt lat="44.0283817" lon="11.14967"><ele>227.60000000000002</ele><time>2026-04-25T14:49:08.86Z</time></trkpt><trkpt lat="44.0283717" lon="11.149535"><ele>227.8</ele><time>2026-04-25T14:49:09.867Z</time></trkpt><trkpt lat="44.02836" lon="11.1494"><ele>228.0</ele><time>2026-04-25T14:49:10.873Z</time></trkpt><trkpt lat="44.0283417" lon="11.149255"><ele>228.0</ele><time>2026-04-25T14:49:11.88Z</time></trkpt><trkpt lat="44.028325" lon="11.1491067"><ele>228.0</ele><time>2026-04-25T14:49:12.887Z</time></trkpt><trkpt lat="44.0283067" lon="11.1489517"><ele>228.0</ele><time>2026-04-25T14:49:13.892Z</time></trkpt><trkpt lat="44.0282883" lon="11.1488017"><ele>228.0</ele><time>2026-04-25T14:49:14.9Z</time></trkpt><trkpt lat="44.0282767" lon="11.1486483"><ele>228.0</ele><time>2026-04-25T14:49:15.839Z</time></trkpt><trkpt lat="44.0282667" lon="11.14851"><ele>227.4</ele><time>2026-04-25T14:49:16.846Z</time></trkpt><trkpt lat="44.0282517" lon="11.1483917"><ele>226.8</ele><time>2026-04-25T14:49:17.853Z</time></trkpt><trkpt lat="44.0282333" lon="11.1482867"><ele>226.2</ele><time>2026-04-25T14:49:18.859Z</time></trkpt><trkpt lat="44.028215" lon="11.1481633"><ele>225.6</ele><time>2026-04-25T14:49:20.873Z</time></trkpt><trkpt lat="44.028145" lon="11.1480317"><ele>225.0</ele><time>2026-04-25T14:49:30.872Z</time></trkpt><trkpt lat="44.0281117" lon="11.1478933"><ele>225.0</ele><time>2026-04-25T14:49:32.884Z</time></trkpt><trkpt lat="44.0280867" lon="11.147805"><ele>225.0</ele><time>2026-04-25T14:49:33.892Z</time></trkpt><trkpt lat="44.0280467" lon="11.1476783"><ele>225.0</ele><time>2026-04-25T14:49:34.831Z</time></trkpt><trkpt lat="44.0280017" lon="11.1475483"><ele>225.0</ele><time>2026-04-25T14:49:35.838Z</time></trkpt><trkpt lat="44.0279517" lon="11.14741"><ele>225.0</ele><time>2026-04-25T14:49:36.845Z</time></trkpt><trkpt lat="44.0278983" lon="11.1472633"><ele>225.75</ele><time>2026-04-25T14:49:37.851Z</time></trkpt><trkpt lat="44.027845" lon="11.1471133"><ele>226.5</ele><time>2026-04-25T14:49:38.858Z</time></trkpt><trkpt lat="44.0277883" lon="11.1469683"><ele>227.25</ele><time>2026-04-25T14:49:39.864Z</time></trkpt><trkpt lat="44.0277233" lon="11.14683"><ele>228.0</ele><time>2026-04-25T14:49:40.87Z</time></trkpt><trkpt lat="44.0276383" lon="11.1467017"><ele>228.0</ele><time>2026-04-25T14:49:41.878Z</time></trkpt><trkpt lat="44.0275333" lon="11.1465883"><ele>228.0</ele><time>2026-04-25T14:49:42.884Z</time></trkpt><trkpt lat="44.0274217" lon="11.14649"><ele>228.0</ele><time>2026-04-25T14:49:43.89Z</time></trkpt><trkpt lat="44.0273017" lon="11.1464067"><ele>228.0</ele><time>2026-04-25T14:49:44.831Z</time></trkpt><trkpt lat="44.0271833" lon="11.1463417"><ele>227.25</ele><time>2026-04-25T14:49:45.836Z</time></trkpt><trkpt lat="44.0270733" lon="11.1462733"><ele>226.5</ele><time>2026-04-25T14:49:46.844Z</time></trkpt><trkpt lat="44.02697" lon="11.1462017"><ele>225.75</ele><time>2026-04-25T14:49:47.851Z</time></trkpt><trkpt lat="44.0268833" lon="11.1461167"><ele>225.0</ele><time>2026-04-25T14:49:48.857Z</time></trkpt><trkpt lat="44.0268033" lon="11.1460133"><ele>225.0</ele><time>2026-04-25T14:49:49.864Z</time></trkpt><trkpt lat="44.0267433" lon="11.1458917"><ele>225.0</ele><time>2026-04-25T14:49:50.87Z</time></trkpt><trkpt lat="44.0267" lon="11.1457433"><ele>225.0</ele><time>2026-04-25T14:49:51.877Z</time></trkpt><trkpt lat="44.02666" lon="11.1456"><ele>225.0</ele><time>2026-04-25T14:49:52.884Z</time></trkpt><trkpt lat="44.0266283" lon="11.145435"><ele>226.5</ele><time>2026-04-25T14:49:53.89Z</time></trkpt><trkpt lat="44.0265767" lon="11.1452833"><ele>228.0</ele><time>2026-04-25T14:49:54.83Z</time></trkpt><trkpt lat="44.02651" lon="11.14514"><ele>229.5</ele><time>2026-04-25T14:49:55.837Z</time></trkpt><trkpt lat="44.0264383" lon="11.1450067"><ele>231.0</ele><time>2026-04-25T14:49:56.843Z</time></trkpt><trkpt lat="44.0263617" lon="11.1448733"><ele>231.0</ele><time>2026-04-25T14:49:57.849Z</time></trkpt><trkpt lat="44.026275" lon="11.14475"><ele>231.0</ele><time>2026-04-25T14:49:58.856Z</time></trkpt><trkpt lat="44.0261667" lon="11.14465"><ele>231.0</ele><time>2026-04-25T14:49:59.863Z</time></trkpt><trkpt lat="44.0260533" lon="11.1445567"><ele>231.0</ele><time>2026-04-25T14:50:00.869Z</time></trkpt><trkpt lat="44.0259417" lon="11.1444683"><ele>231.0</ele><time>2026-04-25T14:50:01.876Z</time></trkpt><trkpt lat="44.0258383" lon="11.14438"><ele>231.0</ele><time>2026-04-25T14:50:02.883Z</time></trkpt><trkpt lat="44.025735" lon="11.1442983"><ele>231.0</ele><time>2026-04-25T14:50:03.89Z</time></trkpt><trkpt lat="44.025635" lon="11.1442083"><ele>231.0</ele><time>2026-04-25T14:50:04.829Z</time></trkpt><trkpt lat="44.0255417" lon="11.1441067"><ele>229.75</ele><time>2026-04-25T14:50:05.836Z</time></trkpt><trkpt lat="44.025455" lon="11.1439917"><ele>228.5</ele><time>2026-04-25T14:50:06.842Z</time></trkpt><trkpt lat="44.0253733" lon="11.143855"><ele>227.25</ele><time>2026-04-25T14:50:07.848Z</time></trkpt><trkpt lat="44.0252883" lon="11.1437117"><ele>226.0</ele><time>2026-04-25T14:50:08.856Z</time></trkpt><trkpt lat="44.02521" lon="11.1435683"><ele>226.0</ele><time>2026-04-25T14:50:09.862Z</time></trkpt><trkpt lat="44.02514" lon="11.143425"><ele>226.0</ele><time>2026-04-25T14:50:10.868Z</time></trkpt><trkpt lat="44.0250767" lon="11.1432783"><ele>226.0</ele><time>2026-04-25T14:50:11.875Z</time></trkpt><trkpt lat="44.0250167" lon="11.1431233"><ele>226.0</ele><time>2026-04-25T14:50:12.882Z</time></trkpt><trkpt lat="44.02496" lon="11.1429667"><ele>225.5</ele><time>2026-04-25T14:50:13.889Z</time></trkpt><trkpt lat="44.0249033" lon="11.1428067"><ele>225.0</ele><time>2026-04-25T14:50:14.828Z</time></trkpt><trkpt lat="44.0248417" lon="11.142645"><ele>224.5</ele><time>2026-04-25T14:50:15.835Z</time></trkpt><trkpt lat="44.02476" lon="11.142475"><ele>224.0</ele><time>2026-04-25T14:50:16.841Z</time></trkpt><trkpt lat="44.024685" lon="11.14231"><ele>224.0</ele><time>2026-04-25T14:50:17.848Z</time></trkpt><trkpt lat="44.024605" lon="11.1421533"><ele>224.0</ele><time>2026-04-25T14:50:18.854Z</time></trkpt><trkpt lat="44.0245167" lon="11.142005"><ele>224.0</ele><time>2026-04-25T14:50:19.862Z</time></trkpt><trkpt lat="44.0244217" lon="11.1418617"><ele>224.0</ele><time>2026-04-25T14:50:20.868Z</time></trkpt><trkpt lat="44.0243183" lon="11.1417283"><ele>224.0</ele><time>2026-04-25T14:50:21.875Z</time></trkpt><trkpt lat="44.0242133" lon="11.1416033"><ele>224.0</ele><time>2026-04-25T14:50:22.881Z</time></trkpt><trkpt lat="44.0241067" lon="11.1414833"><ele>224.0</ele><time>2026-04-25T14:50:23.821Z</time></trkpt><trkpt lat="44.0239967" lon="11.14137"><ele>224.0</ele><time>2026-04-25T14:50:24.828Z</time></trkpt><trkpt lat="44.0238883" lon="11.1412667"><ele>223.75</ele><time>2026-04-25T14:50:25.833Z</time></trkpt><trkpt lat="44.023775" lon="11.14117"><ele>223.5</ele><time>2026-04-25T14:50:26.841Z</time></trkpt><trkpt lat="44.0236617" lon="11.1410767"><ele>223.25</ele><time>2026-04-25T14:50:27.847Z</time></trkpt><trkpt lat="44.0235467" lon="11.1409717"><ele>223.0</ele><time>2026-04-25T14:50:28.853Z</time></trkpt><trkpt lat="44.023425" lon="11.1408733"><ele>223.25</ele><time>2026-04-25T14:50:29.86Z</time></trkpt><trkpt lat="44.023305" lon="11.14078"><ele>223.5</ele><time>2026-04-25T14:50:30.867Z</time></trkpt><trkpt lat="44.0231817" lon="11.1406933"><ele>223.75</ele><time>2026-04-25T14:50:31.874Z</time></trkpt><trkpt lat="44.0230533" lon="11.1406067"><ele>224.0</ele><time>2026-04-25T14:50:32.88Z</time></trkpt><trkpt lat="44.022925" lon="11.140515"><ele>224.0</ele><time>2026-04-25T14:50:33.82Z</time></trkpt><trkpt lat="44.0227983" lon="11.140425"><ele>224.0</ele><time>2026-04-25T14:50:34.827Z</time></trkpt><trkpt lat="44.0226667" lon="11.1403333"><ele>224.0</ele><time>2026-04-25T14:50:35.833Z</time></trkpt><trkpt lat="44.022535" lon="11.1402417"><ele>224.0</ele><time>2026-04-25T14:50:36.84Z</time></trkpt><trkpt lat="44.02241" lon="11.1401533"><ele>224.0</ele><time>2026-04-25T14:50:37.847Z</time></trkpt><trkpt lat="44.02229" lon="11.1400683"><ele>224.0</ele><time>2026-04-25T14:50:38.853Z</time></trkpt><trkpt lat="44.022175" lon="11.1399883"><ele>224.0</ele><time>2026-04-25T14:50:39.859Z</time></trkpt><trkpt lat="44.022055" lon="11.1399017"><ele>224.0</ele><time>2026-04-25T14:50:40.867Z</time></trkpt><trkpt lat="44.0219267" lon="11.139835"><ele>224.0</ele><time>2026-04-25T14:50:41.873Z</time></trkpt><trkpt lat="44.0217883" lon="11.13978"><ele>224.0</ele><time>2026-04-25T14:50:42.879Z</time></trkpt><trkpt lat="44.0216417" lon="11.13975"><ele>224.0</ele><time>2026-04-25T14:50:43.819Z</time></trkpt><trkpt lat="44.02149" lon="11.1397417"><ele>224.0</ele><time>2026-04-25T14:50:44.826Z</time></trkpt><trkpt lat="44.0213367" lon="11.1397483"><ele>225.75</ele><time>2026-04-25T14:50:45.833Z</time></trkpt><trkpt lat="44.0211867" lon="11.1397683"><ele>227.5</ele><time>2026-04-25T14:50:46.839Z</time></trkpt><trkpt lat="44.02104" lon="11.1397917"><ele>229.25</ele><time>2026-04-25T14:50:47.913Z</time></trkpt><trkpt lat="44.0208917" lon="11.1398133"><ele>231.0</ele><time>2026-04-25T14:50:48.853Z</time></trkpt><trkpt lat="44.0207517" lon="11.1398333"><ele>228.25</ele><time>2026-04-25T14:50:49.859Z</time></trkpt><trkpt lat="44.0206133" lon="11.1398483"><ele>225.5</ele><time>2026-04-25T14:50:50.866Z</time></trkpt><trkpt lat="44.02048" lon="11.13986"><ele>222.75</ele><time>2026-04-25T14:50:51.872Z</time></trkpt><trkpt lat="44.0203433" lon="11.1398717"><ele>220.0</ele><time>2026-04-25T14:50:52.879Z</time></trkpt><trkpt lat="44.0202067" lon="11.1399033"><ele>220.0</ele><time>2026-04-25T14:50:53.819Z</time></trkpt><trkpt lat="44.020065" lon="11.1399433"><ele>220.0</ele><time>2026-04-25T14:50:54.824Z</time></trkpt><trkpt lat="44.0199283" lon="11.139995"><ele>220.0</ele><time>2026-04-25T14:50:55.899Z</time></trkpt><trkpt lat="44.0197817" lon="11.1400783"><ele>220.0</ele><time>2026-04-25T14:50:56.906Z</time></trkpt><trkpt lat="44.0196333" lon="11.1402017"><ele>229.0</ele><time>2026-04-25T14:50:57.911Z</time></trkpt><trkpt lat="44.0194867" lon="11.140335"><ele>238.0</ele><time>2026-04-25T14:50:58.851Z</time></trkpt><trkpt lat="44.0193467" lon="11.1404617"><ele>247.0</ele><time>2026-04-25T14:50:59.858Z</time></trkpt><trkpt lat="44.01921" lon="11.1405817"><ele>244.0</ele><time>2026-04-25T14:51:00.865Z</time></trkpt><trkpt lat="44.0190733" lon="11.140705"><ele>241.0</ele><time>2026-04-25T14:51:01.871Z</time></trkpt><trkpt lat="44.01893" lon="11.140835"><ele>238.0</ele><time>2026-04-25T14:51:02.811Z</time></trkpt><trkpt lat="44.0187717" lon="11.1409767"><ele>238.0</ele><time>2026-04-25T14:51:03.818Z</time></trkpt><trkpt lat="44.0186017" lon="11.1411117"><ele>238.0</ele><time>2026-04-25T14:51:04.892Z</time></trkpt><trkpt lat="44.0184367" lon="11.141225"><ele>238.0</ele><time>2026-04-25T14:51:05.898Z</time></trkpt><trkpt lat="44.0182783" lon="11.1413217"><ele>239.66666666666666</ele><time>2026-04-25T14:51:06.905Z</time></trkpt><trkpt lat="44.0181267" lon="11.1414067"><ele>241.33333333333331</ele><time>2026-04-25T14:51:07.844Z</time></trkpt><trkpt lat="44.01798" lon="11.1414967"><ele>243.0</ele><time>2026-04-25T14:51:08.85Z</time></trkpt><trkpt lat="44.0178417" lon="11.1416117"><ele>246.66666666666669</ele><time>2026-04-25T14:51:09.857Z</time></trkpt><trkpt lat="44.0177083" lon="11.1417533"><ele>250.33333333333334</ele><time>2026-04-25T14:51:10.864Z</time></trkpt><trkpt lat="44.017575" lon="11.14189"><ele>254.0</ele><time>2026-04-25T14:51:11.871Z</time></trkpt><trkpt lat="44.0174383" lon="11.142025"><ele>254.0</ele><time>2026-04-25T14:51:12.878Z</time></trkpt><trkpt lat="44.0172983" lon="11.1421533"><ele>254.0</ele><time>2026-04-25T14:51:13.883Z</time></trkpt><trkpt lat="44.0171667" lon="11.1422717"><ele>254.0</ele><time>2026-04-25T14:51:14.89Z</time></trkpt><trkpt lat="44.0170433" lon="11.1423867"><ele>251.75</ele><time>2026-04-25T14:51:15.897Z</time></trkpt><trkpt lat="44.0169167" lon="11.1424967"><ele>249.5</ele><time>2026-04-25T14:51:16.904Z</time></trkpt><trkpt lat="44.0167967" lon="11.1426133"><ele>247.25</ele><time>2026-04-25T14:51:17.844Z</time></trkpt><trkpt lat="44.016675" lon="11.1427283"><ele>245.0</ele><time>2026-04-25T14:51:18.85Z</time></trkpt><trkpt lat="44.0165433" lon="11.1428533"><ele>245.0</ele><time>2026-04-25T14:51:19.856Z</time></trkpt><trkpt lat="44.0164067" lon="11.1429417"><ele>245.0</ele><time>2026-04-25T14:51:20.863Z</time></trkpt><trkpt lat="44.0162683" lon="11.1430183"><ele>245.0</ele><time>2026-04-25T14:51:21.87Z</time></trkpt><trkpt lat="44.0161217" lon="11.1431033"><ele>245.0</ele><time>2026-04-25T14:51:22.877Z</time></trkpt><trkpt lat="44.01597" lon="11.143195"><ele>245.0</ele><time>2026-04-25T14:51:23.883Z</time></trkpt><trkpt lat="44.0158217" lon="11.1432883"><ele>245.0</ele><time>2026-04-25T14:51:24.889Z</time></trkpt><trkpt lat="44.0156767" lon="11.1433717"><ele>236.66666666666669</ele><time>2026-04-25T14:51:25.897Z</time></trkpt><trkpt lat="44.0155333" lon="11.1434683"><ele>228.33333333333331</ele><time>2026-04-25T14:51:26.903Z</time></trkpt><trkpt lat="44.0153967" lon="11.14354"><ele>220.0</ele><time>2026-04-25T14:51:27.843Z</time></trkpt><trkpt lat="44.0152533" lon="11.1435917"><ele>220.0</ele><time>2026-04-25T14:51:28.849Z</time></trkpt><trkpt lat="44.0150967" lon="11.1436333"><ele>220.0</ele><time>2026-04-25T14:51:29.855Z</time></trkpt><trkpt lat="44.0149367" lon="11.1436717"><ele>220.0</ele><time>2026-04-25T14:51:30.863Z</time></trkpt><trkpt lat="44.01477" lon="11.1437033"><ele>222.66666666666666</ele><time>2026-04-25T14:51:31.869Z</time></trkpt><trkpt lat="44.0146083" lon="11.1437383"><ele>225.33333333333331</ele><time>2026-04-25T14:51:32.876Z</time></trkpt><trkpt lat="44.0144483" lon="11.14377"><ele>228.0</ele><time>2026-04-25T14:51:33.883Z</time></trkpt><trkpt lat="44.0142933" lon="11.1437983"><ele>234.33333333333331</ele><time>2026-04-25T14:51:34.889Z</time></trkpt><trkpt lat="44.0141383" lon="11.1438183"><ele>240.66666666666666</ele><time>2026-04-25T14:51:35.896Z</time></trkpt><trkpt lat="44.0139817" lon="11.143835"><ele>247.0</ele><time>2026-04-25T14:51:36.902Z</time></trkpt><trkpt lat="44.0138217" lon="11.14385"><ele>247.0</ele><time>2026-04-25T14:51:37.842Z</time></trkpt><trkpt lat="44.0136583" lon="11.1438783"><ele>247.0</ele><time>2026-04-25T14:51:38.849Z</time></trkpt><trkpt lat="44.0135" lon="11.143915"><ele>247.0</ele><time>2026-04-25T14:51:39.855Z</time></trkpt><trkpt lat="44.0133533" lon="11.1439667"><ele>245.0</ele><time>2026-04-25T14:51:40.862Z</time></trkpt><trkpt lat="44.01321" lon="11.14406"><ele>243.0</ele><time>2026-04-25T14:51:41.869Z</time></trkpt><trkpt lat="44.0130783" lon="11.14426"><ele>241.0</ele><time>2026-04-25T14:51:42.875Z</time></trkpt><trkpt lat="44.0129367" lon="11.1444517"><ele>241.0</ele><time>2026-04-25T14:51:43.882Z</time></trkpt><trkpt lat="44.0128" lon="11.1446617"><ele>241.0</ele><time>2026-04-25T14:51:44.887Z</time></trkpt><trkpt lat="44.0126717" lon="11.1448383"><ele>241.0</ele><time>2026-04-25T14:51:45.895Z</time></trkpt><trkpt lat="44.0125533" lon="11.145015"><ele>235.75</ele><time>2026-04-25T14:51:46.835Z</time></trkpt><trkpt lat="44.0124467" lon="11.1451483"><ele>230.5</ele><time>2026-04-25T14:51:47.841Z</time></trkpt><trkpt lat="44.0123367" lon="11.1452583"><ele>225.25</ele><time>2026-04-25T14:51:48.848Z</time></trkpt><trkpt lat="44.0122117" lon="11.1453417"><ele>220.0</ele><time>2026-04-25T14:51:49.854Z</time></trkpt><trkpt lat="44.0120817" lon="11.1454"><ele>220.0</ele><time>2026-04-25T14:51:50.861Z</time></trkpt><trkpt lat="44.0119383" lon="11.1454117"><ele>220.0</ele><time>2026-04-25T14:51:51.868Z</time></trkpt><trkpt lat="44.0117767" lon="11.145365"><ele>220.0</ele><time>2026-04-25T14:51:52.874Z</time></trkpt><trkpt lat="44.01161" lon="11.1452717"><ele>216.33333333333331</ele><time>2026-04-25T14:51:53.881Z</time></trkpt><trkpt lat="44.0114483" lon="11.1451683"><ele>212.66666666666669</ele><time>2026-04-25T14:51:54.887Z</time></trkpt><trkpt lat="44.0112967" lon="11.1450983"><ele>209.0</ele><time>2026-04-25T14:51:55.894Z</time></trkpt><trkpt lat="44.0111583" lon="11.1450233"><ele>209.0</ele><time>2026-04-25T14:51:56.833Z</time></trkpt><trkpt lat="44.011025" lon="11.1449233"><ele>209.0</ele><time>2026-04-25T14:51:57.84Z</time></trkpt><trkpt lat="44.0109017" lon="11.1447717"><ele>209.0</ele><time>2026-04-25T14:51:58.847Z</time></trkpt><trkpt lat="44.0107783" lon="11.1446233"><ele>207.0</ele><time>2026-04-25T14:51:59.854Z</time></trkpt><trkpt lat="44.0106633" lon="11.1444467"><ele>205.0</ele><time>2026-04-25T14:52:00.86Z</time></trkpt><trkpt lat="44.0105333" lon="11.14426"><ele>203.0</ele><time>2026-04-25T14:52:01.867Z</time></trkpt><trkpt lat="44.0103967" lon="11.1440533"><ele>203.0</ele><time>2026-04-25T14:52:02.873Z</time></trkpt><trkpt lat="44.0102483" lon="11.14386"><ele>203.0</ele><time>2026-04-25T14:52:03.88Z</time></trkpt><trkpt lat="44.0101117" lon="11.14368"><ele>203.0</ele><time>2026-04-25T14:52:04.887Z</time></trkpt><trkpt lat="44.0099867" lon="11.1435117"><ele>203.0</ele><time>2026-04-25T14:52:05.894Z</time></trkpt><trkpt lat="44.0098717" lon="11.1433517"><ele>203.0</ele><time>2026-04-25T14:52:06.833Z</time></trkpt><trkpt lat="44.0097583" lon="11.143205"><ele>203.0</ele><time>2026-04-25T14:52:07.84Z</time></trkpt><trkpt lat="44.0096417" lon="11.1430683"><ele>209.33333333333334</ele><time>2026-04-25T14:52:08.846Z</time></trkpt><trkpt lat="44.0095183" lon="11.1429467"><ele>215.66666666666669</ele><time>2026-04-25T14:52:09.853Z</time></trkpt><trkpt lat="44.0093833" lon="11.142835"><ele>222.0</ele><time>2026-04-25T14:52:10.86Z</time></trkpt><trkpt lat="44.00924" lon="11.1427233"><ele>216.66666666666669</ele><time>2026-04-25T14:52:11.866Z</time></trkpt><trkpt lat="44.00909" lon="11.1426233"><ele>211.33333333333334</ele><time>2026-04-25T14:52:12.872Z</time></trkpt><trkpt lat="44.0089383" lon="11.1425267"><ele>206.0</ele><time>2026-04-25T14:52:13.878Z</time></trkpt><trkpt lat="44.00877" lon="11.1424467"><ele>206.0</ele><time>2026-04-25T14:52:14.886Z</time></trkpt><trkpt lat="44.008585" lon="11.1423883"><ele>206.0</ele><time>2026-04-25T14:52:15.893Z</time></trkpt><trkpt lat="44.0083983" lon="11.1423533"><ele>206.0</ele><time>2026-04-25T14:52:16.831Z</time></trkpt><trkpt lat="44.0082317" lon="11.1423433"><ele>208.0</ele><time>2026-04-25T14:52:17.839Z</time></trkpt><trkpt lat="44.0080917" lon="11.1423283"><ele>210.0</ele><time>2026-04-25T14:52:18.846Z</time></trkpt><trkpt lat="44.0079667" lon="11.1423033"><ele>212.0</ele><time>2026-04-25T14:52:19.852Z</time></trkpt><trkpt lat="44.0078533" lon="11.1422567"><ele>214.0</ele><time>2026-04-25T14:52:20.859Z</time></trkpt><trkpt lat="44.0077467" lon="11.1421867"><ele>214.0</ele><time>2026-04-25T14:52:21.864Z</time></trkpt><trkpt lat="44.0076583" lon="11.1420467"><ele>214.0</ele><time>2026-04-25T14:52:22.872Z</time></trkpt><trkpt lat="44.0075733" lon="11.14189"><ele>214.0</ele><time>2026-04-25T14:52:23.878Z</time></trkpt><trkpt lat="44.0074833" lon="11.14172"><ele>214.0</ele><time>2026-04-25T14:52:24.885Z</time></trkpt><trkpt lat="44.00738" lon="11.1415517"><ele>211.0</ele><time>2026-04-25T14:52:25.892Z</time></trkpt><trkpt lat="44.0072583" lon="11.1414033"><ele>208.0</ele><time>2026-04-25T14:52:26.83Z</time></trkpt><trkpt lat="44.0071317" lon="11.14127"><ele>205.0</ele><time>2026-04-25T14:52:27.838Z</time></trkpt><trkpt lat="44.0070033" lon="11.14115"><ele>205.0</ele><time>2026-04-25T14:52:28.845Z</time></trkpt><trkpt lat="44.0068783" lon="11.14104"><ele>205.0</ele><time>2026-04-25T14:52:29.851Z</time></trkpt><trkpt lat="44.0067567" lon="11.14093"><ele>205.0</ele><time>2026-04-25T14:52:30.857Z</time></trkpt><trkpt lat="44.0066383" lon="11.1408133"><ele>205.0</ele><time>2026-04-25T14:52:31.865Z</time></trkpt><trkpt lat="44.0065267" lon="11.1406867"><ele>203.0</ele><time>2026-04-25T14:52:32.87Z</time></trkpt><trkpt lat="44.0064367" lon="11.1405333"><ele>201.0</ele><time>2026-04-25T14:52:33.877Z</time></trkpt><trkpt lat="44.0063483" lon="11.1403517"><ele>199.0</ele><time>2026-04-25T14:52:34.885Z</time></trkpt><trkpt lat="44.00628" lon="11.1401667"><ele>199.0</ele><time>2026-04-25T14:52:35.824Z</time></trkpt><trkpt lat="44.0061933" lon="11.1399917"><ele>199.0</ele><time>2026-04-25T14:52:36.831Z</time></trkpt><trkpt lat="44.0061" lon="11.139845"><ele>199.0</ele><time>2026-04-25T14:52:37.837Z</time></trkpt><trkpt lat="44.0060067" lon="11.1397233"><ele>199.0</ele><time>2026-04-25T14:52:38.844Z</time></trkpt><trkpt lat="44.0058983" lon="11.1396367"><ele>201.5</ele><time>2026-04-25T14:52:39.851Z</time></trkpt><trkpt lat="44.0057733" lon="11.1395633"><ele>204.0</ele><time>2026-04-25T14:52:40.856Z</time></trkpt><trkpt lat="44.0056433" lon="11.1395033"><ele>206.5</ele><time>2026-04-25T14:52:41.863Z</time></trkpt><trkpt lat="44.0055033" lon="11.1394567"><ele>209.0</ele><time>2026-04-25T14:52:42.87Z</time></trkpt><trkpt lat="44.005365" lon="11.13942"><ele>209.0</ele><time>2026-04-25T14:52:43.877Z</time></trkpt><trkpt lat="44.0052317" lon="11.13939"><ele>209.0</ele><time>2026-04-25T14:52:44.884Z</time></trkpt><trkpt lat="44.0050933" lon="11.1393867"><ele>209.0</ele><time>2026-04-25T14:52:45.822Z</time></trkpt><trkpt lat="44.0049467" lon="11.139405"><ele>209.0</ele><time>2026-04-25T14:52:46.83Z</time></trkpt><trkpt lat="44.0047933" lon="11.1394417"><ele>213.66666666666669</ele><time>2026-04-25T14:52:47.837Z</time></trkpt><trkpt lat="44.0046367" lon="11.1394983"><ele>218.33333333333331</ele><time>2026-04-25T14:52:48.842Z</time></trkpt><trkpt lat="44.0044783" lon="11.1395733"><ele>223.0</ele><time>2026-04-25T14:52:49.85Z</time></trkpt><trkpt lat="44.00431" lon="11.139665"><ele>223.33333333333331</ele><time>2026-04-25T14:52:50.856Z</time></trkpt><trkpt lat="44.0041433" lon="11.1397583"><ele>223.66666666666669</ele><time>2026-04-25T14:52:51.863Z</time></trkpt><trkpt lat="44.0039883" lon="11.1398367"><ele>224.0</ele><time>2026-04-25T14:52:52.87Z</time></trkpt><trkpt lat="44.0038483" lon="11.1399017"><ele>218.25</ele><time>2026-04-25T14:52:53.876Z</time></trkpt><trkpt lat="44.003715" lon="11.1399583"><ele>212.5</ele><time>2026-04-25T14:52:54.883Z</time></trkpt><trkpt lat="44.0035833" lon="11.1400233"><ele>206.75</ele><time>2026-04-25T14:52:55.823Z</time></trkpt><trkpt lat="44.0034617" lon="11.140075"><ele>201.0</ele><time>2026-04-25T14:52:56.829Z</time></trkpt><trkpt lat="44.0033383" lon="11.1401217"><ele>199.0</ele><time>2026-04-25T14:52:57.835Z</time></trkpt><trkpt lat="44.003215" lon="11.1401733"><ele>197.0</ele><time>2026-04-25T14:52:58.842Z</time></trkpt><trkpt lat="44.0030967" lon="11.1402017"><ele>195.0</ele><time>2026-04-25T14:52:59.848Z</time></trkpt><trkpt lat="44.002975" lon="11.1402017"><ele>193.0</ele><time>2026-04-25T14:53:00.856Z</time></trkpt><trkpt lat="44.0028417" lon="11.1402167"><ele>193.0</ele><time>2026-04-25T14:53:01.862Z</time></trkpt><trkpt lat="44.0027183" lon="11.1402033"><ele>193.0</ele><time>2026-04-25T14:53:02.868Z</time></trkpt><trkpt lat="44.002585" lon="11.1402017"><ele>193.0</ele><time>2026-04-25T14:53:03.875Z</time></trkpt><trkpt lat="44.00246" lon="11.1401983"><ele>193.0</ele><time>2026-04-25T14:53:04.882Z</time></trkpt><trkpt lat="44.002345" lon="11.14019"><ele>193.2</ele><time>2026-04-25T14:53:05.822Z</time></trkpt><trkpt lat="44.0022367" lon="11.1401767"><ele>193.4</ele><time>2026-04-25T14:53:06.828Z</time></trkpt><trkpt lat="44.0021367" lon="11.140165"><ele>193.6</ele><time>2026-04-25T14:53:07.834Z</time></trkpt><trkpt lat="44.002035" lon="11.1401533"><ele>193.79999999999998</ele><time>2026-04-25T14:53:08.842Z</time></trkpt><trkpt lat="44.00193" lon="11.140145"><ele>194.0</ele><time>2026-04-25T14:53:09.848Z</time></trkpt><trkpt lat="44.0018167" lon="11.1401517"><ele>194.0</ele><time>2026-04-25T14:53:10.855Z</time></trkpt><trkpt lat="44.00169" lon="11.1401717"><ele>194.0</ele><time>2026-04-25T14:53:11.862Z</time></trkpt><trkpt lat="44.00155" lon="11.1402133"><ele>194.0</ele><time>2026-04-25T14:53:12.867Z</time></trkpt><trkpt lat="44.001395" lon="11.140275"><ele>194.0</ele><time>2026-04-25T14:53:13.874Z</time></trkpt><trkpt lat="44.0012467" lon="11.140345"><ele>196.5</ele><time>2026-04-25T14:53:14.88Z</time></trkpt><trkpt lat="44.0011017" lon="11.140425"><ele>199.0</ele><time>2026-04-25T14:53:15.821Z</time></trkpt><trkpt lat="44.000965" lon="11.1404883"><ele>201.5</ele><time>2026-04-25T14:53:16.828Z</time></trkpt><trkpt lat="44.0008267" lon="11.1405567"><ele>204.0</ele><time>2026-04-25T14:53:17.834Z</time></trkpt><trkpt lat="44.0006867" lon="11.14063"><ele>206.0</ele><time>2026-04-25T14:53:18.908Z</time></trkpt><trkpt lat="44.00055" lon="11.1406967"><ele>208.0</ele><time>2026-04-25T14:53:19.915Z</time></trkpt><trkpt lat="44.000415" lon="11.140755"><ele>210.0</ele><time>2026-04-25T14:53:20.854Z</time></trkpt><trkpt lat="44.0002783" lon="11.140805"><ele>212.0</ele><time>2026-04-25T14:53:21.861Z</time></trkpt><trkpt lat="44.0001433" lon="11.1408467"><ele>207.25</ele><time>2026-04-25T14:53:22.867Z</time></trkpt><trkpt lat="44.0000067" lon="11.1408817"><ele>202.5</ele><time>2026-04-25T14:53:23.873Z</time></trkpt><trkpt lat="43.99987" lon="11.140915"><ele>197.75</ele><time>2026-04-25T14:53:24.814Z</time></trkpt><trkpt lat="43.9997417" lon="11.14094"><ele>193.0</ele><time>2026-04-25T14:53:25.82Z</time></trkpt><trkpt lat="43.999615" lon="11.1409617"><ele>193.0</ele><time>2026-04-25T14:53:26.894Z</time></trkpt><trkpt lat="43.9994867" lon="11.14098"><ele>193.0</ele><time>2026-04-25T14:53:27.901Z</time></trkpt><trkpt lat="43.999365" lon="11.140995"><ele>193.0</ele><time>2026-04-25T14:53:28.906Z</time></trkpt><trkpt lat="43.9992517" lon="11.141"><ele>193.0</ele><time>2026-04-25T14:53:29.846Z</time></trkpt><trkpt lat="43.99914" lon="11.141005"><ele>193.5</ele><time>2026-04-25T14:53:30.852Z</time></trkpt><trkpt lat="43.9990317" lon="11.1409817"><ele>194.0</ele><time>2026-04-25T14:53:31.86Z</time></trkpt><trkpt lat="43.9989267" lon="11.1409267"><ele>194.5</ele><time>2026-04-25T14:53:32.867Z</time></trkpt><trkpt lat="43.998815" lon="11.14083"><ele>195.0</ele><time>2026-04-25T14:53:33.872Z</time></trkpt><trkpt lat="43.9987133" lon="11.14071"><ele>196.0</ele><time>2026-04-25T14:53:34.812Z</time></trkpt><trkpt lat="43.9986117" lon="11.1406033"><ele>197.0</ele><time>2026-04-25T14:53:35.886Z</time></trkpt><trkpt lat="43.9985133" lon="11.14049"><ele>198.0</ele><time>2026-04-25T14:53:36.892Z</time></trkpt><trkpt lat="43.998405" lon="11.1403817"><ele>199.0</ele><time>2026-04-25T14:53:37.9Z</time></trkpt><trkpt lat="43.9982883" lon="11.1402833"><ele>199.0</ele><time>2026-04-25T14:53:38.906Z</time></trkpt><trkpt lat="43.99815" lon="11.1401983"><ele>199.0</ele><time>2026-04-25T14:53:39.846Z</time></trkpt><trkpt lat="43.998025" lon="11.140115"><ele>199.0</ele><time>2026-04-25T14:53:40.853Z</time></trkpt><trkpt lat="43.9979033" lon="11.1400433"><ele>199.0</ele><time>2026-04-25T14:53:41.858Z</time></trkpt><trkpt lat="43.997785" lon="11.1399683"><ele>199.0</ele><time>2026-04-25T14:53:42.866Z</time></trkpt><trkpt lat="43.9976683" lon="11.1398917"><ele>199.0</ele><time>2026-04-25T14:53:43.872Z</time></trkpt><trkpt lat="43.9975567" lon="11.1398267"><ele>199.0</ele><time>2026-04-25T14:53:44.878Z</time></trkpt><trkpt lat="43.9974517" lon="11.13976"><ele>199.0</ele><time>2026-04-25T14:53:45.886Z</time></trkpt><trkpt lat="43.997355" lon="11.1396933"><ele>198.75</ele><time>2026-04-25T14:53:46.892Z</time></trkpt><trkpt lat="43.9972517" lon="11.1396367"><ele>198.5</ele><time>2026-04-25T14:53:47.898Z</time></trkpt><trkpt lat="43.9971433" lon="11.1395783"><ele>198.25</ele><time>2026-04-25T14:53:48.905Z</time></trkpt><trkpt lat="43.9970367" lon="11.139515"><ele>198.0</ele><time>2026-04-25T14:53:49.845Z</time></trkpt><trkpt lat="43.996935" lon="11.1394583"><ele>198.0</ele><time>2026-04-25T14:53:50.852Z</time></trkpt><trkpt lat="43.9968267" lon="11.1394167"><ele>198.0</ele><time>2026-04-25T14:53:51.858Z</time></trkpt><trkpt lat="43.9967317" lon="11.1393683"><ele>198.0</ele><time>2026-04-25T14:53:52.864Z</time></trkpt><trkpt lat="43.9966467" lon="11.139335"><ele>198.0</ele><time>2026-04-25T14:53:53.872Z</time></trkpt><trkpt lat="43.9965633" lon="11.1392983"><ele>198.0</ele><time>2026-04-25T14:53:54.878Z</time></trkpt><trkpt lat="43.996475" lon="11.139265"><ele>195.33333333333334</ele><time>2026-04-25T14:53:55.884Z</time></trkpt><trkpt lat="43.9963767" lon="11.1392267"><ele>192.66666666666669</ele><time>2026-04-25T14:53:56.891Z</time></trkpt><trkpt lat="43.99626" lon="11.13918"><ele>190.0</ele><time>2026-04-25T14:53:57.898Z</time></trkpt><trkpt lat="43.9959967" lon="11.1390683"><ele>192.75</ele><time>2026-04-25T14:53:59.844Z</time></trkpt><trkpt lat="43.9958583" lon="11.13901"><ele>195.5</ele><time>2026-04-25T14:54:00.851Z</time></trkpt><trkpt lat="43.9957167" lon="11.1389417"><ele>198.25</ele><time>2026-04-25T14:54:01.858Z</time></trkpt><trkpt lat="43.9955767" lon="11.1388733"><ele>201.0</ele><time>2026-04-25T14:54:02.864Z</time></trkpt><trkpt lat="43.99544" lon="11.1387983"><ele>201.0</ele><time>2026-04-25T14:54:03.871Z</time></trkpt><trkpt lat="43.995305" lon="11.1387183"><ele>201.0</ele><time>2026-04-25T14:54:04.878Z</time></trkpt><trkpt lat="43.9951667" lon="11.1386367"><ele>201.0</ele><time>2026-04-25T14:54:05.884Z</time></trkpt><trkpt lat="43.9950317" lon="11.1385467"><ele>201.0</ele><time>2026-04-25T14:54:06.891Z</time></trkpt><trkpt lat="43.9948883" lon="11.1384583"><ele>198.33333333333331</ele><time>2026-04-25T14:54:07.897Z</time></trkpt><trkpt lat="43.994745" lon="11.1383683"><ele>195.66666666666666</ele><time>2026-04-25T14:54:08.837Z</time></trkpt><trkpt lat="43.9945967" lon="11.138285"><ele>193.0</ele><time>2026-04-25T14:54:09.844Z</time></trkpt><trkpt lat="43.9944267" lon="11.1381967"><ele>202.66666666666666</ele><time>2026-04-25T14:54:10.849Z</time></trkpt><trkpt lat="43.9942517" lon="11.1381083"><ele>212.33333333333331</ele><time>2026-04-25T14:54:11.857Z</time></trkpt><trkpt lat="43.99409" lon="11.13802"><ele>222.0</ele><time>2026-04-25T14:54:12.863Z</time></trkpt><trkpt lat="43.9939367" lon="11.1379367"><ele>222.0</ele><time>2026-04-25T14:54:13.87Z</time></trkpt><trkpt lat="43.9937883" lon="11.1378617"><ele>222.0</ele><time>2026-04-25T14:54:14.877Z</time></trkpt><trkpt lat="43.99365" lon="11.1377917"><ele>222.0</ele><time>2026-04-25T14:54:15.883Z</time></trkpt><trkpt lat="43.9935067" lon="11.1377283"><ele>222.0</ele><time>2026-04-25T14:54:16.89Z</time></trkpt><trkpt lat="43.993365" lon="11.1376733"><ele>222.0</ele><time>2026-04-25T14:54:17.897Z</time></trkpt><trkpt lat="43.993225" lon="11.1376167"><ele>222.0</ele><time>2026-04-25T14:54:18.835Z</time></trkpt><trkpt lat="43.993085" lon="11.1375617"><ele>222.0</ele><time>2026-04-25T14:54:19.843Z</time></trkpt><trkpt lat="43.9929433" lon="11.13751"><ele>225.5</ele><time>2026-04-25T14:54:20.849Z</time></trkpt><trkpt lat="43.9928067" lon="11.13747"><ele>229.0</ele><time>2026-04-25T14:54:21.856Z</time></trkpt><trkpt lat="43.992665" lon="11.1374333"><ele>232.5</ele><time>2026-04-25T14:54:22.863Z</time></trkpt><trkpt lat="43.9925267" lon="11.1374017"><ele>236.0</ele><time>2026-04-25T14:54:23.869Z</time></trkpt><trkpt lat="43.992385" lon="11.1373783"><ele>236.0</ele><time>2026-04-25T14:54:24.876Z</time></trkpt><trkpt lat="43.9922433" lon="11.13736"><ele>236.0</ele><time>2026-04-25T14:54:25.883Z</time></trkpt><trkpt lat="43.992105" lon="11.13735"><ele>236.0</ele><time>2026-04-25T14:54:26.889Z</time></trkpt><trkpt lat="43.9919667" lon="11.13734"><ele>236.0</ele><time>2026-04-25T14:54:27.895Z</time></trkpt><trkpt lat="43.9918183" lon="11.13734"><ele>236.0</ele><time>2026-04-25T14:54:28.834Z</time></trkpt><trkpt lat="43.9916783" lon="11.1373333"><ele>236.0</ele><time>2026-04-25T14:54:29.841Z</time></trkpt><trkpt lat="43.99155" lon="11.1372717"><ele>236.0</ele><time>2026-04-25T14:54:30.849Z</time></trkpt><trkpt lat="43.9914133" lon="11.1372333"><ele>236.0</ele><time>2026-04-25T14:54:31.855Z</time></trkpt><trkpt lat="43.991285" lon="11.1371583"><ele>231.0</ele><time>2026-04-25T14:54:32.862Z</time></trkpt><trkpt lat="43.9911617" lon="11.137105"><ele>226.0</ele><time>2026-04-25T14:54:33.868Z</time></trkpt><trkpt lat="43.9910367" lon="11.13706"><ele>221.0</ele><time>2026-04-25T14:54:34.875Z</time></trkpt><trkpt lat="43.9909067" lon="11.1370117"><ele>216.0</ele><time>2026-04-25T14:54:35.882Z</time></trkpt><trkpt lat="43.990775" lon="11.1369633"><ele>210.25</ele><time>2026-04-25T14:54:36.887Z</time></trkpt><trkpt lat="43.99064" lon="11.1369033"><ele>204.5</ele><time>2026-04-25T14:54:37.895Z</time></trkpt><trkpt lat="43.9905033" lon="11.13685"><ele>198.75</ele><time>2026-04-25T14:54:38.834Z</time></trkpt><trkpt lat="43.9903617" lon="11.1367983"><ele>193.0</ele><time>2026-04-25T14:54:39.841Z</time></trkpt><trkpt lat="43.9902167" lon="11.1367617"><ele>193.0</ele><time>2026-04-25T14:54:40.847Z</time></trkpt><trkpt lat="43.9900633" lon="11.1367233"><ele>193.0</ele><time>2026-04-25T14:54:41.855Z</time></trkpt><trkpt lat="43.98991" lon="11.1366817"><ele>193.0</ele><time>2026-04-25T14:54:42.861Z</time></trkpt><trkpt lat="43.98976" lon="11.13665"><ele>190.66666666666666</ele><time>2026-04-25T14:54:43.868Z</time></trkpt><trkpt lat="43.9896033" lon="11.1366067"><ele>188.33333333333331</ele><time>2026-04-25T14:54:44.874Z</time></trkpt><trkpt lat="43.98945" lon="11.13657"><ele>186.0</ele><time>2026-04-25T14:54:45.881Z</time></trkpt><trkpt lat="43.9893033" lon="11.1365283"><ele>187.25</ele><time>2026-04-25T14:54:46.888Z</time></trkpt><trkpt lat="43.989165" lon="11.1364733"><ele>188.5</ele><time>2026-04-25T14:54:47.893Z</time></trkpt><trkpt lat="43.9890417" lon="11.1363933"><ele>189.75</ele><time>2026-04-25T14:54:48.834Z</time></trkpt><trkpt lat="43.988925" lon="11.13628"><ele>191.0</ele><time>2026-04-25T14:54:49.84Z</time></trkpt><trkpt lat="43.9888183" lon="11.1361533"><ele>191.0</ele><time>2026-04-25T14:54:50.847Z</time></trkpt><trkpt lat="43.988725" lon="11.1360133"><ele>191.0</ele><time>2026-04-25T14:54:51.854Z</time></trkpt><trkpt lat="43.9886433" lon="11.1358583"><ele>191.0</ele><time>2026-04-25T14:54:52.86Z</time></trkpt><trkpt lat="43.9885833" lon="11.1356983"><ele>191.0</ele><time>2026-04-25T14:54:53.867Z</time></trkpt><trkpt lat="43.988545" lon="11.135545"><ele>192.60000000000002</ele><time>2026-04-25T14:54:54.874Z</time></trkpt><trkpt lat="43.9885167" lon="11.1354067"><ele>194.2</ele><time>2026-04-25T14:54:55.88Z</time></trkpt><trkpt lat="43.9885017" lon="11.1352717"><ele>195.8</ele><time>2026-04-25T14:54:56.887Z</time></trkpt><trkpt lat="43.988495" lon="11.13513"><ele>197.39999999999998</ele><time>2026-04-25T14:54:57.826Z</time></trkpt><trkpt lat="43.9884983" lon="11.1349917"><ele>199.0</ele><time>2026-04-25T14:54:58.833Z</time></trkpt><trkpt lat="43.9885" lon="11.13484"><ele>202.25</ele><time>2026-04-25T14:54:59.84Z</time></trkpt><trkpt lat="43.9884917" lon="11.1346733"><ele>205.5</ele><time>2026-04-25T14:55:00.846Z</time></trkpt><trkpt lat="43.98847" lon="11.134485"><ele>208.75</ele><time>2026-04-25T14:55:01.853Z</time></trkpt><trkpt lat="43.9884367" lon="11.1342633"><ele>212.0</ele><time>2026-04-25T14:55:02.859Z</time></trkpt><trkpt lat="43.9883967" lon="11.13405"><ele>215.75</ele><time>2026-04-25T14:55:03.865Z</time></trkpt><trkpt lat="43.9883583" lon="11.1338417"><ele>219.5</ele><time>2026-04-25T14:55:04.872Z</time></trkpt><trkpt lat="43.9883217" lon="11.1336483"><ele>223.25</ele><time>2026-04-25T14:55:05.878Z</time></trkpt><trkpt lat="43.98829" lon="11.1334683"><ele>227.0</ele><time>2026-04-25T14:55:06.886Z</time></trkpt><trkpt lat="43.988255" lon="11.133295"><ele>220.5</ele><time>2026-04-25T14:55:07.825Z</time></trkpt><trkpt lat="43.98822" lon="11.133115"><ele>214.0</ele><time>2026-04-25T14:55:08.832Z</time></trkpt><trkpt lat="43.9881717" lon="11.13295"><ele>207.5</ele><time>2026-04-25T14:55:09.839Z</time></trkpt><trkpt lat="43.9881233" lon="11.1327933"><ele>201.0</ele><time>2026-04-25T14:55:10.846Z</time></trkpt><trkpt lat="43.98807" lon="11.1326367"><ele>201.0</ele><time>2026-04-25T14:55:11.851Z</time></trkpt><trkpt lat="43.988015" lon="11.1324817"><ele>201.0</ele><time>2026-04-25T14:55:12.859Z</time></trkpt><trkpt lat="43.9879417" lon="11.1323283"><ele>201.0</ele><time>2026-04-25T14:55:13.865Z</time></trkpt><trkpt lat="43.9878617" lon="11.1321717"><ele>201.0</ele><time>2026-04-25T14:55:14.872Z</time></trkpt><trkpt lat="43.9877683" lon="11.132015"><ele>200.25</ele><time>2026-04-25T14:55:15.878Z</time></trkpt><trkpt lat="43.9876583" lon="11.13187"><ele>199.5</ele><time>2026-04-25T14:55:16.885Z</time></trkpt><trkpt lat="43.9875483" lon="11.1317383"><ele>198.75</ele><time>2026-04-25T14:55:17.825Z</time></trkpt><trkpt lat="43.9874383" lon="11.1316183"><ele>198.0</ele><time>2026-04-25T14:55:18.831Z</time></trkpt><trkpt lat="43.9873267" lon="11.1315083"><ele>198.0</ele><time>2026-04-25T14:55:19.838Z</time></trkpt><trkpt lat="43.987225" lon="11.131405"><ele>198.0</ele><time>2026-04-25T14:55:20.845Z</time></trkpt><trkpt lat="43.987125" lon="11.131295"><ele>198.0</ele><time>2026-04-25T14:55:21.851Z</time></trkpt><trkpt lat="43.9870217" lon="11.13119"><ele>198.0</ele><time>2026-04-25T14:55:22.858Z</time></trkpt><trkpt lat="43.9869183" lon="11.1310883"><ele>198.0</ele><time>2026-04-25T14:55:23.865Z</time></trkpt><trkpt lat="43.986815" lon="11.13098"><ele>198.0</ele><time>2026-04-25T14:55:24.871Z</time></trkpt><trkpt lat="43.986715" lon="11.1308817"><ele>198.0</ele><time>2026-04-25T14:55:25.878Z</time></trkpt><trkpt lat="43.98662" lon="11.13078"><ele>198.0</ele><time>2026-04-25T14:55:26.885Z</time></trkpt><trkpt lat="43.9865383" lon="11.1306683"><ele>196.0</ele><time>2026-04-25T14:55:27.824Z</time></trkpt><trkpt lat="43.9864617" lon="11.1305517"><ele>194.0</ele><time>2026-04-25T14:55:28.831Z</time></trkpt><trkpt lat="43.986385" lon="11.130435"><ele>192.0</ele><time>2026-04-25T14:55:29.837Z</time></trkpt><trkpt lat="43.986305" lon="11.130335"><ele>190.0</ele><time>2026-04-25T14:55:30.844Z</time></trkpt><trkpt lat="43.9862317" lon="11.1302367"><ele>188.0</ele><time>2026-04-25T14:55:31.851Z</time></trkpt><trkpt lat="43.9861433" lon="11.130185"><ele>188.0</ele><time>2026-04-25T14:55:32.857Z</time></trkpt><trkpt lat="43.9860333" lon="11.1301917"><ele>188.0</ele><time>2026-04-25T14:55:33.864Z</time></trkpt><trkpt lat="43.985905" lon="11.1302217"><ele>188.0</ele><time>2026-04-25T14:55:34.871Z</time></trkpt><trkpt lat="43.985755" lon="11.130285"><ele>188.0</ele><time>2026-04-25T14:55:35.876Z</time></trkpt><trkpt lat="43.9856183" lon="11.13035"><ele>187.5</ele><time>2026-04-25T14:55:36.817Z</time></trkpt><trkpt lat="43.985485" lon="11.1304067"><ele>187.0</ele><time>2026-04-25T14:55:37.822Z</time></trkpt><trkpt lat="43.9853567" lon="11.1304633"><ele>186.5</ele><time>2026-04-25T14:55:38.83Z</time></trkpt><trkpt lat="43.98524" lon="11.1305133"><ele>186.0</ele><time>2026-04-25T14:55:39.837Z</time></trkpt><trkpt lat="43.9851233" lon="11.1305667"><ele>183.25</ele><time>2026-04-25T14:55:40.843Z</time></trkpt><trkpt lat="43.98501" lon="11.1306167"><ele>180.5</ele><time>2026-04-25T14:55:41.85Z</time></trkpt><trkpt lat="43.9848883" lon="11.1306683"><ele>177.75</ele><time>2026-04-25T14:55:42.856Z</time></trkpt><trkpt lat="43.9847617" lon="11.130705"><ele>175.0</ele><time>2026-04-25T14:55:43.862Z</time></trkpt><trkpt lat="43.9846317" lon="11.1307317"><ele>175.0</ele><time>2026-04-25T14:55:44.87Z</time></trkpt><trkpt lat="43.984485" lon="11.130735"><ele>175.0</ele><time>2026-04-25T14:55:45.876Z</time></trkpt><trkpt lat="43.9843367" lon="11.1307117"><ele>175.0</ele><time>2026-04-25T14:55:46.816Z</time></trkpt><trkpt lat="43.984185" lon="11.1306567"><ele>171.66666666666669</ele><time>2026-04-25T14:55:47.823Z</time></trkpt><trkpt lat="43.984025" lon="11.1305667"><ele>168.33333333333334</ele><time>2026-04-25T14:55:48.829Z</time></trkpt><trkpt lat="43.9838567" lon="11.1304483"><ele>165.0</ele><time>2026-04-25T14:55:49.903Z</time></trkpt><trkpt lat="43.9836867" lon="11.1302967"><ele>165.0</ele><time>2026-04-25T14:55:50.91Z</time></trkpt><trkpt lat="43.9835283" lon="11.1301267"><ele>165.0</ele><time>2026-04-25T14:55:51.849Z</time></trkpt><trkpt lat="43.9833717" lon="11.1299533"><ele>165.0</ele><time>2026-04-25T14:55:52.855Z</time></trkpt><trkpt lat="43.9832167" lon="11.12978"><ele>164.66666666666666</ele><time>2026-04-25T14:55:53.862Z</time></trkpt><trkpt lat="43.983065" lon="11.1296217"><ele>164.33333333333331</ele><time>2026-04-25T14:55:54.869Z</time></trkpt><trkpt lat="43.9829217" lon="11.1294667"><ele>164.0</ele><time>2026-04-25T14:55:55.876Z</time></trkpt><trkpt lat="43.9827883" lon="11.1293167"><ele>164.0</ele><time>2026-04-25T14:55:56.815Z</time></trkpt><trkpt lat="43.9826633" lon="11.1291733"><ele>164.0</ele><time>2026-04-25T14:55:57.888Z</time></trkpt><trkpt lat="43.9825383" lon="11.1290433"><ele>164.0</ele><time>2026-04-25T14:55:58.894Z</time></trkpt><trkpt lat="43.9824217" lon="11.1289183"><ele>163.5</ele><time>2026-04-25T14:55:59.902Z</time></trkpt><trkpt lat="43.9823117" lon="11.128795"><ele>163.0</ele><time>2026-04-25T14:56:00.908Z</time></trkpt><trkpt lat="43.98221" lon="11.1286783"><ele>162.5</ele><time>2026-04-25T14:56:01.848Z</time></trkpt><trkpt lat="43.9821133" lon="11.1285617"><ele>162.0</ele><time>2026-04-25T14:56:02.855Z</time></trkpt><trkpt lat="43.9820183" lon="11.1284467"><ele>162.0</ele><time>2026-04-25T14:56:03.862Z</time></trkpt><trkpt lat="43.9819267" lon="11.1283317"><ele>162.0</ele><time>2026-04-25T14:56:04.867Z</time></trkpt><trkpt lat="43.98184" lon="11.1282167"><ele>162.0</ele><time>2026-04-25T14:56:05.875Z</time></trkpt><trkpt lat="43.9817667" lon="11.1281"><ele>162.0</ele><time>2026-04-25T14:56:06.881Z</time></trkpt><trkpt lat="43.9817033" lon="11.1279833"><ele>162.16666666666666</ele><time>2026-04-25T14:56:07.887Z</time></trkpt><trkpt lat="43.98165" lon="11.1278683"><ele>162.33333333333334</ele><time>2026-04-25T14:56:08.894Z</time></trkpt><trkpt lat="43.9816067" lon="11.12776"><ele>162.5</ele><time>2026-04-25T14:56:09.901Z</time></trkpt><trkpt lat="43.9815783" lon="11.1276517"><ele>162.66666666666669</ele><time>2026-04-25T14:56:10.907Z</time></trkpt><trkpt lat="43.9815633" lon="11.12755"><ele>162.83333333333334</ele><time>2026-04-25T14:56:11.847Z</time></trkpt><trkpt lat="43.9815667" lon="11.1274433"><ele>163.0</ele><time>2026-04-25T14:56:12.853Z</time></trkpt><trkpt lat="43.9815567" lon="11.127345"><ele>163.33333333333334</ele><time>2026-04-25T14:56:13.861Z</time></trkpt><trkpt lat="43.9815383" lon="11.1272533"><ele>163.66666666666669</ele><time>2026-04-25T14:56:14.866Z</time></trkpt><trkpt lat="43.9815017" lon="11.1271717"><ele>164.0</ele><time>2026-04-25T14:56:15.874Z</time></trkpt><trkpt lat="43.98142" lon="11.1271517"><ele>164.33333333333334</ele><time>2026-04-25T14:56:16.881Z</time></trkpt><trkpt lat="43.981345" lon="11.1271383"><ele>164.66666666666666</ele><time>2026-04-25T14:56:17.887Z</time></trkpt><trkpt lat="43.9812583" lon="11.1271483"><ele>165.0</ele><time>2026-04-25T14:56:18.894Z</time></trkpt><trkpt lat="43.98116" lon="11.1271567"><ele>165.0</ele><time>2026-04-25T14:56:19.901Z</time></trkpt><trkpt lat="43.9810633" lon="11.1271467"><ele>165.0</ele><time>2026-04-25T14:56:20.84Z</time></trkpt><trkpt lat="43.9809567" lon="11.1270917"><ele>165.0</ele><time>2026-04-25T14:56:21.847Z</time></trkpt><trkpt lat="43.9808517" lon="11.1270017"><ele>165.0</ele><time>2026-04-25T14:56:22.852Z</time></trkpt><trkpt lat="43.9807517" lon="11.126895"><ele>165.25</ele><time>2026-04-25T14:56:23.86Z</time></trkpt><trkpt lat="43.9806583" lon="11.1267783"><ele>165.5</ele><time>2026-04-25T14:56:24.867Z</time></trkpt><trkpt lat="43.9805717" lon="11.1266617"><ele>165.75</ele><time>2026-04-25T14:56:25.872Z</time></trkpt><trkpt lat="43.9804883" lon="11.126535"><ele>166.0</ele><time>2026-04-25T14:56:26.88Z</time></trkpt><trkpt lat="43.9804117" lon="11.1264033"><ele>166.5</ele><time>2026-04-25T14:56:27.886Z</time></trkpt><trkpt lat="43.9803383" lon="11.12627"><ele>167.0</ele><time>2026-04-25T14:56:28.893Z</time></trkpt><trkpt lat="43.980265" lon="11.1261317"><ele>167.5</ele><time>2026-04-25T14:56:29.9Z</time></trkpt><trkpt lat="43.9801933" lon="11.1259867"><ele>168.0</ele><time>2026-04-25T14:56:30.839Z</time></trkpt><trkpt lat="43.98012" lon="11.12585"><ele>168.0</ele><time>2026-04-25T14:56:31.845Z</time></trkpt><trkpt lat="43.9800483" lon="11.1257167"><ele>168.0</ele><time>2026-04-25T14:56:32.853Z</time></trkpt><trkpt lat="43.9799833" lon="11.1255833"><ele>168.0</ele><time>2026-04-25T14:56:33.859Z</time></trkpt><trkpt lat="43.9799133" lon="11.1254433"><ele>168.0</ele><time>2026-04-25T14:56:34.865Z</time></trkpt><trkpt lat="43.97985" lon="11.125305"><ele>168.0</ele><time>2026-04-25T14:56:35.871Z</time></trkpt><trkpt lat="43.97978" lon="11.1251767"><ele>168.0</ele><time>2026-04-25T14:56:36.878Z</time></trkpt><trkpt lat="43.979705" lon="11.1250483"><ele>168.0</ele><time>2026-04-25T14:56:37.885Z</time></trkpt><trkpt lat="43.97964" lon="11.1249183"><ele>168.0</ele><time>2026-04-25T14:56:38.892Z</time></trkpt><trkpt lat="43.979565" lon="11.1248167"><ele>168.0</ele><time>2026-04-25T14:56:39.899Z</time></trkpt><trkpt lat="43.9794883" lon="11.1247333"><ele>168.0</ele><time>2026-04-25T14:56:40.839Z</time></trkpt><trkpt lat="43.9793917" lon="11.1246683"><ele>168.0</ele><time>2026-04-25T14:56:41.845Z</time></trkpt><trkpt lat="43.9792783" lon="11.1246283"><ele>168.0</ele><time>2026-04-25T14:56:42.852Z</time></trkpt><trkpt lat="43.9791633" lon="11.1246233"><ele>168.0</ele><time>2026-04-25T14:56:43.857Z</time></trkpt><trkpt lat="43.979045" lon="11.1246517"><ele>167.2</ele><time>2026-04-25T14:56:44.865Z</time></trkpt><trkpt lat="43.978945" lon="11.1247083"><ele>166.4</ele><time>2026-04-25T14:56:45.872Z</time></trkpt><trkpt lat="43.9788583" lon="11.124775"><ele>165.6</ele><time>2026-04-25T14:56:46.878Z</time></trkpt><trkpt lat="43.9787817" lon="11.1248433"><ele>164.79999999999998</ele><time>2026-04-25T14:56:47.885Z</time></trkpt><trkpt lat="43.9787033" lon="11.1249133"><ele>164.0</ele><time>2026-04-25T14:56:48.892Z</time></trkpt><trkpt lat="43.978625" lon="11.1249833"><ele>164.0</ele><time>2026-04-25T14:56:49.898Z</time></trkpt><trkpt lat="43.9785483" lon="11.1250433"><ele>164.0</ele><time>2026-04-25T14:56:50.838Z</time></trkpt><trkpt lat="43.978465" lon="11.1251017"><ele>164.0</ele><time>2026-04-25T14:56:51.844Z</time></trkpt><trkpt lat="43.9783767" lon="11.1251433"><ele>164.0</ele><time>2026-04-25T14:56:52.851Z</time></trkpt><trkpt lat="43.97828" lon="11.1251683"><ele>164.0</ele><time>2026-04-25T14:56:53.858Z</time></trkpt><trkpt lat="43.9781783" lon="11.1251783"><ele>165.6</ele><time>2026-04-25T14:56:54.864Z</time></trkpt><trkpt lat="43.9780767" lon="11.1251483"><ele>167.2</ele><time>2026-04-25T14:56:55.87Z</time></trkpt><trkpt lat="43.9779767" lon="11.1250933"><ele>168.79999999999998</ele><time>2026-04-25T14:56:56.878Z</time></trkpt><trkpt lat="43.9778833" lon="11.1250033"><ele>170.39999999999998</ele><time>2026-04-25T14:56:57.884Z</time></trkpt><trkpt lat="43.9777917" lon="11.1248983"><ele>172.0</ele><time>2026-04-25T14:56:58.891Z</time></trkpt><trkpt lat="43.9776917" lon="11.1247833"><ele>172.0</ele><time>2026-04-25T14:56:59.897Z</time></trkpt><trkpt lat="43.97759" lon="11.1246567"><ele>172.0</ele><time>2026-04-25T14:57:00.837Z</time></trkpt><trkpt lat="43.9774933" lon="11.1245267"><ele>172.0</ele><time>2026-04-25T14:57:01.844Z</time></trkpt><trkpt lat="43.9773933" lon="11.1244"><ele>172.0</ele><time>2026-04-25T14:57:02.85Z</time></trkpt><trkpt lat="43.9772983" lon="11.12428"><ele>172.0</ele><time>2026-04-25T14:57:03.857Z</time></trkpt><trkpt lat="43.9772067" lon="11.12416"><ele>172.0</ele><time>2026-04-25T14:57:04.862Z</time></trkpt><trkpt lat="43.9771117" lon="11.1240417"><ele>172.0</ele><time>2026-04-25T14:57:05.87Z</time></trkpt><trkpt lat="43.9770133" lon="11.1239217"><ele>172.0</ele><time>2026-04-25T14:57:06.877Z</time></trkpt><trkpt lat="43.9769183" lon="11.1237917"><ele>171.25</ele><time>2026-04-25T14:57:07.883Z</time></trkpt><trkpt lat="43.97682" lon="11.1236633"><ele>170.5</ele><time>2026-04-25T14:57:08.89Z</time></trkpt><trkpt lat="43.9767283" lon="11.1235317"><ele>169.75</ele><time>2026-04-25T14:57:09.83Z</time></trkpt><trkpt lat="43.976645" lon="11.1233917"><ele>169.0</ele><time>2026-04-25T14:57:10.836Z</time></trkpt><trkpt lat="43.9765633" lon="11.12325"><ele>171.75</ele><time>2026-04-25T14:57:11.842Z</time></trkpt><trkpt lat="43.9764783" lon="11.1231083"><ele>174.5</ele><time>2026-04-25T14:57:12.849Z</time></trkpt><trkpt lat="43.97639" lon="11.122965"><ele>177.25</ele><time>2026-04-25T14:57:13.856Z</time></trkpt><trkpt lat="43.9763017" lon="11.1228267"><ele>180.0</ele><time>2026-04-25T14:57:14.863Z</time></trkpt><trkpt lat="43.976215" lon="11.1227"><ele>180.0</ele><time>2026-04-25T14:57:15.869Z</time></trkpt><trkpt lat="43.9761183" lon="11.1226017"><ele>180.0</ele><time>2026-04-25T14:57:16.876Z</time></trkpt><trkpt lat="43.9760017" lon="11.1225383"><ele>180.0</ele><time>2026-04-25T14:57:17.883Z</time></trkpt><trkpt lat="43.97587" lon="11.1224817"><ele>180.0</ele><time>2026-04-25T14:57:18.889Z</time></trkpt><trkpt lat="43.9757283" lon="11.1224417"><ele>177.0</ele><time>2026-04-25T14:57:19.828Z</time></trkpt><trkpt lat="43.9755833" lon="11.122405"><ele>174.0</ele><time>2026-04-25T14:57:20.834Z</time></trkpt><trkpt lat="43.9754367" lon="11.1223717"><ele>171.0</ele><time>2026-04-25T14:57:21.841Z</time></trkpt><trkpt lat="43.9752933" lon="11.1223433"><ele>168.0</ele><time>2026-04-25T14:57:22.849Z</time></trkpt><trkpt lat="43.9751567" lon="11.1223133"><ele>167.25</ele><time>2026-04-25T14:57:23.855Z</time></trkpt><trkpt lat="43.9750267" lon="11.1222983"><ele>166.5</ele><time>2026-04-25T14:57:24.861Z</time></trkpt><trkpt lat="43.9748883" lon="11.122315"><ele>165.75</ele><time>2026-04-25T14:57:25.869Z</time></trkpt><trkpt lat="43.974765" lon="11.1223383"><ele>165.0</ele><time>2026-04-25T14:57:26.874Z</time></trkpt><trkpt lat="43.974635" lon="11.12241"><ele>165.0</ele><time>2026-04-25T14:57:27.882Z</time></trkpt><trkpt lat="43.9745133" lon="11.1225"><ele>165.0</ele><time>2026-04-25T14:57:28.887Z</time></trkpt><trkpt lat="43.9743967" lon="11.1226167"><ele>165.0</ele><time>2026-04-25T14:57:29.828Z</time></trkpt><trkpt lat="43.97428" lon="11.1227583"><ele>165.0</ele><time>2026-04-25T14:57:30.834Z</time></trkpt><trkpt lat="43.9741667" lon="11.122915"><ele>162.66666666666666</ele><time>2026-04-25T14:57:31.84Z</time></trkpt><trkpt lat="43.97405" lon="11.1230867"><ele>160.33333333333331</ele><time>2026-04-25T14:57:32.848Z</time></trkpt><trkpt lat="43.9739367" lon="11.1232583"><ele>158.0</ele><time>2026-04-25T14:57:33.855Z</time></trkpt><trkpt lat="43.9738317" lon="11.123405"><ele>158.0</ele><time>2026-04-25T14:57:34.861Z</time></trkpt><trkpt lat="43.973725" lon="11.1235267"><ele>158.0</ele><time>2026-04-25T14:57:35.868Z</time></trkpt><trkpt lat="43.973605" lon="11.12363"><ele>158.0</ele><time>2026-04-25T14:57:36.874Z</time></trkpt><trkpt lat="43.9734867" lon="11.1237267"><ele>158.0</ele><time>2026-04-25T14:57:37.88Z</time></trkpt><trkpt lat="43.97336" lon="11.1238267"><ele>158.25</ele><time>2026-04-25T14:57:38.888Z</time></trkpt><trkpt lat="43.973235" lon="11.1239217"><ele>158.5</ele><time>2026-04-25T14:57:39.827Z</time></trkpt><trkpt lat="43.9731183" lon="11.1240367"><ele>158.75</ele><time>2026-04-25T14:57:40.834Z</time></trkpt><trkpt lat="43.9730017" lon="11.1241083"><ele>159.0</ele><time>2026-04-25T14:57:41.84Z</time></trkpt><trkpt lat="43.9728867" lon="11.1241817"><ele>159.0</ele><time>2026-04-25T14:57:42.847Z</time></trkpt><trkpt lat="43.9727733" lon="11.124255"><ele>159.0</ele><time>2026-04-25T14:57:43.853Z</time></trkpt><trkpt lat="43.9726717" lon="11.12432"><ele>159.0</ele><time>2026-04-25T14:57:44.86Z</time></trkpt><trkpt lat="43.9725683" lon="11.124385"><ele>159.0</ele><time>2026-04-25T14:57:45.867Z</time></trkpt><trkpt lat="43.9724667" lon="11.12445"><ele>163.25</ele><time>2026-04-25T14:57:46.874Z</time></trkpt><trkpt lat="43.97236" lon="11.1245183"><ele>167.5</ele><time>2026-04-25T14:57:47.879Z</time></trkpt><trkpt lat="43.9722517" lon="11.1245767"><ele>171.75</ele><time>2026-04-25T14:57:48.82Z</time></trkpt><trkpt lat="43.9721433" lon="11.1246217"><ele>176.0</ele><time>2026-04-25T14:57:49.826Z</time></trkpt><trkpt lat="43.9720383" lon="11.1246483"><ele>176.0</ele><time>2026-04-25T14:57:50.832Z</time></trkpt><trkpt lat="43.9719317" lon="11.124635"><ele>176.0</ele><time>2026-04-25T14:57:51.84Z</time></trkpt><trkpt lat="43.9718283" lon="11.1245683"><ele>176.0</ele><time>2026-04-25T14:57:52.846Z</time></trkpt><trkpt lat="43.9717267" lon="11.1244733"><ele>176.0</ele><time>2026-04-25T14:57:53.853Z</time></trkpt><trkpt lat="43.9716283" lon="11.1243717"><ele>175.4</ele><time>2026-04-25T14:57:54.86Z</time></trkpt><trkpt lat="43.9715367" lon="11.1242667"><ele>174.8</ele><time>2026-04-25T14:57:55.865Z</time></trkpt><trkpt lat="43.9714467" lon="11.1241817"><ele>174.20000000000002</ele><time>2026-04-25T14:57:56.872Z</time></trkpt><trkpt lat="43.9713617" lon="11.1241067"><ele>173.60000000000002</ele><time>2026-04-25T14:57:57.88Z</time></trkpt><trkpt lat="43.9712783" lon="11.1240317"><ele>173.0</ele><time>2026-04-25T14:57:58.819Z</time></trkpt><trkpt lat="43.9711917" lon="11.1239583"><ele>173.2</ele><time>2026-04-25T14:57:59.826Z</time></trkpt><trkpt lat="43.9711017" lon="11.123885"><ele>173.4</ele><time>2026-04-25T14:58:00.832Z</time></trkpt><trkpt lat="43.9710083" lon="11.123815"><ele>173.6</ele><time>2026-04-25T14:58:01.839Z</time></trkpt><trkpt lat="43.97092" lon="11.12375"><ele>173.79999999999998</ele><time>2026-04-25T14:58:02.846Z</time></trkpt><trkpt lat="43.970835" lon="11.1236683"><ele>174.0</ele><time>2026-04-25T14:58:03.852Z</time></trkpt><trkpt lat="43.9707417" lon="11.1235917"><ele>174.0</ele><time>2026-04-25T14:58:04.859Z</time></trkpt><trkpt lat="43.9706433" lon="11.1235133"><ele>174.0</ele><time>2026-04-25T14:58:05.864Z</time></trkpt><trkpt lat="43.9705417" lon="11.1234217"><ele>174.0</ele><time>2026-04-25T14:58:06.872Z</time></trkpt><trkpt lat="43.97044" lon="11.1233383"><ele>174.0</ele><time>2026-04-25T14:58:07.879Z</time></trkpt><trkpt lat="43.9703383" lon="11.1232583"><ele>175.0</ele><time>2026-04-25T14:58:08.818Z</time></trkpt><trkpt lat="43.9702467" lon="11.123205"><ele>176.0</ele><time>2026-04-25T14:58:09.825Z</time></trkpt><trkpt lat="43.9701617" lon="11.1231533"><ele>177.0</ele><time>2026-04-25T14:58:10.832Z</time></trkpt><trkpt lat="43.9700733" lon="11.1231033"><ele>178.0</ele><time>2026-04-25T14:58:11.838Z</time></trkpt><trkpt lat="43.969985" lon="11.1230517"><ele>179.0</ele><time>2026-04-25T14:58:12.911Z</time></trkpt><trkpt lat="43.969895" lon="11.1230017"><ele>179.0</ele><time>2026-04-25T14:58:13.85Z</time></trkpt><trkpt lat="43.9697983" lon="11.1229617"><ele>179.0</ele><time>2026-04-25T14:58:14.857Z</time></trkpt><trkpt lat="43.9697067" lon="11.1229217"><ele>179.0</ele><time>2026-04-25T14:58:15.864Z</time></trkpt><trkpt lat="43.969615" lon="11.1228917"><ele>179.0</ele><time>2026-04-25T14:58:16.87Z</time></trkpt><trkpt lat="43.9695167" lon="11.1228633"><ele>179.0</ele><time>2026-04-25T14:58:17.878Z</time></trkpt><trkpt lat="43.96942" lon="11.1228367"><ele>179.0</ele><time>2026-04-25T14:58:18.817Z</time></trkpt><trkpt lat="43.96932" lon="11.12281"><ele>179.0</ele><time>2026-04-25T14:58:19.823Z</time></trkpt><trkpt lat="43.9692183" lon="11.12279"><ele>179.0</ele><time>2026-04-25T14:58:20.898Z</time></trkpt><trkpt lat="43.9691133" lon="11.1227767"><ele>179.0</ele><time>2026-04-25T14:58:21.904Z</time></trkpt><trkpt lat="43.9690133" lon="11.1227833"><ele>179.0</ele><time>2026-04-25T14:58:22.911Z</time></trkpt><trkpt lat="43.9689167" lon="11.1227983"><ele>178.0</ele><time>2026-04-25T14:58:23.851Z</time></trkpt><trkpt lat="43.9688283" lon="11.1228267"><ele>177.0</ele><time>2026-04-25T14:58:24.857Z</time></trkpt><trkpt lat="43.9687467" lon="11.1228683"><ele>176.0</ele><time>2026-04-25T14:58:25.863Z</time></trkpt><trkpt lat="43.9686617" lon="11.12292"><ele>175.0</ele><time>2026-04-25T14:58:26.871Z</time></trkpt><trkpt lat="43.9685717" lon="11.1229883"><ele>174.0</ele><time>2026-04-25T14:58:27.877Z</time></trkpt><trkpt lat="43.9684733" lon="11.1230733"><ele>174.0</ele><time>2026-04-25T14:58:28.883Z</time></trkpt><trkpt lat="43.96837" lon="11.1231617"><ele>174.0</ele><time>2026-04-25T14:58:29.89Z</time></trkpt><trkpt lat="43.96826" lon="11.1232517"><ele>174.0</ele><time>2026-04-25T14:58:30.897Z</time></trkpt><trkpt lat="43.968145" lon="11.123345"><ele>174.0</ele><time>2026-04-25T14:58:31.903Z</time></trkpt><trkpt lat="43.96802" lon="11.1234367"><ele>172.75</ele><time>2026-04-25T14:58:32.843Z</time></trkpt><trkpt lat="43.9678983" lon="11.12353"><ele>171.5</ele><time>2026-04-25T14:58:33.85Z</time></trkpt><trkpt lat="43.9677783" lon="11.1236217"><ele>170.25</ele><time>2026-04-25T14:58:34.855Z</time></trkpt><trkpt lat="43.9676567" lon="11.1237083"><ele>169.0</ele><time>2026-04-25T14:58:35.863Z</time></trkpt><trkpt lat="43.9675317" lon="11.1238017"><ele>170.0</ele><time>2026-04-25T14:58:36.87Z</time></trkpt><trkpt lat="43.9674117" lon="11.1238917"><ele>171.0</ele><time>2026-04-25T14:58:37.876Z</time></trkpt><trkpt lat="43.9673017" lon="11.12397"><ele>172.0</ele><time>2026-04-25T14:58:38.883Z</time></trkpt><trkpt lat="43.9672" lon="11.124045"><ele>173.0</ele><time>2026-04-25T14:58:39.89Z</time></trkpt><trkpt lat="43.9670867" lon="11.12411"><ele>173.0</ele><time>2026-04-25T14:58:40.896Z</time></trkpt><trkpt lat="43.9669533" lon="11.1241717"><ele>173.0</ele><time>2026-04-25T14:58:41.903Z</time></trkpt><trkpt lat="43.9668183" lon="11.124225"><ele>173.0</ele><time>2026-04-25T14:58:42.842Z</time></trkpt><trkpt lat="43.9666833" lon="11.1242683"><ele>173.0</ele><time>2026-04-25T14:58:43.849Z</time></trkpt><trkpt lat="43.9665633" lon="11.1243083"><ele>173.5</ele><time>2026-04-25T14:58:44.856Z</time></trkpt><trkpt lat="43.96645" lon="11.1243467"><ele>174.0</ele><time>2026-04-25T14:58:45.862Z</time></trkpt><trkpt lat="43.9663317" lon="11.1243883"><ele>174.5</ele><time>2026-04-25T14:58:46.869Z</time></trkpt><trkpt lat="43.966205" lon="11.12444"><ele>175.0</ele><time>2026-04-25T14:58:47.875Z</time></trkpt><trkpt lat="43.9660767" lon="11.124495"><ele>175.0</ele><time>2026-04-25T14:58:48.881Z</time></trkpt><trkpt lat="43.9659517" lon="11.1245517"><ele>175.0</ele><time>2026-04-25T14:58:49.889Z</time></trkpt><trkpt lat="43.96582" lon="11.1246133"><ele>175.0</ele><time>2026-04-25T14:58:50.896Z</time></trkpt><trkpt lat="43.9656867" lon="11.1246517"><ele>175.0</ele><time>2026-04-25T14:58:51.902Z</time></trkpt><trkpt lat="43.9655633" lon="11.1246917"><ele>175.0</ele><time>2026-04-25T14:58:52.842Z</time></trkpt><trkpt lat="43.96544" lon="11.124745"><ele>175.0</ele><time>2026-04-25T14:58:53.848Z</time></trkpt><trkpt lat="43.9653183" lon="11.1247867"><ele>175.0</ele><time>2026-04-25T14:58:54.854Z</time></trkpt><trkpt lat="43.96519" lon="11.124835"><ele>175.0</ele><time>2026-04-25T14:58:55.862Z</time></trkpt><trkpt lat="43.96506" lon="11.1248717"><ele>175.0</ele><time>2026-04-25T14:58:56.868Z</time></trkpt><trkpt lat="43.9649317" lon="11.1248783"><ele>175.0</ele><time>2026-04-25T14:58:57.875Z</time></trkpt><trkpt lat="43.96481" lon="11.1248767"><ele>175.0</ele><time>2026-04-25T14:58:58.88Z</time></trkpt><trkpt lat="43.9646983" lon="11.12487"><ele>175.0</ele><time>2026-04-25T14:58:59.888Z</time></trkpt><trkpt lat="43.96459" lon="11.1248683"><ele>175.0</ele><time>2026-04-25T14:59:00.895Z</time></trkpt><trkpt lat="43.9644867" lon="11.1248533"><ele>175.0</ele><time>2026-04-25T14:59:01.9Z</time></trkpt><trkpt lat="43.9643867" lon="11.1248333"><ele>175.0</ele><time>2026-04-25T14:59:02.841Z</time></trkpt><trkpt lat="43.9642967" lon="11.1248117"><ele>175.0</ele><time>2026-04-25T14:59:03.848Z</time></trkpt><trkpt lat="43.9642083" lon="11.124795"><ele>175.0</ele><time>2026-04-25T14:59:04.853Z</time></trkpt><trkpt lat="43.9641233" lon="11.1247817"><ele>172.5</ele><time>2026-04-25T14:59:05.861Z</time></trkpt><trkpt lat="43.9640417" lon="11.1247667"><ele>170.0</ele><time>2026-04-25T14:59:06.867Z</time></trkpt><trkpt lat="43.9639583" lon="11.124755"><ele>167.5</ele><time>2026-04-25T14:59:07.874Z</time></trkpt><trkpt lat="43.9638733" lon="11.124745"><ele>165.0</ele><time>2026-04-25T14:59:08.881Z</time></trkpt><trkpt lat="43.9637933" lon="11.1247383"><ele>162.5</ele><time>2026-04-25T14:59:09.887Z</time></trkpt><trkpt lat="43.963715" lon="11.12474"><ele>160.0</ele><time>2026-04-25T14:59:10.894Z</time></trkpt><trkpt lat="43.9636333" lon="11.1247467"><ele>160.0</ele><time>2026-04-25T14:59:11.901Z</time></trkpt><trkpt lat="43.9635517" lon="11.12474"><ele>160.0</ele><time>2026-04-25T14:59:12.84Z</time></trkpt><trkpt lat="43.9634667" lon="11.124725"><ele>160.0</ele><time>2026-04-25T14:59:13.847Z</time></trkpt><trkpt lat="43.963385" lon="11.12471"><ele>160.0</ele><time>2026-04-25T14:59:14.852Z</time></trkpt><trkpt lat="43.963305" lon="11.1246867"><ele>160.0</ele><time>2026-04-25T14:59:15.86Z</time></trkpt><trkpt lat="43.96322" lon="11.1246717"><ele>160.0</ele><time>2026-04-25T14:59:16.867Z</time></trkpt><trkpt lat="43.9631333" lon="11.1246617"><ele>158.6</ele><time>2026-04-25T14:59:17.873Z</time></trkpt><trkpt lat="43.9630417" lon="11.1246517"><ele>157.2</ele><time>2026-04-25T14:59:18.88Z</time></trkpt><trkpt lat="43.962945" lon="11.1246383"><ele>155.8</ele><time>2026-04-25T14:59:19.887Z</time></trkpt><trkpt lat="43.9628483" lon="11.1246333"><ele>154.4</ele><time>2026-04-25T14:59:20.893Z</time></trkpt><trkpt lat="43.96275" lon="11.12463"><ele>153.0</ele><time>2026-04-25T14:59:21.833Z</time></trkpt><trkpt lat="43.9626517" lon="11.1246233"><ele>153.0</ele><time>2026-04-25T14:59:22.839Z</time></trkpt><trkpt lat="43.962555" lon="11.1246183"><ele>153.0</ele><time>2026-04-25T14:59:23.846Z</time></trkpt><trkpt lat="43.962455" lon="11.1246117"><ele>153.0</ele><time>2026-04-25T14:59:24.853Z</time></trkpt><trkpt lat="43.96235" lon="11.1245983"><ele>153.0</ele><time>2026-04-25T14:59:25.859Z</time></trkpt><trkpt lat="43.9622383" lon="11.1245817"><ele>153.0</ele><time>2026-04-25T14:59:26.866Z</time></trkpt><trkpt lat="43.9621317" lon="11.1245667"><ele>152.83333333333334</ele><time>2026-04-25T14:59:27.872Z</time></trkpt><trkpt lat="43.96204" lon="11.1245467"><ele>152.66666666666666</ele><time>2026-04-25T14:59:28.879Z</time></trkpt><trkpt lat="43.9619617" lon="11.1245333"><ele>152.5</ele><time>2026-04-25T14:59:29.885Z</time></trkpt><trkpt lat="43.96189" lon="11.1245233"><ele>152.33333333333331</ele><time>2026-04-25T14:59:30.892Z</time></trkpt><trkpt lat="43.961825" lon="11.1245117"><ele>152.16666666666666</ele><time>2026-04-25T14:59:31.832Z</time></trkpt><trkpt lat="43.96171" lon="11.12448"><ele>152.0</ele><time>2026-04-25T14:59:33.845Z</time></trkpt><trkpt lat="43.9616467" lon="11.12447"><ele>151.33333333333331</ele><time>2026-04-25T14:59:34.852Z</time></trkpt><trkpt lat="43.9615767" lon="11.12447"><ele>150.66666666666666</ele><time>2026-04-25T14:59:35.858Z</time></trkpt><trkpt lat="43.9614933" lon="11.12447"><ele>150.0</ele><time>2026-04-25T14:59:36.865Z</time></trkpt><trkpt lat="43.9614017" lon="11.1244733"><ele>149.33333333333334</ele><time>2026-04-25T14:59:37.872Z</time></trkpt><trkpt lat="43.961305" lon="11.12446"><ele>148.66666666666669</ele><time>2026-04-25T14:59:38.877Z</time></trkpt><trkpt lat="43.96121" lon="11.1244483"><ele>148.0</ele><time>2026-04-25T14:59:39.885Z</time></trkpt><trkpt lat="43.9611133" lon="11.1244333"><ele>148.0</ele><time>2026-04-25T14:59:40.892Z</time></trkpt><trkpt lat="43.9610117" lon="11.1244233"><ele>148.0</ele><time>2026-04-25T14:59:41.831Z</time></trkpt><trkpt lat="43.9609067" lon="11.1244183"><ele>148.0</ele><time>2026-04-25T14:59:42.838Z</time></trkpt><trkpt lat="43.9607983" lon="11.1244333"><ele>148.0</ele><time>2026-04-25T14:59:43.844Z</time></trkpt><trkpt lat="43.9606767" lon="11.124475"><ele>148.0</ele><time>2026-04-25T14:59:44.851Z</time></trkpt><trkpt lat="43.9605517" lon="11.1245317"><ele>148.4</ele><time>2026-04-25T14:59:45.858Z</time></trkpt><trkpt lat="43.9604417" lon="11.1246"><ele>148.8</ele><time>2026-04-25T14:59:46.864Z</time></trkpt><trkpt lat="43.96035" lon="11.1246683"><ele>149.2</ele><time>2026-04-25T14:59:47.871Z</time></trkpt><trkpt lat="43.9602667" lon="11.12473"><ele>149.6</ele><time>2026-04-25T14:59:48.877Z</time></trkpt><trkpt lat="43.9601917" lon="11.124785"><ele>150.0</ele><time>2026-04-25T14:59:49.883Z</time></trkpt><trkpt lat="43.9601233" lon="11.1248267"><ele>150.0</ele><time>2026-04-25T14:59:50.891Z</time></trkpt><trkpt lat="43.9600617" lon="11.124865"><ele>150.0</ele><time>2026-04-25T14:59:51.83Z</time></trkpt><trkpt lat="43.9599683" lon="11.1249117"><ele>150.0</ele><time>2026-04-25T14:59:53.844Z</time></trkpt><trkpt lat="43.9598883" lon="11.124945"><ele>150.0</ele><time>2026-04-25T14:59:55.857Z</time></trkpt><trkpt lat="43.9598267" lon="11.124965"><ele>150.0</ele><time>2026-04-25T14:59:56.863Z</time></trkpt><trkpt lat="43.9597517" lon="11.1249917"><ele>150.0</ele><time>2026-04-25T14:59:57.87Z</time></trkpt><trkpt lat="43.9596833" lon="11.125015"><ele>149.0</ele><time>2026-04-25T14:59:58.877Z</time></trkpt><trkpt lat="43.95962" lon="11.125045"><ele>148.0</ele><time>2026-04-25T14:59:59.883Z</time></trkpt><trkpt lat="43.9595567" lon="11.1250783"><ele>147.0</ele><time>2026-04-25T15:00:00.823Z</time></trkpt><trkpt lat="43.9594867" lon="11.1250833"><ele>146.0</ele><time>2026-04-25T15:00:01.829Z</time></trkpt><trkpt lat="43.9594083" lon="11.1250933"><ele>145.0</ele><time>2026-04-25T15:00:02.835Z</time></trkpt><trkpt lat="43.9593233" lon="11.1251133"><ele>144.0</ele><time>2026-04-25T15:00:03.843Z</time></trkpt><trkpt lat="43.9592317" lon="11.1251183"><ele>144.4</ele><time>2026-04-25T15:00:04.848Z</time></trkpt><trkpt lat="43.959135" lon="11.1251183"><ele>144.8</ele><time>2026-04-25T15:00:05.855Z</time></trkpt><trkpt lat="43.9590333" lon="11.1251133"><ele>145.2</ele><time>2026-04-25T15:00:06.863Z</time></trkpt><trkpt lat="43.9589233" lon="11.125115"><ele>145.6</ele><time>2026-04-25T15:00:07.869Z</time></trkpt><trkpt lat="43.9588083" lon="11.1251267"><ele>146.0</ele><time>2026-04-25T15:00:08.876Z</time></trkpt><trkpt lat="43.958685" lon="11.1251533"><ele>146.0</ele><time>2026-04-25T15:00:09.883Z</time></trkpt><trkpt lat="43.9585483" lon="11.1251917"><ele>146.0</ele><time>2026-04-25T15:00:10.822Z</time></trkpt><trkpt lat="43.9583917" lon="11.1252467"><ele>146.0</ele><time>2026-04-25T15:00:11.829Z</time></trkpt><trkpt lat="43.9582367" lon="11.1253017"><ele>146.0</ele><time>2026-04-25T15:00:12.835Z</time></trkpt><trkpt lat="43.95808" lon="11.1253683"><ele>146.0</ele><time>2026-04-25T15:00:13.842Z</time></trkpt><trkpt lat="43.9579217" lon="11.12544"><ele>146.0</ele><time>2026-04-25T15:00:14.849Z</time></trkpt><trkpt lat="43.957755" lon="11.1255133"><ele>146.0</ele><time>2026-04-25T15:00:15.854Z</time></trkpt><trkpt lat="43.9575933" lon="11.12558"><ele>146.0</ele><time>2026-04-25T15:00:16.861Z</time></trkpt><trkpt lat="43.9574283" lon="11.1256483"><ele>146.0</ele><time>2026-04-25T15:00:17.869Z</time></trkpt><trkpt lat="43.9572667" lon="11.125715"><ele>144.0</ele><time>2026-04-25T15:00:18.875Z</time></trkpt><trkpt lat="43.957115" lon="11.125775"><ele>142.0</ele><time>2026-04-25T15:00:19.882Z</time></trkpt><trkpt lat="43.95697" lon="11.1258283"><ele>140.0</ele><time>2026-04-25T15:00:20.82Z</time></trkpt><trkpt lat="43.95683" lon="11.1258767"><ele>140.0</ele><time>2026-04-25T15:00:21.828Z</time></trkpt><trkpt lat="43.9566967" lon="11.1259233"><ele>140.0</ele><time>2026-04-25T15:00:22.835Z</time></trkpt><trkpt lat="43.9565683" lon="11.1259633"><ele>140.0</ele><time>2026-04-25T15:00:23.84Z</time></trkpt><trkpt lat="43.9564383" lon="11.1260033"><ele>140.0</ele><time>2026-04-25T15:00:24.848Z</time></trkpt><trkpt lat="43.9563033" lon="11.1260433"><ele>140.0</ele><time>2026-04-25T15:00:25.855Z</time></trkpt><trkpt lat="43.9561683" lon="11.1260817"><ele>140.0</ele><time>2026-04-25T15:00:26.86Z</time></trkpt><trkpt lat="43.95604" lon="11.1261233"><ele>140.0</ele><time>2026-04-25T15:00:27.868Z</time></trkpt><trkpt lat="43.9559183" lon="11.1261667"><ele>140.0</ele><time>2026-04-25T15:00:28.874Z</time></trkpt><trkpt lat="43.9557983" lon="11.1262067"><ele>140.6</ele><time>2026-04-25T15:00:29.881Z</time></trkpt><trkpt lat="43.9556817" lon="11.1262333"><ele>141.2</ele><time>2026-04-25T15:00:30.821Z</time></trkpt><trkpt lat="43.955575" lon="11.12626"><ele>141.8</ele><time>2026-04-25T15:00:31.826Z</time></trkpt><trkpt lat="43.9554733" lon="11.126285"><ele>142.4</ele><time>2026-04-25T15:00:32.834Z</time></trkpt><trkpt lat="43.9553817" lon="11.1262983"><ele>143.0</ele><time>2026-04-25T15:00:33.841Z</time></trkpt><trkpt lat="43.9553" lon="11.1263133"><ele>143.0</ele><time>2026-04-25T15:00:34.913Z</time></trkpt><trkpt lat="43.9552333" lon="11.1263233"><ele>143.0</ele><time>2026-04-25T15:00:35.854Z</time></trkpt><trkpt lat="43.955125" lon="11.1263433"><ele>143.0</ele><time>2026-04-25T15:00:37.867Z</time></trkpt><trkpt lat="43.9550233" lon="11.12632"><ele>143.0</ele><time>2026-04-25T15:00:39.879Z</time></trkpt><trkpt lat="43.9548967" lon="11.126275"><ele>143.0</ele><time>2026-04-25T15:00:41.826Z</time></trkpt><trkpt lat="43.9548183" lon="11.1262733"><ele>145.0</ele><time>2026-04-25T15:00:42.833Z</time></trkpt><trkpt lat="43.954725" lon="11.1262933"><ele>147.0</ele><time>2026-04-25T15:00:43.906Z</time></trkpt><trkpt lat="43.9546283" lon="11.126335"><ele>149.0</ele><time>2026-04-25T15:00:44.846Z</time></trkpt><trkpt lat="43.9545267" lon="11.126415"><ele>151.0</ele><time>2026-04-25T15:00:45.853Z</time></trkpt><trkpt lat="43.95443" lon="11.1264883"><ele>153.0</ele><time>2026-04-25T15:00:46.86Z</time></trkpt><trkpt lat="43.9543383" lon="11.126555"><ele>149.75</ele><time>2026-04-25T15:00:47.866Z</time></trkpt><trkpt lat="43.95424" lon="11.1266167"><ele>146.5</ele><time>2026-04-25T15:00:48.873Z</time></trkpt><trkpt lat="43.9541417" lon="11.1266783"><ele>143.25</ele><time>2026-04-25T15:00:49.812Z</time></trkpt><trkpt lat="43.9540333" lon="11.1267333"><ele>140.0</ele><time>2026-04-25T15:00:50.819Z</time></trkpt><trkpt lat="43.95392" lon="11.12679"><ele>140.0</ele><time>2026-04-25T15:00:51.893Z</time></trkpt><trkpt lat="43.9537917" lon="11.12685"><ele>140.0</ele><time>2026-04-25T15:00:52.899Z</time></trkpt><trkpt lat="43.9536517" lon="11.1269033"><ele>140.0</ele><time>2026-04-25T15:00:53.905Z</time></trkpt><trkpt lat="43.9534967" lon="11.1269483"><ele>140.0</ele><time>2026-04-25T15:00:54.846Z</time></trkpt><trkpt lat="43.9533383" lon="11.1270033"><ele>141.66666666666666</ele><time>2026-04-25T15:00:55.852Z</time></trkpt><trkpt lat="43.9531717" lon="11.1270583"><ele>143.33333333333334</ele><time>2026-04-25T15:00:56.859Z</time></trkpt><trkpt lat="43.9530083" lon="11.12712"><ele>145.0</ele><time>2026-04-25T15:00:57.865Z</time></trkpt><trkpt lat="43.9528383" lon="11.1271767"><ele>145.0</ele><time>2026-04-25T15:00:58.872Z</time></trkpt><trkpt lat="43.952665" lon="11.1272283"><ele>145.0</ele><time>2026-04-25T15:00:59.879Z</time></trkpt><trkpt lat="43.9524967" lon="11.12728"><ele>145.0</ele><time>2026-04-25T15:01:00.885Z</time></trkpt><trkpt lat="43.9523367" lon="11.1273283"><ele>145.5</ele><time>2026-04-25T15:01:01.892Z</time></trkpt><trkpt lat="43.9521867" lon="11.1273667"><ele>146.0</ele><time>2026-04-25T15:01:02.899Z</time></trkpt><trkpt lat="43.952045" lon="11.1274067"><ele>146.5</ele><time>2026-04-25T15:01:03.905Z</time></trkpt><trkpt lat="43.95191" lon="11.12744"><ele>147.0</ele><time>2026-04-25T15:01:04.844Z</time></trkpt><trkpt lat="43.951785" lon="11.127475"><ele>145.0</ele><time>2026-04-25T15:01:05.851Z</time></trkpt><trkpt lat="43.9516633" lon="11.1274983"><ele>143.0</ele><time>2026-04-25T15:01:06.858Z</time></trkpt><trkpt lat="43.951545" lon="11.1275"><ele>141.0</ele><time>2026-04-25T15:01:07.865Z</time></trkpt><trkpt lat="43.9514267" lon="11.1274667"><ele>139.0</ele><time>2026-04-25T15:01:08.871Z</time></trkpt><trkpt lat="43.9513067" lon="11.1274017"><ele>141.75</ele><time>2026-04-25T15:01:09.878Z</time></trkpt><trkpt lat="43.9511833" lon="11.127325"><ele>144.5</ele><time>2026-04-25T15:01:10.885Z</time></trkpt><trkpt lat="43.9510633" lon="11.127255"><ele>147.25</ele><time>2026-04-25T15:01:11.891Z</time></trkpt><trkpt lat="43.9509483" lon="11.12719"><ele>150.0</ele><time>2026-04-25T15:01:12.898Z</time></trkpt><trkpt lat="43.9508333" lon="11.127135"><ele>150.0</ele><time>2026-04-25T15:01:13.904Z</time></trkpt><trkpt lat="43.950725" lon="11.127075"><ele>150.0</ele><time>2026-04-25T15:01:14.844Z</time></trkpt><trkpt lat="43.95062" lon="11.12701"><ele>150.0</ele><time>2026-04-25T15:01:15.851Z</time></trkpt><trkpt lat="43.9505217" lon="11.126955"><ele>150.0</ele><time>2026-04-25T15:01:16.857Z</time></trkpt><trkpt lat="43.9504217" lon="11.1268983"><ele>150.0</ele><time>2026-04-25T15:01:17.864Z</time></trkpt><trkpt lat="43.950325" lon="11.1268417"><ele>150.0</ele><time>2026-04-25T15:01:18.87Z</time></trkpt><trkpt lat="43.950225" lon="11.126785"><ele>150.0</ele><time>2026-04-25T15:01:19.877Z</time></trkpt><trkpt lat="43.95012" lon="11.126725"><ele>150.0</ele><time>2026-04-25T15:01:20.883Z</time></trkpt><trkpt lat="43.95002" lon="11.1266633"><ele>150.0</ele><time>2026-04-25T15:01:21.89Z</time></trkpt><trkpt lat="43.9499167" lon="11.12662"><ele>150.0</ele><time>2026-04-25T15:01:22.896Z</time></trkpt><trkpt lat="43.9498167" lon="11.1265717"><ele>152.8</ele><time>2026-04-25T15:01:23.904Z</time></trkpt><trkpt lat="43.94972" lon="11.1265233"><ele>155.6</ele><time>2026-04-25T15:01:24.843Z</time></trkpt><trkpt lat="43.9496233" lon="11.1264767"><ele>158.39999999999998</ele><time>2026-04-25T15:01:25.85Z</time></trkpt><trkpt lat="43.9495267" lon="11.1264317"><ele>161.2</ele><time>2026-04-25T15:01:26.857Z</time></trkpt><trkpt lat="43.9494317" lon="11.12638"><ele>164.0</ele><time>2026-04-25T15:01:27.863Z</time></trkpt><trkpt lat="43.94934" lon="11.1263267"><ele>164.0</ele><time>2026-04-25T15:01:28.87Z</time></trkpt><trkpt lat="43.9492517" lon="11.1262617"><ele>164.0</ele><time>2026-04-25T15:01:29.876Z</time></trkpt><trkpt lat="43.9491717" lon="11.1261733"><ele>164.0</ele><time>2026-04-25T15:01:30.882Z</time></trkpt><trkpt lat="43.9490933" lon="11.1260783"><ele>164.0</ele><time>2026-04-25T15:01:31.89Z</time></trkpt><trkpt lat="43.9490217" lon="11.12598"><ele>164.0</ele><time>2026-04-25T15:01:32.895Z</time></trkpt><trkpt lat="43.94895" lon="11.1258817"><ele>163.5</ele><time>2026-04-25T15:01:33.835Z</time></trkpt><trkpt lat="43.9488733" lon="11.1257767"><ele>163.0</ele><time>2026-04-25T15:01:34.841Z</time></trkpt><trkpt lat="43.9487917" lon="11.12566"><ele>162.5</ele><time>2026-04-25T15:01:35.849Z</time></trkpt><trkpt lat="43.948705" lon="11.1255417"><ele>162.0</ele><time>2026-04-25T15:01:36.856Z</time></trkpt><trkpt lat="43.9486083" lon="11.125435"><ele>162.0</ele><time>2026-04-25T15:01:37.862Z</time></trkpt><trkpt lat="43.9485" lon="11.1253433"><ele>162.0</ele><time>2026-04-25T15:01:38.869Z</time></trkpt><trkpt lat="43.9483833" lon="11.125275"><ele>162.0</ele><time>2026-04-25T15:01:39.876Z</time></trkpt><trkpt lat="43.9482633" lon="11.1252467"><ele>162.0</ele><time>2026-04-25T15:01:40.882Z</time></trkpt><trkpt lat="43.9481517" lon="11.1252233"><ele>157.6</ele><time>2026-04-25T15:01:41.888Z</time></trkpt><trkpt lat="43.9480483" lon="11.1252167"><ele>153.2</ele><time>2026-04-25T15:01:42.896Z</time></trkpt><trkpt lat="43.9479483" lon="11.1252233"><ele>148.8</ele><time>2026-04-25T15:01:43.835Z</time></trkpt><trkpt lat="43.9478617" lon="11.12522"><ele>144.4</ele><time>2026-04-25T15:01:44.841Z</time></trkpt><trkpt lat="43.94778" lon="11.12522"><ele>140.0</ele><time>2026-04-25T15:01:45.848Z</time></trkpt><trkpt lat="43.9476967" lon="11.1252167"><ele>140.0</ele><time>2026-04-25T15:01:46.855Z</time></trkpt><trkpt lat="43.9476117" lon="11.1252133"><ele>140.0</ele><time>2026-04-25T15:01:47.861Z</time></trkpt><trkpt lat="43.94753" lon="11.1252033"><ele>140.0</ele><time>2026-04-25T15:01:48.868Z</time></trkpt><trkpt lat="43.9474417" lon="11.1252017"><ele>140.0</ele><time>2026-04-25T15:01:49.874Z</time></trkpt><trkpt lat="43.9473483" lon="11.1251967"><ele>140.0</ele><time>2026-04-25T15:01:50.881Z</time></trkpt><trkpt lat="43.947245" lon="11.1251933"><ele>138.5</ele><time>2026-04-25T15:01:51.888Z</time></trkpt><trkpt lat="43.947135" lon="11.1251833"><ele>137.0</ele><time>2026-04-25T15:01:52.895Z</time></trkpt><trkpt lat="43.947015" lon="11.125165"><ele>135.5</ele><time>2026-04-25T15:01:53.834Z</time></trkpt><trkpt lat="43.94689" lon="11.125145"><ele>134.0</ele><time>2026-04-25T15:01:54.841Z</time></trkpt><trkpt lat="43.9467633" lon="11.125115"><ele>132.75</ele><time>2026-04-25T15:01:55.848Z</time></trkpt><trkpt lat="43.946635" lon="11.125075"><ele>131.5</ele><time>2026-04-25T15:01:56.853Z</time></trkpt><trkpt lat="43.9465117" lon="11.1250217"><ele>130.25</ele><time>2026-04-25T15:01:57.861Z</time></trkpt><trkpt lat="43.946385" lon="11.1249683"><ele>129.0</ele><time>2026-04-25T15:01:58.867Z</time></trkpt><trkpt lat="43.9462583" lon="11.124925"><ele>130.5</ele><time>2026-04-25T15:01:59.874Z</time></trkpt><trkpt lat="43.94613" lon="11.12488"><ele>132.0</ele><time>2026-04-25T15:02:00.881Z</time></trkpt><trkpt lat="43.946" lon="11.1248317"><ele>133.5</ele><time>2026-04-25T15:02:01.887Z</time></trkpt><trkpt lat="43.94587" lon="11.12477"><ele>135.0</ele><time>2026-04-25T15:02:02.894Z</time></trkpt><trkpt lat="43.945735" lon="11.12472"><ele>135.0</ele><time>2026-04-25T15:02:03.832Z</time></trkpt><trkpt lat="43.9455917" lon="11.12467"><ele>135.0</ele><time>2026-04-25T15:02:04.84Z</time></trkpt><trkpt lat="43.945455" lon="11.1246183"><ele>135.0</ele><time>2026-04-25T15:02:05.847Z</time></trkpt><trkpt lat="43.9453117" lon="11.1245767"><ele>135.0</ele><time>2026-04-25T15:02:06.853Z</time></trkpt><trkpt lat="43.9451767" lon="11.1245317"><ele>133.25</ele><time>2026-04-25T15:02:07.859Z</time></trkpt><trkpt lat="43.9450333" lon="11.1245217"><ele>131.5</ele><time>2026-04-25T15:02:08.866Z</time></trkpt><trkpt lat="43.9448967" lon="11.1245183"><ele>129.75</ele><time>2026-04-25T15:02:09.873Z</time></trkpt><trkpt lat="43.944765" lon="11.1245433"><ele>128.0</ele><time>2026-04-25T15:02:10.88Z</time></trkpt><trkpt lat="43.9446367" lon="11.1246017"><ele>128.0</ele><time>2026-04-25T15:02:11.887Z</time></trkpt><trkpt lat="43.9445033" lon="11.12468"><ele>128.0</ele><time>2026-04-25T15:02:12.893Z</time></trkpt><trkpt lat="43.944375" lon="11.12477"><ele>128.0</ele><time>2026-04-25T15:02:13.833Z</time></trkpt><trkpt lat="43.9442467" lon="11.1248617"><ele>128.0</ele><time>2026-04-25T15:02:14.839Z</time></trkpt><trkpt lat="43.94412" lon="11.1249533"><ele>127.5</ele><time>2026-04-25T15:02:15.846Z</time></trkpt><trkpt lat="43.943995" lon="11.1250433"><ele>127.0</ele><time>2026-04-25T15:02:16.853Z</time></trkpt><trkpt lat="43.9438733" lon="11.12512"><ele>126.5</ele><time>2026-04-25T15:02:17.859Z</time></trkpt><trkpt lat="43.9437567" lon="11.125195"><ele>126.0</ele><time>2026-04-25T15:02:18.865Z</time></trkpt><trkpt lat="43.9436483" lon="11.1252733"><ele>126.0</ele><time>2026-04-25T15:02:19.873Z</time></trkpt><trkpt lat="43.943545" lon="11.12536"><ele>126.0</ele><time>2026-04-25T15:02:20.879Z</time></trkpt><trkpt lat="43.9434183" lon="11.1254567"><ele>126.0</ele><time>2026-04-25T15:02:21.886Z</time></trkpt><trkpt lat="43.943295" lon="11.1255217"><ele>126.0</ele><time>2026-04-25T15:02:22.825Z</time></trkpt><trkpt lat="43.9431567" lon="11.125595"><ele>125.75</ele><time>2026-04-25T15:02:23.831Z</time></trkpt><trkpt lat="43.943025" lon="11.1256433"><ele>125.5</ele><time>2026-04-25T15:02:24.839Z</time></trkpt><trkpt lat="43.9428967" lon="11.1256883"><ele>125.25</ele><time>2026-04-25T15:02:25.845Z</time></trkpt><trkpt lat="43.9427733" lon="11.1257267"><ele>125.0</ele><time>2026-04-25T15:02:26.852Z</time></trkpt><trkpt lat="43.9426567" lon="11.12577"><ele>125.6</ele><time>2026-04-25T15:02:27.858Z</time></trkpt><trkpt lat="43.9425417" lon="11.1258117"><ele>126.2</ele><time>2026-04-25T15:02:28.865Z</time></trkpt><trkpt lat="43.9424367" lon="11.12585"><ele>126.80000000000001</ele><time>2026-04-25T15:02:29.871Z</time></trkpt><trkpt lat="43.942335" lon="11.1259"><ele>127.4</ele><time>2026-04-25T15:02:30.878Z</time></trkpt><trkpt lat="43.9422433" lon="11.1259633"><ele>128.0</ele><time>2026-04-25T15:02:31.884Z</time></trkpt><trkpt lat="43.9421683" lon="11.1260283"><ele>127.99999999999999</ele><time>2026-04-25T15:02:32.824Z</time></trkpt><trkpt lat="43.9420867" lon="11.1260833"><ele>128.0</ele><time>2026-04-25T15:02:33.83Z</time></trkpt><trkpt lat="43.9420067" lon="11.1261167"><ele>128.0</ele><time>2026-04-25T15:02:34.837Z</time></trkpt><trkpt lat="43.9419183" lon="11.1261417"><ele>128.0</ele><time>2026-04-25T15:02:35.844Z</time></trkpt><trkpt lat="43.94183" lon="11.126175"><ele>127.99999999999999</ele><time>2026-04-25T15:02:36.851Z</time></trkpt><trkpt lat="43.94175" lon="11.1262233"><ele>128.0</ele><time>2026-04-25T15:02:37.858Z</time></trkpt><trkpt lat="43.9417017" lon="11.126345"><ele>128.6</ele><time>2026-04-25T15:02:38.863Z</time></trkpt><trkpt lat="43.9416517" lon="11.1264767"><ele>129.20000000000002</ele><time>2026-04-25T15:02:39.871Z</time></trkpt><trkpt lat="43.9416083" lon="11.1266167"><ele>129.8</ele><time>2026-04-25T15:02:40.878Z</time></trkpt><trkpt lat="43.94156" lon="11.1267533"><ele>130.4</ele><time>2026-04-25T15:02:41.883Z</time></trkpt><trkpt lat="43.941505" lon="11.1268767"><ele>131.0</ele><time>2026-04-25T15:02:42.824Z</time></trkpt><trkpt lat="43.9414417" lon="11.1269933"><ele>131.0</ele><time>2026-04-25T15:02:43.83Z</time></trkpt><trkpt lat="43.9413667" lon="11.1271167"><ele>131.0</ele><time>2026-04-25T15:02:44.837Z</time></trkpt><trkpt lat="43.9412917" lon="11.127235"><ele>131.0</ele><time>2026-04-25T15:02:45.843Z</time></trkpt><trkpt lat="43.9412117" lon="11.12735"><ele>131.0</ele><time>2026-04-25T15:02:46.85Z</time></trkpt><trkpt lat="43.94113" lon="11.1274633"><ele>132.25</ele><time>2026-04-25T15:02:47.857Z</time></trkpt><trkpt lat="43.9410417" lon="11.1275717"><ele>133.5</ele><time>2026-04-25T15:02:48.864Z</time></trkpt><trkpt lat="43.9409417" lon="11.1276633"><ele>134.75</ele><time>2026-04-25T15:02:49.87Z</time></trkpt><trkpt lat="43.94084" lon="11.1277533"><ele>136.0</ele><time>2026-04-25T15:02:50.877Z</time></trkpt><trkpt lat="43.940735" lon="11.1278417"><ele>136.0</ele><time>2026-04-25T15:02:51.882Z</time></trkpt><trkpt lat="43.9406317" lon="11.1279367"><ele>136.0</ele><time>2026-04-25T15:02:52.823Z</time></trkpt><trkpt lat="43.9405267" lon="11.1280233"><ele>136.0</ele><time>2026-04-25T15:02:53.83Z</time></trkpt><trkpt lat="43.9404167" lon="11.12811"><ele>136.0</ele><time>2026-04-25T15:02:54.836Z</time></trkpt><trkpt lat="43.9403083" lon="11.1281917"><ele>135.75</ele><time>2026-04-25T15:02:55.842Z</time></trkpt><trkpt lat="43.94019" lon="11.1282667"><ele>135.5</ele><time>2026-04-25T15:02:56.849Z</time></trkpt><trkpt lat="43.9400717" lon="11.1283267"><ele>135.25</ele><time>2026-04-25T15:02:57.856Z</time></trkpt><trkpt lat="43.9399483" lon="11.1283717"><ele>135.0</ele><time>2026-04-25T15:02:58.862Z</time></trkpt><trkpt lat="43.939825" lon="11.128405"><ele>135.0</ele><time>2026-04-25T15:02:59.869Z</time></trkpt><trkpt lat="43.9397083" lon="11.1284233"><ele>135.0</ele><time>2026-04-25T15:03:00.876Z</time></trkpt><trkpt lat="43.9395967" lon="11.1284233"><ele>135.0</ele><time>2026-04-25T15:03:01.816Z</time></trkpt><trkpt lat="43.93949" lon="11.128405"><ele>135.0</ele><time>2026-04-25T15:03:02.821Z</time></trkpt><trkpt lat="43.93939" lon="11.128365"><ele>135.0</ele><time>2026-04-25T15:03:03.828Z</time></trkpt><trkpt lat="43.9392933" lon="11.1283167"><ele>134.0</ele><time>2026-04-25T15:03:04.834Z</time></trkpt><trkpt lat="43.9391983" lon="11.12826"><ele>133.0</ele><time>2026-04-25T15:03:05.909Z</time></trkpt><trkpt lat="43.939105" lon="11.1281917"><ele>132.0</ele><time>2026-04-25T15:03:06.849Z</time></trkpt><trkpt lat="43.9390067" lon="11.128115"><ele>131.0</ele><time>2026-04-25T15:03:07.855Z</time></trkpt><trkpt lat="43.93891" lon="11.12804"><ele>130.0</ele><time>2026-04-25T15:03:08.862Z</time></trkpt><trkpt lat="43.9388117" lon="11.127955"><ele>133.25</ele><time>2026-04-25T15:03:09.869Z</time></trkpt><trkpt lat="43.9387133" lon="11.1278683"><ele>136.5</ele><time>2026-04-25T15:03:10.875Z</time></trkpt><trkpt lat="43.9386183" lon="11.1277817"><ele>139.75</ele><time>2026-04-25T15:03:11.815Z</time></trkpt><trkpt lat="43.93852" lon="11.127695"><ele>143.0</ele><time>2026-04-25T15:03:12.82Z</time></trkpt><trkpt lat="43.9384267" lon="11.127615"><ele>141.6</ele><time>2026-04-25T15:03:13.828Z</time></trkpt><trkpt lat="43.9383367" lon="11.127535"><ele>140.20000000000002</ele><time>2026-04-25T15:03:14.902Z</time></trkpt><trkpt lat="43.9382383" lon="11.1274467"><ele>138.8</ele><time>2026-04-25T15:03:15.907Z</time></trkpt><trkpt lat="43.93814" lon="11.1273617"><ele>137.4</ele><time>2026-04-25T15:03:16.847Z</time></trkpt><trkpt lat="43.9380483" lon="11.1272833"><ele>136.0</ele><time>2026-04-25T15:03:17.854Z</time></trkpt><trkpt lat="43.9379533" lon="11.1272"><ele>136.4</ele><time>2026-04-25T15:03:18.86Z</time></trkpt><trkpt lat="43.9378517" lon="11.1271183"><ele>136.8</ele><time>2026-04-25T15:03:19.868Z</time></trkpt><trkpt lat="43.9377517" lon="11.1270333"><ele>137.20000000000002</ele><time>2026-04-25T15:03:20.874Z</time></trkpt><trkpt lat="43.9376567" lon="11.1269567"><ele>137.6</ele><time>2026-04-25T15:03:21.814Z</time></trkpt><trkpt lat="43.9375683" lon="11.1268817"><ele>138.0</ele><time>2026-04-25T15:03:22.888Z</time></trkpt><trkpt lat="43.937485" lon="11.1268083"><ele>138.0</ele><time>2026-04-25T15:03:23.894Z</time></trkpt><trkpt lat="43.9374083" lon="11.1267267"><ele>138.0</ele><time>2026-04-25T15:03:24.9Z</time></trkpt><trkpt lat="43.9373333" lon="11.1266467"><ele>138.0</ele><time>2026-04-25T15:03:25.908Z</time></trkpt><trkpt lat="43.93726" lon="11.1265533"><ele>138.0</ele><time>2026-04-25T15:03:26.847Z</time></trkpt><trkpt lat="43.9371917" lon="11.1264467"><ele>138.0</ele><time>2026-04-25T15:03:27.854Z</time></trkpt><trkpt lat="43.937125" lon="11.1263333"><ele>140.33333333333334</ele><time>2026-04-25T15:03:28.859Z</time></trkpt><trkpt lat="43.93706" lon="11.126235"><ele>142.66666666666666</ele><time>2026-04-25T15:03:29.867Z</time></trkpt><trkpt lat="43.937" lon="11.1261433"><ele>145.0</ele><time>2026-04-25T15:03:30.873Z</time></trkpt><trkpt lat="43.9369467" lon="11.1260533"><ele>147.33333333333331</ele><time>2026-04-25T15:03:31.879Z</time></trkpt><trkpt lat="43.9368917" lon="11.12597"><ele>149.66666666666666</ele><time>2026-04-25T15:03:32.886Z</time></trkpt><trkpt lat="43.9368367" lon="11.1258917"><ele>152.0</ele><time>2026-04-25T15:03:33.894Z</time></trkpt><trkpt lat="43.9367733" lon="11.1258233"><ele>152.33333333333331</ele><time>2026-04-25T15:03:34.9Z</time></trkpt><trkpt lat="43.9367" lon="11.125765"><ele>152.66666666666666</ele><time>2026-04-25T15:03:35.906Z</time></trkpt><trkpt lat="43.93662" lon="11.1257283"><ele>153.0</ele><time>2026-04-25T15:03:36.846Z</time></trkpt><trkpt lat="43.93654" lon="11.12571"><ele>153.33333333333334</ele><time>2026-04-25T15:03:37.853Z</time></trkpt><trkpt lat="43.93646" lon="11.1256983"><ele>153.66666666666669</ele><time>2026-04-25T15:03:38.86Z</time></trkpt><trkpt lat="43.9363783" lon="11.125705"><ele>154.0</ele><time>2026-04-25T15:03:39.866Z</time></trkpt><trkpt lat="43.9363017" lon="11.1257217"><ele>151.16666666666669</ele><time>2026-04-25T15:03:40.873Z</time></trkpt><trkpt lat="43.93622" lon="11.125745"><ele>148.33333333333334</ele><time>2026-04-25T15:03:41.879Z</time></trkpt><trkpt lat="43.9361467" lon="11.1257617"><ele>145.5</ele><time>2026-04-25T15:03:42.886Z</time></trkpt><trkpt lat="43.9360717" lon="11.1257783"><ele>142.66666666666666</ele><time>2026-04-25T15:03:43.892Z</time></trkpt><trkpt lat="43.9360017" lon="11.1257917"><ele>139.83333333333331</ele><time>2026-04-25T15:03:44.899Z</time></trkpt><trkpt lat="43.9359267" lon="11.1257917"><ele>137.0</ele><time>2026-04-25T15:03:45.838Z</time></trkpt><trkpt lat="43.93585" lon="11.1257833"><ele>136.33333333333331</ele><time>2026-04-25T15:03:46.846Z</time></trkpt><trkpt lat="43.93577" lon="11.12576"><ele>135.66666666666666</ele><time>2026-04-25T15:03:47.851Z</time></trkpt><trkpt lat="43.9356867" lon="11.1257283"><ele>135.0</ele><time>2026-04-25T15:03:48.859Z</time></trkpt><trkpt lat="43.9356033" lon="11.125705"><ele>134.33333333333334</ele><time>2026-04-25T15:03:49.865Z</time></trkpt><trkpt lat="43.9355233" lon="11.1256767"><ele>133.66666666666669</ele><time>2026-04-25T15:03:50.872Z</time></trkpt><trkpt lat="43.935445" lon="11.1256467"><ele>133.0</ele><time>2026-04-25T15:03:51.879Z</time></trkpt><trkpt lat="43.9353633" lon="11.1256183"><ele>136.4</ele><time>2026-04-25T15:03:52.884Z</time></trkpt><trkpt lat="43.9352817" lon="11.1255917"><ele>139.8</ele><time>2026-04-25T15:03:53.891Z</time></trkpt><trkpt lat="43.935195" lon="11.12556"><ele>143.2</ele><time>2026-04-25T15:03:54.898Z</time></trkpt><trkpt lat="43.935105" lon="11.1255317"><ele>146.6</ele><time>2026-04-25T15:03:55.838Z</time></trkpt><trkpt lat="43.93501" lon="11.1255217"><ele>150.0</ele><time>2026-04-25T15:03:56.845Z</time></trkpt><trkpt lat="43.9349167" lon="11.12554"><ele>150.0</ele><time>2026-04-25T15:03:57.851Z</time></trkpt><trkpt lat="43.934825" lon="11.12558"><ele>150.0</ele><time>2026-04-25T15:03:58.858Z</time></trkpt><trkpt lat="43.93474" lon="11.125645"><ele>150.0</ele><time>2026-04-25T15:03:59.865Z</time></trkpt><trkpt lat="43.9346683" lon="11.12573"><ele>150.0</ele><time>2026-04-25T15:04:00.87Z</time></trkpt><trkpt lat="43.9346" lon="11.1258167"><ele>150.0</ele><time>2026-04-25T15:04:01.878Z</time></trkpt><trkpt lat="43.9345383" lon="11.1259167"><ele>149.33333333333334</ele><time>2026-04-25T15:04:02.885Z</time></trkpt><trkpt lat="43.9344833" lon="11.1260183"><ele>148.66666666666666</ele><time>2026-04-25T15:04:03.891Z</time></trkpt><trkpt lat="43.9344267" lon="11.1261117"><ele>148.0</ele><time>2026-04-25T15:04:04.897Z</time></trkpt><trkpt lat="43.9343667" lon="11.1261967"><ele>147.33333333333331</ele><time>2026-04-25T15:04:05.837Z</time></trkpt><trkpt lat="43.9343" lon="11.12626"><ele>146.66666666666666</ele><time>2026-04-25T15:04:06.844Z</time></trkpt><trkpt lat="43.9342267" lon="11.1263067"><ele>146.0</ele><time>2026-04-25T15:04:07.85Z</time></trkpt><trkpt lat="43.93415" lon="11.1263567"><ele>146.0</ele><time>2026-04-25T15:04:08.857Z</time></trkpt><trkpt lat="43.9340583" lon="11.1263933"><ele>146.0</ele><time>2026-04-25T15:04:09.864Z</time></trkpt><trkpt lat="43.9339633" lon="11.12641"><ele>146.0</ele><time>2026-04-25T15:04:10.871Z</time></trkpt><trkpt lat="43.9338733" lon="11.1264167"><ele>146.0</ele><time>2026-04-25T15:04:11.877Z</time></trkpt><trkpt lat="43.933785" lon="11.12643"><ele>146.0</ele><time>2026-04-25T15:04:12.884Z</time></trkpt><trkpt lat="43.9336917" lon="11.126435"><ele>146.0</ele><time>2026-04-25T15:04:13.889Z</time></trkpt><trkpt lat="43.933595" lon="11.1264417"><ele>146.0</ele><time>2026-04-25T15:04:14.897Z</time></trkpt><trkpt lat="43.9335017" lon="11.1264467"><ele>146.0</ele><time>2026-04-25T15:04:15.836Z</time></trkpt><trkpt lat="43.93341" lon="11.1264483"><ele>146.0</ele><time>2026-04-25T15:04:16.843Z</time></trkpt><trkpt lat="43.9333233" lon="11.1264517"><ele>146.0</ele><time>2026-04-25T15:04:17.849Z</time></trkpt><trkpt lat="43.933235" lon="11.1264533"><ele>146.0</ele><time>2026-04-25T15:04:18.857Z</time></trkpt><trkpt lat="43.9331417" lon="11.12646"><ele>146.0</ele><time>2026-04-25T15:04:19.863Z</time></trkpt><trkpt lat="43.9330483" lon="11.1264583"><ele>146.0</ele><time>2026-04-25T15:04:20.87Z</time></trkpt><trkpt lat="43.9329533" lon="11.1264567"><ele>146.0</ele><time>2026-04-25T15:04:21.876Z</time></trkpt><trkpt lat="43.932855" lon="11.1264517"><ele>146.0</ele><time>2026-04-25T15:04:22.882Z</time></trkpt><trkpt lat="43.9327517" lon="11.1264317"><ele>146.0</ele><time>2026-04-25T15:04:23.89Z</time></trkpt><trkpt lat="43.932645" lon="11.1263917"><ele>146.0</ele><time>2026-04-25T15:04:24.895Z</time></trkpt><trkpt lat="43.9325367" lon="11.1263367"><ele>146.0</ele><time>2026-04-25T15:04:25.835Z</time></trkpt><trkpt lat="43.9324233" lon="11.1262767"><ele>146.0</ele><time>2026-04-25T15:04:26.841Z</time></trkpt><trkpt lat="43.93231" lon="11.1262133"><ele>144.8</ele><time>2026-04-25T15:04:27.848Z</time></trkpt><trkpt lat="43.9322017" lon="11.1261483"><ele>143.6</ele><time>2026-04-25T15:04:28.855Z</time></trkpt><trkpt lat="43.9320933" lon="11.1260933"><ele>142.4</ele><time>2026-04-25T15:04:29.862Z</time></trkpt><trkpt lat="43.9319967" lon="11.1260317"><ele>141.2</ele><time>2026-04-25T15:04:30.869Z</time></trkpt><trkpt lat="43.9319067" lon="11.1259617"><ele>140.0</ele><time>2026-04-25T15:04:31.876Z</time></trkpt><trkpt lat="43.93183" lon="11.1258783"><ele>140.0</ele><time>2026-04-25T15:04:32.882Z</time></trkpt><trkpt lat="43.9317483" lon="11.1257883"><ele>140.0</ele><time>2026-04-25T15:04:33.889Z</time></trkpt><trkpt lat="43.9316617" lon="11.12568"><ele>140.0</ele><time>2026-04-25T15:04:34.827Z</time></trkpt><trkpt lat="43.93158" lon="11.125545"><ele>140.0</ele><time>2026-04-25T15:04:35.834Z</time></trkpt><trkpt lat="43.9315017" lon="11.125405"><ele>142.75</ele><time>2026-04-25T15:04:36.842Z</time></trkpt><trkpt lat="43.9314267" lon="11.1252683"><ele>145.5</ele><time>2026-04-25T15:04:37.847Z</time></trkpt><trkpt lat="43.9313567" lon="11.1251383"><ele>148.25</ele><time>2026-04-25T15:04:38.854Z</time></trkpt><trkpt lat="43.93129" lon="11.1250033"><ele>151.0</ele><time>2026-04-25T15:04:39.862Z</time></trkpt><trkpt lat="43.931215" lon="11.1248817"><ele>159.25</ele><time>2026-04-25T15:04:40.868Z</time></trkpt><trkpt lat="43.9311233" lon="11.124785"><ele>167.5</ele><time>2026-04-25T15:04:41.874Z</time></trkpt><trkpt lat="43.9310267" lon="11.124715"><ele>175.75</ele><time>2026-04-25T15:04:42.88Z</time></trkpt><trkpt lat="43.9309217" lon="11.1246483"><ele>184.0</ele><time>2026-04-25T15:04:43.888Z</time></trkpt><trkpt lat="43.9308133" lon="11.1246"><ele>184.0</ele><time>2026-04-25T15:04:44.828Z</time></trkpt><trkpt lat="43.9307" lon="11.1245583"><ele>184.0</ele><time>2026-04-25T15:04:45.833Z</time></trkpt><trkpt lat="43.9305917" lon="11.1245283"><ele>184.0</ele><time>2026-04-25T15:04:46.841Z</time></trkpt><trkpt lat="43.930485" lon="11.1245083"><ele>184.0</ele><time>2026-04-25T15:04:47.848Z</time></trkpt><trkpt lat="43.9303717" lon="11.1245183"><ele>184.0</ele><time>2026-04-25T15:04:48.854Z</time></trkpt><trkpt lat="43.9302517" lon="11.12454"><ele>184.0</ele><time>2026-04-25T15:04:49.861Z</time></trkpt><trkpt lat="43.93014" lon="11.1245783"><ele>184.0</ele><time>2026-04-25T15:04:50.867Z</time></trkpt><trkpt lat="43.93003" lon="11.1246217"><ele>184.0</ele><time>2026-04-25T15:04:51.873Z</time></trkpt><trkpt lat="43.929925" lon="11.1246717"><ele>184.0</ele><time>2026-04-25T15:04:52.88Z</time></trkpt><trkpt lat="43.9298167" lon="11.1247167"><ele>183.5</ele><time>2026-04-25T15:04:53.887Z</time></trkpt><trkpt lat="43.929705" lon="11.1247267"><ele>183.0</ele><time>2026-04-25T15:04:54.826Z</time></trkpt><trkpt lat="43.929585" lon="11.1247317"><ele>182.5</ele><time>2026-04-25T15:04:55.834Z</time></trkpt><trkpt lat="43.9294617" lon="11.1247267"><ele>182.0</ele><time>2026-04-25T15:04:56.84Z</time></trkpt><trkpt lat="43.9293317" lon="11.1247333"><ele>181.5</ele><time>2026-04-25T15:04:57.847Z</time></trkpt><trkpt lat="43.929205" lon="11.12474"><ele>181.0</ele><time>2026-04-25T15:04:58.853Z</time></trkpt><trkpt lat="43.9290733" lon="11.1247533"><ele>180.5</ele><time>2026-04-25T15:04:59.86Z</time></trkpt><trkpt lat="43.9289183" lon="11.1247817"><ele>180.0</ele><time>2026-04-25T15:05:00.867Z</time></trkpt><trkpt lat="43.9287517" lon="11.1248233"><ele>180.0</ele><time>2026-04-25T15:05:01.873Z</time></trkpt><trkpt lat="43.9285783" lon="11.1248817"><ele>180.0</ele><time>2026-04-25T15:05:02.879Z</time></trkpt><trkpt lat="43.92841" lon="11.124935"><ele>180.0</ele><time>2026-04-25T15:05:03.887Z</time></trkpt><trkpt lat="43.9282567" lon="11.1249733"><ele>170.0</ele><time>2026-04-25T15:05:04.826Z</time></trkpt><trkpt lat="43.9281183" lon="11.125005"><ele>160.0</ele><time>2026-04-25T15:05:05.833Z</time></trkpt><trkpt lat="43.9279917" lon="11.1250383"><ele>150.0</ele><time>2026-04-25T15:05:06.838Z</time></trkpt><trkpt lat="43.9278717" lon="11.125065"><ele>140.0</ele><time>2026-04-25T15:05:07.846Z</time></trkpt><trkpt lat="43.9277617" lon="11.1250867"><ele>140.0</ele><time>2026-04-25T15:05:08.853Z</time></trkpt><trkpt lat="43.9276583" lon="11.12511"><ele>140.0</ele><time>2026-04-25T15:05:09.859Z</time></trkpt><trkpt lat="43.9275583" lon="11.125125"><ele>140.0</ele><time>2026-04-25T15:05:10.866Z</time></trkpt><trkpt lat="43.92746" lon="11.1251517"><ele>140.0</ele><time>2026-04-25T15:05:11.873Z</time></trkpt><trkpt lat="43.9273583" lon="11.125195"><ele>140.0</ele><time>2026-04-25T15:05:12.878Z</time></trkpt><trkpt lat="43.927265" lon="11.125245"><ele>142.2</ele><time>2026-04-25T15:05:13.885Z</time></trkpt><trkpt lat="43.927175" lon="11.1252967"><ele>144.4</ele><time>2026-04-25T15:05:14.825Z</time></trkpt><trkpt lat="43.92708" lon="11.1253567"><ele>146.6</ele><time>2026-04-25T15:05:15.832Z</time></trkpt><trkpt lat="43.92699" lon="11.12543"><ele>148.8</ele><time>2026-04-25T15:05:16.838Z</time></trkpt><trkpt lat="43.9269" lon="11.1255217"><ele>151.0</ele><time>2026-04-25T15:05:17.845Z</time></trkpt><trkpt lat="43.9268167" lon="11.1256167"><ele>151.0</ele><time>2026-04-25T15:05:18.852Z</time></trkpt><trkpt lat="43.9267333" lon="11.1257183"><ele>151.0</ele><time>2026-04-25T15:05:19.857Z</time></trkpt><trkpt lat="43.9266583" lon="11.1258117"><ele>151.0</ele><time>2026-04-25T15:05:20.865Z</time></trkpt><trkpt lat="43.926585" lon="11.125895"><ele>151.0</ele><time>2026-04-25T15:05:21.871Z</time></trkpt><trkpt lat="43.92651" lon="11.12599"><ele>151.0</ele><time>2026-04-25T15:05:22.878Z</time></trkpt><trkpt lat="43.926435" lon="11.1260933"><ele>146.6</ele><time>2026-04-25T15:05:23.818Z</time></trkpt><trkpt lat="43.9263567" lon="11.1261883"><ele>142.2</ele><time>2026-04-25T15:05:24.825Z</time></trkpt><trkpt lat="43.9262767" lon="11.1263017"><ele>137.8</ele><time>2026-04-25T15:05:25.831Z</time></trkpt><trkpt lat="43.9262" lon="11.1264"><ele>133.4</ele><time>2026-04-25T15:05:26.838Z</time></trkpt><trkpt lat="43.926125" lon="11.1264967"><ele>129.0</ele><time>2026-04-25T15:05:27.844Z</time></trkpt><trkpt lat="43.926055" lon="11.1265833"><ele>130.0</ele><time>2026-04-25T15:05:28.851Z</time></trkpt><trkpt lat="43.9259867" lon="11.1266667"><ele>131.0</ele><time>2026-04-25T15:05:29.858Z</time></trkpt><trkpt lat="43.9259183" lon="11.126745"><ele>132.0</ele><time>2026-04-25T15:05:30.863Z</time></trkpt><trkpt lat="43.9258433" lon="11.126815"><ele>133.0</ele><time>2026-04-25T15:05:31.871Z</time></trkpt><trkpt lat="43.9257667" lon="11.126885"><ele>134.0</ele><time>2026-04-25T15:05:32.878Z</time></trkpt><trkpt lat="43.9256933" lon="11.1269517"><ele>135.0</ele><time>2026-04-25T15:05:33.817Z</time></trkpt><trkpt lat="43.9256133" lon="11.1270067"><ele>135.0</ele><time>2026-04-25T15:05:34.823Z</time></trkpt><trkpt lat="43.9255217" lon="11.12705"><ele>135.0</ele><time>2026-04-25T15:05:35.83Z</time></trkpt><trkpt lat="43.9254183" lon="11.1270783"><ele>135.0</ele><time>2026-04-25T15:05:36.903Z</time></trkpt><trkpt lat="43.9253083" lon="11.1270883"><ele>135.0</ele><time>2026-04-25T15:05:37.911Z</time></trkpt><trkpt lat="43.925195" lon="11.1270717"><ele>135.0</ele><time>2026-04-25T15:05:38.85Z</time></trkpt><trkpt lat="43.9250767" lon="11.1270517"><ele>134.0</ele><time>2026-04-25T15:05:39.857Z</time></trkpt><trkpt lat="43.9249567" lon="11.12702"><ele>133.0</ele><time>2026-04-25T15:05:40.863Z</time></trkpt><trkpt lat="43.924835" lon="11.12698"><ele>132.0</ele><time>2026-04-25T15:05:41.869Z</time></trkpt><trkpt lat="43.9247117" lon="11.12693"><ele>131.0</ele><time>2026-04-25T15:05:42.877Z</time></trkpt><trkpt lat="43.9245917" lon="11.1268683"><ele>131.0</ele><time>2026-04-25T15:05:43.816Z</time></trkpt><trkpt lat="43.9244717" lon="11.12682"><ele>131.0</ele><time>2026-04-25T15:05:44.823Z</time></trkpt><trkpt lat="43.92435" lon="11.1267617"><ele>131.0</ele><time>2026-04-25T15:05:45.897Z</time></trkpt><trkpt lat="43.92422" lon="11.1267267"><ele>131.0</ele><time>2026-04-25T15:05:46.902Z</time></trkpt><trkpt lat="43.9240817" lon="11.1267033"><ele>130.25</ele><time>2026-04-25T15:05:47.91Z</time></trkpt><trkpt lat="43.9239483" lon="11.12668"><ele>129.5</ele><time>2026-04-25T15:05:48.85Z</time></trkpt><trkpt lat="43.92381" lon="11.1266583"><ele>128.75</ele><time>2026-04-25T15:05:49.855Z</time></trkpt><trkpt lat="43.923675" lon="11.1266283"><ele>128.0</ele><time>2026-04-25T15:05:50.863Z</time></trkpt><trkpt lat="43.92354" lon="11.1265883"><ele>133.75</ele><time>2026-04-25T15:05:51.868Z</time></trkpt><trkpt lat="43.9234033" lon="11.126535"><ele>139.5</ele><time>2026-04-25T15:05:52.876Z</time></trkpt><trkpt lat="43.9232683" lon="11.12647"><ele>145.25</ele><time>2026-04-25T15:05:53.882Z</time></trkpt><trkpt lat="43.923135" lon="11.1264033"><ele>151.0</ele><time>2026-04-25T15:05:54.889Z</time></trkpt><trkpt lat="43.923005" lon="11.12634"><ele>151.0</ele><time>2026-04-25T15:05:55.896Z</time></trkpt><trkpt lat="43.9228733" lon="11.1262967"><ele>151.0</ele><time>2026-04-25T15:05:56.903Z</time></trkpt><trkpt lat="43.9227483" lon="11.1262783"><ele>151.0</ele><time>2026-04-25T15:05:57.909Z</time></trkpt><trkpt lat="43.922625" lon="11.1262733"><ele>151.0</ele><time>2026-04-25T15:05:58.849Z</time></trkpt><trkpt lat="43.9225083" lon="11.1262717"><ele>148.75</ele><time>2026-04-25T15:05:59.855Z</time></trkpt><trkpt lat="43.922385" lon="11.126265"><ele>146.5</ele><time>2026-04-25T15:06:00.861Z</time></trkpt><trkpt lat="43.9222633" lon="11.1262467"><ele>144.25</ele><time>2026-04-25T15:06:01.868Z</time></trkpt><trkpt lat="43.9221467" lon="11.1262267"><ele>142.0</ele><time>2026-04-25T15:06:02.875Z</time></trkpt><trkpt lat="43.9220317" lon="11.1262117"><ele>142.0</ele><time>2026-04-25T15:06:03.881Z</time></trkpt><trkpt lat="43.921925" lon="11.126175"><ele>142.0</ele><time>2026-04-25T15:06:04.889Z</time></trkpt><trkpt lat="43.9218167" lon="11.126145"><ele>142.0</ele><time>2026-04-25T15:06:05.895Z</time></trkpt><trkpt lat="43.921715" lon="11.1261133"><ele>142.0</ele><time>2026-04-25T15:06:06.902Z</time></trkpt><trkpt lat="43.9216167" lon="11.1260833"><ele>142.0</ele><time>2026-04-25T15:06:07.841Z</time></trkpt><trkpt lat="43.921515" lon="11.12606"><ele>138.6</ele><time>2026-04-25T15:06:08.848Z</time></trkpt><trkpt lat="43.9214167" lon="11.12603"><ele>135.2</ele><time>2026-04-25T15:06:09.855Z</time></trkpt><trkpt lat="43.9213167" lon="11.1259983"><ele>131.8</ele><time>2026-04-25T15:06:10.861Z</time></trkpt><trkpt lat="43.921215" lon="11.1259733"><ele>128.4</ele><time>2026-04-25T15:06:11.868Z</time></trkpt><trkpt lat="43.92111" lon="11.1259583"><ele>125.0</ele><time>2026-04-25T15:06:12.874Z</time></trkpt><trkpt lat="43.921015" lon="11.12596"><ele>125.0</ele><time>2026-04-25T15:06:13.881Z</time></trkpt><trkpt lat="43.9209117" lon="11.1259783"><ele>125.0</ele><time>2026-04-25T15:06:14.888Z</time></trkpt><trkpt lat="43.9208183" lon="11.1260167"><ele>125.0</ele><time>2026-04-25T15:06:15.894Z</time></trkpt><trkpt lat="43.920715" lon="11.1260617"><ele>125.0</ele><time>2026-04-25T15:06:16.9Z</time></trkpt><trkpt lat="43.9206133" lon="11.12611"><ele>125.0</ele><time>2026-04-25T15:06:17.841Z</time></trkpt><trkpt lat="43.9205117" lon="11.1261683"><ele>123.25</ele><time>2026-04-25T15:06:18.847Z</time></trkpt><trkpt lat="43.9204083" lon="11.1262217"><ele>121.5</ele><time>2026-04-25T15:06:19.854Z</time></trkpt><trkpt lat="43.9203067" lon="11.1262817"><ele>119.75</ele><time>2026-04-25T15:06:20.86Z</time></trkpt><trkpt lat="43.9202033" lon="11.1263483"><ele>118.0</ele><time>2026-04-25T15:06:21.866Z</time></trkpt><trkpt lat="43.9200883" lon="11.12639"><ele>120.0</ele><time>2026-04-25T15:06:22.874Z</time></trkpt><trkpt lat="43.9199717" lon="11.1264283"><ele>122.0</ele><time>2026-04-25T15:06:23.88Z</time></trkpt><trkpt lat="43.9198483" lon="11.1264383"><ele>124.0</ele><time>2026-04-25T15:06:24.887Z</time></trkpt><trkpt lat="43.9197233" lon="11.1264383"><ele>126.0</ele><time>2026-04-25T15:06:25.893Z</time></trkpt><trkpt lat="43.919595" lon="11.12643"><ele>126.0</ele><time>2026-04-25T15:06:26.9Z</time></trkpt><trkpt lat="43.9194683" lon="11.1264183"><ele>126.0</ele><time>2026-04-25T15:06:27.84Z</time></trkpt><trkpt lat="43.9193483" lon="11.126395"><ele>126.0</ele><time>2026-04-25T15:06:28.846Z</time></trkpt><trkpt lat="43.919225" lon="11.1263567"><ele>126.0</ele><time>2026-04-25T15:06:29.853Z</time></trkpt><trkpt lat="43.9191017" lon="11.126305"><ele>128.25</ele><time>2026-04-25T15:06:30.86Z</time></trkpt><trkpt lat="43.91897" lon="11.12626"><ele>130.5</ele><time>2026-04-25T15:06:31.865Z</time></trkpt><trkpt lat="43.9188333" lon="11.1262067"><ele>132.75</ele><time>2026-04-25T15:06:32.872Z</time></trkpt><trkpt lat="43.918695" lon="11.1261467"><ele>135.0</ele><time>2026-04-25T15:06:33.88Z</time></trkpt><trkpt lat="43.918555" lon="11.1260883"><ele>135.0</ele><time>2026-04-25T15:06:34.886Z</time></trkpt><trkpt lat="43.9184167" lon="11.1260267"><ele>135.0</ele><time>2026-04-25T15:06:35.893Z</time></trkpt><trkpt lat="43.9182767" lon="11.12595"><ele>135.0</ele><time>2026-04-25T15:06:36.899Z</time></trkpt><trkpt lat="43.91814" lon="11.1258833"><ele>135.0</ele><time>2026-04-25T15:06:37.839Z</time></trkpt><trkpt lat="43.9180067" lon="11.12581"><ele>133.75</ele><time>2026-04-25T15:06:38.846Z</time></trkpt><trkpt lat="43.917875" lon="11.1257467"><ele>132.5</ele><time>2026-04-25T15:06:39.852Z</time></trkpt><trkpt lat="43.9177467" lon="11.1256817"><ele>131.25</ele><time>2026-04-25T15:06:40.858Z</time></trkpt><trkpt lat="43.91762" lon="11.1256167"><ele>130.0</ele><time>2026-04-25T15:06:41.866Z</time></trkpt><trkpt lat="43.91749" lon="11.1255533"><ele>130.0</ele><time>2026-04-25T15:06:42.871Z</time></trkpt><trkpt lat="43.9173617" lon="11.125485"><ele>130.0</ele><time>2026-04-25T15:06:43.879Z</time></trkpt><trkpt lat="43.917235" lon="11.1254167"><ele>130.0</ele><time>2026-04-25T15:06:44.885Z</time></trkpt><trkpt lat="43.91711" lon="11.1253483"><ele>130.0</ele><time>2026-04-25T15:06:45.892Z</time></trkpt><trkpt lat="43.9169833" lon="11.125285"><ele>130.0</ele><time>2026-04-25T15:06:46.832Z</time></trkpt><trkpt lat="43.9168533" lon="11.125225"><ele>130.0</ele><time>2026-04-25T15:06:47.837Z</time></trkpt><trkpt lat="43.9167183" lon="11.12517"><ele>130.0</ele><time>2026-04-25T15:06:48.845Z</time></trkpt><trkpt lat="43.91658" lon="11.12512"><ele>130.0</ele><time>2026-04-25T15:06:49.85Z</time></trkpt><trkpt lat="43.91644" lon="11.1250817"><ele>127.0</ele><time>2026-04-25T15:06:50.858Z</time></trkpt><trkpt lat="43.9162933" lon="11.12506"><ele>124.0</ele><time>2026-04-25T15:06:51.865Z</time></trkpt><trkpt lat="43.9161467" lon="11.1250483"><ele>121.0</ele><time>2026-04-25T15:06:52.871Z</time></trkpt><trkpt lat="43.916" lon="11.1250333"><ele>118.0</ele><time>2026-04-25T15:06:53.878Z</time></trkpt><trkpt lat="43.9158567" lon="11.1250167"><ele>117.25</ele><time>2026-04-25T15:06:54.884Z</time></trkpt><trkpt lat="43.9157167" lon="11.1249983"><ele>116.5</ele><time>2026-04-25T15:06:55.891Z</time></trkpt><trkpt lat="43.9155833" lon="11.1249683"><ele>115.75</ele><time>2026-04-25T15:06:56.83Z</time></trkpt><trkpt lat="43.9154517" lon="11.1249533"><ele>115.0</ele><time>2026-04-25T15:06:57.837Z</time></trkpt><trkpt lat="43.9153233" lon="11.1249433"><ele>115.0</ele><time>2026-04-25T15:06:58.844Z</time></trkpt><trkpt lat="43.9151983" lon="11.124935"><ele>115.0</ele><time>2026-04-25T15:06:59.85Z</time></trkpt><trkpt lat="43.91508" lon="11.12493"><ele>115.0</ele><time>2026-04-25T15:07:00.857Z</time></trkpt><trkpt lat="43.9149617" lon="11.1249233"><ele>115.0</ele><time>2026-04-25T15:07:01.864Z</time></trkpt><trkpt lat="43.9148417" lon="11.1249167"><ele>114.5</ele><time>2026-04-25T15:07:02.871Z</time></trkpt><trkpt lat="43.914725" lon="11.1249067"><ele>114.0</ele><time>2026-04-25T15:07:03.877Z</time></trkpt><trkpt lat="43.9146083" lon="11.124905"><ele>113.5</ele><time>2026-04-25T15:07:04.884Z</time></trkpt><trkpt lat="43.914495" lon="11.1248967"><ele>113.0</ele><time>2026-04-25T15:07:05.89Z</time></trkpt><trkpt lat="43.9132683" lon="11.12386"><ele>114.60000000000001</ele><time>2026-04-25T15:07:19.849Z</time></trkpt><trkpt lat="43.9132083" lon="11.1237417"><ele>116.20000000000002</ele><time>2026-04-25T15:07:20.856Z</time></trkpt><trkpt lat="43.9131583" lon="11.123615"><ele>117.8</ele><time>2026-04-25T15:07:21.862Z</time></trkpt><trkpt lat="43.9131067" lon="11.123485"><ele>119.4</ele><time>2026-04-25T15:07:22.869Z</time></trkpt><trkpt lat="43.9130567" lon="11.1233517"><ele>121.0</ele><time>2026-04-25T15:07:23.876Z</time></trkpt><trkpt lat="43.912985" lon="11.1232333"><ele>122.75</ele><time>2026-04-25T15:07:24.881Z</time></trkpt><trkpt lat="43.9129217" lon="11.1231167"><ele>124.5</ele><time>2026-04-25T15:07:25.889Z</time></trkpt><trkpt lat="43.91286" lon="11.123"><ele>126.25</ele><time>2026-04-25T15:07:26.828Z</time></trkpt><trkpt lat="43.912795" lon="11.1228767"><ele>128.0</ele><time>2026-04-25T15:07:27.835Z</time></trkpt><trkpt lat="43.9126967" lon="11.1227317"><ele>128.0</ele><time>2026-04-25T15:07:28.842Z</time></trkpt><trkpt lat="43.9126333" lon="11.1226033"><ele>128.0</ele><time>2026-04-25T15:07:29.848Z</time></trkpt><trkpt lat="43.912565" lon="11.1224683"><ele>128.0</ele><time>2026-04-25T15:07:30.855Z</time></trkpt><trkpt lat="43.9124783" lon="11.1223233"><ele>128.0</ele><time>2026-04-25T15:07:31.862Z</time></trkpt><trkpt lat="43.9124067" lon="11.1221867"><ele>124.5</ele><time>2026-04-25T15:07:32.868Z</time></trkpt><trkpt lat="43.91233" lon="11.12204"><ele>121.0</ele><time>2026-04-25T15:07:33.875Z</time></trkpt><trkpt lat="43.91225" lon="11.1218917"><ele>117.5</ele><time>2026-04-25T15:07:34.881Z</time></trkpt><trkpt lat="43.912165" lon="11.1217467"><ele>114.0</ele><time>2026-04-25T15:07:35.821Z</time></trkpt><trkpt lat="43.91208" lon="11.1215967"><ele>116.0</ele><time>2026-04-25T15:07:36.828Z</time></trkpt><trkpt lat="43.9119933" lon="11.1214517"><ele>118.0</ele><time>2026-04-25T15:07:37.834Z</time></trkpt><trkpt lat="43.9119033" lon="11.12131"><ele>120.0</ele><time>2026-04-25T15:07:38.84Z</time></trkpt><trkpt lat="43.911805" lon="11.121195"><ele>122.0</ele><time>2026-04-25T15:07:39.848Z</time></trkpt><trkpt lat="43.9117033" lon="11.1210717"><ele>116.75</ele><time>2026-04-25T15:07:40.854Z</time></trkpt><trkpt lat="43.91159" lon="11.1209667"><ele>111.5</ele><time>2026-04-25T15:07:41.861Z</time></trkpt><trkpt lat="43.91148" lon="11.1208717"><ele>106.25</ele><time>2026-04-25T15:07:42.867Z</time></trkpt><trkpt lat="43.9113733" lon="11.1207633"><ele>101.0</ele><time>2026-04-25T15:07:43.874Z</time></trkpt><trkpt lat="43.9112783" lon="11.1206483"><ele>101.0</ele><time>2026-04-25T15:07:44.881Z</time></trkpt><trkpt lat="43.9111917" lon="11.1205183"><ele>101.0</ele><time>2026-04-25T15:07:45.819Z</time></trkpt><trkpt lat="43.9111083" lon="11.1203683"><ele>101.0</ele><time>2026-04-25T15:07:46.827Z</time></trkpt><trkpt lat="43.911025" lon="11.1202033"><ele>101.0</ele><time>2026-04-25T15:07:47.834Z</time></trkpt><trkpt lat="43.91095" lon="11.120025"><ele>98.25</ele><time>2026-04-25T15:07:48.839Z</time></trkpt><trkpt lat="43.91088" lon="11.11984"><ele>95.5</ele><time>2026-04-25T15:07:49.847Z</time></trkpt><trkpt lat="43.9108167" lon="11.119665"><ele>92.75</ele><time>2026-04-25T15:07:50.852Z</time></trkpt><trkpt lat="43.9107583" lon="11.1194983"><ele>90.0</ele><time>2026-04-25T15:07:51.86Z</time></trkpt><trkpt lat="43.910705" lon="11.1193383"><ele>90.0</ele><time>2026-04-25T15:07:52.867Z</time></trkpt><trkpt lat="43.9106617" lon="11.1191733"><ele>90.0</ele><time>2026-04-25T15:07:53.873Z</time></trkpt><trkpt lat="43.910615" lon="11.1190033"><ele>90.0</ele><time>2026-04-25T15:07:54.88Z</time></trkpt><trkpt lat="43.91057" lon="11.1188367"><ele>90.0</ele><time>2026-04-25T15:07:55.819Z</time></trkpt><trkpt lat="43.9105233" lon="11.118675"><ele>91.75</ele><time>2026-04-25T15:07:56.826Z</time></trkpt><trkpt lat="43.91048" lon="11.1185133"><ele>93.5</ele><time>2026-04-25T15:07:57.833Z</time></trkpt><trkpt lat="43.9104283" lon="11.1183517"><ele>95.25</ele><time>2026-04-25T15:07:58.838Z</time></trkpt><trkpt lat="43.91037" lon="11.118185"><ele>97.0</ele><time>2026-04-25T15:07:59.913Z</time></trkpt><trkpt lat="43.9103033" lon="11.1180217"><ele>96.25</ele><time>2026-04-25T15:08:00.852Z</time></trkpt><trkpt lat="43.9102283" lon="11.117865"><ele>95.5</ele><time>2026-04-25T15:08:01.859Z</time></trkpt><trkpt lat="43.9101483" lon="11.11771"><ele>94.75</ele><time>2026-04-25T15:08:02.866Z</time></trkpt><trkpt lat="43.9100633" lon="11.117565"><ele>94.0</ele><time>2026-04-25T15:08:03.873Z</time></trkpt><trkpt lat="43.9099717" lon="11.11744"><ele>97.75</ele><time>2026-04-25T15:08:04.878Z</time></trkpt><trkpt lat="43.909875" lon="11.1173333"><ele>101.5</ele><time>2026-04-25T15:08:05.819Z</time></trkpt><trkpt lat="43.909775" lon="11.11724"><ele>105.25</ele><time>2026-04-25T15:08:06.825Z</time></trkpt><trkpt lat="43.9096783" lon="11.117145"><ele>109.0</ele><time>2026-04-25T15:08:07.899Z</time></trkpt><trkpt lat="43.9095833" lon="11.1170517"><ele>109.0</ele><time>2026-04-25T15:08:08.905Z</time></trkpt><trkpt lat="43.9094883" lon="11.1169517"><ele>109.0</ele><time>2026-04-25T15:08:09.911Z</time></trkpt><trkpt lat="43.9093917" lon="11.1168533"><ele>109.0</ele><time>2026-04-25T15:08:10.852Z</time></trkpt><trkpt lat="43.9092983" lon="11.1167567"><ele>109.0</ele><time>2026-04-25T15:08:11.858Z</time></trkpt><trkpt lat="43.9091983" lon="11.1166633"><ele>107.0</ele><time>2026-04-25T15:08:12.865Z</time></trkpt><trkpt lat="43.9091083" lon="11.1165767"><ele>105.0</ele><time>2026-04-25T15:08:13.872Z</time></trkpt><trkpt lat="43.9090233" lon="11.1164933"><ele>103.0</ele><time>2026-04-25T15:08:14.811Z</time></trkpt><trkpt lat="43.9089383" lon="11.1164083"><ele>101.0</ele><time>2026-04-25T15:08:15.818Z</time></trkpt><trkpt lat="43.9088517" lon="11.1163233"><ele>99.0</ele><time>2026-04-25T15:08:16.892Z</time></trkpt><trkpt lat="43.9087667" lon="11.1162417"><ele>99.0</ele><time>2026-04-25T15:08:17.897Z</time></trkpt><trkpt lat="43.9086767" lon="11.11617"><ele>99.0</ele><time>2026-04-25T15:08:18.905Z</time></trkpt><trkpt lat="43.90859" lon="11.1160983"><ele>99.0</ele><time>2026-04-25T15:08:19.843Z</time></trkpt><trkpt lat="43.908505" lon="11.11602"><ele>99.0</ele><time>2026-04-25T15:08:20.851Z</time></trkpt><trkpt lat="43.90842" lon="11.1159433"><ele>99.0</ele><time>2026-04-25T15:08:21.858Z</time></trkpt><trkpt lat="43.9083383" lon="11.11586"><ele>96.80000000000001</ele><time>2026-04-25T15:08:22.864Z</time></trkpt><trkpt lat="43.90826" lon="11.115775"><ele>94.60000000000001</ele><time>2026-04-25T15:08:23.871Z</time></trkpt><trkpt lat="43.9081917" lon="11.1156833"><ele>92.4</ele><time>2026-04-25T15:08:24.878Z</time></trkpt><trkpt lat="43.9081433" lon="11.11557"><ele>90.2</ele><time>2026-04-25T15:08:25.884Z</time></trkpt><trkpt lat="43.908115" lon="11.1154433"><ele>88.0</ele><time>2026-04-25T15:08:26.89Z</time></trkpt><trkpt lat="43.9081183" lon="11.115295"><ele>88.0</ele><time>2026-04-25T15:08:27.898Z</time></trkpt><trkpt lat="43.9081267" lon="11.115145"><ele>88.0</ele><time>2026-04-25T15:08:28.903Z</time></trkpt><trkpt lat="43.9081367" lon="11.114975"><ele>88.0</ele><time>2026-04-25T15:08:29.843Z</time></trkpt><trkpt lat="43.9081483" lon="11.1148083"><ele>88.0</ele><time>2026-04-25T15:08:30.85Z</time></trkpt><trkpt lat="43.9081617" lon="11.11465"><ele>88.25</ele><time>2026-04-25T15:08:31.857Z</time></trkpt><trkpt lat="43.908175" lon="11.1144883"><ele>88.5</ele><time>2026-04-25T15:08:32.864Z</time></trkpt><trkpt lat="43.90818" lon="11.1143283"><ele>88.75</ele><time>2026-04-25T15:08:33.869Z</time></trkpt><trkpt lat="43.908175" lon="11.1141683"><ele>89.0</ele><time>2026-04-25T15:08:34.877Z</time></trkpt><trkpt lat="43.9081583" lon="11.1140167"><ele>89.6</ele><time>2026-04-25T15:08:35.883Z</time></trkpt><trkpt lat="43.90814" lon="11.11387"><ele>90.2</ele><time>2026-04-25T15:08:36.89Z</time></trkpt><trkpt lat="43.9081133" lon="11.113725"><ele>90.8</ele><time>2026-04-25T15:08:37.897Z</time></trkpt><trkpt lat="43.9080733" lon="11.1135833"><ele>91.39999999999999</ele><time>2026-04-25T15:08:38.903Z</time></trkpt><trkpt lat="43.9080283" lon="11.1134383"><ele>92.0</ele><time>2026-04-25T15:08:39.843Z</time></trkpt><trkpt lat="43.9079667" lon="11.1133"><ele>92.0</ele><time>2026-04-25T15:08:40.85Z</time></trkpt><trkpt lat="43.9079017" lon="11.11316"><ele>92.0</ele><time>2026-04-25T15:08:41.855Z</time></trkpt><trkpt lat="43.9078267" lon="11.1130233"><ele>92.0</ele><time>2026-04-25T15:08:42.863Z</time></trkpt><trkpt lat="43.907745" lon="11.112885"><ele>92.0</ele><time>2026-04-25T15:08:43.868Z</time></trkpt><trkpt lat="43.9076667" lon="11.1127417"><ele>92.0</ele><time>2026-04-25T15:08:44.876Z</time></trkpt><trkpt lat="43.907585" lon="11.1125967"><ele>92.0</ele><time>2026-04-25T15:08:45.883Z</time></trkpt><trkpt lat="43.9075033" lon="11.11246"><ele>92.0</ele><time>2026-04-25T15:08:46.888Z</time></trkpt><trkpt lat="43.9074233" lon="11.1123267"><ele>92.0</ele><time>2026-04-25T15:08:47.896Z</time></trkpt><trkpt lat="43.9073433" lon="11.112195"><ele>91.25</ele><time>2026-04-25T15:08:48.903Z</time></trkpt><trkpt lat="43.9072633" lon="11.1120617"><ele>90.5</ele><time>2026-04-25T15:08:49.842Z</time></trkpt><trkpt lat="43.9071867" lon="11.1119317"><ele>89.75</ele><time>2026-04-25T15:08:50.849Z</time></trkpt><trkpt lat="43.9071167" lon="11.1118067"><ele>89.0</ele><time>2026-04-25T15:08:51.855Z</time></trkpt><trkpt lat="43.9070517" lon="11.1116817"><ele>91.0</ele><time>2026-04-25T15:08:52.862Z</time></trkpt><trkpt lat="43.9069867" lon="11.11156"><ele>93.0</ele><time>2026-04-25T15:08:53.868Z</time></trkpt><trkpt lat="43.906925" lon="11.111445"><ele>95.0</ele><time>2026-04-25T15:08:54.875Z</time></trkpt><trkpt lat="43.9068683" lon="11.111325"><ele>97.0</ele><time>2026-04-25T15:08:55.882Z</time></trkpt><trkpt lat="43.906815" lon="11.1111883"><ele>99.0</ele><time>2026-04-25T15:08:56.889Z</time></trkpt><trkpt lat="43.9067633" lon="11.1110483"><ele>96.5</ele><time>2026-04-25T15:08:57.895Z</time></trkpt><trkpt lat="43.9067067" lon="11.1108967"><ele>94.0</ele><time>2026-04-25T15:08:58.902Z</time></trkpt><trkpt lat="43.906655" lon="11.1107417"><ele>91.5</ele><time>2026-04-25T15:08:59.841Z</time></trkpt><trkpt lat="43.906615" lon="11.11059"><ele>89.0</ele><time>2026-04-25T15:09:00.847Z</time></trkpt><trkpt lat="43.9065783" lon="11.1104417"><ele>89.0</ele><time>2026-04-25T15:09:01.855Z</time></trkpt><trkpt lat="43.9065417" lon="11.1102983"><ele>89.0</ele><time>2026-04-25T15:09:02.86Z</time></trkpt><trkpt lat="43.9065117" lon="11.11015"><ele>89.0</ele><time>2026-04-25T15:09:03.868Z</time></trkpt><trkpt lat="43.9064867" lon="11.11"><ele>89.0</ele><time>2026-04-25T15:09:04.873Z</time></trkpt><trkpt lat="43.906455" lon="11.1098517"><ele>89.0</ele><time>2026-04-25T15:09:05.881Z</time></trkpt><trkpt lat="43.906425" lon="11.1096933"><ele>89.25</ele><time>2026-04-25T15:09:06.888Z</time></trkpt><trkpt lat="43.9063883" lon="11.1095367"><ele>89.5</ele><time>2026-04-25T15:09:07.894Z</time></trkpt><trkpt lat="43.9063517" lon="11.1093783"><ele>89.75</ele><time>2026-04-25T15:09:08.833Z</time></trkpt><trkpt lat="43.906315" lon="11.109215"><ele>90.0</ele><time>2026-04-25T15:09:09.84Z</time></trkpt><trkpt lat="43.906275" lon="11.1090517"><ele>90.0</ele><time>2026-04-25T15:09:10.847Z</time></trkpt><trkpt lat="43.9062317" lon="11.108875"><ele>90.0</ele><time>2026-04-25T15:09:11.854Z</time></trkpt><trkpt lat="43.906185" lon="11.1087067"><ele>90.0</ele><time>2026-04-25T15:09:12.86Z</time></trkpt><trkpt lat="43.9061367" lon="11.1085433"><ele>90.0</ele><time>2026-04-25T15:09:13.867Z</time></trkpt><trkpt lat="43.9060867" lon="11.10838"><ele>89.4</ele><time>2026-04-25T15:09:14.874Z</time></trkpt><trkpt lat="43.9060383" lon="11.1082267"><ele>88.8</ele><time>2026-04-25T15:09:15.88Z</time></trkpt><trkpt lat="43.9059917" lon="11.1080783"><ele>88.19999999999999</ele><time>2026-04-25T15:09:16.887Z</time></trkpt><trkpt lat="43.90595" lon="11.1079467"><ele>87.6</ele><time>2026-04-25T15:09:17.894Z</time></trkpt><trkpt lat="43.9059067" lon="11.1078283"><ele>87.0</ele><time>2026-04-25T15:09:18.833Z</time></trkpt><trkpt lat="43.9058633" lon="11.10773"><ele>87.0</ele><time>2026-04-25T15:09:19.84Z</time></trkpt><trkpt lat="43.9058283" lon="11.1076417"><ele>87.0</ele><time>2026-04-25T15:09:20.846Z</time></trkpt><trkpt lat="43.9057817" lon="11.1074983"><ele>87.0</ele><time>2026-04-25T15:09:22.859Z</time></trkpt><trkpt lat="43.90577" lon="11.1073633"><ele>87.0</ele><time>2026-04-25T15:09:24.873Z</time></trkpt><trkpt lat="43.9057567" lon="11.1071967"><ele>87.0</ele><time>2026-04-25T15:09:26.885Z</time></trkpt><trkpt lat="43.9057367" lon="11.1070933"><ele>86.8</ele><time>2026-04-25T15:09:27.892Z</time></trkpt><trkpt lat="43.9057117" lon="11.106985"><ele>86.6</ele><time>2026-04-25T15:09:28.832Z</time></trkpt><trkpt lat="43.90568" lon="11.1068683"><ele>86.39999999999999</ele><time>2026-04-25T15:09:29.838Z</time></trkpt><trkpt lat="43.9056417" lon="11.1067467"><ele>86.19999999999999</ele><time>2026-04-25T15:09:30.846Z</time></trkpt><trkpt lat="43.9055867" lon="11.1066167"><ele>86.0</ele><time>2026-04-25T15:09:31.852Z</time></trkpt><trkpt lat="43.9055183" lon="11.106485"><ele>87.75</ele><time>2026-04-25T15:09:32.859Z</time></trkpt><trkpt lat="43.90544" lon="11.106365"><ele>89.5</ele><time>2026-04-25T15:09:33.866Z</time></trkpt><trkpt lat="43.9053583" lon="11.1062433"><ele>91.25</ele><time>2026-04-25T15:09:34.872Z</time></trkpt><trkpt lat="43.9052667" lon="11.106125"><ele>93.0</ele><time>2026-04-25T15:09:35.879Z</time></trkpt><trkpt lat="43.9051717" lon="11.106015"><ele>94.5</ele><time>2026-04-25T15:09:36.884Z</time></trkpt><trkpt lat="43.9050683" lon="11.1059083"><ele>96.0</ele><time>2026-04-25T15:09:37.891Z</time></trkpt><trkpt lat="43.9049617" lon="11.1058033"><ele>97.5</ele><time>2026-04-25T15:09:38.832Z</time></trkpt><trkpt lat="43.9048533" lon="11.1057017"><ele>99.0</ele><time>2026-04-25T15:09:39.837Z</time></trkpt><trkpt lat="43.904745" lon="11.1056017"><ele>99.0</ele><time>2026-04-25T15:09:40.845Z</time></trkpt><trkpt lat="43.904635" lon="11.1054967"><ele>99.0</ele><time>2026-04-25T15:09:41.851Z</time></trkpt><trkpt lat="43.904525" lon="11.10539"><ele>99.0</ele><time>2026-04-25T15:09:42.858Z</time></trkpt><trkpt lat="43.9044117" lon="11.1052817"><ele>99.0</ele><time>2026-04-25T15:09:43.865Z</time></trkpt><trkpt lat="43.9042967" lon="11.1051717"><ele>99.0</ele><time>2026-04-25T15:09:44.871Z</time></trkpt><trkpt lat="43.9041833" lon="11.1050633"><ele>99.0</ele><time>2026-04-25T15:09:45.878Z</time></trkpt><trkpt lat="43.9040667" lon="11.104955"><ele>99.0</ele><time>2026-04-25T15:09:46.884Z</time></trkpt><trkpt lat="43.90395" lon="11.1048383"><ele>99.0</ele><time>2026-04-25T15:09:47.824Z</time></trkpt><trkpt lat="43.9038283" lon="11.1047183"><ele>99.0</ele><time>2026-04-25T15:09:48.831Z</time></trkpt><trkpt lat="43.903705" lon="11.1045967"><ele>99.0</ele><time>2026-04-25T15:09:49.837Z</time></trkpt><trkpt lat="43.9035767" lon="11.1044717"><ele>99.0</ele><time>2026-04-25T15:09:50.843Z</time></trkpt><trkpt lat="43.9034433" lon="11.1043383"><ele>94.66666666666667</ele><time>2026-04-25T15:09:51.851Z</time></trkpt><trkpt lat="43.90331" lon="11.1041967"><ele>90.33333333333334</ele><time>2026-04-25T15:09:52.856Z</time></trkpt><trkpt lat="43.9031933" lon="11.1040333"><ele>86.0</ele><time>2026-04-25T15:09:53.863Z</time></trkpt><trkpt lat="43.9030767" lon="11.1038567"><ele>86.0</ele><time>2026-04-25T15:09:54.87Z</time></trkpt><trkpt lat="43.9029633" lon="11.1036717"><ele>86.0</ele><time>2026-04-25T15:09:55.877Z</time></trkpt><trkpt lat="43.9028567" lon="11.1034817"><ele>86.0</ele><time>2026-04-25T15:09:56.884Z</time></trkpt><trkpt lat="43.9027567" lon="11.103285"><ele>85.33333333333334</ele><time>2026-04-25T15:09:57.823Z</time></trkpt><trkpt lat="43.90266" lon="11.10309"><ele>84.66666666666667</ele><time>2026-04-25T15:09:58.83Z</time></trkpt><trkpt lat="43.9025717" lon="11.1029"><ele>84.0</ele><time>2026-04-25T15:09:59.837Z</time></trkpt><trkpt lat="43.9024917" lon="11.1027117"><ele>81.5</ele><time>2026-04-25T15:10:00.843Z</time></trkpt><trkpt lat="43.902425" lon="11.1025233"><ele>79.0</ele><time>2026-04-25T15:10:01.849Z</time></trkpt><trkpt lat="43.9023683" lon="11.1023533"><ele>76.5</ele><time>2026-04-25T15:10:02.857Z</time></trkpt><trkpt lat="43.9023167" lon="11.102185"><ele>74.0</ele><time>2026-04-25T15:10:03.863Z</time></trkpt><trkpt lat="43.9022733" lon="11.10202"><ele>74.0</ele><time>2026-04-25T15:10:04.87Z</time></trkpt><trkpt lat="43.9022367" lon="11.101855"><ele>74.0</ele><time>2026-04-25T15:10:05.876Z</time></trkpt><trkpt lat="43.9022067" lon="11.101695"><ele>74.0</ele><time>2026-04-25T15:10:06.883Z</time></trkpt><trkpt lat="43.9021783" lon="11.1015417"><ele>74.0</ele><time>2026-04-25T15:10:07.823Z</time></trkpt><trkpt lat="43.9021567" lon="11.1013917"><ele>74.0</ele><time>2026-04-25T15:10:08.828Z</time></trkpt><trkpt lat="43.902135" lon="11.1012433"><ele>74.0</ele><time>2026-04-25T15:10:09.836Z</time></trkpt><trkpt lat="43.9021133" lon="11.1011017"><ele>74.0</ele><time>2026-04-25T15:10:10.842Z</time></trkpt><trkpt lat="43.9020917" lon="11.1009717"><ele>74.0</ele><time>2026-04-25T15:10:11.849Z</time></trkpt><trkpt lat="43.9020717" lon="11.1008517"><ele>74.0</ele><time>2026-04-25T15:10:12.856Z</time></trkpt><trkpt lat="43.9020567" lon="11.10075"><ele>74.0</ele><time>2026-04-25T15:10:13.862Z</time></trkpt><trkpt lat="43.9020383" lon="11.10066"><ele>74.0</ele><time>2026-04-25T15:10:14.868Z</time></trkpt><trkpt lat="43.9020083" lon="11.1005217"><ele>74.0</ele><time>2026-04-25T15:10:16.882Z</time></trkpt><trkpt lat="43.9020033" lon="11.1003933"><ele>74.0</ele><time>2026-04-25T15:10:18.827Z</time></trkpt><trkpt lat="43.9020167" lon="11.1002733"><ele>74.0</ele><time>2026-04-25T15:10:20.842Z</time></trkpt><trkpt lat="43.9020267" lon="11.1001683"><ele>74.0</ele><time>2026-04-25T15:10:22.855Z</time></trkpt><trkpt lat="43.902025" lon="11.1000483"><ele>74.0</ele><time>2026-04-25T15:10:24.868Z</time></trkpt><trkpt lat="43.902015" lon="11.099945"><ele>74.0</ele><time>2026-04-25T15:10:26.882Z</time></trkpt><trkpt lat="43.90204" lon="11.0996383"><ele>74.0</ele><time>2026-04-25T15:10:50.907Z</time></trkpt><trkpt lat="43.9020817" lon="11.0995183"><ele>74.0</ele><time>2026-04-25T15:10:51.846Z</time></trkpt><trkpt lat="43.9021383" lon="11.0993883"><ele>74.2</ele><time>2026-04-25T15:10:52.92Z</time></trkpt><trkpt lat="43.9021817" lon="11.0992667"><ele>74.4</ele><time>2026-04-25T15:10:53.859Z</time></trkpt><trkpt lat="43.9022033" lon="11.099145"><ele>74.6</ele><time>2026-04-25T15:10:54.799Z</time></trkpt><trkpt lat="43.90221" lon="11.0990233"><ele>74.8</ele><time>2026-04-25T15:10:55.873Z</time></trkpt><trkpt lat="43.9021683" lon="11.0989117"><ele>75.0</ele><time>2026-04-25T15:10:56.879Z</time></trkpt><trkpt lat="43.9021167" lon="11.0988033"><ele>75.0</ele><time>2026-04-25T15:10:57.885Z</time></trkpt><trkpt lat="43.9020467" lon="11.0986583"><ele>75.0</ele><time>2026-04-25T15:10:58.892Z</time></trkpt><trkpt lat="43.9019933" lon="11.0984983"><ele>75.0</ele><time>2026-04-25T15:10:59.832Z</time></trkpt><trkpt lat="43.9019583" lon="11.0983017"><ele>75.0</ele><time>2026-04-25T15:11:00.906Z</time></trkpt><trkpt lat="43.90194" lon="11.0980717"><ele>75.0</ele><time>2026-04-25T15:11:01.845Z</time></trkpt><trkpt lat="43.90192" lon="11.0978283"><ele>75.0</ele><time>2026-04-25T15:11:02.919Z</time></trkpt><trkpt lat="43.9019" lon="11.0975783"><ele>75.0</ele><time>2026-04-25T15:11:03.859Z</time></trkpt><trkpt lat="43.9018767" lon="11.0973233"><ele>74.0</ele><time>2026-04-25T15:11:04.865Z</time></trkpt><trkpt lat="43.901855" lon="11.0970367"><ele>73.0</ele><time>2026-04-25T15:11:05.871Z</time></trkpt><trkpt lat="43.90184" lon="11.09673"><ele>72.0</ele><time>2026-04-25T15:11:06.878Z</time></trkpt><trkpt lat="43.9018283" lon="11.0964317"><ele>71.66666666666667</ele><time>2026-04-25T15:11:07.885Z</time></trkpt><trkpt lat="43.9018217" lon="11.0961267"><ele>71.33333333333334</ele><time>2026-04-25T15:11:08.892Z</time></trkpt><trkpt lat="43.9018233" lon="11.0958317"><ele>71.0</ele><time>2026-04-25T15:11:09.83Z</time></trkpt><trkpt lat="43.901835" lon="11.0955483"><ele>71.0</ele><time>2026-04-25T15:11:10.904Z</time></trkpt><trkpt lat="43.90185" lon="11.0952733"><ele>71.0</ele><time>2026-04-25T15:11:11.844Z</time></trkpt><trkpt lat="43.90187" lon="11.0949983"><ele>71.0</ele><time>2026-04-25T15:11:12.918Z</time></trkpt><trkpt lat="43.901895" lon="11.0947233"><ele>71.0</ele><time>2026-04-25T15:11:13.858Z</time></trkpt><trkpt lat="43.90192" lon="11.0944567"><ele>71.0</ele><time>2026-04-25T15:11:14.864Z</time></trkpt><trkpt lat="43.9019467" lon="11.094205"><ele>71.0</ele><time>2026-04-25T15:11:15.871Z</time></trkpt><trkpt lat="43.901985" lon="11.09397"><ele>71.0</ele><time>2026-04-25T15:11:16.878Z</time></trkpt><trkpt lat="43.9020333" lon="11.0937417"><ele>71.0</ele><time>2026-04-25T15:11:17.883Z</time></trkpt><trkpt lat="43.9020883" lon="11.0935233"><ele>71.0</ele><time>2026-04-25T15:11:18.891Z</time></trkpt><trkpt lat="43.9021583" lon="11.0933133"><ele>70.75</ele><time>2026-04-25T15:11:19.83Z</time></trkpt><trkpt lat="43.9022433" lon="11.0931317"><ele>70.5</ele><time>2026-04-25T15:11:20.904Z</time></trkpt><trkpt lat="43.902335" lon="11.0929717"><ele>70.25</ele><time>2026-04-25T15:11:21.844Z</time></trkpt><trkpt lat="43.9024367" lon="11.0928333"><ele>70.0</ele><time>2026-04-25T15:11:22.917Z</time></trkpt><trkpt lat="43.902545" lon="11.0927267"><ele>70.5</ele><time>2026-04-25T15:11:23.856Z</time></trkpt><trkpt lat="43.90265" lon="11.0926383"><ele>71.0</ele><time>2026-04-25T15:11:24.864Z</time></trkpt><trkpt lat="43.9027433" lon="11.09254"><ele>71.5</ele><time>2026-04-25T15:11:25.87Z</time></trkpt><trkpt lat="43.9028217" lon="11.0924183"><ele>72.0</ele><time>2026-04-25T15:11:26.877Z</time></trkpt><trkpt lat="43.9028733" lon="11.0922733"><ele>72.0</ele><time>2026-04-25T15:11:27.883Z</time></trkpt><trkpt lat="43.9028933" lon="11.0921133"><ele>72.0</ele><time>2026-04-25T15:11:28.89Z</time></trkpt><trkpt lat="43.9028883" lon="11.0919567"><ele>72.0</ele><time>2026-04-25T15:11:29.83Z</time></trkpt><trkpt lat="43.90285" lon="11.091815"><ele>72.0</ele><time>2026-04-25T15:11:30.903Z</time></trkpt><trkpt lat="43.9027817" lon="11.0916717"><ele>71.33333333333333</ele><time>2026-04-25T15:11:31.843Z</time></trkpt><trkpt lat="43.9026933" lon="11.091515"><ele>70.66666666666666</ele><time>2026-04-25T15:11:32.917Z</time></trkpt><trkpt lat="43.9026083" lon="11.0913367"><ele>70.0</ele><time>2026-04-25T15:11:33.856Z</time></trkpt><trkpt lat="43.90255" lon="11.09113"><ele>70.0</ele><time>2026-04-25T15:11:34.863Z</time></trkpt><trkpt lat="43.9025117" lon="11.09089"><ele>70.0</ele><time>2026-04-25T15:11:35.869Z</time></trkpt><trkpt lat="43.902475" lon="11.090645"><ele>70.0</ele><time>2026-04-25T15:11:36.875Z</time></trkpt><trkpt lat="43.9024217" lon="11.0904017"><ele>69.33333333333333</ele><time>2026-04-25T15:11:37.815Z</time></trkpt><trkpt lat="43.9023433" lon="11.090155"><ele>68.66666666666667</ele><time>2026-04-25T15:11:38.889Z</time></trkpt><trkpt lat="43.9022333" lon="11.089905"><ele>68.0</ele><time>2026-04-25T15:11:39.829Z</time></trkpt><trkpt lat="43.9020967" lon="11.0896483"><ele>68.0</ele><time>2026-04-25T15:11:40.903Z</time></trkpt><trkpt lat="43.901945" lon="11.0893883"><ele>68.0</ele><time>2026-04-25T15:11:41.841Z</time></trkpt><trkpt lat="43.9017817" lon="11.089115"><ele>68.0</ele><time>2026-04-25T15:11:42.849Z</time></trkpt><trkpt lat="43.9016067" lon="11.0888283"><ele>68.0</ele><time>2026-04-25T15:11:43.855Z</time></trkpt><trkpt lat="43.9014267" lon="11.0885317"><ele>68.0</ele><time>2026-04-25T15:11:44.862Z</time></trkpt><trkpt lat="43.901245" lon="11.08823"><ele>68.0</ele><time>2026-04-25T15:11:45.869Z</time></trkpt><trkpt lat="43.901065" lon="11.08793"><ele>68.0</ele><time>2026-04-25T15:11:46.875Z</time></trkpt><trkpt lat="43.9008883" lon="11.0876333"><ele>68.0</ele><time>2026-04-25T15:11:47.815Z</time></trkpt><trkpt lat="43.9007183" lon="11.0873417"><ele>67.5</ele><time>2026-04-25T15:11:48.889Z</time></trkpt><trkpt lat="43.9005567" lon="11.08707"><ele>67.0</ele><time>2026-04-25T15:11:49.827Z</time></trkpt><trkpt lat="43.9004033" lon="11.0868217"><ele>66.66666666666666</ele><time>2026-04-25T15:11:50.902Z</time></trkpt><trkpt lat="43.90026" lon="11.08659"><ele>66.33333333333333</ele><time>2026-04-25T15:11:51.841Z</time></trkpt><trkpt lat="43.90012" lon="11.0863633"><ele>66.0</ele><time>2026-04-25T15:11:52.848Z</time></trkpt><trkpt lat="43.8999817" lon="11.0861283"><ele>65.66666666666667</ele><time>2026-04-25T15:11:53.855Z</time></trkpt><trkpt lat="43.89985" lon="11.0858983"><ele>65.33333333333334</ele><time>2026-04-25T15:11:54.86Z</time></trkpt><trkpt lat="43.899715" lon="11.08567"><ele>65.0</ele><time>2026-04-25T15:11:55.868Z</time></trkpt><trkpt lat="43.899575" lon="11.0854383"><ele>65.0</ele><time>2026-04-25T15:11:56.874Z</time></trkpt><trkpt lat="43.8994383" lon="11.0852117"><ele>65.0</ele><time>2026-04-25T15:11:57.814Z</time></trkpt><trkpt lat="43.89931" lon="11.0849967"><ele>65.0</ele><time>2026-04-25T15:11:58.887Z</time></trkpt><trkpt lat="43.8991883" lon="11.08479"><ele>65.0</ele><time>2026-04-25T15:11:59.827Z</time></trkpt><trkpt lat="43.8990667" lon="11.084585"><ele>65.0</ele><time>2026-04-25T15:12:00.901Z</time></trkpt><trkpt lat="43.898955" lon="11.0843917"><ele>65.0</ele><time>2026-04-25T15:12:01.841Z</time></trkpt><trkpt lat="43.8988517" lon="11.0842133"><ele>64.75</ele><time>2026-04-25T15:12:02.847Z</time></trkpt><trkpt lat="43.89876" lon="11.084045"><ele>64.5</ele><time>2026-04-25T15:12:03.854Z</time></trkpt><trkpt lat="43.8986767" lon="11.0838867"><ele>64.25</ele><time>2026-04-25T15:12:04.859Z</time></trkpt><trkpt lat="43.8985983" lon="11.0837417"><ele>64.0</ele><time>2026-04-25T15:12:05.866Z</time></trkpt><trkpt lat="43.8985267" lon="11.08363"><ele>64.0</ele><time>2026-04-25T15:12:06.874Z</time></trkpt><trkpt lat="43.898455" lon="11.0835217"><ele>64.0</ele><time>2026-04-25T15:12:07.812Z</time></trkpt><trkpt lat="43.89839" lon="11.0834183"><ele>64.0</ele><time>2026-04-25T15:12:08.886Z</time></trkpt><trkpt lat="43.8983367" lon="11.0833067"><ele>64.0</ele><time>2026-04-25T15:12:09.826Z</time></trkpt><trkpt lat="43.898295" lon="11.0832"><ele>64.0</ele><time>2026-04-25T15:12:10.899Z</time></trkpt><trkpt lat="43.89827" lon="11.0830967"><ele>64.0</ele><time>2026-04-25T15:12:11.84Z</time></trkpt><trkpt lat="43.898255" lon="11.0829733"><ele>64.0</ele><time>2026-04-25T15:12:12.846Z</time></trkpt><trkpt lat="43.8982617" lon="11.0828"><ele>64.0</ele><time>2026-04-25T15:12:13.853Z</time></trkpt><trkpt lat="43.89829" lon="11.082595"><ele>64.0</ele><time>2026-04-25T15:12:14.86Z</time></trkpt><trkpt lat="43.8983417" lon="11.0823867"><ele>63.666666666666664</ele><time>2026-04-25T15:12:15.866Z</time></trkpt><trkpt lat="43.89842" lon="11.0821733"><ele>63.33333333333333</ele><time>2026-04-25T15:12:16.873Z</time></trkpt><trkpt lat="43.89852" lon="11.081955"><ele>63.0</ele><time>2026-04-25T15:12:17.812Z</time></trkpt><trkpt lat="43.8986433" lon="11.0817267"><ele>63.33333333333333</ele><time>2026-04-25T15:12:18.886Z</time></trkpt><trkpt lat="43.898775" lon="11.0814933"><ele>63.666666666666664</ele><time>2026-04-25T15:12:19.826Z</time></trkpt><trkpt lat="43.8989117" lon="11.0812583"><ele>64.0</ele><time>2026-04-25T15:12:20.899Z</time></trkpt><trkpt lat="43.89905" lon="11.081035"><ele>64.0</ele><time>2026-04-25T15:12:21.839Z</time></trkpt><trkpt lat="43.89918" lon="11.0808233"><ele>64.0</ele><time>2026-04-25T15:12:22.846Z</time></trkpt><trkpt lat="43.8992983" lon="11.0806283"><ele>64.0</ele><time>2026-04-25T15:12:23.852Z</time></trkpt><trkpt lat="43.8994033" lon="11.080455"><ele>64.0</ele><time>2026-04-25T15:12:24.859Z</time></trkpt><trkpt lat="43.8995033" lon="11.0802983"><ele>64.0</ele><time>2026-04-25T15:12:25.866Z</time></trkpt><trkpt lat="43.8995883" lon="11.08016"><ele>64.0</ele><time>2026-04-25T15:12:26.872Z</time></trkpt><trkpt lat="43.8996733" lon="11.08004"><ele>64.0</ele><time>2026-04-25T15:12:27.812Z</time></trkpt><trkpt lat="43.8997633" lon="11.0799433"><ele>63.75</ele><time>2026-04-25T15:12:28.885Z</time></trkpt><trkpt lat="43.8998683" lon="11.0798883"><ele>63.5</ele><time>2026-04-25T15:12:29.825Z</time></trkpt><trkpt lat="43.8999883" lon="11.079885"><ele>63.25</ele><time>2026-04-25T15:12:30.899Z</time></trkpt><trkpt lat="43.900115" lon="11.079935"><ele>63.0</ele><time>2026-04-25T15:12:31.838Z</time></trkpt><trkpt lat="43.9002483" lon="11.0800383"><ele>63.66666666666667</ele><time>2026-04-25T15:12:32.845Z</time></trkpt><trkpt lat="43.9003933" lon="11.080195"><ele>64.33333333333334</ele><time>2026-04-25T15:12:33.852Z</time></trkpt><trkpt lat="43.9005367" lon="11.0803783"><ele>65.0</ele><time>2026-04-25T15:12:34.858Z</time></trkpt><trkpt lat="43.9006717" lon="11.0805567"><ele>65.0</ele><time>2026-04-25T15:12:35.932Z</time></trkpt><trkpt lat="43.9007967" lon="11.0807133"><ele>65.0</ele><time>2026-04-25T15:12:36.87Z</time></trkpt><trkpt lat="43.9009133" lon="11.080855"><ele>65.0</ele><time>2026-04-25T15:12:37.81Z</time></trkpt><trkpt lat="43.90101" lon="11.0809967"><ele>65.0</ele><time>2026-04-25T15:12:38.884Z</time></trkpt><trkpt lat="43.9010917" lon="11.0811267"><ele>65.0</ele><time>2026-04-25T15:12:39.824Z</time></trkpt><trkpt lat="43.901165" lon="11.0812367"><ele>65.0</ele><time>2026-04-25T15:12:40.898Z</time></trkpt><trkpt lat="43.90123" lon="11.0813367"><ele>65.0</ele><time>2026-04-25T15:12:41.837Z</time></trkpt><trkpt lat="43.90129" lon="11.08143"><ele>65.0</ele><time>2026-04-25T15:12:42.844Z</time></trkpt><trkpt lat="43.9013467" lon="11.0815067"><ele>65.00000000000001</ele><time>2026-04-25T15:12:43.851Z</time></trkpt><trkpt lat="43.9014033" lon="11.0815633"><ele>65.0</ele><time>2026-04-25T15:12:44.857Z</time></trkpt><trkpt lat="43.9014633" lon="11.08161"><ele>65.0</ele><time>2026-04-25T15:12:45.93Z</time></trkpt><trkpt lat="43.9015233" lon="11.08165"><ele>65.0</ele><time>2026-04-25T15:12:46.871Z</time></trkpt><trkpt lat="43.9015783" lon="11.0817033"><ele>65.0</ele><time>2026-04-25T15:12:47.81Z</time></trkpt><trkpt lat="43.9016333" lon="11.0817617"><ele>65.00000000000001</ele><time>2026-04-25T15:12:48.883Z</time></trkpt><trkpt lat="43.901685" lon="11.0818133"><ele>65.0</ele><time>2026-04-25T15:12:49.823Z</time></trkpt><trkpt lat="43.901795" lon="11.081855"><ele>65.4</ele><time>2026-04-25T15:12:51.837Z</time></trkpt><trkpt lat="43.9018517" lon="11.0817983"><ele>65.8</ele><time>2026-04-25T15:12:52.843Z</time></trkpt><trkpt lat="43.9019033" lon="11.0817217"><ele>66.2</ele><time>2026-04-25T15:12:53.917Z</time></trkpt><trkpt lat="43.9019633" lon="11.08163"><ele>66.6</ele><time>2026-04-25T15:12:54.857Z</time></trkpt><trkpt lat="43.902025" lon="11.0815"><ele>67.0</ele><time>2026-04-25T15:12:55.93Z</time></trkpt><trkpt lat="43.902095" lon="11.0813467"><ele>67.0</ele><time>2026-04-25T15:12:56.869Z</time></trkpt><trkpt lat="43.9021833" lon="11.0811767"><ele>67.0</ele><time>2026-04-25T15:12:57.809Z</time></trkpt><trkpt lat="43.9022867" lon="11.0809933"><ele>67.0</ele><time>2026-04-25T15:12:58.882Z</time></trkpt><trkpt lat="43.9023983" lon="11.0808083"><ele>66.33333333333333</ele><time>2026-04-25T15:12:59.823Z</time></trkpt><trkpt lat="43.9025083" lon="11.0806167"><ele>65.66666666666667</ele><time>2026-04-25T15:13:00.896Z</time></trkpt><trkpt lat="43.90261" lon="11.080415"><ele>65.0</ele><time>2026-04-25T15:13:01.903Z</time></trkpt><trkpt lat="43.90269" lon="11.0802183"><ele>65.0</ele><time>2026-04-25T15:13:02.842Z</time></trkpt><trkpt lat="43.90274" lon="11.0800133"><ele>65.0</ele><time>2026-04-25T15:13:03.916Z</time></trkpt><trkpt lat="43.902755" lon="11.0798067"><ele>65.0</ele><time>2026-04-25T15:13:04.855Z</time></trkpt><trkpt lat="43.9027467" lon="11.0796067"><ele>64.6</ele><time>2026-04-25T15:13:05.795Z</time></trkpt><trkpt lat="43.9027183" lon="11.079425"><ele>64.2</ele><time>2026-04-25T15:13:06.868Z</time></trkpt><trkpt lat="43.9026933" lon="11.079285"><ele>63.8</ele><time>2026-04-25T15:13:07.809Z</time></trkpt><trkpt lat="43.9026767" lon="11.0791533"><ele>63.4</ele><time>2026-04-25T15:13:08.881Z</time></trkpt><trkpt lat="43.90266" lon="11.07904"><ele>63.0</ele><time>2026-04-25T15:13:09.889Z</time></trkpt><trkpt lat="43.9026267" lon="11.0789567"><ele>63.2</ele><time>2026-04-25T15:13:10.827Z</time></trkpt><trkpt lat="43.9025733" lon="11.0788967"><ele>63.4</ele><time>2026-04-25T15:13:11.901Z</time></trkpt><trkpt lat="43.9025067" lon="11.078835"><ele>63.60000000000001</ele><time>2026-04-25T15:13:12.842Z</time></trkpt><trkpt lat="43.9024233" lon="11.078755"><ele>63.800000000000004</ele><time>2026-04-25T15:13:13.914Z</time></trkpt><trkpt lat="43.9023367" lon="11.0786633"><ele>64.0</ele><time>2026-04-25T15:13:14.855Z</time></trkpt><trkpt lat="43.902235" lon="11.0785317"><ele>64.0</ele><time>2026-04-25T15:13:15.795Z</time></trkpt><trkpt lat="43.902115" lon="11.0783583"><ele>64.0</ele><time>2026-04-25T15:13:16.868Z</time></trkpt><trkpt lat="43.9019833" lon="11.0781567"><ele>64.0</ele><time>2026-04-25T15:13:17.874Z</time></trkpt><trkpt lat="43.901855" lon="11.0779517"><ele>64.0</ele><time>2026-04-25T15:13:18.881Z</time></trkpt><trkpt lat="43.901755" lon="11.0777767"><ele>64.0</ele><time>2026-04-25T15:13:19.888Z</time></trkpt><trkpt lat="43.9016533" lon="11.0776183"><ele>64.0</ele><time>2026-04-25T15:13:20.828Z</time></trkpt><trkpt lat="43.9015583" lon="11.0774567"><ele>64.75</ele><time>2026-04-25T15:13:21.9Z</time></trkpt><trkpt lat="43.9014517" lon="11.0773117"><ele>65.5</ele><time>2026-04-25T15:13:22.841Z</time></trkpt><trkpt lat="43.9013483" lon="11.0771617"><ele>66.25</ele><time>2026-04-25T15:13:23.914Z</time></trkpt><trkpt lat="43.9012517" lon="11.0770083"><ele>67.0</ele><time>2026-04-25T15:13:24.853Z</time></trkpt><trkpt lat="43.901175" lon="11.0768733"><ele>67.0</ele><time>2026-04-25T15:13:25.793Z</time></trkpt><trkpt lat="43.9011033" lon="11.0767583"><ele>67.0</ele><time>2026-04-25T15:13:26.868Z</time></trkpt><trkpt lat="43.901045" lon="11.0766467"><ele>67.0</ele><time>2026-04-25T15:13:27.874Z</time></trkpt><trkpt lat="43.901" lon="11.0765533"><ele>67.0</ele><time>2026-04-25T15:13:28.881Z</time></trkpt><trkpt lat="43.9009783" lon="11.076455"><ele>67.0</ele><time>2026-04-25T15:13:29.886Z</time></trkpt><trkpt lat="43.9009833" lon="11.07636"><ele>67.0</ele><time>2026-04-25T15:13:30.826Z</time></trkpt><trkpt lat="43.9010067" lon="11.076255"><ele>66.66666666666666</ele><time>2026-04-25T15:13:31.901Z</time></trkpt><trkpt lat="43.90103" lon="11.0761517"><ele>66.33333333333333</ele><time>2026-04-25T15:13:32.84Z</time></trkpt><trkpt lat="43.9010717" lon="11.0760367"><ele>66.0</ele><time>2026-04-25T15:13:33.913Z</time></trkpt><trkpt lat="43.9011133" lon="11.0759267"><ele>65.66666666666667</ele><time>2026-04-25T15:13:34.853Z</time></trkpt><trkpt lat="43.9011517" lon="11.0758283"><ele>65.33333333333334</ele><time>2026-04-25T15:13:35.86Z</time></trkpt><trkpt lat="43.9011717" lon="11.07574"><ele>65.0</ele><time>2026-04-25T15:13:36.866Z</time></trkpt><trkpt lat="43.90118" lon="11.07565"><ele>64.25</ele><time>2026-04-25T15:13:37.873Z</time></trkpt><trkpt lat="43.90109" lon="11.075485"><ele>63.5</ele><time>2026-04-25T15:13:39.887Z</time></trkpt><trkpt lat="43.901" lon="11.0754"><ele>62.75</ele><time>2026-04-25T15:13:40.826Z</time></trkpt><trkpt lat="43.9009267" lon="11.0752933"><ele>62.0</ele><time>2026-04-25T15:13:41.899Z</time></trkpt><trkpt lat="43.900845" lon="11.0751783"><ele>61.5</ele><time>2026-04-25T15:13:42.839Z</time></trkpt><trkpt lat="43.900745" lon="11.0750817"><ele>61.0</ele><time>2026-04-25T15:13:43.913Z</time></trkpt><trkpt lat="43.9006617" lon="11.0749733"><ele>60.5</ele><time>2026-04-25T15:13:44.852Z</time></trkpt><trkpt lat="43.9005833" lon="11.074865"><ele>60.0</ele><time>2026-04-25T15:13:45.858Z</time></trkpt><trkpt lat="43.9005167" lon="11.0747517"><ele>60.0</ele><time>2026-04-25T15:13:46.866Z</time></trkpt><trkpt lat="43.9004683" lon="11.074625"><ele>60.0</ele><time>2026-04-25T15:13:47.873Z</time></trkpt><trkpt lat="43.9004283" lon="11.0745133"><ele>60.0</ele><time>2026-04-25T15:13:48.879Z</time></trkpt><trkpt lat="43.9003917" lon="11.0743983"><ele>60.0</ele><time>2026-04-25T15:13:49.886Z</time></trkpt><trkpt lat="43.9003567" lon="11.07429"><ele>60.0</ele><time>2026-04-25T15:13:50.825Z</time></trkpt><trkpt lat="43.9003283" lon="11.0741983"><ele>60.0</ele><time>2026-04-25T15:13:51.899Z</time></trkpt><trkpt lat="43.9003083" lon="11.0741083"><ele>60.166666666666664</ele><time>2026-04-25T15:13:52.839Z</time></trkpt><trkpt lat="43.9002933" lon="11.0740217"><ele>60.33333333333333</ele><time>2026-04-25T15:13:53.912Z</time></trkpt><trkpt lat="43.9003567" lon="11.073955"><ele>60.5</ele><time>2026-04-25T15:13:55.859Z</time></trkpt><trkpt lat="43.9004683" lon="11.0739033"><ele>60.666666666666664</ele><time>2026-04-25T15:13:57.871Z</time></trkpt><trkpt lat="43.900535" lon="11.07386"><ele>60.83333333333333</ele><time>2026-04-25T15:13:58.877Z</time></trkpt><trkpt lat="43.9006367" lon="11.0738167"><ele>61.0</ele><time>2026-04-25T15:13:59.884Z</time></trkpt><trkpt lat="43.90076" lon="11.0737633"><ele>61.0</ele><time>2026-04-25T15:14:00.825Z</time></trkpt><trkpt lat="43.9008917" lon="11.07371"><ele>61.0</ele><time>2026-04-25T15:14:01.897Z</time></trkpt><trkpt lat="43.9010367" lon="11.0736617"><ele>61.0</ele><time>2026-04-25T15:14:02.838Z</time></trkpt><trkpt lat="43.901165" lon="11.07362"><ele>61.0</ele><time>2026-04-25T15:14:03.912Z</time></trkpt><trkpt lat="43.9012883" lon="11.0735767"><ele>61.0</ele><time>2026-04-25T15:14:04.851Z</time></trkpt><trkpt lat="43.9014033" lon="11.0735283"><ele>61.0</ele><time>2026-04-25T15:14:05.858Z</time></trkpt><trkpt lat="43.9015317" lon="11.0734917"><ele>61.0</ele><time>2026-04-25T15:14:06.864Z</time></trkpt><trkpt lat="43.9016733" lon="11.07346"><ele>61.0</ele><time>2026-04-25T15:14:07.871Z</time></trkpt><trkpt lat="43.90179" lon="11.0734183"><ele>61.0</ele><time>2026-04-25T15:14:08.878Z</time></trkpt><trkpt lat="43.9018967" lon="11.0733717"><ele>60.99999999999999</ele><time>2026-04-25T15:14:09.883Z</time></trkpt><trkpt lat="43.9019967" lon="11.0733333"><ele>60.99999999999999</ele><time>2026-04-25T15:14:10.824Z</time></trkpt><trkpt lat="43.9020883" lon="11.0732967"><ele>61.0</ele><time>2026-04-25T15:14:11.897Z</time></trkpt><trkpt lat="43.9021783" lon="11.0732583"><ele>61.0</ele><time>2026-04-25T15:14:12.837Z</time></trkpt><trkpt lat="43.9022667" lon="11.07322"><ele>61.0</ele><time>2026-04-25T15:14:13.911Z</time></trkpt><trkpt lat="43.9023417" lon="11.0731883"><ele>61.0</ele><time>2026-04-25T15:14:14.85Z</time></trkpt><trkpt lat="43.9024033" lon="11.0731583"><ele>61.0</ele><time>2026-04-25T15:14:15.856Z</time></trkpt><trkpt lat="43.9024767" lon="11.0731083"><ele>61.0</ele><time>2026-04-25T15:14:17.87Z</time></trkpt></trkseg></trk></gpx>